<?xml version='1.0' encoding='UTF-8'?><gpx version="1.1" creator="JPX - https://github.com/jenetics/jpx" xmlns="http://www.topografix.com/GPX/1/1"><trk><trkseg><trkpt lat="45.45122068845243" lon="10.898007173101321"><ele>97.99999999999999</ele><time>2026-04-12T06:09:35.321Z</time></trkpt><trkpt lat="45.45123020191253" lon="10.897859819243566"><ele>98.0</ele><time>2026-04-12T06:09:37.084Z</time></trkpt><trkpt lat="45.45122835789383" lon="10.897769210870281"><ele>98.0</ele><time>2026-04-12T06:09:39.081Z</time></trkpt><trkpt lat="45.4512234762645" lon="10.897679444528585"><ele>98.0</ele><time>2026-04-12T06:10:08Z</time></trkpt><trkpt lat="45.45122987822778" lon="10.897543986653542"><ele>97.99999999999999</ele><time>2026-04-12T06:10:10Z</time></trkpt><trkpt lat="45.45124059992349" lon="10.897417382125141"><ele>98.0</ele><time>2026-04-12T06:10:12Z</time></trkpt><trkpt lat="45.451252813593364" lon="10.897278350446674"><ele>97.99999999999999</ele><time>2026-04-12T06:10:14Z</time></trkpt><trkpt lat="45.45130419236453" lon="10.897167376835174"><ele>98.0</ele><time>2026-04-12T06:10:16Z</time></trkpt><trkpt lat="45.451387576512914" lon="10.8971300696165"><ele>98.0</ele><time>2026-04-12T06:10:18Z</time></trkpt><trkpt lat="45.45145341133424" lon="10.897118736767188"><ele>98.0</ele><time>2026-04-12T06:10:19.999Z</time></trkpt><trkpt lat="45.45151327654261" lon="10.897042766519144"><ele>97.99999999999999</ele><time>2026-04-12T06:10:23.999Z</time></trkpt><trkpt lat="45.45149048287507" lon="10.896907486952557"><ele>98.0</ele><time>2026-04-12T06:10:25.999Z</time></trkpt><trkpt lat="45.4514408439601" lon="10.896751030424202"><ele>98.0</ele><time>2026-04-12T06:10:27.999Z</time></trkpt><trkpt lat="45.451405448852945" lon="10.896605276266893"><ele>98.0</ele><time>2026-04-12T06:10:29.999Z</time></trkpt><trkpt lat="45.45137232019181" lon="10.896437977267269"><ele>98.0</ele><time>2026-04-12T06:10:31.999Z</time></trkpt><trkpt lat="45.451360066722266" lon="10.896349754101308"><ele>98.0</ele><time>2026-04-12T06:10:32.999Z</time></trkpt><trkpt lat="45.45133021995567" lon="10.896183261919674"><ele>98.0</ele><time>2026-04-12T06:10:34.999Z</time></trkpt><trkpt lat="45.45133595665995" lon="10.89599228375941"><ele>97.99999999999999</ele><time>2026-04-12T06:10:36.999Z</time></trkpt><trkpt lat="45.451350782642116" lon="10.895902593449856"><ele>98.0</ele><time>2026-04-12T06:10:37.999Z</time></trkpt><trkpt lat="45.451346423534076" lon="10.895715939718635"><ele>98.0</ele><time>2026-04-12T06:10:39.999Z</time></trkpt><trkpt lat="45.451344033965924" lon="10.895612795154493"><ele>98.0</ele><time>2026-04-12T06:10:40.999Z</time></trkpt><trkpt lat="45.45133972086657" lon="10.895511966229506"><ele>97.99999999999999</ele><time>2026-04-12T06:10:41.999Z</time></trkpt><trkpt lat="45.45133594340758" lon="10.895412880434996"><ele>98.0</ele><time>2026-04-12T06:10:42.999Z</time></trkpt><trkpt lat="45.451332224560794" lon="10.895312975527055"><ele>97.99999999999999</ele><time>2026-04-12T06:10:43.999Z</time></trkpt><trkpt lat="45.451328684653916" lon="10.895218390428088"><ele>98.0</ele><time>2026-04-12T06:10:44.999Z</time></trkpt><trkpt lat="45.451326989400314" lon="10.895127444292127"><ele>98.0</ele><time>2026-04-12T06:10:45.999Z</time></trkpt><trkpt lat="45.45131686789314" lon="10.895034910742801"><ele>98.0</ele><time>2026-04-12T06:10:46.999Z</time></trkpt><trkpt lat="45.451271743219074" lon="10.894893796227958"><ele>97.99999999999999</ele><time>2026-04-12T06:10:48.999Z</time></trkpt><trkpt lat="45.45127683378122" lon="10.89475301645443"><ele>98.0</ele><time>2026-04-12T06:10:50.999Z</time></trkpt><trkpt lat="45.451367113991914" lon="10.894640864759486"><ele>98.2</ele><time>2026-04-12T06:10:52.999Z</time></trkpt><trkpt lat="45.45130972066994" lon="10.894591021205636"><ele>98.4</ele><time>2026-04-12T06:10:53.999Z</time></trkpt><trkpt lat="45.45150609463958" lon="10.89458884805178"><ele>98.60000000000001</ele><time>2026-04-12T06:10:54.999Z</time></trkpt><trkpt lat="45.45158113430876" lon="10.894577587876814"><ele>98.80000000000001</ele><time>2026-04-12T06:10:55.999Z</time></trkpt><trkpt lat="45.45165760544503" lon="10.894574346713359"><ele>99.0</ele><time>2026-04-12T06:10:56.999Z</time></trkpt><trkpt lat="45.4517347650557" lon="10.894565783262403"><ele>99.0</ele><time>2026-04-12T06:10:57.999Z</time></trkpt><trkpt lat="45.45181929230244" lon="10.894559250725145"><ele>99.0</ele><time>2026-04-12T06:10:58.999Z</time></trkpt><trkpt lat="45.45190607724626" lon="10.89455031769552"><ele>99.0</ele><time>2026-04-12T06:10:59.999Z</time></trkpt><trkpt lat="45.4519918900934" lon="10.89453779609423"><ele>99.0</ele><time>2026-04-12T06:11:00.999Z</time></trkpt><trkpt lat="45.45208144111155" lon="10.894532909438649"><ele>99.0</ele><time>2026-04-12T06:11:01.999Z</time></trkpt><trkpt lat="45.45217012171321" lon="10.894524405140832"><ele>99.0</ele><time>2026-04-12T06:11:02.999Z</time></trkpt><trkpt lat="45.45226043130975" lon="10.894513783348271"><ele>98.80000000000001</ele><time>2026-04-12T06:11:03.999Z</time></trkpt><trkpt lat="45.45235082632207" lon="10.894504254614331"><ele>98.60000000000001</ele><time>2026-04-12T06:11:04.999Z</time></trkpt><trkpt lat="45.45244131755086" lon="10.894496448925036"><ele>98.4</ele><time>2026-04-12T06:11:05.998Z</time></trkpt><trkpt lat="45.45253084342025" lon="10.894492085224067"><ele>98.2</ele><time>2026-04-12T06:11:06.998Z</time></trkpt><trkpt lat="45.45262359417966" lon="10.894496360108471"><ele>98.0</ele><time>2026-04-12T06:11:07.998Z</time></trkpt><trkpt lat="45.452712780315096" lon="10.894490630163457"><ele>98.0</ele><time>2026-04-12T06:11:08.998Z</time></trkpt><trkpt lat="45.45280486762416" lon="10.894481829332396"><ele>98.0</ele><time>2026-04-12T06:11:09.998Z</time></trkpt><trkpt lat="45.45289786214991" lon="10.894472369382955"><ele>98.0</ele><time>2026-04-12T06:11:10.998Z</time></trkpt><trkpt lat="45.45298762761455" lon="10.894459112268624"><ele>98.0</ele><time>2026-04-12T06:11:11.998Z</time></trkpt><trkpt lat="45.4530799621681" lon="10.894438530262684"><ele>98.0</ele><time>2026-04-12T06:11:12.998Z</time></trkpt><trkpt lat="45.45317052480586" lon="10.894405831464729"><ele>98.2</ele><time>2026-04-12T06:11:13.998Z</time></trkpt><trkpt lat="45.45325602333068" lon="10.894360434604021"><ele>98.4</ele><time>2026-04-12T06:11:14.998Z</time></trkpt><trkpt lat="45.45333726515801" lon="10.894295591393384"><ele>98.60000000000001</ele><time>2026-04-12T06:11:15.998Z</time></trkpt><trkpt lat="45.45341272701952" lon="10.89421802451937"><ele>98.80000000000001</ele><time>2026-04-12T06:11:16.998Z</time></trkpt><trkpt lat="45.45348565038193" lon="10.89412932669392"><ele>99.0</ele><time>2026-04-12T06:11:17.998Z</time></trkpt><trkpt lat="45.45354612649636" lon="10.89402960724604"><ele>99.0</ele><time>2026-04-12T06:11:18.998Z</time></trkpt><trkpt lat="45.45360264999767" lon="10.893922076656349"><ele>99.0</ele><time>2026-04-12T06:11:19.998Z</time></trkpt><trkpt lat="45.45365900849611" lon="10.893811999424004"><ele>99.0</ele><time>2026-04-12T06:11:20.998Z</time></trkpt><trkpt lat="45.45371048990575" lon="10.893701671079025"><ele>99.0</ele><time>2026-04-12T06:11:21.998Z</time></trkpt><trkpt lat="45.4537621732985" lon="10.89358488627783"><ele>99.0</ele><time>2026-04-12T06:11:22.998Z</time></trkpt><trkpt lat="45.45381827337076" lon="10.893473514012912"><ele>99.0</ele><time>2026-04-12T06:11:23.998Z</time></trkpt><trkpt lat="45.45387544192287" lon="10.893364473832476"><ele>99.0</ele><time>2026-04-12T06:11:24.998Z</time></trkpt><trkpt lat="45.45392897175431" lon="10.893254317488903"><ele>99.0</ele><time>2026-04-12T06:11:25.998Z</time></trkpt><trkpt lat="45.45398511699016" lon="10.893140584288217"><ele>99.0</ele><time>2026-04-12T06:11:26.998Z</time></trkpt><trkpt lat="45.45404005787288" lon="10.893026853444853"><ele>99.0</ele><time>2026-04-12T06:11:27.998Z</time></trkpt><trkpt lat="45.45409763808409" lon="10.892914012829682"><ele>99.0</ele><time>2026-04-12T06:11:28.998Z</time></trkpt><trkpt lat="45.45415591756903" lon="10.892802496967285"><ele>99.0</ele><time>2026-04-12T06:11:29.998Z</time></trkpt><trkpt lat="45.4542126174747" lon="10.892694861310522"><ele>99.0</ele><time>2026-04-12T06:11:30.998Z</time></trkpt><trkpt lat="45.4542690368796" lon="10.892578016350445"><ele>99.0</ele><time>2026-04-12T06:11:31.998Z</time></trkpt><trkpt lat="45.45432549004096" lon="10.892470649583482"><ele>99.0</ele><time>2026-04-12T06:11:32.998Z</time></trkpt><trkpt lat="45.45438106556365" lon="10.892357826729656"><ele>98.80000000000001</ele><time>2026-04-12T06:11:33.998Z</time></trkpt><trkpt lat="45.45443667216063" lon="10.8922444787287"><ele>98.60000000000001</ele><time>2026-04-12T06:11:34.998Z</time></trkpt><trkpt lat="45.45448987532551" lon="10.892134980698454"><ele>98.4</ele><time>2026-04-12T06:11:35.998Z</time></trkpt><trkpt lat="45.45454301014778" lon="10.89203183680631"><ele>98.2</ele><time>2026-04-12T06:11:36.998Z</time></trkpt><trkpt lat="45.45459445106106" lon="10.891925878010921"><ele>98.0</ele><time>2026-04-12T06:11:37.998Z</time></trkpt><trkpt lat="45.45464433847238" lon="10.89181932596137"><ele>98.4</ele><time>2026-04-12T06:11:38.998Z</time></trkpt><trkpt lat="45.454695694698316" lon="10.891712929977142"><ele>98.80000000000001</ele><time>2026-04-12T06:11:39.998Z</time></trkpt><trkpt lat="45.45474998761745" lon="10.891607286965666"><ele>99.2</ele><time>2026-04-12T06:11:40.998Z</time></trkpt><trkpt lat="45.45480433093926" lon="10.891500689752423"><ele>99.6</ele><time>2026-04-12T06:11:41.998Z</time></trkpt><trkpt lat="45.45485694438338" lon="10.891393409217935"><ele>100.0</ele><time>2026-04-12T06:11:42.998Z</time></trkpt><trkpt lat="45.454911089399516" lon="10.891289261892425"><ele>100.0</ele><time>2026-04-12T06:11:43.998Z</time></trkpt><trkpt lat="45.45496363425764" lon="10.89118483985427"><ele>100.0</ele><time>2026-04-12T06:11:44.998Z</time></trkpt><trkpt lat="45.45501707095086" lon="10.891076870931533"><ele>100.0</ele><time>2026-04-12T06:11:45.998Z</time></trkpt><trkpt lat="45.45507025132385" lon="10.890971477590886"><ele>100.0</ele><time>2026-04-12T06:11:46.998Z</time></trkpt><trkpt lat="45.45512240468965" lon="10.890863957905065"><ele>100.0</ele><time>2026-04-12T06:11:47.998Z</time></trkpt><trkpt lat="45.45517611570696" lon="10.890757846702556"><ele>100.6</ele><time>2026-04-12T06:11:48.998Z</time></trkpt><trkpt lat="45.45522818104668" lon="10.890652409821424"><ele>101.2</ele><time>2026-04-12T06:11:50Z</time></trkpt><trkpt lat="45.45527893657556" lon="10.890544753830692"><ele>101.80000000000001</ele><time>2026-04-12T06:11:51Z</time></trkpt><trkpt lat="45.45532974547883" lon="10.890435029683319"><ele>102.4</ele><time>2026-04-12T06:11:52Z</time></trkpt><trkpt lat="45.45538473962436" lon="10.890319686688324"><ele>103.0</ele><time>2026-04-12T06:11:53Z</time></trkpt><trkpt lat="45.45544198563656" lon="10.89020643964807"><ele>102.60000000000001</ele><time>2026-04-12T06:11:54Z</time></trkpt><trkpt lat="45.45549755385871" lon="10.890088693923788"><ele>102.2</ele><time>2026-04-12T06:11:55Z</time></trkpt><trkpt lat="45.45555450806984" lon="10.889968019301559"><ele>101.8</ele><time>2026-04-12T06:11:56Z</time></trkpt><trkpt lat="45.45561323902894" lon="10.889847559528523"><ele>101.4</ele><time>2026-04-12T06:11:57Z</time></trkpt><trkpt lat="45.45567680010806" lon="10.889724185068165"><ele>101.0</ele><time>2026-04-12T06:11:58Z</time></trkpt><trkpt lat="45.455739908999824" lon="10.889599370320681"><ele>101.0</ele><time>2026-04-12T06:11:59Z</time></trkpt><trkpt lat="45.45579986312261" lon="10.889471350165884"><ele>101.0</ele><time>2026-04-12T06:12:00Z</time></trkpt><trkpt lat="45.455861774197714" lon="10.88934389306317"><ele>101.0</ele><time>2026-04-12T06:12:01Z</time></trkpt><trkpt lat="45.455922972932406" lon="10.889217912781884"><ele>101.0</ele><time>2026-04-12T06:12:02Z</time></trkpt><trkpt lat="45.45598359449977" lon="10.889093677316707"><ele>101.0</ele><time>2026-04-12T06:12:03Z</time></trkpt><trkpt lat="45.4560412139616" lon="10.888966886213009"><ele>100.8</ele><time>2026-04-12T06:12:04Z</time></trkpt><trkpt lat="45.45609457900751" lon="10.888838551256642"><ele>100.6</ele><time>2026-04-12T06:12:05Z</time></trkpt><trkpt lat="45.456154084800524" lon="10.888708372354914"><ele>100.4</ele><time>2026-04-12T06:12:06Z</time></trkpt><trkpt lat="45.45621594565954" lon="10.88858083223136"><ele>100.2</ele><time>2026-04-12T06:12:07Z</time></trkpt><trkpt lat="45.45627773996349" lon="10.888453300389868"><ele>100.0</ele><time>2026-04-12T06:12:08Z</time></trkpt><trkpt lat="45.45634025544484" lon="10.888321255176885"><ele>100.4</ele><time>2026-04-12T06:12:09Z</time></trkpt><trkpt lat="45.456403215522734" lon="10.888192049553293"><ele>100.8</ele><time>2026-04-12T06:12:10Z</time></trkpt><trkpt lat="45.45646541143829" lon="10.888061221244131"><ele>101.19999999999999</ele><time>2026-04-12T06:12:11Z</time></trkpt><trkpt lat="45.456529955671435" lon="10.887935538235215"><ele>101.6</ele><time>2026-04-12T06:12:12Z</time></trkpt><trkpt lat="45.45659431383994" lon="10.887810165884908"><ele>102.0</ele><time>2026-04-12T06:12:13Z</time></trkpt><trkpt lat="45.45665879326087" lon="10.887683577107548"><ele>102.0</ele><time>2026-04-12T06:12:14Z</time></trkpt><trkpt lat="45.456722452178944" lon="10.887559412066045"><ele>102.0</ele><time>2026-04-12T06:12:15Z</time></trkpt><trkpt lat="45.45679167408764" lon="10.887439522732011"><ele>102.0</ele><time>2026-04-12T06:12:16Z</time></trkpt><trkpt lat="45.45685604233537" lon="10.887317261247194"><ele>102.0</ele><time>2026-04-12T06:12:17Z</time></trkpt><trkpt lat="45.456917452273466" lon="10.887190029407853"><ele>102.0</ele><time>2026-04-12T06:12:18Z</time></trkpt><trkpt lat="45.45697781917222" lon="10.887063749792226"><ele>102.0</ele><time>2026-04-12T06:12:19Z</time></trkpt><trkpt lat="45.45703603349981" lon="10.886938185327418"><ele>102.0</ele><time>2026-04-12T06:12:20Z</time></trkpt><trkpt lat="45.45709438946736" lon="10.88681395044674"><ele>102.0</ele><time>2026-04-12T06:12:20.999Z</time></trkpt><trkpt lat="45.45715683707292" lon="10.886691864607206"><ele>102.0</ele><time>2026-04-12T06:12:21.999Z</time></trkpt><trkpt lat="45.45721959621944" lon="10.886567704918354"><ele>102.0</ele><time>2026-04-12T06:12:22.999Z</time></trkpt><trkpt lat="45.45727952192392" lon="10.886442443421986"><ele>102.19999999999999</ele><time>2026-04-12T06:12:23.999Z</time></trkpt><trkpt lat="45.4573418353202" lon="10.886316048724478"><ele>102.4</ele><time>2026-04-12T06:12:24.999Z</time></trkpt><trkpt lat="45.457404329483744" lon="10.88619146170119"><ele>102.6</ele><time>2026-04-12T06:12:25.999Z</time></trkpt><trkpt lat="45.45746096069121" lon="10.886062802929228"><ele>102.80000000000001</ele><time>2026-04-12T06:12:26.999Z</time></trkpt><trkpt lat="45.45751375698236" lon="10.885927444971424"><ele>103.0</ele><time>2026-04-12T06:12:27.999Z</time></trkpt><trkpt lat="45.45755001641509" lon="10.885790233966182"><ele>103.0</ele><time>2026-04-12T06:12:28.999Z</time></trkpt><trkpt lat="45.45757469490338" lon="10.885641669073546"><ele>103.0</ele><time>2026-04-12T06:12:29.999Z</time></trkpt><trkpt lat="45.45758150838034" lon="10.885509125212577"><ele>103.0</ele><time>2026-04-12T06:12:30.999Z</time></trkpt><trkpt lat="45.457571245896084" lon="10.885371013833433"><ele>103.0</ele><time>2026-04-12T06:12:31.999Z</time></trkpt><trkpt lat="45.45754493397814" lon="10.885226957754321"><ele>103.0</ele><time>2026-04-12T06:12:32.999Z</time></trkpt><trkpt lat="45.457496564794596" lon="10.88509582366925"><ele>102.80000000000001</ele><time>2026-04-12T06:12:33.999Z</time></trkpt><trkpt lat="45.457431989043954" lon="10.884977222197023"><ele>102.6</ele><time>2026-04-12T06:12:34.999Z</time></trkpt><trkpt lat="45.45735652425669" lon="10.884867256809084"><ele>102.4</ele><time>2026-04-12T06:12:35.999Z</time></trkpt><trkpt lat="45.45727340982912" lon="10.884770809749053"><ele>102.19999999999999</ele><time>2026-04-12T06:12:36.999Z</time></trkpt><trkpt lat="45.45718195645011" lon="10.884673084653107"><ele>102.0</ele><time>2026-04-12T06:12:37.999Z</time></trkpt><trkpt lat="45.457092027132326" lon="10.88458974175652"><ele>101.8</ele><time>2026-04-12T06:12:38.999Z</time></trkpt><trkpt lat="45.457002675062675" lon="10.884508440837672"><ele>101.6</ele><time>2026-04-12T06:12:39.999Z</time></trkpt><trkpt lat="45.45691398495537" lon="10.88442546449019"><ele>101.39999999999999</ele><time>2026-04-12T06:12:40.999Z</time></trkpt><trkpt lat="45.45682414050951" lon="10.884336731369716"><ele>101.19999999999999</ele><time>2026-04-12T06:12:41.999Z</time></trkpt><trkpt lat="45.456734499959765" lon="10.884247124343299"><ele>101.0</ele><time>2026-04-12T06:12:42.999Z</time></trkpt><trkpt lat="45.45664346502845" lon="10.884154702794692"><ele>100.8</ele><time>2026-04-12T06:12:43.999Z</time></trkpt><trkpt lat="45.45655426853924" lon="10.8840668002176"><ele>100.6</ele><time>2026-04-12T06:12:44.999Z</time></trkpt><trkpt lat="45.456462970898" lon="10.88398014085729"><ele>100.4</ele><time>2026-04-12T06:12:45.999Z</time></trkpt><trkpt lat="45.45637421845223" lon="10.883892774243327"><ele>100.2</ele><time>2026-04-12T06:12:46.999Z</time></trkpt><trkpt lat="45.45628482504771" lon="10.88380673804215"><ele>100.0</ele><time>2026-04-12T06:12:47.999Z</time></trkpt><trkpt lat="45.456193771533194" lon="10.88371993482765"><ele>100.0</ele><time>2026-04-12T06:12:48.999Z</time></trkpt><trkpt lat="45.456103671973835" lon="10.883635028862335"><ele>100.0</ele><time>2026-04-12T06:12:49.999Z</time></trkpt><trkpt lat="45.456012874236265" lon="10.88354413952754"><ele>100.0</ele><time>2026-04-12T06:12:50.999Z</time></trkpt><trkpt lat="45.455921483520896" lon="10.883441260034505"><ele>100.0</ele><time>2026-04-12T06:12:51.999Z</time></trkpt><trkpt lat="45.45583560600841" lon="10.883341329287436"><ele>100.0</ele><time>2026-04-12T06:12:52.999Z</time></trkpt><trkpt lat="45.4557489816855" lon="10.883238541386719"><ele>100.25</ele><time>2026-04-12T06:12:53.999Z</time></trkpt><trkpt lat="45.45566643186546" lon="10.88312397437108"><ele>100.5</ele><time>2026-04-12T06:12:54.999Z</time></trkpt><trkpt lat="45.455579132251366" lon="10.88301922167109"><ele>100.75</ele><time>2026-04-12T06:12:55.999Z</time></trkpt><trkpt lat="45.455492193324254" lon="10.882914720125834"><ele>101.0</ele><time>2026-04-12T06:12:56.999Z</time></trkpt><trkpt lat="45.45539580224773" lon="10.882831178094404"><ele>101.0</ele><time>2026-04-12T06:12:57.999Z</time></trkpt><trkpt lat="45.45534340197436" lon="10.882672438348395"><ele>101.0</ele><time>2026-04-12T06:12:58.999Z</time></trkpt><trkpt lat="45.45526666625156" lon="10.882556456206455"><ele>101.0</ele><time>2026-04-12T06:12:59.999Z</time></trkpt><trkpt lat="45.45518752998936" lon="10.882445068570314"><ele>101.0</ele><time>2026-04-12T06:13:00.999Z</time></trkpt><trkpt lat="45.455107369659125" lon="10.882336149145068"><ele>101.0</ele><time>2026-04-12T06:13:01.999Z</time></trkpt><trkpt lat="45.45503041892645" lon="10.882222744728887"><ele>101.0</ele><time>2026-04-12T06:13:02.999Z</time></trkpt><trkpt lat="45.454959034785716" lon="10.882101879257263"><ele>101.0</ele><time>2026-04-12T06:13:03.999Z</time></trkpt><trkpt lat="45.45489848649164" lon="10.881971489536893"><ele>101.0</ele><time>2026-04-12T06:13:04.999Z</time></trkpt><trkpt lat="45.454852440776165" lon="10.881830611397007"><ele>101.0</ele><time>2026-04-12T06:13:05.999Z</time></trkpt><trkpt lat="45.45482236981061" lon="10.881683214799635"><ele>100.83333333333333</ele><time>2026-04-12T06:13:06.999Z</time></trkpt><trkpt lat="45.45480999320378" lon="10.881538120495641"><ele>100.66666666666666</ele><time>2026-04-12T06:13:07.999Z</time></trkpt><trkpt lat="45.45480536415053" lon="10.881423986727862"><ele>100.5</ele><time>2026-04-12T06:13:08.999Z</time></trkpt><trkpt lat="45.45481468876697" lon="10.881285825036835"><ele>100.33333333333334</ele><time>2026-04-12T06:13:10.999Z</time></trkpt><trkpt lat="45.4548305109425" lon="10.881191767107772"><ele>100.16666666666667</ele><time>2026-04-12T06:13:12.998Z</time></trkpt><trkpt lat="45.45485085526253" lon="10.881071908780498"><ele>100.0</ele><time>2026-04-12T06:13:14.998Z</time></trkpt><trkpt lat="45.45490215676566" lon="10.880975658076473"><ele>100.0</ele><time>2026-04-12T06:13:15.998Z</time></trkpt><trkpt lat="45.454967591214185" lon="10.88086811198583"><ele>100.0</ele><time>2026-04-12T06:13:16.998Z</time></trkpt><trkpt lat="45.45503416563392" lon="10.880764178411335"><ele>100.0</ele><time>2026-04-12T06:13:17.998Z</time></trkpt><trkpt lat="45.455100504125355" lon="10.88065636524236"><ele>100.0</ele><time>2026-04-12T06:13:18.998Z</time></trkpt><trkpt lat="45.455170430996326" lon="10.880541820574598"><ele>100.0</ele><time>2026-04-12T06:13:19.998Z</time></trkpt><trkpt lat="45.455242832911615" lon="10.880425132300267"><ele>100.0</ele><time>2026-04-12T06:13:20.998Z</time></trkpt><trkpt lat="45.45531895878586" lon="10.880307016713244"><ele>100.0</ele><time>2026-04-12T06:13:21.998Z</time></trkpt><trkpt lat="45.45539712165151" lon="10.880186155017814"><ele>100.0</ele><time>2026-04-12T06:13:22.998Z</time></trkpt><trkpt lat="45.455479031583586" lon="10.880069677293386"><ele>100.0</ele><time>2026-04-12T06:13:23.998Z</time></trkpt><trkpt lat="45.45556396882386" lon="10.879952226290163"><ele>99.75</ele><time>2026-04-12T06:13:24.998Z</time></trkpt><trkpt lat="45.45564861403346" lon="10.879834778025934"><ele>99.5</ele><time>2026-04-12T06:13:25.998Z</time></trkpt><trkpt lat="45.45572996160534" lon="10.879715721887209"><ele>99.25</ele><time>2026-04-12T06:13:26.998Z</time></trkpt><trkpt lat="45.45581447777808" lon="10.879588659280227"><ele>99.0</ele><time>2026-04-12T06:13:27.998Z</time></trkpt><trkpt lat="45.45591001984151" lon="10.879450277604882"><ele>99.0</ele><time>2026-04-12T06:13:28.998Z</time></trkpt><trkpt lat="45.45601387943552" lon="10.879302944926133"><ele>99.0</ele><time>2026-04-12T06:13:29.998Z</time></trkpt><trkpt lat="45.4561140597587" lon="10.879148099663835"><ele>99.0</ele><time>2026-04-12T06:13:30.998Z</time></trkpt><trkpt lat="45.456211955369355" lon="10.878982999069162"><ele>99.0</ele><time>2026-04-12T06:13:31.998Z</time></trkpt><trkpt lat="45.456302480572305" lon="10.878820856902742"><ele>99.33333333333334</ele><time>2026-04-12T06:13:32.998Z</time></trkpt><trkpt lat="45.45640191080383" lon="10.878633247157282"><ele>99.66666666666667</ele><time>2026-04-12T06:13:33.998Z</time></trkpt><trkpt lat="45.45651477627067" lon="10.878425747607773"><ele>100.0</ele><time>2026-04-12T06:13:34.998Z</time></trkpt><trkpt lat="45.45663194721252" lon="10.878216089725745"><ele>100.0</ele><time>2026-04-12T06:13:35.998Z</time></trkpt><trkpt lat="45.45673514855256" lon="10.878029210110322"><ele>100.0</ele><time>2026-04-12T06:13:36.998Z</time></trkpt><trkpt lat="45.45682416888648" lon="10.87787148920682"><ele>100.0</ele><time>2026-04-12T06:13:37.998Z</time></trkpt><trkpt lat="45.45690590434774" lon="10.87772651098904"><ele>100.0</ele><time>2026-04-12T06:13:38.998Z</time></trkpt><trkpt lat="45.456983625392596" lon="10.877591424573792"><ele>99.8</ele><time>2026-04-12T06:13:39.998Z</time></trkpt><trkpt lat="45.45705965258746" lon="10.877457714425093"><ele>99.6</ele><time>2026-04-12T06:13:40.998Z</time></trkpt><trkpt lat="45.45712800236386" lon="10.877338545665891"><ele>99.4</ele><time>2026-04-12T06:13:41.998Z</time></trkpt><trkpt lat="45.45719118086194" lon="10.877231760820651"><ele>99.2</ele><time>2026-04-12T06:13:42.998Z</time></trkpt><trkpt lat="45.45724454928332" lon="10.877136664226633"><ele>99.0</ele><time>2026-04-12T06:13:43.998Z</time></trkpt><trkpt lat="45.45728724466297" lon="10.877070127180385"><ele>99.0</ele><time>2026-04-12T06:13:44.998Z</time></trkpt><trkpt lat="45.45734661722209" lon="10.87696787109796"><ele>99.0</ele><time>2026-04-12T06:13:46.998Z</time></trkpt><trkpt lat="45.45739777593197" lon="10.876859700509103"><ele>99.0</ele><time>2026-04-12T06:15:05.999Z</time></trkpt><trkpt lat="45.45745484784067" lon="10.87671365281357"><ele>99.0</ele><time>2026-04-12T06:15:07.999Z</time></trkpt><trkpt lat="45.457490238882684" lon="10.876625257858066"><ele>99.0</ele><time>2026-04-12T06:15:08.999Z</time></trkpt><trkpt lat="45.457534193963234" lon="10.876524984138474"><ele>100.0</ele><time>2026-04-12T06:15:09.999Z</time></trkpt><trkpt lat="45.45759043288453" lon="10.876415891883745"><ele>101.0</ele><time>2026-04-12T06:15:10.999Z</time></trkpt><trkpt lat="45.45765149763459" lon="10.876300790590378"><ele>102.0</ele><time>2026-04-12T06:15:11.999Z</time></trkpt><trkpt lat="45.45771594159959" lon="10.876177358090631"><ele>103.0</ele><time>2026-04-12T06:15:12.999Z</time></trkpt><trkpt lat="45.4577851837055" lon="10.87603894694772"><ele>104.0</ele><time>2026-04-12T06:15:13.999Z</time></trkpt><trkpt lat="45.45786001665061" lon="10.875889261629707"><ele>103.75</ele><time>2026-04-12T06:15:14.999Z</time></trkpt><trkpt lat="45.45793910633195" lon="10.87573077281352"><ele>103.5</ele><time>2026-04-12T06:15:15.999Z</time></trkpt><trkpt lat="45.45802242425852" lon="10.875563637989941"><ele>103.25</ele><time>2026-04-12T06:15:16.999Z</time></trkpt><trkpt lat="45.458107650833206" lon="10.875391998108231"><ele>103.0</ele><time>2026-04-12T06:15:17.999Z</time></trkpt><trkpt lat="45.45819546645871" lon="10.875216785489075"><ele>103.66666666666667</ele><time>2026-04-12T06:15:18.999Z</time></trkpt><trkpt lat="45.45828337769856" lon="10.875037478473455"><ele>104.33333333333334</ele><time>2026-04-12T06:15:19.999Z</time></trkpt><trkpt lat="45.45837495518902" lon="10.874852340186768"><ele>105.0</ele><time>2026-04-12T06:15:20.999Z</time></trkpt><trkpt lat="45.458469909638964" lon="10.874661391628035"><ele>105.0</ele><time>2026-04-12T06:15:21.998Z</time></trkpt><trkpt lat="45.45856806573753" lon="10.874464812664053"><ele>105.0</ele><time>2026-04-12T06:15:22.998Z</time></trkpt><trkpt lat="45.45866737425555" lon="10.874266133021786"><ele>105.0</ele><time>2026-04-12T06:15:23.998Z</time></trkpt><trkpt lat="45.45876811728113" lon="10.874063911112902"><ele>105.33333333333334</ele><time>2026-04-12T06:15:24.998Z</time></trkpt><trkpt lat="45.458869494898146" lon="10.873860854025914"><ele>105.66666666666667</ele><time>2026-04-12T06:15:25.998Z</time></trkpt><trkpt lat="45.458971335440694" lon="10.873657943637104"><ele>106.0</ele><time>2026-04-12T06:15:26.998Z</time></trkpt><trkpt lat="45.459076767838354" lon="10.873450284865834"><ele>107.0</ele><time>2026-04-12T06:15:27.998Z</time></trkpt><trkpt lat="45.45918489527643" lon="10.87323489898895"><ele>108.0</ele><time>2026-04-12T06:15:28.998Z</time></trkpt><trkpt lat="45.459294476939974" lon="10.87301360308096"><ele>109.0</ele><time>2026-04-12T06:15:29.998Z</time></trkpt><trkpt lat="45.45940389851578" lon="10.87279360204029"><ele>109.0</ele><time>2026-04-12T06:15:30.998Z</time></trkpt><trkpt lat="45.45951663129674" lon="10.872571976947077"><ele>109.0</ele><time>2026-04-12T06:15:31.998Z</time></trkpt><trkpt lat="45.45963162711385" lon="10.872345647957252"><ele>109.0</ele><time>2026-04-12T06:15:32.998Z</time></trkpt><trkpt lat="45.459746035664516" lon="10.872115362289119"><ele>109.0</ele><time>2026-04-12T06:15:33.998Z</time></trkpt><trkpt lat="45.45986623477103" lon="10.871880978191115"><ele>109.0</ele><time>2026-04-12T06:15:34.998Z</time></trkpt><trkpt lat="45.45998971978023" lon="10.871646842053812"><ele>109.0</ele><time>2026-04-12T06:15:35.998Z</time></trkpt><trkpt lat="45.46011867278814" lon="10.871409197502135"><ele>109.33333333333334</ele><time>2026-04-12T06:15:36.998Z</time></trkpt><trkpt lat="45.46025081089256" lon="10.871171794082814"><ele>109.66666666666666</ele><time>2026-04-12T06:15:37.998Z</time></trkpt><trkpt lat="45.46038722346567" lon="10.870936502231194"><ele>110.0</ele><time>2026-04-12T06:15:38.998Z</time></trkpt><trkpt lat="45.460531285161835" lon="10.870704989819657"><ele>110.0</ele><time>2026-04-12T06:15:39.998Z</time></trkpt><trkpt lat="45.46068182093811" lon="10.870476961968"><ele>110.0</ele><time>2026-04-12T06:15:40.998Z</time></trkpt><trkpt lat="45.46084076246545" lon="10.870257588731596"><ele>110.0</ele><time>2026-04-12T06:15:41.998Z</time></trkpt><trkpt lat="45.46100578219062" lon="10.870046869327298"><ele>110.0</ele><time>2026-04-12T06:15:42.998Z</time></trkpt><trkpt lat="45.46117901370441" lon="10.869844461772145"><ele>110.0</ele><time>2026-04-12T06:15:43.998Z</time></trkpt><trkpt lat="45.461358737774106" lon="10.869650423587554"><ele>110.0</ele><time>2026-04-12T06:15:44.998Z</time></trkpt><trkpt lat="45.46154417102408" lon="10.869462119381282"><ele>110.0</ele><time>2026-04-12T06:15:45.998Z</time></trkpt><trkpt lat="45.46173380373753" lon="10.869283803067392"><ele>110.0</ele><time>2026-04-12T06:15:46.998Z</time></trkpt><trkpt lat="45.46192897027776" lon="10.869113796687687"><ele>109.5</ele><time>2026-04-12T06:15:47.998Z</time></trkpt><trkpt lat="45.46212998064748" lon="10.868953096929932"><ele>109.0</ele><time>2026-04-12T06:15:48.998Z</time></trkpt><trkpt lat="45.4623350013847" lon="10.868803897242115"><ele>109.0</ele><time>2026-04-12T06:15:49.998Z</time></trkpt><trkpt lat="45.46254305588945" lon="10.868662034486976"><ele>109.0</ele><time>2026-04-12T06:15:50.998Z</time></trkpt><trkpt lat="45.46274752632899" lon="10.868533184255794"><ele>111.33333333333334</ele><time>2026-04-12T06:15:51.998Z</time></trkpt><trkpt lat="45.46295106545612" lon="10.868415696694687"><ele>113.66666666666666</ele><time>2026-04-12T06:15:52.998Z</time></trkpt><trkpt lat="45.46315168652989" lon="10.868303508402212"><ele>116.0</ele><time>2026-04-12T06:15:53.998Z</time></trkpt><trkpt lat="45.46335630034955" lon="10.868192090674444"><ele>116.0</ele><time>2026-04-12T06:15:54.998Z</time></trkpt><trkpt lat="45.4635584955101" lon="10.868069294393354"><ele>116.0</ele><time>2026-04-12T06:15:55.998Z</time></trkpt><trkpt lat="45.46376358799819" lon="10.86794884056154"><ele>116.0</ele><time>2026-04-12T06:15:56.998Z</time></trkpt><trkpt lat="45.46397215546953" lon="10.867827709333366"><ele>115.0</ele><time>2026-04-12T06:15:57.998Z</time></trkpt><trkpt lat="45.46418519768846" lon="10.867703974886032"><ele>114.0</ele><time>2026-04-12T06:15:58.998Z</time></trkpt><trkpt lat="45.46440190513135" lon="10.867579874039986"><ele>113.66666666666666</ele><time>2026-04-12T06:15:59.998Z</time></trkpt><trkpt lat="45.46461189820444" lon="10.867464090976155"><ele>113.33333333333333</ele><time>2026-04-12T06:16:00.998Z</time></trkpt><trkpt lat="45.46481980870029" lon="10.867350381012645"><ele>113.0</ele><time>2026-04-12T06:16:02Z</time></trkpt><trkpt lat="45.465030038752445" lon="10.867234632410748"><ele>111.5</ele><time>2026-04-12T06:16:03Z</time></trkpt><trkpt lat="45.46524196698006" lon="10.867119102934987"><ele>110.0</ele><time>2026-04-12T06:16:04Z</time></trkpt><trkpt lat="45.465454545931266" lon="10.867001167131104"><ele>110.0</ele><time>2026-04-12T06:16:05Z</time></trkpt><trkpt lat="45.465671049656756" lon="10.866880943344663"><ele>110.0</ele><time>2026-04-12T06:16:06Z</time></trkpt><trkpt lat="45.46588516598045" lon="10.866755457881114"><ele>110.0</ele><time>2026-04-12T06:16:07Z</time></trkpt><trkpt lat="45.46609524443932" lon="10.86663971227052"><ele>110.0</ele><time>2026-04-12T06:16:08Z</time></trkpt><trkpt lat="45.46630007425834" lon="10.866521423866539"><ele>110.0</ele><time>2026-04-12T06:16:09Z</time></trkpt><trkpt lat="45.466497854359325" lon="10.866406878856019"><ele>110.0</ele><time>2026-04-12T06:16:10Z</time></trkpt><trkpt lat="45.46669334128309" lon="10.866295361997855"><ele>110.0</ele><time>2026-04-12T06:16:11Z</time></trkpt><trkpt lat="45.46689295540784" lon="10.86618473938347"><ele>110.0</ele><time>2026-04-12T06:16:12Z</time></trkpt><trkpt lat="45.467096123975296" lon="10.866074420980896"><ele>110.0</ele><time>2026-04-12T06:16:13Z</time></trkpt><trkpt lat="45.46730148984824" lon="10.865958515325199"><ele>110.0</ele><time>2026-04-12T06:16:14Z</time></trkpt><trkpt lat="45.46751055718566" lon="10.865839309434593"><ele>110.0</ele><time>2026-04-12T06:16:15Z</time></trkpt><trkpt lat="45.467720141045156" lon="10.865716236877722"><ele>110.0</ele><time>2026-04-12T06:16:16Z</time></trkpt><trkpt lat="45.46793456745879" lon="10.865595545714392"><ele>110.0</ele><time>2026-04-12T06:16:17Z</time></trkpt><trkpt lat="45.46815106302979" lon="10.865475522455062"><ele>110.0</ele><time>2026-04-12T06:16:18Z</time></trkpt><trkpt lat="45.468365204428004" lon="10.86535556322239"><ele>110.0</ele><time>2026-04-12T06:16:19Z</time></trkpt><trkpt lat="45.468575985591016" lon="10.865240946820439"><ele>108.66666666666666</ele><time>2026-04-12T06:16:20Z</time></trkpt><trkpt lat="45.468784181578606" lon="10.86512761777802"><ele>107.33333333333334</ele><time>2026-04-12T06:16:21Z</time></trkpt><trkpt lat="45.46899356430115" lon="10.865011974215225"><ele>106.0</ele><time>2026-04-12T06:16:22Z</time></trkpt><trkpt lat="45.469203659258035" lon="10.864894180317757"><ele>106.0</ele><time>2026-04-12T06:16:23Z</time></trkpt><trkpt lat="45.46941733793798" lon="10.864776701542352"><ele>106.0</ele><time>2026-04-12T06:16:24Z</time></trkpt><trkpt lat="45.46963435461355" lon="10.86465719454954"><ele>100.5</ele><time>2026-04-12T06:16:25Z</time></trkpt><trkpt lat="45.469854050409744" lon="10.864538217297897"><ele>95.0</ele><time>2026-04-12T06:16:26Z</time></trkpt><trkpt lat="45.47007360605751" lon="10.864417575400925"><ele>95.0</ele><time>2026-04-12T06:16:27Z</time></trkpt><trkpt lat="45.47029279640107" lon="10.864294325465238"><ele>95.0</ele><time>2026-04-12T06:16:28Z</time></trkpt><trkpt lat="45.470511288510316" lon="10.864172299877861"><ele>93.5</ele><time>2026-04-12T06:16:29Z</time></trkpt><trkpt lat="45.47072516148358" lon="10.864053526085788"><ele>92.0</ele><time>2026-04-12T06:16:30Z</time></trkpt><trkpt lat="45.47093549783947" lon="10.86393821073758"><ele>92.0</ele><time>2026-04-12T06:16:31Z</time></trkpt><trkpt lat="45.47114407393902" lon="10.863818838651948"><ele>92.0</ele><time>2026-04-12T06:16:32Z</time></trkpt><trkpt lat="45.47135216720637" lon="10.863699248904082"><ele>92.0</ele><time>2026-04-12T06:16:33Z</time></trkpt><trkpt lat="45.47156242940425" lon="10.863584812844453"><ele>91.33333333333334</ele><time>2026-04-12T06:16:34Z</time></trkpt><trkpt lat="45.47177205840117" lon="10.863471040624962"><ele>90.66666666666667</ele><time>2026-04-12T06:16:35Z</time></trkpt><trkpt lat="45.47198175158282" lon="10.863355177557985"><ele>90.0</ele><time>2026-04-12T06:16:36Z</time></trkpt><trkpt lat="45.472187981159124" lon="10.863239253760897"><ele>89.33333333333333</ele><time>2026-04-12T06:16:37Z</time></trkpt><trkpt lat="45.47239138270009" lon="10.863125263366271"><ele>88.66666666666666</ele><time>2026-04-12T06:16:38Z</time></trkpt><trkpt lat="45.47258264303184" lon="10.863017256288229"><ele>88.0</ele><time>2026-04-12T06:16:39Z</time></trkpt><trkpt lat="45.47276301964584" lon="10.862915091530864"><ele>87.66666666666666</ele><time>2026-04-12T06:16:39.999Z</time></trkpt><trkpt lat="45.472942441565436" lon="10.862819726315859"><ele>87.33333333333333</ele><time>2026-04-12T06:16:40.999Z</time></trkpt><trkpt lat="45.47312116799681" lon="10.862723298655805"><ele>87.0</ele><time>2026-04-12T06:16:41.999Z</time></trkpt><trkpt lat="45.473303616869956" lon="10.8626220666956"><ele>87.0</ele><time>2026-04-12T06:16:42.999Z</time></trkpt><trkpt lat="45.473484177533436" lon="10.862523417557163"><ele>87.0</ele><time>2026-04-12T06:16:43.999Z</time></trkpt><trkpt lat="45.47366832841639" lon="10.862421550973057"><ele>87.0</ele><time>2026-04-12T06:16:44.999Z</time></trkpt><trkpt lat="45.47385015736207" lon="10.862319484672476"><ele>87.0</ele><time>2026-04-12T06:16:45.999Z</time></trkpt><trkpt lat="45.47403850417431" lon="10.86221461992269"><ele>87.0</ele><time>2026-04-12T06:16:46.999Z</time></trkpt><trkpt lat="45.474225303835475" lon="10.862110428582547"><ele>87.0</ele><time>2026-04-12T06:16:47.999Z</time></trkpt><trkpt lat="45.474415157217955" lon="10.862003912230287"><ele>87.0</ele><time>2026-04-12T06:16:48.999Z</time></trkpt><trkpt lat="45.47460378638376" lon="10.86189778477364"><ele>87.0</ele><time>2026-04-12T06:16:49.999Z</time></trkpt><trkpt lat="45.474792807897074" lon="10.861793254165972"><ele>87.0</ele><time>2026-04-12T06:16:50.999Z</time></trkpt><trkpt lat="45.47497938909933" lon="10.861690527880098"><ele>87.33333333333333</ele><time>2026-04-12T06:16:51.999Z</time></trkpt><trkpt lat="45.475169342224156" lon="10.861589464458065"><ele>87.66666666666666</ele><time>2026-04-12T06:16:52.999Z</time></trkpt><trkpt lat="45.47535700989392" lon="10.861489162423883"><ele>88.0</ele><time>2026-04-12T06:16:53.999Z</time></trkpt><trkpt lat="45.47553663462896" lon="10.86138902119999"><ele>88.0</ele><time>2026-04-12T06:16:54.999Z</time></trkpt><trkpt lat="45.47571892382305" lon="10.861291219354975"><ele>88.0</ele><time>2026-04-12T06:16:55.999Z</time></trkpt><trkpt lat="45.475900501063904" lon="10.861191764175613"><ele>88.0</ele><time>2026-04-12T06:16:56.999Z</time></trkpt><trkpt lat="45.47608569194599" lon="10.861089679738395"><ele>88.33333333333333</ele><time>2026-04-12T06:16:57.999Z</time></trkpt><trkpt lat="45.476273347551526" lon="10.860987459842459"><ele>88.66666666666667</ele><time>2026-04-12T06:16:58.999Z</time></trkpt><trkpt lat="45.476466654491645" lon="10.860881972760218"><ele>89.0</ele><time>2026-04-12T06:16:59.999Z</time></trkpt><trkpt lat="45.47666186168277" lon="10.86077514622971"><ele>89.0</ele><time>2026-04-12T06:17:00.999Z</time></trkpt><trkpt lat="45.47685872321452" lon="10.860662547154687"><ele>89.0</ele><time>2026-04-12T06:17:01.999Z</time></trkpt><trkpt lat="45.47705730014523" lon="10.860550093794084"><ele>89.0</ele><time>2026-04-12T06:17:02.999Z</time></trkpt><trkpt lat="45.47725417037489" lon="10.860437019095158"><ele>87.33333333333334</ele><time>2026-04-12T06:17:03.999Z</time></trkpt><trkpt lat="45.47745639468441" lon="10.860330297513988"><ele>85.66666666666667</ele><time>2026-04-12T06:17:04.999Z</time></trkpt><trkpt lat="45.47765918324926" lon="10.860194883254842"><ele>84.0</ele><time>2026-04-12T06:17:05.999Z</time></trkpt><trkpt lat="45.47786023472153" lon="10.860099486718331"><ele>81.66666666666667</ele><time>2026-04-12T06:17:06.999Z</time></trkpt><trkpt lat="45.47806353426148" lon="10.859986239630539"><ele>79.33333333333334</ele><time>2026-04-12T06:17:07.999Z</time></trkpt><trkpt lat="45.47826524111222" lon="10.859876263401327"><ele>77.0</ele><time>2026-04-12T06:17:08.999Z</time></trkpt><trkpt lat="45.47846346578584" lon="10.85976522707303"><ele>77.0</ele><time>2026-04-12T06:17:09.999Z</time></trkpt><trkpt lat="45.47866013823458" lon="10.859658132092886"><ele>77.0</ele><time>2026-04-12T06:17:10.999Z</time></trkpt><trkpt lat="45.47886608738458" lon="10.859555831239232"><ele>77.0</ele><time>2026-04-12T06:17:11.999Z</time></trkpt><trkpt lat="45.47906987656418" lon="10.859471522464997"><ele>77.66666666666667</ele><time>2026-04-12T06:17:12.999Z</time></trkpt><trkpt lat="45.47928217958787" lon="10.859410153824756"><ele>78.33333333333333</ele><time>2026-04-12T06:17:13.999Z</time></trkpt><trkpt lat="45.479499888574445" lon="10.859372089226024"><ele>79.0</ele><time>2026-04-12T06:17:14.999Z</time></trkpt><trkpt lat="45.479720796142594" lon="10.859342299994166"><ele>80.0</ele><time>2026-04-12T06:17:15.999Z</time></trkpt><trkpt lat="45.47994205503719" lon="10.85932636790716"><ele>81.0</ele><time>2026-04-12T06:17:16.999Z</time></trkpt><trkpt lat="45.48016339025635" lon="10.859314283087768"><ele>82.0</ele><time>2026-04-12T06:17:17.999Z</time></trkpt><trkpt lat="45.48037426101804" lon="10.859297080402785"><ele>82.0</ele><time>2026-04-12T06:17:18.999Z</time></trkpt><trkpt lat="45.48057982522528" lon="10.859281173646727"><ele>82.0</ele><time>2026-04-12T06:17:19.999Z</time></trkpt><trkpt lat="45.48078099486615" lon="10.859259539829232"><ele>82.0</ele><time>2026-04-12T06:17:20.999Z</time></trkpt><trkpt lat="45.48098481437588" lon="10.859247177872895"><ele>82.0</ele><time>2026-04-12T06:17:21.999Z</time></trkpt><trkpt lat="45.48118729022775" lon="10.85923157940821"><ele>82.0</ele><time>2026-04-12T06:17:22.999Z</time></trkpt><trkpt lat="45.48139032327492" lon="10.85921488984558"><ele>82.0</ele><time>2026-04-12T06:17:23.999Z</time></trkpt><trkpt lat="45.481595641825" lon="10.859196692038987"><ele>81.33333333333333</ele><time>2026-04-12T06:17:24.999Z</time></trkpt><trkpt lat="45.4818026647315" lon="10.859181259036825"><ele>80.66666666666667</ele><time>2026-04-12T06:17:25.999Z</time></trkpt><trkpt lat="45.482010733538814" lon="10.859167419148427"><ele>80.0</ele><time>2026-04-12T06:17:26.999Z</time></trkpt><trkpt lat="45.482221736123364" lon="10.859151301606405"><ele>79.33333333333334</ele><time>2026-04-12T06:17:27.999Z</time></trkpt><trkpt lat="45.48243313572314" lon="10.859134708284888"><ele>78.66666666666667</ele><time>2026-04-12T06:17:28.999Z</time></trkpt><trkpt lat="45.482647065220974" lon="10.859116619863437"><ele>78.0</ele><time>2026-04-12T06:17:29.999Z</time></trkpt><trkpt lat="45.48286187937939" lon="10.85910059404393"><ele>77.66666666666667</ele><time>2026-04-12T06:17:30.999Z</time></trkpt><trkpt lat="45.483076637629075" lon="10.859082632579664"><ele>77.33333333333334</ele><time>2026-04-12T06:17:31.999Z</time></trkpt><trkpt lat="45.48329300934155" lon="10.859062930926294"><ele>77.0</ele><time>2026-04-12T06:17:32.998Z</time></trkpt><trkpt lat="45.48350966388641" lon="10.859044161295612"><ele>77.0</ele><time>2026-04-12T06:17:33.998Z</time></trkpt><trkpt lat="45.48372782676237" lon="10.859025326126744"><ele>77.0</ele><time>2026-04-12T06:17:34.998Z</time></trkpt><trkpt lat="45.48394645487074" lon="10.859008099245337"><ele>77.0</ele><time>2026-04-12T06:17:35.998Z</time></trkpt><trkpt lat="45.48416572077575" lon="10.858990901837261"><ele>77.33333333333334</ele><time>2026-04-12T06:17:36.998Z</time></trkpt><trkpt lat="45.484386304467996" lon="10.85897260353079"><ele>77.66666666666667</ele><time>2026-04-12T06:17:37.998Z</time></trkpt><trkpt lat="45.48460827132811" lon="10.858955568707444"><ele>78.0</ele><time>2026-04-12T06:17:38.998Z</time></trkpt><trkpt lat="45.484829281106464" lon="10.858937600341465"><ele>78.0</ele><time>2026-04-12T06:17:39.998Z</time></trkpt><trkpt lat="45.485051251647796" lon="10.858920740799459"><ele>78.0</ele><time>2026-04-12T06:17:40.998Z</time></trkpt><trkpt lat="45.48527381729032" lon="10.858905520726758"><ele>78.0</ele><time>2026-04-12T06:17:41.998Z</time></trkpt><trkpt lat="45.48549704991679" lon="10.858889082954892"><ele>77.66666666666667</ele><time>2026-04-12T06:17:42.998Z</time></trkpt><trkpt lat="45.48572138935807" lon="10.858873057029758"><ele>77.33333333333334</ele><time>2026-04-12T06:17:43.998Z</time></trkpt><trkpt lat="45.48594439857857" lon="10.858857039950534"><ele>77.0</ele><time>2026-04-12T06:17:44.998Z</time></trkpt><trkpt lat="45.48616719127573" lon="10.85883930302276"><ele>78.0</ele><time>2026-04-12T06:17:45.998Z</time></trkpt><trkpt lat="45.486387626942005" lon="10.85882128891973"><ele>79.0</ele><time>2026-04-12T06:17:46.998Z</time></trkpt><trkpt lat="45.48660003600307" lon="10.858802304738486"><ele>80.0</ele><time>2026-04-12T06:17:47.998Z</time></trkpt><trkpt lat="45.486809474664156" lon="10.858782725901628"><ele>80.0</ele><time>2026-04-12T06:17:48.998Z</time></trkpt><trkpt lat="45.48701455504142" lon="10.85876269466596"><ele>80.0</ele><time>2026-04-12T06:17:49.998Z</time></trkpt><trkpt lat="45.48721976135339" lon="10.85874479256549"><ele>80.0</ele><time>2026-04-12T06:17:50.998Z</time></trkpt><trkpt lat="45.48741843453633" lon="10.85872307594229"><ele>84.0</ele><time>2026-04-12T06:17:51.998Z</time></trkpt><trkpt lat="45.48761462813659" lon="10.858702255563403"><ele>88.0</ele><time>2026-04-12T06:17:52.998Z</time></trkpt><trkpt lat="45.48781384659666" lon="10.858679544164035"><ele>92.0</ele><time>2026-04-12T06:17:53.998Z</time></trkpt><trkpt lat="45.488009691064" lon="10.858655582404182"><ele>92.33333333333334</ele><time>2026-04-12T06:17:54.998Z</time></trkpt><trkpt lat="45.488203758487145" lon="10.858631563588197"><ele>92.66666666666667</ele><time>2026-04-12T06:17:55.998Z</time></trkpt><trkpt lat="45.48839727703575" lon="10.858610978022426"><ele>93.0</ele><time>2026-04-12T06:17:56.998Z</time></trkpt><trkpt lat="45.48859360767152" lon="10.858594197362526"><ele>93.33333333333333</ele><time>2026-04-12T06:17:57.998Z</time></trkpt><trkpt lat="45.4887821806547" lon="10.858576786651694"><ele>93.66666666666666</ele><time>2026-04-12T06:17:58.998Z</time></trkpt><trkpt lat="45.48897494169734" lon="10.85856631245454"><ele>94.0</ele><time>2026-04-12T06:17:59.998Z</time></trkpt><trkpt lat="45.489166973380605" lon="10.858558265749501"><ele>94.0</ele><time>2026-04-12T06:18:00.998Z</time></trkpt><trkpt lat="45.489367009381034" lon="10.85857611448618"><ele>94.0</ele><time>2026-04-12T06:18:01.998Z</time></trkpt><trkpt lat="45.48955445256149" lon="10.85854853579074"><ele>94.0</ele><time>2026-04-12T06:18:02.998Z</time></trkpt><trkpt lat="45.48974072829968" lon="10.858530698784238"><ele>93.66666666666666</ele><time>2026-04-12T06:18:03.998Z</time></trkpt><trkpt lat="45.48992305472824" lon="10.858514272792341"><ele>93.33333333333333</ele><time>2026-04-12T06:18:04.998Z</time></trkpt><trkpt lat="45.49010950982859" lon="10.85849918329027"><ele>93.0</ele><time>2026-04-12T06:18:05.998Z</time></trkpt><trkpt lat="45.490291665165294" lon="10.858485867315679"><ele>93.0</ele><time>2026-04-12T06:18:06.998Z</time></trkpt><trkpt lat="45.49046088791592" lon="10.85847762908503"><ele>93.0</ele><time>2026-04-12T06:18:08Z</time></trkpt><trkpt lat="45.49063355419938" lon="10.85846456047868"><ele>93.0</ele><time>2026-04-12T06:18:09Z</time></trkpt><trkpt lat="45.49080457517167" lon="10.858450160567255"><ele>93.0</ele><time>2026-04-12T06:18:10Z</time></trkpt><trkpt lat="45.49097215297715" lon="10.858437578779375"><ele>93.0</ele><time>2026-04-12T06:18:11Z</time></trkpt><trkpt lat="45.49114128501144" lon="10.858426803896888"><ele>93.0</ele><time>2026-04-12T06:18:12Z</time></trkpt><trkpt lat="45.49131178835729" lon="10.858412573191776"><ele>95.0</ele><time>2026-04-12T06:18:13Z</time></trkpt><trkpt lat="45.49148431163675" lon="10.858399959645435"><ele>97.0</ele><time>2026-04-12T06:18:14Z</time></trkpt><trkpt lat="45.4916599432682" lon="10.858385937617765"><ele>99.0</ele><time>2026-04-12T06:18:15Z</time></trkpt><trkpt lat="45.491835858582405" lon="10.858371510959655"><ele>99.0</ele><time>2026-04-12T06:18:16Z</time></trkpt><trkpt lat="45.49201676711644" lon="10.85835395105501"><ele>99.0</ele><time>2026-04-12T06:18:17Z</time></trkpt><trkpt lat="45.492200645700024" lon="10.858336638299951"><ele>99.0</ele><time>2026-04-12T06:18:18Z</time></trkpt><trkpt lat="45.49238389385863" lon="10.858325236675897"><ele>100.66666666666666</ele><time>2026-04-12T06:18:19Z</time></trkpt><trkpt lat="45.49257247028337" lon="10.858310005929244"><ele>102.33333333333333</ele><time>2026-04-12T06:18:20Z</time></trkpt><trkpt lat="45.49276014528214" lon="10.858294142277014"><ele>104.0</ele><time>2026-04-12T06:18:21Z</time></trkpt><trkpt lat="45.49294654382749" lon="10.858278783943625"><ele>104.33333333333333</ele><time>2026-04-12T06:18:22Z</time></trkpt><trkpt lat="45.4931320012201" lon="10.858263951834402"><ele>104.66666666666666</ele><time>2026-04-12T06:18:23Z</time></trkpt><trkpt lat="45.493323104079025" lon="10.858251931550754"><ele>105.0</ele><time>2026-04-12T06:18:24Z</time></trkpt><trkpt lat="45.493510945386475" lon="10.858238962448407"><ele>105.0</ele><time>2026-04-12T06:18:25Z</time></trkpt><trkpt lat="45.49369081739785" lon="10.85822767371494"><ele>105.0</ele><time>2026-04-12T06:18:26Z</time></trkpt><trkpt lat="45.49387154440636" lon="10.858221826082461"><ele>105.0</ele><time>2026-04-12T06:18:27Z</time></trkpt><trkpt lat="45.49404904218297" lon="10.858224305842331"><ele>104.66666666666666</ele><time>2026-04-12T06:18:28Z</time></trkpt><trkpt lat="45.49422803889981" lon="10.858235834392737"><ele>104.33333333333333</ele><time>2026-04-12T06:18:29Z</time></trkpt><trkpt lat="45.49440337520971" lon="10.858255868790875"><ele>104.0</ele><time>2026-04-12T06:18:30Z</time></trkpt><trkpt lat="45.49457493487997" lon="10.858283328459615"><ele>104.33333333333333</ele><time>2026-04-12T06:18:31Z</time></trkpt><trkpt lat="45.49473711295676" lon="10.858317796653747"><ele>104.66666666666666</ele><time>2026-04-12T06:18:32Z</time></trkpt><trkpt lat="45.49489947911806" lon="10.858354582508817"><ele>105.0</ele><time>2026-04-12T06:18:33Z</time></trkpt><trkpt lat="45.495070772672285" lon="10.858411804900808"><ele>105.33333333333334</ele><time>2026-04-12T06:18:34Z</time></trkpt><trkpt lat="45.49524328044742" lon="10.858483899619594"><ele>105.66666666666667</ele><time>2026-04-12T06:18:35Z</time></trkpt><trkpt lat="45.49541621567409" lon="10.85856207581333"><ele>106.0</ele><time>2026-04-12T06:18:36Z</time></trkpt><trkpt lat="45.49558659170875" lon="10.858651495540803"><ele>106.0</ele><time>2026-04-12T06:18:37Z</time></trkpt><trkpt lat="45.49575566715867" lon="10.858747181969457"><ele>106.0</ele><time>2026-04-12T06:18:38Z</time></trkpt><trkpt lat="45.49591852613164" lon="10.858845316944862"><ele>106.0</ele><time>2026-04-12T06:18:39Z</time></trkpt><trkpt lat="45.496082080847444" lon="10.858959409279587"><ele>106.0</ele><time>2026-04-12T06:18:40Z</time></trkpt><trkpt lat="45.496240505311285" lon="10.859083470985436"><ele>106.0</ele><time>2026-04-12T06:18:41Z</time></trkpt><trkpt lat="45.49639669627646" lon="10.85922438259686"><ele>106.0</ele><time>2026-04-12T06:18:42Z</time></trkpt><trkpt lat="45.49655107551852" lon="10.85937153466044"><ele>107.33333333333334</ele><time>2026-04-12T06:18:43Z</time></trkpt><trkpt lat="45.49670298490657" lon="10.859529631724099"><ele>108.66666666666666</ele><time>2026-04-12T06:18:44Z</time></trkpt><trkpt lat="45.496849491894714" lon="10.859695065954082"><ele>110.0</ele><time>2026-04-12T06:18:45Z</time></trkpt><trkpt lat="45.49699105207771" lon="10.859863264868022"><ele>110.33333333333333</ele><time>2026-04-12T06:18:46Z</time></trkpt><trkpt lat="45.497130448167454" lon="10.860032157573047"><ele>110.66666666666666</ele><time>2026-04-12T06:18:46.999Z</time></trkpt><trkpt lat="45.497268837238686" lon="10.860201962296705"><ele>111.0</ele><time>2026-04-12T06:18:47.999Z</time></trkpt><trkpt lat="45.49740888973412" lon="10.860374627580642"><ele>109.66666666666666</ele><time>2026-04-12T06:18:48.999Z</time></trkpt><trkpt lat="45.497551174199415" lon="10.860547686018435"><ele>108.33333333333333</ele><time>2026-04-12T06:18:49.999Z</time></trkpt><trkpt lat="45.4976913036513" lon="10.860715386943898"><ele>107.0</ele><time>2026-04-12T06:18:50.999Z</time></trkpt><trkpt lat="45.49783457534805" lon="10.860886406683898"><ele>107.33333333333333</ele><time>2026-04-12T06:18:51.999Z</time></trkpt><trkpt lat="45.49797812108071" lon="10.861051455558632"><ele>107.66666666666666</ele><time>2026-04-12T06:18:52.999Z</time></trkpt><trkpt lat="45.49811741727447" lon="10.861206457982878"><ele>108.0</ele><time>2026-04-12T06:18:53.999Z</time></trkpt><trkpt lat="45.49826129762968" lon="10.861362685307434"><ele>108.0</ele><time>2026-04-12T06:18:54.999Z</time></trkpt><trkpt lat="45.49840586655815" lon="10.861515626794485"><ele>108.0</ele><time>2026-04-12T06:18:55.999Z</time></trkpt><trkpt lat="45.49854811047085" lon="10.861658435036588"><ele>108.0</ele><time>2026-04-12T06:18:56.999Z</time></trkpt><trkpt lat="45.49867907650221" lon="10.861776734832127"><ele>108.0</ele><time>2026-04-12T06:18:57.999Z</time></trkpt><trkpt lat="45.49882465544692" lon="10.861877552105112"><ele>108.0</ele><time>2026-04-12T06:18:58.999Z</time></trkpt><trkpt lat="45.49897355735934" lon="10.861954604588222"><ele>108.0</ele><time>2026-04-12T06:18:59.999Z</time></trkpt><trkpt lat="45.49911526982373" lon="10.862014012724307"><ele>108.0</ele><time>2026-04-12T06:19:00.999Z</time></trkpt><trkpt lat="45.49924336682931" lon="10.862060677369536"><ele>108.00000000000001</ele><time>2026-04-12T06:19:01.999Z</time></trkpt><trkpt lat="45.49934877824145" lon="10.862114728969546"><ele>108.00000000000001</ele><time>2026-04-12T06:19:02.999Z</time></trkpt><trkpt lat="45.49944473612559" lon="10.862163011651962"><ele>108.0</ele><time>2026-04-12T06:19:03.999Z</time></trkpt><trkpt lat="45.499516601008104" lon="10.862229897546861"><ele>108.0</ele><time>2026-04-12T06:19:04.999Z</time></trkpt><trkpt lat="45.499561730281734" lon="10.862331467316503"><ele>108.0</ele><time>2026-04-12T06:19:05.999Z</time></trkpt><trkpt lat="45.49958443067808" lon="10.862455580638606"><ele>108.00000000000001</ele><time>2026-04-12T06:19:06.999Z</time></trkpt><trkpt lat="45.49955795102951" lon="10.862588126030156"><ele>108.00000000000001</ele><time>2026-04-12T06:19:07.999Z</time></trkpt><trkpt lat="45.49949393031212" lon="10.862705486882417"><ele>108.0</ele><time>2026-04-12T06:19:08.999Z</time></trkpt><trkpt lat="45.49939908207323" lon="10.862783092902415"><ele>108.0</ele><time>2026-04-12T06:19:09.999Z</time></trkpt><trkpt lat="45.49929973537962" lon="10.862838291870956"><ele>108.0</ele><time>2026-04-12T06:19:10.999Z</time></trkpt><trkpt lat="45.49920093034652" lon="10.862879087106895"><ele>108.00000000000001</ele><time>2026-04-12T06:19:11.999Z</time></trkpt><trkpt lat="45.49910421764795" lon="10.862890095266096"><ele>108.00000000000001</ele><time>2026-04-12T06:19:12.999Z</time></trkpt><trkpt lat="45.499010490371" lon="10.86285367640189"><ele>108.0</ele><time>2026-04-12T06:19:13.999Z</time></trkpt><trkpt lat="45.49892690158702" lon="10.86276917055884"><ele>108.0</ele><time>2026-04-12T06:19:14.999Z</time></trkpt><trkpt lat="45.49887330044339" lon="10.862647140529814"><ele>108.0</ele><time>2026-04-12T06:19:15.999Z</time></trkpt><trkpt lat="45.4988514688308" lon="10.862508826507305"><ele>108.00000000000001</ele><time>2026-04-12T06:19:16.999Z</time></trkpt><trkpt lat="45.49887991782934" lon="10.862362106348309"><ele>108.00000000000001</ele><time>2026-04-12T06:19:17.999Z</time></trkpt><trkpt lat="45.49891421025603" lon="10.862235349924704"><ele>108.0</ele><time>2026-04-12T06:19:18.999Z</time></trkpt><trkpt lat="45.49894318865497" lon="10.862099363686777"><ele>108.0</ele><time>2026-04-12T06:19:19.999Z</time></trkpt><trkpt lat="45.49905557791992" lon="10.861995744680668"><ele>108.0</ele><time>2026-04-12T06:19:20.999Z</time></trkpt><trkpt lat="45.49913376182439" lon="10.861851045438781"><ele>108.0</ele><time>2026-04-12T06:19:21.999Z</time></trkpt><trkpt lat="45.49921771663494" lon="10.86170094290179"><ele>108.0</ele><time>2026-04-12T06:19:22.999Z</time></trkpt><trkpt lat="45.49930881956625" lon="10.86154499930729"><ele>108.0</ele><time>2026-04-12T06:19:23.999Z</time></trkpt><trkpt lat="45.4993997091294" lon="10.861385255959073"><ele>108.33333333333334</ele><time>2026-04-12T06:19:24.999Z</time></trkpt><trkpt lat="45.49949537398774" lon="10.861210758054067"><ele>108.66666666666667</ele><time>2026-04-12T06:19:25.999Z</time></trkpt><trkpt lat="45.499593022184875" lon="10.861035228416062"><ele>109.0</ele><time>2026-04-12T06:19:26.999Z</time></trkpt><trkpt lat="45.49969531944064" lon="10.860860231276314"><ele>110.0</ele><time>2026-04-12T06:19:27.999Z</time></trkpt><trkpt lat="45.49979760420035" lon="10.860679715840337"><ele>111.0</ele><time>2026-04-12T06:19:28.999Z</time></trkpt><trkpt lat="45.49989851857732" lon="10.860487656403164"><ele>112.0</ele><time>2026-04-12T06:19:29.999Z</time></trkpt><trkpt lat="45.50000062588588" lon="10.860285528990238"><ele>112.66666666666667</ele><time>2026-04-12T06:19:30.999Z</time></trkpt><trkpt lat="45.50009750912416" lon="10.86008412758299"><ele>113.33333333333334</ele><time>2026-04-12T06:19:31.999Z</time></trkpt><trkpt lat="45.500196038372756" lon="10.859874474595268"><ele>114.0</ele><time>2026-04-12T06:19:32.999Z</time></trkpt><trkpt lat="45.50029259586018" lon="10.859668487607868"><ele>114.0</ele><time>2026-04-12T06:19:33.999Z</time></trkpt><trkpt lat="45.50038659149939" lon="10.859472363647084"><ele>114.0</ele><time>2026-04-12T06:19:34.999Z</time></trkpt><trkpt lat="45.500476839960776" lon="10.859279178069741"><ele>114.0</ele><time>2026-04-12T06:19:35.999Z</time></trkpt><trkpt lat="45.50057117368423" lon="10.85908502791496"><ele>113.66666666666666</ele><time>2026-04-12T06:19:36.999Z</time></trkpt><trkpt lat="45.50066333887113" lon="10.858884919392713"><ele>113.33333333333333</ele><time>2026-04-12T06:19:37.999Z</time></trkpt><trkpt lat="45.50076170690013" lon="10.858680361874"><ele>113.0</ele><time>2026-04-12T06:19:38.998Z</time></trkpt><trkpt lat="45.50085929622246" lon="10.858469227584898"><ele>113.33333333333333</ele><time>2026-04-12T06:19:39.998Z</time></trkpt><trkpt lat="45.500953895839906" lon="10.858246951971994"><ele>113.66666666666666</ele><time>2026-04-12T06:19:40.998Z</time></trkpt><trkpt lat="45.50104743938451" lon="10.85802466277041"><ele>114.0</ele><time>2026-04-12T06:19:41.998Z</time></trkpt><trkpt lat="45.501137300607766" lon="10.857790611693567"><ele>114.0</ele><time>2026-04-12T06:19:42.998Z</time></trkpt><trkpt lat="45.50122115599843" lon="10.857559246456791"><ele>114.0</ele><time>2026-04-12T06:19:43.998Z</time></trkpt><trkpt lat="45.50130463697112" lon="10.857327157532607"><ele>114.0</ele><time>2026-04-12T06:19:44.998Z</time></trkpt><trkpt lat="45.501389715775524" lon="10.857090397861944"><ele>114.0</ele><time>2026-04-12T06:19:45.998Z</time></trkpt><trkpt lat="45.50147522701199" lon="10.856851633655571"><ele>114.0</ele><time>2026-04-12T06:19:46.998Z</time></trkpt><trkpt lat="45.50155779099015" lon="10.856615569132208"><ele>114.0</ele><time>2026-04-12T06:19:47.998Z</time></trkpt><trkpt lat="45.50163609832115" lon="10.856384080693246"><ele>113.66666666666666</ele><time>2026-04-12T06:19:48.998Z</time></trkpt><trkpt lat="45.50171478002813" lon="10.856148537901667"><ele>113.33333333333333</ele><time>2026-04-12T06:19:49.998Z</time></trkpt><trkpt lat="45.50179120253758" lon="10.855921201156734"><ele>113.0</ele><time>2026-04-12T06:19:50.998Z</time></trkpt><trkpt lat="45.50186875127663" lon="10.855686160891338"><ele>113.0</ele><time>2026-04-12T06:19:51.998Z</time></trkpt><trkpt lat="45.50195422330656" lon="10.85544954808116"><ele>113.0</ele><time>2026-04-12T06:19:52.998Z</time></trkpt><trkpt lat="45.5020388617342" lon="10.855220716076298"><ele>113.0</ele><time>2026-04-12T06:19:53.998Z</time></trkpt><trkpt lat="45.502124849391" lon="10.854987766401646"><ele>113.33333333333333</ele><time>2026-04-12T06:19:54.998Z</time></trkpt><trkpt lat="45.50220937463644" lon="10.854750914883912"><ele>113.66666666666666</ele><time>2026-04-12T06:19:55.998Z</time></trkpt><trkpt lat="45.502297303135926" lon="10.85451736800001"><ele>114.0</ele><time>2026-04-12T06:19:56.998Z</time></trkpt><trkpt lat="45.50238168699859" lon="10.854276998012086"><ele>114.0</ele><time>2026-04-12T06:19:57.998Z</time></trkpt><trkpt lat="45.50246474169004" lon="10.854052021600635"><ele>114.0</ele><time>2026-04-12T06:19:58.998Z</time></trkpt><trkpt lat="45.502538900171686" lon="10.85385172985772"><ele>114.0</ele><time>2026-04-12T06:19:59.998Z</time></trkpt><trkpt lat="45.5026085794521" lon="10.853657564735025"><ele>114.0</ele><time>2026-04-12T06:20:00.998Z</time></trkpt><trkpt lat="45.502682054179616" lon="10.853456254017717"><ele>114.0</ele><time>2026-04-12T06:20:01.998Z</time></trkpt><trkpt lat="45.5027558333118" lon="10.85324918370323"><ele>114.0</ele><time>2026-04-12T06:20:02.998Z</time></trkpt><trkpt lat="45.502832073614435" lon="10.853044191941217"><ele>114.33333333333334</ele><time>2026-04-12T06:20:03.998Z</time></trkpt><trkpt lat="45.50290701278541" lon="10.852835313272568"><ele>114.66666666666667</ele><time>2026-04-12T06:20:04.998Z</time></trkpt><trkpt lat="45.50298065934256" lon="10.852639327320794"><ele>115.0</ele><time>2026-04-12T06:20:05.998Z</time></trkpt><trkpt lat="45.503048995117126" lon="10.85245846177541"><ele>115.0</ele><time>2026-04-12T06:20:06.998Z</time></trkpt><trkpt lat="45.503118207785576" lon="10.852279978708996"><ele>115.0</ele><time>2026-04-12T06:20:07.998Z</time></trkpt><trkpt lat="45.5031930847218" lon="10.852102482195448"><ele>115.0</ele><time>2026-04-12T06:20:08.998Z</time></trkpt><trkpt lat="45.50326926486722" lon="10.851918689350512"><ele>115.0</ele><time>2026-04-12T06:20:09.998Z</time></trkpt><trkpt lat="45.50334940804447" lon="10.851726275890016"><ele>115.33333333333334</ele><time>2026-04-12T06:20:10.998Z</time></trkpt><trkpt lat="45.50342466956041" lon="10.851524685147265"><ele>115.66666666666666</ele><time>2026-04-12T06:20:11.998Z</time></trkpt><trkpt lat="45.50349428204536" lon="10.851318706122386"><ele>116.0</ele><time>2026-04-12T06:20:12.998Z</time></trkpt><trkpt lat="45.50356261875651" lon="10.851102756670091"><ele>116.0</ele><time>2026-04-12T06:20:14Z</time></trkpt><trkpt lat="45.50362923893437" lon="10.850880741113626"><ele>116.0</ele><time>2026-04-12T06:20:15Z</time></trkpt><trkpt lat="45.50369260295613" lon="10.850650316569892"><ele>116.0</ele><time>2026-04-12T06:20:16Z</time></trkpt><trkpt lat="45.503756927797575" lon="10.850412317353642"><ele>116.0</ele><time>2026-04-12T06:20:17Z</time></trkpt><trkpt lat="45.50381877319579" lon="10.85016742522276"><ele>116.0</ele><time>2026-04-12T06:20:18Z</time></trkpt><trkpt lat="45.5038802640212" lon="10.849915522913209"><ele>116.0</ele><time>2026-04-12T06:20:19Z</time></trkpt><trkpt lat="45.503934851204214" lon="10.849668404014189"><ele>116.33333333333333</ele><time>2026-04-12T06:20:20Z</time></trkpt><trkpt lat="45.50399134371402" lon="10.849430823675581"><ele>116.66666666666666</ele><time>2026-04-12T06:20:21Z</time></trkpt><trkpt lat="45.504047892054395" lon="10.84919741416678"><ele>117.0</ele><time>2026-04-12T06:20:22Z</time></trkpt><trkpt lat="45.504111043585795" lon="10.848963284758172"><ele>117.33333333333334</ele><time>2026-04-12T06:20:23Z</time></trkpt><trkpt lat="45.50418657958389" lon="10.848728767372286"><ele>117.66666666666667</ele><time>2026-04-12T06:20:24Z</time></trkpt><trkpt lat="45.50426508660473" lon="10.848491800072171"><ele>118.0</ele><time>2026-04-12T06:20:25Z</time></trkpt><trkpt lat="45.50434149579829" lon="10.848257978274622"><ele>118.0</ele><time>2026-04-12T06:20:26Z</time></trkpt><trkpt lat="45.504417958260504" lon="10.848020995292494"><ele>118.0</ele><time>2026-04-12T06:20:27Z</time></trkpt><trkpt lat="45.50449453455967" lon="10.847783533639584"><ele>118.0</ele><time>2026-04-12T06:20:28Z</time></trkpt><trkpt lat="45.50456963862165" lon="10.847560500381137"><ele>119.0</ele><time>2026-04-12T06:20:29Z</time></trkpt><trkpt lat="45.5046466211387" lon="10.847350960310035"><ele>120.0</ele><time>2026-04-12T06:20:30Z</time></trkpt><trkpt lat="45.50472407173501" lon="10.84715172269491"><ele>121.0</ele><time>2026-04-12T06:20:31Z</time></trkpt><trkpt lat="45.50480818767598" lon="10.846959058627881"><ele>120.33333333333334</ele><time>2026-04-12T06:20:32Z</time></trkpt><trkpt lat="45.504894943229125" lon="10.846763626849835"><ele>119.66666666666666</ele><time>2026-04-12T06:20:33Z</time></trkpt><trkpt lat="45.50500277147609" lon="10.84657111169513"><ele>119.0</ele><time>2026-04-12T06:20:34Z</time></trkpt><trkpt lat="45.505108607142716" lon="10.846380944471056"><ele>119.0</ele><time>2026-04-12T06:20:35Z</time></trkpt><trkpt lat="45.50522003643609" lon="10.846197325200178"><ele>119.0</ele><time>2026-04-12T06:20:36Z</time></trkpt><trkpt lat="45.50532886743607" lon="10.846016402360297"><ele>119.0</ele><time>2026-04-12T06:20:37Z</time></trkpt><trkpt lat="45.50543797360841" lon="10.845827914812707"><ele>119.0</ele><time>2026-04-12T06:20:38Z</time></trkpt><trkpt lat="45.50554147860908" lon="10.8456287960247"><ele>119.0</ele><time>2026-04-12T06:20:39Z</time></trkpt><trkpt lat="45.50563004969905" lon="10.845422103667639"><ele>119.0</ele><time>2026-04-12T06:20:40Z</time></trkpt><trkpt lat="45.50571365317414" lon="10.845209193563907"><ele>119.66666666666666</ele><time>2026-04-12T06:20:41Z</time></trkpt><trkpt lat="45.50579114819193" lon="10.844991999336461"><ele>120.33333333333334</ele><time>2026-04-12T06:20:42Z</time></trkpt><trkpt lat="45.505857654144954" lon="10.844770699592356"><ele>121.0</ele><time>2026-04-12T06:20:43Z</time></trkpt><trkpt lat="45.50591112373075" lon="10.844543012678612"><ele>121.0</ele><time>2026-04-12T06:20:44Z</time></trkpt><trkpt lat="45.50595546788214" lon="10.844321817053325"><ele>121.0</ele><time>2026-04-12T06:20:45Z</time></trkpt><trkpt lat="45.50600525233828" lon="10.84412761963676"><ele>121.0</ele><time>2026-04-12T06:20:46Z</time></trkpt><trkpt lat="45.50605055941936" lon="10.843936427653375"><ele>121.0</ele><time>2026-04-12T06:20:47Z</time></trkpt><trkpt lat="45.50607430945468" lon="10.843776461817352"><ele>121.00000000000001</ele><time>2026-04-12T06:20:48Z</time></trkpt><trkpt lat="45.50609731752322" lon="10.843623885643282"><ele>121.0</ele><time>2026-04-12T06:20:49Z</time></trkpt><trkpt lat="45.50612576980883" lon="10.843510066854865"><ele>121.0</ele><time>2026-04-12T06:20:50Z</time></trkpt><trkpt lat="45.506162208077825" lon="10.84340430953229"><ele>121.0</ele><time>2026-04-12T06:20:51Z</time></trkpt><trkpt lat="45.50621549299442" lon="10.843322417421076"><ele>121.00000000000001</ele><time>2026-04-12T06:20:52Z</time></trkpt><trkpt lat="45.506297257186866" lon="10.843274659044956"><ele>121.0</ele><time>2026-04-12T06:20:52.999Z</time></trkpt><trkpt lat="45.506393647125684" lon="10.843224049423858"><ele>120.4</ele><time>2026-04-12T06:20:53.999Z</time></trkpt><trkpt lat="45.506448451104674" lon="10.84313555753785"><ele>119.8</ele><time>2026-04-12T06:20:54.999Z</time></trkpt><trkpt lat="45.50647416241793" lon="10.84300982574862"><ele>119.20000000000002</ele><time>2026-04-12T06:20:55.999Z</time></trkpt><trkpt lat="45.50644422682469" lon="10.842859626603364"><ele>118.60000000000001</ele><time>2026-04-12T06:20:56.999Z</time></trkpt><trkpt lat="45.50639408024008" lon="10.842704049351347"><ele>118.0</ele><time>2026-04-12T06:20:57.999Z</time></trkpt><trkpt lat="45.50636363566761" lon="10.842527927651314"><ele>118.0</ele><time>2026-04-12T06:20:58.999Z</time></trkpt><trkpt lat="45.50636297215699" lon="10.842299621351513"><ele>118.0</ele><time>2026-04-12T06:20:59.999Z</time></trkpt><trkpt lat="45.506404046936446" lon="10.842055102491933"><ele>118.0</ele><time>2026-04-12T06:21:00.999Z</time></trkpt><trkpt lat="45.506467721755975" lon="10.841801594883396"><ele>118.66666666666667</ele><time>2026-04-12T06:21:01.999Z</time></trkpt><trkpt lat="45.50652354470206" lon="10.841543499210902"><ele>119.33333333333334</ele><time>2026-04-12T06:21:02.999Z</time></trkpt><trkpt lat="45.50657807902772" lon="10.84127784573633"><ele>120.0</ele><time>2026-04-12T06:21:03.999Z</time></trkpt><trkpt lat="45.50663514894656" lon="10.841029838977352"><ele>120.0</ele><time>2026-04-12T06:21:04.999Z</time></trkpt><trkpt lat="45.50668236125553" lon="10.840798859186494"><ele>120.0</ele><time>2026-04-12T06:21:05.999Z</time></trkpt><trkpt lat="45.506722737588674" lon="10.840573178167078"><ele>120.0</ele><time>2026-04-12T06:21:06.999Z</time></trkpt><trkpt lat="45.506759084477466" lon="10.840347634751621"><ele>119.75</ele><time>2026-04-12T06:21:07.999Z</time></trkpt><trkpt lat="45.506793650708886" lon="10.840127792434767"><ele>119.5</ele><time>2026-04-12T06:21:08.999Z</time></trkpt><trkpt lat="45.50682066594074" lon="10.839923610483709"><ele>119.25</ele><time>2026-04-12T06:21:09.999Z</time></trkpt><trkpt lat="45.50684310660229" lon="10.839731854121265"><ele>119.0</ele><time>2026-04-12T06:21:10.999Z</time></trkpt><trkpt lat="45.50687313661813" lon="10.839541774489092"><ele>119.0</ele><time>2026-04-12T06:21:11.999Z</time></trkpt><trkpt lat="45.506894677737506" lon="10.839368540312531"><ele>119.0</ele><time>2026-04-12T06:21:12.999Z</time></trkpt><trkpt lat="45.50692469680769" lon="10.839182696468908"><ele>119.0</ele><time>2026-04-12T06:21:13.999Z</time></trkpt><trkpt lat="45.506951715705206" lon="10.838982905358264"><ele>119.0</ele><time>2026-04-12T06:21:14.999Z</time></trkpt><trkpt lat="45.50698436601286" lon="10.838773726353486"><ele>119.25</ele><time>2026-04-12T06:21:15.999Z</time></trkpt><trkpt lat="45.50701111898842" lon="10.83856833359011"><ele>119.5</ele><time>2026-04-12T06:21:16.999Z</time></trkpt><trkpt lat="45.507032466187944" lon="10.83839213754428"><ele>119.75</ele><time>2026-04-12T06:21:17.999Z</time></trkpt><trkpt lat="45.507056026795254" lon="10.838212709199743"><ele>120.0</ele><time>2026-04-12T06:21:18.999Z</time></trkpt><trkpt lat="45.5070876478541" lon="10.838023579134509"><ele>120.5</ele><time>2026-04-12T06:21:19.999Z</time></trkpt><trkpt lat="45.50711583008711" lon="10.837837106088292"><ele>121.0</ele><time>2026-04-12T06:21:20.999Z</time></trkpt><trkpt lat="45.507140780667115" lon="10.83764964933826"><ele>121.5</ele><time>2026-04-12T06:21:21.999Z</time></trkpt><trkpt lat="45.507165455214114" lon="10.83745426457457"><ele>122.0</ele><time>2026-04-12T06:21:22.999Z</time></trkpt><trkpt lat="45.50719310430669" lon="10.837253720335609"><ele>122.33333333333333</ele><time>2026-04-12T06:21:23.999Z</time></trkpt><trkpt lat="45.50722277538988" lon="10.837045244308582"><ele>122.66666666666666</ele><time>2026-04-12T06:21:24.999Z</time></trkpt><trkpt lat="45.50725324465311" lon="10.836829735564216"><ele>123.0</ele><time>2026-04-12T06:21:25.999Z</time></trkpt><trkpt lat="45.50728338401169" lon="10.836615141536779"><ele>123.0</ele><time>2026-04-12T06:21:26.999Z</time></trkpt><trkpt lat="45.507312024689405" lon="10.836400990951502"><ele>123.0</ele><time>2026-04-12T06:21:27.999Z</time></trkpt><trkpt lat="45.50734620889884" lon="10.836186471782472"><ele>123.0</ele><time>2026-04-12T06:21:28.999Z</time></trkpt><trkpt lat="45.50738126178687" lon="10.83596940426903"><ele>122.33333333333334</ele><time>2026-04-12T06:21:29.999Z</time></trkpt><trkpt lat="45.50741838489228" lon="10.835749183484207"><ele>121.66666666666667</ele><time>2026-04-12T06:21:30.999Z</time></trkpt><trkpt lat="45.507459509501366" lon="10.83552501343359"><ele>121.0</ele><time>2026-04-12T06:21:31.999Z</time></trkpt><trkpt lat="45.507503357005135" lon="10.835297992352338"><ele>121.33333333333334</ele><time>2026-04-12T06:21:32.999Z</time></trkpt><trkpt lat="45.507548429997165" lon="10.835069666528081"><ele>121.66666666666666</ele><time>2026-04-12T06:21:33.999Z</time></trkpt><trkpt lat="45.50759909717453" lon="10.834839651039355"><ele>122.0</ele><time>2026-04-12T06:21:34.999Z</time></trkpt><trkpt lat="45.50764705405854" lon="10.834609222474148"><ele>122.0</ele><time>2026-04-12T06:21:35.999Z</time></trkpt><trkpt lat="45.50769702597475" lon="10.834384983206316"><ele>122.0</ele><time>2026-04-12T06:21:36.999Z</time></trkpt><trkpt lat="45.507746261787005" lon="10.834169068420799"><ele>122.0</ele><time>2026-04-12T06:21:37.999Z</time></trkpt><trkpt lat="45.50779343725671" lon="10.833952684458096"><ele>121.66666666666666</ele><time>2026-04-12T06:21:38.999Z</time></trkpt><trkpt lat="45.50784231545815" lon="10.83374268882113"><ele>121.33333333333334</ele><time>2026-04-12T06:21:39.999Z</time></trkpt><trkpt lat="45.50789010905537" lon="10.83353647935133"><ele>121.0</ele><time>2026-04-12T06:21:40.999Z</time></trkpt><trkpt lat="45.50793864201539" lon="10.833330320872571"><ele>120.75</ele><time>2026-04-12T06:21:41.999Z</time></trkpt><trkpt lat="45.507985783991025" lon="10.833128844877619"><ele>120.5</ele><time>2026-04-12T06:21:42.999Z</time></trkpt><trkpt lat="45.50803081777475" lon="10.832928495539893"><ele>120.25</ele><time>2026-04-12T06:21:43.999Z</time></trkpt><trkpt lat="45.50807826975646" lon="10.832728296325733"><ele>120.0</ele><time>2026-04-12T06:21:44.999Z</time></trkpt><trkpt lat="45.508125801413826" lon="10.832526742264927"><ele>120.0</ele><time>2026-04-12T06:21:45.998Z</time></trkpt><trkpt lat="45.50817151368638" lon="10.832323787571529"><ele>120.0</ele><time>2026-04-12T06:21:46.998Z</time></trkpt><trkpt lat="45.50821757653066" lon="10.832120172390228"><ele>120.0</ele><time>2026-04-12T06:21:47.998Z</time></trkpt><trkpt lat="45.508269662641055" lon="10.831909586322645"><ele>118.66666666666666</ele><time>2026-04-12T06:21:48.998Z</time></trkpt><trkpt lat="45.508326170479535" lon="10.831698855788924"><ele>117.33333333333333</ele><time>2026-04-12T06:21:49.998Z</time></trkpt><trkpt lat="45.508392155940676" lon="10.831487888323345"><ele>116.0</ele><time>2026-04-12T06:21:50.998Z</time></trkpt><trkpt lat="45.50846518754589" lon="10.83127592378805"><ele>116.0</ele><time>2026-04-12T06:21:51.998Z</time></trkpt><trkpt lat="45.50854979275002" lon="10.831061617399504"><ele>116.0</ele><time>2026-04-12T06:21:52.998Z</time></trkpt><trkpt lat="45.508641873122116" lon="10.830849837231371"><ele>116.0</ele><time>2026-04-12T06:21:53.998Z</time></trkpt><trkpt lat="45.508742505571156" lon="10.830639085011576"><ele>116.66666666666666</ele><time>2026-04-12T06:21:54.998Z</time></trkpt><trkpt lat="45.50884775943379" lon="10.830427085798515"><ele>117.33333333333334</ele><time>2026-04-12T06:21:55.998Z</time></trkpt><trkpt lat="45.50896065483736" lon="10.83021309877078"><ele>118.0</ele><time>2026-04-12T06:21:56.998Z</time></trkpt><trkpt lat="45.50907940847139" lon="10.830001082885166"><ele>118.0</ele><time>2026-04-12T06:21:57.998Z</time></trkpt><trkpt lat="45.509208026738456" lon="10.829791668740048"><ele>118.0</ele><time>2026-04-12T06:21:58.998Z</time></trkpt><trkpt lat="45.50934222864144" lon="10.829589425584217"><ele>118.0</ele><time>2026-04-12T06:21:59.998Z</time></trkpt><trkpt lat="45.50948483979478" lon="10.829397274868638"><ele>117.66666666666667</ele><time>2026-04-12T06:22:00.998Z</time></trkpt><trkpt lat="45.509641452906706" lon="10.829214248476017"><ele>117.33333333333334</ele><time>2026-04-12T06:22:01.998Z</time></trkpt><trkpt lat="45.509816085135284" lon="10.8290222532062"><ele>117.0</ele><time>2026-04-12T06:22:02.998Z</time></trkpt><trkpt lat="45.51001198925621" lon="10.828814988186853"><ele>117.0</ele><time>2026-04-12T06:22:03.998Z</time></trkpt><trkpt lat="45.51020073566697" lon="10.828629950035456"><ele>117.0</ele><time>2026-04-12T06:22:04.998Z</time></trkpt><trkpt lat="45.510368039868624" lon="10.828450961942673"><ele>117.0</ele><time>2026-04-12T06:22:05.998Z</time></trkpt><trkpt lat="45.510522726966464" lon="10.828284842297503"><ele>116.66666666666666</ele><time>2026-04-12T06:22:06.998Z</time></trkpt><trkpt lat="45.51066372674269" lon="10.82813149413468"><ele>116.33333333333333</ele><time>2026-04-12T06:22:07.998Z</time></trkpt><trkpt lat="45.51080401824723" lon="10.827986148702267"><ele>116.0</ele><time>2026-04-12T06:22:08.998Z</time></trkpt><trkpt lat="45.510943365828844" lon="10.827837153039964"><ele>116.0</ele><time>2026-04-12T06:22:09.998Z</time></trkpt><trkpt lat="45.5110799071991" lon="10.827693672594568"><ele>116.0</ele><time>2026-04-12T06:22:10.998Z</time></trkpt><trkpt lat="45.511212845660275" lon="10.827548151479675"><ele>116.0</ele><time>2026-04-12T06:22:11.998Z</time></trkpt><trkpt lat="45.5113386033212" lon="10.827413565490069"><ele>116.75</ele><time>2026-04-12T06:22:12.998Z</time></trkpt><trkpt lat="45.511457210141614" lon="10.827290300463124"><ele>117.5</ele><time>2026-04-12T06:22:13.998Z</time></trkpt><trkpt lat="45.51157276596805" lon="10.827169753234832"><ele>118.25</ele><time>2026-04-12T06:22:14.998Z</time></trkpt><trkpt lat="45.51168537869164" lon="10.827048718282128"><ele>119.0</ele><time>2026-04-12T06:22:15.998Z</time></trkpt><trkpt lat="45.51180267771224" lon="10.826924397997177"><ele>118.25</ele><time>2026-04-12T06:22:16.998Z</time></trkpt><trkpt lat="45.511923585396055" lon="10.826796512548327"><ele>117.5</ele><time>2026-04-12T06:22:17.998Z</time></trkpt><trkpt lat="45.51204450147544" lon="10.826665483575582"><ele>116.75</ele><time>2026-04-12T06:22:18.998Z</time></trkpt><trkpt lat="45.51215449277619" lon="10.82653616396447"><ele>116.0</ele><time>2026-04-12T06:22:20Z</time></trkpt><trkpt lat="45.51227790541109" lon="10.826417107520632"><ele>115.66666666666666</ele><time>2026-04-12T06:22:21Z</time></trkpt><trkpt lat="45.51240205758545" lon="10.826289949299829"><ele>115.33333333333334</ele><time>2026-04-12T06:22:22Z</time></trkpt><trkpt lat="45.51252341609258" lon="10.826159154456297"><ele>115.0</ele><time>2026-04-12T06:22:23Z</time></trkpt><trkpt lat="45.5126531833808" lon="10.826024527013958"><ele>114.66666666666667</ele><time>2026-04-12T06:22:24Z</time></trkpt><trkpt lat="45.512779781367065" lon="10.825889435200308"><ele>114.33333333333334</ele><time>2026-04-12T06:22:25Z</time></trkpt><trkpt lat="45.512906467689966" lon="10.825746458860966"><ele>114.0</ele><time>2026-04-12T06:22:26Z</time></trkpt><trkpt lat="45.513040161459905" lon="10.825609073045955"><ele>116.0</ele><time>2026-04-12T06:22:27Z</time></trkpt><trkpt lat="45.51317419816862" lon="10.825467092933973"><ele>118.0</ele><time>2026-04-12T06:22:28Z</time></trkpt><trkpt lat="45.513309931156364" lon="10.82531872696688"><ele>120.0</ele><time>2026-04-12T06:22:29Z</time></trkpt><trkpt lat="45.51344044407518" lon="10.825179918269763"><ele>119.33333333333334</ele><time>2026-04-12T06:22:30Z</time></trkpt><trkpt lat="45.513575218176165" lon="10.825038533209542"><ele>118.66666666666667</ele><time>2026-04-12T06:22:31Z</time></trkpt><trkpt lat="45.513710830093466" lon="10.824898764886104"><ele>118.0</ele><time>2026-04-12T06:22:32Z</time></trkpt><trkpt lat="45.51384041021032" lon="10.824761658749898"><ele>117.33333333333334</ele><time>2026-04-12T06:22:33Z</time></trkpt><trkpt lat="45.51396579990759" lon="10.824624547966005"><ele>116.66666666666666</ele><time>2026-04-12T06:22:34Z</time></trkpt><trkpt lat="45.51409107906625" lon="10.824490589530688"><ele>116.0</ele><time>2026-04-12T06:22:35Z</time></trkpt><trkpt lat="45.5142202741768" lon="10.824352357858903"><ele>115.33333333333333</ele><time>2026-04-12T06:22:36Z</time></trkpt><trkpt lat="45.514350764686064" lon="10.824213697208858"><ele>114.66666666666666</ele><time>2026-04-12T06:22:37Z</time></trkpt><trkpt lat="45.51448298805274" lon="10.824073560328621"><ele>114.0</ele><time>2026-04-12T06:22:38Z</time></trkpt><trkpt lat="45.514617396195476" lon="10.823929380669737"><ele>114.0</ele><time>2026-04-12T06:22:39Z</time></trkpt><trkpt lat="45.51475399940001" lon="10.823785559846268"><ele>114.0</ele><time>2026-04-12T06:22:40Z</time></trkpt><trkpt lat="45.51488714437659" lon="10.823645206025214"><ele>114.0</ele><time>2026-04-12T06:22:41Z</time></trkpt><trkpt lat="45.5150159676463" lon="10.823512591557517"><ele>113.66666666666666</ele><time>2026-04-12T06:22:42Z</time></trkpt><trkpt lat="45.515138760510766" lon="10.823383910213009"><ele>113.33333333333333</ele><time>2026-04-12T06:22:43Z</time></trkpt><trkpt lat="45.51526688051789" lon="10.823247853902927"><ele>113.0</ele><time>2026-04-12T06:22:44Z</time></trkpt><trkpt lat="45.51539104424835" lon="10.823113856038919"><ele>114.0</ele><time>2026-04-12T06:22:45Z</time></trkpt><trkpt lat="45.51552273954324" lon="10.822977801231191"><ele>115.0</ele><time>2026-04-12T06:22:46Z</time></trkpt><trkpt lat="45.51565497039196" lon="10.822839044158993"><ele>116.0</ele><time>2026-04-12T06:22:47Z</time></trkpt><trkpt lat="45.51578699517338" lon="10.822697033456961"><ele>114.33333333333333</ele><time>2026-04-12T06:22:48Z</time></trkpt><trkpt lat="45.51591856219726" lon="10.822554359070235"><ele>112.66666666666666</ele><time>2026-04-12T06:22:49Z</time></trkpt><trkpt lat="45.51604920762705" lon="10.822410509256457"><ele>111.0</ele><time>2026-04-12T06:22:50Z</time></trkpt><trkpt lat="45.51616969529088" lon="10.822280403255863"><ele>111.66666666666666</ele><time>2026-04-12T06:22:51Z</time></trkpt><trkpt lat="45.51629731649932" lon="10.8221495546306"><ele>112.33333333333333</ele><time>2026-04-12T06:22:52Z</time></trkpt><trkpt lat="45.5164250214358" lon="10.822012469130742"><ele>113.0</ele><time>2026-04-12T06:22:53Z</time></trkpt><trkpt lat="45.51655328583895" lon="10.821876643918845"><ele>112.66666666666666</ele><time>2026-04-12T06:22:54Z</time></trkpt><trkpt lat="45.516678840395016" lon="10.821742734504435"><ele>112.33333333333334</ele><time>2026-04-12T06:22:55Z</time></trkpt><trkpt lat="45.51680117802558" lon="10.821610886216147"><ele>112.0</ele><time>2026-04-12T06:22:56Z</time></trkpt><trkpt lat="45.516927506058295" lon="10.821477265792687"><ele>112.0</ele><time>2026-04-12T06:22:57Z</time></trkpt><trkpt lat="45.517055468694636" lon="10.821342736152216"><ele>112.0</ele><time>2026-04-12T06:22:58Z</time></trkpt><trkpt lat="45.517179761315354" lon="10.821207842594006"><ele>112.0</ele><time>2026-04-12T06:22:59Z</time></trkpt><trkpt lat="45.517306776954676" lon="10.82107347488729"><ele>113.0</ele><time>2026-04-12T06:22:59.999Z</time></trkpt><trkpt lat="45.51743099381789" lon="10.820939367056187"><ele>114.0</ele><time>2026-04-12T06:23:00.999Z</time></trkpt><trkpt lat="45.51755662723463" lon="10.820806636331584"><ele>115.0</ele><time>2026-04-12T06:23:01.999Z</time></trkpt><trkpt lat="45.517675460114035" lon="10.820679388905367"><ele>115.0</ele><time>2026-04-12T06:23:02.999Z</time></trkpt><trkpt lat="45.51778591450762" lon="10.82055922682398"><ele>115.0</ele><time>2026-04-12T06:23:03.999Z</time></trkpt><trkpt lat="45.51789870731736" lon="10.820440824313566"><ele>115.0</ele><time>2026-04-12T06:23:04.999Z</time></trkpt><trkpt lat="45.51801371947762" lon="10.820321074907481"><ele>115.0</ele><time>2026-04-12T06:23:05.999Z</time></trkpt><trkpt lat="45.51812477212769" lon="10.820201341197958"><ele>115.0</ele><time>2026-04-12T06:23:06.999Z</time></trkpt><trkpt lat="45.51822958589039" lon="10.820089476350885"><ele>115.0</ele><time>2026-04-12T06:23:07.999Z</time></trkpt><trkpt lat="45.518326111931" lon="10.81998495979733"><ele>115.0</ele><time>2026-04-12T06:23:08.999Z</time></trkpt><trkpt lat="45.518418969619034" lon="10.819889139912588"><ele>115.0</ele><time>2026-04-12T06:23:09.999Z</time></trkpt><trkpt lat="45.51850624602896" lon="10.819806895283321"><ele>115.0</ele><time>2026-04-12T06:23:10.999Z</time></trkpt><trkpt lat="45.518589874467295" lon="10.819746099397413"><ele>115.0</ele><time>2026-04-12T06:23:11.999Z</time></trkpt><trkpt lat="45.51867034598199" lon="10.819704954739146"><ele>115.0</ele><time>2026-04-12T06:23:12.999Z</time></trkpt><trkpt lat="45.51875720832251" lon="10.819680299051894"><ele>115.0</ele><time>2026-04-12T06:23:13.999Z</time></trkpt><trkpt lat="45.51884980506418" lon="10.819675174083429"><ele>115.0</ele><time>2026-04-12T06:23:14.999Z</time></trkpt><trkpt lat="45.51894098148977" lon="10.819636669197221"><ele>114.75</ele><time>2026-04-12T06:23:15.999Z</time></trkpt><trkpt lat="45.51901705223666" lon="10.81954598993739"><ele>114.5</ele><time>2026-04-12T06:23:16.999Z</time></trkpt><trkpt lat="45.51909413254698" lon="10.819398502475506"><ele>114.25</ele><time>2026-04-12T06:23:17.999Z</time></trkpt><trkpt lat="45.51918964459293" lon="10.819248035410924"><ele>114.0</ele><time>2026-04-12T06:23:18.999Z</time></trkpt><trkpt lat="45.519296646767316" lon="10.819120523279915"><ele>114.0</ele><time>2026-04-12T06:23:19.999Z</time></trkpt><trkpt lat="45.5194592931018" lon="10.81907224144269"><ele>114.0</ele><time>2026-04-12T06:23:20.999Z</time></trkpt><trkpt lat="45.5196182493574" lon="10.819020901498265"><ele>114.0</ele><time>2026-04-12T06:23:21.999Z</time></trkpt><trkpt lat="45.51978684946333" lon="10.818980531101552"><ele>113.66666666666666</ele><time>2026-04-12T06:23:22.999Z</time></trkpt><trkpt lat="45.51996190669837" lon="10.81894850447473"><ele>113.33333333333333</ele><time>2026-04-12T06:23:23.999Z</time></trkpt><trkpt lat="45.5201332721926" lon="10.818923866302198"><ele>113.0</ele><time>2026-04-12T06:23:24.999Z</time></trkpt><trkpt lat="45.520305596301405" lon="10.818916386236179"><ele>113.33333333333333</ele><time>2026-04-12T06:23:25.999Z</time></trkpt><trkpt lat="45.52046772237476" lon="10.818914882683341"><ele>113.66666666666666</ele><time>2026-04-12T06:23:26.999Z</time></trkpt><trkpt lat="45.52062945370524" lon="10.818914829865289"><ele>114.0</ele><time>2026-04-12T06:23:27.999Z</time></trkpt><trkpt lat="45.520793819944465" lon="10.818906929967511"><ele>114.0</ele><time>2026-04-12T06:23:28.999Z</time></trkpt><trkpt lat="45.520951105811804" lon="10.818898160026334"><ele>114.0</ele><time>2026-04-12T06:23:29.999Z</time></trkpt><trkpt lat="45.5210993397054" lon="10.81888293447084"><ele>114.0</ele><time>2026-04-12T06:23:30.999Z</time></trkpt><trkpt lat="45.521239554048144" lon="10.818869818328245"><ele>114.0</ele><time>2026-04-12T06:23:31.999Z</time></trkpt><trkpt lat="45.521394917983294" lon="10.818845472088475"><ele>115.0</ele><time>2026-04-12T06:23:32.999Z</time></trkpt><trkpt lat="45.52154744987669" lon="10.818821477620242"><ele>116.0</ele><time>2026-04-12T06:23:33.999Z</time></trkpt><trkpt lat="45.52170541158857" lon="10.818786154683707"><ele>117.0</ele><time>2026-04-12T06:23:34.999Z</time></trkpt><trkpt lat="45.521864795722806" lon="10.81875287242834"><ele>117.0</ele><time>2026-04-12T06:23:35.999Z</time></trkpt><trkpt lat="45.522022214814065" lon="10.818719753017145"><ele>117.0</ele><time>2026-04-12T06:23:36.999Z</time></trkpt><trkpt lat="45.52217513127662" lon="10.818695871582472"><ele>117.0</ele><time>2026-04-12T06:23:37.999Z</time></trkpt><trkpt lat="45.52232282126161" lon="10.81866114809078"><ele>116.75</ele><time>2026-04-12T06:23:38.999Z</time></trkpt><trkpt lat="45.522459643470015" lon="10.81863467001466"><ele>116.5</ele><time>2026-04-12T06:23:39.999Z</time></trkpt><trkpt lat="45.52259235844663" lon="10.818609059027523"><ele>116.25</ele><time>2026-04-12T06:23:40.999Z</time></trkpt><trkpt lat="45.522723217364465" lon="10.818582511634421"><ele>116.0</ele><time>2026-04-12T06:23:41.999Z</time></trkpt><trkpt lat="45.522855870072114" lon="10.81855835760705"><ele>116.0</ele><time>2026-04-12T06:23:42.999Z</time></trkpt><trkpt lat="45.522991602169114" lon="10.818533907915418"><ele>116.0</ele><time>2026-04-12T06:23:43.999Z</time></trkpt><trkpt lat="45.523122297077" lon="10.818506102152414"><ele>116.0</ele><time>2026-04-12T06:23:44.999Z</time></trkpt><trkpt lat="45.523259040344975" lon="10.818477181295382"><ele>116.0</ele><time>2026-04-12T06:23:45.999Z</time></trkpt><trkpt lat="45.52339217034603" lon="10.81844880418104"><ele>116.0</ele><time>2026-04-12T06:23:46.999Z</time></trkpt><trkpt lat="45.523521514257034" lon="10.818427839438412"><ele>116.0</ele><time>2026-04-12T06:23:47.999Z</time></trkpt><trkpt lat="45.523650886129744" lon="10.81839922568275"><ele>116.0</ele><time>2026-04-12T06:23:48.999Z</time></trkpt><trkpt lat="45.523779233722266" lon="10.818377235055088"><ele>116.0</ele><time>2026-04-12T06:23:49.999Z</time></trkpt><trkpt lat="45.523899793681544" lon="10.818356744803022"><ele>116.5</ele><time>2026-04-12T06:23:50.999Z</time></trkpt><trkpt lat="45.524024032847954" lon="10.818337821881832"><ele>117.0</ele><time>2026-04-12T06:23:51.998Z</time></trkpt><trkpt lat="45.524152949646" lon="10.818321361913494"><ele>117.5</ele><time>2026-04-12T06:23:52.998Z</time></trkpt><trkpt lat="45.5242859796816" lon="10.81830694157585"><ele>118.0</ele><time>2026-04-12T06:23:53.998Z</time></trkpt><trkpt lat="45.52441786917607" lon="10.818295243872678"><ele>118.0</ele><time>2026-04-12T06:23:54.998Z</time></trkpt><trkpt lat="45.52454616440995" lon="10.818287821653023"><ele>118.0</ele><time>2026-04-12T06:23:55.998Z</time></trkpt><trkpt lat="45.524674566466224" lon="10.818284379698879"><ele>118.0</ele><time>2026-04-12T06:23:56.998Z</time></trkpt><trkpt lat="45.52480392892235" lon="10.818285072892936"><ele>118.0</ele><time>2026-04-12T06:23:57.998Z</time></trkpt><trkpt lat="45.52494009386475" lon="10.8182859104326"><ele>117.75</ele><time>2026-04-12T06:23:58.998Z</time></trkpt><trkpt lat="45.52507940061585" lon="10.818291021414923"><ele>117.5</ele><time>2026-04-12T06:23:59.998Z</time></trkpt><trkpt lat="45.52522296835413" lon="10.81829779942502"><ele>117.25</ele><time>2026-04-12T06:24:00.998Z</time></trkpt><trkpt lat="45.52536511207471" lon="10.818305499888552"><ele>117.0</ele><time>2026-04-12T06:24:01.998Z</time></trkpt><trkpt lat="45.525499742867936" lon="10.818312382456883"><ele>116.5</ele><time>2026-04-12T06:24:02.998Z</time></trkpt><trkpt lat="45.52563214191652" lon="10.818321966441587"><ele>116.0</ele><time>2026-04-12T06:24:03.998Z</time></trkpt><trkpt lat="45.52576997754712" lon="10.818326934326382"><ele>115.5</ele><time>2026-04-12T06:24:04.998Z</time></trkpt><trkpt lat="45.525913996413614" lon="10.818335361512487"><ele>115.0</ele><time>2026-04-12T06:24:05.998Z</time></trkpt><trkpt lat="45.52606822955567" lon="10.81834396849721"><ele>115.0</ele><time>2026-04-12T06:24:06.998Z</time></trkpt><trkpt lat="45.526225652667215" lon="10.818344646860478"><ele>115.0</ele><time>2026-04-12T06:24:07.998Z</time></trkpt><trkpt lat="45.52638792403677" lon="10.818346189948514"><ele>115.0</ele><time>2026-04-12T06:24:08.998Z</time></trkpt><trkpt lat="45.52655077526934" lon="10.818357705635943"><ele>115.0</ele><time>2026-04-12T06:24:09.998Z</time></trkpt><trkpt lat="45.52671845396305" lon="10.818361837762849"><ele>115.0</ele><time>2026-04-12T06:24:10.998Z</time></trkpt><trkpt lat="45.52689857907673" lon="10.818365886605154"><ele>115.0</ele><time>2026-04-12T06:24:11.998Z</time></trkpt><trkpt lat="45.527075885728806" lon="10.818376966554037"><ele>115.0</ele><time>2026-04-12T06:24:12.998Z</time></trkpt><trkpt lat="45.52726899269639" lon="10.818391689796524"><ele>115.0</ele><time>2026-04-12T06:24:13.998Z</time></trkpt><trkpt lat="45.52742721965803" lon="10.818329095971547"><ele>115.0</ele><time>2026-04-12T06:24:14.998Z</time></trkpt><trkpt lat="45.52756055180903" lon="10.8183817885438"><ele>115.0</ele><time>2026-04-12T06:24:15.998Z</time></trkpt><trkpt lat="45.527719425991855" lon="10.818379264231652"><ele>115.0</ele><time>2026-04-12T06:24:16.998Z</time></trkpt><trkpt lat="45.52787596686606" lon="10.818384991161928"><ele>115.0</ele><time>2026-04-12T06:24:17.998Z</time></trkpt><trkpt lat="45.52803658650771" lon="10.818388505284767"><ele>113.66666666666667</ele><time>2026-04-12T06:24:18.998Z</time></trkpt><trkpt lat="45.528203362515896" lon="10.81839626957809"><ele>112.33333333333334</ele><time>2026-04-12T06:24:19.998Z</time></trkpt><trkpt lat="45.52837720598739" lon="10.818404954352017"><ele>111.0</ele><time>2026-04-12T06:24:20.998Z</time></trkpt><trkpt lat="45.528561149763455" lon="10.818415117762939"><ele>111.33333333333334</ele><time>2026-04-12T06:24:21.998Z</time></trkpt><trkpt lat="45.52874762320414" lon="10.818419402762741"><ele>111.66666666666667</ele><time>2026-04-12T06:24:22.998Z</time></trkpt><trkpt lat="45.52893325666295" lon="10.81842182663562"><ele>112.0</ele><time>2026-04-12T06:24:23.998Z</time></trkpt><trkpt lat="45.52911962484895" lon="10.81842477349039"><ele>112.0</ele><time>2026-04-12T06:24:24.998Z</time></trkpt><trkpt lat="45.52930200793818" lon="10.818421158476292"><ele>112.0</ele><time>2026-04-12T06:24:26Z</time></trkpt><trkpt lat="45.52948461459458" lon="10.818406415376302"><ele>112.0</ele><time>2026-04-12T06:24:27Z</time></trkpt><trkpt lat="45.52966270119829" lon="10.818375062891176"><ele>111.66666666666667</ele><time>2026-04-12T06:24:28Z</time></trkpt><trkpt lat="45.529838913658864" lon="10.818335297530762"><ele>111.33333333333334</ele><time>2026-04-12T06:24:29Z</time></trkpt><trkpt lat="45.53002075398456" lon="10.818304787337112"><ele>111.0</ele><time>2026-04-12T06:24:30Z</time></trkpt><trkpt lat="45.53020561432852" lon="10.818283680159213"><ele>111.0</ele><time>2026-04-12T06:24:31Z</time></trkpt><trkpt lat="45.53039016262058" lon="10.818270552004995"><ele>111.0</ele><time>2026-04-12T06:24:32Z</time></trkpt><trkpt lat="45.53057342853368" lon="10.818266000566641"><ele>111.0</ele><time>2026-04-12T06:24:33Z</time></trkpt><trkpt lat="45.53075364956224" lon="10.818266926572582"><ele>111.0</ele><time>2026-04-12T06:24:34Z</time></trkpt><trkpt lat="45.530929800418846" lon="10.818273165026742"><ele>111.0</ele><time>2026-04-12T06:24:35Z</time></trkpt><trkpt lat="45.531103239612285" lon="10.818281290482988"><ele>111.0</ele><time>2026-04-12T06:24:36Z</time></trkpt><trkpt lat="45.531277377339876" lon="10.818291319125498"><ele>111.66666666666666</ele><time>2026-04-12T06:24:37Z</time></trkpt><trkpt lat="45.53145676884814" lon="10.818298001298796"><ele>112.33333333333333</ele><time>2026-04-12T06:24:38Z</time></trkpt><trkpt lat="45.53164587027263" lon="10.818300389918788"><ele>113.0</ele><time>2026-04-12T06:24:39Z</time></trkpt><trkpt lat="45.53183436743647" lon="10.818296549492125"><ele>113.0</ele><time>2026-04-12T06:24:40Z</time></trkpt><trkpt lat="45.53202696957854" lon="10.818285686701307"><ele>113.0</ele><time>2026-04-12T06:24:41Z</time></trkpt><trkpt lat="45.53221055736825" lon="10.81827266594105"><ele>113.0</ele><time>2026-04-12T06:24:42Z</time></trkpt><trkpt lat="45.53239427203845" lon="10.818254533180445"><ele>113.0</ele><time>2026-04-12T06:24:43Z</time></trkpt><trkpt lat="45.53257676847464" lon="10.818240798025691"><ele>113.0</ele><time>2026-04-12T06:24:44Z</time></trkpt><trkpt lat="45.53275479170894" lon="10.818232073937303"><ele>113.0</ele><time>2026-04-12T06:24:45Z</time></trkpt><trkpt lat="45.53293809668048" lon="10.818236833341656"><ele>113.0</ele><time>2026-04-12T06:24:46Z</time></trkpt><trkpt lat="45.533121911399554" lon="10.818249551971569"><ele>113.0</ele><time>2026-04-12T06:24:47Z</time></trkpt><trkpt lat="45.53331104886785" lon="10.818267802727098"><ele>113.0</ele><time>2026-04-12T06:24:48Z</time></trkpt><trkpt lat="45.533496889347724" lon="10.818280441291666"><ele>113.0</ele><time>2026-04-12T06:24:49Z</time></trkpt><trkpt lat="45.533687865028305" lon="10.818294750069716"><ele>113.0</ele><time>2026-04-12T06:24:50Z</time></trkpt><trkpt lat="45.53388139897546" lon="10.818308573155367"><ele>113.0</ele><time>2026-04-12T06:24:51Z</time></trkpt><trkpt lat="45.534076408422635" lon="10.818331176363808"><ele>112.33333333333333</ele><time>2026-04-12T06:24:52Z</time></trkpt><trkpt lat="45.534272152136374" lon="10.818361031105294"><ele>111.66666666666666</ele><time>2026-04-12T06:24:53Z</time></trkpt><trkpt lat="45.534468293024474" lon="10.818394255480275"><ele>111.0</ele><time>2026-04-12T06:24:54Z</time></trkpt><trkpt lat="45.5346655777488" lon="10.818424408832612"><ele>111.0</ele><time>2026-04-12T06:24:55Z</time></trkpt><trkpt lat="45.534863090304896" lon="10.818461660719288"><ele>111.0</ele><time>2026-04-12T06:24:56Z</time></trkpt><trkpt lat="45.53505698087861" lon="10.818512215625173"><ele>111.0</ele><time>2026-04-12T06:24:57Z</time></trkpt><trkpt lat="45.535258101432916" lon="10.818575393262465"><ele>110.66666666666666</ele><time>2026-04-12T06:24:58Z</time></trkpt><trkpt lat="45.535457346641664" lon="10.818641913473751"><ele>110.33333333333333</ele><time>2026-04-12T06:24:59Z</time></trkpt><trkpt lat="45.535655925917744" lon="10.818723944309474"><ele>110.0</ele><time>2026-04-12T06:25:00Z</time></trkpt><trkpt lat="45.5358477593064" lon="10.818821579147762"><ele>110.0</ele><time>2026-04-12T06:25:01Z</time></trkpt><trkpt lat="45.53603965300107" lon="10.81892834402768"><ele>110.0</ele><time>2026-04-12T06:25:02Z</time></trkpt><trkpt lat="45.536232055781866" lon="10.819040980082072"><ele>110.0</ele><time>2026-04-12T06:25:03Z</time></trkpt><trkpt lat="45.536419929427645" lon="10.819159325863456"><ele>110.33333333333333</ele><time>2026-04-12T06:25:04Z</time></trkpt><trkpt lat="45.5366112900354" lon="10.819280337049593"><ele>110.66666666666666</ele><time>2026-04-12T06:25:05Z</time></trkpt><trkpt lat="45.53680158447904" lon="10.819405420884513"><ele>111.0</ele><time>2026-04-12T06:25:05.999Z</time></trkpt><trkpt lat="45.536994104645586" lon="10.81953197341866"><ele>111.66666666666666</ele><time>2026-04-12T06:25:06.999Z</time></trkpt><trkpt lat="45.53718121638665" lon="10.81965887385329"><ele>112.33333333333333</ele><time>2026-04-12T06:25:07.999Z</time></trkpt><trkpt lat="45.537364625147944" lon="10.819787708346945"><ele>113.0</ele><time>2026-04-12T06:25:08.999Z</time></trkpt><trkpt lat="45.53754496117959" lon="10.819918094399116"><ele>113.0</ele><time>2026-04-12T06:25:09.999Z</time></trkpt><trkpt lat="45.53771472368933" lon="10.82005633782176"><ele>113.0</ele><time>2026-04-12T06:25:10.999Z</time></trkpt><trkpt lat="45.53788337358177" lon="10.820185146199726"><ele>113.0</ele><time>2026-04-12T06:25:11.999Z</time></trkpt><trkpt lat="45.53805552686824" lon="10.820319604820051"><ele>112.33333333333333</ele><time>2026-04-12T06:25:12.999Z</time></trkpt><trkpt lat="45.5382269804034" lon="10.82044609508668"><ele>111.66666666666666</ele><time>2026-04-12T06:25:13.999Z</time></trkpt><trkpt lat="45.53840060725236" lon="10.820571370726388"><ele>111.0</ele><time>2026-04-12T06:25:14.999Z</time></trkpt><trkpt lat="45.53857166350391" lon="10.820685782182146"><ele>111.0</ele><time>2026-04-12T06:25:15.999Z</time></trkpt><trkpt lat="45.538739867957936" lon="10.820789343702556"><ele>111.0</ele><time>2026-04-12T06:25:16.999Z</time></trkpt><trkpt lat="45.53889635828186" lon="10.820878246536932"><ele>111.0</ele><time>2026-04-12T06:25:17.999Z</time></trkpt><trkpt lat="45.539047884436094" lon="10.82096104428855"><ele>111.66666666666666</ele><time>2026-04-12T06:25:18.999Z</time></trkpt><trkpt lat="45.539200271434446" lon="10.82103891890767"><ele>112.33333333333333</ele><time>2026-04-12T06:25:19.999Z</time></trkpt><trkpt lat="45.53934975073534" lon="10.821122505072344"><ele>113.0</ele><time>2026-04-12T06:25:20.999Z</time></trkpt><trkpt lat="45.53949922387185" lon="10.82120179325728"><ele>112.75</ele><time>2026-04-12T06:25:21.999Z</time></trkpt><trkpt lat="45.539644656043926" lon="10.821277163680566"><ele>112.5</ele><time>2026-04-12T06:25:22.999Z</time></trkpt><trkpt lat="45.53978478588914" lon="10.821350191185998"><ele>112.25</ele><time>2026-04-12T06:25:23.999Z</time></trkpt><trkpt lat="45.539910089269476" lon="10.821414688383834"><ele>112.0</ele><time>2026-04-12T06:25:24.999Z</time></trkpt><trkpt lat="45.5400280854015" lon="10.821475616478867"><ele>112.0</ele><time>2026-04-12T06:25:25.999Z</time></trkpt><trkpt lat="45.540151909220135" lon="10.821540898372001"><ele>112.0</ele><time>2026-04-12T06:25:26.999Z</time></trkpt><trkpt lat="45.54028185941474" lon="10.821611137991864"><ele>112.0</ele><time>2026-04-12T06:25:27.999Z</time></trkpt><trkpt lat="45.540419301489976" lon="10.821682357611914"><ele>112.0</ele><time>2026-04-12T06:25:28.999Z</time></trkpt><trkpt lat="45.540562165673684" lon="10.82176033150538"><ele>112.66666666666667</ele><time>2026-04-12T06:25:29.999Z</time></trkpt><trkpt lat="45.5407114926938" lon="10.82183814263917"><ele>113.33333333333334</ele><time>2026-04-12T06:25:30.999Z</time></trkpt><trkpt lat="45.54085623314491" lon="10.821914491588725"><ele>114.0</ele><time>2026-04-12T06:25:31.999Z</time></trkpt><trkpt lat="45.540995701192614" lon="10.821989215166843"><ele>114.0</ele><time>2026-04-12T06:25:32.999Z</time></trkpt><trkpt lat="45.54113451748357" lon="10.822061694506182"><ele>114.0</ele><time>2026-04-12T06:25:33.999Z</time></trkpt><trkpt lat="45.541273112215286" lon="10.822134095438127"><ele>114.0</ele><time>2026-04-12T06:25:34.999Z</time></trkpt><trkpt lat="45.54141813357348" lon="10.822209568150292"><ele>113.66666666666666</ele><time>2026-04-12T06:25:35.999Z</time></trkpt><trkpt lat="45.54156587908697" lon="10.822286643814925"><ele>113.33333333333333</ele><time>2026-04-12T06:25:36.999Z</time></trkpt><trkpt lat="45.54171924941556" lon="10.822369288328238"><ele>113.0</ele><time>2026-04-12T06:25:37.999Z</time></trkpt><trkpt lat="45.54187917368696" lon="10.822454173446696"><ele>113.0</ele><time>2026-04-12T06:25:38.999Z</time></trkpt><trkpt lat="45.54204219393605" lon="10.8225366951933"><ele>113.0</ele><time>2026-04-12T06:25:39.999Z</time></trkpt><trkpt lat="45.542208567290544" lon="10.822610687094198"><ele>113.0</ele><time>2026-04-12T06:25:40.999Z</time></trkpt><trkpt lat="45.542374999100986" lon="10.822671497014014"><ele>112.33333333333333</ele><time>2026-04-12T06:25:41.999Z</time></trkpt><trkpt lat="45.542541852288686" lon="10.82271605730567"><ele>111.66666666666666</ele><time>2026-04-12T06:25:42.999Z</time></trkpt><trkpt lat="45.54270706703434" lon="10.822751089803635"><ele>111.0</ele><time>2026-04-12T06:25:43.999Z</time></trkpt><trkpt lat="45.54287263040082" lon="10.822777369680885"><ele>110.66666666666666</ele><time>2026-04-12T06:25:44.999Z</time></trkpt><trkpt lat="45.54303718716484" lon="10.822797725538056"><ele>110.33333333333333</ele><time>2026-04-12T06:25:45.999Z</time></trkpt><trkpt lat="45.54319745199175" lon="10.822813021040878"><ele>110.0</ele><time>2026-04-12T06:25:46.999Z</time></trkpt><trkpt lat="45.543350843722415" lon="10.822825231651839"><ele>110.0</ele><time>2026-04-12T06:25:47.999Z</time></trkpt><trkpt lat="45.543497750922924" lon="10.82283894701107"><ele>110.0</ele><time>2026-04-12T06:25:48.999Z</time></trkpt><trkpt lat="45.54363582249807" lon="10.822851121044163"><ele>110.0</ele><time>2026-04-12T06:25:49.999Z</time></trkpt><trkpt lat="45.54376915635136" lon="10.822861494698431"><ele>110.0</ele><time>2026-04-12T06:25:50.999Z</time></trkpt><trkpt lat="45.54389980890498" lon="10.822872465673077"><ele>109.75</ele><time>2026-04-12T06:25:51.999Z</time></trkpt><trkpt lat="45.544034925692884" lon="10.822883670627531"><ele>109.5</ele><time>2026-04-12T06:25:52.999Z</time></trkpt><trkpt lat="45.54417685990128" lon="10.822896462441088"><ele>109.25</ele><time>2026-04-12T06:25:53.999Z</time></trkpt><trkpt lat="45.54432498764241" lon="10.822910082743668"><ele>109.0</ele><time>2026-04-12T06:25:54.999Z</time></trkpt><trkpt lat="45.54447751943062" lon="10.822924101448088"><ele>108.0</ele><time>2026-04-12T06:25:55.999Z</time></trkpt><trkpt lat="45.544638527915986" lon="10.822936363954947"><ele>107.0</ele><time>2026-04-12T06:25:56.999Z</time></trkpt><trkpt lat="45.54480643329406" lon="10.822950535648225"><ele>106.0</ele><time>2026-04-12T06:25:57.999Z</time></trkpt><trkpt lat="45.5449841561035" lon="10.822965638398022"><ele>106.0</ele><time>2026-04-12T06:25:58.998Z</time></trkpt><trkpt lat="45.545173121886116" lon="10.82297966782801"><ele>106.0</ele><time>2026-04-12T06:25:59.998Z</time></trkpt><trkpt lat="45.545371614684456" lon="10.822993522495684"><ele>106.0</ele><time>2026-04-12T06:26:00.998Z</time></trkpt><trkpt lat="45.54556980496307" lon="10.823011445768485"><ele>105.33333333333334</ele><time>2026-04-12T06:26:01.998Z</time></trkpt><trkpt lat="45.54577015272276" lon="10.823027971808624"><ele>104.66666666666666</ele><time>2026-04-12T06:26:02.998Z</time></trkpt><trkpt lat="45.54597359670529" lon="10.82304318441258"><ele>104.0</ele><time>2026-04-12T06:26:03.998Z</time></trkpt><trkpt lat="45.546177671736196" lon="10.823060523624166"><ele>104.0</ele><time>2026-04-12T06:26:04.998Z</time></trkpt><trkpt lat="45.546387468197345" lon="10.823079343864617"><ele>104.0</ele><time>2026-04-12T06:26:05.998Z</time></trkpt><trkpt lat="45.54660190089369" lon="10.823097516238915"><ele>104.0</ele><time>2026-04-12T06:26:06.998Z</time></trkpt><trkpt lat="45.54681450987742" lon="10.823116676915314"><ele>104.0</ele><time>2026-04-12T06:26:07.998Z</time></trkpt><trkpt lat="45.5470159239009" lon="10.823139882229166"><ele>104.0</ele><time>2026-04-12T06:26:08.998Z</time></trkpt><trkpt lat="45.54721359786304" lon="10.823172315905738"><ele>104.0</ele><time>2026-04-12T06:26:09.998Z</time></trkpt><trkpt lat="45.54741490504679" lon="10.823220935349857"><ele>102.33333333333333</ele><time>2026-04-12T06:26:10.998Z</time></trkpt><trkpt lat="45.547614439906695" lon="10.823286774743892"><ele>100.66666666666666</ele><time>2026-04-12T06:26:11.998Z</time></trkpt><trkpt lat="45.54781113557718" lon="10.823364841793095"><ele>99.0</ele><time>2026-04-12T06:26:12.998Z</time></trkpt><trkpt lat="45.54799572794314" lon="10.823453757021726"><ele>98.0</ele><time>2026-04-12T06:26:13.998Z</time></trkpt><trkpt lat="45.54817779072086" lon="10.82355515412851"><ele>97.0</ele><time>2026-04-12T06:26:14.998Z</time></trkpt><trkpt lat="45.54835889306714" lon="10.823673445041173"><ele>96.0</ele><time>2026-04-12T06:26:15.998Z</time></trkpt><trkpt lat="45.54853427487782" lon="10.823803511431326"><ele>96.0</ele><time>2026-04-12T06:26:16.998Z</time></trkpt><trkpt lat="45.54870434333354" lon="10.82394947703323"><ele>96.0</ele><time>2026-04-12T06:26:17.998Z</time></trkpt><trkpt lat="45.54886966477589" lon="10.824108130753523"><ele>96.0</ele><time>2026-04-12T06:26:18.998Z</time></trkpt><trkpt lat="45.54903324492643" lon="10.824282828309963"><ele>96.33333333333334</ele><time>2026-04-12T06:26:19.998Z</time></trkpt><trkpt lat="45.54920143410551" lon="10.824467443222677"><ele>96.66666666666667</ele><time>2026-04-12T06:26:20.998Z</time></trkpt><trkpt lat="45.54937698297325" lon="10.824652404906768"><ele>97.0</ele><time>2026-04-12T06:26:21.998Z</time></trkpt><trkpt lat="45.54955715601417" lon="10.824839413074265"><ele>96.33333333333334</ele><time>2026-04-12T06:26:22.998Z</time></trkpt><trkpt lat="45.54973183675398" lon="10.825031651990699"><ele>95.66666666666667</ele><time>2026-04-12T06:26:23.998Z</time></trkpt><trkpt lat="45.54990393464826" lon="10.825235775423957"><ele>95.0</ele><time>2026-04-12T06:26:24.998Z</time></trkpt><trkpt lat="45.55006394250638" lon="10.825452787356623"><ele>95.0</ele><time>2026-04-12T06:26:25.998Z</time></trkpt><trkpt lat="45.5502198438808" lon="10.825673487573823"><ele>95.0</ele><time>2026-04-12T06:26:26.998Z</time></trkpt><trkpt lat="45.55036305932768" lon="10.825910494719084"><ele>95.0</ele><time>2026-04-12T06:26:27.998Z</time></trkpt><trkpt lat="45.550495196195975" lon="10.826138084901832"><ele>94.0</ele><time>2026-04-12T06:26:28.998Z</time></trkpt><trkpt lat="45.55062473579981" lon="10.826365772830403"><ele>93.0</ele><time>2026-04-12T06:26:29.998Z</time></trkpt><trkpt lat="45.55075750625544" lon="10.82658832620879"><ele>92.0</ele><time>2026-04-12T06:26:30.998Z</time></trkpt><trkpt lat="45.55089517514293" lon="10.826813808113757"><ele>92.33333333333334</ele><time>2026-04-12T06:26:32Z</time></trkpt><trkpt lat="45.551032856674134" lon="10.827044096457946"><ele>92.66666666666667</ele><time>2026-04-12T06:26:33Z</time></trkpt><trkpt lat="45.551169891075695" lon="10.827278393618261"><ele>93.0</ele><time>2026-04-12T06:26:34Z</time></trkpt><trkpt lat="45.55130781058337" lon="10.827509471393565"><ele>102.66666666666666</ele><time>2026-04-12T06:26:35Z</time></trkpt><trkpt lat="45.55144453787958" lon="10.827741140860537"><ele>112.33333333333333</ele><time>2026-04-12T06:26:36Z</time></trkpt><trkpt lat="45.55158580788824" lon="10.827967516096502"><ele>122.0</ele><time>2026-04-12T06:26:37Z</time></trkpt><trkpt lat="45.551741569680495" lon="10.828163083609528"><ele>122.0</ele><time>2026-04-12T06:26:38Z</time></trkpt><trkpt lat="45.55191259318501" lon="10.828337285941277"><ele>122.0</ele><time>2026-04-12T06:26:39Z</time></trkpt><trkpt lat="45.552083272186884" lon="10.828518117259723"><ele>122.0</ele><time>2026-04-12T06:26:40Z</time></trkpt><trkpt lat="45.552256298333106" lon="10.828701183547954"><ele>116.0</ele><time>2026-04-12T06:26:41Z</time></trkpt><trkpt lat="45.552418058250076" lon="10.828889718204355"><ele>110.0</ele><time>2026-04-12T06:26:42Z</time></trkpt><trkpt lat="45.5525866214972" lon="10.829064119600428"><ele>104.0</ele><time>2026-04-12T06:26:43Z</time></trkpt><trkpt lat="45.552766736693314" lon="10.829232426822665"><ele>107.33333333333333</ele><time>2026-04-12T06:26:44Z</time></trkpt><trkpt lat="45.55295179013403" lon="10.829382046642849"><ele>110.66666666666666</ele><time>2026-04-12T06:26:45Z</time></trkpt><trkpt lat="45.55314456611316" lon="10.8295219626599"><ele>114.0</ele><time>2026-04-12T06:26:46Z</time></trkpt><trkpt lat="45.55334184685266" lon="10.829642948608678"><ele>114.0</ele><time>2026-04-12T06:26:47Z</time></trkpt><trkpt lat="45.55355376721179" lon="10.829727841732447"><ele>114.0</ele><time>2026-04-12T06:26:48Z</time></trkpt><trkpt lat="45.55377903062209" lon="10.829791123264208"><ele>107.5</ele><time>2026-04-12T06:26:49Z</time></trkpt><trkpt lat="45.55400333581534" lon="10.829898807192253"><ele>101.0</ele><time>2026-04-12T06:26:50Z</time></trkpt><trkpt lat="45.55423794445499" lon="10.83001279143235"><ele>101.0</ele><time>2026-04-12T06:26:51Z</time></trkpt><trkpt lat="45.55444893155531" lon="10.830126730257762"><ele>101.0</ele><time>2026-04-12T06:26:52Z</time></trkpt><trkpt lat="45.55465783897021" lon="10.830266905186022"><ele>97.0</ele><time>2026-04-12T06:26:53Z</time></trkpt><trkpt lat="45.55486545905281" lon="10.830437062882787"><ele>93.0</ele><time>2026-04-12T06:26:54Z</time></trkpt><trkpt lat="45.555068959889105" lon="10.830603865038672"><ele>93.0</ele><time>2026-04-12T06:26:55Z</time></trkpt><trkpt lat="45.555250496596734" lon="10.83078595233373"><ele>93.0</ele><time>2026-04-12T06:26:56Z</time></trkpt><trkpt lat="45.55542820097164" lon="10.830962634563521"><ele>93.0</ele><time>2026-04-12T06:26:57Z</time></trkpt><trkpt lat="45.555604253873334" lon="10.831146688091945"><ele>164.5</ele><time>2026-04-12T06:26:58Z</time></trkpt><trkpt lat="45.55579827315128" lon="10.831295848458586"><ele>236.0</ele><time>2026-04-12T06:26:59Z</time></trkpt><trkpt lat="45.55601469735895" lon="10.831410597045398"><ele>210.0</ele><time>2026-04-12T06:27:00Z</time></trkpt><trkpt lat="45.55624431617104" lon="10.831496956174192"><ele>184.0</ele><time>2026-04-12T06:27:01Z</time></trkpt><trkpt lat="45.556478131829955" lon="10.831545017914586"><ele>184.0</ele><time>2026-04-12T06:27:02Z</time></trkpt><trkpt lat="45.55671417170305" lon="10.831565608786777"><ele>184.0</ele><time>2026-04-12T06:27:03Z</time></trkpt><trkpt lat="45.556952724910204" lon="10.83161876938129"><ele>184.0</ele><time>2026-04-12T06:27:04Z</time></trkpt><trkpt lat="45.5571816326976" lon="10.83168069596898"><ele>184.0</ele><time>2026-04-12T06:27:05Z</time></trkpt><trkpt lat="45.55740022640306" lon="10.83173491433521"><ele>195.0</ele><time>2026-04-12T06:27:06Z</time></trkpt><trkpt lat="45.55762050109934" lon="10.831762793722666"><ele>206.0</ele><time>2026-04-12T06:27:07Z</time></trkpt><trkpt lat="45.55783205342499" lon="10.831818644882894"><ele>217.0</ele><time>2026-04-12T06:27:08Z</time></trkpt><trkpt lat="45.55805153477123" lon="10.831699676150144"><ele>217.66666666666666</ele><time>2026-04-12T06:27:09Z</time></trkpt><trkpt lat="45.558258393112695" lon="10.831625862148865"><ele>218.33333333333331</ele><time>2026-04-12T06:27:10Z</time></trkpt><trkpt lat="45.558465410465175" lon="10.831535979077895"><ele>219.0</ele><time>2026-04-12T06:27:10.999Z</time></trkpt><trkpt lat="45.558669241215085" lon="10.831432950052065"><ele>212.33333333333331</ele><time>2026-04-12T06:27:11.999Z</time></trkpt><trkpt lat="45.55886842000895" lon="10.83132000449711"><ele>205.66666666666666</ele><time>2026-04-12T06:27:12.999Z</time></trkpt><trkpt lat="45.55905649751453" lon="10.8312081440451"><ele>199.0</ele><time>2026-04-12T06:27:13.999Z</time></trkpt><trkpt lat="45.55923878539192" lon="10.831101617310985"><ele>199.0</ele><time>2026-04-12T06:27:14.999Z</time></trkpt><trkpt lat="45.55941622329422" lon="10.830989858040239"><ele>199.0</ele><time>2026-04-12T06:27:15.999Z</time></trkpt><trkpt lat="45.55958601493914" lon="10.830862545705534"><ele>199.0</ele><time>2026-04-12T06:27:16.999Z</time></trkpt><trkpt lat="45.559742217936716" lon="10.830733096652475"><ele>199.0</ele><time>2026-04-12T06:27:17.999Z</time></trkpt><trkpt lat="45.55989164360464" lon="10.83061190538839"><ele>199.0</ele><time>2026-04-12T06:27:18.999Z</time></trkpt><trkpt lat="45.56003447514495" lon="10.830497869747422"><ele>199.0</ele><time>2026-04-12T06:27:19.999Z</time></trkpt><trkpt lat="45.560167332130796" lon="10.830380724126332"><ele>199.0</ele><time>2026-04-12T06:27:20.999Z</time></trkpt><trkpt lat="45.560292134329174" lon="10.830239958299414"><ele>199.0</ele><time>2026-04-12T06:27:21.999Z</time></trkpt><trkpt lat="45.56040726866984" lon="10.830073003347229"><ele>199.0</ele><time>2026-04-12T06:27:22.999Z</time></trkpt><trkpt lat="45.56051093811083" lon="10.829879762598376"><ele>199.0</ele><time>2026-04-12T06:27:23.999Z</time></trkpt><trkpt lat="45.56060162760551" lon="10.829675913674992"><ele>199.0</ele><time>2026-04-12T06:27:24.999Z</time></trkpt><trkpt lat="45.56069388598763" lon="10.829478427253573"><ele>199.0</ele><time>2026-04-12T06:27:25.999Z</time></trkpt><trkpt lat="45.56079364825926" lon="10.829284759990975"><ele>199.0</ele><time>2026-04-12T06:27:26.999Z</time></trkpt><trkpt lat="45.56089999526095" lon="10.829090157276928"><ele>199.0</ele><time>2026-04-12T06:27:27.999Z</time></trkpt><trkpt lat="45.56101899206871" lon="10.828896515383855"><ele>199.0</ele><time>2026-04-12T06:27:28.999Z</time></trkpt><trkpt lat="45.561152383726984" lon="10.828711860655796"><ele>205.33333333333331</ele><time>2026-04-12T06:27:29.999Z</time></trkpt><trkpt lat="45.561289221771574" lon="10.828537625040592"><ele>211.66666666666669</ele><time>2026-04-12T06:27:30.999Z</time></trkpt><trkpt lat="45.56142131925998" lon="10.82837647951933"><ele>218.0</ele><time>2026-04-12T06:27:31.999Z</time></trkpt><trkpt lat="45.56155223411098" lon="10.82822194917358"><ele>184.66666666666669</ele><time>2026-04-12T06:27:32.999Z</time></trkpt><trkpt lat="45.5616869817095" lon="10.828067126891929"><ele>151.33333333333334</ele><time>2026-04-12T06:27:33.999Z</time></trkpt><trkpt lat="45.56181463973941" lon="10.827919862900382"><ele>118.0</ele><time>2026-04-12T06:27:34.999Z</time></trkpt><trkpt lat="45.561944833389894" lon="10.827789942801795"><ele>111.0</ele><time>2026-04-12T06:27:35.999Z</time></trkpt><trkpt lat="45.56207851388575" lon="10.827663284903196"><ele>104.0</ele><time>2026-04-12T06:27:36.999Z</time></trkpt><trkpt lat="45.56220162890699" lon="10.827527245901864"><ele>97.0</ele><time>2026-04-12T06:27:37.999Z</time></trkpt><trkpt lat="45.56230781573501" lon="10.82737930393666"><ele>97.0</ele><time>2026-04-12T06:27:38.999Z</time></trkpt><trkpt lat="45.56240027121444" lon="10.827219312836098"><ele>97.0</ele><time>2026-04-12T06:27:39.999Z</time></trkpt><trkpt lat="45.5624963125167" lon="10.827061221637102"><ele>97.0</ele><time>2026-04-12T06:27:40.999Z</time></trkpt><trkpt lat="45.56259400610225" lon="10.826906820233331"><ele>97.0</ele><time>2026-04-12T06:27:41.999Z</time></trkpt><trkpt lat="45.562695513685405" lon="10.826755018993236"><ele>97.5</ele><time>2026-04-12T06:27:42.999Z</time></trkpt><trkpt lat="45.56279511287392" lon="10.826608906898628"><ele>98.0</ele><time>2026-04-12T06:27:43.999Z</time></trkpt><trkpt lat="45.5629018701878" lon="10.82647176548367"><ele>98.5</ele><time>2026-04-12T06:27:44.999Z</time></trkpt><trkpt lat="45.563020965192415" lon="10.82636280914419"><ele>99.0</ele><time>2026-04-12T06:27:45.999Z</time></trkpt><trkpt lat="45.56315177662149" lon="10.826268336505663"><ele>106.66666666666666</ele><time>2026-04-12T06:27:46.999Z</time></trkpt><trkpt lat="45.56329390028273" lon="10.826187376567809"><ele>114.33333333333333</ele><time>2026-04-12T06:27:47.999Z</time></trkpt><trkpt lat="45.563437764013905" lon="10.826107002020267"><ele>122.0</ele><time>2026-04-12T06:27:48.999Z</time></trkpt><trkpt lat="45.56359245237892" lon="10.826031141970706"><ele>118.66666666666666</ele><time>2026-04-12T06:27:49.999Z</time></trkpt><trkpt lat="45.563756468756594" lon="10.825970987908974"><ele>115.33333333333334</ele><time>2026-04-12T06:27:50.999Z</time></trkpt><trkpt lat="45.56393287147278" lon="10.825925354908733"><ele>112.0</ele><time>2026-04-12T06:27:51.999Z</time></trkpt><trkpt lat="45.564110228099985" lon="10.825893744175833"><ele>112.0</ele><time>2026-04-12T06:27:52.999Z</time></trkpt><trkpt lat="45.56428451045575" lon="10.82588509890785"><ele>112.0</ele><time>2026-04-12T06:27:53.999Z</time></trkpt><trkpt lat="45.56444569324114" lon="10.825888574243828"><ele>112.0</ele><time>2026-04-12T06:27:54.999Z</time></trkpt><trkpt lat="45.564600992048206" lon="10.825904602938202"><ele>118.25</ele><time>2026-04-12T06:27:55.999Z</time></trkpt><trkpt lat="45.56475128826837" lon="10.825930021277792"><ele>124.5</ele><time>2026-04-12T06:27:56.999Z</time></trkpt><trkpt lat="45.56489350090225" lon="10.825962698845727"><ele>130.75</ele><time>2026-04-12T06:27:57.999Z</time></trkpt><trkpt lat="45.565041044651664" lon="10.825996940466814"><ele>137.0</ele><time>2026-04-12T06:27:58.999Z</time></trkpt><trkpt lat="45.56519315592347" lon="10.826028150640356"><ele>161.0</ele><time>2026-04-12T06:27:59.999Z</time></trkpt><trkpt lat="45.565343941238794" lon="10.826055721289324"><ele>185.0</ele><time>2026-04-12T06:28:00.999Z</time></trkpt><trkpt lat="45.5655029346094" lon="10.82608899553576"><ele>209.0</ele><time>2026-04-12T06:28:01.999Z</time></trkpt><trkpt lat="45.565662680430634" lon="10.826117727814987"><ele>212.66666666666669</ele><time>2026-04-12T06:28:02.999Z</time></trkpt><trkpt lat="45.56582727428259" lon="10.826146795882053"><ele>216.33333333333331</ele><time>2026-04-12T06:28:03.998Z</time></trkpt><trkpt lat="45.56599016291426" lon="10.8261781984379"><ele>220.0</ele><time>2026-04-12T06:28:04.998Z</time></trkpt><trkpt lat="45.56615323233223" lon="10.8262037693233"><ele>225.25</ele><time>2026-04-12T06:28:05.998Z</time></trkpt><trkpt lat="45.566309851842476" lon="10.826233201124149"><ele>230.5</ele><time>2026-04-12T06:28:06.998Z</time></trkpt><trkpt lat="45.56645841585212" lon="10.826252675264689"><ele>235.75</ele><time>2026-04-12T06:28:07.998Z</time></trkpt><trkpt lat="45.5665973783188" lon="10.826290513150635"><ele>241.0</ele><time>2026-04-12T06:28:08.998Z</time></trkpt><trkpt lat="45.56673259349849" lon="10.826320165907545"><ele>241.0</ele><time>2026-04-12T06:28:09.998Z</time></trkpt><trkpt lat="45.566874825608906" lon="10.826358424669838"><ele>241.0</ele><time>2026-04-12T06:28:10.998Z</time></trkpt><trkpt lat="45.56702008473021" lon="10.826390422774416"><ele>241.0</ele><time>2026-04-12T06:28:11.998Z</time></trkpt><trkpt lat="45.56716614822602" lon="10.826409871214139"><ele>241.0</ele><time>2026-04-12T06:28:12.998Z</time></trkpt><trkpt lat="45.567318712094234" lon="10.826459276903167"><ele>216.0</ele><time>2026-04-12T06:28:13.998Z</time></trkpt><trkpt lat="45.5674682125209" lon="10.826525528979765"><ele>191.0</ele><time>2026-04-12T06:28:14.998Z</time></trkpt><trkpt lat="45.56762587097075" lon="10.826574874669715"><ele>166.0</ele><time>2026-04-12T06:28:15.998Z</time></trkpt><trkpt lat="45.56778646657248" lon="10.826641041984129"><ele>166.0</ele><time>2026-04-12T06:28:16.998Z</time></trkpt><trkpt lat="45.56792096078971" lon="10.82679088482704"><ele>166.0</ele><time>2026-04-12T06:28:17.998Z</time></trkpt><trkpt lat="45.5680810199475" lon="10.826871908567343"><ele>166.0</ele><time>2026-04-12T06:28:18.998Z</time></trkpt><trkpt lat="45.56825788198559" lon="10.826912974338315"><ele>166.0</ele><time>2026-04-12T06:28:19.998Z</time></trkpt><trkpt lat="45.56844112504179" lon="10.826920626903956"><ele>166.0</ele><time>2026-04-12T06:28:20.998Z</time></trkpt><trkpt lat="45.56862899414019" lon="10.826889314357059"><ele>166.0</ele><time>2026-04-12T06:28:21.998Z</time></trkpt><trkpt lat="45.56881859596342" lon="10.826837578817006"><ele>151.66666666666669</ele><time>2026-04-12T06:28:22.998Z</time></trkpt><trkpt lat="45.569010081885054" lon="10.826797650732358"><ele>137.33333333333334</ele><time>2026-04-12T06:28:23.998Z</time></trkpt><trkpt lat="45.56918275439868" lon="10.826710807218268"><ele>123.0</ele><time>2026-04-12T06:28:24.998Z</time></trkpt><trkpt lat="45.56935386575865" lon="10.826676059275512"><ele>123.0</ele><time>2026-04-12T06:28:25.998Z</time></trkpt><trkpt lat="45.569512833373814" lon="10.826607317783179"><ele>123.0</ele><time>2026-04-12T06:28:26.998Z</time></trkpt><trkpt lat="45.56967288424091" lon="10.826588593617954"><ele>123.0</ele><time>2026-04-12T06:28:27.998Z</time></trkpt><trkpt lat="45.56982814689824" lon="10.826578802176638"><ele>123.66666666666666</ele><time>2026-04-12T06:28:28.998Z</time></trkpt><trkpt lat="45.569983807592486" lon="10.826579087194196"><ele>124.33333333333333</ele><time>2026-04-12T06:28:29.998Z</time></trkpt><trkpt lat="45.57014147332793" lon="10.826587641087663"><ele>125.0</ele><time>2026-04-12T06:28:30.998Z</time></trkpt><trkpt lat="45.57030659746726" lon="10.82660435694052"><ele>126.33333333333333</ele><time>2026-04-12T06:28:31.998Z</time></trkpt><trkpt lat="45.570475177977265" lon="10.826622460776646"><ele>127.66666666666666</ele><time>2026-04-12T06:28:32.998Z</time></trkpt><trkpt lat="45.570645579557734" lon="10.8266312419568"><ele>129.0</ele><time>2026-04-12T06:28:33.998Z</time></trkpt><trkpt lat="45.57081645710545" lon="10.826638182683581"><ele>129.0</ele><time>2026-04-12T06:28:34.998Z</time></trkpt><trkpt lat="45.570987528686175" lon="10.826645583210604"><ele>129.0</ele><time>2026-04-12T06:28:35.998Z</time></trkpt><trkpt lat="45.57115856084" lon="10.826643506283352"><ele>129.0</ele><time>2026-04-12T06:28:36.998Z</time></trkpt><trkpt lat="45.5713308029164" lon="10.82662953395647"><ele>130.0</ele><time>2026-04-12T06:28:38Z</time></trkpt><trkpt lat="45.5715066807266" lon="10.826600998259574"><ele>131.0</ele><time>2026-04-12T06:28:39Z</time></trkpt><trkpt lat="45.57167904676954" lon="10.826559258775982"><ele>132.0</ele><time>2026-04-12T06:28:40Z</time></trkpt><trkpt lat="45.57185172623816" lon="10.826515153020642"><ele>131.0</ele><time>2026-04-12T06:28:41Z</time></trkpt><trkpt lat="45.5720238410707" lon="10.82647118464851"><ele>130.0</ele><time>2026-04-12T06:28:42Z</time></trkpt><trkpt lat="45.57219225176553" lon="10.826431523762361"><ele>129.0</ele><time>2026-04-12T06:28:43Z</time></trkpt><trkpt lat="45.5723539400724" lon="10.826392874207759"><ele>129.0</ele><time>2026-04-12T06:28:44Z</time></trkpt><trkpt lat="45.572517000778205" lon="10.826359047550659"><ele>129.0</ele><time>2026-04-12T06:28:45Z</time></trkpt><trkpt lat="45.572686688394036" lon="10.826323179840033"><ele>129.0</ele><time>2026-04-12T06:28:46Z</time></trkpt><trkpt lat="45.57285827179263" lon="10.826282024110023"><ele>128.0</ele><time>2026-04-12T06:28:47Z</time></trkpt><trkpt lat="45.5730376404203" lon="10.826242569152479"><ele>127.0</ele><time>2026-04-12T06:28:48Z</time></trkpt><trkpt lat="45.5732265751761" lon="10.826199931410606"><ele>126.0</ele><time>2026-04-12T06:28:49Z</time></trkpt><trkpt lat="45.573412882730345" lon="10.826155245033384"><ele>126.0</ele><time>2026-04-12T06:28:50Z</time></trkpt><trkpt lat="45.57359724426711" lon="10.826111075714834"><ele>126.0</ele><time>2026-04-12T06:28:51Z</time></trkpt><trkpt lat="45.57378315025257" lon="10.826068939246767"><ele>126.0</ele><time>2026-04-12T06:28:52Z</time></trkpt><trkpt lat="45.57396524982127" lon="10.826024852887992"><ele>127.0</ele><time>2026-04-12T06:28:53Z</time></trkpt><trkpt lat="45.57415618960879" lon="10.825985008665066"><ele>128.0</ele><time>2026-04-12T06:28:54Z</time></trkpt><trkpt lat="45.57434742287498" lon="10.825963982610492"><ele>129.0</ele><time>2026-04-12T06:28:55Z</time></trkpt><trkpt lat="45.57453827007326" lon="10.825966341371513"><ele>127.66666666666666</ele><time>2026-04-12T06:28:56Z</time></trkpt><trkpt lat="45.57472092839279" lon="10.826011050611532"><ele>126.33333333333333</ele><time>2026-04-12T06:28:57Z</time></trkpt><trkpt lat="45.57489760239623" lon="10.82607797796264"><ele>125.0</ele><time>2026-04-12T06:28:58Z</time></trkpt><trkpt lat="45.575070225181705" lon="10.82617608811937"><ele>125.0</ele><time>2026-04-12T06:28:59Z</time></trkpt><trkpt lat="45.57524080748079" lon="10.826301070445684"><ele>125.0</ele><time>2026-04-12T06:29:00Z</time></trkpt><trkpt lat="45.57540500590586" lon="10.826453080535735"><ele>125.0</ele><time>2026-04-12T06:29:01Z</time></trkpt><trkpt lat="45.57556018565701" lon="10.826629488957158"><ele>131.66666666666666</ele><time>2026-04-12T06:29:02Z</time></trkpt><trkpt lat="45.57570335622309" lon="10.826815517329084"><ele>138.33333333333334</ele><time>2026-04-12T06:29:03Z</time></trkpt><trkpt lat="45.57583700347502" lon="10.827012219614105"><ele>145.0</ele><time>2026-04-12T06:29:04Z</time></trkpt><trkpt lat="45.57596620439714" lon="10.827213817974995"><ele>145.0</ele><time>2026-04-12T06:29:05Z</time></trkpt><trkpt lat="45.57608928265435" lon="10.827413837772264"><ele>145.0</ele><time>2026-04-12T06:29:06Z</time></trkpt><trkpt lat="45.57620875612178" lon="10.82761763417382"><ele>145.0</ele><time>2026-04-12T06:29:07Z</time></trkpt><trkpt lat="45.576316506692336" lon="10.827824713842453"><ele>136.0</ele><time>2026-04-12T06:29:08Z</time></trkpt><trkpt lat="45.576420846860465" lon="10.828027354517085"><ele>127.0</ele><time>2026-04-12T06:29:09Z</time></trkpt><trkpt lat="45.57650414389839" lon="10.828258255283082"><ele>118.0</ele><time>2026-04-12T06:29:10Z</time></trkpt><trkpt lat="45.57659585763715" lon="10.828474562178364"><ele>125.0</ele><time>2026-04-12T06:29:11Z</time></trkpt><trkpt lat="45.57669061358262" lon="10.828692740536141"><ele>132.0</ele><time>2026-04-12T06:29:12Z</time></trkpt><trkpt lat="45.57678842882668" lon="10.828918059460694"><ele>139.0</ele><time>2026-04-12T06:29:13Z</time></trkpt><trkpt lat="45.57688667171992" lon="10.829146418435325"><ele>127.33333333333334</ele><time>2026-04-12T06:29:14Z</time></trkpt><trkpt lat="45.5770003701331" lon="10.829366188211281"><ele>115.66666666666666</ele><time>2026-04-12T06:29:15Z</time></trkpt><trkpt lat="45.57708511427474" lon="10.82960768560996"><ele>104.0</ele><time>2026-04-12T06:29:16Z</time></trkpt><trkpt lat="45.577200021880024" lon="10.829831549679868"><ele>104.0</ele><time>2026-04-12T06:29:16.999Z</time></trkpt><trkpt lat="45.57729018108756" lon="10.830076170313989"><ele>104.0</ele><time>2026-04-12T06:29:17.999Z</time></trkpt><trkpt lat="45.57740913330426" lon="10.830282750690246"><ele>104.0</ele><time>2026-04-12T06:29:18.999Z</time></trkpt><trkpt lat="45.5775116661385" lon="10.830515838227129"><ele>104.0</ele><time>2026-04-12T06:29:19.999Z</time></trkpt><trkpt lat="45.57763030782159" lon="10.830721791343239"><ele>104.0</ele><time>2026-04-12T06:29:20.999Z</time></trkpt><trkpt lat="45.577765169425525" lon="10.830909529258482"><ele>104.0</ele><time>2026-04-12T06:29:21.999Z</time></trkpt><trkpt lat="45.57787276505609" lon="10.831118518338112"><ele>104.0</ele><time>2026-04-12T06:29:22.999Z</time></trkpt><trkpt lat="45.577994677643524" lon="10.83131521979093"><ele>104.0</ele><time>2026-04-12T06:29:23.999Z</time></trkpt><trkpt lat="45.578130332109524" lon="10.83151401037154"><ele>104.0</ele><time>2026-04-12T06:29:24.999Z</time></trkpt><trkpt lat="45.57827231304056" lon="10.831701320765308"><ele>104.33333333333333</ele><time>2026-04-12T06:29:25.999Z</time></trkpt><trkpt lat="45.57842280551251" lon="10.83189196802874"><ele>104.66666666666666</ele><time>2026-04-12T06:29:26.999Z</time></trkpt><trkpt lat="45.578574563522345" lon="10.832081549793829"><ele>105.0</ele><time>2026-04-12T06:29:27.999Z</time></trkpt><trkpt lat="45.578728642727974" lon="10.832271828758241"><ele>105.33333333333334</ele><time>2026-04-12T06:29:28.999Z</time></trkpt><trkpt lat="45.57888273618467" lon="10.832462125226327"><ele>105.66666666666667</ele><time>2026-04-12T06:29:29.999Z</time></trkpt><trkpt lat="45.579034191130674" lon="10.83264994869383"><ele>106.0</ele><time>2026-04-12T06:29:30.999Z</time></trkpt><trkpt lat="45.57918373293709" lon="10.832835921341584"><ele>106.66666666666667</ele><time>2026-04-12T06:29:31.999Z</time></trkpt><trkpt lat="45.57933258991545" lon="10.83302104241261"><ele>107.33333333333334</ele><time>2026-04-12T06:29:32.999Z</time></trkpt><trkpt lat="45.579483345917396" lon="10.8332075605564"><ele>108.0</ele><time>2026-04-12T06:29:33.999Z</time></trkpt><trkpt lat="45.57963736048298" lon="10.83339669045306"><ele>106.0</ele><time>2026-04-12T06:29:34.999Z</time></trkpt><trkpt lat="45.579792216847935" lon="10.833586853697994"><ele>104.0</ele><time>2026-04-12T06:29:35.999Z</time></trkpt><trkpt lat="45.57995729101972" lon="10.833756488295535"><ele>102.0</ele><time>2026-04-12T06:29:36.999Z</time></trkpt><trkpt lat="45.58011255389585" lon="10.833950391402661"><ele>102.0</ele><time>2026-04-12T06:29:37.999Z</time></trkpt><trkpt lat="45.580250212856434" lon="10.834168740924463"><ele>102.0</ele><time>2026-04-12T06:29:38.999Z</time></trkpt><trkpt lat="45.58039162042362" lon="10.834386204636333"><ele>102.0</ele><time>2026-04-12T06:29:39.999Z</time></trkpt><trkpt lat="45.58052459859618" lon="10.83461665705702"><ele>102.5</ele><time>2026-04-12T06:29:40.999Z</time></trkpt><trkpt lat="45.580654749282544" lon="10.834871670237739"><ele>103.0</ele><time>2026-04-12T06:29:41.999Z</time></trkpt><trkpt lat="45.5807768082129" lon="10.835151379023078"><ele>103.5</ele><time>2026-04-12T06:29:42.999Z</time></trkpt><trkpt lat="45.580897575123814" lon="10.835462839944835"><ele>104.0</ele><time>2026-04-12T06:29:43.999Z</time></trkpt><trkpt lat="45.581017270087784" lon="10.835812121499542"><ele>104.0</ele><time>2026-04-12T06:29:44.999Z</time></trkpt><trkpt lat="45.58113680120387" lon="10.836170913009612"><ele>104.0</ele><time>2026-04-12T06:29:45.999Z</time></trkpt><trkpt lat="45.58125237594231" lon="10.836519322100026"><ele>105.5</ele><time>2026-04-12T06:29:46.999Z</time></trkpt><trkpt lat="45.58136705050227" lon="10.836865017251851"><ele>107.0</ele><time>2026-04-12T06:29:47.999Z</time></trkpt><trkpt lat="45.581483280677666" lon="10.837215576090978"><ele>107.0</ele><time>2026-04-12T06:29:48.999Z</time></trkpt><trkpt lat="45.581602579704054" lon="10.837575555034222"><ele>107.0</ele><time>2026-04-12T06:29:49.999Z</time></trkpt><trkpt lat="45.58172280818463" lon="10.837937585721257"><ele>112.0</ele><time>2026-04-12T06:29:50.999Z</time></trkpt><trkpt lat="45.581848057782814" lon="10.83831437688946"><ele>117.0</ele><time>2026-04-12T06:29:51.999Z</time></trkpt><trkpt lat="45.5819777133048" lon="10.838705601948048"><ele>114.5</ele><time>2026-04-12T06:29:52.999Z</time></trkpt><trkpt lat="45.5821002063888" lon="10.839077422351668"><ele>112.0</ele><time>2026-04-12T06:29:53.999Z</time></trkpt><trkpt lat="45.58221626579553" lon="10.839430089598666"><ele>112.0</ele><time>2026-04-12T06:29:54.999Z</time></trkpt><trkpt lat="45.582319900475916" lon="10.839746746361516"><ele>112.0</ele><time>2026-04-12T06:29:55.999Z</time></trkpt><trkpt lat="45.582408567912886" lon="10.840017670400373"><ele>117.33333333333334</ele><time>2026-04-12T06:29:56.999Z</time></trkpt><trkpt lat="45.58249005007457" lon="10.84025699065013"><ele>122.66666666666666</ele><time>2026-04-12T06:29:57.999Z</time></trkpt><trkpt lat="45.58258016506347" lon="10.840490223318119"><ele>128.0</ele><time>2026-04-12T06:29:58.999Z</time></trkpt><trkpt lat="45.582684945132065" lon="10.840726589696875"><ele>122.0</ele><time>2026-04-12T06:29:59.999Z</time></trkpt><trkpt lat="45.58279656382211" lon="10.840975054506128"><ele>116.0</ele><time>2026-04-12T06:30:00.999Z</time></trkpt><trkpt lat="45.58292227980807" lon="10.841233410205708"><ele>110.0</ele><time>2026-04-12T06:30:01.999Z</time></trkpt><trkpt lat="45.583063943311494" lon="10.841476577377462"><ele>110.0</ele><time>2026-04-12T06:30:02.999Z</time></trkpt><trkpt lat="45.58318878760874" lon="10.841723027618528"><ele>110.0</ele><time>2026-04-12T06:30:03.999Z</time></trkpt><trkpt lat="45.58331943896936" lon="10.841944680318674"><ele>110.0</ele><time>2026-04-12T06:30:04.999Z</time></trkpt><trkpt lat="45.583438268936774" lon="10.842194264192745"><ele>113.33333333333333</ele><time>2026-04-12T06:30:05.999Z</time></trkpt><trkpt lat="45.583568719209985" lon="10.842431672309106"><ele>116.66666666666666</ele><time>2026-04-12T06:30:06.999Z</time></trkpt><trkpt lat="45.583740739311054" lon="10.842634761657218"><ele>120.0</ele><time>2026-04-12T06:30:07.999Z</time></trkpt><trkpt lat="45.58388035060868" lon="10.842874166943108"><ele>120.0</ele><time>2026-04-12T06:30:08.998Z</time></trkpt><trkpt lat="45.584014948765905" lon="10.843109622479965"><ele>120.0</ele><time>2026-04-12T06:30:09.998Z</time></trkpt><trkpt lat="45.58414732746172" lon="10.843324828366189"><ele>120.0</ele><time>2026-04-12T06:30:10.998Z</time></trkpt><trkpt lat="45.584281733966854" lon="10.843527312013764"><ele>117.33333333333334</ele><time>2026-04-12T06:30:11.998Z</time></trkpt><trkpt lat="45.58443064397188" lon="10.843726565658148"><ele>114.66666666666667</ele><time>2026-04-12T06:30:12.998Z</time></trkpt><trkpt lat="45.58459144959246" lon="10.843912749929984"><ele>112.0</ele><time>2026-04-12T06:30:13.998Z</time></trkpt><trkpt lat="45.58476160144458" lon="10.844087727519579"><ele>112.0</ele><time>2026-04-12T06:30:14.998Z</time></trkpt><trkpt lat="45.584936253522535" lon="10.844259677417199"><ele>112.0</ele><time>2026-04-12T06:30:15.998Z</time></trkpt><trkpt lat="45.58510175020129" lon="10.844433230603377"><ele>112.0</ele><time>2026-04-12T06:30:16.998Z</time></trkpt><trkpt lat="45.58526081609125" lon="10.844609843645014"><ele>111.66666666666667</ele><time>2026-04-12T06:30:17.998Z</time></trkpt><trkpt lat="45.58542143375059" lon="10.84478314073418"><ele>111.33333333333334</ele><time>2026-04-12T06:30:18.998Z</time></trkpt><trkpt lat="45.58558897668206" lon="10.844946613295658"><ele>111.0</ele><time>2026-04-12T06:30:19.998Z</time></trkpt><trkpt lat="45.58576122073503" lon="10.845101240270353"><ele>110.66666666666666</ele><time>2026-04-12T06:30:20.998Z</time></trkpt><trkpt lat="45.58593353571162" lon="10.84526480241445"><ele>110.33333333333333</ele><time>2026-04-12T06:30:21.998Z</time></trkpt><trkpt lat="45.58610788252951" lon="10.845434328181755"><ele>110.0</ele><time>2026-04-12T06:30:22.998Z</time></trkpt><trkpt lat="45.586284350744734" lon="10.845610239929353"><ele>110.0</ele><time>2026-04-12T06:30:23.998Z</time></trkpt><trkpt lat="45.586467339607566" lon="10.84578274260814"><ele>110.0</ele><time>2026-04-12T06:30:24.998Z</time></trkpt><trkpt lat="45.5866499663758" lon="10.8459546590746"><ele>110.0</ele><time>2026-04-12T06:30:25.998Z</time></trkpt><trkpt lat="45.58683389804199" lon="10.846124130986636"><ele>111.0</ele><time>2026-04-12T06:30:26.998Z</time></trkpt><trkpt lat="45.587023113034924" lon="10.846292453190419"><ele>112.0</ele><time>2026-04-12T06:30:27.998Z</time></trkpt><trkpt lat="45.58721759540529" lon="10.84645771532473"><ele>113.0</ele><time>2026-04-12T06:30:28.998Z</time></trkpt><trkpt lat="45.58741641759403" lon="10.846619326258885"><ele>113.0</ele><time>2026-04-12T06:30:29.998Z</time></trkpt><trkpt lat="45.587613663680614" lon="10.846779476275543"><ele>113.0</ele><time>2026-04-12T06:30:30.998Z</time></trkpt><trkpt lat="45.58780705593566" lon="10.846931469484703"><ele>113.0</ele><time>2026-04-12T06:30:31.998Z</time></trkpt><trkpt lat="45.58799867560356" lon="10.847084207559648"><ele>114.66666666666666</ele><time>2026-04-12T06:30:32.998Z</time></trkpt><trkpt lat="45.588178924068174" lon="10.847227157849533"><ele>116.33333333333334</ele><time>2026-04-12T06:30:33.998Z</time></trkpt><trkpt lat="45.58837383653443" lon="10.847346776464969"><ele>118.0</ele><time>2026-04-12T06:30:34.998Z</time></trkpt><trkpt lat="45.58858916379325" lon="10.847434069301674"><ele>114.0</ele><time>2026-04-12T06:30:35.998Z</time></trkpt><trkpt lat="45.58881140761991" lon="10.847506964545975"><ele>110.0</ele><time>2026-04-12T06:30:36.998Z</time></trkpt><trkpt lat="45.58903946495263" lon="10.847589696120465"><ele>119.0</ele><time>2026-04-12T06:30:37.998Z</time></trkpt><trkpt lat="45.58926420420438" lon="10.847692624496737"><ele>128.0</ele><time>2026-04-12T06:30:38.998Z</time></trkpt><trkpt lat="45.589479059176796" lon="10.847812885521437"><ele>122.33333333333333</ele><time>2026-04-12T06:30:39.998Z</time></trkpt><trkpt lat="45.58967502471555" lon="10.847933957348515"><ele>116.66666666666666</ele><time>2026-04-12T06:30:40.998Z</time></trkpt><trkpt lat="45.589853310701486" lon="10.848053487694475"><ele>111.0</ele><time>2026-04-12T06:30:41.998Z</time></trkpt><trkpt lat="45.590019726379325" lon="10.848168251443015"><ele>111.0</ele><time>2026-04-12T06:30:42.998Z</time></trkpt><trkpt lat="45.59017647500818" lon="10.848301604685815"><ele>111.0</ele><time>2026-04-12T06:30:44Z</time></trkpt><trkpt lat="45.59031852532875" lon="10.848483757423663"><ele>111.0</ele><time>2026-04-12T06:30:45Z</time></trkpt><trkpt lat="45.59045691067425" lon="10.84869914581867"><ele>112.0</ele><time>2026-04-12T06:30:46Z</time></trkpt><trkpt lat="45.590620030762445" lon="10.848896906099776"><ele>113.0</ele><time>2026-04-12T06:30:47Z</time></trkpt><trkpt lat="45.59082512255274" lon="10.849049399221476"><ele>114.0</ele><time>2026-04-12T06:30:48Z</time></trkpt><trkpt lat="45.59105969495016" lon="10.849138489969766"><ele>110.5</ele><time>2026-04-12T06:30:49Z</time></trkpt><trkpt lat="45.591293005959855" lon="10.849206523738962"><ele>107.0</ele><time>2026-04-12T06:30:50Z</time></trkpt><trkpt lat="45.59151106623561" lon="10.849288798172603"><ele>109.66666666666666</ele><time>2026-04-12T06:30:51Z</time></trkpt><trkpt lat="45.591712248921915" lon="10.849381312700197"><ele>112.33333333333334</ele><time>2026-04-12T06:30:52Z</time></trkpt><trkpt lat="45.59190691140587" lon="10.849468866343134"><ele>115.0</ele><time>2026-04-12T06:30:53Z</time></trkpt><trkpt lat="45.59209150557168" lon="10.849554231526819"><ele>115.0</ele><time>2026-04-12T06:30:54Z</time></trkpt><trkpt lat="45.59227741010174" lon="10.849655887574707"><ele>115.0</ele><time>2026-04-12T06:30:55Z</time></trkpt><trkpt lat="45.59247044487955" lon="10.849763377750925"><ele>115.0</ele><time>2026-04-12T06:30:56Z</time></trkpt><trkpt lat="45.592665400450834" lon="10.849881744241374"><ele>111.66666666666667</ele><time>2026-04-12T06:30:57Z</time></trkpt><trkpt lat="45.59285936512713" lon="10.849990128239709"><ele>108.33333333333334</ele><time>2026-04-12T06:30:58Z</time></trkpt><trkpt lat="45.59305865375921" lon="10.850101882917338"><ele>105.0</ele><time>2026-04-12T06:30:59Z</time></trkpt><trkpt lat="45.593255328706924" lon="10.850208820483541"><ele>105.0</ele><time>2026-04-12T06:31:00Z</time></trkpt><trkpt lat="45.59345415568349" lon="10.850309851238007"><ele>105.0</ele><time>2026-04-12T06:31:01Z</time></trkpt><trkpt lat="45.59366084469988" lon="10.850399803291614"><ele>105.0</ele><time>2026-04-12T06:31:02Z</time></trkpt><trkpt lat="45.59386781614872" lon="10.850469062898425"><ele>105.0</ele><time>2026-04-12T06:31:03Z</time></trkpt><trkpt lat="45.59408278427899" lon="10.850519346366875"><ele>105.0</ele><time>2026-04-12T06:31:04Z</time></trkpt><trkpt lat="45.594302107429144" lon="10.850556252789598"><ele>105.0</ele><time>2026-04-12T06:31:05Z</time></trkpt><trkpt lat="45.59452141785028" lon="10.850575641142783"><ele>104.66666666666666</ele><time>2026-04-12T06:31:06Z</time></trkpt><trkpt lat="45.594741072465446" lon="10.85057201471392"><ele>104.33333333333333</ele><time>2026-04-12T06:31:07Z</time></trkpt><trkpt lat="45.594966830364655" lon="10.850549981255774"><ele>104.0</ele><time>2026-04-12T06:31:08Z</time></trkpt><trkpt lat="45.59519666169666" lon="10.85050775428631"><ele>103.5</ele><time>2026-04-12T06:31:09Z</time></trkpt><trkpt lat="45.5954268783158" lon="10.850447497354708"><ele>103.0</ele><time>2026-04-12T06:31:10Z</time></trkpt><trkpt lat="45.59565443346327" lon="10.850383866712892"><ele>103.0</ele><time>2026-04-12T06:31:11Z</time></trkpt><trkpt lat="45.59588207421397" lon="10.850320013137766"><ele>103.0</ele><time>2026-04-12T06:31:12Z</time></trkpt><trkpt lat="45.59610427613769" lon="10.850277096766499"><ele>103.33333333333334</ele><time>2026-04-12T06:31:13Z</time></trkpt><trkpt lat="45.59632255978067" lon="10.85019618209801"><ele>103.66666666666666</ele><time>2026-04-12T06:31:14Z</time></trkpt><trkpt lat="45.59654235691086" lon="10.85013586139581"><ele>104.0</ele><time>2026-04-12T06:31:15Z</time></trkpt><trkpt lat="45.59675716913104" lon="10.850077307940017"><ele>104.0</ele><time>2026-04-12T06:31:16Z</time></trkpt><trkpt lat="45.59696691137045" lon="10.850022220901069"><ele>104.0</ele><time>2026-04-12T06:31:17Z</time></trkpt><trkpt lat="45.597176426891814" lon="10.849975717746839"><ele>104.0</ele><time>2026-04-12T06:31:18Z</time></trkpt><trkpt lat="45.5973885972227" lon="10.84993703377896"><ele>103.66666666666666</ele><time>2026-04-12T06:31:19Z</time></trkpt><trkpt lat="45.59760039368772" lon="10.849911147697847"><ele>103.33333333333334</ele><time>2026-04-12T06:31:20Z</time></trkpt><trkpt lat="45.597810352141565" lon="10.8499025656582"><ele>103.0</ele><time>2026-04-12T06:31:21Z</time></trkpt><trkpt lat="45.59801953044153" lon="10.84990441508408"><ele>104.33333333333334</ele><time>2026-04-12T06:31:22Z</time></trkpt><trkpt lat="45.59821810067453" lon="10.8499160756494"><ele>105.66666666666666</ele><time>2026-04-12T06:31:22.999Z</time></trkpt><trkpt lat="45.59840210732515" lon="10.849933934335219"><ele>107.0</ele><time>2026-04-12T06:31:23.999Z</time></trkpt><trkpt lat="45.59858406408873" lon="10.84995694849869"><ele>108.33333333333333</ele><time>2026-04-12T06:31:24.999Z</time></trkpt><trkpt lat="45.59877238491017" lon="10.849996486272111"><ele>109.66666666666666</ele><time>2026-04-12T06:31:25.999Z</time></trkpt><trkpt lat="45.59894765121367" lon="10.850071047362063"><ele>111.0</ele><time>2026-04-12T06:31:26.999Z</time></trkpt><trkpt lat="45.599113028218305" lon="10.850100889679297"><ele>111.33333333333334</ele><time>2026-04-12T06:31:27.999Z</time></trkpt><trkpt lat="45.59926547196442" lon="10.850154632251538"><ele>111.66666666666667</ele><time>2026-04-12T06:31:28.999Z</time></trkpt><trkpt lat="45.59941597344763" lon="10.850220449130507"><ele>112.0</ele><time>2026-04-12T06:31:29.999Z</time></trkpt><trkpt lat="45.5995670133159" lon="10.850288141892076"><ele>112.0</ele><time>2026-04-12T06:31:30.999Z</time></trkpt><trkpt lat="45.59972802514858" lon="10.850368818091017"><ele>112.0</ele><time>2026-04-12T06:31:31.999Z</time></trkpt><trkpt lat="45.59988950186963" lon="10.850487277426872"><ele>112.0</ele><time>2026-04-12T06:31:32.999Z</time></trkpt><trkpt lat="45.60006248960634" lon="10.850594183375966"><ele>112.0</ele><time>2026-04-12T06:31:33.999Z</time></trkpt><trkpt lat="45.600237466545394" lon="10.850716174350756"><ele>112.0</ele><time>2026-04-12T06:31:34.999Z</time></trkpt><trkpt lat="45.60041605209933" lon="10.85085524495575"><ele>112.0</ele><time>2026-04-12T06:31:35.999Z</time></trkpt><trkpt lat="45.60060818451492" lon="10.850981096938778"><ele>112.33333333333334</ele><time>2026-04-12T06:31:36.999Z</time></trkpt><trkpt lat="45.60078913114228" lon="10.851127556177573"><ele>112.66666666666666</ele><time>2026-04-12T06:31:37.999Z</time></trkpt><trkpt lat="45.6009801894717" lon="10.851280524984137"><ele>113.0</ele><time>2026-04-12T06:31:38.999Z</time></trkpt><trkpt lat="45.601169154323394" lon="10.851431065374136"><ele>113.0</ele><time>2026-04-12T06:31:39.999Z</time></trkpt><trkpt lat="45.60135891392882" lon="10.851575172011989"><ele>113.0</ele><time>2026-04-12T06:31:40.999Z</time></trkpt><trkpt lat="45.60154102009491" lon="10.851718738106989"><ele>113.0</ele><time>2026-04-12T06:31:41.999Z</time></trkpt><trkpt lat="45.60171805296058" lon="10.851878724725799"><ele>113.66666666666666</ele><time>2026-04-12T06:31:42.999Z</time></trkpt><trkpt lat="45.601907525027926" lon="10.852005297837843"><ele>114.33333333333334</ele><time>2026-04-12T06:31:43.999Z</time></trkpt><trkpt lat="45.602106111669826" lon="10.852093017921177"><ele>115.0</ele><time>2026-04-12T06:31:44.999Z</time></trkpt><trkpt lat="45.602297560108155" lon="10.8521924060594"><ele>115.0</ele><time>2026-04-12T06:31:45.999Z</time></trkpt><trkpt lat="45.602481545504794" lon="10.852308337338732"><ele>115.0</ele><time>2026-04-12T06:31:46.999Z</time></trkpt><trkpt lat="45.60266161505524" lon="10.852399657651365"><ele>115.0</ele><time>2026-04-12T06:31:47.999Z</time></trkpt><trkpt lat="45.60283654936563" lon="10.852488373667262"><ele>115.0</ele><time>2026-04-12T06:31:48.999Z</time></trkpt><trkpt lat="45.603006395149094" lon="10.85257614556489"><ele>115.0</ele><time>2026-04-12T06:31:49.999Z</time></trkpt><trkpt lat="45.603165030353296" lon="10.852656605358678"><ele>115.0</ele><time>2026-04-12T06:31:50.999Z</time></trkpt><trkpt lat="45.60332947861098" lon="10.852718323208292"><ele>115.33333333333334</ele><time>2026-04-12T06:31:51.999Z</time></trkpt><trkpt lat="45.60349076172115" lon="10.852812329539658"><ele>115.66666666666666</ele><time>2026-04-12T06:31:52.999Z</time></trkpt><trkpt lat="45.60365465812868" lon="10.852916634559758"><ele>116.0</ele><time>2026-04-12T06:31:53.999Z</time></trkpt><trkpt lat="45.60381856527835" lon="10.853035417529465"><ele>116.0</ele><time>2026-04-12T06:31:54.999Z</time></trkpt><trkpt lat="45.60398187844741" lon="10.853172416613718"><ele>116.0</ele><time>2026-04-12T06:31:55.999Z</time></trkpt><trkpt lat="45.60414560454066" lon="10.85332795566606"><ele>116.0</ele><time>2026-04-12T06:31:56.999Z</time></trkpt><trkpt lat="45.604313883636735" lon="10.853505791395886"><ele>115.5</ele><time>2026-04-12T06:31:57.999Z</time></trkpt><trkpt lat="45.60448985549163" lon="10.853693728124096"><ele>115.0</ele><time>2026-04-12T06:31:58.999Z</time></trkpt><trkpt lat="45.604674675358325" lon="10.853889599463471"><ele>115.0</ele><time>2026-04-12T06:31:59.999Z</time></trkpt><trkpt lat="45.604848156754535" lon="10.854108995324895"><ele>115.0</ele><time>2026-04-12T06:32:00.999Z</time></trkpt><trkpt lat="45.60503136050039" lon="10.854309237473654"><ele>114.33333333333334</ele><time>2026-04-12T06:32:01.999Z</time></trkpt><trkpt lat="45.60521143659482" lon="10.854506061302725"><ele>113.66666666666666</ele><time>2026-04-12T06:32:02.999Z</time></trkpt><trkpt lat="45.60538240558766" lon="10.85469375477374"><ele>113.0</ele><time>2026-04-12T06:32:03.999Z</time></trkpt><trkpt lat="45.60553809741485" lon="10.854868853536603"><ele>113.0</ele><time>2026-04-12T06:32:04.999Z</time></trkpt><trkpt lat="45.605662040538384" lon="10.855075838755113"><ele>113.0</ele><time>2026-04-12T06:32:05.999Z</time></trkpt><trkpt lat="45.60578007441537" lon="10.855299370798914"><ele>113.0</ele><time>2026-04-12T06:32:06.999Z</time></trkpt><trkpt lat="45.60590525154044" lon="10.855517859865145"><ele>113.66666666666666</ele><time>2026-04-12T06:32:07.999Z</time></trkpt><trkpt lat="45.606052858046056" lon="10.855726955510033"><ele>114.33333333333334</ele><time>2026-04-12T06:32:08.999Z</time></trkpt><trkpt lat="45.60621112666542" lon="10.855922621084716"><ele>115.0</ele><time>2026-04-12T06:32:09.999Z</time></trkpt><trkpt lat="45.60638689632528" lon="10.856104368508227"><ele>115.0</ele><time>2026-04-12T06:32:10.999Z</time></trkpt><trkpt lat="45.60657790852603" lon="10.856272463417726"><ele>115.0</ele><time>2026-04-12T06:32:11.999Z</time></trkpt><trkpt lat="45.60676818601078" lon="10.856435164636578"><ele>115.0</ele><time>2026-04-12T06:32:12.999Z</time></trkpt><trkpt lat="45.606955640011975" lon="10.856589051751993"><ele>116.33333333333334</ele><time>2026-04-12T06:32:13.999Z</time></trkpt><trkpt lat="45.60714198938774" lon="10.856741242486445"><ele>117.66666666666666</ele><time>2026-04-12T06:32:14.999Z</time></trkpt><trkpt lat="45.607336764151434" lon="10.856871669178163"><ele>119.0</ele><time>2026-04-12T06:32:15.999Z</time></trkpt><trkpt lat="45.607547705565295" lon="10.856967228481311"><ele>119.0</ele><time>2026-04-12T06:32:16.998Z</time></trkpt><trkpt lat="45.60775879885819" lon="10.857038029779298"><ele>119.0</ele><time>2026-04-12T06:32:17.998Z</time></trkpt><trkpt lat="45.60797678151881" lon="10.857097887844414"><ele>119.0</ele><time>2026-04-12T06:32:18.998Z</time></trkpt><trkpt lat="45.608181554040584" lon="10.857191220331682"><ele>117.66666666666666</ele><time>2026-04-12T06:32:19.998Z</time></trkpt><trkpt lat="45.608393859018435" lon="10.857243824957719"><ele>116.33333333333334</ele><time>2026-04-12T06:32:20.998Z</time></trkpt><trkpt lat="45.608597479777416" lon="10.857317506762044"><ele>115.0</ele><time>2026-04-12T06:32:21.998Z</time></trkpt><trkpt lat="45.608782321198774" lon="10.857382017371215"><ele>115.0</ele><time>2026-04-12T06:32:22.998Z</time></trkpt><trkpt lat="45.6089469418126" lon="10.857479843964501"><ele>115.0</ele><time>2026-04-12T06:32:23.998Z</time></trkpt><trkpt lat="45.60911317534658" lon="10.857583941228771"><ele>115.0</ele><time>2026-04-12T06:32:24.998Z</time></trkpt><trkpt lat="45.60927855870944" lon="10.857722652351292"><ele>116.66666666666667</ele><time>2026-04-12T06:32:25.998Z</time></trkpt><trkpt lat="45.609440022598946" lon="10.857896894702705"><ele>118.33333333333334</ele><time>2026-04-12T06:32:26.998Z</time></trkpt><trkpt lat="45.60960225162492" lon="10.858095015084528"><ele>120.0</ele><time>2026-04-12T06:32:27.998Z</time></trkpt><trkpt lat="45.60977420319738" lon="10.858284558653786"><ele>123.33333333333334</ele><time>2026-04-12T06:32:28.998Z</time></trkpt><trkpt lat="45.609946401026605" lon="10.85847915533199"><ele>126.66666666666667</ele><time>2026-04-12T06:32:29.998Z</time></trkpt><trkpt lat="45.610129434355024" lon="10.858649890554119"><ele>130.0</ele><time>2026-04-12T06:32:30.998Z</time></trkpt><trkpt lat="45.610314292469326" lon="10.858820366160606"><ele>125.66666666666667</ele><time>2026-04-12T06:32:31.998Z</time></trkpt><trkpt lat="45.610497081418785" lon="10.858981547540292"><ele>121.33333333333334</ele><time>2026-04-12T06:32:32.998Z</time></trkpt><trkpt lat="45.61067851246199" lon="10.859138904269294"><ele>117.0</ele><time>2026-04-12T06:32:33.998Z</time></trkpt><trkpt lat="45.61085319440313" lon="10.859276566424727"><ele>117.0</ele><time>2026-04-12T06:32:34.998Z</time></trkpt><trkpt lat="45.61101556154279" lon="10.859389397080946"><ele>117.0</ele><time>2026-04-12T06:32:35.998Z</time></trkpt><trkpt lat="45.61117251827987" lon="10.859503331600642"><ele>117.0</ele><time>2026-04-12T06:32:36.998Z</time></trkpt><trkpt lat="45.61133060860284" lon="10.859637386676386"><ele>117.0</ele><time>2026-04-12T06:32:37.998Z</time></trkpt><trkpt lat="45.61148265621458" lon="10.859788485066273"><ele>117.0</ele><time>2026-04-12T06:32:38.998Z</time></trkpt><trkpt lat="45.61163152694211" lon="10.85995228294865"><ele>117.0</ele><time>2026-04-12T06:32:39.998Z</time></trkpt><trkpt lat="45.611785998441235" lon="10.86011566073616"><ele>119.33333333333334</ele><time>2026-04-12T06:32:40.998Z</time></trkpt><trkpt lat="45.611944149993214" lon="10.86027113614195"><ele>121.66666666666667</ele><time>2026-04-12T06:32:41.998Z</time></trkpt><trkpt lat="45.61210963524337" lon="10.860418379180434"><ele>124.0</ele><time>2026-04-12T06:32:42.998Z</time></trkpt><trkpt lat="45.61228095892784" lon="10.860556766363114"><ele>124.0</ele><time>2026-04-12T06:32:43.998Z</time></trkpt><trkpt lat="45.61246853985109" lon="10.860681208761394"><ele>124.0</ele><time>2026-04-12T06:32:44.998Z</time></trkpt><trkpt lat="45.61265758591224" lon="10.860802628694934"><ele>124.0</ele><time>2026-04-12T06:32:45.998Z</time></trkpt><trkpt lat="45.61284600137774" lon="10.860923173679677"><ele>125.66666666666667</ele><time>2026-04-12T06:32:46.998Z</time></trkpt><trkpt lat="45.613037971261356" lon="10.861049433317769"><ele>127.33333333333334</ele><time>2026-04-12T06:32:47.998Z</time></trkpt><trkpt lat="45.61322859884862" lon="10.861184080884113"><ele>129.0</ele><time>2026-04-12T06:32:48.998Z</time></trkpt><trkpt lat="45.61340924041458" lon="10.861323956239275"><ele>129.0</ele><time>2026-04-12T06:32:50Z</time></trkpt><trkpt lat="45.61357627632913" lon="10.86146548809267"><ele>129.0</ele><time>2026-04-12T06:32:51Z</time></trkpt><trkpt lat="45.61374640890289" lon="10.861606300296875"><ele>129.0</ele><time>2026-04-12T06:32:52Z</time></trkpt><trkpt lat="45.61392492627337" lon="10.861736737751754"><ele>129.33333333333334</ele><time>2026-04-12T06:32:53Z</time></trkpt><trkpt lat="45.61412383186816" lon="10.861822960220378"><ele>129.66666666666669</ele><time>2026-04-12T06:32:54Z</time></trkpt><trkpt lat="45.6143166445089" lon="10.861943283278292"><ele>130.0</ele><time>2026-04-12T06:32:55Z</time></trkpt><trkpt lat="45.6145194442932" lon="10.862044978005384"><ele>128.0</ele><time>2026-04-12T06:32:56Z</time></trkpt><trkpt lat="45.61474906849755" lon="10.862036732946933"><ele>126.0</ele><time>2026-04-12T06:32:57Z</time></trkpt><trkpt lat="45.61495042294041" lon="10.862149047497283"><ele>124.0</ele><time>2026-04-12T06:32:58Z</time></trkpt><trkpt lat="45.61515244865889" lon="10.862281378608934"><ele>125.0</ele><time>2026-04-12T06:32:59Z</time></trkpt><trkpt lat="45.615347582714" lon="10.86244183965581"><ele>126.0</ele><time>2026-04-12T06:33:00Z</time></trkpt><trkpt lat="45.615538372628585" lon="10.862620171801307"><ele>126.0</ele><time>2026-04-12T06:33:01Z</time></trkpt><trkpt lat="45.61572564683136" lon="10.862800930637334"><ele>126.0</ele><time>2026-04-12T06:33:02Z</time></trkpt><trkpt lat="45.61591158953243" lon="10.8629632458998"><ele>126.0</ele><time>2026-04-12T06:33:03Z</time></trkpt><trkpt lat="45.61610351072238" lon="10.863089232899712"><ele>124.33333333333334</ele><time>2026-04-12T06:33:04Z</time></trkpt><trkpt lat="45.61630548918485" lon="10.863183622805803"><ele>122.66666666666667</ele><time>2026-04-12T06:33:05Z</time></trkpt><trkpt lat="45.61651383622842" lon="10.863255396927642"><ele>121.0</ele><time>2026-04-12T06:33:06Z</time></trkpt><trkpt lat="45.61671896706323" lon="10.863352693998607"><ele>122.33333333333334</ele><time>2026-04-12T06:33:07Z</time></trkpt><trkpt lat="45.61691706892457" lon="10.863474471735968"><ele>123.66666666666666</ele><time>2026-04-12T06:33:08Z</time></trkpt><trkpt lat="45.61710879196181" lon="10.8636108295789"><ele>125.0</ele><time>2026-04-12T06:33:09Z</time></trkpt><trkpt lat="45.61729287736706" lon="10.863747725565284"><ele>125.0</ele><time>2026-04-12T06:33:10Z</time></trkpt><trkpt lat="45.617464834845386" lon="10.863880501479928"><ele>125.0</ele><time>2026-04-12T06:33:11Z</time></trkpt><trkpt lat="45.617626641239305" lon="10.86400725632235"><ele>125.0</ele><time>2026-04-12T06:33:12Z</time></trkpt><trkpt lat="45.61778086702904" lon="10.86412775295207"><ele>126.0</ele><time>2026-04-12T06:33:13Z</time></trkpt><trkpt lat="45.617932231887394" lon="10.864236696764497"><ele>127.0</ele><time>2026-04-12T06:33:14Z</time></trkpt><trkpt lat="45.61808601472097" lon="10.864345389533115"><ele>128.0</ele><time>2026-04-12T06:33:15Z</time></trkpt><trkpt lat="45.61824903082548" lon="10.86446266656804"><ele>128.0</ele><time>2026-04-12T06:33:16Z</time></trkpt><trkpt lat="45.61840374397209" lon="10.86459356440719"><ele>128.0</ele><time>2026-04-12T06:33:17Z</time></trkpt><trkpt lat="45.618556163118285" lon="10.864714210365726"><ele>128.0</ele><time>2026-04-12T06:33:18Z</time></trkpt><trkpt lat="45.61870247748765" lon="10.864818377967424"><ele>128.33333333333331</ele><time>2026-04-12T06:33:19Z</time></trkpt><trkpt lat="45.61883986203961" lon="10.86493549467284"><ele>128.66666666666666</ele><time>2026-04-12T06:33:20Z</time></trkpt><trkpt lat="45.618966267748995" lon="10.865100145911171"><ele>129.0</ele><time>2026-04-12T06:33:21Z</time></trkpt><trkpt lat="45.6190839704642" lon="10.865300924999062"><ele>129.0</ele><time>2026-04-12T06:33:22Z</time></trkpt><trkpt lat="45.61919340236412" lon="10.86551892311228"><ele>129.0</ele><time>2026-04-12T06:33:23Z</time></trkpt><trkpt lat="45.61932165608856" lon="10.865731798910423"><ele>129.0</ele><time>2026-04-12T06:33:24Z</time></trkpt><trkpt lat="45.619444847239485" lon="10.86594637726837"><ele>126.66666666666666</ele><time>2026-04-12T06:33:25Z</time></trkpt><trkpt lat="45.6195769657421" lon="10.866151646265966"><ele>124.33333333333333</ele><time>2026-04-12T06:33:26Z</time></trkpt><trkpt lat="45.6196959558184" lon="10.866359107325593"><ele>122.0</ele><time>2026-04-12T06:33:27Z</time></trkpt><trkpt lat="45.619823472186624" lon="10.866562726594134"><ele>122.0</ele><time>2026-04-12T06:33:28Z</time></trkpt><trkpt lat="45.619961842535204" lon="10.866752044019895"><ele>122.0</ele><time>2026-04-12T06:33:29Z</time></trkpt><trkpt lat="45.620088569439254" lon="10.86693241157242"><ele>122.0</ele><time>2026-04-12T06:33:29.999Z</time></trkpt><trkpt lat="45.620217664653545" lon="10.867122214529743"><ele>121.0</ele><time>2026-04-12T06:33:30.999Z</time></trkpt><trkpt lat="45.620350607127804" lon="10.867311552083729"><ele>120.0</ele><time>2026-04-12T06:33:31.999Z</time></trkpt><trkpt lat="45.62049264304375" lon="10.86750570277781"><ele>119.0</ele><time>2026-04-12T06:33:32.999Z</time></trkpt><trkpt lat="45.620637894807665" lon="10.867696312739502"><ele>124.33333333333333</ele><time>2026-04-12T06:33:33.999Z</time></trkpt><trkpt lat="45.6207882225619" lon="10.86788933802972"><ele>129.66666666666666</ele><time>2026-04-12T06:33:34.999Z</time></trkpt><trkpt lat="45.62095500128267" lon="10.868076843843083"><ele>135.0</ele><time>2026-04-12T06:33:35.999Z</time></trkpt><trkpt lat="45.62113263257866" lon="10.868252622835534"><ele>135.0</ele><time>2026-04-12T06:33:36.999Z</time></trkpt><trkpt lat="45.621310486948325" lon="10.868422490064718"><ele>135.0</ele><time>2026-04-12T06:33:37.999Z</time></trkpt><trkpt lat="45.6215073091891" lon="10.868585206124228"><ele>135.0</ele><time>2026-04-12T06:33:38.999Z</time></trkpt><trkpt lat="45.62169924349642" lon="10.868755681815603"><ele>135.0</ele><time>2026-04-12T06:33:39.999Z</time></trkpt><trkpt lat="45.62188969572576" lon="10.868930597606711"><ele>135.0</ele><time>2026-04-12T06:33:40.999Z</time></trkpt><trkpt lat="45.62207578187875" lon="10.869109785353125"><ele>134.66666666666666</ele><time>2026-04-12T06:33:41.999Z</time></trkpt><trkpt lat="45.622259858038426" lon="10.86928724806684"><ele>134.33333333333331</ele><time>2026-04-12T06:33:42.999Z</time></trkpt><trkpt lat="45.62243820090263" lon="10.869462294711841"><ele>134.0</ele><time>2026-04-12T06:33:43.999Z</time></trkpt><trkpt lat="45.622617236393424" lon="10.869634167149686"><ele>134.0</ele><time>2026-04-12T06:33:44.999Z</time></trkpt><trkpt lat="45.62279811753348" lon="10.869808753967494"><ele>134.0</ele><time>2026-04-12T06:33:45.999Z</time></trkpt><trkpt lat="45.62297698415134" lon="10.869989129956613"><ele>134.0</ele><time>2026-04-12T06:33:46.999Z</time></trkpt><trkpt lat="45.62315242605201" lon="10.870173651979533"><ele>133.33333333333331</ele><time>2026-04-12T06:33:47.999Z</time></trkpt><trkpt lat="45.623324257867935" lon="10.8703693654557"><ele>132.66666666666666</ele><time>2026-04-12T06:33:48.999Z</time></trkpt><trkpt lat="45.623493880925494" lon="10.870563162739861"><ele>132.0</ele><time>2026-04-12T06:33:49.999Z</time></trkpt><trkpt lat="45.62365832111891" lon="10.87076714693261"><ele>132.0</ele><time>2026-04-12T06:33:50.999Z</time></trkpt><trkpt lat="45.62382616895956" lon="10.87097670902622"><ele>132.0</ele><time>2026-04-12T06:33:51.999Z</time></trkpt><trkpt lat="45.62399220985438" lon="10.871188839319833"><ele>132.0</ele><time>2026-04-12T06:33:52.999Z</time></trkpt><trkpt lat="45.62416335001369" lon="10.871394305813546"><ele>132.0</ele><time>2026-04-12T06:33:53.999Z</time></trkpt><trkpt lat="45.62433963713045" lon="10.871585786729572"><ele>132.0</ele><time>2026-04-12T06:33:54.999Z</time></trkpt><trkpt lat="45.6245255842629" lon="10.871765779490413"><ele>132.0</ele><time>2026-04-12T06:33:55.999Z</time></trkpt><trkpt lat="45.62471541927517" lon="10.871939736765619"><ele>130.0</ele><time>2026-04-12T06:33:56.999Z</time></trkpt><trkpt lat="45.62491096080333" lon="10.872102319189631"><ele>128.0</ele><time>2026-04-12T06:33:57.999Z</time></trkpt><trkpt lat="45.62510526869468" lon="10.872265937839252"><ele>128.0</ele><time>2026-04-12T06:33:58.999Z</time></trkpt><trkpt lat="45.6252938774264" lon="10.87242290484929"><ele>128.0</ele><time>2026-04-12T06:33:59.999Z</time></trkpt><trkpt lat="45.625476906081495" lon="10.872575151686304"><ele>128.0</ele><time>2026-04-12T06:34:00.999Z</time></trkpt><trkpt lat="45.62565575016436" lon="10.872723288982867"><ele>129.33333333333331</ele><time>2026-04-12T06:34:01.999Z</time></trkpt><trkpt lat="45.62583902513347" lon="10.87287636102846"><ele>130.66666666666666</ele><time>2026-04-12T06:34:02.999Z</time></trkpt><trkpt lat="45.626019423484934" lon="10.873030438918748"><ele>132.0</ele><time>2026-04-12T06:34:03.999Z</time></trkpt><trkpt lat="45.626196575951475" lon="10.873178662489181"><ele>131.66666666666666</ele><time>2026-04-12T06:34:04.999Z</time></trkpt><trkpt lat="45.62636857180113" lon="10.873325851883042"><ele>131.33333333333331</ele><time>2026-04-12T06:34:05.999Z</time></trkpt><trkpt lat="45.62653078397276" lon="10.873461114307219"><ele>131.0</ele><time>2026-04-12T06:34:06.999Z</time></trkpt><trkpt lat="45.62669398922268" lon="10.873608024307234"><ele>131.0</ele><time>2026-04-12T06:34:07.999Z</time></trkpt><trkpt lat="45.626853181872065" lon="10.873765902000144"><ele>131.0</ele><time>2026-04-12T06:34:08.999Z</time></trkpt><trkpt lat="45.62701431901799" lon="10.873930495855781"><ele>131.0</ele><time>2026-04-12T06:34:09.999Z</time></trkpt><trkpt lat="45.62716693581152" lon="10.874103437921168"><ele>130.33333333333331</ele><time>2026-04-12T06:34:10.999Z</time></trkpt><trkpt lat="45.62731439592466" lon="10.874289774028803"><ele>129.66666666666666</ele><time>2026-04-12T06:34:11.999Z</time></trkpt><trkpt lat="45.62745685425387" lon="10.874489115329089"><ele>129.0</ele><time>2026-04-12T06:34:12.999Z</time></trkpt><trkpt lat="45.62759794529963" lon="10.874697210315558"><ele>129.0</ele><time>2026-04-12T06:34:13.999Z</time></trkpt><trkpt lat="45.62773229550271" lon="10.874913656780835"><ele>129.0</ele><time>2026-04-12T06:34:14.999Z</time></trkpt><trkpt lat="45.62786469762287" lon="10.875137410907012"><ele>129.0</ele><time>2026-04-12T06:34:15.999Z</time></trkpt><trkpt lat="45.62799406313275" lon="10.875364081076393"><ele>130.0</ele><time>2026-04-12T06:34:16.999Z</time></trkpt><trkpt lat="45.62813215280286" lon="10.87559007968679"><ele>131.0</ele><time>2026-04-12T06:34:17.999Z</time></trkpt><trkpt lat="45.62826925926333" lon="10.87582216132468"><ele>132.0</ele><time>2026-04-12T06:34:18.999Z</time></trkpt><trkpt lat="45.628399189017166" lon="10.876043918946165"><ele>132.0</ele><time>2026-04-12T06:34:19.999Z</time></trkpt><trkpt lat="45.62853206257876" lon="10.87626320347405"><ele>132.0</ele><time>2026-04-12T06:34:20.999Z</time></trkpt><trkpt lat="45.62866771214263" lon="10.876475196782112"><ele>132.0</ele><time>2026-04-12T06:34:21.998Z</time></trkpt><trkpt lat="45.628809783419904" lon="10.876686844893916"><ele>135.66666666666666</ele><time>2026-04-12T06:34:22.998Z</time></trkpt><trkpt lat="45.62895985764066" lon="10.876890206251323"><ele>139.33333333333331</ele><time>2026-04-12T06:34:23.998Z</time></trkpt><trkpt lat="45.62911580049577" lon="10.877090151671402"><ele>143.0</ele><time>2026-04-12T06:34:24.998Z</time></trkpt><trkpt lat="45.62927948455887" lon="10.87728584812164"><ele>143.0</ele><time>2026-04-12T06:34:25.998Z</time></trkpt><trkpt lat="45.62944611658913" lon="10.877472321165202"><ele>143.0</ele><time>2026-04-12T06:34:26.998Z</time></trkpt><trkpt lat="45.62961639600046" lon="10.8776577450473"><ele>143.0</ele><time>2026-04-12T06:34:27.998Z</time></trkpt><trkpt lat="45.62978939506175" lon="10.877833181750214"><ele>143.66666666666666</ele><time>2026-04-12T06:34:28.998Z</time></trkpt><trkpt lat="45.6299668064969" lon="10.877998174751523"><ele>144.33333333333334</ele><time>2026-04-12T06:34:29.998Z</time></trkpt><trkpt lat="45.630148239249884" lon="10.878153307754843"><ele>145.0</ele><time>2026-04-12T06:34:30.998Z</time></trkpt><trkpt lat="45.630330685160246" lon="10.87830710431533"><ele>145.66666666666669</ele><time>2026-04-12T06:34:31.998Z</time></trkpt><trkpt lat="45.630516875840506" lon="10.878461189735058"><ele>146.33333333333334</ele><time>2026-04-12T06:34:32.998Z</time></trkpt><trkpt lat="45.630701020986756" lon="10.878612622496052"><ele>147.0</ele><time>2026-04-12T06:34:33.998Z</time></trkpt><trkpt lat="45.63088390807959" lon="10.878773682925507"><ele>147.0</ele><time>2026-04-12T06:34:34.998Z</time></trkpt><trkpt lat="45.6310656202843" lon="10.878934823636522"><ele>147.0</ele><time>2026-04-12T06:34:35.998Z</time></trkpt><trkpt lat="45.631244108169476" lon="10.879096385639754"><ele>147.0</ele><time>2026-04-12T06:34:36.998Z</time></trkpt><trkpt lat="45.63142894722082" lon="10.879251413666532"><ele>149.0</ele><time>2026-04-12T06:34:37.998Z</time></trkpt><trkpt lat="45.63161631473436" lon="10.879394314065292"><ele>151.0</ele><time>2026-04-12T06:34:38.998Z</time></trkpt><trkpt lat="45.631811489081116" lon="10.87952704741122"><ele>153.0</ele><time>2026-04-12T06:34:39.998Z</time></trkpt><trkpt lat="45.63200829315926" lon="10.879640784499006"><ele>145.0</ele><time>2026-04-12T06:34:40.998Z</time></trkpt><trkpt lat="45.632211785996795" lon="10.87973634707441"><ele>137.0</ele><time>2026-04-12T06:34:41.998Z</time></trkpt><trkpt lat="45.63241838192095" lon="10.879823457077016"><ele>129.0</ele><time>2026-04-12T06:34:42.998Z</time></trkpt><trkpt lat="45.63262859817818" lon="10.879893806280126"><ele>127.66666666666666</ele><time>2026-04-12T06:34:43.998Z</time></trkpt><trkpt lat="45.63284621744305" lon="10.87994626147746"><ele>126.33333333333333</ele><time>2026-04-12T06:34:44.998Z</time></trkpt><trkpt lat="45.63306521847267" lon="10.879991428211028"><ele>125.0</ele><time>2026-04-12T06:34:45.998Z</time></trkpt><trkpt lat="45.63328473192283" lon="10.880038614054543"><ele>125.0</ele><time>2026-04-12T06:34:46.998Z</time></trkpt><trkpt lat="45.63350420559474" lon="10.880095771760613"><ele>125.0</ele><time>2026-04-12T06:34:47.998Z</time></trkpt><trkpt lat="45.63372318503261" lon="10.880171780339179"><ele>125.0</ele><time>2026-04-12T06:34:48.998Z</time></trkpt><trkpt lat="45.633940160866" lon="10.88027239252699"><ele>126.5</ele><time>2026-04-12T06:34:49.998Z</time></trkpt><trkpt lat="45.634148898743184" lon="10.880400610536167"><ele>128.0</ele><time>2026-04-12T06:34:50.998Z</time></trkpt><trkpt lat="45.63434762871235" lon="10.880546684401905"><ele>128.66666666666666</ele><time>2026-04-12T06:34:51.998Z</time></trkpt><trkpt lat="45.63453685750574" lon="10.88072039541336"><ele>129.33333333333334</ele><time>2026-04-12T06:34:52.998Z</time></trkpt><trkpt lat="45.634714785609276" lon="10.880907140785936"><ele>130.0</ele><time>2026-04-12T06:34:53.998Z</time></trkpt><trkpt lat="45.63487535979054" lon="10.881112068657835"><ele>130.0</ele><time>2026-04-12T06:34:54.998Z</time></trkpt><trkpt lat="45.63499237454388" lon="10.881346272390717"><ele>130.0</ele><time>2026-04-12T06:34:56Z</time></trkpt><trkpt lat="45.63509679568645" lon="10.881597933822672"><ele>130.0</ele><time>2026-04-12T06:34:57Z</time></trkpt><trkpt lat="45.63520464778727" lon="10.881869338544316"><ele>129.0</ele><time>2026-04-12T06:34:58Z</time></trkpt><trkpt lat="45.63531580347945" lon="10.882147971010735"><ele>128.0</ele><time>2026-04-12T06:34:59Z</time></trkpt><trkpt lat="45.63543080636079" lon="10.882431570234191"><ele>129.0</ele><time>2026-04-12T06:35:00Z</time></trkpt><trkpt lat="45.63555905371971" lon="10.882696354077465"><ele>130.0</ele><time>2026-04-12T06:35:01Z</time></trkpt><trkpt lat="45.63568462815939" lon="10.882930834877808"><ele>131.0</ele><time>2026-04-12T06:35:02Z</time></trkpt><trkpt lat="45.635811453712044" lon="10.883162491643391"><ele>131.0</ele><time>2026-04-12T06:35:03Z</time></trkpt><trkpt lat="45.63593933827404" lon="10.883391710650587"><ele>131.0</ele><time>2026-04-12T06:35:04Z</time></trkpt><trkpt lat="45.63606052074743" lon="10.883604887177572"><ele>131.0</ele><time>2026-04-12T06:35:05Z</time></trkpt><trkpt lat="45.63618356726374" lon="10.883799775382512"><ele>131.66666666666666</ele><time>2026-04-12T06:35:06Z</time></trkpt><trkpt lat="45.63631561436289" lon="10.88397899877196"><ele>132.33333333333334</ele><time>2026-04-12T06:35:07Z</time></trkpt><trkpt lat="45.63646726498443" lon="10.884134228327719"><ele>133.0</ele><time>2026-04-12T06:35:08Z</time></trkpt><trkpt lat="45.636632201626774" lon="10.88428175665472"><ele>132.66666666666669</ele><time>2026-04-12T06:35:09Z</time></trkpt><trkpt lat="45.636813530108256" lon="10.884418405237888"><ele>132.33333333333334</ele><time>2026-04-12T06:35:10Z</time></trkpt><trkpt lat="45.63699348541191" lon="10.884568422648224"><ele>132.0</ele><time>2026-04-12T06:35:11Z</time></trkpt><trkpt lat="45.637168290863436" lon="10.884748217030085"><ele>132.0</ele><time>2026-04-12T06:35:12Z</time></trkpt><trkpt lat="45.637330214194236" lon="10.884960615784223"><ele>132.0</ele><time>2026-04-12T06:35:13Z</time></trkpt><trkpt lat="45.637484977466144" lon="10.885186137539609"><ele>132.0</ele><time>2026-04-12T06:35:14Z</time></trkpt><trkpt lat="45.63763954334412" lon="10.885420097170888"><ele>131.33333333333334</ele><time>2026-04-12T06:35:15Z</time></trkpt><trkpt lat="45.63779495772319" lon="10.885642637627626"><ele>130.66666666666669</ele><time>2026-04-12T06:35:16Z</time></trkpt><trkpt lat="45.63793852801777" lon="10.885856578515943"><ele>130.0</ele><time>2026-04-12T06:35:17Z</time></trkpt><trkpt lat="45.63808832263859" lon="10.886025188953226"><ele>129.66666666666669</ele><time>2026-04-12T06:35:18Z</time></trkpt><trkpt lat="45.63825171173918" lon="10.886178349807022"><ele>129.33333333333334</ele><time>2026-04-12T06:35:19Z</time></trkpt><trkpt lat="45.638451669903134" lon="10.886308906938414"><ele>129.0</ele><time>2026-04-12T06:35:20Z</time></trkpt><trkpt lat="45.63865357036111" lon="10.886437698317522"><ele>129.0</ele><time>2026-04-12T06:35:21Z</time></trkpt><trkpt lat="45.638839524013946" lon="10.88659699275173"><ele>129.0</ele><time>2026-04-12T06:35:22Z</time></trkpt><trkpt lat="45.638999075719084" lon="10.886788610703785"><ele>129.0</ele><time>2026-04-12T06:35:23Z</time></trkpt><trkpt lat="45.63913181456262" lon="10.887008256358891"><ele>132.0</ele><time>2026-04-12T06:35:24Z</time></trkpt><trkpt lat="45.63924342140721" lon="10.887258207748514"><ele>135.0</ele><time>2026-04-12T06:35:25Z</time></trkpt><trkpt lat="45.63933080171655" lon="10.887524636067623"><ele>138.0</ele><time>2026-04-12T06:35:26Z</time></trkpt><trkpt lat="45.63940953340783" lon="10.887786298785231"><ele>139.33333333333334</ele><time>2026-04-12T06:35:27Z</time></trkpt><trkpt lat="45.63949650917024" lon="10.888035474838063"><ele>140.66666666666669</ele><time>2026-04-12T06:35:28Z</time></trkpt><trkpt lat="45.639595797189045" lon="10.888266676542305"><ele>142.0</ele><time>2026-04-12T06:35:29Z</time></trkpt><trkpt lat="45.639708096622996" lon="10.888480613860759"><ele>142.0</ele><time>2026-04-12T06:35:30Z</time></trkpt><trkpt lat="45.63984883545639" lon="10.88867320735027"><ele>142.0</ele><time>2026-04-12T06:35:31Z</time></trkpt><trkpt lat="45.64000087305485" lon="10.888832286556521"><ele>142.0</ele><time>2026-04-12T06:35:32Z</time></trkpt><trkpt lat="45.64017117103102" lon="10.888963225598882"><ele>142.33333333333334</ele><time>2026-04-12T06:35:33Z</time></trkpt><trkpt lat="45.64034835760654" lon="10.889087284640018"><ele>142.66666666666666</ele><time>2026-04-12T06:35:34Z</time></trkpt><trkpt lat="45.64050578894159" lon="10.889216545069297"><ele>143.0</ele><time>2026-04-12T06:35:35Z</time></trkpt><trkpt lat="45.64064851754158" lon="10.889344565202677"><ele>143.0</ele><time>2026-04-12T06:35:36Z</time></trkpt><trkpt lat="45.640794717825074" lon="10.889477207036347"><ele>143.0</ele><time>2026-04-12T06:35:37Z</time></trkpt><trkpt lat="45.64095045580718" lon="10.889605274442253"><ele>143.0</ele><time>2026-04-12T06:35:37.999Z</time></trkpt><trkpt lat="45.64111684527445" lon="10.889719596261918"><ele>141.66666666666666</ele><time>2026-04-12T06:35:38.999Z</time></trkpt><trkpt lat="45.64128641524528" lon="10.88980319998084"><ele>140.33333333333334</ele><time>2026-04-12T06:35:39.999Z</time></trkpt><trkpt lat="45.64146518028269" lon="10.889851498035284"><ele>139.0</ele><time>2026-04-12T06:35:40.999Z</time></trkpt><trkpt lat="45.641647872515726" lon="10.889897475329619"><ele>139.0</ele><time>2026-04-12T06:35:41.999Z</time></trkpt><trkpt lat="45.64184439209599" lon="10.889923610748552"><ele>139.0</ele><time>2026-04-12T06:35:42.999Z</time></trkpt><trkpt lat="45.64204079153903" lon="10.88993842205349"><ele>139.0</ele><time>2026-04-12T06:35:43.999Z</time></trkpt><trkpt lat="45.64224407011314" lon="10.889952397486427"><ele>138.66666666666669</ele><time>2026-04-12T06:35:44.999Z</time></trkpt><trkpt lat="45.642441701247954" lon="10.889977170780453"><ele>138.33333333333334</ele><time>2026-04-12T06:35:45.999Z</time></trkpt><trkpt lat="45.64264963035773" lon="10.889997790633718"><ele>138.0</ele><time>2026-04-12T06:35:46.999Z</time></trkpt><trkpt lat="45.642853079502814" lon="10.89003098798783"><ele>138.33333333333334</ele><time>2026-04-12T06:35:47.999Z</time></trkpt><trkpt lat="45.64306142020069" lon="10.890081263242662"><ele>138.66666666666669</ele><time>2026-04-12T06:35:48.999Z</time></trkpt><trkpt lat="45.643269581326116" lon="10.890168135027544"><ele>139.0</ele><time>2026-04-12T06:35:49.999Z</time></trkpt><trkpt lat="45.643472631078986" lon="10.890277740697421"><ele>136.33333333333334</ele><time>2026-04-12T06:35:50.999Z</time></trkpt><trkpt lat="45.64366801027207" lon="10.890412081601486"><ele>133.66666666666666</ele><time>2026-04-12T06:35:51.999Z</time></trkpt><trkpt lat="45.6438507576152" lon="10.89058125776433"><ele>131.0</ele><time>2026-04-12T06:35:52.999Z</time></trkpt><trkpt lat="45.64402706403036" lon="10.890776626114151"><ele>130.0</ele><time>2026-04-12T06:35:53.999Z</time></trkpt><trkpt lat="45.64419614169529" lon="10.890984273051053"><ele>129.0</ele><time>2026-04-12T06:35:54.999Z</time></trkpt><trkpt lat="45.64436186530048" lon="10.891193663682621"><ele>128.0</ele><time>2026-04-12T06:35:55.999Z</time></trkpt><trkpt lat="45.644521425620816" lon="10.891401472172042"><ele>128.0</ele><time>2026-04-12T06:35:56.999Z</time></trkpt><trkpt lat="45.64467132957595" lon="10.891617279438215"><ele>128.0</ele><time>2026-04-12T06:35:57.999Z</time></trkpt><trkpt lat="45.644809764405025" lon="10.891848124104284"><ele>128.0</ele><time>2026-04-12T06:35:58.999Z</time></trkpt><trkpt lat="45.644922217839735" lon="10.892097227993913"><ele>129.33333333333331</ele><time>2026-04-12T06:35:59.999Z</time></trkpt><trkpt lat="45.64502835304736" lon="10.89235927481682"><ele>130.66666666666666</ele><time>2026-04-12T06:36:00.999Z</time></trkpt><trkpt lat="45.645128259278934" lon="10.89263488781722"><ele>132.0</ele><time>2026-04-12T06:36:01.999Z</time></trkpt><trkpt lat="45.645226627012676" lon="10.892916492477626"><ele>130.33333333333334</ele><time>2026-04-12T06:36:02.999Z</time></trkpt><trkpt lat="45.64532787918666" lon="10.893200466234095"><ele>128.66666666666669</ele><time>2026-04-12T06:36:03.999Z</time></trkpt><trkpt lat="45.645431470050774" lon="10.893483164723083"><ele>127.0</ele><time>2026-04-12T06:36:04.999Z</time></trkpt><trkpt lat="45.645540780236075" lon="10.893768235340726"><ele>127.0</ele><time>2026-04-12T06:36:05.999Z</time></trkpt><trkpt lat="45.64564976202526" lon="10.89403938976452"><ele>127.0</ele><time>2026-04-12T06:36:06.999Z</time></trkpt><trkpt lat="45.645768686323095" lon="10.894305414295353"><ele>127.0</ele><time>2026-04-12T06:36:07.999Z</time></trkpt><trkpt lat="45.645896626913384" lon="10.894564337389884"><ele>128.33333333333334</ele><time>2026-04-12T06:36:08.999Z</time></trkpt><trkpt lat="45.64603600109212" lon="10.894819339936483"><ele>129.66666666666666</ele><time>2026-04-12T06:36:09.999Z</time></trkpt><trkpt lat="45.64617455554976" lon="10.895062878363316"><ele>131.0</ele><time>2026-04-12T06:36:10.999Z</time></trkpt><trkpt lat="45.64632070124641" lon="10.895294505932075"><ele>131.0</ele><time>2026-04-12T06:36:11.999Z</time></trkpt><trkpt lat="45.64648062892354" lon="10.895509665509259"><ele>131.0</ele><time>2026-04-12T06:36:12.999Z</time></trkpt><trkpt lat="45.64664072363704" lon="10.895711590644778"><ele>131.0</ele><time>2026-04-12T06:36:13.999Z</time></trkpt><trkpt lat="45.6468073434461" lon="10.89590020562073"><ele>131.66666666666666</ele><time>2026-04-12T06:36:14.999Z</time></trkpt><trkpt lat="45.64698141677973" lon="10.89607852157131"><ele>132.33333333333334</ele><time>2026-04-12T06:36:15.999Z</time></trkpt><trkpt lat="45.647159428507386" lon="10.89624988070805"><ele>133.0</ele><time>2026-04-12T06:36:16.999Z</time></trkpt><trkpt lat="45.647340902484444" lon="10.896418160538913"><ele>133.0</ele><time>2026-04-12T06:36:17.999Z</time></trkpt><trkpt lat="45.647525848296645" lon="10.896582576342713"><ele>133.0</ele><time>2026-04-12T06:36:18.999Z</time></trkpt><trkpt lat="45.647709163114506" lon="10.896748015654637"><ele>133.0</ele><time>2026-04-12T06:36:19.999Z</time></trkpt><trkpt lat="45.64789515407092" lon="10.89690587952977"><ele>133.66666666666669</ele><time>2026-04-12T06:36:20.999Z</time></trkpt><trkpt lat="45.64809235887056" lon="10.897064549734594"><ele>134.33333333333334</ele><time>2026-04-12T06:36:21.999Z</time></trkpt><trkpt lat="45.64828918174958" lon="10.897212604275506"><ele>135.0</ele><time>2026-04-12T06:36:22.999Z</time></trkpt><trkpt lat="45.648490441921865" lon="10.897356988390406"><ele>137.33333333333334</ele><time>2026-04-12T06:36:23.999Z</time></trkpt><trkpt lat="45.64868978164661" lon="10.897498001050598"><ele>139.66666666666669</ele><time>2026-04-12T06:36:24.999Z</time></trkpt><trkpt lat="45.64888634496899" lon="10.897617405103286"><ele>142.0</ele><time>2026-04-12T06:36:25.999Z</time></trkpt><trkpt lat="45.649072822364204" lon="10.897728259062347"><ele>142.0</ele><time>2026-04-12T06:36:26.999Z</time></trkpt><trkpt lat="45.64924769599836" lon="10.897833042126846"><ele>142.0</ele><time>2026-04-12T06:36:27.999Z</time></trkpt><trkpt lat="45.649430480607116" lon="10.897939850862437"><ele>142.0</ele><time>2026-04-12T06:36:28.999Z</time></trkpt><trkpt lat="45.64961973567805" lon="10.898042844054821"><ele>138.0</ele><time>2026-04-12T06:36:29.998Z</time></trkpt><trkpt lat="45.649819005220444" lon="10.898156770613939"><ele>134.0</ele><time>2026-04-12T06:36:30.998Z</time></trkpt><trkpt lat="45.65002943329913" lon="10.898273356513101"><ele>130.0</ele><time>2026-04-12T06:36:31.998Z</time></trkpt><trkpt lat="45.65024739191172" lon="10.89839886401056"><ele>136.5</ele><time>2026-04-12T06:36:32.998Z</time></trkpt><trkpt lat="45.650466895426256" lon="10.898525296053496"><ele>143.0</ele><time>2026-04-12T06:36:33.998Z</time></trkpt><trkpt lat="45.650681642727555" lon="10.89864588913442"><ele>143.0</ele><time>2026-04-12T06:36:34.998Z</time></trkpt><trkpt lat="45.65088300822958" lon="10.898759099053574"><ele>143.0</ele><time>2026-04-12T06:36:35.998Z</time></trkpt><trkpt lat="45.65106598115203" lon="10.898870056371358"><ele>143.0</ele><time>2026-04-12T06:36:36.998Z</time></trkpt><trkpt lat="45.65124102111205" lon="10.898976078729337"><ele>145.33333333333331</ele><time>2026-04-12T06:36:37.998Z</time></trkpt><trkpt lat="45.65142690365467" lon="10.899105109216672"><ele>147.66666666666666</ele><time>2026-04-12T06:36:38.998Z</time></trkpt><trkpt lat="45.651597254745106" lon="10.899235775876228"><ele>150.0</ele><time>2026-04-12T06:36:39.998Z</time></trkpt><trkpt lat="45.65176015077286" lon="10.899363991607661"><ele>150.0</ele><time>2026-04-12T06:36:40.998Z</time></trkpt><trkpt lat="45.65192646294425" lon="10.899497493472337"><ele>150.0</ele><time>2026-04-12T06:36:41.998Z</time></trkpt><trkpt lat="45.65208356470116" lon="10.899634822354438"><ele>150.0</ele><time>2026-04-12T06:36:42.998Z</time></trkpt><trkpt lat="45.652238761666744" lon="10.899759343800904"><ele>153.33333333333334</ele><time>2026-04-12T06:36:43.998Z</time></trkpt><trkpt lat="45.65238358329661" lon="10.89987852746943"><ele>156.66666666666669</ele><time>2026-04-12T06:36:44.998Z</time></trkpt><trkpt lat="45.65252329641041" lon="10.899996780387736"><ele>160.0</ele><time>2026-04-12T06:36:45.998Z</time></trkpt><trkpt lat="45.65265734034592" lon="10.900109502365707"><ele>160.0</ele><time>2026-04-12T06:36:46.998Z</time></trkpt><trkpt lat="45.652786730537706" lon="10.90022590894628"><ele>160.0</ele><time>2026-04-12T06:36:47.998Z</time></trkpt><trkpt lat="45.652918348638245" lon="10.900333571573608"><ele>160.0</ele><time>2026-04-12T06:36:48.998Z</time></trkpt><trkpt lat="45.65304305185907" lon="10.900427242859516"><ele>160.0</ele><time>2026-04-12T06:36:49.998Z</time></trkpt><trkpt lat="45.65316007047195" lon="10.900514933357023"><ele>153.5</ele><time>2026-04-12T06:36:50.998Z</time></trkpt><trkpt lat="45.65327719977958" lon="10.90060139210689"><ele>147.0</ele><time>2026-04-12T06:36:51.998Z</time></trkpt><trkpt lat="45.65338392582656" lon="10.900681130035151"><ele>140.5</ele><time>2026-04-12T06:36:52.998Z</time></trkpt><trkpt lat="45.65347974105592" lon="10.90075635439764"><ele>134.0</ele><time>2026-04-12T06:36:53.998Z</time></trkpt><trkpt lat="45.653567886892205" lon="10.900826427429605"><ele>133.16666666666666</ele><time>2026-04-12T06:36:54.998Z</time></trkpt><trkpt lat="45.65365768287107" lon="10.900894521178992"><ele>132.33333333333331</ele><time>2026-04-12T06:36:55.998Z</time></trkpt><trkpt lat="45.65373635148349" lon="10.900954504462932"><ele>131.5</ele><time>2026-04-12T06:36:56.998Z</time></trkpt><trkpt lat="45.65381648494486" lon="10.901014350746097"><ele>130.66666666666666</ele><time>2026-04-12T06:36:57.998Z</time></trkpt><trkpt lat="45.65389365210151" lon="10.901068269219898"><ele>129.83333333333334</ele><time>2026-04-12T06:36:58.998Z</time></trkpt><trkpt lat="45.65395124607288" lon="10.90111051306082"><ele>129.0</ele><time>2026-04-12T06:36:59.998Z</time></trkpt><trkpt lat="45.654019301261165" lon="10.901144504311802"><ele>130.33333333333334</ele><time>2026-04-12T06:37:00.998Z</time></trkpt><trkpt lat="45.65409041835778" lon="10.901185306433483"><ele>131.66666666666666</ele><time>2026-04-12T06:37:02Z</time></trkpt><trkpt lat="45.65416833798618" lon="10.901225787567048"><ele>133.0</ele><time>2026-04-12T06:37:03Z</time></trkpt><trkpt lat="45.654254165063385" lon="10.901265172501803"><ele>134.33333333333331</ele><time>2026-04-12T06:37:04Z</time></trkpt><trkpt lat="45.654336024220676" lon="10.901294900337112"><ele>135.66666666666666</ele><time>2026-04-12T06:37:05Z</time></trkpt><trkpt lat="45.654422423436394" lon="10.901335135518778"><ele>137.0</ele><time>2026-04-12T06:37:06Z</time></trkpt><trkpt lat="45.65451326046165" lon="10.901371816231451"><ele>137.0</ele><time>2026-04-12T06:37:07Z</time></trkpt><trkpt lat="45.65460794824831" lon="10.901405289748157"><ele>137.0</ele><time>2026-04-12T06:37:08Z</time></trkpt><trkpt lat="45.65470780717401" lon="10.901442205487074"><ele>137.0</ele><time>2026-04-12T06:37:09Z</time></trkpt><trkpt lat="45.65481402080526" lon="10.901479305765035"><ele>137.0</ele><time>2026-04-12T06:37:10Z</time></trkpt><trkpt lat="45.65492182641713" lon="10.901521050201714"><ele>137.0</ele><time>2026-04-12T06:37:11Z</time></trkpt><trkpt lat="45.655038864792196" lon="10.901563366700177"><ele>137.0</ele><time>2026-04-12T06:37:12Z</time></trkpt><trkpt lat="45.65515597409527" lon="10.901607974710648"><ele>137.0</ele><time>2026-04-12T06:37:13Z</time></trkpt><trkpt lat="45.65527345709753" lon="10.901653053970033"><ele>137.0</ele><time>2026-04-12T06:37:14Z</time></trkpt><trkpt lat="45.65539213158564" lon="10.901697917130482"><ele>137.0</ele><time>2026-04-12T06:37:15Z</time></trkpt><trkpt lat="45.655512210225226" lon="10.901740015444785"><ele>138.4</ele><time>2026-04-12T06:37:16Z</time></trkpt><trkpt lat="45.65563029496461" lon="10.901784243035488"><ele>139.79999999999998</ele><time>2026-04-12T06:37:17Z</time></trkpt><trkpt lat="45.65574168587931" lon="10.901823250486455"><ele>141.2</ele><time>2026-04-12T06:37:18Z</time></trkpt><trkpt lat="45.65584614638668" lon="10.901865784932301"><ele>142.6</ele><time>2026-04-12T06:37:19Z</time></trkpt><trkpt lat="45.65594663349423" lon="10.901899469497522"><ele>144.0</ele><time>2026-04-12T06:37:20Z</time></trkpt><trkpt lat="45.656045712418134" lon="10.901934696008354"><ele>143.8</ele><time>2026-04-12T06:37:21Z</time></trkpt><trkpt lat="45.65614376000169" lon="10.901979951384208"><ele>143.60000000000002</ele><time>2026-04-12T06:37:22Z</time></trkpt><trkpt lat="45.656249018084395" lon="10.902016739213261"><ele>143.4</ele><time>2026-04-12T06:37:23Z</time></trkpt><trkpt lat="45.65635771891309" lon="10.902059087268874"><ele>143.20000000000002</ele><time>2026-04-12T06:37:24Z</time></trkpt><trkpt lat="45.65647500556665" lon="10.902102101972792"><ele>143.0</ele><time>2026-04-12T06:37:25Z</time></trkpt><trkpt lat="45.65659060072033" lon="10.902146622968143"><ele>143.0</ele><time>2026-04-12T06:37:26Z</time></trkpt><trkpt lat="45.65670844138902" lon="10.902193213156567"><ele>143.0</ele><time>2026-04-12T06:37:27Z</time></trkpt><trkpt lat="45.656826580316235" lon="10.9022421865579"><ele>143.0</ele><time>2026-04-12T06:37:28Z</time></trkpt><trkpt lat="45.65694165826974" lon="10.9022888395821"><ele>143.0</ele><time>2026-04-12T06:37:29Z</time></trkpt><trkpt lat="45.65705868697689" lon="10.90233454981266"><ele>141.75</ele><time>2026-04-12T06:37:30Z</time></trkpt><trkpt lat="45.65717824276045" lon="10.902375720086676"><ele>140.5</ele><time>2026-04-12T06:37:31Z</time></trkpt><trkpt lat="45.65729243120778" lon="10.902421942761444"><ele>139.25</ele><time>2026-04-12T06:37:32Z</time></trkpt><trkpt lat="45.65741341530666" lon="10.902467919394372"><ele>138.0</ele><time>2026-04-12T06:37:33Z</time></trkpt><trkpt lat="45.65753278128262" lon="10.90251265187648"><ele>138.0</ele><time>2026-04-12T06:37:34Z</time></trkpt><trkpt lat="45.65765851975869" lon="10.902558705422768"><ele>138.0</ele><time>2026-04-12T06:37:35Z</time></trkpt><trkpt lat="45.6577859207398" lon="10.902608435894953"><ele>138.0</ele><time>2026-04-12T06:37:36Z</time></trkpt><trkpt lat="45.65791654968777" lon="10.902654806345412"><ele>138.0</ele><time>2026-04-12T06:37:37Z</time></trkpt><trkpt lat="45.65805445809204" lon="10.902702897174347"><ele>143.66666666666666</ele><time>2026-04-12T06:37:38Z</time></trkpt><trkpt lat="45.658191257868694" lon="10.902756238182056"><ele>149.33333333333331</ele><time>2026-04-12T06:37:39Z</time></trkpt><trkpt lat="45.65834055478509" lon="10.902809438409221"><ele>155.0</ele><time>2026-04-12T06:37:40Z</time></trkpt><trkpt lat="45.658507774743" lon="10.902871515387673"><ele>152.33333333333331</ele><time>2026-04-12T06:37:41Z</time></trkpt><trkpt lat="45.65867706117713" lon="10.902935953681801"><ele>149.66666666666666</ele><time>2026-04-12T06:37:42Z</time></trkpt><trkpt lat="45.65884256398915" lon="10.90299842472334"><ele>147.0</ele><time>2026-04-12T06:37:42.999Z</time></trkpt><trkpt lat="45.659001599169876" lon="10.903062544567762"><ele>147.0</ele><time>2026-04-12T06:37:43.999Z</time></trkpt><trkpt lat="45.65915664542328" lon="10.903123915113833"><ele>147.0</ele><time>2026-04-12T06:37:44.999Z</time></trkpt><trkpt lat="45.6593137074122" lon="10.903189704473279"><ele>147.0</ele><time>2026-04-12T06:37:45.999Z</time></trkpt><trkpt lat="45.6594667111195" lon="10.903246265063606"><ele>149.33333333333334</ele><time>2026-04-12T06:37:46.999Z</time></trkpt><trkpt lat="45.6596190463014" lon="10.903288162861893"><ele>151.66666666666669</ele><time>2026-04-12T06:37:47.999Z</time></trkpt><trkpt lat="45.6597886314299" lon="10.9032716363181"><ele>154.0</ele><time>2026-04-12T06:37:48.999Z</time></trkpt><trkpt lat="45.65997314211272" lon="10.903201897602818"><ele>154.0</ele><time>2026-04-12T06:37:49.999Z</time></trkpt><trkpt lat="45.660176377156155" lon="10.90305887478355"><ele>154.0</ele><time>2026-04-12T06:37:50.999Z</time></trkpt><trkpt lat="45.660372011313996" lon="10.902949086618532"><ele>154.0</ele><time>2026-04-12T06:37:51.999Z</time></trkpt><trkpt lat="45.66056601422141" lon="10.90291081752458"><ele>155.33333333333334</ele><time>2026-04-12T06:37:52.999Z</time></trkpt><trkpt lat="45.66076210475544" lon="10.902876171956823"><ele>156.66666666666666</ele><time>2026-04-12T06:37:53.999Z</time></trkpt><trkpt lat="45.66097133608963" lon="10.902864635742032"><ele>158.0</ele><time>2026-04-12T06:37:54.999Z</time></trkpt><trkpt lat="45.66117098728446" lon="10.90285659899444"><ele>158.66666666666666</ele><time>2026-04-12T06:37:55.999Z</time></trkpt><trkpt lat="45.66134983770341" lon="10.902870209183929"><ele>159.33333333333334</ele><time>2026-04-12T06:37:56.999Z</time></trkpt><trkpt lat="45.66153414889613" lon="10.90288026649815"><ele>160.0</ele><time>2026-04-12T06:37:57.999Z</time></trkpt><trkpt lat="45.661723401604625" lon="10.902880358535478"><ele>160.0</ele><time>2026-04-12T06:37:58.999Z</time></trkpt><trkpt lat="45.66191419196355" lon="10.902884265585493"><ele>160.0</ele><time>2026-04-12T06:37:59.999Z</time></trkpt><trkpt lat="45.66210742398256" lon="10.902887699886648"><ele>160.0</ele><time>2026-04-12T06:38:00.999Z</time></trkpt><trkpt lat="45.662287763510896" lon="10.902895052573728"><ele>157.0</ele><time>2026-04-12T06:38:01.999Z</time></trkpt><trkpt lat="45.6624645707073" lon="10.9029148612735"><ele>154.0</ele><time>2026-04-12T06:38:02.999Z</time></trkpt><trkpt lat="45.66264917936808" lon="10.902949194574855"><ele>151.0</ele><time>2026-04-12T06:38:03.999Z</time></trkpt><trkpt lat="45.66282145596803" lon="10.903008452876191"><ele>147.0</ele><time>2026-04-12T06:38:04.999Z</time></trkpt><trkpt lat="45.66300106175165" lon="10.90309744212046"><ele>143.0</ele><time>2026-04-12T06:38:05.999Z</time></trkpt><trkpt lat="45.66317587481267" lon="10.903196933182393"><ele>139.0</ele><time>2026-04-12T06:38:06.999Z</time></trkpt><trkpt lat="45.66335500718281" lon="10.903296861989455"><ele>139.0</ele><time>2026-04-12T06:38:07.999Z</time></trkpt><trkpt lat="45.66352879862457" lon="10.903412317081084"><ele>139.0</ele><time>2026-04-12T06:38:08.999Z</time></trkpt><trkpt lat="45.663700118539715" lon="10.903546058783979"><ele>139.0</ele><time>2026-04-12T06:38:09.999Z</time></trkpt><trkpt lat="45.66385006760035" lon="10.903711728402035"><ele>137.66666666666669</ele><time>2026-04-12T06:38:10.999Z</time></trkpt><trkpt lat="45.66400254653437" lon="10.903833812911103"><ele>136.33333333333334</ele><time>2026-04-12T06:38:11.999Z</time></trkpt><trkpt lat="45.664130590442234" lon="10.904000426623044"><ele>135.0</ele><time>2026-04-12T06:38:12.999Z</time></trkpt><trkpt lat="45.66428020427957" lon="10.904189002253108"><ele>131.66666666666666</ele><time>2026-04-12T06:38:13.999Z</time></trkpt><trkpt lat="45.66440328201308" lon="10.904371295920553"><ele>128.33333333333331</ele><time>2026-04-12T06:38:14.999Z</time></trkpt><trkpt lat="45.66452700638248" lon="10.904570319081147"><ele>125.0</ele><time>2026-04-12T06:38:15.999Z</time></trkpt><trkpt lat="45.664643480574" lon="10.904776071579825"><ele>125.0</ele><time>2026-04-12T06:38:16.999Z</time></trkpt><trkpt lat="45.66475705783762" lon="10.904986832242114"><ele>125.0</ele><time>2026-04-12T06:38:17.999Z</time></trkpt><trkpt lat="45.664859615367725" lon="10.905203326883369"><ele>125.0</ele><time>2026-04-12T06:38:18.999Z</time></trkpt><trkpt lat="45.664971158749736" lon="10.905398378601253"><ele>124.0</ele><time>2026-04-12T06:38:19.999Z</time></trkpt><trkpt lat="45.66509072404887" lon="10.9055946184707"><ele>123.0</ele><time>2026-04-12T06:38:20.999Z</time></trkpt><trkpt lat="45.665245927268224" lon="10.905745243890756"><ele>122.0</ele><time>2026-04-12T06:38:21.999Z</time></trkpt><trkpt lat="45.66542704928757" lon="10.905849750011008"><ele>122.0</ele><time>2026-04-12T06:38:22.999Z</time></trkpt><trkpt lat="45.66562499762113" lon="10.905911747526874"><ele>122.0</ele><time>2026-04-12T06:38:23.999Z</time></trkpt><trkpt lat="45.665820987105036" lon="10.905955003233174"><ele>122.0</ele><time>2026-04-12T06:38:24.999Z</time></trkpt><trkpt lat="45.666014268477454" lon="10.905990198362902"><ele>132.0</ele><time>2026-04-12T06:38:25.999Z</time></trkpt><trkpt lat="45.666209590865826" lon="10.905994006235087"><ele>142.0</ele><time>2026-04-12T06:38:26.999Z</time></trkpt><trkpt lat="45.66641443947639" lon="10.905974611686297"><ele>152.0</ele><time>2026-04-12T06:38:27.999Z</time></trkpt><trkpt lat="45.666609155843446" lon="10.905935201573323"><ele>146.0</ele><time>2026-04-12T06:38:28.999Z</time></trkpt><trkpt lat="45.66680060014423" lon="10.905868389609173"><ele>140.0</ele><time>2026-04-12T06:38:29.999Z</time></trkpt><trkpt lat="45.666981711996435" lon="10.905776597162594"><ele>134.0</ele><time>2026-04-12T06:38:30.999Z</time></trkpt><trkpt lat="45.66715793579756" lon="10.905650411736278"><ele>134.0</ele><time>2026-04-12T06:38:31.999Z</time></trkpt><trkpt lat="45.66731173332713" lon="10.905487288279865"><ele>134.0</ele><time>2026-04-12T06:38:32.999Z</time></trkpt><trkpt lat="45.66743799881116" lon="10.905273198869956"><ele>134.0</ele><time>2026-04-12T06:38:33.999Z</time></trkpt><trkpt lat="45.66753765788671" lon="10.905024398690681"><ele>132.33333333333331</ele><time>2026-04-12T06:38:34.998Z</time></trkpt><trkpt lat="45.66762078154069" lon="10.904757350134165"><ele>130.66666666666666</ele><time>2026-04-12T06:38:35.998Z</time></trkpt><trkpt lat="45.66770655986864" lon="10.904512757352796"><ele>129.0</ele><time>2026-04-12T06:38:36.998Z</time></trkpt><trkpt lat="45.66780702663234" lon="10.90429607374792"><ele>127.66666666666666</ele><time>2026-04-12T06:38:37.998Z</time></trkpt><trkpt lat="45.66791602838994" lon="10.904092925513945"><ele>126.33333333333333</ele><time>2026-04-12T06:38:38.998Z</time></trkpt><trkpt lat="45.66801956771487" lon="10.903921834594854"><ele>125.0</ele><time>2026-04-12T06:38:39.998Z</time></trkpt><trkpt lat="45.66812187841322" lon="10.903776939020776"><ele>125.0</ele><time>2026-04-12T06:38:40.998Z</time></trkpt><trkpt lat="45.66826075835963" lon="10.903669433742293"><ele>125.0</ele><time>2026-04-12T06:38:41.998Z</time></trkpt><trkpt lat="45.668386940823765" lon="10.903540043257886"><ele>125.0</ele><time>2026-04-12T06:38:42.998Z</time></trkpt><trkpt lat="45.66853007361815" lon="10.903466989280357"><ele>126.66666666666666</ele><time>2026-04-12T06:38:43.998Z</time></trkpt><trkpt lat="45.6686777130231" lon="10.903407624806293"><ele>128.33333333333334</ele><time>2026-04-12T06:38:44.998Z</time></trkpt><trkpt lat="45.66882730707003" lon="10.903363815140647"><ele>130.0</ele><time>2026-04-12T06:38:45.998Z</time></trkpt><trkpt lat="45.66898593601556" lon="10.903320369369986"><ele>130.0</ele><time>2026-04-12T06:38:46.998Z</time></trkpt><trkpt lat="45.669149638174005" lon="10.903273244452738"><ele>130.0</ele><time>2026-04-12T06:38:47.998Z</time></trkpt><trkpt lat="45.669309146217955" lon="10.903222958418848"><ele>130.0</ele><time>2026-04-12T06:38:48.998Z</time></trkpt><trkpt lat="45.669465666053874" lon="10.903171155260074"><ele>131.25</ele><time>2026-04-12T06:38:49.998Z</time></trkpt><trkpt lat="45.66961976897545" lon="10.903128701654746"><ele>132.5</ele><time>2026-04-12T06:38:50.998Z</time></trkpt><trkpt lat="45.669754924875654" lon="10.903180254296798"><ele>133.75</ele><time>2026-04-12T06:38:51.998Z</time></trkpt><trkpt lat="45.669877830865126" lon="10.903251202164988"><ele>135.0</ele><time>2026-04-12T06:38:52.998Z</time></trkpt><trkpt lat="45.66999970195549" lon="10.903367732863702"><ele>136.33333333333334</ele><time>2026-04-12T06:38:53.998Z</time></trkpt><trkpt lat="45.67012004415475" lon="10.903543121809445"><ele>137.66666666666669</ele><time>2026-04-12T06:38:54.998Z</time></trkpt><trkpt lat="45.67025242784221" lon="10.903732208297797"><ele>139.0</ele><time>2026-04-12T06:38:55.998Z</time></trkpt><trkpt lat="45.670387766529764" lon="10.903882590934261"><ele>140.33333333333334</ele><time>2026-04-12T06:38:56.998Z</time></trkpt><trkpt lat="45.6705116944114" lon="10.904029333798476"><ele>141.66666666666666</ele><time>2026-04-12T06:38:57.998Z</time></trkpt><trkpt lat="45.67065595884495" lon="10.904148436879842"><ele>143.0</ele><time>2026-04-12T06:38:58.998Z</time></trkpt><trkpt lat="45.670809816416" lon="10.904238210484536"><ele>144.66666666666666</ele><time>2026-04-12T06:38:59.998Z</time></trkpt><trkpt lat="45.67098043883839" lon="10.90428231131752"><ele>146.33333333333334</ele><time>2026-04-12T06:39:00.998Z</time></trkpt><trkpt lat="45.671163678491325" lon="10.90429641286173"><ele>148.0</ele><time>2026-04-12T06:39:01.998Z</time></trkpt><trkpt lat="45.67135529807363" lon="10.904268563327546"><ele>147.66666666666669</ele><time>2026-04-12T06:39:02.998Z</time></trkpt><trkpt lat="45.67154478990715" lon="10.9042188557863"><ele>147.33333333333334</ele><time>2026-04-12T06:39:03.998Z</time></trkpt><trkpt lat="45.671738923298435" lon="10.904179403890753"><ele>147.0</ele><time>2026-04-12T06:39:04.998Z</time></trkpt><trkpt lat="45.67193684370195" lon="10.904166543068436"><ele>147.33333333333334</ele><time>2026-04-12T06:39:05.998Z</time></trkpt><trkpt lat="45.67211687659809" lon="10.904145340085478"><ele>147.66666666666669</ele><time>2026-04-12T06:39:06.998Z</time></trkpt><trkpt lat="45.67229431756588" lon="10.904116661324089"><ele>148.0</ele><time>2026-04-12T06:39:08Z</time></trkpt><trkpt lat="45.672467318655094" lon="10.904105732164531"><ele>148.0</ele><time>2026-04-12T06:39:09Z</time></trkpt><trkpt lat="45.672636359981986" lon="10.904101057066297"><ele>148.0</ele><time>2026-04-12T06:39:10Z</time></trkpt><trkpt lat="45.67280360479952" lon="10.904111833701043"><ele>148.0</ele><time>2026-04-12T06:39:11Z</time></trkpt><trkpt lat="45.672971220551545" lon="10.904151881193426"><ele>147.66666666666669</ele><time>2026-04-12T06:39:12Z</time></trkpt><trkpt lat="45.673140471359886" lon="10.904215597885543"><ele>147.33333333333334</ele><time>2026-04-12T06:39:13Z</time></trkpt><trkpt lat="45.673317707214316" lon="10.904284829027766"><ele>147.0</ele><time>2026-04-12T06:39:14Z</time></trkpt><trkpt lat="45.67349926842427" lon="10.904363380275937"><ele>147.0</ele><time>2026-04-12T06:39:15Z</time></trkpt><trkpt lat="45.67367929353453" lon="10.904445595131739"><ele>147.0</ele><time>2026-04-12T06:39:16Z</time></trkpt><trkpt lat="45.673863574004535" lon="10.904523293849184"><ele>147.0</ele><time>2026-04-12T06:39:17Z</time></trkpt><trkpt lat="45.67405015899949" lon="10.90461822349781"><ele>147.0</ele><time>2026-04-12T06:39:18Z</time></trkpt><trkpt lat="45.67421581404878" lon="10.904764698707744"><ele>147.0</ele><time>2026-04-12T06:39:19Z</time></trkpt><trkpt lat="45.67438331850357" lon="10.90492528950279"><ele>147.0</ele><time>2026-04-12T06:39:20Z</time></trkpt><trkpt lat="45.674550281221215" lon="10.905088720263784"><ele>145.66666666666666</ele><time>2026-04-12T06:39:21Z</time></trkpt><trkpt lat="45.67472473530341" lon="10.905238601644326"><ele>144.33333333333331</ele><time>2026-04-12T06:39:22Z</time></trkpt><trkpt lat="45.67488560963275" lon="10.905413465098137"><ele>143.0</ele><time>2026-04-12T06:39:23Z</time></trkpt><trkpt lat="45.67504625222768" lon="10.905589279664868"><ele>143.0</ele><time>2026-04-12T06:39:24Z</time></trkpt><trkpt lat="45.67520725242771" lon="10.905754854295216"><ele>143.0</ele><time>2026-04-12T06:39:25Z</time></trkpt><trkpt lat="45.67536966063433" lon="10.90590077089521"><ele>143.0</ele><time>2026-04-12T06:39:26Z</time></trkpt><trkpt lat="45.67553153012082" lon="10.906019456455263"><ele>142.66666666666666</ele><time>2026-04-12T06:39:27Z</time></trkpt><trkpt lat="45.675719421184155" lon="10.906088929871599"><ele>142.33333333333334</ele><time>2026-04-12T06:39:28Z</time></trkpt><trkpt lat="45.6759135687558" lon="10.906154025905577"><ele>142.0</ele><time>2026-04-12T06:39:29Z</time></trkpt><trkpt lat="45.676115639195736" lon="10.906206483723034"><ele>142.0</ele><time>2026-04-12T06:39:30Z</time></trkpt><trkpt lat="45.67631900828303" lon="10.906258265641814"><ele>142.0</ele><time>2026-04-12T06:39:31Z</time></trkpt><trkpt lat="45.67652982218221" lon="10.906287390574951"><ele>142.0</ele><time>2026-04-12T06:39:32Z</time></trkpt><trkpt lat="45.676739553487494" lon="10.90628022160042"><ele>141.33333333333334</ele><time>2026-04-12T06:39:33Z</time></trkpt><trkpt lat="45.67694496629455" lon="10.906237727336087"><ele>140.66666666666666</ele><time>2026-04-12T06:39:34Z</time></trkpt><trkpt lat="45.6771509231415" lon="10.906170887180304"><ele>140.0</ele><time>2026-04-12T06:39:35Z</time></trkpt><trkpt lat="45.677360287472794" lon="10.906107393631814"><ele>140.0</ele><time>2026-04-12T06:39:36Z</time></trkpt><trkpt lat="45.67756916759052" lon="10.90605291071686"><ele>140.0</ele><time>2026-04-12T06:39:37Z</time></trkpt><trkpt lat="45.677779441803914" lon="10.906003671380443"><ele>140.0</ele><time>2026-04-12T06:39:38Z</time></trkpt><trkpt lat="45.67799764698029" lon="10.905975903881705"><ele>139.66666666666666</ele><time>2026-04-12T06:39:39Z</time></trkpt><trkpt lat="45.678213143479994" lon="10.905966671592413"><ele>139.33333333333334</ele><time>2026-04-12T06:39:40Z</time></trkpt><trkpt lat="45.678424112565416" lon="10.905975227406156"><ele>139.0</ele><time>2026-04-12T06:39:41Z</time></trkpt><trkpt lat="45.67864939532268" lon="10.905988355446938"><ele>138.33333333333334</ele><time>2026-04-12T06:39:42Z</time></trkpt><trkpt lat="45.67886045536396" lon="10.905990602191345"><ele>137.66666666666666</ele><time>2026-04-12T06:39:43Z</time></trkpt><trkpt lat="45.679074234149226" lon="10.905994835528823"><ele>137.0</ele><time>2026-04-12T06:39:44Z</time></trkpt><trkpt lat="45.67928774945438" lon="10.90599691348704"><ele>137.33333333333331</ele><time>2026-04-12T06:39:45Z</time></trkpt><trkpt lat="45.679504708719854" lon="10.906003104439911"><ele>137.66666666666666</ele><time>2026-04-12T06:39:46Z</time></trkpt><trkpt lat="45.679713090549015" lon="10.90601281819904"><ele>138.0</ele><time>2026-04-12T06:39:47Z</time></trkpt><trkpt lat="45.679928830401" lon="10.906036956522037"><ele>138.0</ele><time>2026-04-12T06:39:47.999Z</time></trkpt><trkpt lat="45.6801360501049" lon="10.906078146847728"><ele>138.0</ele><time>2026-04-12T06:39:48.999Z</time></trkpt><trkpt lat="45.68034536920536" lon="10.906150814070553"><ele>138.0</ele><time>2026-04-12T06:39:49.999Z</time></trkpt><trkpt lat="45.680551252570766" lon="10.906245241356643"><ele>138.66666666666666</ele><time>2026-04-12T06:39:50.999Z</time></trkpt><trkpt lat="45.6807615123938" lon="10.906341407167037"><ele>139.33333333333331</ele><time>2026-04-12T06:39:51.999Z</time></trkpt><trkpt lat="45.68096994191293" lon="10.906435690037005"><ele>140.0</ele><time>2026-04-12T06:39:52.999Z</time></trkpt><trkpt lat="45.68118166068257" lon="10.906499196081107"><ele>138.33333333333331</ele><time>2026-04-12T06:39:53.999Z</time></trkpt><trkpt lat="45.681391150912475" lon="10.906576274599054"><ele>136.66666666666666</ele><time>2026-04-12T06:39:54.999Z</time></trkpt><trkpt lat="45.68159942206262" lon="10.906657923351702"><ele>135.0</ele><time>2026-04-12T06:39:55.999Z</time></trkpt><trkpt lat="45.68180302021881" lon="10.906720887057473"><ele>135.33333333333334</ele><time>2026-04-12T06:39:56.999Z</time></trkpt><trkpt lat="45.681979103044405" lon="10.906788682362503"><ele>135.66666666666669</ele><time>2026-04-12T06:39:57.999Z</time></trkpt><trkpt lat="45.682140046375274" lon="10.906863049625192"><ele>136.0</ele><time>2026-04-12T06:39:58.999Z</time></trkpt><trkpt lat="45.68230759377115" lon="10.906950946814467"><ele>136.0</ele><time>2026-04-12T06:39:59.999Z</time></trkpt><trkpt lat="45.68247788521693" lon="10.907049820251222"><ele>136.0</ele><time>2026-04-12T06:40:00.999Z</time></trkpt><trkpt lat="45.68265091740683" lon="10.907184015972309"><ele>136.0</ele><time>2026-04-12T06:40:01.999Z</time></trkpt><trkpt lat="45.68282850586444" lon="10.907346366688918"><ele>136.5</ele><time>2026-04-12T06:40:02.999Z</time></trkpt><trkpt lat="45.683028950693746" lon="10.907462431400754"><ele>137.0</ele><time>2026-04-12T06:40:03.999Z</time></trkpt><trkpt lat="45.68319540240812" lon="10.90773813344506"><ele>137.0</ele><time>2026-04-12T06:40:04.999Z</time></trkpt><trkpt lat="45.683382012039715" lon="10.907921295469464"><ele>137.0</ele><time>2026-04-12T06:40:05.999Z</time></trkpt><trkpt lat="45.68355830735495" lon="10.908098916329353"><ele>137.0</ele><time>2026-04-12T06:40:06.999Z</time></trkpt><trkpt lat="45.683736768878454" lon="10.90826656908303"><ele>136.33333333333331</ele><time>2026-04-12T06:40:07.999Z</time></trkpt><trkpt lat="45.683907393607406" lon="10.908433180819612"><ele>135.66666666666666</ele><time>2026-04-12T06:40:08.999Z</time></trkpt><trkpt lat="45.684079175587314" lon="10.90860832321958"><ele>135.0</ele><time>2026-04-12T06:40:09.999Z</time></trkpt><trkpt lat="45.68424705664222" lon="10.908800011893778"><ele>135.0</ele><time>2026-04-12T06:40:10.999Z</time></trkpt><trkpt lat="45.68440748559454" lon="10.909009713003726"><ele>135.0</ele><time>2026-04-12T06:40:11.999Z</time></trkpt><trkpt lat="45.68455502941821" lon="10.909240061781645"><ele>135.0</ele><time>2026-04-12T06:40:12.999Z</time></trkpt><trkpt lat="45.684691995870935" lon="10.909490382390036"><ele>133.33333333333334</ele><time>2026-04-12T06:40:13.999Z</time></trkpt><trkpt lat="45.68481916335034" lon="10.909748826200834"><ele>131.66666666666669</ele><time>2026-04-12T06:40:14.999Z</time></trkpt><trkpt lat="45.68495004315859" lon="10.910008244198883"><ele>130.0</ele><time>2026-04-12T06:40:15.999Z</time></trkpt><trkpt lat="45.68508598538067" lon="10.910264407591441"><ele>130.0</ele><time>2026-04-12T06:40:16.999Z</time></trkpt><trkpt lat="45.685221802995734" lon="10.910519347979097"><ele>130.0</ele><time>2026-04-12T06:40:17.999Z</time></trkpt><trkpt lat="45.685353431655244" lon="10.91077126671016"><ele>130.0</ele><time>2026-04-12T06:40:18.999Z</time></trkpt><trkpt lat="45.685484419813704" lon="10.911032377014402"><ele>130.0</ele><time>2026-04-12T06:40:19.999Z</time></trkpt><trkpt lat="45.68560952138407" lon="10.911296908780642"><ele>130.0</ele><time>2026-04-12T06:40:20.999Z</time></trkpt><trkpt lat="45.685723665916676" lon="10.911575718316799"><ele>130.0</ele><time>2026-04-12T06:40:21.999Z</time></trkpt><trkpt lat="45.685843567141866" lon="10.91185042738478"><ele>128.66666666666669</ele><time>2026-04-12T06:40:22.999Z</time></trkpt><trkpt lat="45.685956141987155" lon="10.912124823251254"><ele>127.33333333333334</ele><time>2026-04-12T06:40:23.999Z</time></trkpt><trkpt lat="45.68607218183951" lon="10.912399386604275"><ele>126.0</ele><time>2026-04-12T06:40:24.999Z</time></trkpt><trkpt lat="45.68618941894457" lon="10.912671305822006"><ele>126.0</ele><time>2026-04-12T06:40:25.999Z</time></trkpt><trkpt lat="45.6863039884346" lon="10.912942830450675"><ele>126.0</ele><time>2026-04-12T06:40:26.999Z</time></trkpt><trkpt lat="45.68641338424288" lon="10.913213466312317"><ele>126.0</ele><time>2026-04-12T06:40:27.999Z</time></trkpt><trkpt lat="45.68652593562832" lon="10.913484414833512"><ele>130.0</ele><time>2026-04-12T06:40:28.999Z</time></trkpt><trkpt lat="45.686639614279926" lon="10.913758513487926"><ele>134.0</ele><time>2026-04-12T06:40:29.999Z</time></trkpt><trkpt lat="45.68675735556907" lon="10.914035632958"><ele>138.0</ele><time>2026-04-12T06:40:30.999Z</time></trkpt><trkpt lat="45.6868555057616" lon="10.914323624159799"><ele>130.5</ele><time>2026-04-12T06:40:31.999Z</time></trkpt><trkpt lat="45.68694017868776" lon="10.914618584472741"><ele>123.0</ele><time>2026-04-12T06:40:32.999Z</time></trkpt><trkpt lat="45.687007177704125" lon="10.914930206723358"><ele>124.5</ele><time>2026-04-12T06:40:33.999Z</time></trkpt><trkpt lat="45.687071848857705" lon="10.915241856747773"><ele>126.0</ele><time>2026-04-12T06:40:34.999Z</time></trkpt><trkpt lat="45.687133366490364" lon="10.915552948247019"><ele>126.0</ele><time>2026-04-12T06:40:35.999Z</time></trkpt><trkpt lat="45.68720816422146" lon="10.915856256740415"><ele>126.0</ele><time>2026-04-12T06:40:36.999Z</time></trkpt><trkpt lat="45.687289775844086" lon="10.916157947414016"><ele>127.33333333333334</ele><time>2026-04-12T06:40:37.999Z</time></trkpt><trkpt lat="45.68737254802578" lon="10.91645152136453"><ele>128.66666666666669</ele><time>2026-04-12T06:40:38.999Z</time></trkpt><trkpt lat="45.68745405748437" lon="10.916745499272375"><ele>130.0</ele><time>2026-04-12T06:40:39.999Z</time></trkpt><trkpt lat="45.68753089567929" lon="10.917030213538604"><ele>131.33333333333334</ele><time>2026-04-12T06:40:40.998Z</time></trkpt><trkpt lat="45.68761439115276" lon="10.91730336452735"><ele>132.66666666666666</ele><time>2026-04-12T06:40:41.998Z</time></trkpt><trkpt lat="45.68771998923357" lon="10.91756902161038"><ele>134.0</ele><time>2026-04-12T06:40:42.998Z</time></trkpt><trkpt lat="45.687853418968714" lon="10.917829233549453"><ele>129.5</ele><time>2026-04-12T06:40:43.998Z</time></trkpt><trkpt lat="45.68801174939937" lon="10.918079279179345"><ele>125.0</ele><time>2026-04-12T06:40:44.998Z</time></trkpt><trkpt lat="45.68820526125012" lon="10.918328898100023"><ele>126.5</ele><time>2026-04-12T06:40:45.998Z</time></trkpt><trkpt lat="45.688411958069864" lon="10.918565207862015"><ele>128.0</ele><time>2026-04-12T06:40:46.998Z</time></trkpt><trkpt lat="45.68859688955542" lon="10.91875914740691"><ele>128.0</ele><time>2026-04-12T06:40:47.998Z</time></trkpt><trkpt lat="45.68876200840251" lon="10.918959140658215"><ele>128.0</ele><time>2026-04-12T06:40:48.998Z</time></trkpt><trkpt lat="45.68892608322833" lon="10.919169697833786"><ele>128.0</ele><time>2026-04-12T06:40:49.998Z</time></trkpt><trkpt lat="45.68909122371167" lon="10.919368398697745"><ele>128.0</ele><time>2026-04-12T06:40:50.998Z</time></trkpt><trkpt lat="45.689256502004376" lon="10.919564076854549"><ele>128.0</ele><time>2026-04-12T06:40:51.998Z</time></trkpt><trkpt lat="45.68942164044004" lon="10.919762011618694"><ele>128.0</ele><time>2026-04-12T06:40:52.998Z</time></trkpt><trkpt lat="45.68959222030215" lon="10.919963905876177"><ele>129.0</ele><time>2026-04-12T06:40:53.998Z</time></trkpt><trkpt lat="45.68976663179391" lon="10.920173343666502"><ele>130.0</ele><time>2026-04-12T06:40:54.998Z</time></trkpt><trkpt lat="45.689944043452286" lon="10.920384837552124"><ele>130.0</ele><time>2026-04-12T06:40:55.998Z</time></trkpt><trkpt lat="45.69012843188308" lon="10.920603558213102"><ele>130.0</ele><time>2026-04-12T06:40:56.998Z</time></trkpt><trkpt lat="45.690313259733365" lon="10.920828275860366"><ele>128.0</ele><time>2026-04-12T06:40:57.998Z</time></trkpt><trkpt lat="45.690516717001046" lon="10.921072731586563"><ele>126.0</ele><time>2026-04-12T06:40:58.998Z</time></trkpt><trkpt lat="45.69072511940556" lon="10.921327296127194"><ele>126.0</ele><time>2026-04-12T06:40:59.998Z</time></trkpt><trkpt lat="45.690939208648366" lon="10.921584973485942"><ele>126.0</ele><time>2026-04-12T06:41:00.998Z</time></trkpt><trkpt lat="45.6911590391342" lon="10.921844704687246"><ele>126.0</ele><time>2026-04-12T06:41:01.998Z</time></trkpt><trkpt lat="45.69137252777385" lon="10.922106776108258"><ele>126.0</ele><time>2026-04-12T06:41:02.998Z</time></trkpt><trkpt lat="45.6915841099484" lon="10.92235552523058"><ele>126.0</ele><time>2026-04-12T06:41:03.998Z</time></trkpt><trkpt lat="45.691789359462376" lon="10.922601088200198"><ele>126.0</ele><time>2026-04-12T06:41:04.998Z</time></trkpt><trkpt lat="45.69198797268313" lon="10.92283968164319"><ele>126.0</ele><time>2026-04-12T06:41:05.998Z</time></trkpt><trkpt lat="45.692179556646806" lon="10.923067932447259"><ele>126.0</ele><time>2026-04-12T06:41:06.998Z</time></trkpt><trkpt lat="45.69234787031917" lon="10.92327233984744"><ele>126.0</ele><time>2026-04-12T06:41:07.998Z</time></trkpt><trkpt lat="45.69249638338103" lon="10.92346479927432"><ele>126.0</ele><time>2026-04-12T06:41:08.998Z</time></trkpt><trkpt lat="45.692627691078265" lon="10.923644814765481"><ele>126.0</ele><time>2026-04-12T06:41:09.998Z</time></trkpt><trkpt lat="45.692747338832035" lon="10.923813798740934"><ele>126.0</ele><time>2026-04-12T06:41:10.998Z</time></trkpt><trkpt lat="45.69286235452075" lon="10.923977301682967"><ele>126.0</ele><time>2026-04-12T06:41:11.998Z</time></trkpt><trkpt lat="45.6929677987729" lon="10.924127760371654"><ele>126.0</ele><time>2026-04-12T06:41:12.998Z</time></trkpt><trkpt lat="45.69307238546725" lon="10.924278762095518"><ele>126.0</ele><time>2026-04-12T06:41:14Z</time></trkpt><trkpt lat="45.6931887772207" lon="10.924445368825678"><ele>126.0</ele><time>2026-04-12T06:41:15Z</time></trkpt><trkpt lat="45.69331658008628" lon="10.924625348578164"><ele>126.0</ele><time>2026-04-12T06:41:16Z</time></trkpt><trkpt lat="45.693448829558676" lon="10.924812838540381"><ele>125.66666666666666</ele><time>2026-04-12T06:41:17Z</time></trkpt><trkpt lat="45.69358954250794" lon="10.925008435867705"><ele>125.33333333333333</ele><time>2026-04-12T06:41:18Z</time></trkpt><trkpt lat="45.69373118993905" lon="10.92520500603777"><ele>125.0</ele><time>2026-04-12T06:41:19Z</time></trkpt><trkpt lat="45.693871701645584" lon="10.92540516815507"><ele>125.66666666666666</ele><time>2026-04-12T06:41:20Z</time></trkpt><trkpt lat="45.6940141107564" lon="10.925606465520827"><ele>126.33333333333334</ele><time>2026-04-12T06:41:21Z</time></trkpt><trkpt lat="45.694157005768915" lon="10.925808930760134"><ele>127.0</ele><time>2026-04-12T06:41:22Z</time></trkpt><trkpt lat="45.69430223897147" lon="10.926004010263126"><ele>128.33333333333334</ele><time>2026-04-12T06:41:23Z</time></trkpt><trkpt lat="45.69444606392495" lon="10.926186953220762"><ele>129.66666666666666</ele><time>2026-04-12T06:41:24Z</time></trkpt><trkpt lat="45.69459557496695" lon="10.926360359540675"><ele>131.0</ele><time>2026-04-12T06:41:25Z</time></trkpt><trkpt lat="45.69475996176443" lon="10.92652049106017"><ele>131.0</ele><time>2026-04-12T06:41:26Z</time></trkpt><trkpt lat="45.69493538914043" lon="10.926664441001089"><ele>131.0</ele><time>2026-04-12T06:41:27Z</time></trkpt><trkpt lat="45.69511070259614" lon="10.92679801626734"><ele>131.0</ele><time>2026-04-12T06:41:28Z</time></trkpt><trkpt lat="45.69528373586741" lon="10.926921964548963"><ele>130.66666666666666</ele><time>2026-04-12T06:41:29Z</time></trkpt><trkpt lat="45.6954627004568" lon="10.927039776862651"><ele>130.33333333333334</ele><time>2026-04-12T06:41:30Z</time></trkpt><trkpt lat="45.69564798095361" lon="10.92715628813368"><ele>130.0</ele><time>2026-04-12T06:41:31Z</time></trkpt><trkpt lat="45.695825513917015" lon="10.927271722223031"><ele>130.0</ele><time>2026-04-12T06:41:32Z</time></trkpt><trkpt lat="45.69601151964605" lon="10.927387530845783"><ele>130.0</ele><time>2026-04-12T06:41:33Z</time></trkpt><trkpt lat="45.696202675129356" lon="10.927496760076407"><ele>130.0</ele><time>2026-04-12T06:41:34Z</time></trkpt><trkpt lat="45.696395641139404" lon="10.927602955045462"><ele>130.33333333333334</ele><time>2026-04-12T06:41:35Z</time></trkpt><trkpt lat="45.6965921693065" lon="10.927712034567067"><ele>130.66666666666666</ele><time>2026-04-12T06:41:36Z</time></trkpt><trkpt lat="45.696784644854596" lon="10.927821388114578"><ele>131.0</ele><time>2026-04-12T06:41:37Z</time></trkpt><trkpt lat="45.69698545565886" lon="10.927939256746338"><ele>131.0</ele><time>2026-04-12T06:41:38Z</time></trkpt><trkpt lat="45.69719337047035" lon="10.928050931146734"><ele>131.0</ele><time>2026-04-12T06:41:39Z</time></trkpt><trkpt lat="45.69740772243402" lon="10.928141983015825"><ele>131.0</ele><time>2026-04-12T06:41:40Z</time></trkpt><trkpt lat="45.697631425281344" lon="10.928189000173495"><ele>131.5</ele><time>2026-04-12T06:41:41Z</time></trkpt><trkpt lat="45.69785841352558" lon="10.928217399260884"><ele>132.0</ele><time>2026-04-12T06:41:42Z</time></trkpt><trkpt lat="45.69807901977598" lon="10.928264143596683"><ele>132.0</ele><time>2026-04-12T06:41:43Z</time></trkpt><trkpt lat="45.69829195027002" lon="10.928321431940603"><ele>132.0</ele><time>2026-04-12T06:41:44Z</time></trkpt><trkpt lat="45.69850873901824" lon="10.928398059501728"><ele>132.0</ele><time>2026-04-12T06:41:45Z</time></trkpt><trkpt lat="45.698717287503875" lon="10.928490248223754"><ele>133.66666666666666</ele><time>2026-04-12T06:41:46Z</time></trkpt><trkpt lat="45.69892684942994" lon="10.928591227396803"><ele>135.33333333333331</ele><time>2026-04-12T06:41:47Z</time></trkpt><trkpt lat="45.69913339488909" lon="10.92869882220715"><ele>137.0</ele><time>2026-04-12T06:41:48Z</time></trkpt><trkpt lat="45.69932211556758" lon="10.928811954971042"><ele>135.0</ele><time>2026-04-12T06:41:49Z</time></trkpt><trkpt lat="45.69950050280235" lon="10.928915068989774"><ele>133.0</ele><time>2026-04-12T06:41:50Z</time></trkpt><trkpt lat="45.69966919651718" lon="10.929021486671301"><ele>131.0</ele><time>2026-04-12T06:41:51Z</time></trkpt><trkpt lat="45.69982216556309" lon="10.92910470040764"><ele>131.0</ele><time>2026-04-12T06:41:52Z</time></trkpt><trkpt lat="45.699965810143496" lon="10.929188740328806"><ele>131.0</ele><time>2026-04-12T06:41:53Z</time></trkpt><trkpt lat="45.700114501634374" lon="10.929275702988708"><ele>131.0</ele><time>2026-04-12T06:41:53.999Z</time></trkpt><trkpt lat="45.70026150013911" lon="10.929358542523387"><ele>130.5</ele><time>2026-04-12T06:41:54.999Z</time></trkpt><trkpt lat="45.70040072098746" lon="10.929436114254516"><ele>130.0</ele><time>2026-04-12T06:41:55.999Z</time></trkpt><trkpt lat="45.70052982658502" lon="10.929510327194084"><ele>129.5</ele><time>2026-04-12T06:41:56.999Z</time></trkpt><trkpt lat="45.70064666185737" lon="10.929572513325553"><ele>129.0</ele><time>2026-04-12T06:41:57.999Z</time></trkpt><trkpt lat="45.700764754214376" lon="10.929620681050261"><ele>129.0</ele><time>2026-04-12T06:41:58.999Z</time></trkpt><trkpt lat="45.70089148606902" lon="10.929669693724849"><ele>129.0</ele><time>2026-04-12T06:41:59.999Z</time></trkpt><trkpt lat="45.70102497202799" lon="10.929716661369454"><ele>129.0</ele><time>2026-04-12T06:42:00.999Z</time></trkpt><trkpt lat="45.70114888756502" lon="10.929758601664764"><ele>129.0</ele><time>2026-04-12T06:42:01.999Z</time></trkpt><trkpt lat="45.7012734212527" lon="10.929804841794407"><ele>127.33333333333334</ele><time>2026-04-12T06:42:02.999Z</time></trkpt><trkpt lat="45.701410319569185" lon="10.929863690051898"><ele>125.66666666666667</ele><time>2026-04-12T06:42:03.999Z</time></trkpt><trkpt lat="45.70157057955391" lon="10.929925715526808"><ele>124.0</ele><time>2026-04-12T06:42:04.999Z</time></trkpt><trkpt lat="45.70174643050052" lon="10.929986252749243"><ele>124.33333333333334</ele><time>2026-04-12T06:42:05.999Z</time></trkpt><trkpt lat="45.70192818638189" lon="10.930050091223206"><ele>124.66666666666666</ele><time>2026-04-12T06:42:06.999Z</time></trkpt><trkpt lat="45.70213228674888" lon="10.930125102207132"><ele>125.0</ele><time>2026-04-12T06:42:07.999Z</time></trkpt><trkpt lat="45.702351024990975" lon="10.930201626653684"><ele>125.5</ele><time>2026-04-12T06:42:08.999Z</time></trkpt><trkpt lat="45.70259611015812" lon="10.930288825845901"><ele>126.0</ele><time>2026-04-12T06:42:09.999Z</time></trkpt><trkpt lat="45.70284915355993" lon="10.93038329376351"><ele>127.0</ele><time>2026-04-12T06:42:10.999Z</time></trkpt><trkpt lat="45.703100728744296" lon="10.930479387498115"><ele>128.0</ele><time>2026-04-12T06:42:11.999Z</time></trkpt><trkpt lat="45.703320845271215" lon="10.930556988761284"><ele>128.0</ele><time>2026-04-12T06:42:12.999Z</time></trkpt><trkpt lat="45.70352785380513" lon="10.93063420884639"><ele>128.0</ele><time>2026-04-12T06:42:13.999Z</time></trkpt><trkpt lat="45.7037078677207" lon="10.930705251958168"><ele>128.0</ele><time>2026-04-12T06:42:14.999Z</time></trkpt><trkpt lat="45.70387908386759" lon="10.930763998530677"><ele>128.33333333333331</ele><time>2026-04-12T06:42:15.999Z</time></trkpt><trkpt lat="45.70407554719744" lon="10.930831156840934"><ele>128.66666666666666</ele><time>2026-04-12T06:42:16.999Z</time></trkpt><trkpt lat="45.704296849850486" lon="10.930904277203442"><ele>129.0</ele><time>2026-04-12T06:42:17.999Z</time></trkpt><trkpt lat="45.704532477943076" lon="10.930988098783699"><ele>127.5</ele><time>2026-04-12T06:42:18.999Z</time></trkpt><trkpt lat="45.704775821836805" lon="10.931075430641922"><ele>126.0</ele><time>2026-04-12T06:42:19.999Z</time></trkpt><trkpt lat="45.705026196397874" lon="10.931167895326485"><ele>126.0</ele><time>2026-04-12T06:42:20.999Z</time></trkpt><trkpt lat="45.705276798268706" lon="10.931258989249091"><ele>126.0</ele><time>2026-04-12T06:42:21.999Z</time></trkpt><trkpt lat="45.70551942399053" lon="10.931379168218653"><ele>126.0</ele><time>2026-04-12T06:42:22.999Z</time></trkpt><trkpt lat="45.70574450286794" lon="10.931540464256035"><ele>126.0</ele><time>2026-04-12T06:42:23.999Z</time></trkpt><trkpt lat="45.705950184074474" lon="10.93170954074286"><ele>125.5</ele><time>2026-04-12T06:42:24.999Z</time></trkpt><trkpt lat="45.70614284287137" lon="10.931905312598301"><ele>125.0</ele><time>2026-04-12T06:42:25.999Z</time></trkpt><trkpt lat="45.706337455594344" lon="10.93212190317036"><ele>125.0</ele><time>2026-04-12T06:42:26.999Z</time></trkpt><trkpt lat="45.70653906721559" lon="10.932325175609694"><ele>125.0</ele><time>2026-04-12T06:42:27.999Z</time></trkpt><trkpt lat="45.70673200150246" lon="10.932553215561033"><ele>124.5</ele><time>2026-04-12T06:42:28.999Z</time></trkpt><trkpt lat="45.70691414894959" lon="10.932762937759094"><ele>124.0</ele><time>2026-04-12T06:42:29.999Z</time></trkpt><trkpt lat="45.70709271000861" lon="10.932971149101652"><ele>124.0</ele><time>2026-04-12T06:42:30.999Z</time></trkpt><trkpt lat="45.70727433858939" lon="10.933177895081103"><ele>124.0</ele><time>2026-04-12T06:42:31.999Z</time></trkpt><trkpt lat="45.70745573210322" lon="10.933385449436972"><ele>124.5</ele><time>2026-04-12T06:42:32.999Z</time></trkpt><trkpt lat="45.70763803274713" lon="10.933591715238284"><ele>125.0</ele><time>2026-04-12T06:42:33.999Z</time></trkpt><trkpt lat="45.7078209302213" lon="10.933798590046337"><ele>125.33333333333333</ele><time>2026-04-12T06:42:34.999Z</time></trkpt><trkpt lat="45.70799789167961" lon="10.934003128778246"><ele>125.66666666666666</ele><time>2026-04-12T06:42:35.999Z</time></trkpt><trkpt lat="45.708165233156144" lon="10.934196864575524"><ele>126.0</ele><time>2026-04-12T06:42:36.999Z</time></trkpt><trkpt lat="45.70833122850418" lon="10.934382552467275"><ele>127.66666666666666</ele><time>2026-04-12T06:42:37.999Z</time></trkpt><trkpt lat="45.70849718625089" lon="10.934570619280231"><ele>129.33333333333331</ele><time>2026-04-12T06:42:38.999Z</time></trkpt><trkpt lat="45.70866288650965" lon="10.934757113355658"><ele>131.0</ele><time>2026-04-12T06:42:39.999Z</time></trkpt><trkpt lat="45.70884109056842" lon="10.934928182251937"><ele>133.33333333333331</ele><time>2026-04-12T06:42:40.999Z</time></trkpt><trkpt lat="45.70902884016176" lon="10.935084388753712"><ele>135.66666666666666</ele><time>2026-04-12T06:42:41.999Z</time></trkpt><trkpt lat="45.70921671527268" lon="10.935222851103653"><ele>138.0</ele><time>2026-04-12T06:42:42.999Z</time></trkpt><trkpt lat="45.709422882522034" lon="10.935341748268128"><ele>138.0</ele><time>2026-04-12T06:42:43.999Z</time></trkpt><trkpt lat="45.709629379349906" lon="10.935453230855355"><ele>138.0</ele><time>2026-04-12T06:42:44.999Z</time></trkpt><trkpt lat="45.70983596800241" lon="10.935564490483667"><ele>138.0</ele><time>2026-04-12T06:42:45.999Z</time></trkpt><trkpt lat="45.710045190305294" lon="10.935673937578935"><ele>139.0</ele><time>2026-04-12T06:42:46.998Z</time></trkpt><trkpt lat="45.71025179083663" lon="10.9357867561708"><ele>140.0</ele><time>2026-04-12T06:42:47.998Z</time></trkpt><trkpt lat="45.71046327255494" lon="10.935891777464185"><ele>141.0</ele><time>2026-04-12T06:42:48.998Z</time></trkpt><trkpt lat="45.71067221317866" lon="10.936000742755438"><ele>141.0</ele><time>2026-04-12T06:42:49.998Z</time></trkpt><trkpt lat="45.710876622893174" lon="10.936115029633857"><ele>141.0</ele><time>2026-04-12T06:42:50.998Z</time></trkpt><trkpt lat="45.711077632305745" lon="10.936223143385373"><ele>141.0</ele><time>2026-04-12T06:42:51.998Z</time></trkpt><trkpt lat="45.71128283007756" lon="10.936331669541637"><ele>140.66666666666666</ele><time>2026-04-12T06:42:52.998Z</time></trkpt><trkpt lat="45.71148246076584" lon="10.936439395526145"><ele>140.33333333333331</ele><time>2026-04-12T06:42:53.998Z</time></trkpt><trkpt lat="45.71168624346845" lon="10.936543285377141"><ele>140.0</ele><time>2026-04-12T06:42:54.998Z</time></trkpt><trkpt lat="45.711884683984934" lon="10.936651129229174"><ele>142.0</ele><time>2026-04-12T06:42:55.998Z</time></trkpt><trkpt lat="45.71207904815825" lon="10.936753117328283"><ele>144.0</ele><time>2026-04-12T06:42:56.998Z</time></trkpt><trkpt lat="45.712265741471946" lon="10.936855790707197"><ele>146.0</ele><time>2026-04-12T06:42:57.998Z</time></trkpt><trkpt lat="45.71245223386451" lon="10.936969883122254"><ele>146.0</ele><time>2026-04-12T06:42:58.998Z</time></trkpt><trkpt lat="45.7126232506623" lon="10.9370997558145"><ele>146.0</ele><time>2026-04-12T06:42:59.998Z</time></trkpt><trkpt lat="45.71278829642563" lon="10.937236446132765"><ele>146.0</ele><time>2026-04-12T06:43:00.998Z</time></trkpt><trkpt lat="45.71294977331928" lon="10.937376275166597"><ele>147.0</ele><time>2026-04-12T06:43:01.998Z</time></trkpt><trkpt lat="45.71310588009614" lon="10.937503368431736"><ele>148.0</ele><time>2026-04-12T06:43:02.998Z</time></trkpt><trkpt lat="45.71325033080318" lon="10.93762254640761"><ele>149.0</ele><time>2026-04-12T06:43:03.998Z</time></trkpt><trkpt lat="45.71340065219064" lon="10.93773551199567"><ele>149.0</ele><time>2026-04-12T06:43:04.998Z</time></trkpt><trkpt lat="45.713543357093755" lon="10.937833876163959"><ele>149.0</ele><time>2026-04-12T06:43:05.998Z</time></trkpt><trkpt lat="45.71369956602557" lon="10.937920494531253"><ele>149.0</ele><time>2026-04-12T06:43:06.998Z</time></trkpt><trkpt lat="45.71385695394667" lon="10.938003154319945"><ele>147.33333333333331</ele><time>2026-04-12T06:43:07.998Z</time></trkpt><trkpt lat="45.71402467332302" lon="10.938085552974677"><ele>145.66666666666666</ele><time>2026-04-12T06:43:08.998Z</time></trkpt><trkpt lat="45.71419215904366" lon="10.938166985254195"><ele>144.0</ele><time>2026-04-12T06:43:09.998Z</time></trkpt><trkpt lat="45.71435659765043" lon="10.938242004050029"><ele>145.0</ele><time>2026-04-12T06:43:10.998Z</time></trkpt><trkpt lat="45.71452231191807" lon="10.938318344163342"><ele>146.0</ele><time>2026-04-12T06:43:11.998Z</time></trkpt><trkpt lat="45.714692958373845" lon="10.93838393443816"><ele>147.0</ele><time>2026-04-12T06:43:12.998Z</time></trkpt><trkpt lat="45.71486607874779" lon="10.938446993496736"><ele>147.0</ele><time>2026-04-12T06:43:13.998Z</time></trkpt><trkpt lat="45.71503879828366" lon="10.938512047177424"><ele>147.0</ele><time>2026-04-12T06:43:14.998Z</time></trkpt><trkpt lat="45.7152189181812" lon="10.938576821007432"><ele>147.0</ele><time>2026-04-12T06:43:15.998Z</time></trkpt><trkpt lat="45.71540310934018" lon="10.938641287139816"><ele>144.66666666666666</ele><time>2026-04-12T06:43:16.998Z</time></trkpt><trkpt lat="45.715586980357934" lon="10.938716136816616"><ele>142.33333333333331</ele><time>2026-04-12T06:43:17.998Z</time></trkpt><trkpt lat="45.71576623247285" lon="10.938804926115186"><ele>140.0</ele><time>2026-04-12T06:43:18.998Z</time></trkpt><trkpt lat="45.71595135274095" lon="10.938918468773903"><ele>139.66666666666666</ele><time>2026-04-12T06:43:20Z</time></trkpt><trkpt lat="45.71612978549106" lon="10.939041895705058"><ele>139.33333333333334</ele><time>2026-04-12T06:43:21Z</time></trkpt><trkpt lat="45.7163086890532" lon="10.939170154872254"><ele>139.0</ele><time>2026-04-12T06:43:22Z</time></trkpt><trkpt lat="45.71648830532734" lon="10.939283397638897"><ele>137.66666666666669</ele><time>2026-04-12T06:43:23Z</time></trkpt><trkpt lat="45.71666954439188" lon="10.939384295946578"><ele>136.33333333333334</ele><time>2026-04-12T06:43:24Z</time></trkpt><trkpt lat="45.71684928199517" lon="10.939472892401547"><ele>135.0</ele><time>2026-04-12T06:43:25Z</time></trkpt><trkpt lat="45.71703477597864" lon="10.93955044175284"><ele>138.0</ele><time>2026-04-12T06:43:26Z</time></trkpt><trkpt lat="45.71721398809916" lon="10.939625599865526"><ele>141.0</ele><time>2026-04-12T06:43:27Z</time></trkpt><trkpt lat="45.71739898908587" lon="10.939711406647355"><ele>144.0</ele><time>2026-04-12T06:43:28Z</time></trkpt><trkpt lat="45.71758249868943" lon="10.939796278405806"><ele>144.33333333333334</ele><time>2026-04-12T06:43:29Z</time></trkpt><trkpt lat="45.717761910669914" lon="10.939884359098413"><ele>144.66666666666669</ele><time>2026-04-12T06:43:30Z</time></trkpt><trkpt lat="45.71793789784338" lon="10.939977701942766"><ele>145.0</ele><time>2026-04-12T06:43:31Z</time></trkpt><trkpt lat="45.718107823383626" lon="10.940063190982015"><ele>147.0</ele><time>2026-04-12T06:43:32Z</time></trkpt><trkpt lat="45.71828386847707" lon="10.94014155300815"><ele>149.0</ele><time>2026-04-12T06:43:33Z</time></trkpt><trkpt lat="45.718465717274626" lon="10.940199198575272"><ele>151.0</ele><time>2026-04-12T06:43:34Z</time></trkpt><trkpt lat="45.718656545060334" lon="10.940226225759504"><ele>151.0</ele><time>2026-04-12T06:43:35Z</time></trkpt><trkpt lat="45.71885635288471" lon="10.940237866369586"><ele>151.0</ele><time>2026-04-12T06:43:36Z</time></trkpt><trkpt lat="45.71905177787376" lon="10.940254563054383"><ele>151.0</ele><time>2026-04-12T06:43:37Z</time></trkpt><trkpt lat="45.719249864416206" lon="10.94028147948193"><ele>150.66666666666669</ele><time>2026-04-12T06:43:38Z</time></trkpt><trkpt lat="45.71944609021779" lon="10.940318113203219"><ele>150.33333333333334</ele><time>2026-04-12T06:43:39Z</time></trkpt><trkpt lat="45.719651786900734" lon="10.940368948346816"><ele>150.0</ele><time>2026-04-12T06:43:40Z</time></trkpt><trkpt lat="45.71985316795397" lon="10.940432033649966"><ele>150.0</ele><time>2026-04-12T06:43:41Z</time></trkpt><trkpt lat="45.72005525770555" lon="10.940495402557652"><ele>150.0</ele><time>2026-04-12T06:43:42Z</time></trkpt><trkpt lat="45.720262534620375" lon="10.94055035377542"><ele>150.0</ele><time>2026-04-12T06:43:43Z</time></trkpt><trkpt lat="45.72046776989087" lon="10.940608770589323"><ele>149.66666666666666</ele><time>2026-04-12T06:43:44Z</time></trkpt><trkpt lat="45.72066955308289" lon="10.940668652510649"><ele>149.33333333333331</ele><time>2026-04-12T06:43:45Z</time></trkpt><trkpt lat="45.720871736421344" lon="10.94072748198107"><ele>149.0</ele><time>2026-04-12T06:43:46Z</time></trkpt><trkpt lat="45.7210664239408" lon="10.940793111007444"><ele>149.0</ele><time>2026-04-12T06:43:47Z</time></trkpt><trkpt lat="45.721254319405844" lon="10.94086652811918"><ele>149.0</ele><time>2026-04-12T06:43:48Z</time></trkpt><trkpt lat="45.72144528168009" lon="10.940959095472886"><ele>149.0</ele><time>2026-04-12T06:43:49Z</time></trkpt><trkpt lat="45.721624279522025" lon="10.941083390909771"><ele>151.0</ele><time>2026-04-12T06:43:50Z</time></trkpt><trkpt lat="45.721802120300616" lon="10.941213244643146"><ele>153.0</ele><time>2026-04-12T06:43:51Z</time></trkpt><trkpt lat="45.72197571928643" lon="10.941335374236093"><ele>155.0</ele><time>2026-04-12T06:43:52Z</time></trkpt><trkpt lat="45.722145942083955" lon="10.941455420384745"><ele>155.0</ele><time>2026-04-12T06:43:53Z</time></trkpt><trkpt lat="45.722316501130834" lon="10.941573294394766"><ele>155.0</ele><time>2026-04-12T06:43:54Z</time></trkpt><trkpt lat="45.72248517261877" lon="10.941695743014515"><ele>155.0</ele><time>2026-04-12T06:43:55Z</time></trkpt><trkpt lat="45.7226478915439" lon="10.941829872313125"><ele>154.33333333333331</ele><time>2026-04-12T06:43:56Z</time></trkpt><trkpt lat="45.72281001507879" lon="10.941985228534055"><ele>153.66666666666666</ele><time>2026-04-12T06:43:57Z</time></trkpt><trkpt lat="45.72296765699636" lon="10.94215175051879"><ele>153.0</ele><time>2026-04-12T06:43:58Z</time></trkpt><trkpt lat="45.72312935943592" lon="10.942325969268532"><ele>153.0</ele><time>2026-04-12T06:43:58.999Z</time></trkpt><trkpt lat="45.723286043013395" lon="10.942514741068193"><ele>153.0</ele><time>2026-04-12T06:43:59.999Z</time></trkpt><trkpt lat="45.72344154621737" lon="10.942706373576137"><ele>153.0</ele><time>2026-04-12T06:44:00.999Z</time></trkpt><trkpt lat="45.723598501730315" lon="10.94289598921505"><ele>153.33333333333334</ele><time>2026-04-12T06:44:01.999Z</time></trkpt><trkpt lat="45.723769276443754" lon="10.943072797970208"><ele>153.66666666666669</ele><time>2026-04-12T06:44:02.999Z</time></trkpt><trkpt lat="45.72395088963782" lon="10.943225087945994"><ele>154.0</ele><time>2026-04-12T06:44:03.999Z</time></trkpt><trkpt lat="45.72413770575998" lon="10.94335351793301"><ele>154.66666666666669</ele><time>2026-04-12T06:44:04.999Z</time></trkpt><trkpt lat="45.72432899998" lon="10.94346298950632"><ele>155.33333333333334</ele><time>2026-04-12T06:44:05.999Z</time></trkpt><trkpt lat="45.724517968391226" lon="10.943561754672833"><ele>156.0</ele><time>2026-04-12T06:44:06.999Z</time></trkpt><trkpt lat="45.7247016921135" lon="10.94366488668061"><ele>156.0</ele><time>2026-04-12T06:44:07.999Z</time></trkpt><trkpt lat="45.72488447279321" lon="10.943780332926881"><ele>156.0</ele><time>2026-04-12T06:44:08.999Z</time></trkpt><trkpt lat="45.72505875120662" lon="10.943931926826092"><ele>156.0</ele><time>2026-04-12T06:44:09.999Z</time></trkpt><trkpt lat="45.72521532106244" lon="10.944100908905629"><ele>155.33333333333334</ele><time>2026-04-12T06:44:10.999Z</time></trkpt><trkpt lat="45.72535679893061" lon="10.944294541822444"><ele>154.66666666666669</ele><time>2026-04-12T06:44:11.999Z</time></trkpt><trkpt lat="45.72549001011871" lon="10.944497075570583"><ele>154.0</ele><time>2026-04-12T06:44:12.999Z</time></trkpt><trkpt lat="45.72562609207224" lon="10.944708261746278"><ele>154.0</ele><time>2026-04-12T06:44:13.999Z</time></trkpt><trkpt lat="45.72574580560037" lon="10.944933658705205"><ele>154.0</ele><time>2026-04-12T06:44:14.999Z</time></trkpt><trkpt lat="45.72585607066657" lon="10.945172257716726"><ele>154.0</ele><time>2026-04-12T06:44:15.999Z</time></trkpt><trkpt lat="45.725954487233814" lon="10.945416831203007"><ele>154.33333333333334</ele><time>2026-04-12T06:44:16.999Z</time></trkpt><trkpt lat="45.726049278240104" lon="10.945657741440982"><ele>154.66666666666666</ele><time>2026-04-12T06:44:17.999Z</time></trkpt><trkpt lat="45.726161626461" lon="10.945889097460105"><ele>155.0</ele><time>2026-04-12T06:44:18.999Z</time></trkpt><trkpt lat="45.72629662281768" lon="10.946109578190304"><ele>155.0</ele><time>2026-04-12T06:44:19.999Z</time></trkpt><trkpt lat="45.72643905207522" lon="10.946313514587969"><ele>155.0</ele><time>2026-04-12T06:44:20.999Z</time></trkpt><trkpt lat="45.72660010456345" lon="10.946498195285372"><ele>155.0</ele><time>2026-04-12T06:44:21.999Z</time></trkpt><trkpt lat="45.72677035684153" lon="10.946671475133874"><ele>155.33333333333331</ele><time>2026-04-12T06:44:22.999Z</time></trkpt><trkpt lat="45.726942509773224" lon="10.946838440865056"><ele>155.66666666666666</ele><time>2026-04-12T06:44:23.999Z</time></trkpt><trkpt lat="45.72711224556476" lon="10.947011916866243"><ele>156.0</ele><time>2026-04-12T06:44:24.999Z</time></trkpt><trkpt lat="45.727289669888094" lon="10.947177057265323"><ele>156.0</ele><time>2026-04-12T06:44:25.999Z</time></trkpt><trkpt lat="45.72746105736413" lon="10.947328778650915"><ele>156.0</ele><time>2026-04-12T06:44:26.999Z</time></trkpt><trkpt lat="45.72763359491092" lon="10.947491772325403"><ele>156.0</ele><time>2026-04-12T06:44:27.999Z</time></trkpt><trkpt lat="45.727805351886275" lon="10.947649060955412"><ele>155.66666666666666</ele><time>2026-04-12T06:44:28.999Z</time></trkpt><trkpt lat="45.72796798942343" lon="10.94780632782055"><ele>155.33333333333331</ele><time>2026-04-12T06:44:29.999Z</time></trkpt><trkpt lat="45.72812955408247" lon="10.947951166564426"><ele>155.0</ele><time>2026-04-12T06:44:30.999Z</time></trkpt><trkpt lat="45.72829625158699" lon="10.948113675055342"><ele>155.0</ele><time>2026-04-12T06:44:31.999Z</time></trkpt><trkpt lat="45.728462405043956" lon="10.948309869885655"><ele>155.0</ele><time>2026-04-12T06:44:32.999Z</time></trkpt><trkpt lat="45.728626146436994" lon="10.948523351642924"><ele>155.0</ele><time>2026-04-12T06:44:33.999Z</time></trkpt><trkpt lat="45.72878078865729" lon="10.94875008945419"><ele>154.33333333333331</ele><time>2026-04-12T06:44:34.999Z</time></trkpt><trkpt lat="45.72892676668694" lon="10.948970834004642"><ele>153.66666666666666</ele><time>2026-04-12T06:44:35.999Z</time></trkpt><trkpt lat="45.729078802579735" lon="10.949188750212667"><ele>153.0</ele><time>2026-04-12T06:44:36.999Z</time></trkpt><trkpt lat="45.7292334232102" lon="10.949401084822265"><ele>153.0</ele><time>2026-04-12T06:44:37.999Z</time></trkpt><trkpt lat="45.72938780556996" lon="10.94961935998068"><ele>153.0</ele><time>2026-04-12T06:44:38.999Z</time></trkpt><trkpt lat="45.729543266176314" lon="10.949835525944586"><ele>153.0</ele><time>2026-04-12T06:44:39.999Z</time></trkpt><trkpt lat="45.72969831226526" lon="10.950052050848802"><ele>153.33333333333334</ele><time>2026-04-12T06:44:40.999Z</time></trkpt><trkpt lat="45.72985322859032" lon="10.950270892606202"><ele>153.66666666666669</ele><time>2026-04-12T06:44:41.999Z</time></trkpt><trkpt lat="45.73000080114553" lon="10.95048221138082"><ele>154.0</ele><time>2026-04-12T06:44:42.999Z</time></trkpt><trkpt lat="45.730151492732574" lon="10.950691594844677"><ele>153.33333333333334</ele><time>2026-04-12T06:44:43.999Z</time></trkpt><trkpt lat="45.73030954128713" lon="10.950906835886178"><ele>152.66666666666666</ele><time>2026-04-12T06:44:44.999Z</time></trkpt><trkpt lat="45.73046173958196" lon="10.951117266466914"><ele>152.0</ele><time>2026-04-12T06:44:45.999Z</time></trkpt><trkpt lat="45.73061420318083" lon="10.951327701239872"><ele>152.0</ele><time>2026-04-12T06:44:46.999Z</time></trkpt><trkpt lat="45.73076516704125" lon="10.951530878325944"><ele>152.0</ele><time>2026-04-12T06:44:47.999Z</time></trkpt><trkpt lat="45.73090436091698" lon="10.951727786028906"><ele>152.0</ele><time>2026-04-12T06:44:48.999Z</time></trkpt><trkpt lat="45.731037668738956" lon="10.951927594040487"><ele>152.66666666666666</ele><time>2026-04-12T06:44:49.999Z</time></trkpt><trkpt lat="45.731165646291956" lon="10.952140214955902"><ele>153.33333333333334</ele><time>2026-04-12T06:44:50.999Z</time></trkpt><trkpt lat="45.73128242816249" lon="10.952358952566431"><ele>154.0</ele><time>2026-04-12T06:44:51.998Z</time></trkpt><trkpt lat="45.73138039717084" lon="10.952593039816472"><ele>154.0</ele><time>2026-04-12T06:44:52.998Z</time></trkpt><trkpt lat="45.73147497193234" lon="10.952837110731917"><ele>154.0</ele><time>2026-04-12T06:44:53.998Z</time></trkpt><trkpt lat="45.73153999927633" lon="10.953076538474889"><ele>154.0</ele><time>2026-04-12T06:44:54.998Z</time></trkpt><trkpt lat="45.73160088551989" lon="10.953307710376857"><ele>155.0</ele><time>2026-04-12T06:44:55.998Z</time></trkpt><trkpt lat="45.731670837806064" lon="10.953545420144847"><ele>156.0</ele><time>2026-04-12T06:44:56.998Z</time></trkpt><trkpt lat="45.731745866094066" lon="10.953782564752071"><ele>157.0</ele><time>2026-04-12T06:44:57.998Z</time></trkpt><trkpt lat="45.73184081194861" lon="10.954013975338793"><ele>153.66666666666669</ele><time>2026-04-12T06:44:58.998Z</time></trkpt><trkpt lat="45.73193532286553" lon="10.95423774624412"><ele>150.33333333333334</ele><time>2026-04-12T06:44:59.998Z</time></trkpt><trkpt lat="45.73203313244351" lon="10.954465438972035"><ele>147.0</ele><time>2026-04-12T06:45:00.998Z</time></trkpt><trkpt lat="45.7321451153594" lon="10.954687265292167"><ele>147.0</ele><time>2026-04-12T06:45:01.998Z</time></trkpt><trkpt lat="45.732240480690294" lon="10.954917111447381"><ele>147.0</ele><time>2026-04-12T06:45:02.998Z</time></trkpt><trkpt lat="45.73233445479612" lon="10.955140554748926"><ele>147.0</ele><time>2026-04-12T06:45:03.998Z</time></trkpt><trkpt lat="45.73243329439355" lon="10.955360488123029"><ele>146.66666666666666</ele><time>2026-04-12T06:45:04.998Z</time></trkpt><trkpt lat="45.732531270406" lon="10.955582542794959"><ele>146.33333333333331</ele><time>2026-04-12T06:45:05.998Z</time></trkpt><trkpt lat="45.73262926253103" lon="10.955802039150711"><ele>146.0</ele><time>2026-04-12T06:45:06.998Z</time></trkpt><trkpt lat="45.732727528982885" lon="10.956030174312648"><ele>146.0</ele><time>2026-04-12T06:45:07.998Z</time></trkpt><trkpt lat="45.73282738466306" lon="10.956260794442441"><ele>146.0</ele><time>2026-04-12T06:45:08.998Z</time></trkpt><trkpt lat="45.73293251943844" lon="10.956489632805088"><ele>146.0</ele><time>2026-04-12T06:45:09.998Z</time></trkpt><trkpt lat="45.73303082372555" lon="10.956719988602842"><ele>148.0</ele><time>2026-04-12T06:45:10.998Z</time></trkpt><trkpt lat="45.73313229547847" lon="10.956948496168485"><ele>150.0</ele><time>2026-04-12T06:45:11.998Z</time></trkpt><trkpt lat="45.73323626263977" lon="10.957180017080724"><ele>152.0</ele><time>2026-04-12T06:45:12.998Z</time></trkpt><trkpt lat="45.73333730111348" lon="10.957411364430268"><ele>154.0</ele><time>2026-04-12T06:45:13.998Z</time></trkpt><trkpt lat="45.73343820753537" lon="10.957634229909358"><ele>156.0</ele><time>2026-04-12T06:45:14.998Z</time></trkpt><trkpt lat="45.73353781814015" lon="10.957866396867836"><ele>158.0</ele><time>2026-04-12T06:45:15.998Z</time></trkpt><trkpt lat="45.73363885681766" lon="10.958100811288906"><ele>155.33333333333331</ele><time>2026-04-12T06:45:16.998Z</time></trkpt><trkpt lat="45.73374927017365" lon="10.958321283896883"><ele>152.66666666666666</ele><time>2026-04-12T06:45:17.998Z</time></trkpt><trkpt lat="45.73385919934574" lon="10.958549891026387"><ele>150.0</ele><time>2026-04-12T06:45:18.998Z</time></trkpt><trkpt lat="45.73397799322921" lon="10.958775300313954"><ele>150.0</ele><time>2026-04-12T06:45:19.998Z</time></trkpt><trkpt lat="45.734083876808285" lon="10.959013852914358"><ele>150.0</ele><time>2026-04-12T06:45:20.998Z</time></trkpt><trkpt lat="45.73421825536147" lon="10.959228839746551"><ele>150.0</ele><time>2026-04-12T06:45:21.998Z</time></trkpt><trkpt lat="45.73433887040308" lon="10.95945561044916"><ele>149.66666666666666</ele><time>2026-04-12T06:45:22.998Z</time></trkpt><trkpt lat="45.73446156657625" lon="10.959686077771368"><ele>149.33333333333331</ele><time>2026-04-12T06:45:23.998Z</time></trkpt><trkpt lat="45.734584877503" lon="10.959921406042705"><ele>149.0</ele><time>2026-04-12T06:45:24.998Z</time></trkpt><trkpt lat="45.73470500478122" lon="10.960154051176016"><ele>149.0</ele><time>2026-04-12T06:45:26Z</time></trkpt><trkpt lat="45.73483089498771" lon="10.960387584702596"><ele>149.0</ele><time>2026-04-12T06:45:27Z</time></trkpt><trkpt lat="45.73495985782467" lon="10.960625961958785"><ele>149.0</ele><time>2026-04-12T06:45:28Z</time></trkpt><trkpt lat="45.73508826684399" lon="10.960866995737875"><ele>145.33333333333331</ele><time>2026-04-12T06:45:29Z</time></trkpt><trkpt lat="45.73521908329745" lon="10.961110434947626"><ele>141.66666666666666</ele><time>2026-04-12T06:45:30Z</time></trkpt><trkpt lat="45.735348314709796" lon="10.961355167597027"><ele>138.0</ele><time>2026-04-12T06:45:31Z</time></trkpt><trkpt lat="45.73547905726135" lon="10.961597119943118"><ele>141.66666666666666</ele><time>2026-04-12T06:45:32Z</time></trkpt><trkpt lat="45.73561207225228" lon="10.96183961285899"><ele>145.33333333333331</ele><time>2026-04-12T06:45:33Z</time></trkpt><trkpt lat="45.73573985971889" lon="10.962080229800037"><ele>149.0</ele><time>2026-04-12T06:45:34Z</time></trkpt><trkpt lat="45.7358662896963" lon="10.962324293309694"><ele>143.66666666666666</ele><time>2026-04-12T06:45:35Z</time></trkpt><trkpt lat="45.73598654667816" lon="10.962568709336301"><ele>138.33333333333334</ele><time>2026-04-12T06:45:36Z</time></trkpt><trkpt lat="45.736095837408335" lon="10.962825443074353"><ele>133.0</ele><time>2026-04-12T06:45:37Z</time></trkpt><trkpt lat="45.73617240658476" lon="10.963108812758684"><ele>134.66666666666669</ele><time>2026-04-12T06:45:38Z</time></trkpt><trkpt lat="45.73625429145815" lon="10.963388203398825"><ele>136.33333333333334</ele><time>2026-04-12T06:45:39Z</time></trkpt><trkpt lat="45.73634517131883" lon="10.963666130881567"><ele>138.0</ele><time>2026-04-12T06:45:40Z</time></trkpt><trkpt lat="45.73641998957101" lon="10.963954704739022"><ele>139.66666666666666</ele><time>2026-04-12T06:45:41Z</time></trkpt><trkpt lat="45.736499355445645" lon="10.96423067310138"><ele>141.33333333333331</ele><time>2026-04-12T06:45:42Z</time></trkpt><trkpt lat="45.73655010837043" lon="10.964503783988597"><ele>143.0</ele><time>2026-04-12T06:45:43Z</time></trkpt><trkpt lat="45.73659769144203" lon="10.964759553125953"><ele>143.0</ele><time>2026-04-12T06:45:44Z</time></trkpt><trkpt lat="45.736640124878654" lon="10.965012661268604"><ele>143.0</ele><time>2026-04-12T06:45:45Z</time></trkpt><trkpt lat="45.736692449220754" lon="10.965253668731002"><ele>143.0</ele><time>2026-04-12T06:45:46Z</time></trkpt><trkpt lat="45.73672843977689" lon="10.96549981542539"><ele>146.0</ele><time>2026-04-12T06:45:47Z</time></trkpt><trkpt lat="45.736762611945124" lon="10.965753238447556"><ele>149.0</ele><time>2026-04-12T06:45:48Z</time></trkpt><trkpt lat="45.73680447902551" lon="10.966010453530874"><ele>152.0</ele><time>2026-04-12T06:45:49Z</time></trkpt><trkpt lat="45.736842790620095" lon="10.966279072860184"><ele>153.33333333333331</ele><time>2026-04-12T06:45:50Z</time></trkpt><trkpt lat="45.73687740552015" lon="10.966542817885834"><ele>154.66666666666666</ele><time>2026-04-12T06:45:51Z</time></trkpt><trkpt lat="45.73690735330165" lon="10.96680390700566"><ele>156.0</ele><time>2026-04-12T06:45:52Z</time></trkpt><trkpt lat="45.73693433096363" lon="10.967069363949633"><ele>150.33333333333334</ele><time>2026-04-12T06:45:53Z</time></trkpt><trkpt lat="45.73696260816716" lon="10.967336482900963"><ele>144.66666666666669</ele><time>2026-04-12T06:45:54Z</time></trkpt><trkpt lat="45.73700120915277" lon="10.96759829887575"><ele>139.0</ele><time>2026-04-12T06:45:55Z</time></trkpt><trkpt lat="45.73703490459767" lon="10.967863579966632"><ele>139.0</ele><time>2026-04-12T06:45:56Z</time></trkpt><trkpt lat="45.73707332967652" lon="10.968125214259356"><ele>139.0</ele><time>2026-04-12T06:45:57Z</time></trkpt><trkpt lat="45.737105571221576" lon="10.968385738465443"><ele>139.0</ele><time>2026-04-12T06:45:58Z</time></trkpt><trkpt lat="45.73713611958412" lon="10.968639720011145"><ele>139.0</ele><time>2026-04-12T06:45:59Z</time></trkpt><trkpt lat="45.73715786962243" lon="10.968896242795564"><ele>139.0</ele><time>2026-04-12T06:46:00Z</time></trkpt><trkpt lat="45.737185143250784" lon="10.969152536556022"><ele>139.0</ele><time>2026-04-12T06:46:01Z</time></trkpt><trkpt lat="45.737207465142866" lon="10.969412662822306"><ele>139.33333333333334</ele><time>2026-04-12T06:46:02Z</time></trkpt><trkpt lat="45.737251797384886" lon="10.969668455054972"><ele>139.66666666666666</ele><time>2026-04-12T06:46:03Z</time></trkpt><trkpt lat="45.73730663654209" lon="10.969919786335382"><ele>140.0</ele><time>2026-04-12T06:46:04Z</time></trkpt><trkpt lat="45.737387633650265" lon="10.970166945102122"><ele>141.33333333333331</ele><time>2026-04-12T06:46:05Z</time></trkpt><trkpt lat="45.73748516812638" lon="10.970402154384814"><ele>142.66666666666666</ele><time>2026-04-12T06:46:05.999Z</time></trkpt><trkpt lat="45.737600655294244" lon="10.970626620413592"><ele>144.0</ele><time>2026-04-12T06:46:06.999Z</time></trkpt><trkpt lat="45.73773482565494" lon="10.970829353120486"><ele>143.33333333333334</ele><time>2026-04-12T06:46:07.999Z</time></trkpt><trkpt lat="45.73787653116864" lon="10.971027486996531"><ele>142.66666666666669</ele><time>2026-04-12T06:46:08.999Z</time></trkpt><trkpt lat="45.738009247988366" lon="10.971229566052264"><ele>142.0</ele><time>2026-04-12T06:46:09.999Z</time></trkpt><trkpt lat="45.73814081608591" lon="10.971442847548428"><ele>142.0</ele><time>2026-04-12T06:46:10.999Z</time></trkpt><trkpt lat="45.7382774171434" lon="10.971659244668892"><ele>142.0</ele><time>2026-04-12T06:46:11.999Z</time></trkpt><trkpt lat="45.73841497204307" lon="10.971888302659236"><ele>142.0</ele><time>2026-04-12T06:46:12.999Z</time></trkpt><trkpt lat="45.73854529422119" lon="10.972130464059063"><ele>141.33333333333334</ele><time>2026-04-12T06:46:13.999Z</time></trkpt><trkpt lat="45.73867139061719" lon="10.972373898585273"><ele>140.66666666666666</ele><time>2026-04-12T06:46:14.999Z</time></trkpt><trkpt lat="45.73879358715607" lon="10.972613983423598"><ele>140.0</ele><time>2026-04-12T06:46:15.999Z</time></trkpt><trkpt lat="45.738904540169315" lon="10.97284215871922"><ele>141.33333333333331</ele><time>2026-04-12T06:46:16.999Z</time></trkpt><trkpt lat="45.73902498254985" lon="10.973069176909233"><ele>142.66666666666666</ele><time>2026-04-12T06:46:17.999Z</time></trkpt><trkpt lat="45.73913992890128" lon="10.973297754103484"><ele>144.0</ele><time>2026-04-12T06:46:18.999Z</time></trkpt><trkpt lat="45.73925293218243" lon="10.973527610355141"><ele>143.66666666666666</ele><time>2026-04-12T06:46:19.999Z</time></trkpt><trkpt lat="45.73936091928488" lon="10.973760151410266"><ele>143.33333333333331</ele><time>2026-04-12T06:46:20.999Z</time></trkpt><trkpt lat="45.739438790008705" lon="10.97401416303564"><ele>143.0</ele><time>2026-04-12T06:46:21.999Z</time></trkpt><trkpt lat="45.739490766855475" lon="10.974274489046058"><ele>143.0</ele><time>2026-04-12T06:46:22.999Z</time></trkpt><trkpt lat="45.73953985228244" lon="10.974533203018908"><ele>143.0</ele><time>2026-04-12T06:46:23.999Z</time></trkpt><trkpt lat="45.739636787174206" lon="10.974775263181671"><ele>143.0</ele><time>2026-04-12T06:46:24.999Z</time></trkpt><trkpt lat="45.73975353777565" lon="10.974996264436625"><ele>144.66666666666666</ele><time>2026-04-12T06:46:25.999Z</time></trkpt><trkpt lat="45.73986367384696" lon="10.975194345349696"><ele>146.33333333333334</ele><time>2026-04-12T06:46:26.999Z</time></trkpt><trkpt lat="45.73996067623333" lon="10.975381134353158"><ele>148.0</ele><time>2026-04-12T06:46:27.999Z</time></trkpt><trkpt lat="45.74004699850427" lon="10.9755583554142"><ele>148.0</ele><time>2026-04-12T06:46:28.999Z</time></trkpt><trkpt lat="45.74012625594143" lon="10.975742913206822"><ele>148.0</ele><time>2026-04-12T06:46:29.999Z</time></trkpt><trkpt lat="45.740207671555524" lon="10.975938700186916"><ele>148.0</ele><time>2026-04-12T06:46:30.999Z</time></trkpt><trkpt lat="45.74029005868219" lon="10.976140582305518"><ele>148.0</ele><time>2026-04-12T06:46:31.999Z</time></trkpt><trkpt lat="45.74037692538281" lon="10.976349172858008"><ele>148.0</ele><time>2026-04-12T06:46:32.999Z</time></trkpt><trkpt lat="45.74047093192058" lon="10.97655538401809"><ele>148.0</ele><time>2026-04-12T06:46:33.999Z</time></trkpt><trkpt lat="45.740563581504716" lon="10.976757824064997"><ele>148.0</ele><time>2026-04-12T06:46:34.999Z</time></trkpt><trkpt lat="45.74066199474139" lon="10.97695781549075"><ele>148.0</ele><time>2026-04-12T06:46:35.999Z</time></trkpt><trkpt lat="45.74075925047761" lon="10.977152820372668"><ele>148.0</ele><time>2026-04-12T06:46:36.999Z</time></trkpt><trkpt lat="45.7408405532023" lon="10.977349909048058"><ele>148.66666666666669</ele><time>2026-04-12T06:46:37.999Z</time></trkpt><trkpt lat="45.7409199046367" lon="10.977551342827317"><ele>149.33333333333334</ele><time>2026-04-12T06:46:38.999Z</time></trkpt><trkpt lat="45.74100344073826" lon="10.977763543455692"><ele>150.0</ele><time>2026-04-12T06:46:39.999Z</time></trkpt><trkpt lat="45.74109573163071" lon="10.977978306893004"><ele>149.0</ele><time>2026-04-12T06:46:40.999Z</time></trkpt><trkpt lat="45.74118767779413" lon="10.97818945230381"><ele>148.0</ele><time>2026-04-12T06:46:41.999Z</time></trkpt><trkpt lat="45.74128485338631" lon="10.978384623604"><ele>147.0</ele><time>2026-04-12T06:46:42.999Z</time></trkpt><trkpt lat="45.74139314847804" lon="10.978562520447547"><ele>147.0</ele><time>2026-04-12T06:46:43.999Z</time></trkpt><trkpt lat="45.74151022017163" lon="10.978722604306393"><ele>147.0</ele><time>2026-04-12T06:46:44.999Z</time></trkpt><trkpt lat="45.741633878944945" lon="10.97888058839896"><ele>147.0</ele><time>2026-04-12T06:46:45.999Z</time></trkpt><trkpt lat="45.74175282191506" lon="10.979040995005548"><ele>147.0</ele><time>2026-04-12T06:46:46.999Z</time></trkpt><trkpt lat="45.741872450136064" lon="10.979201898024789"><ele>147.0</ele><time>2026-04-12T06:46:47.999Z</time></trkpt><trkpt lat="45.741990908304906" lon="10.9793765780839"><ele>147.0</ele><time>2026-04-12T06:46:48.999Z</time></trkpt><trkpt lat="45.74211236027254" lon="10.97955122293408"><ele>147.0</ele><time>2026-04-12T06:46:49.999Z</time></trkpt><trkpt lat="45.74222558946282" lon="10.979724356817766"><ele>147.0</ele><time>2026-04-12T06:46:50.999Z</time></trkpt><trkpt lat="45.74233791906816" lon="10.979904449527007"><ele>147.0</ele><time>2026-04-12T06:46:51.999Z</time></trkpt><trkpt lat="45.74244982952159" lon="10.98008392631612"><ele>148.0</ele><time>2026-04-12T06:46:52.999Z</time></trkpt><trkpt lat="45.74256271077313" lon="10.980261257014883"><ele>149.0</ele><time>2026-04-12T06:46:53.999Z</time></trkpt><trkpt lat="45.74266943067404" lon="10.980451085910083"><ele>150.0</ele><time>2026-04-12T06:46:54.999Z</time></trkpt><trkpt lat="45.74277948649569" lon="10.980640385601822"><ele>147.66666666666666</ele><time>2026-04-12T06:46:55.999Z</time></trkpt><trkpt lat="45.74288054847016" lon="10.980848435169825"><ele>145.33333333333331</ele><time>2026-04-12T06:46:56.999Z</time></trkpt><trkpt lat="45.742969153799095" lon="10.981069101474409"><ele>143.0</ele><time>2026-04-12T06:46:57.999Z</time></trkpt><trkpt lat="45.743057042319606" lon="10.981292674561244"><ele>143.0</ele><time>2026-04-12T06:46:58.998Z</time></trkpt><trkpt lat="45.74314470164205" lon="10.98152177852505"><ele>143.0</ele><time>2026-04-12T06:46:59.998Z</time></trkpt><trkpt lat="45.743230317797185" lon="10.981763298779205"><ele>143.0</ele><time>2026-04-12T06:47:00.998Z</time></trkpt><trkpt lat="45.743316405134046" lon="10.982013998436868"><ele>143.66666666666666</ele><time>2026-04-12T06:47:01.998Z</time></trkpt><trkpt lat="45.743397127811136" lon="10.982260511282762"><ele>144.33333333333334</ele><time>2026-04-12T06:47:02.998Z</time></trkpt><trkpt lat="45.74347768627189" lon="10.982521477709696"><ele>145.0</ele><time>2026-04-12T06:47:03.998Z</time></trkpt><trkpt lat="45.743558670662274" lon="10.982779916627154"><ele>144.33333333333334</ele><time>2026-04-12T06:47:04.998Z</time></trkpt><trkpt lat="45.74364174907936" lon="10.983041242831737"><ele>143.66666666666666</ele><time>2026-04-12T06:47:05.998Z</time></trkpt><trkpt lat="45.74371560600279" lon="10.983309484233159"><ele>143.0</ele><time>2026-04-12T06:47:06.998Z</time></trkpt><trkpt lat="45.74378674085376" lon="10.983583447860363"><ele>143.0</ele><time>2026-04-12T06:47:07.998Z</time></trkpt><trkpt lat="45.74385345991264" lon="10.983853124384856"><ele>143.0</ele><time>2026-04-12T06:47:08.998Z</time></trkpt><trkpt lat="45.74390410564581" lon="10.984128818278945"><ele>143.0</ele><time>2026-04-12T06:47:09.998Z</time></trkpt><trkpt lat="45.74395884830647" lon="10.984404950378764"><ele>143.66666666666666</ele><time>2026-04-12T06:47:10.998Z</time></trkpt><trkpt lat="45.74401295844747" lon="10.98468156371352"><ele>144.33333333333334</ele><time>2026-04-12T06:47:11.998Z</time></trkpt><trkpt lat="45.74407689744019" lon="10.984943767956265"><ele>145.0</ele><time>2026-04-12T06:47:12.998Z</time></trkpt><trkpt lat="45.744177722271544" lon="10.985199669501444"><ele>146.5</ele><time>2026-04-12T06:47:13.998Z</time></trkpt><trkpt lat="45.744320110147775" lon="10.985461086761724"><ele>148.0</ele><time>2026-04-12T06:47:14.998Z</time></trkpt><trkpt lat="45.74450113201814" lon="10.985719914963177"><ele>146.0</ele><time>2026-04-12T06:47:15.998Z</time></trkpt><trkpt lat="45.7446746295298" lon="10.985962378097316"><ele>144.0</ele><time>2026-04-12T06:47:16.998Z</time></trkpt><trkpt lat="45.74481961307736" lon="10.98620539040541"><ele>144.0</ele><time>2026-04-12T06:47:17.998Z</time></trkpt><trkpt lat="45.74496138421835" lon="10.98645384730702"><ele>144.0</ele><time>2026-04-12T06:47:18.998Z</time></trkpt><trkpt lat="45.74511269533502" lon="10.986698032926958"><ele>144.0</ele><time>2026-04-12T06:47:19.998Z</time></trkpt><trkpt lat="45.7452687233844" lon="10.986929968577112"><ele>144.0</ele><time>2026-04-12T06:47:20.998Z</time></trkpt><trkpt lat="45.74544049873802" lon="10.987140057254127"><ele>144.0</ele><time>2026-04-12T06:47:21.998Z</time></trkpt><trkpt lat="45.745630274538975" lon="10.98732653803869"><ele>144.0</ele><time>2026-04-12T06:47:22.998Z</time></trkpt><trkpt lat="45.74582607998509" lon="10.987503645913879"><ele>144.0</ele><time>2026-04-12T06:47:23.998Z</time></trkpt><trkpt lat="45.746023451518504" lon="10.98768484792924"><ele>144.0</ele><time>2026-04-12T06:47:24.998Z</time></trkpt><trkpt lat="45.74621953689357" lon="10.987863414595042"><ele>144.0</ele><time>2026-04-12T06:47:25.998Z</time></trkpt><trkpt lat="45.74639999983036" lon="10.988039863847604"><ele>144.0</ele><time>2026-04-12T06:47:26.998Z</time></trkpt><trkpt lat="45.74656938257197" lon="10.988220922148656"><ele>144.0</ele><time>2026-04-12T06:47:27.998Z</time></trkpt><trkpt lat="45.74672885969003" lon="10.988428484887768"><ele>143.66666666666666</ele><time>2026-04-12T06:47:28.998Z</time></trkpt><trkpt lat="45.74684970608603" lon="10.988685436294134"><ele>143.33333333333331</ele><time>2026-04-12T06:47:29.998Z</time></trkpt><trkpt lat="45.746949326063366" lon="10.988960246132272"><ele>143.0</ele><time>2026-04-12T06:47:30.998Z</time></trkpt><trkpt lat="45.747050455374335" lon="10.989221362811195"><ele>143.0</ele><time>2026-04-12T06:47:32Z</time></trkpt><trkpt lat="45.74712692819764" lon="10.989488329892307"><ele>143.0</ele><time>2026-04-12T06:47:33Z</time></trkpt><trkpt lat="45.747222459389725" lon="10.989740140811783"><ele>143.0</ele><time>2026-04-12T06:47:34Z</time></trkpt><trkpt lat="45.74733075118656" lon="10.989958913958755"><ele>144.33333333333331</ele><time>2026-04-12T06:47:35Z</time></trkpt><trkpt lat="45.7474401103403" lon="10.990141529598198"><ele>145.66666666666666</ele><time>2026-04-12T06:47:36Z</time></trkpt><trkpt lat="45.747552492233595" lon="10.99030626685167"><ele>147.0</ele><time>2026-04-12T06:47:37Z</time></trkpt><trkpt lat="45.747667425509256" lon="10.990455220083362"><ele>145.0</ele><time>2026-04-12T06:47:38Z</time></trkpt><trkpt lat="45.74779040939282" lon="10.990589888572952"><ele>143.0</ele><time>2026-04-12T06:47:39Z</time></trkpt><trkpt lat="45.747913524561866" lon="10.990708173971708"><ele>141.0</ele><time>2026-04-12T06:47:40Z</time></trkpt><trkpt lat="45.74805622142976" lon="10.990784342958309"><ele>141.0</ele><time>2026-04-12T06:47:41Z</time></trkpt><trkpt lat="45.74820034237878" lon="10.990839585830203"><ele>141.0</ele><time>2026-04-12T06:47:42Z</time></trkpt><trkpt lat="45.74834418698785" lon="10.99090448516251"><ele>141.0</ele><time>2026-04-12T06:47:43Z</time></trkpt><trkpt lat="45.748481332708344" lon="10.991008063604006"><ele>141.0</ele><time>2026-04-12T06:47:44Z</time></trkpt><trkpt lat="45.748595164591016" lon="10.991193018112947"><ele>141.0</ele><time>2026-04-12T06:47:45Z</time></trkpt><trkpt lat="45.74872089048472" lon="10.991349048947319"><ele>141.0</ele><time>2026-04-12T06:47:46Z</time></trkpt><trkpt lat="45.748823408339746" lon="10.991528892289933"><ele>141.33333333333334</ele><time>2026-04-12T06:47:47Z</time></trkpt><trkpt lat="45.74892927977809" lon="10.99171958462554"><ele>141.66666666666669</ele><time>2026-04-12T06:47:48Z</time></trkpt><trkpt lat="45.74902725751436" lon="10.99192689001546"><ele>142.0</ele><time>2026-04-12T06:47:49Z</time></trkpt><trkpt lat="45.74911310784887" lon="10.992152886714132"><ele>142.0</ele><time>2026-04-12T06:47:50Z</time></trkpt><trkpt lat="45.749185326402895" lon="10.992392696090256"><ele>142.0</ele><time>2026-04-12T06:47:51Z</time></trkpt><trkpt lat="45.74926596153055" lon="10.992616037399925"><ele>142.0</ele><time>2026-04-12T06:47:52Z</time></trkpt><trkpt lat="45.74936251824395" lon="10.992819870863261"><ele>141.66666666666669</ele><time>2026-04-12T06:47:53Z</time></trkpt><trkpt lat="45.74948823752011" lon="10.993006585284569"><ele>141.33333333333334</ele><time>2026-04-12T06:47:54Z</time></trkpt><trkpt lat="45.74961695464392" lon="10.993196229136288"><ele>141.0</ele><time>2026-04-12T06:47:55Z</time></trkpt><trkpt lat="45.749748478996516" lon="10.993386390319422"><ele>143.33333333333334</ele><time>2026-04-12T06:47:56Z</time></trkpt><trkpt lat="45.74987521917698" lon="10.993574594356947"><ele>145.66666666666669</ele><time>2026-04-12T06:47:57Z</time></trkpt><trkpt lat="45.75000315554723" lon="10.993764351022115"><ele>148.0</ele><time>2026-04-12T06:47:58Z</time></trkpt><trkpt lat="45.75013614311991" lon="10.993949555223313"><ele>147.66666666666669</ele><time>2026-04-12T06:47:59Z</time></trkpt><trkpt lat="45.750285014884604" lon="10.994112737749118"><ele>147.33333333333334</ele><time>2026-04-12T06:48:00Z</time></trkpt><trkpt lat="45.75043517608053" lon="10.994266270478104"><ele>147.0</ele><time>2026-04-12T06:48:01Z</time></trkpt><trkpt lat="45.75058587734855" lon="10.99440614747362"><ele>147.0</ele><time>2026-04-12T06:48:02Z</time></trkpt><trkpt lat="45.75074505088697" lon="10.994542776429059"><ele>147.0</ele><time>2026-04-12T06:48:03Z</time></trkpt><trkpt lat="45.750900358454025" lon="10.99468192516026"><ele>147.0</ele><time>2026-04-12T06:48:04Z</time></trkpt><trkpt lat="45.75106078479631" lon="10.994814507390197"><ele>147.66666666666666</ele><time>2026-04-12T06:48:05Z</time></trkpt><trkpt lat="45.75121489725061" lon="10.994941136909636"><ele>148.33333333333331</ele><time>2026-04-12T06:48:06Z</time></trkpt><trkpt lat="45.75137166777308" lon="10.9950681350537"><ele>149.0</ele><time>2026-04-12T06:48:07Z</time></trkpt><trkpt lat="45.75151523848608" lon="10.995195629526659"><ele>149.0</ele><time>2026-04-12T06:48:08Z</time></trkpt><trkpt lat="45.75166638585382" lon="10.99531653672223"><ele>149.0</ele><time>2026-04-12T06:48:09Z</time></trkpt><trkpt lat="45.7518211966792" lon="10.995435576403532"><ele>149.0</ele><time>2026-04-12T06:48:10Z</time></trkpt><trkpt lat="45.7519745090031" lon="10.995564113138416"><ele>149.0</ele><time>2026-04-12T06:48:11Z</time></trkpt><trkpt lat="45.75212672961221" lon="10.995694554504759"><ele>149.0</ele><time>2026-04-12T06:48:12Z</time></trkpt><trkpt lat="45.75226392550168" lon="10.995820216361924"><ele>149.0</ele><time>2026-04-12T06:48:12.999Z</time></trkpt><trkpt lat="45.75238448035719" lon="10.995947318182928"><ele>149.0</ele><time>2026-04-12T06:48:13.999Z</time></trkpt><trkpt lat="45.75250384294057" lon="10.99606389640579"><ele>149.0</ele><time>2026-04-12T06:48:14.999Z</time></trkpt><trkpt lat="45.75261817096374" lon="10.996173549471862"><ele>149.0</ele><time>2026-04-12T06:48:15.999Z</time></trkpt><trkpt lat="45.75273784449545" lon="10.996287061106218"><ele>149.0</ele><time>2026-04-12T06:48:16.999Z</time></trkpt><trkpt lat="45.75285896368798" lon="10.996406308741781"><ele>148.66666666666666</ele><time>2026-04-12T06:48:17.999Z</time></trkpt><trkpt lat="45.75298330399058" lon="10.996530412684484"><ele>148.33333333333334</ele><time>2026-04-12T06:48:18.999Z</time></trkpt><trkpt lat="45.75310981845911" lon="10.99665480417258"><ele>148.0</ele><time>2026-04-12T06:48:19.999Z</time></trkpt><trkpt lat="45.75323795246143" lon="10.996776394710158"><ele>148.66666666666669</ele><time>2026-04-12T06:48:20.999Z</time></trkpt><trkpt lat="45.75338359539612" lon="10.996889494254138"><ele>149.33333333333334</ele><time>2026-04-12T06:48:21.999Z</time></trkpt><trkpt lat="45.75353026213493" lon="10.996995574687642"><ele>150.0</ele><time>2026-04-12T06:48:22.999Z</time></trkpt><trkpt lat="45.75368177257547" lon="10.997088923744805"><ele>150.0</ele><time>2026-04-12T06:48:23.999Z</time></trkpt><trkpt lat="45.75382417227165" lon="10.997178549033245"><ele>150.0</ele><time>2026-04-12T06:48:24.999Z</time></trkpt><trkpt lat="45.75396512571248" lon="10.997267060659329"><ele>150.0</ele><time>2026-04-12T06:48:25.999Z</time></trkpt><trkpt lat="45.75410347138608" lon="10.997357449730707"><ele>150.0</ele><time>2026-04-12T06:48:26.999Z</time></trkpt><trkpt lat="45.754220589938456" lon="10.997433534435144"><ele>150.0</ele><time>2026-04-12T06:48:27.999Z</time></trkpt><trkpt lat="45.75432957970251" lon="10.997502985337636"><ele>150.0</ele><time>2026-04-12T06:48:28.999Z</time></trkpt><trkpt lat="45.75442616038493" lon="10.997567954170455"><ele>150.0</ele><time>2026-04-12T06:48:29.999Z</time></trkpt><trkpt lat="45.75452025809171" lon="10.997629212570033"><ele>151.75</ele><time>2026-04-12T06:48:30.999Z</time></trkpt><trkpt lat="45.75462921132037" lon="10.997703316228515"><ele>153.5</ele><time>2026-04-12T06:48:31.999Z</time></trkpt><trkpt lat="45.75473709899149" lon="10.997779374530092"><ele>155.25</ele><time>2026-04-12T06:48:32.999Z</time></trkpt><trkpt lat="45.75484591733661" lon="10.997848998017181"><ele>157.0</ele><time>2026-04-12T06:48:33.999Z</time></trkpt><trkpt lat="45.754951305024036" lon="10.997915895213644"><ele>157.0</ele><time>2026-04-12T06:48:34.999Z</time></trkpt><trkpt lat="45.75505546150185" lon="10.997987456509755"><ele>157.0</ele><time>2026-04-12T06:48:35.999Z</time></trkpt><trkpt lat="45.75516595812779" lon="10.99806410627435"><ele>157.0</ele><time>2026-04-12T06:48:36.999Z</time></trkpt><trkpt lat="45.75527559829363" lon="10.998139245757024"><ele>157.0</ele><time>2026-04-12T06:48:37.999Z</time></trkpt><trkpt lat="45.7553936915126" lon="10.99822103500355"><ele>157.5</ele><time>2026-04-12T06:48:38.999Z</time></trkpt><trkpt lat="45.75552350151084" lon="10.998308369925143"><ele>158.0</ele><time>2026-04-12T06:48:39.999Z</time></trkpt><trkpt lat="45.75565591189835" lon="10.998397700233289"><ele>158.5</ele><time>2026-04-12T06:48:40.999Z</time></trkpt><trkpt lat="45.75577731744943" lon="10.998477676360297"><ele>159.0</ele><time>2026-04-12T06:48:41.999Z</time></trkpt><trkpt lat="45.75589578600056" lon="10.998559814366484"><ele>159.75</ele><time>2026-04-12T06:48:42.999Z</time></trkpt><trkpt lat="45.75601327670062" lon="10.998644759981557"><ele>160.5</ele><time>2026-04-12T06:48:43.999Z</time></trkpt><trkpt lat="45.75613019916338" lon="10.998724981558558"><ele>161.25</ele><time>2026-04-12T06:48:44.999Z</time></trkpt><trkpt lat="45.75624767206406" lon="10.99880237592057"><ele>162.0</ele><time>2026-04-12T06:48:45.999Z</time></trkpt><trkpt lat="45.75636307266299" lon="10.998880854130826"><ele>162.5</ele><time>2026-04-12T06:48:46.999Z</time></trkpt><trkpt lat="45.7564812303548" lon="10.99895929635357"><ele>163.0</ele><time>2026-04-12T06:48:47.999Z</time></trkpt><trkpt lat="45.75659530498887" lon="10.999038385343296"><ele>163.5</ele><time>2026-04-12T06:48:48.999Z</time></trkpt><trkpt lat="45.75670683909139" lon="10.999118064560752"><ele>164.0</ele><time>2026-04-12T06:48:49.999Z</time></trkpt><trkpt lat="45.75682133601939" lon="10.999207616778495"><ele>164.75</ele><time>2026-04-12T06:48:50.999Z</time></trkpt><trkpt lat="45.75694306745869" lon="10.99930378975141"><ele>165.5</ele><time>2026-04-12T06:48:51.999Z</time></trkpt><trkpt lat="45.7570637168481" lon="10.999416932264497"><ele>166.25</ele><time>2026-04-12T06:48:52.999Z</time></trkpt><trkpt lat="45.75717217683097" lon="10.99954454219555"><ele>167.0</ele><time>2026-04-12T06:48:53.999Z</time></trkpt><trkpt lat="45.75727968215031" lon="10.999668050735213"><ele>167.0</ele><time>2026-04-12T06:48:54.999Z</time></trkpt><trkpt lat="45.75737849663588" lon="10.99978935912054"><ele>167.0</ele><time>2026-04-12T06:48:55.999Z</time></trkpt><trkpt lat="45.7574745345091" lon="10.999906878481058"><ele>167.0</ele><time>2026-04-12T06:48:56.999Z</time></trkpt><trkpt lat="45.75756353878492" lon="11.000014011687213"><ele>167.0</ele><time>2026-04-12T06:48:57.999Z</time></trkpt><trkpt lat="45.757640414008875" lon="11.000115517754981"><ele>166.33333333333331</ele><time>2026-04-12T06:48:58.999Z</time></trkpt><trkpt lat="45.757712254778596" lon="11.000203442553884"><ele>165.66666666666666</ele><time>2026-04-12T06:48:59.999Z</time></trkpt><trkpt lat="45.757781177319394" lon="11.000282166417517"><ele>165.0</ele><time>2026-04-12T06:49:00.999Z</time></trkpt><trkpt lat="45.75784928802006" lon="11.000357859052764"><ele>164.33333333333334</ele><time>2026-04-12T06:49:01.999Z</time></trkpt><trkpt lat="45.75791277443758" lon="11.00043671804391"><ele>163.66666666666669</ele><time>2026-04-12T06:49:02.999Z</time></trkpt><trkpt lat="45.757983268513684" lon="11.000519851709468"><ele>163.0</ele><time>2026-04-12T06:49:03.999Z</time></trkpt><trkpt lat="45.75805622334272" lon="11.0006088056641"><ele>163.0</ele><time>2026-04-12T06:49:04.999Z</time></trkpt><trkpt lat="45.75812651305943" lon="11.0006930412616"><ele>163.0</ele><time>2026-04-12T06:49:05.998Z</time></trkpt><trkpt lat="45.758197440680526" lon="11.000770836351451"><ele>163.0</ele><time>2026-04-12T06:49:06.998Z</time></trkpt><trkpt lat="45.75826156793548" lon="11.000851370503687"><ele>163.0</ele><time>2026-04-12T06:49:07.998Z</time></trkpt><trkpt lat="45.75832924385232" lon="11.000933779121077"><ele>163.0</ele><time>2026-04-12T06:49:08.998Z</time></trkpt><trkpt lat="45.75839864739215" lon="11.001015264538035"><ele>163.0</ele><time>2026-04-12T06:49:09.998Z</time></trkpt><trkpt lat="45.75846223993905" lon="11.001090027344372"><ele>163.0</ele><time>2026-04-12T06:49:10.998Z</time></trkpt><trkpt lat="45.75852529153632" lon="11.001160805242126"><ele>163.0</ele><time>2026-04-12T06:49:11.998Z</time></trkpt><trkpt lat="45.75859252972009" lon="11.001236514722235"><ele>163.0</ele><time>2026-04-12T06:49:12.998Z</time></trkpt><trkpt lat="45.75866505085245" lon="11.001326200794475"><ele>163.0</ele><time>2026-04-12T06:49:13.998Z</time></trkpt><trkpt lat="45.7587330461511" lon="11.001404744082736"><ele>163.0</ele><time>2026-04-12T06:49:14.998Z</time></trkpt><trkpt lat="45.758799097035315" lon="11.001480033010296"><ele>163.0</ele><time>2026-04-12T06:49:15.998Z</time></trkpt><trkpt lat="45.75886055030445" lon="11.001552375976944"><ele>163.0</ele><time>2026-04-12T06:49:16.998Z</time></trkpt><trkpt lat="45.75891391900716" lon="11.001605876621028"><ele>163.0</ele><time>2026-04-12T06:49:17.998Z</time></trkpt><trkpt lat="45.7589658259362" lon="11.001657013873265"><ele>163.0</ele><time>2026-04-12T06:49:18.998Z</time></trkpt><trkpt lat="45.75902856015832" lon="11.001716587985765"><ele>163.0</ele><time>2026-04-12T06:49:19.998Z</time></trkpt><trkpt lat="45.75909628246916" lon="11.001777839195434"><ele>163.0</ele><time>2026-04-12T06:49:20.998Z</time></trkpt><trkpt lat="45.759167709019785" lon="11.001847127263327"><ele>163.0</ele><time>2026-04-12T06:49:21.998Z</time></trkpt><trkpt lat="45.75923633572143" lon="11.001909853561921"><ele>163.0</ele><time>2026-04-12T06:49:22.998Z</time></trkpt><trkpt lat="45.75931628081421" lon="11.001983932306883"><ele>163.0</ele><time>2026-04-12T06:49:23.998Z</time></trkpt><trkpt lat="45.75939853973912" lon="11.002060736355778"><ele>163.0</ele><time>2026-04-12T06:49:24.998Z</time></trkpt><trkpt lat="45.759488423289504" lon="11.00214507272791"><ele>163.0</ele><time>2026-04-12T06:49:25.998Z</time></trkpt><trkpt lat="45.75958333657843" lon="11.002236909373227"><ele>163.0</ele><time>2026-04-12T06:49:26.998Z</time></trkpt><trkpt lat="45.75968438788956" lon="11.0023340142364"><ele>161.5</ele><time>2026-04-12T06:49:27.998Z</time></trkpt><trkpt lat="45.7597892742679" lon="11.002436498209024"><ele>160.0</ele><time>2026-04-12T06:49:28.998Z</time></trkpt><trkpt lat="45.75989765045249" lon="11.00254199985292"><ele>158.5</ele><time>2026-04-12T06:49:29.998Z</time></trkpt><trkpt lat="45.76000844407733" lon="11.002652546209061"><ele>157.0</ele><time>2026-04-12T06:49:30.998Z</time></trkpt><trkpt lat="45.76012395134437" lon="11.00276385696427"><ele>157.5</ele><time>2026-04-12T06:49:31.998Z</time></trkpt><trkpt lat="45.76023571778054" lon="11.002875198583428"><ele>158.0</ele><time>2026-04-12T06:49:32.998Z</time></trkpt><trkpt lat="45.76034742997" lon="11.00298169221471"><ele>158.5</ele><time>2026-04-12T06:49:33.998Z</time></trkpt><trkpt lat="45.760459945430895" lon="11.003089163470824"><ele>159.0</ele><time>2026-04-12T06:49:34.998Z</time></trkpt><trkpt lat="45.76056872722577" lon="11.0031924754562"><ele>159.0</ele><time>2026-04-12T06:49:35.998Z</time></trkpt><trkpt lat="45.760670787533684" lon="11.003292377115862"><ele>159.0</ele><time>2026-04-12T06:49:36.998Z</time></trkpt><trkpt lat="45.76076684744114" lon="11.00339030797164"><ele>159.0</ele><time>2026-04-12T06:49:38Z</time></trkpt><trkpt lat="45.76086809321044" lon="11.003487983818168"><ele>159.0</ele><time>2026-04-12T06:49:39Z</time></trkpt><trkpt lat="45.76096900646567" lon="11.003591689342159"><ele>161.5</ele><time>2026-04-12T06:49:40Z</time></trkpt><trkpt lat="45.761068298242876" lon="11.003686322042554"><ele>164.0</ele><time>2026-04-12T06:49:41Z</time></trkpt><trkpt lat="45.76116751147623" lon="11.003781803252364"><ele>166.5</ele><time>2026-04-12T06:49:42Z</time></trkpt><trkpt lat="45.76126498114563" lon="11.003894355433845"><ele>169.0</ele><time>2026-04-12T06:49:43Z</time></trkpt><trkpt lat="45.76136461381826" lon="11.003973805305497"><ele>169.0</ele><time>2026-04-12T06:49:44Z</time></trkpt><trkpt lat="45.76145636281961" lon="11.004065388010039"><ele>169.0</ele><time>2026-04-12T06:49:45Z</time></trkpt><trkpt lat="45.76154286352376" lon="11.004151361715506"><ele>169.0</ele><time>2026-04-12T06:49:46Z</time></trkpt><trkpt lat="45.76161872792506" lon="11.00421990280156"><ele>169.0</ele><time>2026-04-12T06:49:47Z</time></trkpt><trkpt lat="45.76169235967219" lon="11.004291941721675"><ele>169.0</ele><time>2026-04-12T06:49:48Z</time></trkpt><trkpt lat="45.76176294170107" lon="11.004361229752641"><ele>169.39999999999998</ele><time>2026-04-12T06:49:49Z</time></trkpt><trkpt lat="45.761843375318975" lon="11.004435703448365"><ele>169.8</ele><time>2026-04-12T06:49:50Z</time></trkpt><trkpt lat="45.76192000924803" lon="11.004509295275561"><ele>170.2</ele><time>2026-04-12T06:49:51Z</time></trkpt><trkpt lat="45.761991771236644" lon="11.00457891343028"><ele>170.60000000000002</ele><time>2026-04-12T06:49:52Z</time></trkpt><trkpt lat="45.76207028983236" lon="11.004650014934969"><ele>171.0</ele><time>2026-04-12T06:49:53Z</time></trkpt><trkpt lat="45.76214840653093" lon="11.004728799396624"><ele>171.0</ele><time>2026-04-12T06:49:54Z</time></trkpt><trkpt lat="45.762219300293275" lon="11.004801539538368"><ele>171.0</ele><time>2026-04-12T06:49:55Z</time></trkpt><trkpt lat="45.76228414446187" lon="11.004871599016315"><ele>171.0</ele><time>2026-04-12T06:49:56Z</time></trkpt><trkpt lat="45.76235210472151" lon="11.004944486124371"><ele>171.0</ele><time>2026-04-12T06:49:57Z</time></trkpt><trkpt lat="45.76242286105246" lon="11.005025600579275"><ele>171.0</ele><time>2026-04-12T06:49:58Z</time></trkpt><trkpt lat="45.76248953961873" lon="11.00511267449228"><ele>171.0</ele><time>2026-04-12T06:49:59Z</time></trkpt><trkpt lat="45.76256680154414" lon="11.005213956118892"><ele>171.25</ele><time>2026-04-12T06:50:00Z</time></trkpt><trkpt lat="45.76266801631656" lon="11.005311303395567"><ele>171.5</ele><time>2026-04-12T06:50:01Z</time></trkpt><trkpt lat="45.76277621424416" lon="11.005380766669969"><ele>171.75</ele><time>2026-04-12T06:50:02Z</time></trkpt><trkpt lat="45.76288970525475" lon="11.005474396510655"><ele>172.0</ele><time>2026-04-12T06:50:03Z</time></trkpt><trkpt lat="45.763005296658015" lon="11.005581928648809"><ele>171.33333333333334</ele><time>2026-04-12T06:50:04Z</time></trkpt><trkpt lat="45.76313051956894" lon="11.005706170907489"><ele>170.66666666666666</ele><time>2026-04-12T06:50:05Z</time></trkpt><trkpt lat="45.76326774085457" lon="11.005833932660678"><ele>170.0</ele><time>2026-04-12T06:50:06Z</time></trkpt><trkpt lat="45.76340104896526" lon="11.005969552638575"><ele>168.66666666666666</ele><time>2026-04-12T06:50:07Z</time></trkpt><trkpt lat="45.76354772275241" lon="11.00610466817978"><ele>167.33333333333334</ele><time>2026-04-12T06:50:08Z</time></trkpt><trkpt lat="45.76368393949446" lon="11.006245273603522"><ele>166.0</ele><time>2026-04-12T06:50:09Z</time></trkpt><trkpt lat="45.76383236145411" lon="11.0063833703568"><ele>166.0</ele><time>2026-04-12T06:50:10Z</time></trkpt><trkpt lat="45.76396421805173" lon="11.0065153395022"><ele>166.0</ele><time>2026-04-12T06:50:11Z</time></trkpt><trkpt lat="45.76409545391909" lon="11.006635392849349"><ele>166.0</ele><time>2026-04-12T06:50:12Z</time></trkpt><trkpt lat="45.76423321955823" lon="11.006749217385442"><ele>165.33333333333334</ele><time>2026-04-12T06:50:13Z</time></trkpt><trkpt lat="45.764385983445116" lon="11.00684616439035"><ele>164.66666666666666</ele><time>2026-04-12T06:50:14Z</time></trkpt><trkpt lat="45.764543185490005" lon="11.006926681925808"><ele>164.0</ele><time>2026-04-12T06:50:15Z</time></trkpt><trkpt lat="45.7646966268385" lon="11.006992553533738"><ele>164.0</ele><time>2026-04-12T06:50:16Z</time></trkpt><trkpt lat="45.76485868921479" lon="11.00705450331688"><ele>164.0</ele><time>2026-04-12T06:50:17Z</time></trkpt><trkpt lat="45.76501812663022" lon="11.007111185460131"><ele>164.0</ele><time>2026-04-12T06:50:17.999Z</time></trkpt><trkpt lat="45.76518162411126" lon="11.007160418850797"><ele>161.33333333333331</ele><time>2026-04-12T06:50:18.999Z</time></trkpt><trkpt lat="45.765345863970325" lon="11.007202601906485"><ele>158.66666666666666</ele><time>2026-04-12T06:50:19.999Z</time></trkpt><trkpt lat="45.765506635981794" lon="11.007244006322665"><ele>156.0</ele><time>2026-04-12T06:50:20.999Z</time></trkpt><trkpt lat="45.765666858088515" lon="11.007282223115315"><ele>156.0</ele><time>2026-04-12T06:50:21.999Z</time></trkpt><trkpt lat="45.76583524361798" lon="11.007324017971685"><ele>156.0</ele><time>2026-04-12T06:50:22.999Z</time></trkpt><trkpt lat="45.76600808647379" lon="11.007363238792044"><ele>156.0</ele><time>2026-04-12T06:50:23.999Z</time></trkpt><trkpt lat="45.76618363426976" lon="11.007404415544743"><ele>155.66666666666666</ele><time>2026-04-12T06:50:24.999Z</time></trkpt><trkpt lat="45.766361942935106" lon="11.007455224436033"><ele>155.33333333333331</ele><time>2026-04-12T06:50:25.999Z</time></trkpt><trkpt lat="45.76653864113518" lon="11.007501639988606"><ele>155.0</ele><time>2026-04-12T06:50:26.999Z</time></trkpt><trkpt lat="45.76670743930112" lon="11.007550989904525"><ele>152.66666666666666</ele><time>2026-04-12T06:50:27.999Z</time></trkpt><trkpt lat="45.76688097536291" lon="11.007610220448734"><ele>150.33333333333334</ele><time>2026-04-12T06:50:28.999Z</time></trkpt><trkpt lat="45.76705509621069" lon="11.007695110620698"><ele>148.0</ele><time>2026-04-12T06:50:29.999Z</time></trkpt><trkpt lat="45.767223100550176" lon="11.00780298784283"><ele>148.0</ele><time>2026-04-12T06:50:30.999Z</time></trkpt><trkpt lat="45.76738179244207" lon="11.007937310889488"><ele>148.0</ele><time>2026-04-12T06:50:31.999Z</time></trkpt><trkpt lat="45.76752957551081" lon="11.008095892005239"><ele>148.0</ele><time>2026-04-12T06:50:32.999Z</time></trkpt><trkpt lat="45.76767005361619" lon="11.008251956497324"><ele>148.33333333333334</ele><time>2026-04-12T06:50:33.999Z</time></trkpt><trkpt lat="45.76780081422506" lon="11.008391321233056"><ele>148.66666666666666</ele><time>2026-04-12T06:50:34.999Z</time></trkpt><trkpt lat="45.76793278066898" lon="11.00851756522604"><ele>149.0</ele><time>2026-04-12T06:50:35.999Z</time></trkpt><trkpt lat="45.76805617718695" lon="11.00863916380917"><ele>149.0</ele><time>2026-04-12T06:50:36.999Z</time></trkpt><trkpt lat="45.768169969960915" lon="11.00875727303775"><ele>149.0</ele><time>2026-04-12T06:50:37.999Z</time></trkpt><trkpt lat="45.76828082476057" lon="11.008872807023817"><ele>149.0</ele><time>2026-04-12T06:50:38.999Z</time></trkpt><trkpt lat="45.76837076678222" lon="11.008997194393825"><ele>149.0</ele><time>2026-04-12T06:50:39.999Z</time></trkpt><trkpt lat="45.76844985162588" lon="11.009130268739407"><ele>148.33333333333331</ele><time>2026-04-12T06:50:40.999Z</time></trkpt><trkpt lat="45.76856146115547" lon="11.009249223944149"><ele>147.66666666666666</ele><time>2026-04-12T06:50:41.999Z</time></trkpt><trkpt lat="45.76869944022519" lon="11.009338189561898"><ele>147.0</ele><time>2026-04-12T06:50:42.999Z</time></trkpt><trkpt lat="45.76884953148884" lon="11.009425539919363"><ele>147.0</ele><time>2026-04-12T06:50:43.999Z</time></trkpt><trkpt lat="45.76898599031193" lon="11.009548349271112"><ele>147.0</ele><time>2026-04-12T06:50:44.999Z</time></trkpt><trkpt lat="45.769122151147215" lon="11.009687584542393"><ele>147.0</ele><time>2026-04-12T06:50:45.999Z</time></trkpt><trkpt lat="45.7692625552215" lon="11.009822406775845"><ele>146.33333333333334</ele><time>2026-04-12T06:50:46.999Z</time></trkpt><trkpt lat="45.76940716981446" lon="11.009956353167924"><ele>145.66666666666669</ele><time>2026-04-12T06:50:47.999Z</time></trkpt><trkpt lat="45.76956107992023" lon="11.01009395239451"><ele>145.0</ele><time>2026-04-12T06:50:48.999Z</time></trkpt><trkpt lat="45.769696204726216" lon="11.010217726059393"><ele>145.0</ele><time>2026-04-12T06:50:49.999Z</time></trkpt><trkpt lat="45.76982195069458" lon="11.010313203812041"><ele>145.0</ele><time>2026-04-12T06:50:50.999Z</time></trkpt><trkpt lat="45.76994390252841" lon="11.010409259363866"><ele>145.0</ele><time>2026-04-12T06:50:51.999Z</time></trkpt><trkpt lat="45.77007583736253" lon="11.010509243977117"><ele>145.0</ele><time>2026-04-12T06:50:52.999Z</time></trkpt><trkpt lat="45.77021953832108" lon="11.010618342793554"><ele>145.33333333333334</ele><time>2026-04-12T06:50:53.999Z</time></trkpt><trkpt lat="45.77037201913153" lon="11.010733773261503"><ele>145.66666666666666</ele><time>2026-04-12T06:50:54.999Z</time></trkpt><trkpt lat="45.77052031692693" lon="11.010844387038055"><ele>146.0</ele><time>2026-04-12T06:50:55.999Z</time></trkpt><trkpt lat="45.7706677957963" lon="11.010954831534772"><ele>146.0</ele><time>2026-04-12T06:50:56.999Z</time></trkpt><trkpt lat="45.77081215703794" lon="11.011065663633609"><ele>146.0</ele><time>2026-04-12T06:50:57.999Z</time></trkpt><trkpt lat="45.770965121269676" lon="11.011182621466107"><ele>146.0</ele><time>2026-04-12T06:50:58.999Z</time></trkpt><trkpt lat="45.77112073488474" lon="11.011299914527733"><ele>144.66666666666666</ele><time>2026-04-12T06:50:59.999Z</time></trkpt><trkpt lat="45.77127563049953" lon="11.011416054424492"><ele>143.33333333333334</ele><time>2026-04-12T06:51:00.999Z</time></trkpt><trkpt lat="45.771427100614545" lon="11.011532007157331"><ele>142.0</ele><time>2026-04-12T06:51:01.999Z</time></trkpt><trkpt lat="45.77157767771264" lon="11.01165096071472"><ele>142.33333333333334</ele><time>2026-04-12T06:51:02.999Z</time></trkpt><trkpt lat="45.77173140869791" lon="11.011770154236771"><ele>142.66666666666666</ele><time>2026-04-12T06:51:03.999Z</time></trkpt><trkpt lat="45.77189274551625" lon="11.011887540443768"><ele>143.0</ele><time>2026-04-12T06:51:04.999Z</time></trkpt><trkpt lat="45.77205296513606" lon="11.012001977181333"><ele>143.0</ele><time>2026-04-12T06:51:05.999Z</time></trkpt><trkpt lat="45.77222120848228" lon="11.012108924274163"><ele>143.0</ele><time>2026-04-12T06:51:06.999Z</time></trkpt><trkpt lat="45.77239252628509" lon="11.012201256309577"><ele>143.0</ele><time>2026-04-12T06:51:07.999Z</time></trkpt><trkpt lat="45.772565976233544" lon="11.012284027220346"><ele>143.0</ele><time>2026-04-12T06:51:08.999Z</time></trkpt><trkpt lat="45.772744317164936" lon="11.012362482489896"><ele>143.0</ele><time>2026-04-12T06:51:09.999Z</time></trkpt><trkpt lat="45.77292236639167" lon="11.012441383827882"><ele>143.0</ele><time>2026-04-12T06:51:10.998Z</time></trkpt><trkpt lat="45.77311860000822" lon="11.012509598079637"><ele>144.33333333333331</ele><time>2026-04-12T06:51:11.998Z</time></trkpt><trkpt lat="45.77331313623712" lon="11.012595505518911"><ele>145.66666666666666</ele><time>2026-04-12T06:51:12.998Z</time></trkpt><trkpt lat="45.773508752605366" lon="11.01267369706977"><ele>147.0</ele><time>2026-04-12T06:51:13.998Z</time></trkpt><trkpt lat="45.77370753121249" lon="11.01275354669008"><ele>147.0</ele><time>2026-04-12T06:51:14.998Z</time></trkpt><trkpt lat="45.77390550083825" lon="11.012825506879778"><ele>147.0</ele><time>2026-04-12T06:51:15.998Z</time></trkpt><trkpt lat="45.774099535498486" lon="11.012904996034761"><ele>147.0</ele><time>2026-04-12T06:51:16.998Z</time></trkpt><trkpt lat="45.774296216599055" lon="11.012984833491247"><ele>146.33333333333334</ele><time>2026-04-12T06:51:17.998Z</time></trkpt><trkpt lat="45.77450527343735" lon="11.013069369688248"><ele>145.66666666666669</ele><time>2026-04-12T06:51:18.998Z</time></trkpt><trkpt lat="45.77470610693808" lon="11.013152663468816"><ele>145.0</ele><time>2026-04-12T06:51:19.998Z</time></trkpt><trkpt lat="45.77489002053548" lon="11.013225545332348"><ele>145.0</ele><time>2026-04-12T06:51:20.998Z</time></trkpt><trkpt lat="45.77507308289714" lon="11.013295820061291"><ele>145.0</ele><time>2026-04-12T06:51:21.998Z</time></trkpt><trkpt lat="45.775257133919425" lon="11.013366005868047"><ele>145.0</ele><time>2026-04-12T06:51:22.998Z</time></trkpt><trkpt lat="45.77546193932873" lon="11.013435297122806"><ele>145.5</ele><time>2026-04-12T06:51:23.998Z</time></trkpt><trkpt lat="45.77568502050508" lon="11.013546434670905"><ele>146.0</ele><time>2026-04-12T06:51:24.998Z</time></trkpt><trkpt lat="45.77592890352917" lon="11.013631401389413"><ele>145.5</ele><time>2026-04-12T06:51:25.998Z</time></trkpt><trkpt lat="45.77615885112529" lon="11.01373984896413"><ele>145.0</ele><time>2026-04-12T06:51:26.998Z</time></trkpt><trkpt lat="45.77637586893245" lon="11.013828432838194"><ele>145.0</ele><time>2026-04-12T06:51:27.998Z</time></trkpt><trkpt lat="45.776570180958345" lon="11.013900447465927"><ele>145.0</ele><time>2026-04-12T06:51:28.998Z</time></trkpt><trkpt lat="45.7767478179468" lon="11.013974124983779"><ele>145.0</ele><time>2026-04-12T06:51:29.998Z</time></trkpt><trkpt lat="45.77691821756552" lon="11.01404190359892"><ele>144.66666666666669</ele><time>2026-04-12T06:51:30.998Z</time></trkpt><trkpt lat="45.77708169979508" lon="11.014107438585475"><ele>144.33333333333334</ele><time>2026-04-12T06:51:31.998Z</time></trkpt><trkpt lat="45.77725616085912" lon="11.014169986677903"><ele>144.0</ele><time>2026-04-12T06:51:32.998Z</time></trkpt><trkpt lat="45.777429772815665" lon="11.014234716891872"><ele>145.0</ele><time>2026-04-12T06:51:33.998Z</time></trkpt><trkpt lat="45.77759237215643" lon="11.014297340135524"><ele>146.0</ele><time>2026-04-12T06:51:34.998Z</time></trkpt><trkpt lat="45.77775408203361" lon="11.01435722284855"><ele>147.0</ele><time>2026-04-12T06:51:35.998Z</time></trkpt><trkpt lat="45.777915549920536" lon="11.014422573394318"><ele>147.66666666666666</ele><time>2026-04-12T06:51:36.998Z</time></trkpt><trkpt lat="45.778083788699306" lon="11.014492279300567"><ele>148.33333333333331</ele><time>2026-04-12T06:51:37.998Z</time></trkpt><trkpt lat="45.778248909056174" lon="11.014561156643083"><ele>149.0</ele><time>2026-04-12T06:51:38.998Z</time></trkpt><trkpt lat="45.778412698002214" lon="11.014635580701022"><ele>147.66666666666666</ele><time>2026-04-12T06:51:39.998Z</time></trkpt><trkpt lat="45.77857430291787" lon="11.014708573097337"><ele>146.33333333333334</ele><time>2026-04-12T06:51:40.998Z</time></trkpt><trkpt lat="45.778730731530416" lon="11.014797062194715"><ele>145.0</ele><time>2026-04-12T06:51:41.998Z</time></trkpt><trkpt lat="45.77888986638848" lon="11.014883139993602"><ele>145.0</ele><time>2026-04-12T06:51:42.998Z</time></trkpt><trkpt lat="45.77906162979046" lon="11.01496497547889"><ele>145.0</ele><time>2026-04-12T06:51:44Z</time></trkpt><trkpt lat="45.779234223262954" lon="11.01504883521356"><ele>145.0</ele><time>2026-04-12T06:51:45Z</time></trkpt><trkpt lat="45.77941000915194" lon="11.015139067153926"><ele>146.0</ele><time>2026-04-12T06:51:46Z</time></trkpt><trkpt lat="45.77958791822789" lon="11.015223169825159"><ele>147.0</ele><time>2026-04-12T06:51:47Z</time></trkpt><trkpt lat="45.77976460612736" lon="11.01530817062199"><ele>148.0</ele><time>2026-04-12T06:51:48Z</time></trkpt><trkpt lat="45.77994679582744" lon="11.015392723226267"><ele>148.0</ele><time>2026-04-12T06:51:49Z</time></trkpt><trkpt lat="45.78012209946996" lon="11.015477208538806"><ele>148.0</ele><time>2026-04-12T06:51:50Z</time></trkpt><trkpt lat="45.780305704560426" lon="11.015563290369542"><ele>148.0</ele><time>2026-04-12T06:51:51Z</time></trkpt><trkpt lat="45.780488828738584" lon="11.015648854776192"><ele>148.0</ele><time>2026-04-12T06:51:52Z</time></trkpt><trkpt lat="45.78067302450597" lon="11.01573884272579"><ele>148.0</ele><time>2026-04-12T06:51:53Z</time></trkpt><trkpt lat="45.780858747309814" lon="11.015826541665714"><ele>148.0</ele><time>2026-04-12T06:51:54Z</time></trkpt><trkpt lat="45.781045635058184" lon="11.015915203877693"><ele>148.0</ele><time>2026-04-12T06:51:55Z</time></trkpt><trkpt lat="45.781236075853364" lon="11.016013645969158"><ele>148.0</ele><time>2026-04-12T06:51:56Z</time></trkpt><trkpt lat="45.78142557389291" lon="11.016096412800819"><ele>148.0</ele><time>2026-04-12T06:51:57Z</time></trkpt><trkpt lat="45.781611606310534" lon="11.016189713871157"><ele>148.0</ele><time>2026-04-12T06:51:58Z</time></trkpt><trkpt lat="45.78179818613216" lon="11.016280030395423"><ele>148.0</ele><time>2026-04-12T06:51:59Z</time></trkpt><trkpt lat="45.78198605040886" lon="11.016372768965113"><ele>148.0</ele><time>2026-04-12T06:52:00Z</time></trkpt><trkpt lat="45.78217882289436" lon="11.016459706709025"><ele>148.0</ele><time>2026-04-12T06:52:01Z</time></trkpt><trkpt lat="45.782364394283526" lon="11.01655368574894"><ele>148.0</ele><time>2026-04-12T06:52:02Z</time></trkpt><trkpt lat="45.7825452887336" lon="11.016661496832725"><ele>148.0</ele><time>2026-04-12T06:52:03Z</time></trkpt><trkpt lat="45.7827215277572" lon="11.016780395503176"><ele>149.0</ele><time>2026-04-12T06:52:04Z</time></trkpt><trkpt lat="45.782892642220375" lon="11.016910256877605"><ele>150.0</ele><time>2026-04-12T06:52:05Z</time></trkpt><trkpt lat="45.78307100492885" lon="11.017035299511269"><ele>151.0</ele><time>2026-04-12T06:52:06Z</time></trkpt><trkpt lat="45.78324060048311" lon="11.017157845279431"><ele>151.0</ele><time>2026-04-12T06:52:07Z</time></trkpt><trkpt lat="45.783415095028865" lon="11.01729139365076"><ele>151.0</ele><time>2026-04-12T06:52:08Z</time></trkpt><trkpt lat="45.783600071416984" lon="11.017438486138122"><ele>151.0</ele><time>2026-04-12T06:52:09Z</time></trkpt><trkpt lat="45.78379831122318" lon="11.017610234490446"><ele>150.5</ele><time>2026-04-12T06:52:10Z</time></trkpt><trkpt lat="45.783994878318644" lon="11.017812171415335"><ele>150.0</ele><time>2026-04-12T06:52:11Z</time></trkpt><trkpt lat="45.784186229869164" lon="11.018003807349709"><ele>150.0</ele><time>2026-04-12T06:52:12Z</time></trkpt><trkpt lat="45.784383133172376" lon="11.018173924165731"><ele>150.0</ele><time>2026-04-12T06:52:13Z</time></trkpt><trkpt lat="45.784594462016834" lon="11.018316689119747"><ele>151.0</ele><time>2026-04-12T06:52:14Z</time></trkpt><trkpt lat="45.7848196148838" lon="11.018444245696902"><ele>152.0</ele><time>2026-04-12T06:52:15Z</time></trkpt><trkpt lat="45.78504631123024" lon="11.018560318598732"><ele>151.5</ele><time>2026-04-12T06:52:16Z</time></trkpt><trkpt lat="45.78526927300523" lon="11.01867533304858"><ele>151.0</ele><time>2026-04-12T06:52:17Z</time></trkpt><trkpt lat="45.78547852828484" lon="11.018797086877472"><ele>151.0</ele><time>2026-04-12T06:52:18Z</time></trkpt><trkpt lat="45.78566979304999" lon="11.018934043153363"><ele>151.0</ele><time>2026-04-12T06:52:19Z</time></trkpt><trkpt lat="45.78585014192265" lon="11.019102301802375"><ele>151.0</ele><time>2026-04-12T06:52:20Z</time></trkpt><trkpt lat="45.786024888491966" lon="11.019278955785486"><ele>151.0</ele><time>2026-04-12T06:52:21Z</time></trkpt><trkpt lat="45.78619026444536" lon="11.019462262594544"><ele>151.0</ele><time>2026-04-12T06:52:22Z</time></trkpt><trkpt lat="45.78635265653786" lon="11.01963451678715"><ele>151.0</ele><time>2026-04-12T06:52:22.999Z</time></trkpt><trkpt lat="45.786517797770976" lon="11.01980479472469"><ele>151.0</ele><time>2026-04-12T06:52:23.999Z</time></trkpt><trkpt lat="45.786672560411354" lon="11.019966367109655"><ele>151.0</ele><time>2026-04-12T06:52:24.999Z</time></trkpt><trkpt lat="45.78683579577248" lon="11.020128340843838"><ele>151.0</ele><time>2026-04-12T06:52:25.999Z</time></trkpt><trkpt lat="45.786993199636335" lon="11.020291337790864"><ele>151.33333333333334</ele><time>2026-04-12T06:52:26.999Z</time></trkpt><trkpt lat="45.78715526310992" lon="11.020453430876314"><ele>151.66666666666666</ele><time>2026-04-12T06:52:27.999Z</time></trkpt><trkpt lat="45.78731570412789" lon="11.020614617362009"><ele>152.0</ele><time>2026-04-12T06:52:28.999Z</time></trkpt><trkpt lat="45.78746668977753" lon="11.020771105772111"><ele>152.0</ele><time>2026-04-12T06:52:29.999Z</time></trkpt><trkpt lat="45.78762367956048" lon="11.020919379482704"><ele>152.0</ele><time>2026-04-12T06:52:30.999Z</time></trkpt><trkpt lat="45.78778805847126" lon="11.021049362121637"><ele>152.0</ele><time>2026-04-12T06:52:31.999Z</time></trkpt><trkpt lat="45.787965547639196" lon="11.021168090034065"><ele>152.0</ele><time>2026-04-12T06:52:32.999Z</time></trkpt><trkpt lat="45.78814714863845" lon="11.021265081591737"><ele>152.0</ele><time>2026-04-12T06:52:33.999Z</time></trkpt><trkpt lat="45.78833776661258" lon="11.021334897246978"><ele>152.0</ele><time>2026-04-12T06:52:34.999Z</time></trkpt><trkpt lat="45.78854280530616" lon="11.021357187751548"><ele>151.66666666666666</ele><time>2026-04-12T06:52:35.999Z</time></trkpt><trkpt lat="45.7887512632617" lon="11.0213579322828"><ele>151.33333333333334</ele><time>2026-04-12T06:52:36.999Z</time></trkpt><trkpt lat="45.78896233595139" lon="11.021322789663746"><ele>151.0</ele><time>2026-04-12T06:52:37.999Z</time></trkpt><trkpt lat="45.78917392151684" lon="11.021269892116974"><ele>151.33333333333334</ele><time>2026-04-12T06:52:38.999Z</time></trkpt><trkpt lat="45.789381797985115" lon="11.02121963094905"><ele>151.66666666666666</ele><time>2026-04-12T06:52:39.999Z</time></trkpt><trkpt lat="45.7895794450996" lon="11.02117612745261"><ele>152.0</ele><time>2026-04-12T06:52:40.999Z</time></trkpt><trkpt lat="45.7897797777718" lon="11.021132325311042"><ele>152.0</ele><time>2026-04-12T06:52:41.999Z</time></trkpt><trkpt lat="45.78998272621144" lon="11.021089985996172"><ele>152.0</ele><time>2026-04-12T06:52:42.999Z</time></trkpt><trkpt lat="45.790186346038475" lon="11.021052994462519"><ele>152.0</ele><time>2026-04-12T06:52:43.999Z</time></trkpt><trkpt lat="45.79038748996432" lon="11.021028545406624"><ele>152.0</ele><time>2026-04-12T06:52:44.999Z</time></trkpt><trkpt lat="45.790593276539134" lon="11.021025107472378"><ele>152.0</ele><time>2026-04-12T06:52:45.999Z</time></trkpt><trkpt lat="45.79080272092726" lon="11.021043162794717"><ele>152.0</ele><time>2026-04-12T06:52:46.999Z</time></trkpt><trkpt lat="45.79101260072746" lon="11.021081143263745"><ele>152.0</ele><time>2026-04-12T06:52:47.999Z</time></trkpt><trkpt lat="45.79122232020351" lon="11.021120451012951"><ele>152.0</ele><time>2026-04-12T06:52:48.999Z</time></trkpt><trkpt lat="45.79143606400194" lon="11.021172323056637"><ele>152.0</ele><time>2026-04-12T06:52:49.999Z</time></trkpt><trkpt lat="45.791648773662494" lon="11.021226348423125"><ele>151.33333333333331</ele><time>2026-04-12T06:52:50.999Z</time></trkpt><trkpt lat="45.79186478134625" lon="11.02128104267867"><ele>150.66666666666666</ele><time>2026-04-12T06:52:51.999Z</time></trkpt><trkpt lat="45.79208504873941" lon="11.021330556720471"><ele>150.0</ele><time>2026-04-12T06:52:52.999Z</time></trkpt><trkpt lat="45.792305436593274" lon="11.021379955621681"><ele>150.0</ele><time>2026-04-12T06:52:53.999Z</time></trkpt><trkpt lat="45.79253193418814" lon="11.02143319386332"><ele>150.0</ele><time>2026-04-12T06:52:54.999Z</time></trkpt><trkpt lat="45.79275730824662" lon="11.021486167778606"><ele>148.5</ele><time>2026-04-12T06:52:55.999Z</time></trkpt><trkpt lat="45.79298568010732" lon="11.021540177912458"><ele>147.0</ele><time>2026-04-12T06:52:56.999Z</time></trkpt><trkpt lat="45.79321679350545" lon="11.021594335698236"><ele>147.0</ele><time>2026-04-12T06:52:57.999Z</time></trkpt><trkpt lat="45.79344970736051" lon="11.021647345166508"><ele>147.0</ele><time>2026-04-12T06:52:58.999Z</time></trkpt><trkpt lat="45.79368592465976" lon="11.021703996799673"><ele>148.0</ele><time>2026-04-12T06:52:59.999Z</time></trkpt><trkpt lat="45.793921850796735" lon="11.021758658882892"><ele>149.0</ele><time>2026-04-12T06:53:00.999Z</time></trkpt><trkpt lat="45.794150192730825" lon="11.02181059522499"><ele>149.5</ele><time>2026-04-12T06:53:01.999Z</time></trkpt><trkpt lat="45.79437852864453" lon="11.021858704510636"><ele>150.0</ele><time>2026-04-12T06:53:02.999Z</time></trkpt><trkpt lat="45.794612156479445" lon="11.02189783667542"><ele>150.0</ele><time>2026-04-12T06:53:03.999Z</time></trkpt><trkpt lat="45.79483942358398" lon="11.021924025341345"><ele>150.0</ele><time>2026-04-12T06:53:04.999Z</time></trkpt><trkpt lat="45.7950598180275" lon="11.021935790547689"><ele>150.0</ele><time>2026-04-12T06:53:05.999Z</time></trkpt><trkpt lat="45.795268918930105" lon="11.02193794713353"><ele>149.33333333333334</ele><time>2026-04-12T06:53:06.999Z</time></trkpt><trkpt lat="45.79547080666704" lon="11.02193711484643"><ele>148.66666666666669</ele><time>2026-04-12T06:53:07.999Z</time></trkpt><trkpt lat="45.7956704503642" lon="11.021933148199047"><ele>148.0</ele><time>2026-04-12T06:53:08.999Z</time></trkpt><trkpt lat="45.79586747206846" lon="11.021933847694104"><ele>148.66666666666669</ele><time>2026-04-12T06:53:09.999Z</time></trkpt><trkpt lat="45.79606120103389" lon="11.021932571972052"><ele>149.33333333333334</ele><time>2026-04-12T06:53:10.999Z</time></trkpt><trkpt lat="45.79625807055527" lon="11.021925624413846"><ele>150.0</ele><time>2026-04-12T06:53:11.999Z</time></trkpt><trkpt lat="45.79645507114849" lon="11.021911950527087"><ele>150.0</ele><time>2026-04-12T06:53:12.999Z</time></trkpt><trkpt lat="45.79664665783254" lon="11.021882360904325"><ele>150.0</ele><time>2026-04-12T06:53:13.999Z</time></trkpt><trkpt lat="45.796837997284285" lon="11.021830426124085"><ele>150.0</ele><time>2026-04-12T06:53:14.999Z</time></trkpt><trkpt lat="45.7970308492069" lon="11.02176659755884"><ele>149.66666666666666</ele><time>2026-04-12T06:53:15.998Z</time></trkpt><trkpt lat="45.79721855244004" lon="11.021700237749808"><ele>149.33333333333331</ele><time>2026-04-12T06:53:16.998Z</time></trkpt><trkpt lat="45.797409456669996" lon="11.021623873546025"><ele>149.0</ele><time>2026-04-12T06:53:17.998Z</time></trkpt><trkpt lat="45.79760325958372" lon="11.021548742711746"><ele>149.0</ele><time>2026-04-12T06:53:18.998Z</time></trkpt><trkpt lat="45.79779847881189" lon="11.021465771638413"><ele>149.0</ele><time>2026-04-12T06:53:19.998Z</time></trkpt><trkpt lat="45.798001857915224" lon="11.021373923651415"><ele>149.0</ele><time>2026-04-12T06:53:20.998Z</time></trkpt><trkpt lat="45.79821794577081" lon="11.021277789049183"><ele>149.0</ele><time>2026-04-12T06:53:21.998Z</time></trkpt><trkpt lat="45.79844300759595" lon="11.02118331591956"><ele>149.0</ele><time>2026-04-12T06:53:22.998Z</time></trkpt><trkpt lat="45.79866354089015" lon="11.021069002521068"><ele>148.5</ele><time>2026-04-12T06:53:23.998Z</time></trkpt><trkpt lat="45.79887548627816" lon="11.020936851668887"><ele>148.0</ele><time>2026-04-12T06:53:24.998Z</time></trkpt><trkpt lat="45.79909074534849" lon="11.020803642717748"><ele>148.0</ele><time>2026-04-12T06:53:25.998Z</time></trkpt><trkpt lat="45.79931022724779" lon="11.020662012762594"><ele>148.0</ele><time>2026-04-12T06:53:26.998Z</time></trkpt><trkpt lat="45.79952329174142" lon="11.020528640090905"><ele>148.5</ele><time>2026-04-12T06:53:27.998Z</time></trkpt><trkpt lat="45.7997350121323" lon="11.020406574966776"><ele>149.0</ele><time>2026-04-12T06:53:28.998Z</time></trkpt><trkpt lat="45.7999510022512" lon="11.02028183207353"><ele>149.0</ele><time>2026-04-12T06:53:29.998Z</time></trkpt><trkpt lat="45.80016167385126" lon="11.020158134504257"><ele>149.0</ele><time>2026-04-12T06:53:30.998Z</time></trkpt><trkpt lat="45.80037567602249" lon="11.020034401575508"><ele>148.0</ele><time>2026-04-12T06:53:31.998Z</time></trkpt><trkpt lat="45.80059165905833" lon="11.019906906916082"><ele>147.0</ele><time>2026-04-12T06:53:32.998Z</time></trkpt><trkpt lat="45.800807498093135" lon="11.019782782652594"><ele>147.0</ele><time>2026-04-12T06:53:33.998Z</time></trkpt><trkpt lat="45.8010207496336" lon="11.019660021528425"><ele>147.0</ele><time>2026-04-12T06:53:34.998Z</time></trkpt><trkpt lat="45.801240704900884" lon="11.019534627644806"><ele>147.0</ele><time>2026-04-12T06:53:35.998Z</time></trkpt><trkpt lat="45.80146771332116" lon="11.019416735400698"><ele>147.0</ele><time>2026-04-12T06:53:36.998Z</time></trkpt><trkpt lat="45.801707331694914" lon="11.019310664002594"><ele>147.5</ele><time>2026-04-12T06:53:37.998Z</time></trkpt><trkpt lat="45.80194595780039" lon="11.019225959087308"><ele>148.0</ele><time>2026-04-12T06:53:38.998Z</time></trkpt><trkpt lat="45.802175913913054" lon="11.019163192167747"><ele>149.0</ele><time>2026-04-12T06:53:39.998Z</time></trkpt><trkpt lat="45.80240511121356" lon="11.019100987792271"><ele>150.0</ele><time>2026-04-12T06:53:40.998Z</time></trkpt><trkpt lat="45.802638471149436" lon="11.0190355904357"><ele>149.0</ele><time>2026-04-12T06:53:41.998Z</time></trkpt><trkpt lat="45.802865747297815" lon="11.018973877157563"><ele>148.0</ele><time>2026-04-12T06:53:42.998Z</time></trkpt><trkpt lat="45.80309620603906" lon="11.018904871647461"><ele>148.0</ele><time>2026-04-12T06:53:43.998Z</time></trkpt><trkpt lat="45.803324968734906" lon="11.018832252371729"><ele>148.0</ele><time>2026-04-12T06:53:44.998Z</time></trkpt><trkpt lat="45.80354627753457" lon="11.018769864402035"><ele>147.33333333333334</ele><time>2026-04-12T06:53:45.998Z</time></trkpt><trkpt lat="45.803741664402374" lon="11.01870834054657"><ele>146.66666666666666</ele><time>2026-04-12T06:53:46.998Z</time></trkpt><trkpt lat="45.80392629542623" lon="11.01865520567027"><ele>146.0</ele><time>2026-04-12T06:53:47.998Z</time></trkpt><trkpt lat="45.80410916639827" lon="11.01859945607206"><ele>146.0</ele><time>2026-04-12T06:53:48.998Z</time></trkpt><trkpt lat="45.804272962530995" lon="11.018551285418466"><ele>146.0</ele><time>2026-04-12T06:53:50Z</time></trkpt><trkpt lat="45.8044385167506" lon="11.018505138950276"><ele>146.0</ele><time>2026-04-12T06:53:51Z</time></trkpt><trkpt lat="45.80459082946223" lon="11.018460682821692"><ele>146.5</ele><time>2026-04-12T06:53:52Z</time></trkpt><trkpt lat="45.80473055971779" lon="11.018413132585428"><ele>147.0</ele><time>2026-04-12T06:53:53Z</time></trkpt><trkpt lat="45.804865724388" lon="11.018377712339955"><ele>147.5</ele><time>2026-04-12T06:53:54Z</time></trkpt><trkpt lat="45.80499436067658" lon="11.01834255303275"><ele>148.0</ele><time>2026-04-12T06:53:55Z</time></trkpt><trkpt lat="45.80511332929943" lon="11.018312028499592"><ele>148.25</ele><time>2026-04-12T06:53:56Z</time></trkpt><trkpt lat="45.80522540959003" lon="11.018301165883738"><ele>148.5</ele><time>2026-04-12T06:53:57Z</time></trkpt><trkpt lat="45.80533084804153" lon="11.018290352768032"><ele>148.75</ele><time>2026-04-12T06:53:58Z</time></trkpt><trkpt lat="45.805441673188334" lon="11.01829050883693"><ele>149.0</ele><time>2026-04-12T06:53:59Z</time></trkpt><trkpt lat="45.80557321675655" lon="11.018282868168496"><ele>149.0</ele><time>2026-04-12T06:54:00Z</time></trkpt><trkpt lat="45.80572319961499" lon="11.018200318991681"><ele>149.0</ele><time>2026-04-12T06:54:01Z</time></trkpt><trkpt lat="45.80586689433575" lon="11.018069527279664"><ele>149.0</ele><time>2026-04-12T06:54:02Z</time></trkpt><trkpt lat="45.80600705326502" lon="11.017951293840918"><ele>149.33333333333331</ele><time>2026-04-12T06:54:03Z</time></trkpt><trkpt lat="45.80615004720319" lon="11.017841445337869"><ele>149.66666666666666</ele><time>2026-04-12T06:54:04Z</time></trkpt><trkpt lat="45.80629766993229" lon="11.017738144614558"><ele>150.0</ele><time>2026-04-12T06:54:05Z</time></trkpt><trkpt lat="45.80642800931868" lon="11.01762536999592"><ele>150.0</ele><time>2026-04-12T06:54:06Z</time></trkpt><trkpt lat="45.80655873209456" lon="11.017508868547784"><ele>150.0</ele><time>2026-04-12T06:54:07Z</time></trkpt><trkpt lat="45.80668211360822" lon="11.017396052511184"><ele>150.0</ele><time>2026-04-12T06:54:08Z</time></trkpt><trkpt lat="45.806800513438276" lon="11.017284897312695"><ele>150.0</ele><time>2026-04-12T06:54:09Z</time></trkpt><trkpt lat="45.806919341937615" lon="11.017181280888863"><ele>149.75</ele><time>2026-04-12T06:54:10Z</time></trkpt><trkpt lat="45.80703734450761" lon="11.017076711683924"><ele>149.5</ele><time>2026-04-12T06:54:11Z</time></trkpt><trkpt lat="45.80715119250036" lon="11.016976957961306"><ele>149.25</ele><time>2026-04-12T06:54:12Z</time></trkpt><trkpt lat="45.80725555894021" lon="11.016871506571949"><ele>149.0</ele><time>2026-04-12T06:54:13Z</time></trkpt><trkpt lat="45.80735311087843" lon="11.016783714125884"><ele>149.0</ele><time>2026-04-12T06:54:14Z</time></trkpt><trkpt lat="45.80745925407971" lon="11.01669257410244"><ele>149.0</ele><time>2026-04-12T06:54:15Z</time></trkpt><trkpt lat="45.807573257739215" lon="11.0165910020573"><ele>149.0</ele><time>2026-04-12T06:54:16Z</time></trkpt><trkpt lat="45.80769018269126" lon="11.016489815226267"><ele>149.0</ele><time>2026-04-12T06:54:17Z</time></trkpt><trkpt lat="45.80780682945953" lon="11.016390161023546"><ele>149.25</ele><time>2026-04-12T06:54:18Z</time></trkpt><trkpt lat="45.807918129189574" lon="11.016290400305994"><ele>149.5</ele><time>2026-04-12T06:54:19Z</time></trkpt><trkpt lat="45.808035060264494" lon="11.016187721290864"><ele>149.75</ele><time>2026-04-12T06:54:20Z</time></trkpt><trkpt lat="45.80815795938214" lon="11.01608117396962"><ele>150.0</ele><time>2026-04-12T06:54:21Z</time></trkpt><trkpt lat="45.80829218103576" lon="11.0159636213386"><ele>150.0</ele><time>2026-04-12T06:54:22Z</time></trkpt><trkpt lat="45.80841902403304" lon="11.015837850169031"><ele>150.0</ele><time>2026-04-12T06:54:23Z</time></trkpt><trkpt lat="45.808542707910476" lon="11.015712793364841"><ele>150.0</ele><time>2026-04-12T06:54:24Z</time></trkpt><trkpt lat="45.80867065728184" lon="11.015577082064846"><ele>150.0</ele><time>2026-04-12T06:54:25Z</time></trkpt><trkpt lat="45.80880176554984" lon="11.015444151857686"><ele>150.0</ele><time>2026-04-12T06:54:26Z</time></trkpt><trkpt lat="45.8089353798145" lon="11.015303733699843"><ele>150.0</ele><time>2026-04-12T06:54:27Z</time></trkpt><trkpt lat="45.80907125393201" lon="11.015159699157358"><ele>150.0</ele><time>2026-04-12T06:54:28Z</time></trkpt><trkpt lat="45.809210220914196" lon="11.015018339347334"><ele>150.0</ele><time>2026-04-12T06:54:29Z</time></trkpt><trkpt lat="45.80936036534226" lon="11.014885727403534"><ele>150.0</ele><time>2026-04-12T06:54:29.999Z</time></trkpt><trkpt lat="45.80951533273655" lon="11.014760616758146"><ele>150.33333333333334</ele><time>2026-04-12T06:54:30.999Z</time></trkpt><trkpt lat="45.80966717998878" lon="11.014631574886298"><ele>150.66666666666669</ele><time>2026-04-12T06:54:31.999Z</time></trkpt><trkpt lat="45.80981948277081" lon="11.014497838812115"><ele>151.0</ele><time>2026-04-12T06:54:32.999Z</time></trkpt><trkpt lat="45.809969405656076" lon="11.01436723597768"><ele>151.0</ele><time>2026-04-12T06:54:33.999Z</time></trkpt><trkpt lat="45.810130466810854" lon="11.014243695478466"><ele>151.0</ele><time>2026-04-12T06:54:34.999Z</time></trkpt><trkpt lat="45.81028544309508" lon="11.014123817743597"><ele>151.0</ele><time>2026-04-12T06:54:35.999Z</time></trkpt><trkpt lat="45.810453261946975" lon="11.014014559792804"><ele>150.33333333333334</ele><time>2026-04-12T06:54:36.999Z</time></trkpt><trkpt lat="45.81063271904105" lon="11.01392304938153"><ele>149.66666666666666</ele><time>2026-04-12T06:54:37.999Z</time></trkpt><trkpt lat="45.81081093989709" lon="11.013843604002469"><ele>149.0</ele><time>2026-04-12T06:54:38.999Z</time></trkpt><trkpt lat="45.8109908982171" lon="11.013765733798895"><ele>150.0</ele><time>2026-04-12T06:54:39.999Z</time></trkpt><trkpt lat="45.81117111030132" lon="11.013689798825768"><ele>151.0</ele><time>2026-04-12T06:54:40.999Z</time></trkpt><trkpt lat="45.811346129885585" lon="11.013611846617037"><ele>152.0</ele><time>2026-04-12T06:54:41.999Z</time></trkpt><trkpt lat="45.81152587390403" lon="11.013532307571044"><ele>152.0</ele><time>2026-04-12T06:54:42.999Z</time></trkpt><trkpt lat="45.81170642363394" lon="11.013444318673246"><ele>152.0</ele><time>2026-04-12T06:54:43.999Z</time></trkpt><trkpt lat="45.81189798140845" lon="11.013380101502507"><ele>152.0</ele><time>2026-04-12T06:54:44.999Z</time></trkpt><trkpt lat="45.81209009935927" lon="11.01330218117866"><ele>152.33333333333331</ele><time>2026-04-12T06:54:45.999Z</time></trkpt><trkpt lat="45.812275616507385" lon="11.013230152306706"><ele>152.66666666666666</ele><time>2026-04-12T06:54:46.999Z</time></trkpt><trkpt lat="45.81246587821922" lon="11.013148420342104"><ele>153.0</ele><time>2026-04-12T06:54:47.999Z</time></trkpt><trkpt lat="45.81265899698243" lon="11.013083013945794"><ele>154.0</ele><time>2026-04-12T06:54:48.999Z</time></trkpt><trkpt lat="45.812845713624746" lon="11.013019141899298"><ele>155.0</ele><time>2026-04-12T06:54:49.999Z</time></trkpt><trkpt lat="45.81303039269801" lon="11.012956005240547"><ele>156.0</ele><time>2026-04-12T06:54:50.999Z</time></trkpt><trkpt lat="45.81321039678008" lon="11.012891022342338"><ele>156.0</ele><time>2026-04-12T06:54:51.999Z</time></trkpt><trkpt lat="45.813386360512716" lon="11.012827001471376"><ele>156.0</ele><time>2026-04-12T06:54:52.999Z</time></trkpt><trkpt lat="45.81355736609458" lon="11.01276651840509"><ele>156.0</ele><time>2026-04-12T06:54:53.999Z</time></trkpt><trkpt lat="45.81372892953122" lon="11.01270517160497"><ele>157.66666666666666</ele><time>2026-04-12T06:54:54.999Z</time></trkpt><trkpt lat="45.81389999239021" lon="11.012645052557486"><ele>159.33333333333331</ele><time>2026-04-12T06:54:55.999Z</time></trkpt><trkpt lat="45.814069906057" lon="11.012584415801097"><ele>161.0</ele><time>2026-04-12T06:54:56.999Z</time></trkpt><trkpt lat="45.81423733306284" lon="11.012529563528709"><ele>157.66666666666666</ele><time>2026-04-12T06:54:57.999Z</time></trkpt><trkpt lat="45.81440443772212" lon="11.012479134668697"><ele>154.33333333333334</ele><time>2026-04-12T06:54:58.999Z</time></trkpt><trkpt lat="45.81457131891483" lon="11.01242732734492"><ele>151.0</ele><time>2026-04-12T06:54:59.999Z</time></trkpt><trkpt lat="45.814737832258416" lon="11.012374378125918"><ele>151.0</ele><time>2026-04-12T06:55:00.999Z</time></trkpt><trkpt lat="45.81490661765786" lon="11.012321130546397"><ele>151.0</ele><time>2026-04-12T06:55:01.999Z</time></trkpt><trkpt lat="45.8150760659534" lon="11.012268359416957"><ele>151.0</ele><time>2026-04-12T06:55:02.999Z</time></trkpt><trkpt lat="45.81524558223511" lon="11.01221355059676"><ele>151.0</ele><time>2026-04-12T06:55:03.999Z</time></trkpt><trkpt lat="45.81541225705562" lon="11.012160860887532"><ele>151.0</ele><time>2026-04-12T06:55:04.999Z</time></trkpt><trkpt lat="45.81558185149224" lon="11.012109392359998"><ele>151.0</ele><time>2026-04-12T06:55:05.999Z</time></trkpt><trkpt lat="45.81575456213606" lon="11.012058262596161"><ele>151.0</ele><time>2026-04-12T06:55:06.999Z</time></trkpt><trkpt lat="45.81592008029178" lon="11.012009817448327"><ele>151.0</ele><time>2026-04-12T06:55:07.999Z</time></trkpt><trkpt lat="45.81608301633609" lon="11.011958084184842"><ele>151.0</ele><time>2026-04-12T06:55:08.999Z</time></trkpt><trkpt lat="45.81625256439409" lon="11.011909128081074"><ele>152.33333333333334</ele><time>2026-04-12T06:55:09.999Z</time></trkpt><trkpt lat="45.81642322401416" lon="11.011852457266798"><ele>153.66666666666666</ele><time>2026-04-12T06:55:10.999Z</time></trkpt><trkpt lat="45.81659649980625" lon="11.011802256354216"><ele>155.0</ele><time>2026-04-12T06:55:11.999Z</time></trkpt><trkpt lat="45.81677108929019" lon="11.01174826194577"><ele>154.0</ele><time>2026-04-12T06:55:12.999Z</time></trkpt><trkpt lat="45.81694846602085" lon="11.011697071981752"><ele>153.0</ele><time>2026-04-12T06:55:13.999Z</time></trkpt><trkpt lat="45.81712146590823" lon="11.011640590429174"><ele>152.0</ele><time>2026-04-12T06:55:14.999Z</time></trkpt><trkpt lat="45.81729910057073" lon="11.011582208386013"><ele>152.0</ele><time>2026-04-12T06:55:15.999Z</time></trkpt><trkpt lat="45.81748028552322" lon="11.011518986294094"><ele>152.0</ele><time>2026-04-12T06:55:16.999Z</time></trkpt><trkpt lat="45.81766487691123" lon="11.011453879331082"><ele>152.0</ele><time>2026-04-12T06:55:17.999Z</time></trkpt><trkpt lat="45.81785450778716" lon="11.011388409564049"><ele>152.66666666666666</ele><time>2026-04-12T06:55:18.999Z</time></trkpt><trkpt lat="45.81804567950533" lon="11.011318652449159"><ele>153.33333333333334</ele><time>2026-04-12T06:55:19.999Z</time></trkpt><trkpt lat="45.81824236919733" lon="11.01125091760895"><ele>154.0</ele><time>2026-04-12T06:55:20.999Z</time></trkpt><trkpt lat="45.818443398833196" lon="11.011190047261033"><ele>154.0</ele><time>2026-04-12T06:55:21.999Z</time></trkpt><trkpt lat="45.818649743618145" lon="11.01114740506557"><ele>154.0</ele><time>2026-04-12T06:55:22.998Z</time></trkpt><trkpt lat="45.81885806355614" lon="11.011111878759724"><ele>154.0</ele><time>2026-04-12T06:55:23.998Z</time></trkpt><trkpt lat="45.819072583067545" lon="11.011070679648572"><ele>154.0</ele><time>2026-04-12T06:55:24.998Z</time></trkpt><trkpt lat="45.8192875695891" lon="11.011027695780909"><ele>154.0</ele><time>2026-04-12T06:55:25.998Z</time></trkpt><trkpt lat="45.819502774127855" lon="11.010984824612905"><ele>154.0</ele><time>2026-04-12T06:55:26.998Z</time></trkpt><trkpt lat="45.81972220341553" lon="11.010940148070311"><ele>156.0</ele><time>2026-04-12T06:55:27.998Z</time></trkpt><trkpt lat="45.819949670837325" lon="11.01089512767842"><ele>158.0</ele><time>2026-04-12T06:55:28.998Z</time></trkpt><trkpt lat="45.82017947978156" lon="11.01085548968975"><ele>155.0</ele><time>2026-04-12T06:55:29.998Z</time></trkpt><trkpt lat="45.8204084834982" lon="11.010822442316504"><ele>152.0</ele><time>2026-04-12T06:55:30.998Z</time></trkpt><trkpt lat="45.820645207144764" lon="11.01079019374096"><ele>152.0</ele><time>2026-04-12T06:55:31.998Z</time></trkpt><trkpt lat="45.82088305765782" lon="11.010767666945606"><ele>152.0</ele><time>2026-04-12T06:55:32.998Z</time></trkpt><trkpt lat="45.821122950495955" lon="11.010748062388384"><ele>152.0</ele><time>2026-04-12T06:55:33.998Z</time></trkpt><trkpt lat="45.821357010101174" lon="11.010724971248571"><ele>152.0</ele><time>2026-04-12T06:55:34.998Z</time></trkpt><trkpt lat="45.8215891796832" lon="11.010705022006974"><ele>152.5</ele><time>2026-04-12T06:55:35.998Z</time></trkpt><trkpt lat="45.82182000530519" lon="11.01068593523874"><ele>153.0</ele><time>2026-04-12T06:55:36.998Z</time></trkpt><trkpt lat="45.822047110994106" lon="11.01066171859956"><ele>153.0</ele><time>2026-04-12T06:55:37.998Z</time></trkpt><trkpt lat="45.82228212307991" lon="11.010644219558216"><ele>153.0</ele><time>2026-04-12T06:55:38.998Z</time></trkpt><trkpt lat="45.822514215985535" lon="11.010624277633319"><ele>155.0</ele><time>2026-04-12T06:55:39.998Z</time></trkpt><trkpt lat="45.82274910379784" lon="11.01060923689814"><ele>157.0</ele><time>2026-04-12T06:55:40.998Z</time></trkpt><trkpt lat="45.82298174165364" lon="11.01060744796785"><ele>157.0</ele><time>2026-04-12T06:55:41.998Z</time></trkpt><trkpt lat="45.823208098271245" lon="11.010623098176497"><ele>157.0</ele><time>2026-04-12T06:55:42.998Z</time></trkpt><trkpt lat="45.8234351716964" lon="11.010652895889516"><ele>157.0</ele><time>2026-04-12T06:55:43.998Z</time></trkpt><trkpt lat="45.82366399088054" lon="11.01068613175258"><ele>157.0</ele><time>2026-04-12T06:55:44.998Z</time></trkpt><trkpt lat="45.823894268193754" lon="11.010719465427359"><ele>157.0</ele><time>2026-04-12T06:55:45.998Z</time></trkpt><trkpt lat="45.824125019341615" lon="11.010751414211226"><ele>157.0</ele><time>2026-04-12T06:55:46.998Z</time></trkpt><trkpt lat="45.824355254598984" lon="11.010783232487057"><ele>157.0</ele><time>2026-04-12T06:55:47.998Z</time></trkpt><trkpt lat="45.82458591327335" lon="11.010812494312507"><ele>157.0</ele><time>2026-04-12T06:55:48.998Z</time></trkpt><trkpt lat="45.824814853263526" lon="11.010842313959264"><ele>157.5</ele><time>2026-04-12T06:55:49.998Z</time></trkpt><trkpt lat="45.82504140570412" lon="11.010872406338697"><ele>158.0</ele><time>2026-04-12T06:55:50.998Z</time></trkpt><trkpt lat="45.825266486470035" lon="11.010904255115145"><ele>159.66666666666666</ele><time>2026-04-12T06:55:51.998Z</time></trkpt><trkpt lat="45.825489873985255" lon="11.010935514276603"><ele>161.33333333333334</ele><time>2026-04-12T06:55:52.998Z</time></trkpt><trkpt lat="45.82571260372098" lon="11.010966560645366"><ele>163.0</ele><time>2026-04-12T06:55:53.998Z</time></trkpt><trkpt lat="45.8259326927515" lon="11.010992559487532"><ele>162.66666666666669</ele><time>2026-04-12T06:55:54.998Z</time></trkpt><trkpt lat="45.826152065213414" lon="11.01102207071548"><ele>162.33333333333334</ele><time>2026-04-12T06:55:56Z</time></trkpt><trkpt lat="45.82636980044431" lon="11.011052603935111"><ele>162.0</ele><time>2026-04-12T06:55:57Z</time></trkpt><trkpt lat="45.826586076019126" lon="11.011080025624514"><ele>162.0</ele><time>2026-04-12T06:55:58Z</time></trkpt><trkpt lat="45.826803703571414" lon="11.011108398070851"><ele>162.0</ele><time>2026-04-12T06:55:59Z</time></trkpt><trkpt lat="45.827018587237056" lon="11.011134970485152"><ele>162.0</ele><time>2026-04-12T06:56:00Z</time></trkpt><trkpt lat="45.82723144516557" lon="11.011164205847843"><ele>161.66666666666666</ele><time>2026-04-12T06:56:01Z</time></trkpt><trkpt lat="45.827443422908566" lon="11.011193744973959"><ele>161.33333333333331</ele><time>2026-04-12T06:56:02Z</time></trkpt><trkpt lat="45.82765366352403" lon="11.011223446356183"><ele>161.0</ele><time>2026-04-12T06:56:03Z</time></trkpt><trkpt lat="45.827861493284594" lon="11.011251159771277"><ele>162.33333333333331</ele><time>2026-04-12T06:56:04Z</time></trkpt><trkpt lat="45.82806289987053" lon="11.011277355393368"><ele>163.66666666666666</ele><time>2026-04-12T06:56:05Z</time></trkpt><trkpt lat="45.82826104315334" lon="11.01130261263217"><ele>165.0</ele><time>2026-04-12T06:56:06Z</time></trkpt><trkpt lat="45.82845883932946" lon="11.011330993766856"><ele>165.66666666666666</ele><time>2026-04-12T06:56:07Z</time></trkpt><trkpt lat="45.828654041715424" lon="11.011359376685858"><ele>166.33333333333331</ele><time>2026-04-12T06:56:08Z</time></trkpt><trkpt lat="45.828853617942954" lon="11.011394456623576"><ele>167.0</ele><time>2026-04-12T06:56:09Z</time></trkpt><trkpt lat="45.82905402209631" lon="11.011426040864219"><ele>167.0</ele><time>2026-04-12T06:56:10Z</time></trkpt><trkpt lat="45.82924953513385" lon="11.011451337262942"><ele>167.0</ele><time>2026-04-12T06:56:11Z</time></trkpt><trkpt lat="45.82944306497522" lon="11.011473185161934"><ele>167.0</ele><time>2026-04-12T06:56:12Z</time></trkpt><trkpt lat="45.82963389661998" lon="11.011480626457493"><ele>168.0</ele><time>2026-04-12T06:56:13Z</time></trkpt><trkpt lat="45.829827594850535" lon="11.01146789991309"><ele>169.0</ele><time>2026-04-12T06:56:14Z</time></trkpt><trkpt lat="45.83002134187504" lon="11.011425279209753"><ele>170.0</ele><time>2026-04-12T06:56:15Z</time></trkpt><trkpt lat="45.83022001353837" lon="11.011361935877337"><ele>170.0</ele><time>2026-04-12T06:56:16Z</time></trkpt><trkpt lat="45.830414812527124" lon="11.011271617601253"><ele>170.0</ele><time>2026-04-12T06:56:17Z</time></trkpt><trkpt lat="45.83060703036834" lon="11.011167046245282"><ele>170.0</ele><time>2026-04-12T06:56:18Z</time></trkpt><trkpt lat="45.8307976405554" lon="11.011052682052142"><ele>169.66666666666666</ele><time>2026-04-12T06:56:19Z</time></trkpt><trkpt lat="45.83097702883471" lon="11.010950370339645"><ele>169.33333333333334</ele><time>2026-04-12T06:56:20Z</time></trkpt><trkpt lat="45.831149859013465" lon="11.01085817712925"><ele>169.0</ele><time>2026-04-12T06:56:21Z</time></trkpt><trkpt lat="45.83132824310115" lon="11.010764921556515"><ele>169.0</ele><time>2026-04-12T06:56:22Z</time></trkpt><trkpt lat="45.83150315593825" lon="11.01067422796191"><ele>169.0</ele><time>2026-04-12T06:56:23Z</time></trkpt><trkpt lat="45.83168118287264" lon="11.010586935465872"><ele>169.0</ele><time>2026-04-12T06:56:24Z</time></trkpt><trkpt lat="45.83185773642586" lon="11.01050984700598"><ele>166.66666666666669</ele><time>2026-04-12T06:56:25Z</time></trkpt><trkpt lat="45.83203973256742" lon="11.010452760538904"><ele>164.33333333333334</ele><time>2026-04-12T06:56:26Z</time></trkpt><trkpt lat="45.83222575687821" lon="11.010417532485056"><ele>162.0</ele><time>2026-04-12T06:56:27Z</time></trkpt><trkpt lat="45.83240818085369" lon="11.010405513500213"><ele>162.0</ele><time>2026-04-12T06:56:28Z</time></trkpt><trkpt lat="45.832589952317335" lon="11.010391638857437"><ele>162.0</ele><time>2026-04-12T06:56:29Z</time></trkpt><trkpt lat="45.83276474435725" lon="11.01038105237097"><ele>162.0</ele><time>2026-04-12T06:56:30Z</time></trkpt><trkpt lat="45.832939576002076" lon="11.010372843005594"><ele>162.33333333333334</ele><time>2026-04-12T06:56:31Z</time></trkpt><trkpt lat="45.833111724566585" lon="11.010364615783972"><ele>162.66666666666669</ele><time>2026-04-12T06:56:32Z</time></trkpt><trkpt lat="45.83328611883828" lon="11.010357114947823"><ele>163.0</ele><time>2026-04-12T06:56:33Z</time></trkpt><trkpt lat="45.833460829653326" lon="11.010349710923123"><ele>163.33333333333334</ele><time>2026-04-12T06:56:34Z</time></trkpt><trkpt lat="45.83364023692098" lon="11.010345775690531"><ele>163.66666666666666</ele><time>2026-04-12T06:56:35Z</time></trkpt><trkpt lat="45.83381774202662" lon="11.010350779122593"><ele>164.0</ele><time>2026-04-12T06:56:36Z</time></trkpt><trkpt lat="45.833997236326745" lon="11.010362727835005"><ele>164.0</ele><time>2026-04-12T06:56:36.999Z</time></trkpt><trkpt lat="45.834180276558534" lon="11.010386635957042"><ele>164.0</ele><time>2026-04-12T06:56:37.999Z</time></trkpt><trkpt lat="45.83436134080954" lon="11.010412435896239"><ele>164.0</ele><time>2026-04-12T06:56:38.999Z</time></trkpt><trkpt lat="45.834533119031896" lon="11.010441760004413"><ele>163.66666666666666</ele><time>2026-04-12T06:56:39.999Z</time></trkpt><trkpt lat="45.834703567464246" lon="11.010468260189386"><ele>163.33333333333334</ele><time>2026-04-12T06:56:40.999Z</time></trkpt><trkpt lat="45.83488158961132" lon="11.01050206641778"><ele>163.0</ele><time>2026-04-12T06:56:41.999Z</time></trkpt><trkpt lat="45.83505327106427" lon="11.010532700321908"><ele>163.0</ele><time>2026-04-12T06:56:42.999Z</time></trkpt><trkpt lat="45.83522027745179" lon="11.010561104633721"><ele>163.0</ele><time>2026-04-12T06:56:43.999Z</time></trkpt><trkpt lat="45.83538764256244" lon="11.010591926122165"><ele>163.0</ele><time>2026-04-12T06:56:44.999Z</time></trkpt><trkpt lat="45.835557057720244" lon="11.010623926765819"><ele>163.0</ele><time>2026-04-12T06:56:45.999Z</time></trkpt><trkpt lat="45.83572792320956" lon="11.010652817332828"><ele>163.0</ele><time>2026-04-12T06:56:46.999Z</time></trkpt><trkpt lat="45.835895307381335" lon="11.01068131978316"><ele>163.0</ele><time>2026-04-12T06:56:47.999Z</time></trkpt><trkpt lat="45.83605701328531" lon="11.010708037259716"><ele>162.33333333333334</ele><time>2026-04-12T06:56:48.999Z</time></trkpt><trkpt lat="45.83622475402458" lon="11.010734364991382"><ele>161.66666666666666</ele><time>2026-04-12T06:56:49.999Z</time></trkpt><trkpt lat="45.83639130703352" lon="11.010755841031475"><ele>161.0</ele><time>2026-04-12T06:56:50.999Z</time></trkpt><trkpt lat="45.83655793446248" lon="11.01076677887358"><ele>161.0</ele><time>2026-04-12T06:56:51.999Z</time></trkpt><trkpt lat="45.836743764258806" lon="11.010774097307205"><ele>161.0</ele><time>2026-04-12T06:56:52.999Z</time></trkpt><trkpt lat="45.836922552124015" lon="11.010779348491646"><ele>161.0</ele><time>2026-04-12T06:56:53.999Z</time></trkpt><trkpt lat="45.837084257772744" lon="11.010786464585388"><ele>160.0</ele><time>2026-04-12T06:56:54.999Z</time></trkpt><trkpt lat="45.83725571559942" lon="11.010798075454503"><ele>159.0</ele><time>2026-04-12T06:56:55.999Z</time></trkpt><trkpt lat="45.83743875448189" lon="11.010811809046706"><ele>158.0</ele><time>2026-04-12T06:56:56.999Z</time></trkpt><trkpt lat="45.83762884360264" lon="11.010822600993196"><ele>161.0</ele><time>2026-04-12T06:56:57.999Z</time></trkpt><trkpt lat="45.83781865522316" lon="11.01082911215933"><ele>164.0</ele><time>2026-04-12T06:56:58.999Z</time></trkpt><trkpt lat="45.838003724938375" lon="11.010837104500583"><ele>167.0</ele><time>2026-04-12T06:56:59.999Z</time></trkpt><trkpt lat="45.83818905470685" lon="11.010847676807256"><ele>167.0</ele><time>2026-04-12T06:57:00.999Z</time></trkpt><trkpt lat="45.83837356573916" lon="11.010860452451368"><ele>167.0</ele><time>2026-04-12T06:57:01.999Z</time></trkpt><trkpt lat="45.83855778033337" lon="11.010875980444927"><ele>167.0</ele><time>2026-04-12T06:57:02.999Z</time></trkpt><trkpt lat="45.83874265386757" lon="11.010897786029801"><ele>167.33333333333331</ele><time>2026-04-12T06:57:03.999Z</time></trkpt><trkpt lat="45.83892820677973" lon="11.010933709412596"><ele>167.66666666666666</ele><time>2026-04-12T06:57:04.999Z</time></trkpt><trkpt lat="45.8391108297946" lon="11.010994074866762"><ele>168.0</ele><time>2026-04-12T06:57:05.999Z</time></trkpt><trkpt lat="45.83929434520429" lon="11.011070185749892"><ele>168.0</ele><time>2026-04-12T06:57:06.999Z</time></trkpt><trkpt lat="45.839476666880564" lon="11.01114909653248"><ele>168.0</ele><time>2026-04-12T06:57:07.999Z</time></trkpt><trkpt lat="45.83966176044807" lon="11.011229025532645"><ele>168.0</ele><time>2026-04-12T06:57:08.999Z</time></trkpt><trkpt lat="45.839852034708116" lon="11.01131226066756"><ele>168.0</ele><time>2026-04-12T06:57:09.999Z</time></trkpt><trkpt lat="45.840036267711874" lon="11.011392840773862"><ele>168.0</ele><time>2026-04-12T06:57:10.999Z</time></trkpt><trkpt lat="45.84021226716993" lon="11.011468177172997"><ele>168.0</ele><time>2026-04-12T06:57:11.999Z</time></trkpt><trkpt lat="45.84038753992097" lon="11.01154425932942"><ele>170.0</ele><time>2026-04-12T06:57:12.999Z</time></trkpt><trkpt lat="45.840565702378164" lon="11.011621493900732"><ele>172.0</ele><time>2026-04-12T06:57:13.999Z</time></trkpt><trkpt lat="45.840744570721675" lon="11.01170055402802"><ele>174.0</ele><time>2026-04-12T06:57:14.999Z</time></trkpt><trkpt lat="45.840923055167664" lon="11.011779205567343"><ele>175.33333333333334</ele><time>2026-04-12T06:57:15.999Z</time></trkpt><trkpt lat="45.841102889339346" lon="11.011859385716942"><ele>176.66666666666669</ele><time>2026-04-12T06:57:16.999Z</time></trkpt><trkpt lat="45.8412806963336" lon="11.011938397116221"><ele>178.0</ele><time>2026-04-12T06:57:17.999Z</time></trkpt><trkpt lat="45.84145901431637" lon="11.012014147459245"><ele>178.0</ele><time>2026-04-12T06:57:18.999Z</time></trkpt><trkpt lat="45.841639187943976" lon="11.01208746366146"><ele>178.0</ele><time>2026-04-12T06:57:19.999Z</time></trkpt><trkpt lat="45.84182594665636" lon="11.012152935286148"><ele>178.0</ele><time>2026-04-12T06:57:20.999Z</time></trkpt><trkpt lat="45.84201980103292" lon="11.012197235069646"><ele>179.0</ele><time>2026-04-12T06:57:21.999Z</time></trkpt><trkpt lat="45.84221811697696" lon="11.012228914785409"><ele>180.0</ele><time>2026-04-12T06:57:22.999Z</time></trkpt><trkpt lat="45.84241942104133" lon="11.012245107092335"><ele>181.0</ele><time>2026-04-12T06:57:23.999Z</time></trkpt><trkpt lat="45.842620561862255" lon="11.012266959727029"><ele>180.66666666666669</ele><time>2026-04-12T06:57:24.999Z</time></trkpt><trkpt lat="45.84282380439346" lon="11.012287427343544"><ele>180.33333333333334</ele><time>2026-04-12T06:57:25.999Z</time></trkpt><trkpt lat="45.84302142081819" lon="11.012310467609199"><ele>180.0</ele><time>2026-04-12T06:57:26.999Z</time></trkpt><trkpt lat="45.84321997590994" lon="11.01233217933961"><ele>180.0</ele><time>2026-04-12T06:57:27.999Z</time></trkpt><trkpt lat="45.84342143965721" lon="11.012353067938808"><ele>180.0</ele><time>2026-04-12T06:57:28.999Z</time></trkpt><trkpt lat="45.84362313460492" lon="11.012374869462848"><ele>180.0</ele><time>2026-04-12T06:57:29.998Z</time></trkpt><trkpt lat="45.8438289188574" lon="11.012397120364879"><ele>177.66666666666666</ele><time>2026-04-12T06:57:30.998Z</time></trkpt><trkpt lat="45.8440345919633" lon="11.012423155743557"><ele>175.33333333333331</ele><time>2026-04-12T06:57:31.998Z</time></trkpt><trkpt lat="45.84424597114888" lon="11.012438709609086"><ele>173.0</ele><time>2026-04-12T06:57:32.998Z</time></trkpt><trkpt lat="45.84445722699497" lon="11.012465338744784"><ele>174.33333333333331</ele><time>2026-04-12T06:57:33.998Z</time></trkpt><trkpt lat="45.84466469036491" lon="11.012484449211327"><ele>175.66666666666666</ele><time>2026-04-12T06:57:34.998Z</time></trkpt><trkpt lat="45.84486986505451" lon="11.0125069087733"><ele>177.0</ele><time>2026-04-12T06:57:35.998Z</time></trkpt><trkpt lat="45.84508048552589" lon="11.01252678124071"><ele>177.66666666666666</ele><time>2026-04-12T06:57:36.998Z</time></trkpt><trkpt lat="45.84528999133296" lon="11.012550582162236"><ele>178.33333333333331</ele><time>2026-04-12T06:57:37.998Z</time></trkpt><trkpt lat="45.84549972018094" lon="11.012574017040219"><ele>179.0</ele><time>2026-04-12T06:57:38.998Z</time></trkpt><trkpt lat="45.845709049927386" lon="11.01259782762456"><ele>179.0</ele><time>2026-04-12T06:57:39.998Z</time></trkpt><trkpt lat="45.845919453250765" lon="11.012622004113021"><ele>179.0</ele><time>2026-04-12T06:57:40.998Z</time></trkpt><trkpt lat="45.84613176256972" lon="11.012645408499946"><ele>179.0</ele><time>2026-04-12T06:57:41.998Z</time></trkpt><trkpt lat="45.84634328168282" lon="11.012667598461233"><ele>177.33333333333331</ele><time>2026-04-12T06:57:42.998Z</time></trkpt><trkpt lat="45.84655719868757" lon="11.012695130081879"><ele>175.66666666666666</ele><time>2026-04-12T06:57:43.998Z</time></trkpt><trkpt lat="45.846773993652" lon="11.0127174241966"><ele>174.0</ele><time>2026-04-12T06:57:44.998Z</time></trkpt><trkpt lat="45.84698207679481" lon="11.012739746833546"><ele>174.0</ele><time>2026-04-12T06:57:45.998Z</time></trkpt><trkpt lat="45.847193385897704" lon="11.012763881955891"><ele>174.0</ele><time>2026-04-12T06:57:46.998Z</time></trkpt><trkpt lat="45.8474078060078" lon="11.012784939733786"><ele>174.0</ele><time>2026-04-12T06:57:47.998Z</time></trkpt><trkpt lat="45.84762072679989" lon="11.0128083135015"><ele>173.33333333333334</ele><time>2026-04-12T06:57:48.998Z</time></trkpt><trkpt lat="45.84783819010378" lon="11.012834756403493"><ele>172.66666666666669</ele><time>2026-04-12T06:57:49.998Z</time></trkpt><trkpt lat="45.84806084714228" lon="11.01286232750474"><ele>172.0</ele><time>2026-04-12T06:57:50.998Z</time></trkpt><trkpt lat="45.84828485403751" lon="11.012887504726715"><ele>172.66666666666669</ele><time>2026-04-12T06:57:51.998Z</time></trkpt><trkpt lat="45.848504435992695" lon="11.0129079132699"><ele>173.33333333333334</ele><time>2026-04-12T06:57:52.998Z</time></trkpt><trkpt lat="45.848708710349925" lon="11.01292699341663"><ele>174.0</ele><time>2026-04-12T06:57:53.998Z</time></trkpt><trkpt lat="45.84890683630897" lon="11.012946612539082"><ele>174.0</ele><time>2026-04-12T06:57:54.998Z</time></trkpt><trkpt lat="45.849108436496785" lon="11.01296520977264"><ele>174.0</ele><time>2026-04-12T06:57:55.998Z</time></trkpt><trkpt lat="45.8492902565303" lon="11.012985304891574"><ele>174.0</ele><time>2026-04-12T06:57:56.998Z</time></trkpt><trkpt lat="45.84946579688619" lon="11.013002545432157"><ele>174.33333333333334</ele><time>2026-04-12T06:57:57.998Z</time></trkpt><trkpt lat="45.84963367784285" lon="11.013021029381063"><ele>174.66666666666669</ele><time>2026-04-12T06:57:58.998Z</time></trkpt><trkpt lat="45.8497929404138" lon="11.013040033866496"><ele>175.0</ele><time>2026-04-12T06:57:59.998Z</time></trkpt><trkpt lat="45.84994607839482" lon="11.01306149758109"><ele>175.0</ele><time>2026-04-12T06:58:00.998Z</time></trkpt><trkpt lat="45.85008201824592" lon="11.01308815460061"><ele>175.0</ele><time>2026-04-12T06:58:02Z</time></trkpt><trkpt lat="45.85021005135245" lon="11.013127200376957"><ele>175.0</ele><time>2026-04-12T06:58:03Z</time></trkpt><trkpt lat="45.85033214571738" lon="11.013177314320618"><ele>175.0</ele><time>2026-04-12T06:58:04Z</time></trkpt><trkpt lat="45.85044450756393" lon="11.013244570769098"><ele>175.25</ele><time>2026-04-12T06:58:05Z</time></trkpt><trkpt lat="45.85055027157223" lon="11.013300424438725"><ele>175.5</ele><time>2026-04-12T06:58:06Z</time></trkpt><trkpt lat="45.85065341994881" lon="11.013310869642519"><ele>175.75</ele><time>2026-04-12T06:58:07Z</time></trkpt><trkpt lat="45.85077330748717" lon="11.01324928624379"><ele>176.0</ele><time>2026-04-12T06:58:08Z</time></trkpt><trkpt lat="45.850911877904196" lon="11.013126641735417"><ele>176.0</ele><time>2026-04-12T06:58:09Z</time></trkpt><trkpt lat="45.85107244039354" lon="11.0130409417826"><ele>176.0</ele><time>2026-04-12T06:58:10Z</time></trkpt><trkpt lat="45.85126735624451" lon="11.013040944181277"><ele>176.0</ele><time>2026-04-12T06:58:11Z</time></trkpt><trkpt lat="45.851473436549334" lon="11.013065034118757"><ele>176.0</ele><time>2026-04-12T06:58:12Z</time></trkpt><trkpt lat="45.851674729870474" lon="11.013088018148922"><ele>176.0</ele><time>2026-04-12T06:58:13Z</time></trkpt><trkpt lat="45.85187299819544" lon="11.013096975163434"><ele>176.0</ele><time>2026-04-12T06:58:14Z</time></trkpt><trkpt lat="45.85207049990473" lon="11.0131334279192"><ele>176.0</ele><time>2026-04-12T06:58:15Z</time></trkpt><trkpt lat="45.8522717151592" lon="11.01323124714717"><ele>176.0</ele><time>2026-04-12T06:58:16Z</time></trkpt><trkpt lat="45.85247175235971" lon="11.013363740673528"><ele>176.0</ele><time>2026-04-12T06:58:17Z</time></trkpt><trkpt lat="45.8526565519878" lon="11.013524875368454"><ele>176.0</ele><time>2026-04-12T06:58:18Z</time></trkpt><trkpt lat="45.85282278355269" lon="11.01372376019478"><ele>176.0</ele><time>2026-04-12T06:58:19Z</time></trkpt><trkpt lat="45.85297999968059" lon="11.013933186158983"><ele>176.0</ele><time>2026-04-12T06:58:20Z</time></trkpt><trkpt lat="45.853118670313954" lon="11.014144586984166"><ele>176.0</ele><time>2026-04-12T06:58:21Z</time></trkpt><trkpt lat="45.85325364436933" lon="11.014349230546703"><ele>176.0</ele><time>2026-04-12T06:58:22Z</time></trkpt><trkpt lat="45.853394055705316" lon="11.01455134459722"><ele>176.0</ele><time>2026-04-12T06:58:23Z</time></trkpt><trkpt lat="45.85352447273703" lon="11.014743277037166"><ele>175.0</ele><time>2026-04-12T06:58:24Z</time></trkpt><trkpt lat="45.85364752204929" lon="11.014939772468502"><ele>174.0</ele><time>2026-04-12T06:58:25Z</time></trkpt><trkpt lat="45.85375836365089" lon="11.015132696701725"><ele>173.0</ele><time>2026-04-12T06:58:26Z</time></trkpt><trkpt lat="45.85386390784738" lon="11.015330992720425"><ele>173.0</ele><time>2026-04-12T06:58:27Z</time></trkpt><trkpt lat="45.8539666233755" lon="11.015537308516368"><ele>173.0</ele><time>2026-04-12T06:58:28Z</time></trkpt><trkpt lat="45.85406716561315" lon="11.01576278778908"><ele>173.0</ele><time>2026-04-12T06:58:29Z</time></trkpt><trkpt lat="45.8541635923631" lon="11.015996399562662"><ele>174.0</ele><time>2026-04-12T06:58:30Z</time></trkpt><trkpt lat="45.854253498536764" lon="11.016230088616133"><ele>175.0</ele><time>2026-04-12T06:58:31Z</time></trkpt><trkpt lat="45.85432619283614" lon="11.016450527832598"><ele>176.0</ele><time>2026-04-12T06:58:32Z</time></trkpt><trkpt lat="45.85440344246045" lon="11.01667129367699"><ele>176.0</ele><time>2026-04-12T06:58:33Z</time></trkpt><trkpt lat="45.85448064254564" lon="11.016892507636479"><ele>176.0</ele><time>2026-04-12T06:58:34Z</time></trkpt><trkpt lat="45.85455845549726" lon="11.017108302877169"><ele>176.0</ele><time>2026-04-12T06:58:35Z</time></trkpt><trkpt lat="45.854633820678956" lon="11.01732176784591"><ele>175.33333333333331</ele><time>2026-04-12T06:58:36Z</time></trkpt><trkpt lat="45.8547111513246" lon="11.017525033381613"><ele>174.66666666666666</ele><time>2026-04-12T06:58:37Z</time></trkpt><trkpt lat="45.85478713015935" lon="11.017733902210525"><ele>174.0</ele><time>2026-04-12T06:58:38Z</time></trkpt><trkpt lat="45.854863113183505" lon="11.017949996172632"><ele>174.0</ele><time>2026-04-12T06:58:39Z</time></trkpt><trkpt lat="45.854948717598596" lon="11.018166389173247"><ele>174.0</ele><time>2026-04-12T06:58:40Z</time></trkpt><trkpt lat="45.85505204537287" lon="11.018375632325005"><ele>174.0</ele><time>2026-04-12T06:58:41Z</time></trkpt><trkpt lat="45.85516649038492" lon="11.018573775166228"><ele>173.33333333333334</ele><time>2026-04-12T06:58:41.999Z</time></trkpt><trkpt lat="45.85528508823052" lon="11.018762592571237"><ele>172.66666666666669</ele><time>2026-04-12T06:58:42.999Z</time></trkpt><trkpt lat="45.85541290839096" lon="11.018935596190165"><ele>172.0</ele><time>2026-04-12T06:58:43.999Z</time></trkpt><trkpt lat="45.85554496112077" lon="11.019104743173575"><ele>173.0</ele><time>2026-04-12T06:58:44.999Z</time></trkpt><trkpt lat="45.855686645085235" lon="11.019259799553405"><ele>174.0</ele><time>2026-04-12T06:58:45.999Z</time></trkpt><trkpt lat="45.855832359701104" lon="11.01939679996979"><ele>175.0</ele><time>2026-04-12T06:58:46.999Z</time></trkpt><trkpt lat="45.85598089652044" lon="11.019515134388117"><ele>175.0</ele><time>2026-04-12T06:58:47.999Z</time></trkpt><trkpt lat="45.85613399554842" lon="11.019630601635233"><ele>175.0</ele><time>2026-04-12T06:58:48.999Z</time></trkpt><trkpt lat="45.85629218348803" lon="11.01973495671751"><ele>175.0</ele><time>2026-04-12T06:58:49.999Z</time></trkpt><trkpt lat="45.856455087938244" lon="11.019831706282005"><ele>175.0</ele><time>2026-04-12T06:58:50.999Z</time></trkpt><trkpt lat="45.85662149292209" lon="11.019919837420504"><ele>175.0</ele><time>2026-04-12T06:58:51.999Z</time></trkpt><trkpt lat="45.8567882080006" lon="11.020020632705114"><ele>175.0</ele><time>2026-04-12T06:58:52.999Z</time></trkpt><trkpt lat="45.856959520984304" lon="11.020126131683726"><ele>177.0</ele><time>2026-04-12T06:58:53.999Z</time></trkpt><trkpt lat="45.85712936457323" lon="11.020236788876561"><ele>179.0</ele><time>2026-04-12T06:58:54.999Z</time></trkpt><trkpt lat="45.85729468471504" lon="11.02035461746992"><ele>181.0</ele><time>2026-04-12T06:58:55.999Z</time></trkpt><trkpt lat="45.85745091471861" lon="11.020490202600817"><ele>181.0</ele><time>2026-04-12T06:58:56.999Z</time></trkpt><trkpt lat="45.857604548948444" lon="11.020633070032998"><ele>181.0</ele><time>2026-04-12T06:58:57.999Z</time></trkpt><trkpt lat="45.85775442634239" lon="11.020791222316644"><ele>181.0</ele><time>2026-04-12T06:58:58.999Z</time></trkpt><trkpt lat="45.85789518264899" lon="11.02096159713979"><ele>182.66666666666669</ele><time>2026-04-12T06:58:59.999Z</time></trkpt><trkpt lat="45.85802876058708" lon="11.021152701302563"><ele>184.33333333333334</ele><time>2026-04-12T06:59:00.999Z</time></trkpt><trkpt lat="45.85815641100679" lon="11.021346213605135"><ele>186.0</ele><time>2026-04-12T06:59:01.999Z</time></trkpt><trkpt lat="45.85828154821932" lon="11.021551250602215"><ele>186.33333333333334</ele><time>2026-04-12T06:59:02.999Z</time></trkpt><trkpt lat="45.85840218576534" lon="11.021758419913688"><ele>186.66666666666669</ele><time>2026-04-12T06:59:03.999Z</time></trkpt><trkpt lat="45.85851806710564" lon="11.021970275293024"><ele>187.0</ele><time>2026-04-12T06:59:04.999Z</time></trkpt><trkpt lat="45.858634959889606" lon="11.022184013419281"><ele>186.33333333333334</ele><time>2026-04-12T06:59:05.999Z</time></trkpt><trkpt lat="45.8587527989658" lon="11.02240330342824"><ele>185.66666666666666</ele><time>2026-04-12T06:59:06.999Z</time></trkpt><trkpt lat="45.85887044793564" lon="11.022627469753916"><ele>185.0</ele><time>2026-04-12T06:59:07.999Z</time></trkpt><trkpt lat="45.85898838584469" lon="11.022853927222272"><ele>185.0</ele><time>2026-04-12T06:59:08.999Z</time></trkpt><trkpt lat="45.85910859308432" lon="11.023085641377403"><ele>185.0</ele><time>2026-04-12T06:59:09.999Z</time></trkpt><trkpt lat="45.85922968239468" lon="11.023323504609817"><ele>185.0</ele><time>2026-04-12T06:59:10.999Z</time></trkpt><trkpt lat="45.85935379017916" lon="11.023568727137706"><ele>182.33333333333331</ele><time>2026-04-12T06:59:11.999Z</time></trkpt><trkpt lat="45.859478882588114" lon="11.02381509065981"><ele>179.66666666666666</ele><time>2026-04-12T06:59:12.999Z</time></trkpt><trkpt lat="45.85960539140672" lon="11.024071340338741"><ele>177.0</ele><time>2026-04-12T06:59:13.999Z</time></trkpt><trkpt lat="45.85973080521647" lon="11.024321745919233"><ele>177.0</ele><time>2026-04-12T06:59:14.999Z</time></trkpt><trkpt lat="45.85986044983527" lon="11.024573242665873"><ele>177.0</ele><time>2026-04-12T06:59:15.999Z</time></trkpt><trkpt lat="45.85999086623926" lon="11.024815110775428"><ele>177.0</ele><time>2026-04-12T06:59:16.999Z</time></trkpt><trkpt lat="45.860135419213776" lon="11.025049761341252"><ele>176.0</ele><time>2026-04-12T06:59:17.999Z</time></trkpt><trkpt lat="45.86029419113269" lon="11.025271893824618"><ele>175.0</ele><time>2026-04-12T06:59:18.999Z</time></trkpt><trkpt lat="45.86045704180884" lon="11.02548433530746"><ele>174.0</ele><time>2026-04-12T06:59:19.999Z</time></trkpt><trkpt lat="45.86062222834533" lon="11.025690702021526"><ele>175.66666666666666</ele><time>2026-04-12T06:59:20.999Z</time></trkpt><trkpt lat="45.860795221579274" lon="11.025887198531349"><ele>177.33333333333331</ele><time>2026-04-12T06:59:21.999Z</time></trkpt><trkpt lat="45.860976515150625" lon="11.026071407181854"><ele>179.0</ele><time>2026-04-12T06:59:22.999Z</time></trkpt><trkpt lat="45.8611727630487" lon="11.026242278115333"><ele>179.0</ele><time>2026-04-12T06:59:23.999Z</time></trkpt><trkpt lat="45.86137194789585" lon="11.026400500569578"><ele>179.0</ele><time>2026-04-12T06:59:24.999Z</time></trkpt><trkpt lat="45.86157656256821" lon="11.026539428087842"><ele>179.66666666666666</ele><time>2026-04-12T06:59:25.999Z</time></trkpt><trkpt lat="45.861775549104806" lon="11.026666309528668"><ele>180.33333333333334</ele><time>2026-04-12T06:59:26.999Z</time></trkpt><trkpt lat="45.86194891619565" lon="11.026773946948914"><ele>181.0</ele><time>2026-04-12T06:59:27.999Z</time></trkpt><trkpt lat="45.86211848179411" lon="11.026886524422027"><ele>179.0</ele><time>2026-04-12T06:59:28.999Z</time></trkpt><trkpt lat="45.86227472064468" lon="11.026984395810537"><ele>177.0</ele><time>2026-04-12T06:59:29.999Z</time></trkpt><trkpt lat="45.86242021933533" lon="11.02708033966589"><ele>175.0</ele><time>2026-04-12T06:59:30.999Z</time></trkpt><trkpt lat="45.86255586164098" lon="11.027167984773401"><ele>175.5</ele><time>2026-04-12T06:59:31.999Z</time></trkpt><trkpt lat="45.86268070584873" lon="11.0272537096166"><ele>176.0</ele><time>2026-04-12T06:59:32.999Z</time></trkpt><trkpt lat="45.86280011891056" lon="11.027336138090954"><ele>176.5</ele><time>2026-04-12T06:59:33.999Z</time></trkpt><trkpt lat="45.8629034375867" lon="11.027420713364183"><ele>177.0</ele><time>2026-04-12T06:59:34.998Z</time></trkpt><trkpt lat="45.862997811938364" lon="11.027511320215151"><ele>177.0</ele><time>2026-04-12T06:59:35.998Z</time></trkpt><trkpt lat="45.86307821474711" lon="11.027611674645694"><ele>177.0</ele><time>2026-04-12T06:59:36.998Z</time></trkpt><trkpt lat="45.86314491969581" lon="11.027711733031483"><ele>177.0</ele><time>2026-04-12T06:59:37.998Z</time></trkpt><trkpt lat="45.86322328106861" lon="11.027812402625264"><ele>177.0</ele><time>2026-04-12T06:59:38.998Z</time></trkpt><trkpt lat="45.86332879498532" lon="11.027900934983393"><ele>177.0</ele><time>2026-04-12T06:59:39.998Z</time></trkpt><trkpt lat="45.86345277537383" lon="11.027980894822745"><ele>177.25</ele><time>2026-04-12T06:59:40.998Z</time></trkpt><trkpt lat="45.86356476400402" lon="11.02809171457252"><ele>177.5</ele><time>2026-04-12T06:59:41.998Z</time></trkpt><trkpt lat="45.8636661017498" lon="11.028227382334645"><ele>177.75</ele><time>2026-04-12T06:59:42.998Z</time></trkpt><trkpt lat="45.863749283419615" lon="11.02838073990846"><ele>178.0</ele><time>2026-04-12T06:59:43.998Z</time></trkpt><trkpt lat="45.86385119805838" lon="11.028506124162075"><ele>178.0</ele><time>2026-04-12T06:59:44.998Z</time></trkpt><trkpt lat="45.86394969960957" lon="11.028659615312725"><ele>178.0</ele><time>2026-04-12T06:59:45.998Z</time></trkpt><trkpt lat="45.86404999840916" lon="11.028809740371958"><ele>178.0</ele><time>2026-04-12T06:59:46.998Z</time></trkpt><trkpt lat="45.86415521268617" lon="11.028969542029488"><ele>178.0</ele><time>2026-04-12T06:59:47.998Z</time></trkpt><trkpt lat="45.86425857759473" lon="11.029125348446748"><ele>177.25</ele><time>2026-04-12T06:59:48.998Z</time></trkpt><trkpt lat="45.86436526786534" lon="11.029279795523935"><ele>176.5</ele><time>2026-04-12T06:59:49.998Z</time></trkpt><trkpt lat="45.86446767851276" lon="11.029429222301424"><ele>175.75</ele><time>2026-04-12T06:59:50.998Z</time></trkpt><trkpt lat="45.864567738156424" lon="11.029572551160047"><ele>175.0</ele><time>2026-04-12T06:59:51.998Z</time></trkpt><trkpt lat="45.86466816504062" lon="11.029714083947624"><ele>175.0</ele><time>2026-04-12T06:59:52.998Z</time></trkpt><trkpt lat="45.8647736291314" lon="11.029853573288824"><ele>175.0</ele><time>2026-04-12T06:59:53.998Z</time></trkpt><trkpt lat="45.864880313323425" lon="11.029982945253751"><ele>175.0</ele><time>2026-04-12T06:59:54.998Z</time></trkpt><trkpt lat="45.86499220101033" lon="11.030088855472666"><ele>175.0</ele><time>2026-04-12T06:59:55.998Z</time></trkpt><trkpt lat="45.86511404203268" lon="11.03016695852901"><ele>175.25</ele><time>2026-04-12T06:59:56.998Z</time></trkpt><trkpt lat="45.86525136222399" lon="11.030226168965356"><ele>175.5</ele><time>2026-04-12T06:59:57.998Z</time></trkpt><trkpt lat="45.86538726621248" lon="11.030271766893295"><ele>175.75</ele><time>2026-04-12T06:59:58.998Z</time></trkpt><trkpt lat="45.865522582116085" lon="11.030301419991195"><ele>176.0</ele><time>2026-04-12T06:59:59.998Z</time></trkpt><trkpt lat="45.86565960998114" lon="11.03032549086402"><ele>176.0</ele><time>2026-04-12T07:00:00.998Z</time></trkpt><trkpt lat="45.86579599641526" lon="11.030352550281314"><ele>176.0</ele><time>2026-04-12T07:00:01.998Z</time></trkpt><trkpt lat="45.86593006323009" lon="11.030379211581723"><ele>176.0</ele><time>2026-04-12T07:00:02.998Z</time></trkpt><trkpt lat="45.86605776384897" lon="11.030403784550378"><ele>176.0</ele><time>2026-04-12T07:00:03.998Z</time></trkpt><trkpt lat="45.866188335137814" lon="11.03042817883173"><ele>176.5</ele><time>2026-04-12T07:00:04.998Z</time></trkpt><trkpt lat="45.86631003062815" lon="11.030455249467476"><ele>177.0</ele><time>2026-04-12T07:00:05.998Z</time></trkpt><trkpt lat="45.86643971706532" lon="11.030494913141629"><ele>177.5</ele><time>2026-04-12T07:00:06.998Z</time></trkpt><trkpt lat="45.86656980176678" lon="11.030555732171502"><ele>178.0</ele><time>2026-04-12T07:00:08Z</time></trkpt><trkpt lat="45.86669288962648" lon="11.03063997324022"><ele>178.25</ele><time>2026-04-12T07:00:09Z</time></trkpt><trkpt lat="45.86681013763266" lon="11.030724803986725"><ele>178.5</ele><time>2026-04-12T07:00:10Z</time></trkpt><trkpt lat="45.86692459564711" lon="11.030779671678564"><ele>178.75</ele><time>2026-04-12T07:00:11Z</time></trkpt><trkpt lat="45.86703269508127" lon="11.030817617370174"><ele>179.0</ele><time>2026-04-12T07:00:12Z</time></trkpt><trkpt lat="45.86713926987419" lon="11.030851461210961"><ele>179.5</ele><time>2026-04-12T07:00:13Z</time></trkpt><trkpt lat="45.86726332311969" lon="11.030878574416763"><ele>180.0</ele><time>2026-04-12T07:00:14Z</time></trkpt><trkpt lat="45.86738135201329" lon="11.03090795628163"><ele>180.5</ele><time>2026-04-12T07:00:15Z</time></trkpt><trkpt lat="45.86750775378181" lon="11.030938637421155"><ele>181.0</ele><time>2026-04-12T07:00:16Z</time></trkpt><trkpt lat="45.867636344029414" lon="11.03095796146252"><ele>181.25</ele><time>2026-04-12T07:00:17Z</time></trkpt><trkpt lat="45.86775484357741" lon="11.030984118866474"><ele>181.5</ele><time>2026-04-12T07:00:18Z</time></trkpt><trkpt lat="45.867879382413236" lon="11.031011281329794"><ele>181.75</ele><time>2026-04-12T07:00:19Z</time></trkpt><trkpt lat="45.86799975316882" lon="11.031038746386386"><ele>182.0</ele><time>2026-04-12T07:00:20Z</time></trkpt><trkpt lat="45.868118582128254" lon="11.031076494564944"><ele>182.0</ele><time>2026-04-12T07:00:21Z</time></trkpt><trkpt lat="45.86825361147389" lon="11.031109345921719"><ele>182.0</ele><time>2026-04-12T07:00:22Z</time></trkpt><trkpt lat="45.868379675525695" lon="11.03114728416675"><ele>182.0</ele><time>2026-04-12T07:00:23Z</time></trkpt><trkpt lat="45.868491700579035" lon="11.031167203416794"><ele>182.0</ele><time>2026-04-12T07:00:24Z</time></trkpt><trkpt lat="45.86862536851672" lon="11.03116592204211"><ele>182.25</ele><time>2026-04-12T07:00:25Z</time></trkpt><trkpt lat="45.86875909838047" lon="11.031164851691637"><ele>182.5</ele><time>2026-04-12T07:00:26Z</time></trkpt><trkpt lat="45.868884167337576" lon="11.031152307885858"><ele>182.75</ele><time>2026-04-12T07:00:27Z</time></trkpt><trkpt lat="45.86900402000684" lon="11.031142749753638"><ele>183.0</ele><time>2026-04-12T07:00:28Z</time></trkpt><trkpt lat="45.86911282624575" lon="11.031129168093033"><ele>183.0</ele><time>2026-04-12T07:00:29Z</time></trkpt><trkpt lat="45.86922038026265" lon="11.031118687985183"><ele>183.0</ele><time>2026-04-12T07:00:30Z</time></trkpt><trkpt lat="45.86932811029859" lon="11.031110532258651"><ele>183.0</ele><time>2026-04-12T07:00:31Z</time></trkpt><trkpt lat="45.86944344900173" lon="11.03109973523839"><ele>183.0</ele><time>2026-04-12T07:00:32Z</time></trkpt><trkpt lat="45.86956497938655" lon="11.031093947700404"><ele>182.75</ele><time>2026-04-12T07:00:33Z</time></trkpt><trkpt lat="45.869683893122314" lon="11.031085855409287"><ele>182.5</ele><time>2026-04-12T07:00:34Z</time></trkpt><trkpt lat="45.86980644626639" lon="11.031089344032551"><ele>182.25</ele><time>2026-04-12T07:00:35Z</time></trkpt><trkpt lat="45.869925446740645" lon="11.031094907669099"><ele>182.0</ele><time>2026-04-12T07:00:36Z</time></trkpt><trkpt lat="45.87003804774037" lon="11.031098505889071"><ele>182.0</ele><time>2026-04-12T07:00:37Z</time></trkpt><trkpt lat="45.870152024479985" lon="11.03110629450528"><ele>182.0</ele><time>2026-04-12T07:00:38Z</time></trkpt><trkpt lat="45.87026633938112" lon="11.031112066004082"><ele>182.0</ele><time>2026-04-12T07:00:39Z</time></trkpt><trkpt lat="45.870387365820996" lon="11.031116276766843"><ele>182.0</ele><time>2026-04-12T07:00:40Z</time></trkpt><trkpt lat="45.870512160102614" lon="11.031120237796204"><ele>182.0</ele><time>2026-04-12T07:00:41Z</time></trkpt><trkpt lat="45.87063806385758" lon="11.031125081685296"><ele>182.0</ele><time>2026-04-12T07:00:42Z</time></trkpt><trkpt lat="45.87076603042196" lon="11.031132477368827"><ele>182.0</ele><time>2026-04-12T07:00:43Z</time></trkpt><trkpt lat="45.87089356554814" lon="11.03114169112892"><ele>182.0</ele><time>2026-04-12T07:00:44Z</time></trkpt><trkpt lat="45.87101979885629" lon="11.031151447952153"><ele>182.25</ele><time>2026-04-12T07:00:45Z</time></trkpt><trkpt lat="45.87115353486784" lon="11.031162789450933"><ele>182.5</ele><time>2026-04-12T07:00:46Z</time></trkpt><trkpt lat="45.87127022915071" lon="11.031169539954027"><ele>182.75</ele><time>2026-04-12T07:00:47Z</time></trkpt><trkpt lat="45.871391390854626" lon="11.031181714302459"><ele>183.0</ele><time>2026-04-12T07:00:47.999Z</time></trkpt><trkpt lat="45.871507785446994" lon="11.031191975380496"><ele>183.0</ele><time>2026-04-12T07:00:48.999Z</time></trkpt><trkpt lat="45.871626060466404" lon="11.031209962231856"><ele>183.0</ele><time>2026-04-12T07:00:49.999Z</time></trkpt><trkpt lat="45.87174971882593" lon="11.031226585989922"><ele>183.0</ele><time>2026-04-12T07:00:50.999Z</time></trkpt><trkpt lat="45.87186820310071" lon="11.031247170802933"><ele>183.0</ele><time>2026-04-12T07:00:51.999Z</time></trkpt><trkpt lat="45.87198634034767" lon="11.03126918622759"><ele>182.5</ele><time>2026-04-12T07:00:52.999Z</time></trkpt><trkpt lat="45.872102727935356" lon="11.03128945546491"><ele>182.0</ele><time>2026-04-12T07:00:53.999Z</time></trkpt><trkpt lat="45.87222768547803" lon="11.031312076443617"><ele>181.5</ele><time>2026-04-12T07:00:54.999Z</time></trkpt><trkpt lat="45.87234743579682" lon="11.031332298284175"><ele>181.0</ele><time>2026-04-12T07:00:55.999Z</time></trkpt><trkpt lat="45.872456142860564" lon="11.031350721378054"><ele>181.0</ele><time>2026-04-12T07:00:56.999Z</time></trkpt><trkpt lat="45.87255720033565" lon="11.031367445742132"><ele>181.0</ele><time>2026-04-12T07:00:57.999Z</time></trkpt><trkpt lat="45.8726545140796" lon="11.03137984241049"><ele>181.0</ele><time>2026-04-12T07:00:58.999Z</time></trkpt><trkpt lat="45.87274514837998" lon="11.031396872835872"><ele>181.0</ele><time>2026-04-12T07:00:59.999Z</time></trkpt><trkpt lat="45.8728538609816" lon="11.03141697042099"><ele>181.0</ele><time>2026-04-12T07:01:00.999Z</time></trkpt><trkpt lat="45.872968470599446" lon="11.031442229079449"><ele>180.75</ele><time>2026-04-12T07:01:01.999Z</time></trkpt><trkpt lat="45.873087861354584" lon="11.031464036375143"><ele>180.5</ele><time>2026-04-12T07:01:02.999Z</time></trkpt><trkpt lat="45.87321023108533" lon="11.031482053867492"><ele>180.25</ele><time>2026-04-12T07:01:03.999Z</time></trkpt><trkpt lat="45.873328409279736" lon="11.03150355561657"><ele>180.0</ele><time>2026-04-12T07:01:04.999Z</time></trkpt><trkpt lat="45.87344570245114" lon="11.031520121622872"><ele>180.5</ele><time>2026-04-12T07:01:05.999Z</time></trkpt><trkpt lat="45.87356340177386" lon="11.031530435832327"><ele>181.0</ele><time>2026-04-12T07:01:06.999Z</time></trkpt><trkpt lat="45.873689404665036" lon="11.031541407097375"><ele>181.5</ele><time>2026-04-12T07:01:07.999Z</time></trkpt><trkpt lat="45.873817804420156" lon="11.031560894576161"><ele>182.0</ele><time>2026-04-12T07:01:08.999Z</time></trkpt><trkpt lat="45.87394802326524" lon="11.031583768066108"><ele>182.0</ele><time>2026-04-12T07:01:09.999Z</time></trkpt><trkpt lat="45.87407534100344" lon="11.031599466510054"><ele>182.0</ele><time>2026-04-12T07:01:10.999Z</time></trkpt><trkpt lat="45.87419251175461" lon="11.031618799395533"><ele>182.0</ele><time>2026-04-12T07:01:11.999Z</time></trkpt><trkpt lat="45.874315673910985" lon="11.031641545289629"><ele>182.0</ele><time>2026-04-12T07:01:12.999Z</time></trkpt><trkpt lat="45.87444718768554" lon="11.031658328640702"><ele>182.25</ele><time>2026-04-12T07:01:13.999Z</time></trkpt><trkpt lat="45.874572026963165" lon="11.031679966950932"><ele>182.5</ele><time>2026-04-12T07:01:14.999Z</time></trkpt><trkpt lat="45.87469345975538" lon="11.03169983190972"><ele>182.75</ele><time>2026-04-12T07:01:15.999Z</time></trkpt><trkpt lat="45.87481396869535" lon="11.031721693903542"><ele>183.0</ele><time>2026-04-12T07:01:16.999Z</time></trkpt><trkpt lat="45.8749339776886" lon="11.031742166943614"><ele>183.0</ele><time>2026-04-12T07:01:17.999Z</time></trkpt><trkpt lat="45.87505194522652" lon="11.031764521131436"><ele>183.0</ele><time>2026-04-12T07:01:18.999Z</time></trkpt><trkpt lat="45.87517378347936" lon="11.031790697265194"><ele>183.0</ele><time>2026-04-12T07:01:19.999Z</time></trkpt><trkpt lat="45.87528233008408" lon="11.031807255317576"><ele>183.0</ele><time>2026-04-12T07:01:20.999Z</time></trkpt><trkpt lat="45.87537965055148" lon="11.03182641640479"><ele>183.33333333333334</ele><time>2026-04-12T07:01:21.999Z</time></trkpt><trkpt lat="45.875462870364935" lon="11.031845170222228"><ele>183.66666666666666</ele><time>2026-04-12T07:01:22.999Z</time></trkpt><trkpt lat="45.87554449732396" lon="11.031860243246001"><ele>184.0</ele><time>2026-04-12T07:01:23.999Z</time></trkpt><trkpt lat="45.8756274856839" lon="11.031876648632922"><ele>184.33333333333331</ele><time>2026-04-12T07:01:24.999Z</time></trkpt><trkpt lat="45.87571306150886" lon="11.031894446292855"><ele>184.66666666666666</ele><time>2026-04-12T07:01:26.999Z</time></trkpt><trkpt lat="45.87578557333023" lon="11.031897366457729"><ele>185.0</ele><time>2026-04-12T07:01:50.998Z</time></trkpt><trkpt lat="45.87586568141585" lon="11.031909127147616"><ele>185.2</ele><time>2026-04-12T07:01:51.998Z</time></trkpt><trkpt lat="45.87595619757071" lon="11.031924405002119"><ele>185.4</ele><time>2026-04-12T07:01:52.998Z</time></trkpt><trkpt lat="45.87605270471726" lon="11.03194164217772"><ele>185.60000000000002</ele><time>2026-04-12T07:01:53.998Z</time></trkpt><trkpt lat="45.876155284209766" lon="11.031958082738871"><ele>185.8</ele><time>2026-04-12T07:01:54.998Z</time></trkpt><trkpt lat="45.87626523927092" lon="11.03197326317797"><ele>186.0</ele><time>2026-04-12T07:01:55.998Z</time></trkpt><trkpt lat="45.876386436009675" lon="11.031992434414338"><ele>186.0</ele><time>2026-04-12T07:01:56.998Z</time></trkpt><trkpt lat="45.87650380413778" lon="11.032011717578643"><ele>186.0</ele><time>2026-04-12T07:01:57.998Z</time></trkpt><trkpt lat="45.87660078297344" lon="11.032027668112777"><ele>186.0</ele><time>2026-04-12T07:01:58.998Z</time></trkpt><trkpt lat="45.87669824461365" lon="11.032051171358981"><ele>186.0</ele><time>2026-04-12T07:01:59.998Z</time></trkpt><trkpt lat="45.87679175830096" lon="11.032087886304076"><ele>186.0</ele><time>2026-04-12T07:02:00.998Z</time></trkpt><trkpt lat="45.87687736285902" lon="11.032149368057581"><ele>185.60000000000002</ele><time>2026-04-12T07:02:01.998Z</time></trkpt><trkpt lat="45.87695700839934" lon="11.032228168247926"><ele>185.2</ele><time>2026-04-12T07:02:02.998Z</time></trkpt><trkpt lat="45.877032491180636" lon="11.032264219539112"><ele>184.8</ele><time>2026-04-12T07:02:03.998Z</time></trkpt><trkpt lat="45.877103542556156" lon="11.032244122600504"><ele>184.39999999999998</ele><time>2026-04-12T07:02:04.998Z</time></trkpt><trkpt lat="45.87717962336461" lon="11.032166541348676"><ele>184.0</ele><time>2026-04-12T07:02:05.998Z</time></trkpt><trkpt lat="45.87725739847388" lon="11.032054250267466"><ele>184.0</ele><time>2026-04-12T07:02:06.998Z</time></trkpt><trkpt lat="45.87735300086782" lon="11.03198147586208"><ele>184.0</ele><time>2026-04-12T07:02:07.998Z</time></trkpt><trkpt lat="45.87746801437272" lon="11.031954481408503"><ele>184.0</ele><time>2026-04-12T07:02:08.998Z</time></trkpt><trkpt lat="45.87760065069578" lon="11.031981086845226"><ele>184.0</ele><time>2026-04-12T07:02:09.998Z</time></trkpt><trkpt lat="45.87775148272859" lon="11.031954495039665"><ele>184.66666666666669</ele><time>2026-04-12T07:02:10.998Z</time></trkpt><trkpt lat="45.87790886502539" lon="11.031950798007692"><ele>185.33333333333334</ele><time>2026-04-12T07:02:11.998Z</time></trkpt><trkpt lat="45.878076870444346" lon="11.031939554054524"><ele>186.0</ele><time>2026-04-12T07:02:12.998Z</time></trkpt><trkpt lat="45.87825258538379" lon="11.03193039772858"><ele>186.33333333333334</ele><time>2026-04-12T07:02:14Z</time></trkpt><trkpt lat="45.87843792681306" lon="11.031917498465653"><ele>186.66666666666669</ele><time>2026-04-12T07:02:15Z</time></trkpt><trkpt lat="45.87862300480306" lon="11.03190527247641"><ele>187.0</ele><time>2026-04-12T07:02:16Z</time></trkpt><trkpt lat="45.878805902365684" lon="11.031897522289864"><ele>187.0</ele><time>2026-04-12T07:02:17Z</time></trkpt><trkpt lat="45.878986669089905" lon="11.03188766944511"><ele>187.0</ele><time>2026-04-12T07:02:18Z</time></trkpt><trkpt lat="45.87917383846969" lon="11.031876760333434"><ele>187.0</ele><time>2026-04-12T07:02:19Z</time></trkpt><trkpt lat="45.879355984916266" lon="11.031871922109957"><ele>186.0</ele><time>2026-04-12T07:02:20Z</time></trkpt><trkpt lat="45.87953634772144" lon="11.031862654129052"><ele>185.0</ele><time>2026-04-12T07:02:21Z</time></trkpt><trkpt lat="45.87969972854089" lon="11.031841722528307"><ele>184.0</ele><time>2026-04-12T07:02:22Z</time></trkpt><trkpt lat="45.879846106541024" lon="11.031831499208323"><ele>184.0</ele><time>2026-04-12T07:02:23Z</time></trkpt><trkpt lat="45.87998099206166" lon="11.03181530572949"><ele>184.0</ele><time>2026-04-12T07:02:24Z</time></trkpt><trkpt lat="45.88009889373107" lon="11.031799964198974"><ele>184.0</ele><time>2026-04-12T07:02:25Z</time></trkpt><trkpt lat="45.88021059884439" lon="11.031786281499883"><ele>184.0</ele><time>2026-04-12T07:02:26Z</time></trkpt><trkpt lat="45.880306807977085" lon="11.03178626337773"><ele>184.0</ele><time>2026-04-12T07:02:27Z</time></trkpt><trkpt lat="45.880399618279334" lon="11.031813883823824"><ele>184.0</ele><time>2026-04-12T07:02:28Z</time></trkpt><trkpt lat="45.88050443968039" lon="11.03184994322918"><ele>184.0</ele><time>2026-04-12T07:02:29Z</time></trkpt><trkpt lat="45.8806349361771" lon="11.03185145480703"><ele>184.0</ele><time>2026-04-12T07:02:30Z</time></trkpt><trkpt lat="45.880812526132566" lon="11.032078017453006"><ele>184.0</ele><time>2026-04-12T07:02:31Z</time></trkpt><trkpt lat="45.88111431091616" lon="11.0319896762585"><ele>184.0</ele><time>2026-04-12T07:02:33Z</time></trkpt><trkpt lat="45.88128231586503" lon="11.031939135141288"><ele>184.0</ele><time>2026-04-12T07:02:34Z</time></trkpt><trkpt lat="45.881465350126376" lon="11.031886578011528"><ele>184.0</ele><time>2026-04-12T07:02:35Z</time></trkpt><trkpt lat="45.88165143263636" lon="11.031840125452362"><ele>184.0</ele><time>2026-04-12T07:02:36Z</time></trkpt><trkpt lat="45.881880721380966" lon="11.032130395757058"><ele>183.33333333333334</ele><time>2026-04-12T07:02:37Z</time></trkpt><trkpt lat="45.88206555018391" lon="11.032204257888978"><ele>182.66666666666666</ele><time>2026-04-12T07:02:38Z</time></trkpt><trkpt lat="45.88226006435177" lon="11.03228287256364"><ele>182.0</ele><time>2026-04-12T07:02:39Z</time></trkpt><trkpt lat="45.882464601135325" lon="11.032350118548969"><ele>182.33333333333331</ele><time>2026-04-12T07:02:40Z</time></trkpt><trkpt lat="45.882679206343624" lon="11.032419268528582"><ele>182.66666666666666</ele><time>2026-04-12T07:02:41Z</time></trkpt><trkpt lat="45.88290317230436" lon="11.032477358451384"><ele>183.0</ele><time>2026-04-12T07:02:42Z</time></trkpt><trkpt lat="45.88310775533205" lon="11.032510925606687"><ele>183.0</ele><time>2026-04-12T07:02:43Z</time></trkpt><trkpt lat="45.88330150054069" lon="11.032538036360348"><ele>183.0</ele><time>2026-04-12T07:02:44Z</time></trkpt><trkpt lat="45.883496797383295" lon="11.032571423740105"><ele>183.0</ele><time>2026-04-12T07:02:45Z</time></trkpt><trkpt lat="45.883695246339904" lon="11.032605463513484"><ele>183.66666666666666</ele><time>2026-04-12T07:02:46Z</time></trkpt><trkpt lat="45.883902631731154" lon="11.032641003021864"><ele>184.33333333333331</ele><time>2026-04-12T07:02:47Z</time></trkpt><trkpt lat="45.88410929859103" lon="11.032674327937128"><ele>185.0</ele><time>2026-04-12T07:02:48Z</time></trkpt><trkpt lat="45.88431788497293" lon="11.032705800392707"><ele>185.33333333333331</ele><time>2026-04-12T07:02:49Z</time></trkpt><trkpt lat="45.8845243551458" lon="11.032738686014925"><ele>185.66666666666666</ele><time>2026-04-12T07:02:50Z</time></trkpt><trkpt lat="45.88472816338157" lon="11.032771168787326"><ele>186.0</ele><time>2026-04-12T07:02:51Z</time></trkpt><trkpt lat="45.88492615445719" lon="11.032802068796077"><ele>186.0</ele><time>2026-04-12T07:02:52Z</time></trkpt><trkpt lat="45.88511771157661" lon="11.032836330256131"><ele>186.0</ele><time>2026-04-12T07:02:52.999Z</time></trkpt><trkpt lat="45.885306077402646" lon="11.032863248305938"><ele>186.0</ele><time>2026-04-12T07:02:53.999Z</time></trkpt><trkpt lat="45.88548892872133" lon="11.032894994725527"><ele>186.0</ele><time>2026-04-12T07:02:54.999Z</time></trkpt><trkpt lat="45.88566114985234" lon="11.032927212165179"><ele>186.0</ele><time>2026-04-12T07:02:55.999Z</time></trkpt><trkpt lat="45.88582367593876" lon="11.032951721206496"><ele>186.0</ele><time>2026-04-12T07:02:56.999Z</time></trkpt><trkpt lat="45.885971722056574" lon="11.032978801738098"><ele>186.4</ele><time>2026-04-12T07:02:57.999Z</time></trkpt><trkpt lat="45.88611058895639" lon="11.03300495961797"><ele>186.8</ele><time>2026-04-12T07:02:58.999Z</time></trkpt><trkpt lat="45.88621807661567" lon="11.033030044876305"><ele>187.20000000000002</ele><time>2026-04-12T07:02:59.999Z</time></trkpt><trkpt lat="45.88631311623067" lon="11.033040961486714"><ele>187.60000000000002</ele><time>2026-04-12T07:03:00.999Z</time></trkpt><trkpt lat="45.886395000215714" lon="11.033054558378922"><ele>188.0</ele><time>2026-04-12T07:03:01.999Z</time></trkpt><trkpt lat="45.88645797306696" lon="11.033074980884974"><ele>188.0</ele><time>2026-04-12T07:03:02.999Z</time></trkpt><trkpt lat="45.886510334340706" lon="11.033162958553133"><ele>188.0</ele><time>2026-04-12T07:03:06.999Z</time></trkpt><trkpt lat="45.886549376595674" lon="11.033237552727787"><ele>188.0</ele><time>2026-04-12T07:03:07.999Z</time></trkpt><trkpt lat="45.88661142952379" lon="11.033292058868806"><ele>188.0</ele><time>2026-04-12T07:03:08.999Z</time></trkpt><trkpt lat="45.88668604393208" lon="11.033288860728359"><ele>188.0</ele><time>2026-04-12T07:03:09.999Z</time></trkpt><trkpt lat="45.88675247362027" lon="11.033234881790596"><ele>188.0</ele><time>2026-04-12T07:03:10.999Z</time></trkpt><trkpt lat="45.886846076916825" lon="11.033171072950225"><ele>189.0</ele><time>2026-04-12T07:03:11.999Z</time></trkpt><trkpt lat="45.88698405686859" lon="11.033152810839725"><ele>190.0</ele><time>2026-04-12T07:03:12.999Z</time></trkpt><trkpt lat="45.887143209350405" lon="11.033187882150354"><ele>191.0</ele><time>2026-04-12T07:03:13.999Z</time></trkpt><trkpt lat="45.88729550945668" lon="11.033220054527398"><ele>191.0</ele><time>2026-04-12T07:03:14.999Z</time></trkpt><trkpt lat="45.88745968977596" lon="11.033253645743207"><ele>191.0</ele><time>2026-04-12T07:03:15.999Z</time></trkpt><trkpt lat="45.887616249423715" lon="11.033282211453361"><ele>191.0</ele><time>2026-04-12T07:03:16.999Z</time></trkpt><trkpt lat="45.887776308588855" lon="11.033333611247118"><ele>190.66666666666666</ele><time>2026-04-12T07:03:17.999Z</time></trkpt><trkpt lat="45.88796380537898" lon="11.03342024208443"><ele>190.33333333333334</ele><time>2026-04-12T07:03:18.999Z</time></trkpt><trkpt lat="45.88815783127159" lon="11.0335151679977"><ele>190.0</ele><time>2026-04-12T07:03:19.999Z</time></trkpt><trkpt lat="45.88835486171088" lon="11.033594261096695"><ele>190.0</ele><time>2026-04-12T07:03:20.999Z</time></trkpt><trkpt lat="45.88855801139588" lon="11.033681355041363"><ele>190.0</ele><time>2026-04-12T07:03:21.999Z</time></trkpt><trkpt lat="45.88877123336116" lon="11.033743070145606"><ele>190.0</ele><time>2026-04-12T07:03:22.999Z</time></trkpt><trkpt lat="45.888979451785026" lon="11.033791973985739"><ele>190.0</ele><time>2026-04-12T07:03:23.999Z</time></trkpt><trkpt lat="45.88917630185011" lon="11.033825885037187"><ele>190.0</ele><time>2026-04-12T07:03:24.999Z</time></trkpt><trkpt lat="45.88935956382164" lon="11.033854117133385"><ele>190.0</ele><time>2026-04-12T07:03:25.999Z</time></trkpt><trkpt lat="45.88952589217022" lon="11.03389220124637"><ele>190.0</ele><time>2026-04-12T07:03:26.999Z</time></trkpt><trkpt lat="45.889681780800395" lon="11.033930180975561"><ele>190.0</ele><time>2026-04-12T07:03:27.999Z</time></trkpt><trkpt lat="45.88982426632555" lon="11.033963580013209"><ele>190.0</ele><time>2026-04-12T07:03:28.999Z</time></trkpt><trkpt lat="45.88996394830008" lon="11.033997866609786"><ele>190.0</ele><time>2026-04-12T07:03:29.999Z</time></trkpt><trkpt lat="45.89009747016256" lon="11.034035908909887"><ele>190.0</ele><time>2026-04-12T07:03:30.999Z</time></trkpt><trkpt lat="45.89023621254115" lon="11.034082259763485"><ele>190.0</ele><time>2026-04-12T07:03:31.999Z</time></trkpt><trkpt lat="45.89037115408455" lon="11.034144630935879"><ele>190.0</ele><time>2026-04-12T07:03:32.999Z</time></trkpt><trkpt lat="45.8904997044249" lon="11.034222747294258"><ele>190.0</ele><time>2026-04-12T07:03:33.999Z</time></trkpt><trkpt lat="45.89060436928315" lon="11.03430697716567"><ele>190.0</ele><time>2026-04-12T07:03:34.999Z</time></trkpt><trkpt lat="45.89068152769266" lon="11.03439850306595"><ele>190.0</ele><time>2026-04-12T07:03:35.999Z</time></trkpt><trkpt lat="45.89074135503763" lon="11.034492479079525"><ele>190.0</ele><time>2026-04-12T07:03:36.999Z</time></trkpt><trkpt lat="45.89078176216704" lon="11.034601393401402"><ele>190.0</ele><time>2026-04-12T07:03:37.999Z</time></trkpt><trkpt lat="45.89080891241982" lon="11.034721848298123"><ele>190.0</ele><time>2026-04-12T07:03:38.999Z</time></trkpt><trkpt lat="45.89084100346933" lon="11.034847579746204"><ele>190.0</ele><time>2026-04-12T07:03:39.999Z</time></trkpt><trkpt lat="45.8909086460188" lon="11.034925897053672"><ele>190.0</ele><time>2026-04-12T07:03:40.999Z</time></trkpt><trkpt lat="45.8909792296299" lon="11.034961175384488"><ele>190.0</ele><time>2026-04-12T07:03:41.999Z</time></trkpt><trkpt lat="45.891079110559154" lon="11.034871098374486"><ele>190.0</ele><time>2026-04-12T07:03:42.999Z</time></trkpt><trkpt lat="45.89116192969348" lon="11.034751740083168"><ele>190.0</ele><time>2026-04-12T07:03:43.999Z</time></trkpt><trkpt lat="45.89124322300518" lon="11.0346133034453"><ele>190.0</ele><time>2026-04-12T07:03:44.999Z</time></trkpt><trkpt lat="45.89133158093791" lon="11.034503678940355"><ele>190.0</ele><time>2026-04-12T07:03:45.998Z</time></trkpt><trkpt lat="45.89142284864555" lon="11.03443554089968"><ele>190.0</ele><time>2026-04-12T07:03:46.998Z</time></trkpt><trkpt lat="45.89151830260597" lon="11.034396063532787"><ele>190.0</ele><time>2026-04-12T07:03:47.998Z</time></trkpt><trkpt lat="45.89163018750847" lon="11.034367069902796"><ele>190.0</ele><time>2026-04-12T07:03:48.998Z</time></trkpt><trkpt lat="45.891756151488536" lon="11.034356439670086"><ele>189.5</ele><time>2026-04-12T07:03:49.998Z</time></trkpt><trkpt lat="45.89189089939401" lon="11.034350699269398"><ele>189.0</ele><time>2026-04-12T07:03:50.998Z</time></trkpt><trkpt lat="45.89202609697794" lon="11.034343332211641"><ele>188.5</ele><time>2026-04-12T07:03:51.998Z</time></trkpt><trkpt lat="45.892158892286794" lon="11.03434136010543"><ele>188.0</ele><time>2026-04-12T07:03:52.998Z</time></trkpt><trkpt lat="45.89229022173264" lon="11.034338586551005"><ele>188.0</ele><time>2026-04-12T07:03:53.998Z</time></trkpt><trkpt lat="45.89242151534241" lon="11.034332936107333"><ele>188.0</ele><time>2026-04-12T07:03:54.998Z</time></trkpt><trkpt lat="45.89255814431951" lon="11.034324372883315"><ele>188.0</ele><time>2026-04-12T07:03:55.998Z</time></trkpt><trkpt lat="45.89270388808764" lon="11.03432050790512"><ele>188.0</ele><time>2026-04-12T07:03:56.998Z</time></trkpt><trkpt lat="45.89284451278505" lon="11.034317614773409"><ele>188.0</ele><time>2026-04-12T07:03:57.998Z</time></trkpt><trkpt lat="45.89297900489963" lon="11.034310535308055"><ele>188.0</ele><time>2026-04-12T07:03:58.998Z</time></trkpt><trkpt lat="45.8931158380469" lon="11.03430232418906"><ele>188.0</ele><time>2026-04-12T07:03:59.998Z</time></trkpt><trkpt lat="45.89325780575313" lon="11.034293170822853"><ele>188.0</ele><time>2026-04-12T07:04:00.998Z</time></trkpt><trkpt lat="45.89340808872088" lon="11.034280483787663"><ele>187.75</ele><time>2026-04-12T07:04:01.998Z</time></trkpt><trkpt lat="45.89355591620801" lon="11.034273966133645"><ele>187.5</ele><time>2026-04-12T07:04:02.998Z</time></trkpt><trkpt lat="45.89369088026926" lon="11.034278122327972"><ele>187.25</ele><time>2026-04-12T07:04:03.998Z</time></trkpt><trkpt lat="45.893833984192014" lon="11.034275569413664"><ele>187.0</ele><time>2026-04-12T07:04:04.998Z</time></trkpt><trkpt lat="45.89397992013095" lon="11.034273416180792"><ele>187.0</ele><time>2026-04-12T07:04:05.998Z</time></trkpt><trkpt lat="45.89412519989575" lon="11.034283745141686"><ele>187.0</ele><time>2026-04-12T07:04:06.998Z</time></trkpt><trkpt lat="45.89427136377953" lon="11.034307155897718"><ele>187.0</ele><time>2026-04-12T07:04:07.998Z</time></trkpt><trkpt lat="45.89443444455165" lon="11.034348275672903"><ele>187.0</ele><time>2026-04-12T07:04:08.998Z</time></trkpt><trkpt lat="45.89460007477862" lon="11.034379891932597"><ele>187.0</ele><time>2026-04-12T07:04:09.998Z</time></trkpt><trkpt lat="45.89477095001821" lon="11.034414473573486"><ele>187.0</ele><time>2026-04-12T07:04:10.998Z</time></trkpt><trkpt lat="45.894946137487864" lon="11.034452037522364"><ele>186.0</ele><time>2026-04-12T07:04:11.998Z</time></trkpt><trkpt lat="45.89512159498773" lon="11.03448789328951"><ele>185.0</ele><time>2026-04-12T07:04:12.998Z</time></trkpt><trkpt lat="45.895300139258254" lon="11.034526417618117"><ele>184.0</ele><time>2026-04-12T07:04:13.998Z</time></trkpt><trkpt lat="45.89547601053205" lon="11.034568092709332"><ele>184.0</ele><time>2026-04-12T07:04:14.998Z</time></trkpt><trkpt lat="45.895656563572594" lon="11.034613994135913"><ele>184.0</ele><time>2026-04-12T07:04:15.998Z</time></trkpt><trkpt lat="45.895842515557234" lon="11.034647170065943"><ele>184.0</ele><time>2026-04-12T07:04:16.998Z</time></trkpt><trkpt lat="45.896023271369856" lon="11.034684598196733"><ele>184.0</ele><time>2026-04-12T07:04:17.998Z</time></trkpt><trkpt lat="45.89619078332357" lon="11.034723203833705"><ele>184.0</ele><time>2026-04-12T07:04:18.998Z</time></trkpt><trkpt lat="45.896375768753536" lon="11.034766732856044"><ele>184.0</ele><time>2026-04-12T07:04:20Z</time></trkpt><trkpt lat="45.896551706673215" lon="11.03481025064652"><ele>184.0</ele><time>2026-04-12T07:04:21Z</time></trkpt><trkpt lat="45.896731605233875" lon="11.034847185267019"><ele>184.0</ele><time>2026-04-12T07:04:22Z</time></trkpt><trkpt lat="45.89691503714767" lon="11.034880947058362"><ele>184.0</ele><time>2026-04-12T07:04:23Z</time></trkpt><trkpt lat="45.89708647745606" lon="11.03492079605875"><ele>183.66666666666669</ele><time>2026-04-12T07:04:24Z</time></trkpt><trkpt lat="45.89726009302063" lon="11.034959037958103"><ele>183.33333333333334</ele><time>2026-04-12T07:04:25Z</time></trkpt><trkpt lat="45.89742052400085" lon="11.034993134673535"><ele>183.0</ele><time>2026-04-12T07:04:26Z</time></trkpt><trkpt lat="45.89758082049276" lon="11.035027201745649"><ele>183.0</ele><time>2026-04-12T07:04:27Z</time></trkpt><trkpt lat="45.8977335047252" lon="11.035060285194726"><ele>183.0</ele><time>2026-04-12T07:04:28Z</time></trkpt><trkpt lat="45.89788815310214" lon="11.035091864321089"><ele>183.0</ele><time>2026-04-12T07:04:29Z</time></trkpt><trkpt lat="45.89805260395027" lon="11.035121275297517"><ele>183.0</ele><time>2026-04-12T07:04:30Z</time></trkpt><trkpt lat="45.89822204878863" lon="11.035159962461494"><ele>183.0</ele><time>2026-04-12T07:04:31Z</time></trkpt><trkpt lat="45.89839159607333" lon="11.035195464213919"><ele>183.0</ele><time>2026-04-12T07:04:32Z</time></trkpt><trkpt lat="45.89856394257" lon="11.035235725570715"><ele>182.0</ele><time>2026-04-12T07:04:33Z</time></trkpt><trkpt lat="45.898740985070006" lon="11.035271440605298"><ele>181.0</ele><time>2026-04-12T07:04:34Z</time></trkpt><trkpt lat="45.898918237381665" lon="11.035310349252782"><ele>180.0</ele><time>2026-04-12T07:04:35Z</time></trkpt><trkpt lat="45.899096983856424" lon="11.035354880498959"><ele>179.0</ele><time>2026-04-12T07:04:36Z</time></trkpt><trkpt lat="45.899284047134046" lon="11.035395360740809"><ele>178.0</ele><time>2026-04-12T07:04:37Z</time></trkpt><trkpt lat="45.899472918204026" lon="11.03543605315561"><ele>177.0</ele><time>2026-04-12T07:04:38Z</time></trkpt><trkpt lat="45.899663353647675" lon="11.035473359080756"><ele>177.0</ele><time>2026-04-12T07:04:39Z</time></trkpt><trkpt lat="45.89984875812805" lon="11.035513313316656"><ele>177.0</ele><time>2026-04-12T07:04:40Z</time></trkpt><trkpt lat="45.900032833687746" lon="11.035553743995576"><ele>177.0</ele><time>2026-04-12T07:04:41Z</time></trkpt><trkpt lat="45.90021886839245" lon="11.035593022509536"><ele>175.66666666666666</ele><time>2026-04-12T07:04:42Z</time></trkpt><trkpt lat="45.900393557652016" lon="11.035628754972537"><ele>174.33333333333331</ele><time>2026-04-12T07:04:43Z</time></trkpt><trkpt lat="45.90056004498714" lon="11.03566225794404"><ele>173.0</ele><time>2026-04-12T07:04:44Z</time></trkpt><trkpt lat="45.90071815503364" lon="11.035700736137203"><ele>173.0</ele><time>2026-04-12T07:04:45Z</time></trkpt><trkpt lat="45.90087657881977" lon="11.035737136039451"><ele>173.0</ele><time>2026-04-12T07:04:46Z</time></trkpt><trkpt lat="45.90103741818735" lon="11.035773777566112"><ele>173.0</ele><time>2026-04-12T07:04:47Z</time></trkpt><trkpt lat="45.90120444449677" lon="11.035802850556449"><ele>174.33333333333331</ele><time>2026-04-12T07:04:48Z</time></trkpt><trkpt lat="45.90137995871467" lon="11.035838318144613"><ele>175.66666666666666</ele><time>2026-04-12T07:04:49Z</time></trkpt><trkpt lat="45.90156066672821" lon="11.035877505855744"><ele>177.0</ele><time>2026-04-12T07:04:50Z</time></trkpt><trkpt lat="45.90173631809869" lon="11.03591540838451"><ele>177.0</ele><time>2026-04-12T07:04:51Z</time></trkpt><trkpt lat="45.90190713643496" lon="11.035952406205345"><ele>177.0</ele><time>2026-04-12T07:04:52Z</time></trkpt><trkpt lat="45.90208445361654" lon="11.035991640806166"><ele>177.0</ele><time>2026-04-12T07:04:53Z</time></trkpt><trkpt lat="45.90226574119501" lon="11.036031087113102"><ele>177.0</ele><time>2026-04-12T07:04:54Z</time></trkpt><trkpt lat="45.902443681765924" lon="11.036067516983122"><ele>177.0</ele><time>2026-04-12T07:04:55Z</time></trkpt><trkpt lat="45.90262067050439" lon="11.036105751331256"><ele>177.0</ele><time>2026-04-12T07:04:56Z</time></trkpt><trkpt lat="45.90279374626529" lon="11.036141212829339"><ele>177.66666666666666</ele><time>2026-04-12T07:04:57Z</time></trkpt><trkpt lat="45.90296397347912" lon="11.036177319244565"><ele>178.33333333333331</ele><time>2026-04-12T07:04:58Z</time></trkpt><trkpt lat="45.90312112782081" lon="11.03621166325566"><ele>179.0</ele><time>2026-04-12T07:04:59Z</time></trkpt><trkpt lat="45.90327538637671" lon="11.036246279810864"><ele>179.0</ele><time>2026-04-12T07:04:59.999Z</time></trkpt><trkpt lat="45.90342534045856" lon="11.036281792655366"><ele>179.0</ele><time>2026-04-12T07:05:00.999Z</time></trkpt><trkpt lat="45.90357152494316" lon="11.036313921206283"><ele>179.0</ele><time>2026-04-12T07:05:01.999Z</time></trkpt><trkpt lat="45.903705120114765" lon="11.036354499096596"><ele>179.0</ele><time>2026-04-12T07:05:02.999Z</time></trkpt><trkpt lat="45.90382721197817" lon="11.03640702669035"><ele>179.0</ele><time>2026-04-12T07:05:03.999Z</time></trkpt><trkpt lat="45.90394848924126" lon="11.036468812799784"><ele>179.0</ele><time>2026-04-12T07:05:04.999Z</time></trkpt><trkpt lat="45.904062527055025" lon="11.036544063272606"><ele>179.0</ele><time>2026-04-12T07:05:05.999Z</time></trkpt><trkpt lat="45.90417346312113" lon="11.036633569237006"><ele>179.0</ele><time>2026-04-12T07:05:06.999Z</time></trkpt><trkpt lat="45.90428220644213" lon="11.036731546991408"><ele>180.25</ele><time>2026-04-12T07:05:07.999Z</time></trkpt><trkpt lat="45.90437623007051" lon="11.036836361547893"><ele>181.5</ele><time>2026-04-12T07:05:08.999Z</time></trkpt><trkpt lat="45.90446805500082" lon="11.03694453905722"><ele>182.75</ele><time>2026-04-12T07:05:09.999Z</time></trkpt><trkpt lat="45.904565812448496" lon="11.037063017829501"><ele>184.0</ele><time>2026-04-12T07:05:10.999Z</time></trkpt><trkpt lat="45.90466467447562" lon="11.037182626028578"><ele>184.0</ele><time>2026-04-12T07:05:11.999Z</time></trkpt><trkpt lat="45.90476674187778" lon="11.037300796104752"><ele>184.0</ele><time>2026-04-12T07:05:12.999Z</time></trkpt><trkpt lat="45.90486853820032" lon="11.03742068564868"><ele>184.0</ele><time>2026-04-12T07:05:13.999Z</time></trkpt><trkpt lat="45.904969277016384" lon="11.03754234848992"><ele>184.0</ele><time>2026-04-12T07:05:14.999Z</time></trkpt><trkpt lat="45.90506764392403" lon="11.037659718394291"><ele>182.75</ele><time>2026-04-12T07:05:15.999Z</time></trkpt><trkpt lat="45.90516436002152" lon="11.037779860597889"><ele>181.5</ele><time>2026-04-12T07:05:16.999Z</time></trkpt><trkpt lat="45.90526474579305" lon="11.037895933227219"><ele>180.25</ele><time>2026-04-12T07:05:17.999Z</time></trkpt><trkpt lat="45.905359770484715" lon="11.038010612583887"><ele>179.0</ele><time>2026-04-12T07:05:18.999Z</time></trkpt><trkpt lat="45.90544207148293" lon="11.038115014708183"><ele>179.0</ele><time>2026-04-12T07:05:19.999Z</time></trkpt><trkpt lat="45.90552381626333" lon="11.038206848629057"><ele>179.0</ele><time>2026-04-12T07:05:20.999Z</time></trkpt><trkpt lat="45.905607993830714" lon="11.038310794688199"><ele>179.0</ele><time>2026-04-12T07:05:21.999Z</time></trkpt><trkpt lat="45.90569388938571" lon="11.038413313394829"><ele>179.0</ele><time>2026-04-12T07:05:22.999Z</time></trkpt><trkpt lat="45.905780585975464" lon="11.038516045384357"><ele>179.0</ele><time>2026-04-12T07:05:23.999Z</time></trkpt><trkpt lat="45.90586783143556" lon="11.038622920974522"><ele>179.0</ele><time>2026-04-12T07:05:24.999Z</time></trkpt><trkpt lat="45.905958996354606" lon="11.038729475442242"><ele>179.0</ele><time>2026-04-12T07:05:25.999Z</time></trkpt><trkpt lat="45.90605087268978" lon="11.038836334384863"><ele>179.0</ele><time>2026-04-12T07:05:26.999Z</time></trkpt><trkpt lat="45.90614670906116" lon="11.038943689289933"><ele>179.0</ele><time>2026-04-12T07:05:27.999Z</time></trkpt><trkpt lat="45.90624120638947" lon="11.039053593537158"><ele>182.5</ele><time>2026-04-12T07:05:28.999Z</time></trkpt><trkpt lat="45.906338360275235" lon="11.039165925477239"><ele>186.0</ele><time>2026-04-12T07:05:29.999Z</time></trkpt><trkpt lat="45.9064365749861" lon="11.039278904183517"><ele>189.5</ele><time>2026-04-12T07:05:30.999Z</time></trkpt><trkpt lat="45.90653523330314" lon="11.039396563952954"><ele>193.0</ele><time>2026-04-12T07:05:31.999Z</time></trkpt><trkpt lat="45.906629962632124" lon="11.039509912892415"><ele>193.0</ele><time>2026-04-12T07:05:32.999Z</time></trkpt><trkpt lat="45.906725214657435" lon="11.039620758798527"><ele>193.0</ele><time>2026-04-12T07:05:33.999Z</time></trkpt><trkpt lat="45.90682710816861" lon="11.039733131021451"><ele>193.0</ele><time>2026-04-12T07:05:34.999Z</time></trkpt><trkpt lat="45.90693266613718" lon="11.039845290865097"><ele>193.0</ele><time>2026-04-12T07:05:35.999Z</time></trkpt><trkpt lat="45.90704007160671" lon="11.039952655588856"><ele>194.5</ele><time>2026-04-12T07:05:36.999Z</time></trkpt><trkpt lat="45.90715393769775" lon="11.040049689382844"><ele>196.0</ele><time>2026-04-12T07:05:37.999Z</time></trkpt><trkpt lat="45.907270957163696" lon="11.040134990959402"><ele>197.5</ele><time>2026-04-12T07:05:38.999Z</time></trkpt><trkpt lat="45.90739399282764" lon="11.040214836076462"><ele>199.0</ele><time>2026-04-12T07:05:39.999Z</time></trkpt><trkpt lat="45.907516573304925" lon="11.040284282658906"><ele>198.5</ele><time>2026-04-12T07:05:40.999Z</time></trkpt><trkpt lat="45.90764000309229" lon="11.040343998215626"><ele>198.0</ele><time>2026-04-12T07:05:41.999Z</time></trkpt><trkpt lat="45.90775668480566" lon="11.040398561913278"><ele>197.5</ele><time>2026-04-12T07:05:42.999Z</time></trkpt><trkpt lat="45.907866089270485" lon="11.04045676131424"><ele>197.0</ele><time>2026-04-12T07:05:43.999Z</time></trkpt><trkpt lat="45.907946556418985" lon="11.04050292024244"><ele>197.0</ele><time>2026-04-12T07:05:44.999Z</time></trkpt><trkpt lat="45.90802944906597" lon="11.04054254320887"><ele>197.0</ele><time>2026-04-12T07:05:45.999Z</time></trkpt><trkpt lat="45.90812389572249" lon="11.040621945803773"><ele>197.0</ele><time>2026-04-12T07:05:47.999Z</time></trkpt><trkpt lat="45.90821093783156" lon="11.040752493563682"><ele>197.0</ele><time>2026-04-12T07:05:49.999Z</time></trkpt><trkpt lat="45.90831384863759" lon="11.040833678799558"><ele>197.0</ele><time>2026-04-12T07:05:51.998Z</time></trkpt><trkpt lat="45.90839245996597" lon="11.040819143776362"><ele>196.39999999999998</ele><time>2026-04-12T07:05:52.998Z</time></trkpt><trkpt lat="45.90848245770027" lon="11.04079538399234"><ele>195.79999999999998</ele><time>2026-04-12T07:05:53.998Z</time></trkpt><trkpt lat="45.90856106359216" lon="11.040805138395212"><ele>195.2</ele><time>2026-04-12T07:05:54.998Z</time></trkpt><trkpt lat="45.908640111398306" lon="11.040834734999354"><ele>194.6</ele><time>2026-04-12T07:05:55.998Z</time></trkpt><trkpt lat="45.90873624652913" lon="11.040894498321734"><ele>194.0</ele><time>2026-04-12T07:05:56.998Z</time></trkpt><trkpt lat="45.90885593539293" lon="11.040969551967667"><ele>197.33333333333334</ele><time>2026-04-12T07:05:57.998Z</time></trkpt><trkpt lat="45.90899294803873" lon="11.041043728243087"><ele>200.66666666666669</ele><time>2026-04-12T07:05:58.998Z</time></trkpt><trkpt lat="45.909145882339864" lon="11.041115378312883"><ele>204.0</ele><time>2026-04-12T07:05:59.998Z</time></trkpt><trkpt lat="45.909292747346264" lon="11.04119044003837"><ele>204.0</ele><time>2026-04-12T07:06:00.998Z</time></trkpt><trkpt lat="45.90943137664502" lon="11.041267603828496"><ele>204.0</ele><time>2026-04-12T07:06:01.998Z</time></trkpt><trkpt lat="45.9095617380571" lon="11.04134913489275"><ele>204.0</ele><time>2026-04-12T07:06:02.998Z</time></trkpt><trkpt lat="45.90968836089171" lon="11.041437116137502"><ele>204.0</ele><time>2026-04-12T07:06:03.998Z</time></trkpt><trkpt lat="45.90981633524066" lon="11.041520435655881"><ele>204.0</ele><time>2026-04-12T07:06:04.998Z</time></trkpt><trkpt lat="45.90994096900695" lon="11.041597205590959"><ele>204.0</ele><time>2026-04-12T07:06:05.998Z</time></trkpt><trkpt lat="45.91006183393161" lon="11.041668518745468"><ele>204.0</ele><time>2026-04-12T07:06:06.998Z</time></trkpt><trkpt lat="45.91019394670717" lon="11.041732953388946"><ele>204.0</ele><time>2026-04-12T07:06:07.998Z</time></trkpt><trkpt lat="45.91032739981348" lon="11.041787912623983"><ele>204.25</ele><time>2026-04-12T07:06:08.998Z</time></trkpt><trkpt lat="45.91047694199288" lon="11.041831107841114"><ele>204.5</ele><time>2026-04-12T07:06:09.998Z</time></trkpt><trkpt lat="45.91061593022169" lon="11.041887583397507"><ele>204.75</ele><time>2026-04-12T07:06:10.998Z</time></trkpt><trkpt lat="45.910756525769024" lon="11.041956747531819"><ele>205.0</ele><time>2026-04-12T07:06:11.998Z</time></trkpt><trkpt lat="45.91089552388198" lon="11.042040895166295"><ele>204.0</ele><time>2026-04-12T07:06:12.998Z</time></trkpt><trkpt lat="45.91102516899563" lon="11.042147789876148"><ele>203.0</ele><time>2026-04-12T07:06:13.998Z</time></trkpt><trkpt lat="45.91115439567409" lon="11.04226336405645"><ele>202.0</ele><time>2026-04-12T07:06:14.998Z</time></trkpt><trkpt lat="45.91128263981011" lon="11.042383339063056"><ele>203.0</ele><time>2026-04-12T07:06:15.998Z</time></trkpt><trkpt lat="45.91142053231512" lon="11.042504274135938"><ele>204.0</ele><time>2026-04-12T07:06:16.998Z</time></trkpt><trkpt lat="45.91155112836303" lon="11.042647720383007"><ele>205.0</ele><time>2026-04-12T07:06:17.998Z</time></trkpt><trkpt lat="45.91167231006691" lon="11.042812704319578"><ele>203.66666666666666</ele><time>2026-04-12T07:06:18.998Z</time></trkpt><trkpt lat="45.91178671023548" lon="11.042993880270268"><ele>202.33333333333331</ele><time>2026-04-12T07:06:19.998Z</time></trkpt><trkpt lat="45.91190088948778" lon="11.043173369046407"><ele>201.0</ele><time>2026-04-12T07:06:20.998Z</time></trkpt><trkpt lat="45.91203603329486" lon="11.043370934052495"><ele>201.0</ele><time>2026-04-12T07:06:21.998Z</time></trkpt><trkpt lat="45.912212455058715" lon="11.043619555263508"><ele>201.0</ele><time>2026-04-12T07:06:22.998Z</time></trkpt><trkpt lat="45.91242307067284" lon="11.043812717394884"><ele>201.0</ele><time>2026-04-12T07:06:23.998Z</time></trkpt><trkpt lat="45.91259229832108" lon="11.04397017204505"><ele>201.0</ele><time>2026-04-12T07:06:24.998Z</time></trkpt><trkpt lat="45.91273893314234" lon="11.044119984131914"><ele>201.0</ele><time>2026-04-12T07:06:26Z</time></trkpt><trkpt lat="45.91288068298625" lon="11.044296867162947"><ele>201.0</ele><time>2026-04-12T07:06:27Z</time></trkpt><trkpt lat="45.913025940021235" lon="11.044527590861671"><ele>201.0</ele><time>2026-04-12T07:06:28Z</time></trkpt><trkpt lat="45.91318938314764" lon="11.044769553081709"><ele>200.5</ele><time>2026-04-12T07:06:29Z</time></trkpt><trkpt lat="45.91336255095691" lon="11.044998397526468"><ele>200.0</ele><time>2026-04-12T07:06:30Z</time></trkpt><trkpt lat="45.91355010440713" lon="11.045213384511385"><ele>200.0</ele><time>2026-04-12T07:06:31Z</time></trkpt><trkpt lat="45.913737595775075" lon="11.04541761141656"><ele>200.0</ele><time>2026-04-12T07:06:32Z</time></trkpt><trkpt lat="45.91392044912785" lon="11.04560938994968"><ele>200.0</ele><time>2026-04-12T07:06:33Z</time></trkpt><trkpt lat="45.91408991673719" lon="11.045792162942545"><ele>200.0</ele><time>2026-04-12T07:06:34Z</time></trkpt><trkpt lat="45.91425004437006" lon="11.045972088521912"><ele>200.0</ele><time>2026-04-12T07:06:35Z</time></trkpt><trkpt lat="45.91438683192333" lon="11.046165376271258"><ele>198.0</ele><time>2026-04-12T07:06:36Z</time></trkpt><trkpt lat="45.914508441400585" lon="11.046379453012124"><ele>196.0</ele><time>2026-04-12T07:06:37Z</time></trkpt><trkpt lat="45.914611263344895" lon="11.046642523649654"><ele>194.0</ele><time>2026-04-12T07:06:38Z</time></trkpt><trkpt lat="45.914705935405905" lon="11.046917435665149"><ele>194.0</ele><time>2026-04-12T07:06:39Z</time></trkpt><trkpt lat="45.914800889543244" lon="11.04718873490387"><ele>194.0</ele><time>2026-04-12T07:06:40Z</time></trkpt><trkpt lat="45.9149126148353" lon="11.047447315354926"><ele>194.0</ele><time>2026-04-12T07:06:41Z</time></trkpt><trkpt lat="45.91503521282497" lon="11.047681513457677"><ele>194.33333333333334</ele><time>2026-04-12T07:06:42Z</time></trkpt><trkpt lat="45.91516734557149" lon="11.047897182163567"><ele>194.66666666666669</ele><time>2026-04-12T07:06:43Z</time></trkpt><trkpt lat="45.91531035097006" lon="11.04810672641997"><ele>195.0</ele><time>2026-04-12T07:06:44Z</time></trkpt><trkpt lat="45.91546572051317" lon="11.048302031325697"><ele>195.0</ele><time>2026-04-12T07:06:45Z</time></trkpt><trkpt lat="45.915627734315784" lon="11.048486540614656"><ele>195.0</ele><time>2026-04-12T07:06:46Z</time></trkpt><trkpt lat="45.91578960907944" lon="11.048670080822157"><ele>195.0</ele><time>2026-04-12T07:06:47Z</time></trkpt><trkpt lat="45.91594717611283" lon="11.048848383349561"><ele>192.33333333333334</ele><time>2026-04-12T07:06:48Z</time></trkpt><trkpt lat="45.916090989046566" lon="11.049056800283454"><ele>189.66666666666669</ele><time>2026-04-12T07:06:49Z</time></trkpt><trkpt lat="45.91621313484411" lon="11.049291342717238"><ele>187.0</ele><time>2026-04-12T07:06:50Z</time></trkpt><trkpt lat="45.91631724458106" lon="11.04953306152923"><ele>187.0</ele><time>2026-04-12T07:06:51Z</time></trkpt><trkpt lat="45.91638060541998" lon="11.049804921045222"><ele>187.0</ele><time>2026-04-12T07:06:52Z</time></trkpt><trkpt lat="45.9164526926617" lon="11.05007266901905"><ele>187.0</ele><time>2026-04-12T07:06:53Z</time></trkpt><trkpt lat="45.91649257017788" lon="11.050364969824743"><ele>187.66666666666669</ele><time>2026-04-12T07:06:54Z</time></trkpt><trkpt lat="45.91652132205997" lon="11.050671539636673"><ele>188.33333333333334</ele><time>2026-04-12T07:06:55Z</time></trkpt><trkpt lat="45.91655827375288" lon="11.050980669871523"><ele>189.0</ele><time>2026-04-12T07:06:56Z</time></trkpt><trkpt lat="45.91661848056639" lon="11.051285727872791"><ele>189.33333333333334</ele><time>2026-04-12T07:06:57Z</time></trkpt><trkpt lat="45.91668909471987" lon="11.051558075098187"><ele>189.66666666666669</ele><time>2026-04-12T07:06:58Z</time></trkpt><trkpt lat="45.916763908179384" lon="11.05181522168435"><ele>190.0</ele><time>2026-04-12T07:06:59Z</time></trkpt><trkpt lat="45.916834663982385" lon="11.052070929360733"><ele>188.0</ele><time>2026-04-12T07:07:00Z</time></trkpt><trkpt lat="45.916892743419204" lon="11.052312335650514"><ele>186.0</ele><time>2026-04-12T07:07:01Z</time></trkpt><trkpt lat="45.91694109041033" lon="11.052558199940338"><ele>184.0</ele><time>2026-04-12T07:07:02Z</time></trkpt><trkpt lat="45.916982883178314" lon="11.052809258923983"><ele>184.0</ele><time>2026-04-12T07:07:03Z</time></trkpt><trkpt lat="45.91701301430133" lon="11.053055901933538"><ele>184.0</ele><time>2026-04-12T07:07:04Z</time></trkpt><trkpt lat="45.91703592047707" lon="11.05329157278193"><ele>184.0</ele><time>2026-04-12T07:07:05Z</time></trkpt><trkpt lat="45.91704884528384" lon="11.053520065874922"><ele>184.33333333333334</ele><time>2026-04-12T07:07:06Z</time></trkpt><trkpt lat="45.917063834770545" lon="11.053761491674502"><ele>184.66666666666666</ele><time>2026-04-12T07:07:06.999Z</time></trkpt><trkpt lat="45.917082883238805" lon="11.054006244707871"><ele>185.0</ele><time>2026-04-12T07:07:07.999Z</time></trkpt><trkpt lat="45.91710051993592" lon="11.054243038348888"><ele>185.0</ele><time>2026-04-12T07:07:08.999Z</time></trkpt><trkpt lat="45.917116047579285" lon="11.054478445149789"><ele>185.0</ele><time>2026-04-12T07:07:09.999Z</time></trkpt><trkpt lat="45.917130792976145" lon="11.054707617873571"><ele>185.0</ele><time>2026-04-12T07:07:10.999Z</time></trkpt><trkpt lat="45.917144519105015" lon="11.054934674532456"><ele>184.66666666666666</ele><time>2026-04-12T07:07:11.999Z</time></trkpt><trkpt lat="45.91716035427486" lon="11.055169272189158"><ele>184.33333333333334</ele><time>2026-04-12T07:07:12.999Z</time></trkpt><trkpt lat="45.91717576201349" lon="11.055405213010141"><ele>184.0</ele><time>2026-04-12T07:07:13.999Z</time></trkpt><trkpt lat="45.91719246628805" lon="11.055643316588212"><ele>184.33333333333334</ele><time>2026-04-12T07:07:14.999Z</time></trkpt><trkpt lat="45.91720667730681" lon="11.055879174228878"><ele>184.66666666666666</ele><time>2026-04-12T07:07:15.999Z</time></trkpt><trkpt lat="45.917221429677014" lon="11.05610851508069"><ele>185.0</ele><time>2026-04-12T07:07:16.999Z</time></trkpt><trkpt lat="45.91723380805905" lon="11.056345658462515"><ele>185.0</ele><time>2026-04-12T07:07:17.999Z</time></trkpt><trkpt lat="45.917246979884176" lon="11.056577093939875"><ele>185.0</ele><time>2026-04-12T07:07:18.999Z</time></trkpt><trkpt lat="45.91725735079318" lon="11.056812621085324"><ele>185.0</ele><time>2026-04-12T07:07:19.999Z</time></trkpt><trkpt lat="45.91726512958868" lon="11.057041142622689"><ele>185.0</ele><time>2026-04-12T07:07:20.999Z</time></trkpt><trkpt lat="45.91726883147047" lon="11.057264255751788"><ele>185.0</ele><time>2026-04-12T07:07:21.999Z</time></trkpt><trkpt lat="45.91726922819652" lon="11.057486863943685"><ele>185.0</ele><time>2026-04-12T07:07:22.999Z</time></trkpt><trkpt lat="45.917271739244796" lon="11.057724067080303"><ele>184.66666666666666</ele><time>2026-04-12T07:07:23.999Z</time></trkpt><trkpt lat="45.917275925700416" lon="11.057965621998314"><ele>184.33333333333334</ele><time>2026-04-12T07:07:24.999Z</time></trkpt><trkpt lat="45.917275817466475" lon="11.058213217369198"><ele>184.0</ele><time>2026-04-12T07:07:25.999Z</time></trkpt><trkpt lat="45.91727459102938" lon="11.05845877600726"><ele>185.0</ele><time>2026-04-12T07:07:26.999Z</time></trkpt><trkpt lat="45.91727390867357" lon="11.058701645764637"><ele>186.0</ele><time>2026-04-12T07:07:27.999Z</time></trkpt><trkpt lat="45.9172731961465" lon="11.058935879052605"><ele>187.0</ele><time>2026-04-12T07:07:28.999Z</time></trkpt><trkpt lat="45.917275774898485" lon="11.059168230813349"><ele>187.0</ele><time>2026-04-12T07:07:29.999Z</time></trkpt><trkpt lat="45.91727693363902" lon="11.059390548824501"><ele>187.0</ele><time>2026-04-12T07:07:30.999Z</time></trkpt><trkpt lat="45.917277135382406" lon="11.059616059865771"><ele>187.0</ele><time>2026-04-12T07:07:31.999Z</time></trkpt><trkpt lat="45.91728027266237" lon="11.059843135682096"><ele>186.66666666666669</ele><time>2026-04-12T07:07:32.999Z</time></trkpt><trkpt lat="45.91728350329883" lon="11.060072339968398"><ele>186.33333333333334</ele><time>2026-04-12T07:07:33.999Z</time></trkpt><trkpt lat="45.91728853268361" lon="11.060304335879168"><ele>186.0</ele><time>2026-04-12T07:07:34.999Z</time></trkpt><trkpt lat="45.917290717811674" lon="11.060538959960382"><ele>186.0</ele><time>2026-04-12T07:07:35.999Z</time></trkpt><trkpt lat="45.917301693838205" lon="11.060771177058678"><ele>186.0</ele><time>2026-04-12T07:07:36.999Z</time></trkpt><trkpt lat="45.91731844369949" lon="11.060998513681366"><ele>186.0</ele><time>2026-04-12T07:07:37.999Z</time></trkpt><trkpt lat="45.917342791289286" lon="11.061223339519128"><ele>186.0</ele><time>2026-04-12T07:07:38.999Z</time></trkpt><trkpt lat="45.91737238210624" lon="11.061450361894455"><ele>186.0</ele><time>2026-04-12T07:07:39.999Z</time></trkpt><trkpt lat="45.91740812095399" lon="11.061678522568611"><ele>186.0</ele><time>2026-04-12T07:07:40.999Z</time></trkpt><trkpt lat="45.917449485164475" lon="11.061901871041151"><ele>186.0</ele><time>2026-04-12T07:07:41.999Z</time></trkpt><trkpt lat="45.917494918270215" lon="11.062123844989419"><ele>186.0</ele><time>2026-04-12T07:07:42.999Z</time></trkpt><trkpt lat="45.91754517034726" lon="11.062349393510894"><ele>186.0</ele><time>2026-04-12T07:07:43.999Z</time></trkpt><trkpt lat="45.917602753940116" lon="11.062569743514764"><ele>185.33333333333334</ele><time>2026-04-12T07:07:44.999Z</time></trkpt><trkpt lat="45.91765988404906" lon="11.06279101114384"><ele>184.66666666666669</ele><time>2026-04-12T07:07:45.999Z</time></trkpt><trkpt lat="45.91771513404032" lon="11.063010199117375"><ele>184.0</ele><time>2026-04-12T07:07:46.999Z</time></trkpt><trkpt lat="45.91776242115649" lon="11.06323341312898"><ele>184.0</ele><time>2026-04-12T07:07:47.999Z</time></trkpt><trkpt lat="45.9178024357022" lon="11.06346755778959"><ele>184.0</ele><time>2026-04-12T07:07:48.999Z</time></trkpt><trkpt lat="45.91783812297099" lon="11.063715760906222"><ele>184.0</ele><time>2026-04-12T07:07:49.999Z</time></trkpt><trkpt lat="45.917866210097316" lon="11.063959489300906"><ele>183.66666666666669</ele><time>2026-04-12T07:07:50.999Z</time></trkpt><trkpt lat="45.917889167011595" lon="11.064199784428935"><ele>183.33333333333334</ele><time>2026-04-12T07:07:51.999Z</time></trkpt><trkpt lat="45.9179056713267" lon="11.064437161685746"><ele>183.0</ele><time>2026-04-12T07:07:52.999Z</time></trkpt><trkpt lat="45.9179199620696" lon="11.06467943351883"><ele>183.0</ele><time>2026-04-12T07:07:53.999Z</time></trkpt><trkpt lat="45.917938904596724" lon="11.064915149648423"><ele>183.0</ele><time>2026-04-12T07:07:54.999Z</time></trkpt><trkpt lat="45.91795444700414" lon="11.06514067443929"><ele>183.0</ele><time>2026-04-12T07:07:55.999Z</time></trkpt><trkpt lat="45.91797442588811" lon="11.065364502092963"><ele>183.0</ele><time>2026-04-12T07:07:56.999Z</time></trkpt><trkpt lat="45.91799207558562" lon="11.065591549843756"><ele>183.0</ele><time>2026-04-12T07:07:57.999Z</time></trkpt><trkpt lat="45.91800853666578" lon="11.06581747503978"><ele>183.0</ele><time>2026-04-12T07:07:58.998Z</time></trkpt><trkpt lat="45.91803219554607" lon="11.066045541833107"><ele>183.0</ele><time>2026-04-12T07:07:59.998Z</time></trkpt><trkpt lat="45.91804279951569" lon="11.06625980438901"><ele>183.0</ele><time>2026-04-12T07:08:00.998Z</time></trkpt><trkpt lat="45.91804535865815" lon="11.066469224765425"><ele>183.0</ele><time>2026-04-12T07:08:01.998Z</time></trkpt><trkpt lat="45.91802697070191" lon="11.06668244979329"><ele>183.0</ele><time>2026-04-12T07:08:02.998Z</time></trkpt><trkpt lat="45.91801128758475" lon="11.066881899200926"><ele>182.0</ele><time>2026-04-12T07:08:03.998Z</time></trkpt><trkpt lat="45.917977882232655" lon="11.067074351700882"><ele>181.0</ele><time>2026-04-12T07:08:04.998Z</time></trkpt><trkpt lat="45.91793494208266" lon="11.067277755949164"><ele>180.0</ele><time>2026-04-12T07:08:05.998Z</time></trkpt><trkpt lat="45.91788640370052" lon="11.067493229749099"><ele>179.0</ele><time>2026-04-12T07:08:06.998Z</time></trkpt><trkpt lat="45.91784258898501" lon="11.067721305342074"><ele>178.66666666666666</ele><time>2026-04-12T07:08:07.998Z</time></trkpt><trkpt lat="45.91779803249781" lon="11.067939284756681"><ele>178.33333333333334</ele><time>2026-04-12T07:08:08.998Z</time></trkpt><trkpt lat="45.91775341525955" lon="11.068162188927612"><ele>178.0</ele><time>2026-04-12T07:08:09.998Z</time></trkpt><trkpt lat="45.91770905240684" lon="11.068381108098793"><ele>177.33333333333334</ele><time>2026-04-12T07:08:10.998Z</time></trkpt><trkpt lat="45.9176681011589" lon="11.068592840089561"><ele>176.66666666666666</ele><time>2026-04-12T07:08:11.998Z</time></trkpt><trkpt lat="45.91762305136516" lon="11.068814472673997"><ele>176.0</ele><time>2026-04-12T07:08:12.998Z</time></trkpt><trkpt lat="45.917580927131745" lon="11.069036717825892"><ele>176.0</ele><time>2026-04-12T07:08:13.998Z</time></trkpt><trkpt lat="45.91753905838595" lon="11.069265492373411"><ele>176.0</ele><time>2026-04-12T07:08:14.998Z</time></trkpt><trkpt lat="45.917499533649774" lon="11.069496229232792"><ele>176.0</ele><time>2026-04-12T07:08:15.998Z</time></trkpt><trkpt lat="45.917455059521636" lon="11.069722536138718"><ele>175.33333333333331</ele><time>2026-04-12T07:08:16.998Z</time></trkpt><trkpt lat="45.91741087244935" lon="11.069944242813582"><ele>174.66666666666666</ele><time>2026-04-12T07:08:17.998Z</time></trkpt><trkpt lat="45.91736425466118" lon="11.07017040767115"><ele>174.0</ele><time>2026-04-12T07:08:18.998Z</time></trkpt><trkpt lat="45.917316555941376" lon="11.070402575394082"><ele>174.0</ele><time>2026-04-12T07:08:19.998Z</time></trkpt><trkpt lat="45.91726904853116" lon="11.070647165423603"><ele>174.0</ele><time>2026-04-12T07:08:20.998Z</time></trkpt><trkpt lat="45.9172235481039" lon="11.070900532494237"><ele>174.0</ele><time>2026-04-12T07:08:21.998Z</time></trkpt><trkpt lat="45.917187577159524" lon="11.071173520400917"><ele>174.0</ele><time>2026-04-12T07:08:22.998Z</time></trkpt><trkpt lat="45.91715966340042" lon="11.071457747593968"><ele>174.0</ele><time>2026-04-12T07:08:23.998Z</time></trkpt><trkpt lat="45.917143311101064" lon="11.071746737141039"><ele>174.0</ele><time>2026-04-12T07:08:24.998Z</time></trkpt><trkpt lat="45.917139639727694" lon="11.0720455560209"><ele>174.0</ele><time>2026-04-12T07:08:25.998Z</time></trkpt><trkpt lat="45.917134459568736" lon="11.072343231610622"><ele>174.0</ele><time>2026-04-12T07:08:26.998Z</time></trkpt><trkpt lat="45.91713085806579" lon="11.072624339276954"><ele>174.0</ele><time>2026-04-12T07:08:27.998Z</time></trkpt><trkpt lat="45.91713638552071" lon="11.072896259643867"><ele>174.0</ele><time>2026-04-12T07:08:28.998Z</time></trkpt><trkpt lat="45.9171663348809" lon="11.073174360844725"><ele>174.0</ele><time>2026-04-12T07:08:29.998Z</time></trkpt><trkpt lat="45.917231795270716" lon="11.073452186956608"><ele>174.0</ele><time>2026-04-12T07:08:30.998Z</time></trkpt><trkpt lat="45.91732523309056" lon="11.073719523345096"><ele>174.33333333333334</ele><time>2026-04-12T07:08:32Z</time></trkpt><trkpt lat="45.91743843738125" lon="11.073977225543484"><ele>174.66666666666669</ele><time>2026-04-12T07:08:33Z</time></trkpt><trkpt lat="45.91757013321594" lon="11.074227216303095"><ele>175.0</ele><time>2026-04-12T07:08:34Z</time></trkpt><trkpt lat="45.917703936453314" lon="11.074490855435071"><ele>175.0</ele><time>2026-04-12T07:08:35Z</time></trkpt><trkpt lat="45.91781017844753" lon="11.07479677427165"><ele>175.0</ele><time>2026-04-12T07:08:36Z</time></trkpt><trkpt lat="45.91789795177028" lon="11.075119363472714"><ele>175.0</ele><time>2026-04-12T07:08:37Z</time></trkpt><trkpt lat="45.91795900022226" lon="11.075458688550503"><ele>175.0</ele><time>2026-04-12T07:08:38Z</time></trkpt><trkpt lat="45.91799361622264" lon="11.07581108829361"><ele>175.0</ele><time>2026-04-12T07:08:39Z</time></trkpt><trkpt lat="45.918009927865704" lon="11.076170355580986"><ele>175.0</ele><time>2026-04-12T07:08:40Z</time></trkpt><trkpt lat="45.918014956251305" lon="11.076535251878338"><ele>175.5</ele><time>2026-04-12T07:08:41Z</time></trkpt><trkpt lat="45.91801911821553" lon="11.07690303069323"><ele>176.0</ele><time>2026-04-12T07:08:42Z</time></trkpt><trkpt lat="45.91800910479421" lon="11.077275553576804"><ele>175.5</ele><time>2026-04-12T07:08:43Z</time></trkpt><trkpt lat="45.91800093407195" lon="11.077635102211383"><ele>175.0</ele><time>2026-04-12T07:08:44Z</time></trkpt><trkpt lat="45.91798695908486" lon="11.077984326055132"><ele>175.5</ele><time>2026-04-12T07:08:45Z</time></trkpt><trkpt lat="45.91797241544349" lon="11.078322172913365"><ele>176.0</ele><time>2026-04-12T07:08:46Z</time></trkpt><trkpt lat="45.917963003061516" lon="11.078650265509577"><ele>176.0</ele><time>2026-04-12T07:08:47Z</time></trkpt><trkpt lat="45.917964661992045" lon="11.078985315033036"><ele>176.0</ele><time>2026-04-12T07:08:48Z</time></trkpt><trkpt lat="45.91798324236634" lon="11.079315461698295"><ele>177.0</ele><time>2026-04-12T07:08:49Z</time></trkpt><trkpt lat="45.91803134833833" lon="11.079634919048061"><ele>178.0</ele><time>2026-04-12T07:08:50Z</time></trkpt><trkpt lat="45.918093900598464" lon="11.079948001336813"><ele>178.0</ele><time>2026-04-12T07:08:51Z</time></trkpt><trkpt lat="45.91817149672144" lon="11.080259298270976"><ele>178.0</ele><time>2026-04-12T07:08:52Z</time></trkpt><trkpt lat="45.91826226801234" lon="11.08055791060872"><ele>177.66666666666669</ele><time>2026-04-12T07:08:53Z</time></trkpt><trkpt lat="45.91835604276332" lon="11.080836330807642"><ele>177.33333333333334</ele><time>2026-04-12T07:08:54Z</time></trkpt><trkpt lat="45.918454660374266" lon="11.081117323393077"><ele>177.0</ele><time>2026-04-12T07:08:55Z</time></trkpt><trkpt lat="45.9185398934835" lon="11.081396689976845"><ele>176.33333333333334</ele><time>2026-04-12T07:08:56Z</time></trkpt><trkpt lat="45.918625635713596" lon="11.08168010087347"><ele>175.66666666666669</ele><time>2026-04-12T07:08:57Z</time></trkpt><trkpt lat="45.91871442320979" lon="11.081964667629816"><ele>175.0</ele><time>2026-04-12T07:08:58Z</time></trkpt><trkpt lat="45.91880042791798" lon="11.082242380917355"><ele>175.0</ele><time>2026-04-12T07:08:59Z</time></trkpt><trkpt lat="45.918885766523154" lon="11.082517585543394"><ele>175.0</ele><time>2026-04-12T07:09:00Z</time></trkpt><trkpt lat="45.918972258338165" lon="11.082796632413698"><ele>175.0</ele><time>2026-04-12T07:09:01Z</time></trkpt><trkpt lat="45.919057470669415" lon="11.083075853163372"><ele>175.33333333333334</ele><time>2026-04-12T07:09:02Z</time></trkpt><trkpt lat="45.91913519307537" lon="11.08336743303863"><ele>175.66666666666666</ele><time>2026-04-12T07:09:03Z</time></trkpt><trkpt lat="45.91919889531592" lon="11.083668962693547"><ele>176.0</ele><time>2026-04-12T07:09:04Z</time></trkpt><trkpt lat="45.91923023842042" lon="11.083986910798219"><ele>176.0</ele><time>2026-04-12T07:09:05Z</time></trkpt><trkpt lat="45.91929188152026" lon="11.084298767530928"><ele>176.0</ele><time>2026-04-12T07:09:06Z</time></trkpt><trkpt lat="45.919327986599946" lon="11.084619588345198"><ele>176.0</ele><time>2026-04-12T07:09:07Z</time></trkpt><trkpt lat="45.91937085259974" lon="11.084942445106336"><ele>176.0</ele><time>2026-04-12T07:09:08Z</time></trkpt><trkpt lat="45.919410672298966" lon="11.08525685307445"><ele>176.0</ele><time>2026-04-12T07:09:09Z</time></trkpt><trkpt lat="45.91945586122565" lon="11.085565439900126"><ele>176.0</ele><time>2026-04-12T07:09:10Z</time></trkpt><trkpt lat="45.91949862153768" lon="11.085875985648753"><ele>176.0</ele><time>2026-04-12T07:09:11Z</time></trkpt><trkpt lat="45.91954085264533" lon="11.086186191267583"><ele>175.66666666666666</ele><time>2026-04-12T07:09:12Z</time></trkpt><trkpt lat="45.91958175635827" lon="11.086495492340916"><ele>175.33333333333334</ele><time>2026-04-12T07:09:12.999Z</time></trkpt><trkpt lat="45.91963424653056" lon="11.086787540123822"><ele>175.0</ele><time>2026-04-12T07:09:13.999Z</time></trkpt><trkpt lat="45.91969489257623" lon="11.087067093640375"><ele>175.0</ele><time>2026-04-12T07:09:14.999Z</time></trkpt><trkpt lat="45.919776562095315" lon="11.087331209567179"><ele>175.0</ele><time>2026-04-12T07:09:15.999Z</time></trkpt><trkpt lat="45.91985886528585" lon="11.08757804318907"><ele>175.0</ele><time>2026-04-12T07:09:16.999Z</time></trkpt><trkpt lat="45.91994324412531" lon="11.08780410299692"><ele>175.0</ele><time>2026-04-12T07:09:17.999Z</time></trkpt><trkpt lat="45.920032608587405" lon="11.088035349703652"><ele>175.0</ele><time>2026-04-12T07:09:18.999Z</time></trkpt><trkpt lat="45.920121256125356" lon="11.088280459817472"><ele>175.0</ele><time>2026-04-12T07:09:19.999Z</time></trkpt><trkpt lat="45.92020791955897" lon="11.088522005708331"><ele>175.0</ele><time>2026-04-12T07:09:20.999Z</time></trkpt><trkpt lat="45.920297735936494" lon="11.088756753635636"><ele>175.0</ele><time>2026-04-12T07:09:21.999Z</time></trkpt><trkpt lat="45.92040414655998" lon="11.088996283732296"><ele>175.0</ele><time>2026-04-12T07:09:22.999Z</time></trkpt><trkpt lat="45.92052384190707" lon="11.08923654090982"><ele>175.66666666666669</ele><time>2026-04-12T07:09:23.999Z</time></trkpt><trkpt lat="45.920649449826506" lon="11.089484629417706"><ele>176.33333333333334</ele><time>2026-04-12T07:09:24.999Z</time></trkpt><trkpt lat="45.920774202440526" lon="11.089733409745891"><ele>177.0</ele><time>2026-04-12T07:09:25.999Z</time></trkpt><trkpt lat="45.92089586646985" lon="11.089991787253386"><ele>176.33333333333334</ele><time>2026-04-12T07:09:26.999Z</time></trkpt><trkpt lat="45.921015517766506" lon="11.090246211649356"><ele>175.66666666666669</ele><time>2026-04-12T07:09:27.999Z</time></trkpt><trkpt lat="45.92114784337152" lon="11.09048908889091"><ele>175.0</ele><time>2026-04-12T07:09:28.999Z</time></trkpt><trkpt lat="45.92130046047915" lon="11.090711973827368"><ele>175.33333333333334</ele><time>2026-04-12T07:09:29.999Z</time></trkpt><trkpt lat="45.9214574538463" lon="11.090917769780638"><ele>175.66666666666666</ele><time>2026-04-12T07:09:30.999Z</time></trkpt><trkpt lat="45.92161333969728" lon="11.091113087581185"><ele>176.0</ele><time>2026-04-12T07:09:31.999Z</time></trkpt><trkpt lat="45.92175358365611" lon="11.091292016310604"><ele>176.0</ele><time>2026-04-12T07:09:32.999Z</time></trkpt><trkpt lat="45.92189525900295" lon="11.091462449197417"><ele>176.0</ele><time>2026-04-12T07:09:33.999Z</time></trkpt><trkpt lat="45.92204116815713" lon="11.091631022602346"><ele>176.0</ele><time>2026-04-12T07:09:34.999Z</time></trkpt><trkpt lat="45.92219808611669" lon="11.091800794936514"><ele>177.0</ele><time>2026-04-12T07:09:35.999Z</time></trkpt><trkpt lat="45.922368758389986" lon="11.091951177936041"><ele>178.0</ele><time>2026-04-12T07:09:36.999Z</time></trkpt><trkpt lat="45.92254593666315" lon="11.09209326238194"><ele>179.0</ele><time>2026-04-12T07:09:37.999Z</time></trkpt><trkpt lat="45.922716289164306" lon="11.092218004153612"><ele>179.0</ele><time>2026-04-12T07:09:38.999Z</time></trkpt><trkpt lat="45.922888453227266" lon="11.092322772167595"><ele>179.0</ele><time>2026-04-12T07:09:39.999Z</time></trkpt><trkpt lat="45.923045879986816" lon="11.092414710325038"><ele>179.0</ele><time>2026-04-12T07:09:40.999Z</time></trkpt><trkpt lat="45.92319983676116" lon="11.09249100734446"><ele>180.66666666666666</ele><time>2026-04-12T07:09:41.999Z</time></trkpt><trkpt lat="45.92335339619565" lon="11.092557634527628"><ele>182.33333333333334</ele><time>2026-04-12T07:09:42.999Z</time></trkpt><trkpt lat="45.92350548968685" lon="11.092604036551842"><ele>184.0</ele><time>2026-04-12T07:09:43.999Z</time></trkpt><trkpt lat="45.92364491521907" lon="11.09264274928265"><ele>184.0</ele><time>2026-04-12T07:09:44.999Z</time></trkpt><trkpt lat="45.923780800936306" lon="11.092681494255709"><ele>184.0</ele><time>2026-04-12T07:09:45.999Z</time></trkpt><trkpt lat="45.92391778500169" lon="11.092720307053193"><ele>184.0</ele><time>2026-04-12T07:09:46.999Z</time></trkpt><trkpt lat="45.924059656695206" lon="11.092759143557448"><ele>184.0</ele><time>2026-04-12T07:09:47.999Z</time></trkpt><trkpt lat="45.92420699779774" lon="11.092802267116241"><ele>182.66666666666669</ele><time>2026-04-12T07:09:48.999Z</time></trkpt><trkpt lat="45.92435483977024" lon="11.092846119219004"><ele>181.33333333333334</ele><time>2026-04-12T07:09:49.999Z</time></trkpt><trkpt lat="45.92450765888786" lon="11.092887479291145"><ele>180.0</ele><time>2026-04-12T07:09:50.999Z</time></trkpt><trkpt lat="45.92466080003003" lon="11.092930589764707"><ele>180.0</ele><time>2026-04-12T07:09:51.999Z</time></trkpt><trkpt lat="45.92481818316802" lon="11.092972466590142"><ele>180.0</ele><time>2026-04-12T07:09:52.999Z</time></trkpt><trkpt lat="45.92497971732529" lon="11.093016490313843"><ele>180.0</ele><time>2026-04-12T07:09:53.999Z</time></trkpt><trkpt lat="45.92514334968607" lon="11.093062651239904"><ele>179.33333333333334</ele><time>2026-04-12T07:09:54.999Z</time></trkpt><trkpt lat="45.925305521115924" lon="11.093106334974124"><ele>178.66666666666669</ele><time>2026-04-12T07:09:55.999Z</time></trkpt><trkpt lat="45.92546216216455" lon="11.09314610539926"><ele>178.0</ele><time>2026-04-12T07:09:56.999Z</time></trkpt><trkpt lat="45.92561518934891" lon="11.093164960170327"><ele>178.0</ele><time>2026-04-12T07:09:57.999Z</time></trkpt><trkpt lat="45.925769550789305" lon="11.093179698330015"><ele>178.0</ele><time>2026-04-12T07:09:58.999Z</time></trkpt><trkpt lat="45.925923202045205" lon="11.093185874644266"><ele>178.0</ele><time>2026-04-12T07:09:59.999Z</time></trkpt><trkpt lat="45.92608218085013" lon="11.093190691426816"><ele>178.66666666666669</ele><time>2026-04-12T07:10:00.999Z</time></trkpt><trkpt lat="45.926237706687466" lon="11.093191850574515"><ele>179.33333333333334</ele><time>2026-04-12T07:10:01.999Z</time></trkpt><trkpt lat="45.9263964977034" lon="11.093186843516806"><ele>180.0</ele><time>2026-04-12T07:10:02.999Z</time></trkpt><trkpt lat="45.926556994794076" lon="11.093180399109409"><ele>180.0</ele><time>2026-04-12T07:10:03.999Z</time></trkpt><trkpt lat="45.926714485533026" lon="11.093174998245479"><ele>180.0</ele><time>2026-04-12T07:10:04.999Z</time></trkpt><trkpt lat="45.9268726907586" lon="11.093168517719931"><ele>180.0</ele><time>2026-04-12T07:10:05.998Z</time></trkpt><trkpt lat="45.927029849257124" lon="11.093160334048866"><ele>180.5</ele><time>2026-04-12T07:10:06.998Z</time></trkpt><trkpt lat="45.927175933831094" lon="11.093157179844756"><ele>181.0</ele><time>2026-04-12T07:10:07.998Z</time></trkpt><trkpt lat="45.92731445608769" lon="11.093152667861553"><ele>181.5</ele><time>2026-04-12T07:10:08.998Z</time></trkpt><trkpt lat="45.92745253817143" lon="11.093145418913032"><ele>182.0</ele><time>2026-04-12T07:10:09.998Z</time></trkpt><trkpt lat="45.92759557518796" lon="11.09314144338849"><ele>183.25</ele><time>2026-04-12T07:10:10.998Z</time></trkpt><trkpt lat="45.92772347843503" lon="11.093136147004373"><ele>184.5</ele><time>2026-04-12T07:10:11.998Z</time></trkpt><trkpt lat="45.9278374110644" lon="11.093135292949132"><ele>185.75</ele><time>2026-04-12T07:10:12.998Z</time></trkpt><trkpt lat="45.92794314916062" lon="11.093130683691594"><ele>187.0</ele><time>2026-04-12T07:10:13.998Z</time></trkpt><trkpt lat="45.92804608652234" lon="11.09313214137359"><ele>187.0</ele><time>2026-04-12T07:10:14.998Z</time></trkpt><trkpt lat="45.92815215463797" lon="11.09313264282154"><ele>187.0</ele><time>2026-04-12T07:10:15.998Z</time></trkpt><trkpt lat="45.928262748512054" lon="11.093129849430166"><ele>187.0</ele><time>2026-04-12T07:10:16.998Z</time></trkpt><trkpt lat="45.92837703848185" lon="11.093128764245732"><ele>187.0</ele><time>2026-04-12T07:10:17.998Z</time></trkpt><trkpt lat="45.92848933888342" lon="11.093129608997744"><ele>187.0</ele><time>2026-04-12T07:10:18.998Z</time></trkpt><trkpt lat="45.9286034516297" lon="11.093128367018231"><ele>188.5</ele><time>2026-04-12T07:10:19.998Z</time></trkpt><trkpt lat="45.92871776096471" lon="11.093129038422498"><ele>190.0</ele><time>2026-04-12T07:10:20.998Z</time></trkpt><trkpt lat="45.928834575485816" lon="11.093127598383454"><ele>191.5</ele><time>2026-04-12T07:10:21.998Z</time></trkpt><trkpt lat="45.928946944647635" lon="11.09312923101836"><ele>193.0</ele><time>2026-04-12T07:10:22.998Z</time></trkpt><trkpt lat="45.92906121121352" lon="11.093126140604499"><ele>193.0</ele><time>2026-04-12T07:10:23.998Z</time></trkpt><trkpt lat="45.92918258305293" lon="11.093128638992168"><ele>193.0</ele><time>2026-04-12T07:10:24.998Z</time></trkpt><trkpt lat="45.92930316950817" lon="11.093127285514994"><ele>193.0</ele><time>2026-04-12T07:10:25.998Z</time></trkpt><trkpt lat="45.929423398235734" lon="11.093127574768586"><ele>193.0</ele><time>2026-04-12T07:10:26.998Z</time></trkpt><trkpt lat="45.92954186847474" lon="11.093128671469783"><ele>193.75</ele><time>2026-04-12T07:10:27.998Z</time></trkpt><trkpt lat="45.929661741853536" lon="11.093132005611555"><ele>194.5</ele><time>2026-04-12T07:10:28.998Z</time></trkpt><trkpt lat="45.9297861127192" lon="11.09314348112721"><ele>195.25</ele><time>2026-04-12T07:10:29.998Z</time></trkpt><trkpt lat="45.9299050350868" lon="11.093167785272287"><ele>196.0</ele><time>2026-04-12T07:10:30.998Z</time></trkpt><trkpt lat="45.93002906354004" lon="11.093218242445818"><ele>196.25</ele><time>2026-04-12T07:10:31.998Z</time></trkpt><trkpt lat="45.93014896546041" lon="11.093288294544466"><ele>196.5</ele><time>2026-04-12T07:10:32.998Z</time></trkpt><trkpt lat="45.930272345626896" lon="11.093363657425588"><ele>196.75</ele><time>2026-04-12T07:10:33.998Z</time></trkpt><trkpt lat="45.93039080082281" lon="11.09344335113518"><ele>197.0</ele><time>2026-04-12T07:10:34.998Z</time></trkpt><trkpt lat="45.93050466032896" lon="11.093523970457793"><ele>197.0</ele><time>2026-04-12T07:10:35.998Z</time></trkpt><trkpt lat="45.93061928005847" lon="11.093610508000298"><ele>197.0</ele><time>2026-04-12T07:10:36.998Z</time></trkpt><trkpt lat="45.93072918749972" lon="11.093702723090358"><ele>197.0</ele><time>2026-04-12T07:10:38Z</time></trkpt><trkpt lat="45.930849625176826" lon="11.093792741339785"><ele>197.0</ele><time>2026-04-12T07:10:39Z</time></trkpt><trkpt lat="45.93096662021561" lon="11.093878164071393"><ele>196.0</ele><time>2026-04-12T07:10:40Z</time></trkpt><trkpt lat="45.9310755114907" lon="11.093959342083469"><ele>195.0</ele><time>2026-04-12T07:10:41Z</time></trkpt><trkpt lat="45.931181799644904" lon="11.094040195571141"><ele>194.0</ele><time>2026-04-12T07:10:42Z</time></trkpt><trkpt lat="45.93129235995301" lon="11.094126572453034"><ele>193.0</ele><time>2026-04-12T07:10:43Z</time></trkpt><trkpt lat="45.93140272269984" lon="11.094208529144389"><ele>192.5</ele><time>2026-04-12T07:10:44Z</time></trkpt><trkpt lat="45.93151675304452" lon="11.094290799279696"><ele>192.0</ele><time>2026-04-12T07:10:45Z</time></trkpt><trkpt lat="45.93163100250034" lon="11.094376100333136"><ele>191.5</ele><time>2026-04-12T07:10:46Z</time></trkpt><trkpt lat="45.93174800293322" lon="11.094464684213621"><ele>191.0</ele><time>2026-04-12T07:10:47Z</time></trkpt><trkpt lat="45.931862012958405" lon="11.09455180099703"><ele>190.75</ele><time>2026-04-12T07:10:48Z</time></trkpt><trkpt lat="45.93197935359334" lon="11.094642558340079"><ele>190.5</ele><time>2026-04-12T07:10:49Z</time></trkpt><trkpt lat="45.93209515407218" lon="11.094735286860637"><ele>190.25</ele><time>2026-04-12T07:10:50Z</time></trkpt><trkpt lat="45.93220938993283" lon="11.094822401238714"><ele>190.0</ele><time>2026-04-12T07:10:51Z</time></trkpt><trkpt lat="45.932312789288126" lon="11.094911400404415"><ele>190.0</ele><time>2026-04-12T07:10:52Z</time></trkpt><trkpt lat="45.93242701467759" lon="11.095004595611153"><ele>190.0</ele><time>2026-04-12T07:10:53Z</time></trkpt><trkpt lat="45.93254328567987" lon="11.095094653655492"><ele>190.0</ele><time>2026-04-12T07:10:54Z</time></trkpt><trkpt lat="45.93265645220717" lon="11.095184381824186"><ele>190.0</ele><time>2026-04-12T07:10:55Z</time></trkpt><trkpt lat="45.932767227046654" lon="11.095271128134009"><ele>190.25</ele><time>2026-04-12T07:10:56Z</time></trkpt><trkpt lat="45.932876250702115" lon="11.095355798488555"><ele>190.5</ele><time>2026-04-12T07:10:57Z</time></trkpt><trkpt lat="45.932979617782216" lon="11.095430565277614"><ele>190.75</ele><time>2026-04-12T07:10:58Z</time></trkpt><trkpt lat="45.93307149710565" lon="11.095498789410755"><ele>191.0</ele><time>2026-04-12T07:10:59Z</time></trkpt><trkpt lat="45.93317241001104" lon="11.095567718820503"><ele>191.0</ele><time>2026-04-12T07:11:00Z</time></trkpt><trkpt lat="45.933268104253095" lon="11.095630206441225"><ele>191.0</ele><time>2026-04-12T07:11:01Z</time></trkpt><trkpt lat="45.93335161295208" lon="11.095685728526089"><ele>191.0</ele><time>2026-04-12T07:11:02Z</time></trkpt><trkpt lat="45.93342003342114" lon="11.095763960778802"><ele>191.0</ele><time>2026-04-12T07:11:03Z</time></trkpt><trkpt lat="45.93345036178853" lon="11.09587145447756"><ele>191.0</ele><time>2026-04-12T07:11:04Z</time></trkpt><trkpt lat="45.93345003859942" lon="11.09599377237659"><ele>191.25</ele><time>2026-04-12T07:11:05Z</time></trkpt><trkpt lat="45.9334350781675" lon="11.096125723108083"><ele>191.5</ele><time>2026-04-12T07:11:06Z</time></trkpt><trkpt lat="45.933329836256085" lon="11.096225880730536"><ele>191.75</ele><time>2026-04-12T07:11:07Z</time></trkpt><trkpt lat="45.93326137817149" lon="11.09637342130299"><ele>192.0</ele><time>2026-04-12T07:11:08Z</time></trkpt><trkpt lat="45.933168048214924" lon="11.096503233921931"><ele>192.75</ele><time>2026-04-12T07:11:09Z</time></trkpt><trkpt lat="45.93307777441766" lon="11.096646169060424"><ele>193.5</ele><time>2026-04-12T07:11:10Z</time></trkpt><trkpt lat="45.932989537710064" lon="11.096793114199391"><ele>194.25</ele><time>2026-04-12T07:11:11Z</time></trkpt><trkpt lat="45.93289644854439" lon="11.096943353983105"><ele>195.0</ele><time>2026-04-12T07:11:12Z</time></trkpt><trkpt lat="45.93280685365604" lon="11.09710187412386"><ele>195.0</ele><time>2026-04-12T07:11:13Z</time></trkpt><trkpt lat="45.93271242794753" lon="11.097261026831996"><ele>195.0</ele><time>2026-04-12T07:11:14Z</time></trkpt><trkpt lat="45.93261659513243" lon="11.097421917374632"><ele>195.0</ele><time>2026-04-12T07:11:15Z</time></trkpt><trkpt lat="45.93252037748806" lon="11.09758457234475"><ele>195.0</ele><time>2026-04-12T07:11:16Z</time></trkpt><trkpt lat="45.93242815385097" lon="11.097737461631022"><ele>195.25</ele><time>2026-04-12T07:11:17Z</time></trkpt><trkpt lat="45.93233349265067" lon="11.097897212738966"><ele>195.5</ele><time>2026-04-12T07:11:18Z</time></trkpt><trkpt lat="45.93224358261553" lon="11.098060518218572"><ele>195.75</ele><time>2026-04-12T07:11:18.999Z</time></trkpt><trkpt lat="45.93215425767042" lon="11.098206378271543"><ele>196.0</ele><time>2026-04-12T07:11:19.999Z</time></trkpt><trkpt lat="45.93207587377185" lon="11.098375965554867"><ele>197.25</ele><time>2026-04-12T07:11:20.999Z</time></trkpt><trkpt lat="45.93199834486161" lon="11.098548010447201"><ele>198.5</ele><time>2026-04-12T07:11:21.999Z</time></trkpt><trkpt lat="45.931920476194215" lon="11.098723348719659"><ele>199.75</ele><time>2026-04-12T07:11:22.999Z</time></trkpt><trkpt lat="45.93184457650345" lon="11.09890138784372"><ele>201.0</ele><time>2026-04-12T07:11:23.999Z</time></trkpt><trkpt lat="45.93176739041774" lon="11.09907693620086"><ele>202.0</ele><time>2026-04-12T07:11:24.999Z</time></trkpt><trkpt lat="45.93169545753576" lon="11.099251824642174"><ele>203.0</ele><time>2026-04-12T07:11:25.999Z</time></trkpt><trkpt lat="45.93162592289906" lon="11.099427690439756"><ele>204.0</ele><time>2026-04-12T07:11:26.999Z</time></trkpt><trkpt lat="45.931551884485515" lon="11.099596950277741"><ele>205.0</ele><time>2026-04-12T07:11:27.999Z</time></trkpt><trkpt lat="45.9314792553767" lon="11.09977411158571"><ele>206.25</ele><time>2026-04-12T07:11:28.999Z</time></trkpt><trkpt lat="45.93140620789642" lon="11.099951029686617"><ele>207.5</ele><time>2026-04-12T07:11:29.999Z</time></trkpt><trkpt lat="45.931329434762425" lon="11.100134417935182"><ele>208.75</ele><time>2026-04-12T07:11:30.999Z</time></trkpt><trkpt lat="45.93125450745551" lon="11.100316549832746"><ele>210.0</ele><time>2026-04-12T07:11:31.999Z</time></trkpt><trkpt lat="45.93118551796075" lon="11.100483553719057"><ele>210.0</ele><time>2026-04-12T07:11:32.999Z</time></trkpt><trkpt lat="45.931116633222814" lon="11.10064778452598"><ele>210.0</ele><time>2026-04-12T07:11:33.999Z</time></trkpt><trkpt lat="45.93104826805721" lon="11.100814046955835"><ele>210.0</ele><time>2026-04-12T07:11:34.999Z</time></trkpt><trkpt lat="45.93097246008503" lon="11.10097503084711"><ele>210.0</ele><time>2026-04-12T07:11:35.999Z</time></trkpt><trkpt lat="45.93088985996937" lon="11.101122005846547"><ele>211.25</ele><time>2026-04-12T07:11:36.999Z</time></trkpt><trkpt lat="45.93079332586877" lon="11.101258810067836"><ele>212.5</ele><time>2026-04-12T07:11:37.999Z</time></trkpt><trkpt lat="45.93068129764537" lon="11.101365390812354"><ele>213.75</ele><time>2026-04-12T07:11:38.999Z</time></trkpt><trkpt lat="45.93055890464637" lon="11.101470638169202"><ele>215.0</ele><time>2026-04-12T07:11:39.999Z</time></trkpt><trkpt lat="45.930422239702885" lon="11.101581265224578"><ele>216.33333333333334</ele><time>2026-04-12T07:11:40.999Z</time></trkpt><trkpt lat="45.930279349200525" lon="11.10170941589351"><ele>217.66666666666669</ele><time>2026-04-12T07:11:41.999Z</time></trkpt><trkpt lat="45.930133952383294" lon="11.101823163466479"><ele>219.0</ele><time>2026-04-12T07:11:42.999Z</time></trkpt><trkpt lat="45.93000062304723" lon="11.101934562665853"><ele>220.25</ele><time>2026-04-12T07:11:43.999Z</time></trkpt><trkpt lat="45.929884198173134" lon="11.102037489825548"><ele>221.5</ele><time>2026-04-12T07:11:44.999Z</time></trkpt><trkpt lat="45.929782293066054" lon="11.102164505571173"><ele>222.75</ele><time>2026-04-12T07:11:45.999Z</time></trkpt><trkpt lat="45.929701245434465" lon="11.102328323111237"><ele>224.0</ele><time>2026-04-12T07:11:46.999Z</time></trkpt><trkpt lat="45.92965215280956" lon="11.102515493899132"><ele>224.75</ele><time>2026-04-12T07:11:47.999Z</time></trkpt><trkpt lat="45.92962193607597" lon="11.102728420157694"><ele>225.5</ele><time>2026-04-12T07:11:48.999Z</time></trkpt><trkpt lat="45.92961632279904" lon="11.10294232608778"><ele>226.25</ele><time>2026-04-12T07:11:49.999Z</time></trkpt><trkpt lat="45.92962694639983" lon="11.103153234946676"><ele>227.0</ele><time>2026-04-12T07:11:50.999Z</time></trkpt><trkpt lat="45.92966904573995" lon="11.10334970568329"><ele>227.8</ele><time>2026-04-12T07:11:51.999Z</time></trkpt><trkpt lat="45.92970830256273" lon="11.103508254446211"><ele>228.6</ele><time>2026-04-12T07:11:52.999Z</time></trkpt><trkpt lat="45.9298159339944" lon="11.103586947551822"><ele>229.40000000000003</ele><time>2026-04-12T07:11:53.999Z</time></trkpt><trkpt lat="45.92991582896424" lon="11.103658494377887"><ele>230.20000000000002</ele><time>2026-04-12T07:11:54.999Z</time></trkpt><trkpt lat="45.92998893905931" lon="11.10370995253681"><ele>231.0</ele><time>2026-04-12T07:11:55.999Z</time></trkpt><trkpt lat="45.93004085269707" lon="11.103780154864939"><ele>231.0</ele><time>2026-04-12T07:11:56.999Z</time></trkpt><trkpt lat="45.930050075072664" lon="11.1038771738909"><ele>231.0</ele><time>2026-04-12T07:11:57.999Z</time></trkpt><trkpt lat="45.93000626485522" lon="11.103977589158543"><ele>231.0</ele><time>2026-04-12T07:11:58.999Z</time></trkpt><trkpt lat="45.92992423911345" lon="11.104023580880336"><ele>231.0</ele><time>2026-04-12T07:11:59.999Z</time></trkpt><trkpt lat="45.92968063468085" lon="11.10392065406386"><ele>231.0</ele><time>2026-04-12T07:12:01.999Z</time></trkpt><trkpt lat="45.92954906770269" lon="11.103860356919487"><ele>231.00000000000003</ele><time>2026-04-12T07:12:02.999Z</time></trkpt><trkpt lat="45.92944429340643" lon="11.1038274537009"><ele>231.00000000000003</ele><time>2026-04-12T07:12:03.999Z</time></trkpt><trkpt lat="45.92935190235999" lon="11.103856491551692"><ele>231.0</ele><time>2026-04-12T07:12:04.999Z</time></trkpt><trkpt lat="45.92926809553266" lon="11.103943369870919"><ele>231.0</ele><time>2026-04-12T07:12:05.999Z</time></trkpt><trkpt lat="45.929226734576595" lon="11.104082557976088"><ele>234.5</ele><time>2026-04-12T07:12:06.999Z</time></trkpt><trkpt lat="45.92922521620411" lon="11.104270090010576"><ele>238.0</ele><time>2026-04-12T07:12:07.999Z</time></trkpt><trkpt lat="45.92925274773404" lon="11.104496749311792"><ele>241.5</ele><time>2026-04-12T07:12:08.999Z</time></trkpt><trkpt lat="45.92928950628875" lon="11.104715239651146"><ele>245.0</ele><time>2026-04-12T07:12:09.999Z</time></trkpt><trkpt lat="45.929360407562164" lon="11.10492816787763"><ele>256.0</ele><time>2026-04-12T07:12:10.999Z</time></trkpt><trkpt lat="45.92942205295306" lon="11.105166540943053"><ele>267.0</ele><time>2026-04-12T07:12:11.998Z</time></trkpt><trkpt lat="45.9294121543909" lon="11.105389191583887"><ele>278.0</ele><time>2026-04-12T07:12:12.998Z</time></trkpt><trkpt lat="45.929395851763935" lon="11.105620667291351"><ele>273.75</ele><time>2026-04-12T07:12:13.998Z</time></trkpt><trkpt lat="45.92937449464723" lon="11.105810055674594"><ele>269.5</ele><time>2026-04-12T07:12:14.998Z</time></trkpt><trkpt lat="45.92931843815716" lon="11.105984928718414"><ele>265.25</ele><time>2026-04-12T07:12:15.998Z</time></trkpt><trkpt lat="45.92920632740886" lon="11.10614589176202"><ele>261.0</ele><time>2026-04-12T07:12:16.998Z</time></trkpt><trkpt lat="45.929084789345545" lon="11.10638131401564"><ele>268.3333333333333</ele><time>2026-04-12T07:12:17.998Z</time></trkpt><trkpt lat="45.92897927561157" lon="11.10663253987521"><ele>275.66666666666663</ele><time>2026-04-12T07:12:18.998Z</time></trkpt><trkpt lat="45.92886756144071" lon="11.106899542979138"><ele>283.0</ele><time>2026-04-12T07:12:19.998Z</time></trkpt><trkpt lat="45.928785604098444" lon="11.107138935368054"><ele>283.0</ele><time>2026-04-12T07:12:20.998Z</time></trkpt><trkpt lat="45.9286879323341" lon="11.107291878893038"><ele>283.0</ele><time>2026-04-12T07:12:21.998Z</time></trkpt><trkpt lat="45.928601971620644" lon="11.107466923075126"><ele>283.0</ele><time>2026-04-12T07:12:22.998Z</time></trkpt><trkpt lat="45.92850739154559" lon="11.107630895952187"><ele>283.0</ele><time>2026-04-12T07:12:23.998Z</time></trkpt><trkpt lat="45.928454019325486" lon="11.107815442706151"><ele>292.5</ele><time>2026-04-12T07:12:24.998Z</time></trkpt><trkpt lat="45.928458310272724" lon="11.10800269150843"><ele>302.0</ele><time>2026-04-12T07:12:25.998Z</time></trkpt><trkpt lat="45.92847681988804" lon="11.108173494536846"><ele>311.5</ele><time>2026-04-12T07:12:26.998Z</time></trkpt><trkpt lat="45.92857702049946" lon="11.108319095701313"><ele>321.0</ele><time>2026-04-12T07:12:27.998Z</time></trkpt><trkpt lat="45.92871249242027" lon="11.108467080766644"><ele>328.0</ele><time>2026-04-12T07:12:28.998Z</time></trkpt><trkpt lat="45.92883778826121" lon="11.108635293626909"><ele>335.0</ele><time>2026-04-12T07:12:29.998Z</time></trkpt><trkpt lat="45.92896715052434" lon="11.108816523065293"><ele>342.0</ele><time>2026-04-12T07:12:30.998Z</time></trkpt><trkpt lat="45.92908715630867" lon="11.109031540875486"><ele>332.3333333333333</ele><time>2026-04-12T07:12:31.998Z</time></trkpt><trkpt lat="45.92919861107009" lon="11.10924447286517"><ele>322.66666666666663</ele><time>2026-04-12T07:12:32.998Z</time></trkpt><trkpt lat="45.92929025075727" lon="11.109423418174554"><ele>313.0</ele><time>2026-04-12T07:12:33.998Z</time></trkpt><trkpt lat="45.92937594478389" lon="11.109603833236973"><ele>326.25</ele><time>2026-04-12T07:12:34.998Z</time></trkpt><trkpt lat="45.92945220705187" lon="11.109780785915929"><ele>339.5</ele><time>2026-04-12T07:12:35.998Z</time></trkpt><trkpt lat="45.929516999766534" lon="11.109938602438072"><ele>352.75</ele><time>2026-04-12T07:12:36.998Z</time></trkpt><trkpt lat="45.929575274907904" lon="11.110081152454802"><ele>366.0</ele><time>2026-04-12T07:12:37.998Z</time></trkpt><trkpt lat="45.92962937657599" lon="11.110209154203547"><ele>366.0</ele><time>2026-04-12T07:12:38.998Z</time></trkpt><trkpt lat="45.929685317138365" lon="11.110334558802071"><ele>366.0</ele><time>2026-04-12T07:12:39.998Z</time></trkpt><trkpt lat="45.92973278018675" lon="11.11045507062353"><ele>366.0</ele><time>2026-04-12T07:12:40.998Z</time></trkpt><trkpt lat="45.929764759835855" lon="11.110559623691833"><ele>366.0</ele><time>2026-04-12T07:12:41.998Z</time></trkpt><trkpt lat="45.929742065147856" lon="11.110699251455411"><ele>366.0</ele><time>2026-04-12T07:12:42.998Z</time></trkpt><trkpt lat="45.92969199836687" lon="11.110833999680027"><ele>360.0</ele><time>2026-04-12T07:12:44Z</time></trkpt><trkpt lat="45.929650002896445" lon="11.110981960650903"><ele>354.0</ele><time>2026-04-12T07:12:45Z</time></trkpt><trkpt lat="45.9296242453502" lon="11.111113828599782"><ele>348.0</ele><time>2026-04-12T07:12:46Z</time></trkpt><trkpt lat="45.92964499253183" lon="11.111253522197076"><ele>342.0</ele><time>2026-04-12T07:12:47Z</time></trkpt><trkpt lat="45.92970400704286" lon="11.111392333710445"><ele>336.0</ele><time>2026-04-12T07:12:48Z</time></trkpt><trkpt lat="45.92975113383292" lon="11.1115287665949"><ele>330.6</ele><time>2026-04-12T07:12:49Z</time></trkpt><trkpt lat="45.92980041059612" lon="11.11162858709869"><ele>325.20000000000005</ele><time>2026-04-12T07:12:50Z</time></trkpt><trkpt lat="45.92987883800472" lon="11.11168604490761"><ele>319.79999999999995</ele><time>2026-04-12T07:12:51Z</time></trkpt><trkpt lat="45.929977760954614" lon="11.111708136238649"><ele>314.4</ele><time>2026-04-12T07:12:52Z</time></trkpt><trkpt lat="45.93006729086091" lon="11.111747136207647"><ele>309.0</ele><time>2026-04-12T07:12:53Z</time></trkpt><trkpt lat="45.930132442158126" lon="11.111837642190835"><ele>320.25</ele><time>2026-04-12T07:12:54Z</time></trkpt><trkpt lat="45.93017565670551" lon="11.111977898478061"><ele>331.5</ele><time>2026-04-12T07:12:55Z</time></trkpt><trkpt lat="45.93016089402092" lon="11.112135562577068"><ele>342.75</ele><time>2026-04-12T07:12:56Z</time></trkpt><trkpt lat="45.930154498894744" lon="11.112313465670859"><ele>354.0</ele><time>2026-04-12T07:12:57Z</time></trkpt><trkpt lat="45.93014337462903" lon="11.112498253504034"><ele>354.0</ele><time>2026-04-12T07:12:58Z</time></trkpt><trkpt lat="45.930079902937514" lon="11.112648103811296"><ele>354.0</ele><time>2026-04-12T07:12:59Z</time></trkpt><trkpt lat="45.930032052970034" lon="11.112794953039554"><ele>354.0</ele><time>2026-04-12T07:13:00Z</time></trkpt><trkpt lat="45.929979607821515" lon="11.112924466183284"><ele>354.0</ele><time>2026-04-12T07:13:01Z</time></trkpt><trkpt lat="45.92995165896612" lon="11.113063133749085"><ele>354.0</ele><time>2026-04-12T07:13:02Z</time></trkpt><trkpt lat="45.929964904535076" lon="11.113210658839856"><ele>355.0</ele><time>2026-04-12T07:13:03Z</time></trkpt><trkpt lat="45.93002036155581" lon="11.113361840824265"><ele>356.0</ele><time>2026-04-12T07:13:04Z</time></trkpt><trkpt lat="45.930092684855126" lon="11.113494890567862"><ele>357.0</ele><time>2026-04-12T07:13:05Z</time></trkpt><trkpt lat="45.930111730090545" lon="11.113633034314137"><ele>358.0</ele><time>2026-04-12T07:13:06Z</time></trkpt><trkpt lat="45.93012361448565" lon="11.113769506468579"><ele>359.0</ele><time>2026-04-12T07:13:07Z</time></trkpt><trkpt lat="45.93009990570394" lon="11.113914896052966"><ele>352.0</ele><time>2026-04-12T07:13:08Z</time></trkpt><trkpt lat="45.93001608500467" lon="11.114030346717277"><ele>345.0</ele><time>2026-04-12T07:13:09Z</time></trkpt><trkpt lat="45.92989714221148" lon="11.114113914592327"><ele>338.0</ele><time>2026-04-12T07:13:10Z</time></trkpt><trkpt lat="45.92978369617564" lon="11.11424349626443"><ele>331.0</ele><time>2026-04-12T07:13:11Z</time></trkpt><trkpt lat="45.92969844207518" lon="11.114419443511277"><ele>331.0</ele><time>2026-04-12T07:13:12Z</time></trkpt><trkpt lat="45.929596199171165" lon="11.114581176947889"><ele>331.0</ele><time>2026-04-12T07:13:13Z</time></trkpt><trkpt lat="45.92951024423574" lon="11.114733112234266"><ele>331.0</ele><time>2026-04-12T07:13:14Z</time></trkpt><trkpt lat="45.92942405167965" lon="11.114821977139368"><ele>331.0</ele><time>2026-04-12T07:13:15Z</time></trkpt><trkpt lat="45.92932831079912" lon="11.11486963431006"><ele>331.75</ele><time>2026-04-12T07:13:16Z</time></trkpt><trkpt lat="45.92921804765943" lon="11.114887529708472"><ele>332.5</ele><time>2026-04-12T07:13:17Z</time></trkpt><trkpt lat="45.92910207401169" lon="11.114933723812564"><ele>333.25</ele><time>2026-04-12T07:13:18Z</time></trkpt><trkpt lat="45.92898195714663" lon="11.115009532720084"><ele>334.0</ele><time>2026-04-12T07:13:19Z</time></trkpt><trkpt lat="45.92887603124485" lon="11.115137475944518"><ele>334.0</ele><time>2026-04-12T07:13:20Z</time></trkpt><trkpt lat="45.92877412803018" lon="11.115262937705145"><ele>334.0</ele><time>2026-04-12T07:13:21Z</time></trkpt><trkpt lat="45.92867302440075" lon="11.115378053203493"><ele>334.0</ele><time>2026-04-12T07:13:22Z</time></trkpt><trkpt lat="45.92857757547465" lon="11.115507859220195"><ele>334.0</ele><time>2026-04-12T07:13:23Z</time></trkpt><trkpt lat="45.928499661911566" lon="11.115662816115824"><ele>334.0</ele><time>2026-04-12T07:13:24Z</time></trkpt><trkpt lat="45.92843857092296" lon="11.115837349285583"><ele>334.0</ele><time>2026-04-12T07:13:24.999Z</time></trkpt><trkpt lat="45.928374388028075" lon="11.116004155898384"><ele>334.0</ele><time>2026-04-12T07:13:25.999Z</time></trkpt><trkpt lat="45.928320553464715" lon="11.116163084651745"><ele>334.0</ele><time>2026-04-12T07:13:26.999Z</time></trkpt><trkpt lat="45.92826426829798" lon="11.116321162360132"><ele>334.0</ele><time>2026-04-12T07:13:27.999Z</time></trkpt><trkpt lat="45.928197554048886" lon="11.116472882826768"><ele>334.0</ele><time>2026-04-12T07:13:28.999Z</time></trkpt><trkpt lat="45.92809945293484" lon="11.116587168499024"><ele>334.0</ele><time>2026-04-12T07:13:29.999Z</time></trkpt><trkpt lat="45.92801555937135" lon="11.116696067736775"><ele>334.0</ele><time>2026-04-12T07:13:30.999Z</time></trkpt><trkpt lat="45.927955546233186" lon="11.116823569400461"><ele>339.75</ele><time>2026-04-12T07:13:31.999Z</time></trkpt><trkpt lat="45.92790226127109" lon="11.11698539525595"><ele>345.5</ele><time>2026-04-12T07:13:32.999Z</time></trkpt><trkpt lat="45.927879737487935" lon="11.117164346738523"><ele>351.25</ele><time>2026-04-12T07:13:33.999Z</time></trkpt><trkpt lat="45.927869445044486" lon="11.117341748460147"><ele>357.0</ele><time>2026-04-12T07:13:34.999Z</time></trkpt><trkpt lat="45.92783984049691" lon="11.117506906183065"><ele>359.8</ele><time>2026-04-12T07:13:35.999Z</time></trkpt><trkpt lat="45.927843117421226" lon="11.117677483258369"><ele>362.6</ele><time>2026-04-12T07:13:36.999Z</time></trkpt><trkpt lat="45.92784511988465" lon="11.11782075325443"><ele>365.40000000000003</ele><time>2026-04-12T07:13:37.999Z</time></trkpt><trkpt lat="45.927843597611094" lon="11.117941115012623"><ele>368.20000000000005</ele><time>2026-04-12T07:13:38.999Z</time></trkpt><trkpt lat="45.92783164875097" lon="11.118059869694592"><ele>371.0</ele><time>2026-04-12T07:13:39.999Z</time></trkpt><trkpt lat="45.92778747882092" lon="11.118147534916764"><ele>371.0</ele><time>2026-04-12T07:13:40.999Z</time></trkpt><trkpt lat="45.92769775317987" lon="11.118180782275854"><ele>371.0</ele><time>2026-04-12T07:13:41.999Z</time></trkpt><trkpt lat="45.92758495405703" lon="11.118115798562057"><ele>371.0</ele><time>2026-04-12T07:13:42.999Z</time></trkpt><trkpt lat="45.927470100652485" lon="11.11811562629599"><ele>371.0</ele><time>2026-04-12T07:13:43.999Z</time></trkpt><trkpt lat="45.92736274419727" lon="11.118153422385394"><ele>371.0</ele><time>2026-04-12T07:13:44.999Z</time></trkpt><trkpt lat="45.92725194548642" lon="11.1182732784188"><ele>366.6666666666667</ele><time>2026-04-12T07:13:45.999Z</time></trkpt><trkpt lat="45.92713633024966" lon="11.118458562012668"><ele>362.3333333333333</ele><time>2026-04-12T07:13:46.999Z</time></trkpt><trkpt lat="45.92699824185318" lon="11.118618853689775"><ele>358.0</ele><time>2026-04-12T07:13:47.999Z</time></trkpt><trkpt lat="45.926871818126074" lon="11.1187893041375"><ele>358.0</ele><time>2026-04-12T07:13:48.999Z</time></trkpt><trkpt lat="45.92675053020281" lon="11.118954001759628"><ele>358.0</ele><time>2026-04-12T07:13:49.999Z</time></trkpt><trkpt lat="45.926636990488475" lon="11.119106106422802"><ele>358.0</ele><time>2026-04-12T07:13:50.999Z</time></trkpt><trkpt lat="45.92653290689846" lon="11.11923868666548"><ele>359.0</ele><time>2026-04-12T07:13:51.999Z</time></trkpt><trkpt lat="45.926416993064336" lon="11.11936336391805"><ele>360.0</ele><time>2026-04-12T07:13:52.999Z</time></trkpt><trkpt lat="45.9262767354274" lon="11.119441266336748"><ele>361.0</ele><time>2026-04-12T07:13:53.999Z</time></trkpt><trkpt lat="45.92611819602098" lon="11.11952421758751"><ele>361.0</ele><time>2026-04-12T07:13:54.999Z</time></trkpt><trkpt lat="45.925965309298284" lon="11.119651568067583"><ele>361.0</ele><time>2026-04-12T07:13:55.999Z</time></trkpt><trkpt lat="45.925816950477" lon="11.119766506273022"><ele>361.0</ele><time>2026-04-12T07:13:56.999Z</time></trkpt><trkpt lat="45.92568100737294" lon="11.119885318368206"><ele>362.5</ele><time>2026-04-12T07:13:57.999Z</time></trkpt><trkpt lat="45.92554208798777" lon="11.120002062587421"><ele>364.0</ele><time>2026-04-12T07:13:58.999Z</time></trkpt><trkpt lat="45.925420368959074" lon="11.120108817971461"><ele>365.5</ele><time>2026-04-12T07:13:59.999Z</time></trkpt><trkpt lat="45.925318946824525" lon="11.120217618895195"><ele>367.0</ele><time>2026-04-12T07:14:00.999Z</time></trkpt><trkpt lat="45.925233146302226" lon="11.120338944210795"><ele>367.0</ele><time>2026-04-12T07:14:01.999Z</time></trkpt><trkpt lat="45.92515451594864" lon="11.120469372764493"><ele>367.0</ele><time>2026-04-12T07:14:02.999Z</time></trkpt><trkpt lat="45.92505432222154" lon="11.120561535422471"><ele>367.0</ele><time>2026-04-12T07:14:03.999Z</time></trkpt><trkpt lat="45.92495432458544" lon="11.120645730784391"><ele>367.0</ele><time>2026-04-12T07:14:04.999Z</time></trkpt><trkpt lat="45.924837000913335" lon="11.120743827282611"><ele>366.25</ele><time>2026-04-12T07:14:05.999Z</time></trkpt><trkpt lat="45.92471013595848" lon="11.120808677248082"><ele>365.5</ele><time>2026-04-12T07:14:06.999Z</time></trkpt><trkpt lat="45.9245870898949" lon="11.120879317384784"><ele>364.75</ele><time>2026-04-12T07:14:07.999Z</time></trkpt><trkpt lat="45.92448300222657" lon="11.120956090598433"><ele>364.0</ele><time>2026-04-12T07:14:08.999Z</time></trkpt><trkpt lat="45.92439152282671" lon="11.121066223759197"><ele>364.0</ele><time>2026-04-12T07:14:09.999Z</time></trkpt><trkpt lat="45.92430957762132" lon="11.121214168316602"><ele>364.0</ele><time>2026-04-12T07:14:10.999Z</time></trkpt><trkpt lat="45.92422895546372" lon="11.121366971953659"><ele>364.0</ele><time>2026-04-12T07:14:11.999Z</time></trkpt><trkpt lat="45.924138200236705" lon="11.12150954469781"><ele>364.0</ele><time>2026-04-12T07:14:12.999Z</time></trkpt><trkpt lat="45.92405901539788" lon="11.121645518940928"><ele>362.6</ele><time>2026-04-12T07:14:13.999Z</time></trkpt><trkpt lat="45.92399851528307" lon="11.12176099809201"><ele>361.2</ele><time>2026-04-12T07:14:14.999Z</time></trkpt><trkpt lat="45.92395737631386" lon="11.121879481675379"><ele>359.8</ele><time>2026-04-12T07:14:15.999Z</time></trkpt><trkpt lat="45.92393750292875" lon="11.122023692971483"><ele>358.40000000000003</ele><time>2026-04-12T07:14:16.999Z</time></trkpt><trkpt lat="45.92395073737748" lon="11.122179134428292"><ele>357.0</ele><time>2026-04-12T07:14:17.998Z</time></trkpt><trkpt lat="45.923978043832825" lon="11.122340615689877"><ele>362.20000000000005</ele><time>2026-04-12T07:14:18.998Z</time></trkpt><trkpt lat="45.92401573587268" lon="11.122479454333494"><ele>367.4</ele><time>2026-04-12T07:14:19.998Z</time></trkpt><trkpt lat="45.924051926301" lon="11.122586453476812"><ele>372.6</ele><time>2026-04-12T07:14:20.998Z</time></trkpt><trkpt lat="45.92403883278537" lon="11.122706637567221"><ele>377.79999999999995</ele><time>2026-04-12T07:14:21.998Z</time></trkpt><trkpt lat="45.923989943975755" lon="11.122826117402134"><ele>383.0</ele><time>2026-04-12T07:14:22.998Z</time></trkpt><trkpt lat="45.923911525743925" lon="11.122959186587824"><ele>383.0</ele><time>2026-04-12T07:14:23.998Z</time></trkpt><trkpt lat="45.923830401156586" lon="11.123180250699535"><ele>383.0</ele><time>2026-04-12T07:14:24.998Z</time></trkpt><trkpt lat="45.923754562791956" lon="11.123419857846606"><ele>383.0</ele><time>2026-04-12T07:14:25.998Z</time></trkpt><trkpt lat="45.923707907794814" lon="11.123602648555424"><ele>388.75</ele><time>2026-04-12T07:14:26.998Z</time></trkpt><trkpt lat="45.923665132219206" lon="11.123751440724815"><ele>394.5</ele><time>2026-04-12T07:14:27.998Z</time></trkpt><trkpt lat="45.92361863268279" lon="11.123904001437902"><ele>400.25</ele><time>2026-04-12T07:14:28.998Z</time></trkpt><trkpt lat="45.92355291179755" lon="11.12405196488218"><ele>406.0</ele><time>2026-04-12T07:14:29.998Z</time></trkpt><trkpt lat="45.92345645850372" lon="11.124150651319274"><ele>400.75</ele><time>2026-04-12T07:14:30.998Z</time></trkpt><trkpt lat="45.92334363579072" lon="11.124227218559074"><ele>395.5</ele><time>2026-04-12T07:14:31.998Z</time></trkpt><trkpt lat="45.923246394659145" lon="11.124302601776954"><ele>390.25</ele><time>2026-04-12T07:14:32.998Z</time></trkpt><trkpt lat="45.923165510795904" lon="11.124391581505284"><ele>385.0</ele><time>2026-04-12T07:14:33.998Z</time></trkpt><trkpt lat="45.92309752353145" lon="11.124521301556415"><ele>385.0</ele><time>2026-04-12T07:14:34.998Z</time></trkpt><trkpt lat="45.92304445086491" lon="11.124693331509226"><ele>385.0</ele><time>2026-04-12T07:14:35.998Z</time></trkpt><trkpt lat="45.922995788131196" lon="11.124868962251542"><ele>385.0</ele><time>2026-04-12T07:14:36.998Z</time></trkpt><trkpt lat="45.922962244108014" lon="11.125018568160266"><ele>385.0</ele><time>2026-04-12T07:14:37.998Z</time></trkpt><trkpt lat="45.92293279313582" lon="11.125146176773098"><ele>393.25</ele><time>2026-04-12T07:14:38.998Z</time></trkpt><trkpt lat="45.92291847140817" lon="11.12529127526238"><ele>401.5</ele><time>2026-04-12T07:14:39.998Z</time></trkpt><trkpt lat="45.92293300536468" lon="11.125449422277393"><ele>409.75</ele><time>2026-04-12T07:14:40.998Z</time></trkpt><trkpt lat="45.922981641456246" lon="11.125638299265844"><ele>418.0</ele><time>2026-04-12T07:14:41.998Z</time></trkpt><trkpt lat="45.923022930263706" lon="11.12582790866152"><ele>420.2</ele><time>2026-04-12T07:14:42.998Z</time></trkpt><trkpt lat="45.923070867913246" lon="11.1259901732057"><ele>422.4</ele><time>2026-04-12T07:14:43.998Z</time></trkpt><trkpt lat="45.923134672484906" lon="11.126134305563024"><ele>424.59999999999997</ele><time>2026-04-12T07:14:44.998Z</time></trkpt><trkpt lat="45.92316314275453" lon="11.126275224687838"><ele>426.79999999999995</ele><time>2026-04-12T07:14:45.998Z</time></trkpt><trkpt lat="45.92318194886812" lon="11.126406987970693"><ele>429.0</ele><time>2026-04-12T07:14:46.998Z</time></trkpt><trkpt lat="45.92317466141137" lon="11.12654955938111"><ele>428.5</ele><time>2026-04-12T07:14:47.998Z</time></trkpt><trkpt lat="45.92313797374393" lon="11.126700296158882"><ele>428.0</ele><time>2026-04-12T07:14:49Z</time></trkpt><trkpt lat="45.92309248713091" lon="11.12688065426816"><ele>427.5</ele><time>2026-04-12T07:14:50Z</time></trkpt><trkpt lat="45.92307915974058" lon="11.127075800091438"><ele>427.0</ele><time>2026-04-12T07:14:51Z</time></trkpt><trkpt lat="45.92308149226985" lon="11.127258281020469"><ele>426.0</ele><time>2026-04-12T07:14:52Z</time></trkpt><trkpt lat="45.92309445661959" lon="11.127427127203548"><ele>425.0</ele><time>2026-04-12T07:14:53Z</time></trkpt><trkpt lat="45.92309577546594" lon="11.127585344470182"><ele>424.0</ele><time>2026-04-12T07:14:54Z</time></trkpt><trkpt lat="45.923100556260046" lon="11.12775391871383"><ele>423.0</ele><time>2026-04-12T07:14:55Z</time></trkpt><trkpt lat="45.92311244997338" lon="11.127908233786547"><ele>423.0</ele><time>2026-04-12T07:14:56Z</time></trkpt><trkpt lat="45.92319072405194" lon="11.128006751131863"><ele>423.0</ele><time>2026-04-12T07:14:57Z</time></trkpt><trkpt lat="45.92326190759959" lon="11.128127837523225"><ele>423.0</ele><time>2026-04-12T07:14:58Z</time></trkpt><trkpt lat="45.92334973158546" lon="11.12823878418329"><ele>423.0</ele><time>2026-04-12T07:14:59Z</time></trkpt><trkpt lat="45.923427953739285" lon="11.128359253078068"><ele>423.0</ele><time>2026-04-12T07:15:00Z</time></trkpt><trkpt lat="45.92349868177157" lon="11.128476705358294"><ele>425.0</ele><time>2026-04-12T07:15:01Z</time></trkpt><trkpt lat="45.92348152557891" lon="11.128608986390413"><ele>427.0</ele><time>2026-04-12T07:15:02Z</time></trkpt><trkpt lat="45.923486787308704" lon="11.128741432253255"><ele>428.99999999999994</ele><time>2026-04-12T07:15:03Z</time></trkpt><trkpt lat="45.9235090907313" lon="11.128862175452"><ele>431.0</ele><time>2026-04-12T07:15:04Z</time></trkpt><trkpt lat="45.92355024508786" lon="11.128978127911704"><ele>433.0</ele><time>2026-04-12T07:15:05Z</time></trkpt><trkpt lat="45.92364529044931" lon="11.129060684979466"><ele>443.0</ele><time>2026-04-12T07:15:06Z</time></trkpt><trkpt lat="45.92377146333047" lon="11.129045005554675"><ele>453.0</ele><time>2026-04-12T07:15:07Z</time></trkpt><trkpt lat="45.9238914182362" lon="11.129048501742865"><ele>463.0</ele><time>2026-04-12T07:15:08Z</time></trkpt><trkpt lat="45.924017727892576" lon="11.129029028886407"><ele>473.0</ele><time>2026-04-12T07:15:09Z</time></trkpt><trkpt lat="45.9241393316677" lon="11.129021361036612"><ele>472.25</ele><time>2026-04-12T07:15:10Z</time></trkpt><trkpt lat="45.92426448010804" lon="11.129018526980664"><ele>471.5</ele><time>2026-04-12T07:15:11Z</time></trkpt><trkpt lat="45.92438463643581" lon="11.12907142680765"><ele>470.75</ele><time>2026-04-12T07:15:12Z</time></trkpt><trkpt lat="45.92450144746397" lon="11.129119670701753"><ele>470.0</ele><time>2026-04-12T07:15:13Z</time></trkpt><trkpt lat="45.92462143783378" lon="11.129174064642099"><ele>470.0</ele><time>2026-04-12T07:15:14Z</time></trkpt><trkpt lat="45.924726161471504" lon="11.129222904384685"><ele>470.0</ele><time>2026-04-12T07:15:15Z</time></trkpt><trkpt lat="45.92481618092633" lon="11.129305546929523"><ele>470.0</ele><time>2026-04-12T07:15:16Z</time></trkpt><trkpt lat="45.92489077734568" lon="11.129431740143996"><ele>470.0</ele><time>2026-04-12T07:15:17Z</time></trkpt><trkpt lat="45.92494173845454" lon="11.12956038475245"><ele>470.0</ele><time>2026-04-12T07:15:18Z</time></trkpt><trkpt lat="45.92497828580587" lon="11.129671543942822"><ele>470.0</ele><time>2026-04-12T07:15:19Z</time></trkpt><trkpt lat="45.92502776034194" lon="11.129798316944484"><ele>470.0</ele><time>2026-04-12T07:15:20Z</time></trkpt><trkpt lat="45.92501010708062" lon="11.12996178649739"><ele>470.0</ele><time>2026-04-12T07:15:21Z</time></trkpt><trkpt lat="45.92496106572416" lon="11.130079539609413"><ele>470.0</ele><time>2026-04-12T07:15:22Z</time></trkpt><trkpt lat="45.92488387623229" lon="11.130172870654919"><ele>470.0</ele><time>2026-04-12T07:15:23Z</time></trkpt><trkpt lat="45.92480894229484" lon="11.130243045133632"><ele>463.2</ele><time>2026-04-12T07:15:24Z</time></trkpt><trkpt lat="45.924728592550125" lon="11.130280222347928"><ele>456.4</ele><time>2026-04-12T07:15:25Z</time></trkpt><trkpt lat="45.92464392337549" lon="11.13026182908265"><ele>449.6</ele><time>2026-04-12T07:15:26Z</time></trkpt><trkpt lat="45.92458710244361" lon="11.130180336235009"><ele>442.8</ele><time>2026-04-12T07:15:27Z</time></trkpt><trkpt lat="45.92450452666089" lon="11.130093744508754"><ele>436.0</ele><time>2026-04-12T07:15:28Z</time></trkpt><trkpt lat="45.924346023875174" lon="11.129983403047055"><ele>435.0</ele><time>2026-04-12T07:15:29.999Z</time></trkpt><trkpt lat="45.9241711011381" lon="11.130014570075103"><ele>434.0</ele><time>2026-04-12T07:15:30.999Z</time></trkpt><trkpt lat="45.92405044804664" lon="11.130104329217227"><ele>433.0</ele><time>2026-04-12T07:15:31.999Z</time></trkpt><trkpt lat="45.92394155749652" lon="11.130147739151857"><ele>432.0</ele><time>2026-04-12T07:15:32.999Z</time></trkpt><trkpt lat="45.92383113844639" lon="11.130173535204134"><ele>432.0</ele><time>2026-04-12T07:15:33.999Z</time></trkpt><trkpt lat="45.92370491907457" lon="11.13016306230296"><ele>432.0</ele><time>2026-04-12T07:15:34.999Z</time></trkpt><trkpt lat="45.923549890205955" lon="11.130054608065079"><ele>432.0</ele><time>2026-04-12T07:15:35.999Z</time></trkpt><trkpt lat="45.923342223176576" lon="11.129976652903666"><ele>419.5</ele><time>2026-04-12T07:15:36.999Z</time></trkpt><trkpt lat="45.92309357097773" lon="11.12983538374611"><ele>407.0</ele><time>2026-04-12T07:15:37.999Z</time></trkpt><trkpt lat="45.92282773694393" lon="11.129724419470532"><ele>422.5</ele><time>2026-04-12T07:15:38.999Z</time></trkpt><trkpt lat="45.922543812803326" lon="11.129626152768852"><ele>438.0</ele><time>2026-04-12T07:15:39.999Z</time></trkpt><trkpt lat="45.922296939110865" lon="11.129544742266065"><ele>438.0</ele><time>2026-04-12T07:15:40.999Z</time></trkpt><trkpt lat="45.92208805003147" lon="11.129491960868894"><ele>438.0</ele><time>2026-04-12T07:15:41.999Z</time></trkpt><trkpt lat="45.92194071652574" lon="11.12945187713041"><ele>438.0</ele><time>2026-04-12T07:15:42.999Z</time></trkpt><trkpt lat="45.921846327479" lon="11.129407759881751"><ele>438.0</ele><time>2026-04-12T07:15:43.999Z</time></trkpt><trkpt lat="45.92176779879825" lon="11.129259884230855"><ele>437.99999999999994</ele><time>2026-04-12T07:15:45.999Z</time></trkpt><trkpt lat="45.92180240153956" lon="11.129127708201942"><ele>437.99999999999994</ele><time>2026-04-12T07:15:46.999Z</time></trkpt><trkpt lat="45.92188039769753" lon="11.129046902349177"><ele>438.0</ele><time>2026-04-12T07:15:47.999Z</time></trkpt><trkpt lat="45.92195342379667" lon="11.128922788118011"><ele>438.0</ele><time>2026-04-12T07:15:48.999Z</time></trkpt><trkpt lat="45.922024657362535" lon="11.128802164652102"><ele>433.0</ele><time>2026-04-12T07:15:49.999Z</time></trkpt><trkpt lat="45.9220571329654" lon="11.128680417864407"><ele>427.99999999999994</ele><time>2026-04-12T07:15:50.999Z</time></trkpt><trkpt lat="45.9220762546572" lon="11.128554423370531"><ele>423.0</ele><time>2026-04-12T07:15:51.999Z</time></trkpt><trkpt lat="45.92207477230201" lon="11.128401717812736"><ele>418.0</ele><time>2026-04-12T07:15:52.999Z</time></trkpt><trkpt lat="45.921988929997354" lon="11.128275175367131"><ele>413.0</ele><time>2026-04-12T07:15:53.999Z</time></trkpt><trkpt lat="45.92191209030978" lon="11.128185068515425"><ele>409.79999999999995</ele><time>2026-04-12T07:15:54.999Z</time></trkpt><trkpt lat="45.9218254210657" lon="11.128141705211272"><ele>406.6</ele><time>2026-04-12T07:15:55.999Z</time></trkpt><trkpt lat="45.921733713638965" lon="11.128140019528539"><ele>403.4</ele><time>2026-04-12T07:15:56.999Z</time></trkpt><trkpt lat="45.92164960831594" lon="11.128192160614997"><ele>400.20000000000005</ele><time>2026-04-12T07:15:57.999Z</time></trkpt><trkpt lat="45.92157652180285" lon="11.12828456422426"><ele>397.0</ele><time>2026-04-12T07:15:58.999Z</time></trkpt><trkpt lat="45.921519527374016" lon="11.12846711752148"><ele>415.33333333333337</ele><time>2026-04-12T07:15:59.999Z</time></trkpt><trkpt lat="45.9214280296973" lon="11.128643720379154"><ele>433.66666666666663</ele><time>2026-04-12T07:16:00.999Z</time></trkpt><trkpt lat="45.92131936322101" lon="11.12883039532752"><ele>452.0</ele><time>2026-04-12T07:16:01.999Z</time></trkpt><trkpt lat="45.92114637771435" lon="11.128948849491742"><ele>456.0</ele><time>2026-04-12T07:16:02.999Z</time></trkpt><trkpt lat="45.9209769265091" lon="11.12912002560918"><ele>460.0</ele><time>2026-04-12T07:16:03.999Z</time></trkpt><trkpt lat="45.92082193539672" lon="11.129332185712906"><ele>464.0</ele><time>2026-04-12T07:16:04.999Z</time></trkpt><trkpt lat="45.920692521044664" lon="11.129566058683713"><ele>464.0</ele><time>2026-04-12T07:16:05.999Z</time></trkpt><trkpt lat="45.92060687457745" lon="11.129791829343526"><ele>464.0</ele><time>2026-04-12T07:16:06.999Z</time></trkpt><trkpt lat="45.920543616671736" lon="11.12997544610223"><ele>464.0</ele><time>2026-04-12T07:16:07.999Z</time></trkpt><trkpt lat="45.92046823765677" lon="11.130113145742765"><ele>464.0</ele><time>2026-04-12T07:16:08.999Z</time></trkpt><trkpt lat="45.92037592633302" lon="11.130169081714108"><ele>465.0</ele><time>2026-04-12T07:16:09.999Z</time></trkpt><trkpt lat="45.92025099255174" lon="11.130147405819228"><ele>466.0</ele><time>2026-04-12T07:16:10.999Z</time></trkpt><trkpt lat="45.92011240473914" lon="11.130160071324868"><ele>467.0</ele><time>2026-04-12T07:16:11.999Z</time></trkpt><trkpt lat="45.919976837210825" lon="11.130189733631966"><ele>468.0</ele><time>2026-04-12T07:16:12.999Z</time></trkpt><trkpt lat="45.91986542825279" lon="11.130313143942665"><ele>468.0</ele><time>2026-04-12T07:16:13.999Z</time></trkpt><trkpt lat="45.919730601583815" lon="11.130535567046865"><ele>468.0</ele><time>2026-04-12T07:16:14.999Z</time></trkpt><trkpt lat="45.9195767726678" lon="11.130806234839751"><ele>468.0</ele><time>2026-04-12T07:16:15.999Z</time></trkpt><trkpt lat="45.91939424913425" lon="11.131075678753932"><ele>473.5</ele><time>2026-04-12T07:16:16.999Z</time></trkpt><trkpt lat="45.91920320413739" lon="11.131337103423917"><ele>479.0</ele><time>2026-04-12T07:16:17.999Z</time></trkpt><trkpt lat="45.91905130824759" lon="11.131550314265079"><ele>486.25</ele><time>2026-04-12T07:16:18.999Z</time></trkpt><trkpt lat="45.91894645228341" lon="11.1317403424252"><ele>493.5</ele><time>2026-04-12T07:16:19.999Z</time></trkpt><trkpt lat="45.91885067811333" lon="11.131909368829653"><ele>500.75</ele><time>2026-04-12T07:16:20.999Z</time></trkpt><trkpt lat="45.918786601259704" lon="11.13207031883787"><ele>508.0</ele><time>2026-04-12T07:16:21.998Z</time></trkpt><trkpt lat="45.918753719258" lon="11.132254675160924"><ele>513.0</ele><time>2026-04-12T07:16:22.998Z</time></trkpt><trkpt lat="45.91874352924343" lon="11.132493242967994"><ele>518.0</ele><time>2026-04-12T07:16:23.998Z</time></trkpt><trkpt lat="45.91873808140852" lon="11.132711550115266"><ele>523.0</ele><time>2026-04-12T07:16:24.998Z</time></trkpt><trkpt lat="45.91870269519411" lon="11.13288967585762"><ele>528.0</ele><time>2026-04-12T07:16:25.998Z</time></trkpt><trkpt lat="45.918593877156994" lon="11.133017183372306"><ele>528.0</ele><time>2026-04-12T07:16:26.998Z</time></trkpt><trkpt lat="45.918449982936416" lon="11.133142767056274"><ele>528.0</ele><time>2026-04-12T07:16:27.998Z</time></trkpt><trkpt lat="45.91829254226324" lon="11.13330210310447"><ele>528.0</ele><time>2026-04-12T07:16:28.998Z</time></trkpt><trkpt lat="45.91813616592258" lon="11.133466252878112"><ele>525.75</ele><time>2026-04-12T07:16:29.998Z</time></trkpt><trkpt lat="45.91800404374334" lon="11.133586182018034"><ele>523.5</ele><time>2026-04-12T07:16:30.998Z</time></trkpt><trkpt lat="45.91788164229123" lon="11.13365537326232"><ele>521.25</ele><time>2026-04-12T07:16:31.998Z</time></trkpt><trkpt lat="45.91777833559402" lon="11.13369796120861"><ele>519.0</ele><time>2026-04-12T07:16:32.998Z</time></trkpt><trkpt lat="45.91768948610361" lon="11.133783551018677"><ele>519.0</ele><time>2026-04-12T07:16:33.998Z</time></trkpt><trkpt lat="45.91764204695887" lon="11.13392107907768"><ele>519.0</ele><time>2026-04-12T07:16:34.998Z</time></trkpt><trkpt lat="45.91760657948661" lon="11.134112472025086"><ele>519.0</ele><time>2026-04-12T07:16:35.998Z</time></trkpt><trkpt lat="45.91756829597102" lon="11.134322971500767"><ele>519.0</ele><time>2026-04-12T07:16:36.998Z</time></trkpt><trkpt lat="45.91746340058994" lon="11.1344707067982"><ele>519.6666666666666</ele><time>2026-04-12T07:16:37.998Z</time></trkpt><trkpt lat="45.91732213676115" lon="11.13459076754443"><ele>520.3333333333333</ele><time>2026-04-12T07:16:38.998Z</time></trkpt><trkpt lat="45.91717409462496" lon="11.134742789706921"><ele>521.0</ele><time>2026-04-12T07:16:39.998Z</time></trkpt><trkpt lat="45.917043266490296" lon="11.134837431035164"><ele>525.5</ele><time>2026-04-12T07:16:40.998Z</time></trkpt><trkpt lat="45.9169459570168" lon="11.134920864198579"><ele>530.0</ele><time>2026-04-12T07:16:41.998Z</time></trkpt><trkpt lat="45.916887548703855" lon="11.134976915500461"><ele>534.5</ele><time>2026-04-12T07:16:42.998Z</time></trkpt><trkpt lat="45.916840104589895" lon="11.135047141175674"><ele>539.0</ele><time>2026-04-12T07:16:43.998Z</time></trkpt><trkpt lat="45.91680337238033" lon="11.135138238762611"><ele>543.5</ele><time>2026-04-12T07:16:44.998Z</time></trkpt><trkpt lat="45.91679071969528" lon="11.135255297114451"><ele>548.0</ele><time>2026-04-12T07:16:45.998Z</time></trkpt><trkpt lat="45.91684710776281" lon="11.13536423016681"><ele>548.0</ele><time>2026-04-12T07:16:46.998Z</time></trkpt><trkpt lat="45.91691870607901" lon="11.135426519932372"><ele>548.0</ele><time>2026-04-12T07:16:47.998Z</time></trkpt><trkpt lat="45.91700256498418" lon="11.135439341098476"><ele>548.0</ele><time>2026-04-12T07:16:48.998Z</time></trkpt><trkpt lat="45.91710720982377" lon="11.13537454505897"><ele>548.0</ele><time>2026-04-12T07:16:49.998Z</time></trkpt><trkpt lat="45.91721761379306" lon="11.135238908280602"><ele>548.0</ele><time>2026-04-12T07:16:50.998Z</time></trkpt><trkpt lat="45.9173380059237" lon="11.13508279244191"><ele>548.0</ele><time>2026-04-12T07:16:51.998Z</time></trkpt><trkpt lat="45.91746309300871" lon="11.134946271381487"><ele>548.0</ele><time>2026-04-12T07:16:52.998Z</time></trkpt><trkpt lat="45.91761473635455" lon="11.134855920313338"><ele>548.0</ele><time>2026-04-12T07:16:53.998Z</time></trkpt><trkpt lat="45.917803106962666" lon="11.134763582459259"><ele>546.5</ele><time>2026-04-12T07:16:55Z</time></trkpt><trkpt lat="45.91802338421671" lon="11.134671380288992"><ele>545.0</ele><time>2026-04-12T07:16:56Z</time></trkpt><trkpt lat="45.918261309303084" lon="11.13455465240664"><ele>554.5</ele><time>2026-04-12T07:16:57Z</time></trkpt><trkpt lat="45.91851832851639" lon="11.134444650346364"><ele>564.0</ele><time>2026-04-12T07:16:58Z</time></trkpt><trkpt lat="45.91874665188139" lon="11.134342975010558"><ele>564.0</ele><time>2026-04-12T07:16:59Z</time></trkpt><trkpt lat="45.9189451527156" lon="11.134259827930299"><ele>564.0</ele><time>2026-04-12T07:17:00Z</time></trkpt><trkpt lat="45.91911874221419" lon="11.134179897318548"><ele>564.0</ele><time>2026-04-12T07:17:01Z</time></trkpt><trkpt lat="45.91928039328051" lon="11.13411447457083"><ele>568.25</ele><time>2026-04-12T07:17:02Z</time></trkpt><trkpt lat="45.919420009193985" lon="11.134044049067139"><ele>572.5</ele><time>2026-04-12T07:17:03Z</time></trkpt><trkpt lat="45.91954193052318" lon="11.13394490259257"><ele>576.75</ele><time>2026-04-12T07:17:04Z</time></trkpt><trkpt lat="45.91963703679946" lon="11.133780204561425"><ele>581.0</ele><time>2026-04-12T07:17:05Z</time></trkpt><trkpt lat="45.91970822298008" lon="11.133554189256946"><ele>581.0</ele><time>2026-04-12T07:17:06Z</time></trkpt><trkpt lat="45.91976304648464" lon="11.133334909433907"><ele>581.0</ele><time>2026-04-12T07:17:07Z</time></trkpt><trkpt lat="45.919809558096496" lon="11.133170508932064"><ele>581.0</ele><time>2026-04-12T07:17:08Z</time></trkpt><trkpt lat="45.91984906435697" lon="11.133069075754808"><ele>581.0</ele><time>2026-04-12T07:17:09Z</time></trkpt><trkpt lat="45.91996943651852" lon="11.133014873776343"><ele>581.0</ele><time>2026-04-12T07:17:11Z</time></trkpt><trkpt lat="45.919973229823036" lon="11.133218392524954"><ele>581.0</ele><time>2026-04-12T07:17:13Z</time></trkpt><trkpt lat="45.91990674240493" lon="11.133333802318958"><ele>581.0</ele><time>2026-04-12T07:17:14Z</time></trkpt><trkpt lat="45.91982598588888" lon="11.13354983684188"><ele>581.0</ele><time>2026-04-12T07:17:15Z</time></trkpt><trkpt lat="45.91974878745115" lon="11.13382685493839"><ele>586.5</ele><time>2026-04-12T07:17:16Z</time></trkpt><trkpt lat="45.919686712923415" lon="11.13414044639407"><ele>592.0</ele><time>2026-04-12T07:17:17Z</time></trkpt><trkpt lat="45.91957213480423" lon="11.134437535256316"><ele>592.0</ele><time>2026-04-12T07:17:18Z</time></trkpt><trkpt lat="45.91941876004054" lon="11.134725280587544"><ele>592.0</ele><time>2026-04-12T07:17:19Z</time></trkpt><trkpt lat="45.919236642829844" lon="11.135049016805896"><ele>588.5</ele><time>2026-04-12T07:17:20Z</time></trkpt><trkpt lat="45.91906657243692" lon="11.13539302677262"><ele>585.0</ele><time>2026-04-12T07:17:21Z</time></trkpt><trkpt lat="45.918896717152684" lon="11.13565268381062"><ele>593.0</ele><time>2026-04-12T07:17:22Z</time></trkpt><trkpt lat="45.91876004621475" lon="11.13588383170972"><ele>601.0</ele><time>2026-04-12T07:17:23Z</time></trkpt><trkpt lat="45.9186194902566" lon="11.136077308885207"><ele>609.0</ele><time>2026-04-12T07:17:24Z</time></trkpt><trkpt lat="45.918481068683896" lon="11.136272672901208"><ele>608.3333333333334</ele><time>2026-04-12T07:17:25Z</time></trkpt><trkpt lat="45.91833557012567" lon="11.136418174250007"><ele>607.6666666666667</ele><time>2026-04-12T07:17:26Z</time></trkpt><trkpt lat="45.91820923773346" lon="11.136575230673994"><ele>607.0</ele><time>2026-04-12T07:17:27Z</time></trkpt><trkpt lat="45.91809745955642" lon="11.13676435278244"><ele>607.0</ele><time>2026-04-12T07:17:28Z</time></trkpt><trkpt lat="45.91800787894337" lon="11.136981017554772"><ele>607.0</ele><time>2026-04-12T07:17:29Z</time></trkpt><trkpt lat="45.917906371220226" lon="11.137175914570026"><ele>607.0</ele><time>2026-04-12T07:17:30Z</time></trkpt><trkpt lat="45.917812500218346" lon="11.137368971561607"><ele>606.0</ele><time>2026-04-12T07:17:31Z</time></trkpt><trkpt lat="45.91772308800218" lon="11.137554200120416"><ele>605.0</ele><time>2026-04-12T07:17:32Z</time></trkpt><trkpt lat="45.91763453659559" lon="11.137734741700575"><ele>604.0</ele><time>2026-04-12T07:17:33Z</time></trkpt><trkpt lat="45.917544106004826" lon="11.137913849977092"><ele>604.0</ele><time>2026-04-12T07:17:34Z</time></trkpt><trkpt lat="45.91743456148452" lon="11.138076837650917"><ele>604.0</ele><time>2026-04-12T07:17:34.999Z</time></trkpt><trkpt lat="45.91730436155369" lon="11.138236739869352"><ele>604.0</ele><time>2026-04-12T07:17:35.999Z</time></trkpt><trkpt lat="45.91717132502501" lon="11.138380135562313"><ele>606.0</ele><time>2026-04-12T07:17:36.999Z</time></trkpt><trkpt lat="45.917046364200345" lon="11.138511146011043"><ele>608.0</ele><time>2026-04-12T07:17:37.999Z</time></trkpt><trkpt lat="45.91692227313919" lon="11.138621037953534"><ele>610.0</ele><time>2026-04-12T07:17:38.999Z</time></trkpt><trkpt lat="45.91681262159964" lon="11.138701134805622"><ele>612.0</ele><time>2026-04-12T07:17:39.999Z</time></trkpt><trkpt lat="45.9167150391191" lon="11.138768766831934"><ele>612.0</ele><time>2026-04-12T07:17:40.999Z</time></trkpt><trkpt lat="45.91664078206706" lon="11.13883645972008"><ele>612.0</ele><time>2026-04-12T07:17:41.999Z</time></trkpt><trkpt lat="45.91657001496778" lon="11.138888744035674"><ele>612.0</ele><time>2026-04-12T07:17:42.999Z</time></trkpt><trkpt lat="45.91651302349994" lon="11.138956143345768"><ele>612.0</ele><time>2026-04-12T07:17:43.999Z</time></trkpt><trkpt lat="45.916480011240715" lon="11.13905232516005"><ele>612.0</ele><time>2026-04-12T07:17:44.999Z</time></trkpt><trkpt lat="45.91648447318815" lon="11.139178415206137"><ele>612.0</ele><time>2026-04-12T07:17:45.999Z</time></trkpt><trkpt lat="45.91652994574131" lon="11.139307977595463"><ele>617.5</ele><time>2026-04-12T07:17:46.999Z</time></trkpt><trkpt lat="45.91660778819665" lon="11.139385915172399"><ele>623.0</ele><time>2026-04-12T07:17:47.999Z</time></trkpt><trkpt lat="45.91671128903233" lon="11.139408768731872"><ele>628.5</ele><time>2026-04-12T07:17:48.999Z</time></trkpt><trkpt lat="45.9168391102444" lon="11.139386874531422"><ele>634.0</ele><time>2026-04-12T07:17:49.999Z</time></trkpt><trkpt lat="45.91697087396702" lon="11.139372759510762"><ele>636.75</ele><time>2026-04-12T07:17:50.999Z</time></trkpt><trkpt lat="45.91709819044924" lon="11.139343811060245"><ele>639.5</ele><time>2026-04-12T07:17:51.999Z</time></trkpt><trkpt lat="45.917182679919854" lon="11.139243280922573"><ele>642.25</ele><time>2026-04-12T07:17:52.999Z</time></trkpt><trkpt lat="45.91730491091097" lon="11.139115311171656"><ele>645.0</ele><time>2026-04-12T07:17:53.999Z</time></trkpt><trkpt lat="45.91739530679659" lon="11.139017910596426"><ele>644.25</ele><time>2026-04-12T07:17:54.999Z</time></trkpt><trkpt lat="45.917521502592066" lon="11.138979992912295"><ele>643.5</ele><time>2026-04-12T07:17:55.999Z</time></trkpt><trkpt lat="45.91767476658468" lon="11.138963329581786"><ele>642.75</ele><time>2026-04-12T07:17:56.999Z</time></trkpt><trkpt lat="45.91782420557211" lon="11.138923928893714"><ele>642.0</ele><time>2026-04-12T07:17:57.999Z</time></trkpt><trkpt lat="45.91799171367412" lon="11.13881857977057"><ele>642.0</ele><time>2026-04-12T07:17:58.999Z</time></trkpt><trkpt lat="45.91818715460487" lon="11.138661892967141"><ele>642.0</ele><time>2026-04-12T07:17:59.999Z</time></trkpt><trkpt lat="45.91838478193178" lon="11.13851631953282"><ele>642.0</ele><time>2026-04-12T07:18:00.999Z</time></trkpt><trkpt lat="45.91855890293862" lon="11.138406255006805"><ele>647.5</ele><time>2026-04-12T07:18:01.999Z</time></trkpt><trkpt lat="45.91870210083796" lon="11.138317540717038"><ele>653.0</ele><time>2026-04-12T07:18:02.999Z</time></trkpt><trkpt lat="45.91884102497678" lon="11.13826404622649"><ele>658.5</ele><time>2026-04-12T07:18:03.999Z</time></trkpt><trkpt lat="45.918977434212266" lon="11.138234176286833"><ele>664.0</ele><time>2026-04-12T07:18:04.999Z</time></trkpt><trkpt lat="45.91911716562128" lon="11.13826439038732"><ele>669.75</ele><time>2026-04-12T07:18:05.999Z</time></trkpt><trkpt lat="45.9192874510976" lon="11.138293471894924"><ele>675.5</ele><time>2026-04-12T07:18:06.999Z</time></trkpt><trkpt lat="45.919430978371324" lon="11.138343319346143"><ele>681.25</ele><time>2026-04-12T07:18:07.999Z</time></trkpt><trkpt lat="45.9195417445419" lon="11.13832440564626"><ele>687.0</ele><time>2026-04-12T07:18:08.999Z</time></trkpt><trkpt lat="45.9196515903987" lon="11.138219385005119"><ele>681.0</ele><time>2026-04-12T07:18:09.999Z</time></trkpt><trkpt lat="45.91975799711368" lon="11.1380231065255"><ele>675.0</ele><time>2026-04-12T07:18:10.999Z</time></trkpt><trkpt lat="45.91987138244575" lon="11.137768155643755"><ele>669.0</ele><time>2026-04-12T07:18:11.999Z</time></trkpt><trkpt lat="45.919976079537335" lon="11.137569628615635"><ele>672.6666666666666</ele><time>2026-04-12T07:18:12.999Z</time></trkpt><trkpt lat="45.920074083492615" lon="11.13742652792316"><ele>676.3333333333333</ele><time>2026-04-12T07:18:13.999Z</time></trkpt><trkpt lat="45.92018998473833" lon="11.137315795837642"><ele>680.0</ele><time>2026-04-12T07:18:14.999Z</time></trkpt><trkpt lat="45.92035464573691" lon="11.137179339745186"><ele>680.0</ele><time>2026-04-12T07:18:15.999Z</time></trkpt><trkpt lat="45.92055006303453" lon="11.136988096326986"><ele>680.0</ele><time>2026-04-12T07:18:16.999Z</time></trkpt><trkpt lat="45.920760122338365" lon="11.136767823101826"><ele>680.6666666666666</ele><time>2026-04-12T07:18:17.999Z</time></trkpt><trkpt lat="45.920941028264764" lon="11.136547819394545"><ele>681.3333333333334</ele><time>2026-04-12T07:18:18.999Z</time></trkpt><trkpt lat="45.92106280109825" lon="11.136362279664661"><ele>682.0</ele><time>2026-04-12T07:18:19.999Z</time></trkpt><trkpt lat="45.92117551095741" lon="11.136223859044842"><ele>682.0</ele><time>2026-04-12T07:18:20.999Z</time></trkpt><trkpt lat="45.92127707155769" lon="11.13612269367764"><ele>682.0</ele><time>2026-04-12T07:18:21.999Z</time></trkpt><trkpt lat="45.92137473664861" lon="11.136051013487592"><ele>682.0</ele><time>2026-04-12T07:18:22.999Z</time></trkpt><trkpt lat="45.92149819585423" lon="11.136055209159998"><ele>682.0</ele><time>2026-04-12T07:18:23.999Z</time></trkpt><trkpt lat="45.921677512320436" lon="11.13604315596402"><ele>691.0</ele><time>2026-04-12T07:18:24.999Z</time></trkpt><trkpt lat="45.92191030494978" lon="11.136077520983745"><ele>700.0</ele><time>2026-04-12T07:18:25.999Z</time></trkpt><trkpt lat="45.92213801528556" lon="11.136115156246396"><ele>700.0</ele><time>2026-04-12T07:18:26.998Z</time></trkpt><trkpt lat="45.922322386301644" lon="11.136158669533225"><ele>700.0</ele><time>2026-04-12T07:18:27.998Z</time></trkpt><trkpt lat="45.9224539447971" lon="11.136170891118931"><ele>700.0</ele><time>2026-04-12T07:18:28.998Z</time></trkpt><trkpt lat="45.9225498492417" lon="11.136156555750704"><ele>700.0</ele><time>2026-04-12T07:18:29.998Z</time></trkpt><trkpt lat="45.922627291327245" lon="11.136082465339527"><ele>702.0</ele><time>2026-04-12T07:18:30.998Z</time></trkpt><trkpt lat="45.92268707628797" lon="11.135914708921492"><ele>704.0</ele><time>2026-04-12T07:18:31.998Z</time></trkpt><trkpt lat="45.92271844204562" lon="11.135685393903001"><ele>706.0</ele><time>2026-04-12T07:18:32.998Z</time></trkpt><trkpt lat="45.92274008645852" lon="11.135510794115627"><ele>708.0</ele><time>2026-04-12T07:18:33.998Z</time></trkpt><trkpt lat="45.92278653832711" lon="11.13542973599171"><ele>708.0</ele><time>2026-04-12T07:18:34.998Z</time></trkpt><trkpt lat="45.92286906827064" lon="11.135422901555557"><ele>708.0</ele><time>2026-04-12T07:18:35.998Z</time></trkpt><trkpt lat="45.922951462002786" lon="11.135489313417006"><ele>708.0</ele><time>2026-04-12T07:18:36.998Z</time></trkpt><trkpt lat="45.92297058655918" lon="11.135671594529835"><ele>708.0</ele><time>2026-04-12T07:18:37.998Z</time></trkpt><trkpt lat="45.923026467297476" lon="11.135887140174603"><ele>710.5999999999999</ele><time>2026-04-12T07:18:38.998Z</time></trkpt><trkpt lat="45.923089855759315" lon="11.136063962718904"><ele>713.1999999999999</ele><time>2026-04-12T07:18:39.998Z</time></trkpt><trkpt lat="45.92311735449619" lon="11.136194625981615"><ele>715.8</ele><time>2026-04-12T07:18:40.998Z</time></trkpt><trkpt lat="45.92314517857782" lon="11.13629261278977"><ele>718.4</ele><time>2026-04-12T07:18:41.998Z</time></trkpt><trkpt lat="45.92317730523017" lon="11.136403178712019"><ele>721.0</ele><time>2026-04-12T07:18:42.998Z</time></trkpt><trkpt lat="45.9232079859014" lon="11.136530600874565"><ele>721.8</ele><time>2026-04-12T07:18:43.998Z</time></trkpt><trkpt lat="45.92323760164003" lon="11.136657104278823"><ele>722.5999999999999</ele><time>2026-04-12T07:18:44.998Z</time></trkpt><trkpt lat="45.92323891326186" lon="11.136788987964946"><ele>723.4</ele><time>2026-04-12T07:18:45.998Z</time></trkpt><trkpt lat="45.923188960468956" lon="11.136898930671213"><ele>724.2</ele><time>2026-04-12T07:18:46.998Z</time></trkpt><trkpt lat="45.92310128499274" lon="11.136972015663938"><ele>725.0</ele><time>2026-04-12T07:18:47.998Z</time></trkpt><trkpt lat="45.92298877876302" lon="11.136971064667096"><ele>725.0</ele><time>2026-04-12T07:18:48.998Z</time></trkpt><trkpt lat="45.92288677085361" lon="11.137010933025646"><ele>725.0</ele><time>2026-04-12T07:18:49.998Z</time></trkpt><trkpt lat="45.922778472716175" lon="11.137054235645245"><ele>725.0</ele><time>2026-04-12T07:18:50.998Z</time></trkpt><trkpt lat="45.92266515025997" lon="11.137103031715652"><ele>725.0</ele><time>2026-04-12T07:18:51.998Z</time></trkpt><trkpt lat="45.92255426965017" lon="11.137144211437995"><ele>723.2</ele><time>2026-04-12T07:18:52.998Z</time></trkpt><trkpt lat="45.92245579387364" lon="11.137181949601228"><ele>721.4</ele><time>2026-04-12T07:18:53.998Z</time></trkpt><trkpt lat="45.92236495310046" lon="11.137216698816054"><ele>719.5999999999999</ele><time>2026-04-12T07:18:54.998Z</time></trkpt><trkpt lat="45.92226827052566" lon="11.137246401012257"><ele>717.8</ele><time>2026-04-12T07:18:55.998Z</time></trkpt><trkpt lat="45.922172510547725" lon="11.137291627818078"><ele>716.0</ele><time>2026-04-12T07:18:56.998Z</time></trkpt><trkpt lat="45.92208789203185" lon="11.137336897742827"><ele>718.5</ele><time>2026-04-12T07:18:57.998Z</time></trkpt><trkpt lat="45.92200884180176" lon="11.137420166132499"><ele>721.0</ele><time>2026-04-12T07:18:58.998Z</time></trkpt><trkpt lat="45.921926928124996" lon="11.137536574118133"><ele>723.5</ele><time>2026-04-12T07:18:59.998Z</time></trkpt><trkpt lat="45.92181969809838" lon="11.137699566490689"><ele>726.0</ele><time>2026-04-12T07:19:01Z</time></trkpt><trkpt lat="45.921721836533735" lon="11.137877349718943"><ele>726.0</ele><time>2026-04-12T07:19:02Z</time></trkpt><trkpt lat="45.92164157515951" lon="11.13802238505675"><ele>726.0</ele><time>2026-04-12T07:19:03Z</time></trkpt><trkpt lat="45.92157270794334" lon="11.13814662173478"><ele>726.0</ele><time>2026-04-12T07:19:04Z</time></trkpt><trkpt lat="45.92149479814265" lon="11.138276085485344"><ele>726.0</ele><time>2026-04-12T07:19:05Z</time></trkpt><trkpt lat="45.921409799139575" lon="11.13841564552595"><ele>730.0</ele><time>2026-04-12T07:19:06Z</time></trkpt><trkpt lat="45.92133270112765" lon="11.138562526500905"><ele>734.0</ele><time>2026-04-12T07:19:07Z</time></trkpt><trkpt lat="45.92125503482688" lon="11.138702791569136"><ele>738.0</ele><time>2026-04-12T07:19:08Z</time></trkpt><trkpt lat="45.92117691980953" lon="11.138852226810714"><ele>742.0</ele><time>2026-04-12T07:19:09Z</time></trkpt><trkpt lat="45.92109410369657" lon="11.138996789750474"><ele>741.25</ele><time>2026-04-12T07:19:10Z</time></trkpt><trkpt lat="45.92100726038452" lon="11.139143025880442"><ele>740.5</ele><time>2026-04-12T07:19:11Z</time></trkpt><trkpt lat="45.920949627721974" lon="11.139318102403914"><ele>739.75</ele><time>2026-04-12T07:19:12Z</time></trkpt><trkpt lat="45.920870202183366" lon="11.139484032593435"><ele>739.0</ele><time>2026-04-12T07:19:13Z</time></trkpt><trkpt lat="45.920785578076135" lon="11.139654412096638"><ele>739.0</ele><time>2026-04-12T07:19:14Z</time></trkpt><trkpt lat="45.920696934665756" lon="11.139819006165272"><ele>739.0</ele><time>2026-04-12T07:19:15Z</time></trkpt><trkpt lat="45.920594089585535" lon="11.139975324782375"><ele>739.0</ele><time>2026-04-12T07:19:16Z</time></trkpt><trkpt lat="45.92049116619813" lon="11.14011177481688"><ele>739.0</ele><time>2026-04-12T07:19:17Z</time></trkpt><trkpt lat="45.920389662624856" lon="11.140251144784441"><ele>743.25</ele><time>2026-04-12T07:19:18Z</time></trkpt><trkpt lat="45.92030082350889" lon="11.140392135024948"><ele>747.5</ele><time>2026-04-12T07:19:19Z</time></trkpt><trkpt lat="45.920210381398505" lon="11.140529655725938"><ele>751.75</ele><time>2026-04-12T07:19:20Z</time></trkpt><trkpt lat="45.92013132097161" lon="11.14065419241108"><ele>756.0</ele><time>2026-04-12T07:19:21Z</time></trkpt><trkpt lat="45.92006687237305" lon="11.140780216681765"><ele>756.25</ele><time>2026-04-12T07:19:22Z</time></trkpt><trkpt lat="45.92001439816805" lon="11.140925470736189"><ele>756.5</ele><time>2026-04-12T07:19:23Z</time></trkpt><trkpt lat="45.91997744667319" lon="11.14108536876608"><ele>756.75</ele><time>2026-04-12T07:19:24Z</time></trkpt><trkpt lat="45.91994765955552" lon="11.141255549792957"><ele>757.0</ele><time>2026-04-12T07:19:25Z</time></trkpt><trkpt lat="45.91990953736395" lon="11.141428094725502"><ele>761.75</ele><time>2026-04-12T07:19:26Z</time></trkpt><trkpt lat="45.91985796895344" lon="11.141595717252072"><ele>766.5</ele><time>2026-04-12T07:19:27Z</time></trkpt><trkpt lat="45.91976347200031" lon="11.141739192602227"><ele>771.25</ele><time>2026-04-12T07:19:28Z</time></trkpt><trkpt lat="45.91962301014621" lon="11.141821401712738"><ele>776.0</ele><time>2026-04-12T07:19:29Z</time></trkpt><trkpt lat="45.91948944542979" lon="11.14193800895176"><ele>776.0</ele><time>2026-04-12T07:19:30Z</time></trkpt><trkpt lat="45.91936434582169" lon="11.142026428474598"><ele>776.0</ele><time>2026-04-12T07:19:31Z</time></trkpt><trkpt lat="45.91927247835418" lon="11.142124054970363"><ele>776.0</ele><time>2026-04-12T07:19:32Z</time></trkpt><trkpt lat="45.91920022923369" lon="11.14223963039024"><ele>776.0</ele><time>2026-04-12T07:19:33Z</time></trkpt><trkpt lat="45.919131347381196" lon="11.142363424441491"><ele>776.0</ele><time>2026-04-12T07:19:34Z</time></trkpt><trkpt lat="45.919071078776796" lon="11.142497395011649"><ele>776.0</ele><time>2026-04-12T07:19:35Z</time></trkpt><trkpt lat="45.91900925372026" lon="11.142635862326811"><ele>776.0</ele><time>2026-04-12T07:19:36Z</time></trkpt><trkpt lat="45.918939543551524" lon="11.142778369610475"><ele>776.0</ele><time>2026-04-12T07:19:37Z</time></trkpt><trkpt lat="45.91886008191833" lon="11.142915363801553"><ele>776.0</ele><time>2026-04-12T07:19:38Z</time></trkpt><trkpt lat="45.91875444598849" lon="11.14302846230155"><ele>776.0</ele><time>2026-04-12T07:19:39Z</time></trkpt><trkpt lat="45.91864576974994" lon="11.143105911992732"><ele>776.0</ele><time>2026-04-12T07:19:40Z</time></trkpt><trkpt lat="45.91855668803814" lon="11.143187346616376"><ele>776.0</ele><time>2026-04-12T07:19:40.999Z</time></trkpt><trkpt lat="45.918479589017046" lon="11.143258155201663"><ele>776.6666666666667</ele><time>2026-04-12T07:19:41.999Z</time></trkpt><trkpt lat="45.91841701724117" lon="11.14331712900436"><ele>777.3333333333334</ele><time>2026-04-12T07:19:42.999Z</time></trkpt><trkpt lat="45.91833722591629" lon="11.143439567862183"><ele>778.0</ele><time>2026-04-12T07:19:44.999Z</time></trkpt><trkpt lat="45.91832053035856" lon="11.14354186728987"><ele>778.6666666666667</ele><time>2026-04-12T07:19:45.999Z</time></trkpt><trkpt lat="45.918346906080956" lon="11.143656114551089"><ele>779.3333333333334</ele><time>2026-04-12T07:19:46.999Z</time></trkpt><trkpt lat="45.91839912672719" lon="11.143747502683684"><ele>780.0</ele><time>2026-04-12T07:19:47.999Z</time></trkpt><trkpt lat="45.9184744095104" lon="11.143791385398531"><ele>784.5</ele><time>2026-04-12T07:19:48.999Z</time></trkpt><trkpt lat="45.918568264151105" lon="11.143758495456687"><ele>789.0</ele><time>2026-04-12T07:19:49.999Z</time></trkpt><trkpt lat="45.91865282100228" lon="11.143668586745788"><ele>793.5</ele><time>2026-04-12T07:19:50.999Z</time></trkpt><trkpt lat="45.91874235750419" lon="11.143528678518733"><ele>798.0</ele><time>2026-04-12T07:19:51.999Z</time></trkpt><trkpt lat="45.91884589822448" lon="11.14340150834824"><ele>798.0</ele><time>2026-04-12T07:19:52.999Z</time></trkpt><trkpt lat="45.918977563867344" lon="11.143335106770563"><ele>798.0</ele><time>2026-04-12T07:19:53.999Z</time></trkpt><trkpt lat="45.91909947013753" lon="11.14325253932672"><ele>798.0</ele><time>2026-04-12T07:19:54.999Z</time></trkpt><trkpt lat="45.91920064690427" lon="11.143159027560365"><ele>798.0</ele><time>2026-04-12T07:19:55.999Z</time></trkpt><trkpt lat="45.9193000412775" lon="11.143090401156835"><ele>796.0</ele><time>2026-04-12T07:19:56.999Z</time></trkpt><trkpt lat="45.919406305152535" lon="11.143024012008851"><ele>794.0</ele><time>2026-04-12T07:19:57.999Z</time></trkpt><trkpt lat="45.91952461888886" lon="11.142995631627143"><ele>792.0</ele><time>2026-04-12T07:19:58.999Z</time></trkpt><trkpt lat="45.91965830193704" lon="11.142953806447604"><ele>790.0</ele><time>2026-04-12T07:19:59.999Z</time></trkpt><trkpt lat="45.91979596059948" lon="11.142897304560051"><ele>790.0</ele><time>2026-04-12T07:20:00.999Z</time></trkpt><trkpt lat="45.919947574855556" lon="11.14285755890959"><ele>790.0</ele><time>2026-04-12T07:20:01.999Z</time></trkpt><trkpt lat="45.92010050356431" lon="11.142819953018417"><ele>790.0</ele><time>2026-04-12T07:20:02.999Z</time></trkpt><trkpt lat="45.920254548538786" lon="11.142770502800248"><ele>794.0</ele><time>2026-04-12T07:20:03.999Z</time></trkpt><trkpt lat="45.920397031903605" lon="11.142728396278361"><ele>798.0</ele><time>2026-04-12T07:20:04.999Z</time></trkpt><trkpt lat="45.92051803069455" lon="11.142670022329131"><ele>802.0</ele><time>2026-04-12T07:20:05.999Z</time></trkpt><trkpt lat="45.92062567221387" lon="11.142605940637218"><ele>806.0</ele><time>2026-04-12T07:20:06.999Z</time></trkpt><trkpt lat="45.920716608115676" lon="11.142541159415101"><ele>806.0</ele><time>2026-04-12T07:20:07.999Z</time></trkpt><trkpt lat="45.92081368132864" lon="11.142478871848748"><ele>806.0</ele><time>2026-04-12T07:20:08.999Z</time></trkpt><trkpt lat="45.920902625770594" lon="11.14242213091186"><ele>806.0</ele><time>2026-04-12T07:20:09.999Z</time></trkpt><trkpt lat="45.92097190841873" lon="11.142377157481336"><ele>806.0</ele><time>2026-04-12T07:20:10.999Z</time></trkpt><trkpt lat="45.9210823957302" lon="11.142335631718922"><ele>806.0</ele><time>2026-04-12T07:20:12.999Z</time></trkpt><trkpt lat="45.9211831083953" lon="11.142431652621227"><ele>806.0</ele><time>2026-04-12T07:20:14.999Z</time></trkpt><trkpt lat="45.921203822788925" lon="11.142540490961762"><ele>806.0</ele><time>2026-04-12T07:20:15.999Z</time></trkpt><trkpt lat="45.92116971568956" lon="11.142648919512887"><ele>806.0</ele><time>2026-04-12T07:20:16.999Z</time></trkpt><trkpt lat="45.921077459184545" lon="11.142698232584548"><ele>806.0</ele><time>2026-04-12T07:20:17.999Z</time></trkpt><trkpt lat="45.92097840717232" lon="11.142727203557108"><ele>806.0</ele><time>2026-04-12T07:20:18.999Z</time></trkpt><trkpt lat="45.92088264504676" lon="11.142784366203157"><ele>806.0</ele><time>2026-04-12T07:20:19.999Z</time></trkpt><trkpt lat="45.92077422121196" lon="11.142817333549731"><ele>806.0</ele><time>2026-04-12T07:20:20.999Z</time></trkpt><trkpt lat="45.92066538409181" lon="11.142866438827324"><ele>806.0</ele><time>2026-04-12T07:20:21.999Z</time></trkpt><trkpt lat="45.920554294049936" lon="11.142940247300327"><ele>806.0</ele><time>2026-04-12T07:20:22.999Z</time></trkpt><trkpt lat="45.9204454130695" lon="11.143060321898501"><ele>806.0</ele><time>2026-04-12T07:20:23.999Z</time></trkpt><trkpt lat="45.9203359892976" lon="11.143209928245103"><ele>806.0</ele><time>2026-04-12T07:20:24.999Z</time></trkpt><trkpt lat="45.92022667442041" lon="11.143317982981694"><ele>806.0</ele><time>2026-04-12T07:20:25.999Z</time></trkpt><trkpt lat="45.92013376663872" lon="11.143417387387474"><ele>806.0</ele><time>2026-04-12T07:20:26.999Z</time></trkpt><trkpt lat="45.92003957551079" lon="11.143519895435519"><ele>807.5</ele><time>2026-04-12T07:20:27.999Z</time></trkpt><trkpt lat="45.91994491273945" lon="11.143631301627948"><ele>809.0</ele><time>2026-04-12T07:20:28.999Z</time></trkpt><trkpt lat="45.919855302968585" lon="11.14374375763778"><ele>810.5</ele><time>2026-04-12T07:20:29.999Z</time></trkpt><trkpt lat="45.91977103678188" lon="11.143882881986857"><ele>812.0</ele><time>2026-04-12T07:20:30.999Z</time></trkpt><trkpt lat="45.9197010814969" lon="11.144070580544414"><ele>817.5</ele><time>2026-04-12T07:20:31.999Z</time></trkpt><trkpt lat="45.91963515423885" lon="11.144277060011122"><ele>823.0</ele><time>2026-04-12T07:20:32.999Z</time></trkpt><trkpt lat="45.91956912082011" lon="11.144475948564624"><ele>828.5</ele><time>2026-04-12T07:20:33.998Z</time></trkpt><trkpt lat="45.919508493028495" lon="11.144640792045001"><ele>834.0</ele><time>2026-04-12T07:20:34.998Z</time></trkpt><trkpt lat="45.91945300398894" lon="11.144775004725943"><ele>834.0</ele><time>2026-04-12T07:20:35.998Z</time></trkpt><trkpt lat="45.91936753931448" lon="11.14486881033289"><ele>834.0</ele><time>2026-04-12T07:20:36.998Z</time></trkpt><trkpt lat="45.91928495941241" lon="11.144978878238582"><ele>834.0</ele><time>2026-04-12T07:20:37.998Z</time></trkpt><trkpt lat="45.91919654673329" lon="11.14506862944316"><ele>834.0</ele><time>2026-04-12T07:20:38.998Z</time></trkpt><trkpt lat="45.919112090993416" lon="11.145182479015846"><ele>834.0</ele><time>2026-04-12T07:20:39.998Z</time></trkpt><trkpt lat="45.91902968139007" lon="11.145307624721674"><ele>832.5</ele><time>2026-04-12T07:20:40.998Z</time></trkpt><trkpt lat="45.91897739681725" lon="11.145455472572557"><ele>831.0</ele><time>2026-04-12T07:20:41.998Z</time></trkpt><trkpt lat="45.91893453087048" lon="11.145609410542894"><ele>829.5</ele><time>2026-04-12T07:20:42.998Z</time></trkpt><trkpt lat="45.91891416476701" lon="11.145774269169584"><ele>828.0</ele><time>2026-04-12T07:20:43.998Z</time></trkpt><trkpt lat="45.918885029410404" lon="11.145926931736152"><ele>831.0</ele><time>2026-04-12T07:20:44.998Z</time></trkpt><trkpt lat="45.918834687708724" lon="11.146051967773564"><ele>834.0</ele><time>2026-04-12T07:20:45.998Z</time></trkpt><trkpt lat="45.918746650261575" lon="11.14613943899829"><ele>837.0</ele><time>2026-04-12T07:20:46.998Z</time></trkpt><trkpt lat="45.91862853688803" lon="11.146152614701997"><ele>840.0</ele><time>2026-04-12T07:20:47.998Z</time></trkpt><trkpt lat="45.91852313499832" lon="11.14618283619575"><ele>843.0</ele><time>2026-04-12T07:20:48.998Z</time></trkpt><trkpt lat="45.91842919141346" lon="11.146174357449862"><ele>846.25</ele><time>2026-04-12T07:20:49.998Z</time></trkpt><trkpt lat="45.9183509761451" lon="11.14620652369012"><ele>849.5</ele><time>2026-04-12T07:20:50.998Z</time></trkpt><trkpt lat="45.918262581209405" lon="11.146302788754195"><ele>852.75</ele><time>2026-04-12T07:20:51.998Z</time></trkpt><trkpt lat="45.9181686131562" lon="11.146488854818369"><ele>856.0</ele><time>2026-04-12T07:20:52.998Z</time></trkpt><trkpt lat="45.91801423350733" lon="11.146673739163399"><ele>856.0</ele><time>2026-04-12T07:20:53.998Z</time></trkpt><trkpt lat="45.917888648006965" lon="11.14691079164477"><ele>856.0</ele><time>2026-04-12T07:20:54.998Z</time></trkpt><trkpt lat="45.917736217160446" lon="11.147117794692898"><ele>856.0</ele><time>2026-04-12T07:20:55.998Z</time></trkpt><trkpt lat="45.91753878292278" lon="11.147249413368707"><ele>866.0</ele><time>2026-04-12T07:20:56.998Z</time></trkpt><trkpt lat="45.91732101284901" lon="11.147378275974988"><ele>876.0</ele><time>2026-04-12T07:20:57.998Z</time></trkpt><trkpt lat="45.917084593252184" lon="11.147527697930546"><ele>876.0</ele><time>2026-04-12T07:20:58.998Z</time></trkpt><trkpt lat="45.9168430302027" lon="11.147662078666077"><ele>876.0</ele><time>2026-04-12T07:20:59.998Z</time></trkpt><trkpt lat="45.91662110219469" lon="11.14778984368598"><ele>874.0</ele><time>2026-04-12T07:21:00.998Z</time></trkpt><trkpt lat="45.91643788095468" lon="11.147906079865459"><ele>872.0</ele><time>2026-04-12T07:21:01.998Z</time></trkpt><trkpt lat="45.91627164404591" lon="11.148006510580446"><ele>870.0</ele><time>2026-04-12T07:21:02.998Z</time></trkpt><trkpt lat="45.91611962484142" lon="11.148100692876646"><ele>870.0</ele><time>2026-04-12T07:21:03.998Z</time></trkpt><trkpt lat="45.915964421440506" lon="11.14818574851658"><ele>870.0</ele><time>2026-04-12T07:21:04.998Z</time></trkpt><trkpt lat="45.915802974643555" lon="11.14821932068971"><ele>870.0</ele><time>2026-04-12T07:21:05.998Z</time></trkpt><trkpt lat="45.91564321154753" lon="11.148250063167373"><ele>875.5</ele><time>2026-04-12T07:21:07Z</time></trkpt><trkpt lat="45.91549630745394" lon="11.148273151517643"><ele>881.0</ele><time>2026-04-12T07:21:08Z</time></trkpt><trkpt lat="45.91535962490721" lon="11.148310911991665"><ele>886.5</ele><time>2026-04-12T07:21:09Z</time></trkpt><trkpt lat="45.91521715609549" lon="11.14831227685985"><ele>892.0</ele><time>2026-04-12T07:21:10Z</time></trkpt><trkpt lat="45.91511549981235" lon="11.148275668808765"><ele>887.8</ele><time>2026-04-12T07:21:11Z</time></trkpt><trkpt lat="45.91501029347161" lon="11.148202870151417"><ele>883.6</ele><time>2026-04-12T07:21:12Z</time></trkpt><trkpt lat="45.91490375553254" lon="11.14812398736766"><ele>879.3999999999999</ele><time>2026-04-12T07:21:13Z</time></trkpt><trkpt lat="45.91480982450508" lon="11.148064447933873"><ele>875.1999999999999</ele><time>2026-04-12T07:21:14Z</time></trkpt><trkpt lat="45.91473502957946" lon="11.148024317663193"><ele>871.0</ele><time>2026-04-12T07:21:15Z</time></trkpt><trkpt lat="45.91465166770778" lon="11.148007111493776"><ele>871.0</ele><time>2026-04-12T07:21:16Z</time></trkpt><trkpt lat="45.914557640925786" lon="11.148028669529083"><ele>870.9999999999999</ele><time>2026-04-12T07:21:17Z</time></trkpt><trkpt lat="45.91446377751325" lon="11.14807909373114"><ele>870.9999999999999</ele><time>2026-04-12T07:21:18Z</time></trkpt><trkpt lat="45.914418272063486" lon="11.148210606997576"><ele>871.0</ele><time>2026-04-12T07:21:19Z</time></trkpt><trkpt lat="45.91440417992351" lon="11.148337939815827"><ele>871.0</ele><time>2026-04-12T07:21:20Z</time></trkpt><trkpt lat="45.91441530047867" lon="11.148468774526707"><ele>875.75</ele><time>2026-04-12T07:21:21Z</time></trkpt><trkpt lat="45.91448961880859" lon="11.148609030905419"><ele>880.5</ele><time>2026-04-12T07:21:22Z</time></trkpt><trkpt lat="45.9146312871202" lon="11.14870007056512"><ele>885.25</ele><time>2026-04-12T07:21:23Z</time></trkpt><trkpt lat="45.91479934082207" lon="11.14869436647902"><ele>890.0</ele><time>2026-04-12T07:21:24Z</time></trkpt><trkpt lat="45.91500784964345" lon="11.148699906002177"><ele>891.0</ele><time>2026-04-12T07:21:25Z</time></trkpt><trkpt lat="45.91524689768113" lon="11.14870119322306"><ele>892.0</ele><time>2026-04-12T07:21:26Z</time></trkpt><trkpt lat="45.9155126436986" lon="11.14870262420738"><ele>892.0</ele><time>2026-04-12T07:21:27Z</time></trkpt><trkpt lat="45.91580790310928" lon="11.14868751378238"><ele>892.0</ele><time>2026-04-12T07:21:28Z</time></trkpt><trkpt lat="45.9161202154987" lon="11.148701421450392"><ele>896.5</ele><time>2026-04-12T07:21:29Z</time></trkpt><trkpt lat="45.916371274550805" lon="11.148695205592539"><ele>901.0</ele><time>2026-04-12T07:21:30Z</time></trkpt><trkpt lat="45.91659021153798" lon="11.148659988826479"><ele>903.6666666666666</ele><time>2026-04-12T07:21:31Z</time></trkpt><trkpt lat="45.916777733145636" lon="11.148585875219183"><ele>906.3333333333333</ele><time>2026-04-12T07:21:32Z</time></trkpt><trkpt lat="45.91693841946334" lon="11.148513273640845"><ele>909.0</ele><time>2026-04-12T07:21:33Z</time></trkpt><trkpt lat="45.91710207465444" lon="11.148561658441558"><ele>909.0</ele><time>2026-04-12T07:21:34Z</time></trkpt><trkpt lat="45.91730655772144" lon="11.148615130813388"><ele>909.0</ele><time>2026-04-12T07:21:35Z</time></trkpt><trkpt lat="45.91751118120484" lon="11.14866817694685"><ele>909.0</ele><time>2026-04-12T07:21:36Z</time></trkpt><trkpt lat="45.91768086371839" lon="11.148722473292464"><ele>913.3333333333333</ele><time>2026-04-12T07:21:37Z</time></trkpt><trkpt lat="45.91782987551108" lon="11.148715086630373"><ele>917.6666666666666</ele><time>2026-04-12T07:21:38Z</time></trkpt><trkpt lat="45.91798466901638" lon="11.14863011987877"><ele>922.0</ele><time>2026-04-12T07:21:39Z</time></trkpt><trkpt lat="45.91815792223051" lon="11.148489316940376"><ele>922.0</ele><time>2026-04-12T07:21:40Z</time></trkpt><trkpt lat="45.918317813386" lon="11.148358396705476"><ele>922.0</ele><time>2026-04-12T07:21:41Z</time></trkpt><trkpt lat="45.918449527174516" lon="11.148284431466884"><ele>922.0</ele><time>2026-04-12T07:21:42Z</time></trkpt><trkpt lat="45.91855036647074" lon="11.148262974506652"><ele>922.0</ele><time>2026-04-12T07:21:43Z</time></trkpt><trkpt lat="45.91864333097772" lon="11.148288062676762"><ele>922.0</ele><time>2026-04-12T07:21:44Z</time></trkpt><trkpt lat="45.91868364792533" lon="11.148370215692246"><ele>922.0</ele><time>2026-04-12T07:21:45Z</time></trkpt><trkpt lat="45.91867194953066" lon="11.148497685433021"><ele>922.0</ele><time>2026-04-12T07:21:46Z</time></trkpt><trkpt lat="45.91861608062734" lon="11.148622004508606"><ele>922.0</ele><time>2026-04-12T07:21:47Z</time></trkpt><trkpt lat="45.918510798613184" lon="11.148676500046339"><ele>922.0</ele><time>2026-04-12T07:21:47.999Z</time></trkpt><trkpt lat="45.91837540560108" lon="11.148709216725065"><ele>922.0</ele><time>2026-04-12T07:21:48.999Z</time></trkpt><trkpt lat="45.91821962390008" lon="11.148794971672892"><ele>922.0</ele><time>2026-04-12T07:21:49.999Z</time></trkpt><trkpt lat="45.91808009668743" lon="11.14893313964782"><ele>922.0</ele><time>2026-04-12T07:21:50.999Z</time></trkpt><trkpt lat="45.91795998132576" lon="11.149132279416829"><ele>926.0</ele><time>2026-04-12T07:21:51.999Z</time></trkpt><trkpt lat="45.91782992812081" lon="11.149316675857202"><ele>930.0</ele><time>2026-04-12T07:21:52.999Z</time></trkpt><trkpt lat="45.917683660673596" lon="11.149440755457281"><ele>934.0</ele><time>2026-04-12T07:21:53.999Z</time></trkpt><trkpt lat="45.91753197896842" lon="11.149594628692254"><ele>934.0</ele><time>2026-04-12T07:21:54.999Z</time></trkpt><trkpt lat="45.91735990230827" lon="11.14970741074336"><ele>934.0</ele><time>2026-04-12T07:21:55.999Z</time></trkpt><trkpt lat="45.91715325120505" lon="11.149811595976068"><ele>934.0</ele><time>2026-04-12T07:21:56.999Z</time></trkpt><trkpt lat="45.91692711167249" lon="11.149927593108846"><ele>941.5</ele><time>2026-04-12T07:21:57.999Z</time></trkpt><trkpt lat="45.91667378173377" lon="11.15001712833625"><ele>949.0</ele><time>2026-04-12T07:21:58.999Z</time></trkpt><trkpt lat="45.916430551396594" lon="11.150113825744388"><ele>949.0</ele><time>2026-04-12T07:21:59.999Z</time></trkpt><trkpt lat="45.91620524444142" lon="11.15022162756082"><ele>949.0</ele><time>2026-04-12T07:22:00.999Z</time></trkpt><trkpt lat="45.91600567555197" lon="11.150347520240462"><ele>946.0</ele><time>2026-04-12T07:22:01.999Z</time></trkpt><trkpt lat="45.91582301277303" lon="11.150491670998145"><ele>943.0</ele><time>2026-04-12T07:22:02.999Z</time></trkpt><trkpt lat="45.91566802845311" lon="11.150619080668042"><ele>940.0</ele><time>2026-04-12T07:22:03.999Z</time></trkpt><trkpt lat="45.915511044675306" lon="11.150746685720828"><ele>946.0</ele><time>2026-04-12T07:22:04.999Z</time></trkpt><trkpt lat="45.91535650413268" lon="11.150860968211617"><ele>952.0</ele><time>2026-04-12T07:22:05.999Z</time></trkpt><trkpt lat="45.915212377224705" lon="11.150971560290474"><ele>958.0</ele><time>2026-04-12T07:22:06.999Z</time></trkpt><trkpt lat="45.915076048196305" lon="11.151070521804034"><ele>957.6666666666666</ele><time>2026-04-12T07:22:07.999Z</time></trkpt><trkpt lat="45.91494348777042" lon="11.151172580114446"><ele>957.3333333333333</ele><time>2026-04-12T07:22:08.999Z</time></trkpt><trkpt lat="45.91480836339963" lon="11.151273094153687"><ele>957.0</ele><time>2026-04-12T07:22:09.999Z</time></trkpt><trkpt lat="45.91467105790652" lon="11.151391654749409"><ele>957.0</ele><time>2026-04-12T07:22:10.999Z</time></trkpt><trkpt lat="45.91453455522351" lon="11.151532879268556"><ele>957.0</ele><time>2026-04-12T07:22:11.999Z</time></trkpt><trkpt lat="45.91440107427098" lon="11.15170244022201"><ele>957.0</ele><time>2026-04-12T07:22:12.999Z</time></trkpt><trkpt lat="45.91426719339598" lon="11.151861666792371"><ele>961.0</ele><time>2026-04-12T07:22:13.999Z</time></trkpt><trkpt lat="45.914140878866206" lon="11.152034845319182"><ele>965.0</ele><time>2026-04-12T07:22:14.999Z</time></trkpt><trkpt lat="45.91401311096602" lon="11.152210832892338"><ele>969.0</ele><time>2026-04-12T07:22:15.999Z</time></trkpt><trkpt lat="45.9138846784595" lon="11.152384808761639"><ele>972.6666666666667</ele><time>2026-04-12T07:22:16.999Z</time></trkpt><trkpt lat="45.913770658418635" lon="11.152582924970355"><ele>976.3333333333334</ele><time>2026-04-12T07:22:17.999Z</time></trkpt><trkpt lat="45.913671224214674" lon="11.152818814206906"><ele>980.0</ele><time>2026-04-12T07:22:18.999Z</time></trkpt><trkpt lat="45.913566561508816" lon="11.153049229598235"><ele>981.3333333333334</ele><time>2026-04-12T07:22:19.999Z</time></trkpt><trkpt lat="45.91346106014659" lon="11.153265267388594"><ele>982.6666666666667</ele><time>2026-04-12T07:22:20.999Z</time></trkpt><trkpt lat="45.9133409776992" lon="11.153473343200103"><ele>984.0</ele><time>2026-04-12T07:22:21.999Z</time></trkpt><trkpt lat="45.91316846924294" lon="11.153593603533615"><ele>984.0</ele><time>2026-04-12T07:22:22.999Z</time></trkpt><trkpt lat="45.913024064161654" lon="11.15375031869282"><ele>984.0</ele><time>2026-04-12T07:22:23.999Z</time></trkpt><trkpt lat="45.91289531590925" lon="11.15393768619328"><ele>984.0</ele><time>2026-04-12T07:22:24.999Z</time></trkpt><trkpt lat="45.91279875812642" lon="11.154158592530543"><ele>987.6666666666667</ele><time>2026-04-12T07:22:25.999Z</time></trkpt><trkpt lat="45.91272986462215" lon="11.154410686948578"><ele>991.3333333333334</ele><time>2026-04-12T07:22:26.999Z</time></trkpt><trkpt lat="45.91268977331752" lon="11.15469119779051"><ele>995.0</ele><time>2026-04-12T07:22:27.999Z</time></trkpt><trkpt lat="45.91266683230851" lon="11.154967539730094"><ele>997.3333333333334</ele><time>2026-04-12T07:22:28.999Z</time></trkpt><trkpt lat="45.91266621162079" lon="11.155244029627966"><ele>999.6666666666667</ele><time>2026-04-12T07:22:29.999Z</time></trkpt><trkpt lat="45.91269462172511" lon="11.155525305547206"><ele>1002.0</ele><time>2026-04-12T07:22:30.999Z</time></trkpt><trkpt lat="45.912751531670544" lon="11.155806473001888"><ele>1005.3333333333333</ele><time>2026-04-12T07:22:31.999Z</time></trkpt><trkpt lat="45.91282180451279" lon="11.156074417091233"><ele>1008.6666666666666</ele><time>2026-04-12T07:22:32.999Z</time></trkpt><trkpt lat="45.91284126168614" lon="11.156317697470666"><ele>1012.0</ele><time>2026-04-12T07:22:33.999Z</time></trkpt><trkpt lat="45.912849039417225" lon="11.15652698636274"><ele>1013.75</ele><time>2026-04-12T07:22:34.999Z</time></trkpt><trkpt lat="45.91284830735581" lon="11.156714994552853"><ele>1015.5</ele><time>2026-04-12T07:22:35.999Z</time></trkpt><trkpt lat="45.912845208015234" lon="11.156888724308393"><ele>1017.25</ele><time>2026-04-12T07:22:36.999Z</time></trkpt><trkpt lat="45.91285909280107" lon="11.157072811615953"><ele>1019.0</ele><time>2026-04-12T07:22:37.999Z</time></trkpt><trkpt lat="45.91284067348908" lon="11.157269702339327"><ele>1019.75</ele><time>2026-04-12T07:22:38.999Z</time></trkpt><trkpt lat="45.912843678665645" lon="11.157470589666655"><ele>1020.5</ele><time>2026-04-12T07:22:39.999Z</time></trkpt><trkpt lat="45.912801168535914" lon="11.157676895181444"><ele>1021.25</ele><time>2026-04-12T07:22:40.998Z</time></trkpt><trkpt lat="45.91275468156132" lon="11.157894140891083"><ele>1022.0</ele><time>2026-04-12T07:22:41.998Z</time></trkpt><trkpt lat="45.91270937457916" lon="11.15812438704785"><ele>1024.6666666666667</ele><time>2026-04-12T07:22:42.998Z</time></trkpt><trkpt lat="45.912653096402025" lon="11.15834524848419"><ele>1027.3333333333333</ele><time>2026-04-12T07:22:43.998Z</time></trkpt><trkpt lat="45.9126044033236" lon="11.158565985859259"><ele>1030.0</ele><time>2026-04-12T07:22:44.998Z</time></trkpt><trkpt lat="45.91257537470326" lon="11.158796089447344"><ele>1028.25</ele><time>2026-04-12T07:22:45.998Z</time></trkpt><trkpt lat="45.91255130102296" lon="11.159019944665237"><ele>1026.5</ele><time>2026-04-12T07:22:46.998Z</time></trkpt><trkpt lat="45.9125339956159" lon="11.1592316994163"><ele>1024.75</ele><time>2026-04-12T07:22:47.998Z</time></trkpt><trkpt lat="45.91252730398393" lon="11.159434052450159"><ele>1023.0</ele><time>2026-04-12T07:22:48.998Z</time></trkpt><trkpt lat="45.91254081211791" lon="11.159608450056753"><ele>1026.75</ele><time>2026-04-12T07:22:49.998Z</time></trkpt><trkpt lat="45.912575354910864" lon="11.159781298512685"><ele>1030.5</ele><time>2026-04-12T07:22:50.998Z</time></trkpt><trkpt lat="45.91263627244649" lon="11.159943186404671"><ele>1034.25</ele><time>2026-04-12T07:22:51.998Z</time></trkpt><trkpt lat="45.91271277854976" lon="11.160079287833527"><ele>1038.0</ele><time>2026-04-12T07:22:52.998Z</time></trkpt><trkpt lat="45.91281165705917" lon="11.160164880525883"><ele>1039.25</ele><time>2026-04-12T07:22:53.998Z</time></trkpt><trkpt lat="45.91293451571946" lon="11.160190225707195"><ele>1040.5</ele><time>2026-04-12T07:22:54.998Z</time></trkpt><trkpt lat="45.91308669129935" lon="11.16014497864"><ele>1041.75</ele><time>2026-04-12T07:22:55.998Z</time></trkpt><trkpt lat="45.91323641235186" lon="11.16004024820877"><ele>1043.0</ele><time>2026-04-12T07:22:56.998Z</time></trkpt><trkpt lat="45.91337570014967" lon="11.159867408815618"><ele>1046.0</ele><time>2026-04-12T07:22:57.998Z</time></trkpt><trkpt lat="45.913490335025365" lon="11.159653147840075"><ele>1049.0</ele><time>2026-04-12T07:22:58.998Z</time></trkpt><trkpt lat="45.91359526477763" lon="11.159428288381475"><ele>1052.0</ele><time>2026-04-12T07:22:59.998Z</time></trkpt><trkpt lat="45.913742318084616" lon="11.159281914878587"><ele>1052.0</ele><time>2026-04-12T07:23:00.998Z</time></trkpt><trkpt lat="45.91389681728665" lon="11.159145637115877"><ele>1052.0</ele><time>2026-04-12T07:23:01.998Z</time></trkpt><trkpt lat="45.91404680594401" lon="11.159030626767834"><ele>1052.0</ele><time>2026-04-12T07:23:02.998Z</time></trkpt><trkpt lat="45.91418863456737" lon="11.15893815069129"><ele>1053.3333333333335</ele><time>2026-04-12T07:23:03.998Z</time></trkpt><trkpt lat="45.91434427396417" lon="11.158886431391286"><ele>1054.6666666666667</ele><time>2026-04-12T07:23:04.998Z</time></trkpt><trkpt lat="45.9145167041999" lon="11.158859508278226"><ele>1056.0</ele><time>2026-04-12T07:23:05.998Z</time></trkpt><trkpt lat="45.9146915084395" lon="11.15881584050409"><ele>1056.0</ele><time>2026-04-12T07:23:06.998Z</time></trkpt><trkpt lat="45.91485984295301" lon="11.158758433368154"><ele>1056.0</ele><time>2026-04-12T07:23:07.998Z</time></trkpt><trkpt lat="45.915009740527985" lon="11.158647026295595"><ele>1056.0</ele><time>2026-04-12T07:23:08.998Z</time></trkpt><trkpt lat="45.915154563837156" lon="11.158501216106128"><ele>1057.75</ele><time>2026-04-12T07:23:09.998Z</time></trkpt><trkpt lat="45.915288503451904" lon="11.15837270928404"><ele>1059.5</ele><time>2026-04-12T07:23:10.998Z</time></trkpt><trkpt lat="45.91542811859888" lon="11.15829707976282"><ele>1061.25</ele><time>2026-04-12T07:23:12Z</time></trkpt><trkpt lat="45.9155368862904" lon="11.15820782248027"><ele>1063.0</ele><time>2026-04-12T07:23:13Z</time></trkpt><trkpt lat="45.91564863294631" lon="11.158181072991274"><ele>1063.0</ele><time>2026-04-12T07:23:14Z</time></trkpt><trkpt lat="45.91574819084219" lon="11.158159105655484"><ele>1063.0</ele><time>2026-04-12T07:23:15Z</time></trkpt><trkpt lat="45.91584677559929" lon="11.158200359688891"><ele>1063.0</ele><time>2026-04-12T07:23:16Z</time></trkpt><trkpt lat="45.915936599893136" lon="11.158292900325732"><ele>1063.0</ele><time>2026-04-12T07:23:17Z</time></trkpt><trkpt lat="45.9160091608401" lon="11.158420960203225"><ele>1063.0</ele><time>2026-04-12T07:23:18Z</time></trkpt><trkpt lat="45.916014110554805" lon="11.158599899303013"><ele>1066.0</ele><time>2026-04-12T07:23:19Z</time></trkpt><trkpt lat="45.916014468850506" lon="11.158791524560096"><ele>1069.0</ele><time>2026-04-12T07:23:20Z</time></trkpt><trkpt lat="45.915928371938094" lon="11.15896403821837"><ele>1072.0</ele><time>2026-04-12T07:23:21Z</time></trkpt><trkpt lat="45.9158468738633" lon="11.159124713702965"><ele>1075.0</ele><time>2026-04-12T07:23:22Z</time></trkpt><trkpt lat="45.9157560266001" lon="11.15928532038622"><ele>1075.0</ele><time>2026-04-12T07:23:23Z</time></trkpt><trkpt lat="45.91568580903638" lon="11.159428695466797"><ele>1075.0</ele><time>2026-04-12T07:23:24Z</time></trkpt><trkpt lat="45.915614277351715" lon="11.159551250373312"><ele>1075.0</ele><time>2026-04-12T07:23:25Z</time></trkpt><trkpt lat="45.91553876721001" lon="11.159692820902423"><ele>1075.0</ele><time>2026-04-12T07:23:26Z</time></trkpt><trkpt lat="45.91545946473036" lon="11.159858809422921"><ele>1079.3333333333333</ele><time>2026-04-12T07:23:27Z</time></trkpt><trkpt lat="45.91536815888304" lon="11.160039752443504"><ele>1083.6666666666667</ele><time>2026-04-12T07:23:28Z</time></trkpt><trkpt lat="45.9152756298337" lon="11.160232346099999"><ele>1088.0</ele><time>2026-04-12T07:23:29Z</time></trkpt><trkpt lat="45.915191254880625" lon="11.16044466223793"><ele>1088.0</ele><time>2026-04-12T07:23:30Z</time></trkpt><trkpt lat="45.915115882472264" lon="11.16067321654851"><ele>1088.0</ele><time>2026-04-12T07:23:31Z</time></trkpt><trkpt lat="45.91504131754185" lon="11.160898602169752"><ele>1088.0</ele><time>2026-04-12T07:23:32Z</time></trkpt><trkpt lat="45.914972120072555" lon="11.16113262086216"><ele>1087.0</ele><time>2026-04-12T07:23:33Z</time></trkpt><trkpt lat="45.91491753280357" lon="11.161376370550927"><ele>1086.0</ele><time>2026-04-12T07:23:34Z</time></trkpt><trkpt lat="45.91486587269339" lon="11.161632013134964"><ele>1085.0</ele><time>2026-04-12T07:23:35Z</time></trkpt><trkpt lat="45.914812944556914" lon="11.161889250528448"><ele>1088.0</ele><time>2026-04-12T07:23:36Z</time></trkpt><trkpt lat="45.91476175745813" lon="11.162148332963241"><ele>1091.0</ele><time>2026-04-12T07:23:37Z</time></trkpt><trkpt lat="45.91471818648884" lon="11.16241014072681"><ele>1094.0</ele><time>2026-04-12T07:23:38Z</time></trkpt><trkpt lat="45.91469383888773" lon="11.162683107805746"><ele>1097.0</ele><time>2026-04-12T07:23:39Z</time></trkpt><trkpt lat="45.914688650290465" lon="11.162969750200153"><ele>1100.0</ele><time>2026-04-12T07:23:40Z</time></trkpt><trkpt lat="45.91469071757667" lon="11.163228619298547"><ele>1103.0</ele><time>2026-04-12T07:23:41Z</time></trkpt><trkpt lat="45.91468563464051" lon="11.16344532556179"><ele>1104.0</ele><time>2026-04-12T07:23:42Z</time></trkpt><trkpt lat="45.914679818046196" lon="11.163647087834558"><ele>1105.0</ele><time>2026-04-12T07:23:43Z</time></trkpt><trkpt lat="45.914677682609415" lon="11.163836874574486"><ele>1106.0</ele><time>2026-04-12T07:23:44Z</time></trkpt><trkpt lat="45.9146750971245" lon="11.164026655727746"><ele>1107.0</ele><time>2026-04-12T07:23:45Z</time></trkpt><trkpt lat="45.91467248409389" lon="11.164207626809695"><ele>1107.75</ele><time>2026-04-12T07:23:46Z</time></trkpt><trkpt lat="45.9146697110997" lon="11.164392652867043"><ele>1108.5</ele><time>2026-04-12T07:23:47Z</time></trkpt><trkpt lat="45.91466611305816" lon="11.16458077636247"><ele>1109.25</ele><time>2026-04-12T07:23:48Z</time></trkpt><trkpt lat="45.914659394214354" lon="11.164772672563787"><ele>1110.0</ele><time>2026-04-12T07:23:49Z</time></trkpt><trkpt lat="45.91465424521889" lon="11.164962486858155"><ele>1111.5</ele><time>2026-04-12T07:23:50Z</time></trkpt><trkpt lat="45.914641380775144" lon="11.165145992033928"><ele>1113.0</ele><time>2026-04-12T07:23:51Z</time></trkpt><trkpt lat="45.914620617963756" lon="11.165326279502962"><ele>1114.5</ele><time>2026-04-12T07:23:51.999Z</time></trkpt><trkpt lat="45.914593138671655" lon="11.165503448447977"><ele>1116.0</ele><time>2026-04-12T07:23:52.999Z</time></trkpt><trkpt lat="45.91456288571906" lon="11.165664218935033"><ele>1117.3999999999999</ele><time>2026-04-12T07:23:53.999Z</time></trkpt><trkpt lat="45.91453491972247" lon="11.16581976299671"><ele>1118.8</ele><time>2026-04-12T07:23:54.999Z</time></trkpt><trkpt lat="45.91451339349856" lon="11.165956738318918"><ele>1120.1999999999998</ele><time>2026-04-12T07:23:55.999Z</time></trkpt><trkpt lat="45.91449052389544" lon="11.166083699655454"><ele>1121.6</ele><time>2026-04-12T07:23:56.999Z</time></trkpt><trkpt lat="45.91446626909207" lon="11.166232124955398"><ele>1123.0</ele><time>2026-04-12T07:23:57.999Z</time></trkpt><trkpt lat="45.91443848770837" lon="11.16639083335898"><ele>1124.75</ele><time>2026-04-12T07:23:58.999Z</time></trkpt><trkpt lat="45.91441562782393" lon="11.166549259613541"><ele>1126.5</ele><time>2026-04-12T07:23:59.999Z</time></trkpt><trkpt lat="45.91438543928905" lon="11.166701425074196"><ele>1128.25</ele><time>2026-04-12T07:24:00.999Z</time></trkpt><trkpt lat="45.91435402500932" lon="11.166889493495257"><ele>1130.0</ele><time>2026-04-12T07:24:01.999Z</time></trkpt><trkpt lat="45.91432327412549" lon="11.167073590446476"><ele>1130.0</ele><time>2026-04-12T07:24:02.999Z</time></trkpt><trkpt lat="45.91430050424678" lon="11.16721540115037"><ele>1130.0</ele><time>2026-04-12T07:24:03.999Z</time></trkpt><trkpt lat="45.914280471254344" lon="11.167340017162012"><ele>1130.0</ele><time>2026-04-12T07:24:04.999Z</time></trkpt><trkpt lat="45.91425902695099" lon="11.167473412424622"><ele>1130.0</ele><time>2026-04-12T07:24:05.999Z</time></trkpt><trkpt lat="45.914237733344926" lon="11.167605870155938"><ele>1130.0</ele><time>2026-04-12T07:24:06.999Z</time></trkpt><trkpt lat="45.91421584838224" lon="11.167742006475057"><ele>1128.6</ele><time>2026-04-12T07:24:07.999Z</time></trkpt><trkpt lat="45.914195394074085" lon="11.167869243409475"><ele>1127.2</ele><time>2026-04-12T07:24:08.999Z</time></trkpt><trkpt lat="45.91417367712215" lon="11.16800433456912"><ele>1125.8</ele><time>2026-04-12T07:24:09.999Z</time></trkpt><trkpt lat="45.91415042517004" lon="11.168147377092895"><ele>1124.4</ele><time>2026-04-12T07:24:10.999Z</time></trkpt><trkpt lat="45.91412575398117" lon="11.168298194438114"><ele>1123.0</ele><time>2026-04-12T07:24:11.999Z</time></trkpt><trkpt lat="45.91410184762108" lon="11.168444336281553"><ele>1123.0</ele><time>2026-04-12T07:24:12.999Z</time></trkpt><trkpt lat="45.91407816782961" lon="11.168589093123266"><ele>1123.0</ele><time>2026-04-12T07:24:13.999Z</time></trkpt><trkpt lat="45.914067805244905" lon="11.168754284824459"><ele>1123.0</ele><time>2026-04-12T07:24:14.999Z</time></trkpt><trkpt lat="45.91403230627109" lon="11.168925698172453"><ele>1123.0</ele><time>2026-04-12T07:24:15.999Z</time></trkpt><trkpt lat="45.91400330274308" lon="11.169099430412874"><ele>1123.75</ele><time>2026-04-12T07:24:16.999Z</time></trkpt><trkpt lat="45.91397250610728" lon="11.16928549806476"><ele>1124.5</ele><time>2026-04-12T07:24:17.999Z</time></trkpt><trkpt lat="45.91394065539239" lon="11.169480664194543"><ele>1125.25</ele><time>2026-04-12T07:24:18.999Z</time></trkpt><trkpt lat="45.91390786048572" lon="11.169679871470978"><ele>1126.0</ele><time>2026-04-12T07:24:19.999Z</time></trkpt><trkpt lat="45.913871864254226" lon="11.169913293529046"><ele>1128.3333333333333</ele><time>2026-04-12T07:24:20.999Z</time></trkpt><trkpt lat="45.9138337152607" lon="11.170185351262974"><ele>1130.6666666666667</ele><time>2026-04-12T07:24:21.999Z</time></trkpt><trkpt lat="45.91376926191316" lon="11.170490054300815"><ele>1133.0</ele><time>2026-04-12T07:24:22.999Z</time></trkpt><trkpt lat="45.913719604582035" lon="11.170795776226427"><ele>1133.6666666666667</ele><time>2026-04-12T07:24:23.999Z</time></trkpt><trkpt lat="45.913676063696556" lon="11.17110519695671"><ele>1134.3333333333333</ele><time>2026-04-12T07:24:24.999Z</time></trkpt><trkpt lat="45.91362446770064" lon="11.171399188463138"><ele>1135.0</ele><time>2026-04-12T07:24:25.999Z</time></trkpt><trkpt lat="45.91358747822099" lon="11.171683490344437"><ele>1136.6666666666665</ele><time>2026-04-12T07:24:26.999Z</time></trkpt><trkpt lat="45.913546038500094" lon="11.171966955453874"><ele>1138.3333333333333</ele><time>2026-04-12T07:24:27.999Z</time></trkpt><trkpt lat="45.91351066422341" lon="11.172232322416914"><ele>1140.0</ele><time>2026-04-12T07:24:28.999Z</time></trkpt><trkpt lat="45.91348588035002" lon="11.17249792741189"><ele>1141.6666666666667</ele><time>2026-04-12T07:24:29.999Z</time></trkpt><trkpt lat="45.91347751070399" lon="11.172750298762173"><ele>1143.3333333333335</ele><time>2026-04-12T07:24:30.999Z</time></trkpt><trkpt lat="45.913470059789546" lon="11.173005874318015"><ele>1145.0</ele><time>2026-04-12T07:24:31.999Z</time></trkpt><trkpt lat="45.913459666073194" lon="11.173259490772702"><ele>1146.6666666666667</ele><time>2026-04-12T07:24:32.999Z</time></trkpt><trkpt lat="45.91344539478907" lon="11.173511535654619"><ele>1148.3333333333333</ele><time>2026-04-12T07:24:33.999Z</time></trkpt><trkpt lat="45.9134334431942" lon="11.17375959718289"><ele>1150.0</ele><time>2026-04-12T07:24:34.999Z</time></trkpt><trkpt lat="45.91342465377569" lon="11.174011315950851"><ele>1150.6666666666665</ele><time>2026-04-12T07:24:35.999Z</time></trkpt><trkpt lat="45.91341435794757" lon="11.17425893020055"><ele>1151.3333333333333</ele><time>2026-04-12T07:24:36.999Z</time></trkpt><trkpt lat="45.91340593236967" lon="11.174509824503184"><ele>1152.0</ele><time>2026-04-12T07:24:37.999Z</time></trkpt><trkpt lat="45.9133975947268" lon="11.174755708181966"><ele>1149.3333333333333</ele><time>2026-04-12T07:24:38.999Z</time></trkpt><trkpt lat="45.913390153361156" lon="11.175002676613026"><ele>1146.6666666666665</ele><time>2026-04-12T07:24:39.999Z</time></trkpt><trkpt lat="45.913376409170105" lon="11.175249381979578"><ele>1144.0</ele><time>2026-04-12T07:24:40.999Z</time></trkpt><trkpt lat="45.91335232456107" lon="11.175504514948367"><ele>1147.0</ele><time>2026-04-12T07:24:41.999Z</time></trkpt><trkpt lat="45.91329963337765" lon="11.175754134251381"><ele>1150.0</ele><time>2026-04-12T07:24:42.999Z</time></trkpt><trkpt lat="45.91326574871061" lon="11.176015422671995"><ele>1153.0</ele><time>2026-04-12T07:24:43.999Z</time></trkpt><trkpt lat="45.91321924237779" lon="11.176272660882336"><ele>1155.0</ele><time>2026-04-12T07:24:44.998Z</time></trkpt><trkpt lat="45.91316930209038" lon="11.176532061839039"><ele>1157.0</ele><time>2026-04-12T07:24:45.998Z</time></trkpt><trkpt lat="45.913120666582536" lon="11.176785476883486"><ele>1159.0</ele><time>2026-04-12T07:24:46.998Z</time></trkpt><trkpt lat="45.913076526387506" lon="11.177039293982954"><ele>1159.0</ele><time>2026-04-12T07:24:47.998Z</time></trkpt><trkpt lat="45.91303365094168" lon="11.17728207071574"><ele>1159.0</ele><time>2026-04-12T07:24:48.998Z</time></trkpt><trkpt lat="45.91298202667559" lon="11.177496922822888"><ele>1159.0</ele><time>2026-04-12T07:24:49.998Z</time></trkpt><trkpt lat="45.912946514982" lon="11.177682363967184"><ele>1160.75</ele><time>2026-04-12T07:24:50.998Z</time></trkpt><trkpt lat="45.91290372791284" lon="11.177831357538007"><ele>1162.5</ele><time>2026-04-12T07:24:51.998Z</time></trkpt><trkpt lat="45.91285675703604" lon="11.177941668876015"><ele>1164.25</ele><time>2026-04-12T07:24:52.998Z</time></trkpt><trkpt lat="45.91277300983261" lon="11.178096159907097"><ele>1166.0</ele><time>2026-04-12T07:24:54.998Z</time></trkpt><trkpt lat="45.912864707149375" lon="11.178304472637263"><ele>1166.6</ele><time>2026-04-12T07:24:56.998Z</time></trkpt><trkpt lat="45.91287625838123" lon="11.178479771424607"><ele>1167.1999999999998</ele><time>2026-04-12T07:24:58.998Z</time></trkpt><trkpt lat="45.91280333011581" lon="11.178610227195056"><ele>1167.8000000000002</ele><time>2026-04-12T07:25:00.998Z</time></trkpt><trkpt lat="45.912689406527164" lon="11.178534295312545"><ele>1168.4</ele><time>2026-04-12T07:25:01.998Z</time></trkpt><trkpt lat="45.91263675253348" lon="11.178616104226577"><ele>1169.0</ele><time>2026-04-12T07:25:05.998Z</time></trkpt><trkpt lat="45.91261171799136" lon="11.178710036051363"><ele>1170.0</ele><time>2026-04-12T07:25:06.998Z</time></trkpt><trkpt lat="45.91273713884034" lon="11.17904195440129"><ele>1171.0</ele><time>2026-04-12T07:25:08.998Z</time></trkpt><trkpt lat="45.912685307970136" lon="11.179212238177684"><ele>1172.0</ele><time>2026-04-12T07:25:10.998Z</time></trkpt><trkpt lat="45.912670624403475" lon="11.17930259086005"><ele>1172.0</ele><time>2026-04-12T07:25:11.998Z</time></trkpt><trkpt lat="45.91265360765472" lon="11.17939937039355"><ele>1172.0</ele><time>2026-04-12T07:25:12.998Z</time></trkpt><trkpt lat="45.91263781130183" lon="11.179503983890385"><ele>1172.0</ele><time>2026-04-12T07:25:13.998Z</time></trkpt><trkpt lat="45.91262950545656" lon="11.179610304538686"><ele>1172.0</ele><time>2026-04-12T07:25:14.998Z</time></trkpt><trkpt lat="45.91262873235305" lon="11.179733540130744"><ele>1172.0</ele><time>2026-04-12T07:25:15.998Z</time></trkpt><trkpt lat="45.91261590819842" lon="11.179955769697875"><ele>1173.6666666666667</ele><time>2026-04-12T07:25:16.998Z</time></trkpt><trkpt lat="45.912653525571415" lon="11.180209471703428"><ele>1175.3333333333333</ele><time>2026-04-12T07:25:18Z</time></trkpt><trkpt lat="45.91271165084357" lon="11.180504190245307"><ele>1177.0</ele><time>2026-04-12T07:25:19Z</time></trkpt><trkpt lat="45.912797997636865" lon="11.180807042801908"><ele>1180.0</ele><time>2026-04-12T07:25:20Z</time></trkpt><trkpt lat="45.912921094574294" lon="11.181108618449016"><ele>1183.0</ele><time>2026-04-12T07:25:21Z</time></trkpt><trkpt lat="45.913058967714335" lon="11.18140458910308"><ele>1186.0</ele><time>2026-04-12T07:25:22Z</time></trkpt><trkpt lat="45.91322218854985" lon="11.181699356362849"><ele>1189.0</ele><time>2026-04-12T07:25:23Z</time></trkpt><trkpt lat="45.91337514518175" lon="11.181986817337298"><ele>1191.5</ele><time>2026-04-12T07:25:24Z</time></trkpt><trkpt lat="45.913508777853664" lon="11.182266109911309"><ele>1194.0</ele><time>2026-04-12T07:25:25Z</time></trkpt><trkpt lat="45.913629879414515" lon="11.182529523522485"><ele>1195.3333333333333</ele><time>2026-04-12T07:25:26Z</time></trkpt><trkpt lat="45.91372722028171" lon="11.182749021530995"><ele>1196.6666666666665</ele><time>2026-04-12T07:25:27Z</time></trkpt><trkpt lat="45.913811806734564" lon="11.182944774675466"><ele>1198.0</ele><time>2026-04-12T07:25:28Z</time></trkpt><trkpt lat="45.91389622452036" lon="11.18316058689531"><ele>1199.0</ele><time>2026-04-12T07:25:29Z</time></trkpt><trkpt lat="45.91397729249692" lon="11.183384055095681"><ele>1200.0</ele><time>2026-04-12T07:25:30Z</time></trkpt><trkpt lat="45.914042230083254" lon="11.183568241532353"><ele>1201.0</ele><time>2026-04-12T07:25:31Z</time></trkpt><trkpt lat="45.914094944972014" lon="11.183718546911496"><ele>1202.0</ele><time>2026-04-12T07:25:32Z</time></trkpt><trkpt lat="45.914136997388304" lon="11.183845400689664"><ele>1202.0</ele><time>2026-04-12T07:25:33Z</time></trkpt><trkpt lat="45.91416100357834" lon="11.183956525095553"><ele>1202.0</ele><time>2026-04-12T07:25:34Z</time></trkpt><trkpt lat="45.91418002051995" lon="11.184060230010006"><ele>1202.0</ele><time>2026-04-12T07:25:35Z</time></trkpt><trkpt lat="45.91423423189884" lon="11.184172669241613"><ele>1202.0</ele><time>2026-04-12T07:25:36Z</time></trkpt><trkpt lat="45.91434042127495" lon="11.184311902331938"><ele>1202.0</ele><time>2026-04-12T07:25:37Z</time></trkpt><trkpt lat="45.91447454321509" lon="11.1844939006768"><ele>1206.6666666666667</ele><time>2026-04-12T07:25:38Z</time></trkpt><trkpt lat="45.914593511207464" lon="11.184729516482113"><ele>1211.3333333333333</ele><time>2026-04-12T07:25:39Z</time></trkpt><trkpt lat="45.9147324193361" lon="11.18496966531597"><ele>1216.0</ele><time>2026-04-12T07:25:40Z</time></trkpt><trkpt lat="45.914899857829475" lon="11.185183848439546"><ele>1221.0</ele><time>2026-04-12T07:25:41Z</time></trkpt><trkpt lat="45.915095789968575" lon="11.18538108804816"><ele>1226.0</ele><time>2026-04-12T07:25:42Z</time></trkpt><trkpt lat="45.91529812443576" lon="11.185571928406832"><ele>1226.3333333333335</ele><time>2026-04-12T07:25:43Z</time></trkpt><trkpt lat="45.91548271744829" lon="11.185749465831755"><ele>1226.6666666666667</ele><time>2026-04-12T07:25:44Z</time></trkpt><trkpt lat="45.915638012149685" lon="11.185910041773633"><ele>1227.0</ele><time>2026-04-12T07:25:45Z</time></trkpt><trkpt lat="45.91577781329316" lon="11.18605022103157"><ele>1229.3333333333333</ele><time>2026-04-12T07:25:46Z</time></trkpt><trkpt lat="45.91592758333526" lon="11.186172488534929"><ele>1231.6666666666665</ele><time>2026-04-12T07:25:47Z</time></trkpt><trkpt lat="45.91609182570529" lon="11.186266709747144"><ele>1234.0</ele><time>2026-04-12T07:25:48Z</time></trkpt><trkpt lat="45.91626064038583" lon="11.186326105260193"><ele>1234.0</ele><time>2026-04-12T07:25:49Z</time></trkpt><trkpt lat="45.91641933931949" lon="11.18635293821968"><ele>1234.0</ele><time>2026-04-12T07:25:50Z</time></trkpt><trkpt lat="45.91657884688779" lon="11.186355972152379"><ele>1234.0</ele><time>2026-04-12T07:25:51Z</time></trkpt><trkpt lat="45.91674653524184" lon="11.186335327960217"><ele>1236.6666666666665</ele><time>2026-04-12T07:25:52Z</time></trkpt><trkpt lat="45.9169185724745" lon="11.186313617601435"><ele>1239.3333333333333</ele><time>2026-04-12T07:25:53Z</time></trkpt><trkpt lat="45.91707995090816" lon="11.186306847175443"><ele>1242.0</ele><time>2026-04-12T07:25:54Z</time></trkpt><trkpt lat="45.91722604536202" lon="11.186310223788716"><ele>1242.0</ele><time>2026-04-12T07:25:55Z</time></trkpt><trkpt lat="45.917367310835886" lon="11.186309296640562"><ele>1242.0</ele><time>2026-04-12T07:25:56Z</time></trkpt><trkpt lat="45.91752460796416" lon="11.186303221176198"><ele>1242.0</ele><time>2026-04-12T07:25:57Z</time></trkpt><trkpt lat="45.917688625150795" lon="11.186290341082941"><ele>1242.25</ele><time>2026-04-12T07:25:57.999Z</time></trkpt><trkpt lat="45.91784121746116" lon="11.186307664167366"><ele>1242.5</ele><time>2026-04-12T07:25:58.999Z</time></trkpt><trkpt lat="45.91797204711279" lon="11.186303529185603"><ele>1242.75</ele><time>2026-04-12T07:25:59.999Z</time></trkpt><trkpt lat="45.91808612124672" lon="11.186278386885284"><ele>1243.0</ele><time>2026-04-12T07:26:00.999Z</time></trkpt><trkpt lat="45.918195789378665" lon="11.186296571517488"><ele>1243.0</ele><time>2026-04-12T07:26:01.999Z</time></trkpt><trkpt lat="45.918295062315664" lon="11.18627578800039"><ele>1243.0</ele><time>2026-04-12T07:26:02.999Z</time></trkpt><trkpt lat="45.91838705612957" lon="11.186274489201871"><ele>1243.0</ele><time>2026-04-12T07:26:03.999Z</time></trkpt><trkpt lat="45.91847159169945" lon="11.186274919846461"><ele>1243.0</ele><time>2026-04-12T07:26:04.999Z</time></trkpt><trkpt lat="45.9185800799634" lon="11.186270813340606"><ele>1243.0</ele><time>2026-04-12T07:26:05.999Z</time></trkpt><trkpt lat="45.91867789435228" lon="11.18626905655229"><ele>1244.0</ele><time>2026-04-12T07:26:06.999Z</time></trkpt><trkpt lat="45.91874610867007" lon="11.186271457857387"><ele>1245.0</ele><time>2026-04-12T07:26:07.999Z</time></trkpt><trkpt lat="45.91886053868592" lon="11.186291123101025"><ele>1246.0</ele><time>2026-04-12T07:26:09.999Z</time></trkpt><trkpt lat="45.91898414612327" lon="11.18628528576437"><ele>1247.0</ele><time>2026-04-12T07:26:11.999Z</time></trkpt><trkpt lat="45.91910105751665" lon="11.186322390695155"><ele>1248.0</ele><time>2026-04-12T07:26:13.999Z</time></trkpt><trkpt lat="45.9192099220712" lon="11.186373370199446"><ele>1248.5</ele><time>2026-04-12T07:26:15.999Z</time></trkpt><trkpt lat="45.91928898236671" lon="11.186418160621246"><ele>1249.0</ele><time>2026-04-12T07:26:17.999Z</time></trkpt><trkpt lat="45.91934757991989" lon="11.186474718541396"><ele>1249.5</ele><time>2026-04-12T07:26:19.999Z</time></trkpt><trkpt lat="45.91941013347812" lon="11.186550164269729"><ele>1250.0</ele><time>2026-04-12T07:26:21.999Z</time></trkpt><trkpt lat="45.9194927908853" lon="11.186616102010786"><ele>1250.5</ele><time>2026-04-12T07:26:23.999Z</time></trkpt><trkpt lat="45.91957079991315" lon="11.186694370024535"><ele>1251.0</ele><time>2026-04-12T07:26:25.999Z</time></trkpt><trkpt lat="45.919656306795815" lon="11.186782908807066"><ele>1251.0</ele><time>2026-04-12T07:26:27.999Z</time></trkpt><trkpt lat="45.919746912192046" lon="11.186872277719772"><ele>1251.0</ele><time>2026-04-12T07:26:29.999Z</time></trkpt><trkpt lat="45.919829236262906" lon="11.186972861601953"><ele>1251.0</ele><time>2026-04-12T07:26:31.999Z</time></trkpt><trkpt lat="45.919907754936574" lon="11.187079232236428"><ele>1251.0</ele><time>2026-04-12T07:26:33.999Z</time></trkpt><trkpt lat="45.919987377737" lon="11.187228440714112"><ele>1250.75</ele><time>2026-04-12T07:26:35.999Z</time></trkpt><trkpt lat="45.92003853500234" lon="11.18734721902533"><ele>1250.5</ele><time>2026-04-12T07:26:36.999Z</time></trkpt><trkpt lat="45.92008786565913" lon="11.187505116092376"><ele>1250.25</ele><time>2026-04-12T07:26:37.999Z</time></trkpt><trkpt lat="45.92013486852709" lon="11.187696572201867"><ele>1250.0</ele><time>2026-04-12T07:26:38.999Z</time></trkpt><trkpt lat="45.9201676652738" lon="11.187887414226935"><ele>1251.2</ele><time>2026-04-12T07:26:39.999Z</time></trkpt><trkpt lat="45.920188497209026" lon="11.188060985238472"><ele>1252.4</ele><time>2026-04-12T07:26:40.999Z</time></trkpt><trkpt lat="45.92020053069539" lon="11.18821460588201"><ele>1253.6</ele><time>2026-04-12T07:26:41.999Z</time></trkpt><trkpt lat="45.92022051958882" lon="11.188360528478198"><ele>1254.8</ele><time>2026-04-12T07:26:42.999Z</time></trkpt><trkpt lat="45.92023746740434" lon="11.188491515555485"><ele>1256.0</ele><time>2026-04-12T07:26:43.999Z</time></trkpt><trkpt lat="45.9202627718924" lon="11.188626057294398"><ele>1256.0</ele><time>2026-04-12T07:26:44.999Z</time></trkpt><trkpt lat="45.92030389917909" lon="11.188784441167412"><ele>1256.0</ele><time>2026-04-12T07:26:45.999Z</time></trkpt><trkpt lat="45.92034801928286" lon="11.188947742813742"><ele>1256.0</ele><time>2026-04-12T07:26:46.999Z</time></trkpt><trkpt lat="45.92039509299769" lon="11.189116788684117"><ele>1256.0</ele><time>2026-04-12T07:26:47.999Z</time></trkpt><trkpt lat="45.92045417354224" lon="11.189300106379578"><ele>1256.0</ele><time>2026-04-12T07:26:48.999Z</time></trkpt><trkpt lat="45.920522740162895" lon="11.189489990775499"><ele>1256.0</ele><time>2026-04-12T07:26:49.998Z</time></trkpt><trkpt lat="45.92060293388035" lon="11.189690123116801"><ele>1256.0</ele><time>2026-04-12T07:26:50.998Z</time></trkpt><trkpt lat="45.92069158543013" lon="11.18988839046027"><ele>1256.25</ele><time>2026-04-12T07:26:51.998Z</time></trkpt><trkpt lat="45.92076159646302" lon="11.190067075574177"><ele>1256.5</ele><time>2026-04-12T07:26:52.998Z</time></trkpt><trkpt lat="45.920824535946124" lon="11.190248496234485"><ele>1256.75</ele><time>2026-04-12T07:26:53.998Z</time></trkpt><trkpt lat="45.92089202556054" lon="11.190440881185657"><ele>1257.0</ele><time>2026-04-12T07:26:54.998Z</time></trkpt><trkpt lat="45.92096303208886" lon="11.190639763680782"><ele>1261.3333333333333</ele><time>2026-04-12T07:26:55.998Z</time></trkpt><trkpt lat="45.92103286949864" lon="11.190832088450184"><ele>1265.6666666666665</ele><time>2026-04-12T07:26:56.998Z</time></trkpt><trkpt lat="45.92108889008857" lon="11.191047314008765"><ele>1270.0</ele><time>2026-04-12T07:26:57.998Z</time></trkpt><trkpt lat="45.921140300627904" lon="11.1912567232418"><ele>1270.0</ele><time>2026-04-12T07:26:58.998Z</time></trkpt><trkpt lat="45.92114825908485" lon="11.191466975239516"><ele>1270.0</ele><time>2026-04-12T07:26:59.998Z</time></trkpt><trkpt lat="45.92111223124485" lon="11.191674079638013"><ele>1270.0</ele><time>2026-04-12T07:27:00.998Z</time></trkpt><trkpt lat="45.92104627901365" lon="11.191908173742608"><ele>1268.6666666666665</ele><time>2026-04-12T07:27:01.998Z</time></trkpt><trkpt lat="45.92096536352683" lon="11.192181701863383"><ele>1267.3333333333333</ele><time>2026-04-12T07:27:02.998Z</time></trkpt><trkpt lat="45.9208919978331" lon="11.192462358439226"><ele>1266.0</ele><time>2026-04-12T07:27:03.998Z</time></trkpt><trkpt lat="45.920808304940316" lon="11.192728898950191"><ele>1266.0</ele><time>2026-04-12T07:27:04.998Z</time></trkpt><trkpt lat="45.92070257981563" lon="11.192979722856292"><ele>1266.0</ele><time>2026-04-12T07:27:05.998Z</time></trkpt><trkpt lat="45.92062674839128" lon="11.193231269171555"><ele>1266.0</ele><time>2026-04-12T07:27:06.998Z</time></trkpt><trkpt lat="45.920530392901455" lon="11.19342791242086"><ele>1270.3333333333333</ele><time>2026-04-12T07:27:07.998Z</time></trkpt><trkpt lat="45.92043947911064" lon="11.193619479022923"><ele>1274.6666666666665</ele><time>2026-04-12T07:27:08.998Z</time></trkpt><trkpt lat="45.920342645152225" lon="11.193810365874995"><ele>1279.0</ele><time>2026-04-12T07:27:09.998Z</time></trkpt><trkpt lat="45.920255933399986" lon="11.194013713859134"><ele>1277.5</ele><time>2026-04-12T07:27:10.998Z</time></trkpt><trkpt lat="45.920160302143" lon="11.19418445824443"><ele>1276.0</ele><time>2026-04-12T07:27:11.998Z</time></trkpt><trkpt lat="45.920073313272816" lon="11.194354185882492"><ele>1274.5</ele><time>2026-04-12T07:27:12.998Z</time></trkpt><trkpt lat="45.91999056781224" lon="11.194508660494726"><ele>1273.0</ele><time>2026-04-12T07:27:13.998Z</time></trkpt><trkpt lat="45.91990654299672" lon="11.194660098327942"><ele>1273.0</ele><time>2026-04-12T07:27:14.998Z</time></trkpt><trkpt lat="45.91982653202332" lon="11.194805139556907"><ele>1273.0</ele><time>2026-04-12T07:27:15.998Z</time></trkpt><trkpt lat="45.919738424346086" lon="11.19493256412078"><ele>1273.0</ele><time>2026-04-12T07:27:16.998Z</time></trkpt><trkpt lat="45.9196702503787" lon="11.195085901651511"><ele>1273.0</ele><time>2026-04-12T07:27:17.998Z</time></trkpt><trkpt lat="45.91962521292981" lon="11.195248870281816"><ele>1276.25</ele><time>2026-04-12T07:27:18.998Z</time></trkpt><trkpt lat="45.91958119561776" lon="11.195412531921239"><ele>1279.5</ele><time>2026-04-12T07:27:19.998Z</time></trkpt><trkpt lat="45.91953867299116" lon="11.195586031883506"><ele>1282.75</ele><time>2026-04-12T07:27:20.998Z</time></trkpt><trkpt lat="45.919489297603185" lon="11.195770783193502"><ele>1286.0</ele><time>2026-04-12T07:27:21.998Z</time></trkpt><trkpt lat="45.91943389604155" lon="11.195972077971486"><ele>1289.6666666666667</ele><time>2026-04-12T07:27:22.998Z</time></trkpt><trkpt lat="45.9193618059244" lon="11.19618033696523"><ele>1293.3333333333333</ele><time>2026-04-12T07:27:24Z</time></trkpt><trkpt lat="45.919297901896826" lon="11.196420890615133"><ele>1297.0</ele><time>2026-04-12T07:27:25Z</time></trkpt><trkpt lat="45.91923977358141" lon="11.19671372026338"><ele>1297.6666666666665</ele><time>2026-04-12T07:27:26Z</time></trkpt><trkpt lat="45.91919031353675" lon="11.19703541216913"><ele>1298.3333333333333</ele><time>2026-04-12T07:27:27Z</time></trkpt><trkpt lat="45.91914454498117" lon="11.19732394794115"><ele>1299.0</ele><time>2026-04-12T07:27:28Z</time></trkpt><trkpt lat="45.91911411612674" lon="11.19761764455365"><ele>1299.0</ele><time>2026-04-12T07:27:29Z</time></trkpt><trkpt lat="45.91906365457119" lon="11.19791108073161"><ele>1299.0</ele><time>2026-04-12T07:27:30Z</time></trkpt><trkpt lat="45.9190002883417" lon="11.198209297645517"><ele>1299.0</ele><time>2026-04-12T07:27:31Z</time></trkpt><trkpt lat="45.918942843072315" lon="11.198512760089722"><ele>1303.6666666666667</ele><time>2026-04-12T07:27:32Z</time></trkpt><trkpt lat="45.9188811073871" lon="11.198815532369322"><ele>1308.3333333333335</ele><time>2026-04-12T07:27:33Z</time></trkpt><trkpt lat="45.91880768540363" lon="11.199124269942628"><ele>1313.0</ele><time>2026-04-12T07:27:34Z</time></trkpt><trkpt lat="45.91872592383498" lon="11.19942966238384"><ele>1316.3333333333335</ele><time>2026-04-12T07:27:35Z</time></trkpt><trkpt lat="45.91864680654941" lon="11.199721698015143"><ele>1319.6666666666667</ele><time>2026-04-12T07:27:36Z</time></trkpt><trkpt lat="45.91858991871345" lon="11.199992321886103"><ele>1323.0</ele><time>2026-04-12T07:27:37Z</time></trkpt><trkpt lat="45.918496137407736" lon="11.200204283933006"><ele>1324.6666666666667</ele><time>2026-04-12T07:27:38Z</time></trkpt><trkpt lat="45.9184110286047" lon="11.200398699745865"><ele>1326.3333333333335</ele><time>2026-04-12T07:27:39Z</time></trkpt><trkpt lat="45.918325827947214" lon="11.200581201766466"><ele>1328.0</ele><time>2026-04-12T07:27:40Z</time></trkpt><trkpt lat="45.91826004525963" lon="11.200755686861221"><ele>1328.0</ele><time>2026-04-12T07:27:41Z</time></trkpt><trkpt lat="45.918189446867295" lon="11.200914132521676"><ele>1328.0</ele><time>2026-04-12T07:27:42Z</time></trkpt><trkpt lat="45.918126264539325" lon="11.20108207399752"><ele>1328.0</ele><time>2026-04-12T07:27:43Z</time></trkpt><trkpt lat="45.918088143072204" lon="11.201255048601462"><ele>1328.0</ele><time>2026-04-12T07:27:44Z</time></trkpt><trkpt lat="45.918069057391506" lon="11.201427636265942"><ele>1330.75</ele><time>2026-04-12T07:27:45Z</time></trkpt><trkpt lat="45.918084099781986" lon="11.201603719269638"><ele>1333.5</ele><time>2026-04-12T07:27:46Z</time></trkpt><trkpt lat="45.918116219691086" lon="11.20177686922552"><ele>1336.25</ele><time>2026-04-12T07:27:47Z</time></trkpt><trkpt lat="45.91816561135586" lon="11.201946700879402"><ele>1339.0</ele><time>2026-04-12T07:27:48Z</time></trkpt><trkpt lat="45.91821131230299" lon="11.202114934908742"><ele>1339.0</ele><time>2026-04-12T07:27:49Z</time></trkpt><trkpt lat="45.918260077345295" lon="11.202280201344708"><ele>1339.0</ele><time>2026-04-12T07:27:50Z</time></trkpt><trkpt lat="45.91830784303975" lon="11.20244941385992"><ele>1339.0</ele><time>2026-04-12T07:27:51Z</time></trkpt><trkpt lat="45.91835888128471" lon="11.202622203250192"><ele>1339.0</ele><time>2026-04-12T07:27:52Z</time></trkpt><trkpt lat="45.918404136881385" lon="11.202795889571771"><ele>1346.5</ele><time>2026-04-12T07:27:53Z</time></trkpt><trkpt lat="45.91845348377165" lon="11.202973793735204"><ele>1354.0</ele><time>2026-04-12T07:27:54Z</time></trkpt><trkpt lat="45.91850764687469" lon="11.203151835540742"><ele>1361.5</ele><time>2026-04-12T07:27:55Z</time></trkpt><trkpt lat="45.91855968262779" lon="11.203323051239897"><ele>1369.0</ele><time>2026-04-12T07:27:56Z</time></trkpt><trkpt lat="45.91861285544736" lon="11.203482597491808"><ele>1369.0</ele><time>2026-04-12T07:27:57Z</time></trkpt><trkpt lat="45.918667222439" lon="11.203648917237697"><ele>1369.0</ele><time>2026-04-12T07:27:58Z</time></trkpt><trkpt lat="45.91872382217835" lon="11.203818434385905"><ele>1369.0</ele><time>2026-04-12T07:27:59Z</time></trkpt><trkpt lat="45.91878461019631" lon="11.203993729261603"><ele>1369.0</ele><time>2026-04-12T07:28:00Z</time></trkpt><trkpt lat="45.918846485376015" lon="11.204171813075435"><ele>1367.0</ele><time>2026-04-12T07:28:01Z</time></trkpt><trkpt lat="45.91890702655402" lon="11.204352577290589"><ele>1365.0</ele><time>2026-04-12T07:28:02Z</time></trkpt><trkpt lat="45.91897139381463" lon="11.204541332540334"><ele>1363.0</ele><time>2026-04-12T07:28:03Z</time></trkpt><trkpt lat="45.91903490754294" lon="11.204730450630956"><ele>1361.0</ele><time>2026-04-12T07:28:03.999Z</time></trkpt><trkpt lat="45.91909977285975" lon="11.204915805464442"><ele>1360.0</ele><time>2026-04-12T07:28:04.999Z</time></trkpt><trkpt lat="45.919154491617874" lon="11.205076037829317"><ele>1359.0</ele><time>2026-04-12T07:28:05.999Z</time></trkpt><trkpt lat="45.91920421250056" lon="11.205218769595318"><ele>1358.0</ele><time>2026-04-12T07:28:06.999Z</time></trkpt><trkpt lat="45.91925085430913" lon="11.205346123054532"><ele>1357.0</ele><time>2026-04-12T07:28:07.999Z</time></trkpt><trkpt lat="45.91929173354161" lon="11.20547644911682"><ele>1356.0</ele><time>2026-04-12T07:28:08.999Z</time></trkpt><trkpt lat="45.9193328717223" lon="11.205589850348206"><ele>1356.3333333333333</ele><time>2026-04-12T07:28:09.999Z</time></trkpt><trkpt lat="45.91936831699015" lon="11.20569447234255"><ele>1356.6666666666667</ele><time>2026-04-12T07:28:10.999Z</time></trkpt><trkpt lat="45.91940534966586" lon="11.205797122186633"><ele>1357.0</ele><time>2026-04-12T07:28:11.999Z</time></trkpt><trkpt lat="45.919438017669876" lon="11.205893569990838"><ele>1357.3333333333335</ele><time>2026-04-12T07:28:12.999Z</time></trkpt><trkpt lat="45.919482488283535" lon="11.206024453991233"><ele>1357.6666666666667</ele><time>2026-04-12T07:28:14.999Z</time></trkpt><trkpt lat="45.919502816048585" lon="11.206124342443514"><ele>1358.0</ele><time>2026-04-12T07:28:16.999Z</time></trkpt><trkpt lat="45.91945846446252" lon="11.20621974361112"><ele>1358.0</ele><time>2026-04-12T07:28:19.999Z</time></trkpt><trkpt lat="45.91946946051503" lon="11.206129527408462"><ele>1358.0</ele><time>2026-04-12T07:30:03Z</time></trkpt><trkpt lat="45.91946858662945" lon="11.206230105117188"><ele>1358.0</ele><time>2026-04-12T07:30:05Z</time></trkpt><trkpt lat="45.91951803455639" lon="11.206321022484035"><ele>1358.0</ele><time>2026-04-12T07:30:07Z</time></trkpt><trkpt lat="45.919579636118556" lon="11.206382439370502"><ele>1358.0</ele><time>2026-04-12T07:30:08.999Z</time></trkpt><trkpt lat="45.91964010590628" lon="11.206441920251335"><ele>1358.0</ele><time>2026-04-12T07:30:10.999Z</time></trkpt><trkpt lat="45.919724202665705" lon="11.20656219242104"><ele>1357.0</ele><time>2026-04-12T07:30:12.999Z</time></trkpt><trkpt lat="45.91978193920351" lon="11.206626781652986"><ele>1356.0</ele><time>2026-04-12T07:30:13.999Z</time></trkpt><trkpt lat="45.91984126787299" lon="11.206697300855817"><ele>1355.0</ele><time>2026-04-12T07:30:14.999Z</time></trkpt><trkpt lat="45.919907418481145" lon="11.206777863651727"><ele>1354.0</ele><time>2026-04-12T07:30:15.999Z</time></trkpt><trkpt lat="45.91998597626852" lon="11.206867189779198"><ele>1353.0</ele><time>2026-04-12T07:30:16.999Z</time></trkpt><trkpt lat="45.92008102100265" lon="11.206957837418049"><ele>1350.0</ele><time>2026-04-12T07:30:17.999Z</time></trkpt><trkpt lat="45.92018121638196" lon="11.207051029696915"><ele>1347.0</ele><time>2026-04-12T07:30:18.999Z</time></trkpt><trkpt lat="45.92029491276831" lon="11.207159278831073"><ele>1344.0</ele><time>2026-04-12T07:30:19.999Z</time></trkpt><trkpt lat="45.92040015178283" lon="11.20727617627861"><ele>1341.0</ele><time>2026-04-12T07:30:20.999Z</time></trkpt><trkpt lat="45.9205109114531" lon="11.207392302352154"><ele>1341.0</ele><time>2026-04-12T07:30:21.999Z</time></trkpt><trkpt lat="45.92060783043916" lon="11.207489634744261"><ele>1341.0</ele><time>2026-04-12T07:30:22.999Z</time></trkpt><trkpt lat="45.92070392306374" lon="11.207575535399705"><ele>1341.0</ele><time>2026-04-12T07:30:23.999Z</time></trkpt><trkpt lat="45.92080372018861" lon="11.207632836639295"><ele>1341.0</ele><time>2026-04-12T07:30:24.999Z</time></trkpt><trkpt lat="45.92090743486429" lon="11.207653202718038"><ele>1341.0</ele><time>2026-04-12T07:30:25.999Z</time></trkpt><trkpt lat="45.9210248719314" lon="11.207630461281449"><ele>1340.0</ele><time>2026-04-12T07:30:26.999Z</time></trkpt><trkpt lat="45.92115838200385" lon="11.207560836982436"><ele>1339.0</ele><time>2026-04-12T07:30:27.999Z</time></trkpt><trkpt lat="45.921285375951605" lon="11.20746783619998"><ele>1338.0</ele><time>2026-04-12T07:30:28.999Z</time></trkpt><trkpt lat="45.92144442926594" lon="11.207390356983266"><ele>1338.0</ele><time>2026-04-12T07:30:29.999Z</time></trkpt><trkpt lat="45.921584485713474" lon="11.207347166055177"><ele>1338.0</ele><time>2026-04-12T07:30:30.999Z</time></trkpt><trkpt lat="45.92171326099069" lon="11.20735862502106"><ele>1338.0</ele><time>2026-04-12T07:30:31.999Z</time></trkpt><trkpt lat="45.921849083035156" lon="11.207389785656021"><ele>1338.0</ele><time>2026-04-12T07:30:32.999Z</time></trkpt><trkpt lat="45.92198221144814" lon="11.207474395852124"><ele>1340.6666666666667</ele><time>2026-04-12T07:30:33.999Z</time></trkpt><trkpt lat="45.92211147734046" lon="11.2075686609389"><ele>1343.3333333333335</ele><time>2026-04-12T07:30:34.999Z</time></trkpt><trkpt lat="45.92221959271592" lon="11.207761543322572"><ele>1346.0</ele><time>2026-04-12T07:30:35.999Z</time></trkpt><trkpt lat="45.922352950971856" lon="11.207949248430845"><ele>1338.6666666666667</ele><time>2026-04-12T07:30:36.999Z</time></trkpt><trkpt lat="45.92247683153267" lon="11.2081804249088"><ele>1331.3333333333333</ele><time>2026-04-12T07:30:37.999Z</time></trkpt><trkpt lat="45.922584004226735" lon="11.208385015016542"><ele>1324.0</ele><time>2026-04-12T07:30:38.999Z</time></trkpt><trkpt lat="45.922675564609094" lon="11.208545994635758"><ele>1323.8000000000002</ele><time>2026-04-12T07:30:39.999Z</time></trkpt><trkpt lat="45.922749470424" lon="11.208666225838568"><ele>1323.6000000000001</ele><time>2026-04-12T07:30:40.999Z</time></trkpt><trkpt lat="45.92283301274619" lon="11.208765995606292"><ele>1323.4</ele><time>2026-04-12T07:30:41.999Z</time></trkpt><trkpt lat="45.92293063854421" lon="11.208811710565096"><ele>1323.2</ele><time>2026-04-12T07:30:42.999Z</time></trkpt><trkpt lat="45.92303467370707" lon="11.208794257067503"><ele>1323.0</ele><time>2026-04-12T07:30:43.999Z</time></trkpt><trkpt lat="45.923125987948445" lon="11.20872895887292"><ele>1323.0</ele><time>2026-04-12T07:30:44.999Z</time></trkpt><trkpt lat="45.923216944589775" lon="11.208600632835475"><ele>1323.0</ele><time>2026-04-12T07:30:45.999Z</time></trkpt><trkpt lat="45.923280273285705" lon="11.208429036074355"><ele>1323.0</ele><time>2026-04-12T07:30:46.999Z</time></trkpt><trkpt lat="45.92331568187791" lon="11.208254089818855"><ele>1323.0</ele><time>2026-04-12T07:30:47.999Z</time></trkpt><trkpt lat="45.92336365652119" lon="11.208137896541897"><ele>1322.5</ele><time>2026-04-12T07:30:48.999Z</time></trkpt><trkpt lat="45.92339855946427" lon="11.208055133412659"><ele>1322.0</ele><time>2026-04-12T07:30:49.999Z</time></trkpt><trkpt lat="45.92344310255186" lon="11.207987531006196"><ele>1321.5</ele><time>2026-04-12T07:30:50.999Z</time></trkpt><trkpt lat="45.923520764874816" lon="11.207984319510745"><ele>1321.0</ele><time>2026-04-12T07:30:51.999Z</time></trkpt><trkpt lat="45.92359309985747" lon="11.208030301165156"><ele>1320.5</ele><time>2026-04-12T07:30:52.999Z</time></trkpt><trkpt lat="45.92365731968849" lon="11.208140701016545"><ele>1320.0</ele><time>2026-04-12T07:30:53.999Z</time></trkpt><trkpt lat="45.92370101944877" lon="11.208315807790909"><ele>1320.0</ele><time>2026-04-12T07:30:54.999Z</time></trkpt><trkpt lat="45.923758262882025" lon="11.20848279652919"><ele>1320.0</ele><time>2026-04-12T07:30:55.999Z</time></trkpt><trkpt lat="45.92383454555455" lon="11.208608687102842"><ele>1320.0</ele><time>2026-04-12T07:30:56.999Z</time></trkpt><trkpt lat="45.92393475677165" lon="11.208660677552569"><ele>1320.0</ele><time>2026-04-12T07:30:57.999Z</time></trkpt><trkpt lat="45.924043628910795" lon="11.20867904631286"><ele>1320.0</ele><time>2026-04-12T07:30:58.999Z</time></trkpt><trkpt lat="45.92416531773273" lon="11.208682498207734"><ele>1320.0</ele><time>2026-04-12T07:30:59.999Z</time></trkpt><trkpt lat="45.92429865891047" lon="11.208683243547345"><ele>1320.0</ele><time>2026-04-12T07:31:00.998Z</time></trkpt><trkpt lat="45.924437001796406" lon="11.208662139792228"><ele>1320.0</ele><time>2026-04-12T07:31:01.998Z</time></trkpt><trkpt lat="45.924558376901" lon="11.208669073901259"><ele>1321.4</ele><time>2026-04-12T07:31:02.998Z</time></trkpt><trkpt lat="45.92466746799065" lon="11.208698147115406"><ele>1322.8</ele><time>2026-04-12T07:31:03.998Z</time></trkpt><trkpt lat="45.92475543232321" lon="11.20871945816926"><ele>1324.1999999999998</ele><time>2026-04-12T07:31:04.998Z</time></trkpt><trkpt lat="45.92483269417798" lon="11.20876803380969"><ele>1325.6</ele><time>2026-04-12T07:31:05.998Z</time></trkpt><trkpt lat="45.92486279039683" lon="11.208900079226698"><ele>1327.0</ele><time>2026-04-12T07:31:06.998Z</time></trkpt><trkpt lat="45.92485020557391" lon="11.209044468111495"><ele>1322.5</ele><time>2026-04-12T07:31:07.998Z</time></trkpt><trkpt lat="45.92477871698709" lon="11.209167038935112"><ele>1318.0</ele><time>2026-04-12T07:31:08.998Z</time></trkpt><trkpt lat="45.92466158014059" lon="11.209266701804676"><ele>1313.5</ele><time>2026-04-12T07:31:09.998Z</time></trkpt><trkpt lat="45.924549470314616" lon="11.209368637976157"><ele>1309.0</ele><time>2026-04-12T07:31:10.998Z</time></trkpt><trkpt lat="45.924426601343356" lon="11.209441540330715"><ele>1309.0</ele><time>2026-04-12T07:31:11.998Z</time></trkpt><trkpt lat="45.924332739518945" lon="11.209555648925228"><ele>1309.0</ele><time>2026-04-12T07:31:12.998Z</time></trkpt><trkpt lat="45.92427164165619" lon="11.209703416134676"><ele>1309.0</ele><time>2026-04-12T07:31:13.998Z</time></trkpt><trkpt lat="45.924237061274496" lon="11.20988574963203"><ele>1309.0</ele><time>2026-04-12T07:31:14.998Z</time></trkpt><trkpt lat="45.924234317491276" lon="11.210117458251997"><ele>1306.6666666666665</ele><time>2026-04-12T07:31:15.998Z</time></trkpt><trkpt lat="45.924244535574935" lon="11.210375349273512"><ele>1304.3333333333333</ele><time>2026-04-12T07:31:16.998Z</time></trkpt><trkpt lat="45.92426493853575" lon="11.210658343005438"><ele>1302.0</ele><time>2026-04-12T07:31:17.998Z</time></trkpt><trkpt lat="45.924277662527075" lon="11.210942790926905"><ele>1300.3333333333333</ele><time>2026-04-12T07:31:18.998Z</time></trkpt><trkpt lat="45.92428358012693" lon="11.211231167279466"><ele>1298.6666666666665</ele><time>2026-04-12T07:31:19.998Z</time></trkpt><trkpt lat="45.92429636572282" lon="11.21150906543729"><ele>1297.0</ele><time>2026-04-12T07:31:20.998Z</time></trkpt><trkpt lat="45.92430787800035" lon="11.211780276913649"><ele>1296.3333333333333</ele><time>2026-04-12T07:31:21.998Z</time></trkpt><trkpt lat="45.92431824612602" lon="11.212049428432985"><ele>1295.6666666666667</ele><time>2026-04-12T07:31:22.998Z</time></trkpt><trkpt lat="45.92433076092927" lon="11.212328518853186"><ele>1295.0</ele><time>2026-04-12T07:31:23.998Z</time></trkpt><trkpt lat="45.924340206569006" lon="11.212608697526393"><ele>1292.6666666666667</ele><time>2026-04-12T07:31:24.998Z</time></trkpt><trkpt lat="45.92434970904581" lon="11.212884584349517"><ele>1290.3333333333333</ele><time>2026-04-12T07:31:25.998Z</time></trkpt><trkpt lat="45.92436125237286" lon="11.213163272660166"><ele>1288.0</ele><time>2026-04-12T07:31:26.998Z</time></trkpt><trkpt lat="45.924373771568526" lon="11.213442954814086"><ele>1287.3333333333333</ele><time>2026-04-12T07:31:27.998Z</time></trkpt><trkpt lat="45.924384128154585" lon="11.213725961044029"><ele>1286.6666666666667</ele><time>2026-04-12T07:31:28.998Z</time></trkpt><trkpt lat="45.92439440737896" lon="11.214002897934378"><ele>1286.0</ele><time>2026-04-12T07:31:29.998Z</time></trkpt><trkpt lat="45.924403195907686" lon="11.214267831143232"><ele>1282.6666666666667</ele><time>2026-04-12T07:31:30.998Z</time></trkpt><trkpt lat="45.92441495245951" lon="11.214526141838286"><ele>1279.3333333333333</ele><time>2026-04-12T07:31:31.998Z</time></trkpt><trkpt lat="45.92442410565407" lon="11.214781372622017"><ele>1276.0</ele><time>2026-04-12T07:31:32.998Z</time></trkpt><trkpt lat="45.92443206417537" lon="11.215033511668052"><ele>1273.0</ele><time>2026-04-12T07:31:33.998Z</time></trkpt><trkpt lat="45.92444027019377" lon="11.21528169440598"><ele>1270.0</ele><time>2026-04-12T07:31:34.998Z</time></trkpt><trkpt lat="45.924450261403464" lon="11.215530881357997"><ele>1267.0</ele><time>2026-04-12T07:31:36Z</time></trkpt><trkpt lat="45.92446180398905" lon="11.215767589344457"><ele>1265.5</ele><time>2026-04-12T07:31:37Z</time></trkpt><trkpt lat="45.924477501450916" lon="11.215980836561243"><ele>1264.0</ele><time>2026-04-12T07:31:38Z</time></trkpt><trkpt lat="45.924509349761514" lon="11.216166929582025"><ele>1262.5</ele><time>2026-04-12T07:31:39Z</time></trkpt><trkpt lat="45.92458077727329" lon="11.216334070579292"><ele>1261.0</ele><time>2026-04-12T07:31:40Z</time></trkpt><trkpt lat="45.924673100275434" lon="11.216476382005135"><ele>1261.5</ele><time>2026-04-12T07:31:41Z</time></trkpt><trkpt lat="45.924789198089556" lon="11.216586525945784"><ele>1262.0</ele><time>2026-04-12T07:31:42Z</time></trkpt><trkpt lat="45.924907155328384" lon="11.216662098078066"><ele>1262.5</ele><time>2026-04-12T07:31:43Z</time></trkpt><trkpt lat="45.925020772429555" lon="11.21674414575444"><ele>1263.0</ele><time>2026-04-12T07:31:44Z</time></trkpt><trkpt lat="45.9251215721354" lon="11.2168369282336"><ele>1263.0</ele><time>2026-04-12T07:31:45Z</time></trkpt><trkpt lat="45.92520575550962" lon="11.216909868134266"><ele>1263.0</ele><time>2026-04-12T07:31:46Z</time></trkpt><trkpt lat="45.92527379301356" lon="11.216973820225716"><ele>1263.0</ele><time>2026-04-12T07:31:47Z</time></trkpt><trkpt lat="45.92530069269909" lon="11.217151532499281"><ele>1263.0</ele><time>2026-04-12T07:31:49Z</time></trkpt><trkpt lat="45.925246607315934" lon="11.217229849323486"><ele>1263.0</ele><time>2026-04-12T07:31:50Z</time></trkpt><trkpt lat="45.92516486061176" lon="11.217249623686744"><ele>1263.0</ele><time>2026-04-12T07:31:51Z</time></trkpt><trkpt lat="45.92506938340433" lon="11.217153592019441"><ele>1263.0</ele><time>2026-04-12T07:31:52Z</time></trkpt><trkpt lat="45.92494233246171" lon="11.217062429801356"><ele>1263.0</ele><time>2026-04-12T07:31:53Z</time></trkpt><trkpt lat="45.92480907240273" lon="11.21692539256108"><ele>1263.0</ele><time>2026-04-12T07:31:54Z</time></trkpt><trkpt lat="45.92467013822796" lon="11.216820577445548"><ele>1259.25</ele><time>2026-04-12T07:31:55Z</time></trkpt><trkpt lat="45.9245492315031" lon="11.216711291643005"><ele>1255.5</ele><time>2026-04-12T07:31:56Z</time></trkpt><trkpt lat="45.92443416580399" lon="11.216623024202"><ele>1251.75</ele><time>2026-04-12T07:31:57Z</time></trkpt><trkpt lat="45.924314209761086" lon="11.21656952128415"><ele>1248.0</ele><time>2026-04-12T07:31:58Z</time></trkpt><trkpt lat="45.92419082282046" lon="11.216545159412224"><ele>1247.4</ele><time>2026-04-12T07:31:59Z</time></trkpt><trkpt lat="45.92407341132517" lon="11.216536998660203"><ele>1246.8</ele><time>2026-04-12T07:32:00Z</time></trkpt><trkpt lat="45.92396438384035" lon="11.216496448185273"><ele>1246.2</ele><time>2026-04-12T07:32:01Z</time></trkpt><trkpt lat="45.92387691267963" lon="11.216419589267682"><ele>1245.6</ele><time>2026-04-12T07:32:02Z</time></trkpt><trkpt lat="45.92380776745427" lon="11.216322083488919"><ele>1245.0</ele><time>2026-04-12T07:32:03Z</time></trkpt><trkpt lat="45.923754125334085" lon="11.216244413240078"><ele>1245.0</ele><time>2026-04-12T07:32:04Z</time></trkpt><trkpt lat="45.92366329989064" lon="11.216195652653449"><ele>1245.0</ele><time>2026-04-12T07:32:06Z</time></trkpt><trkpt lat="45.92359270540252" lon="11.2163742377795"><ele>1245.0</ele><time>2026-04-12T07:32:07Z</time></trkpt><trkpt lat="45.92361045153608" lon="11.216518967166559"><ele>1245.0</ele><time>2026-04-12T07:32:08Z</time></trkpt><trkpt lat="45.923712106375966" lon="11.216623825075484"><ele>1240.5</ele><time>2026-04-12T07:32:09Z</time></trkpt><trkpt lat="45.92382223082983" lon="11.216704830744948"><ele>1236.0</ele><time>2026-04-12T07:32:10Z</time></trkpt><trkpt lat="45.923938156233945" lon="11.216778783432014"><ele>1231.5</ele><time>2026-04-12T07:32:11Z</time></trkpt><trkpt lat="45.924062781817575" lon="11.216841666261622"><ele>1227.0</ele><time>2026-04-12T07:32:12Z</time></trkpt><trkpt lat="45.92419074218984" lon="11.216905281451616"><ele>1228.25</ele><time>2026-04-12T07:32:13Z</time></trkpt><trkpt lat="45.92429685609832" lon="11.216988180322065"><ele>1229.5</ele><time>2026-04-12T07:32:14Z</time></trkpt><trkpt lat="45.924356403502806" lon="11.217146212226181"><ele>1230.75</ele><time>2026-04-12T07:32:15Z</time></trkpt><trkpt lat="45.92443235661272" lon="11.217310175934275"><ele>1232.0</ele><time>2026-04-12T07:32:15.999Z</time></trkpt><trkpt lat="45.92451835082254" lon="11.217473541420139"><ele>1232.0</ele><time>2026-04-12T07:32:16.999Z</time></trkpt><trkpt lat="45.92459435408284" lon="11.217639063128976"><ele>1232.0</ele><time>2026-04-12T07:32:17.999Z</time></trkpt><trkpt lat="45.92462056150896" lon="11.217815900885723"><ele>1232.0</ele><time>2026-04-12T07:32:18.999Z</time></trkpt><trkpt lat="45.92462280014058" lon="11.21799346485046"><ele>1232.0</ele><time>2026-04-12T07:32:19.999Z</time></trkpt><trkpt lat="45.92464525520785" lon="11.218161213893527"><ele>1228.0</ele><time>2026-04-12T07:32:20.999Z</time></trkpt><trkpt lat="45.924681703577875" lon="11.218306036237365"><ele>1224.0</ele><time>2026-04-12T07:32:21.999Z</time></trkpt><trkpt lat="45.92476479003378" lon="11.21842623337008"><ele>1220.0</ele><time>2026-04-12T07:32:22.999Z</time></trkpt><trkpt lat="45.92489004474682" lon="11.21852018983936"><ele>1216.0</ele><time>2026-04-12T07:32:23.999Z</time></trkpt><trkpt lat="45.92503248240736" lon="11.218600988060917"><ele>1219.0</ele><time>2026-04-12T07:32:24.999Z</time></trkpt><trkpt lat="45.92516541285887" lon="11.218701483509337"><ele>1222.0</ele><time>2026-04-12T07:32:25.999Z</time></trkpt><trkpt lat="45.925302010400976" lon="11.218814102888649"><ele>1225.0</ele><time>2026-04-12T07:32:26.999Z</time></trkpt><trkpt lat="45.92544828964388" lon="11.21890778428357"><ele>1220.5</ele><time>2026-04-12T07:32:27.999Z</time></trkpt><trkpt lat="45.925586729706694" lon="11.21898771139858"><ele>1216.0</ele><time>2026-04-12T07:32:28.999Z</time></trkpt><trkpt lat="45.9257274136997" lon="11.219061281952314"><ele>1211.5</ele><time>2026-04-12T07:32:29.999Z</time></trkpt><trkpt lat="45.925849080112556" lon="11.219122098950804"><ele>1207.0</ele><time>2026-04-12T07:32:30.999Z</time></trkpt><trkpt lat="45.925969307274194" lon="11.21917134020516"><ele>1207.0</ele><time>2026-04-12T07:32:31.999Z</time></trkpt><trkpt lat="45.926078529346135" lon="11.219163382607361"><ele>1207.0</ele><time>2026-04-12T07:32:32.999Z</time></trkpt><trkpt lat="45.92618792137704" lon="11.219127145848855"><ele>1207.0</ele><time>2026-04-12T07:32:33.999Z</time></trkpt><trkpt lat="45.92629891273939" lon="11.21911377683971"><ele>1207.0</ele><time>2026-04-12T07:32:34.999Z</time></trkpt><trkpt lat="45.926414431176234" lon="11.219164415132376"><ele>1207.0</ele><time>2026-04-12T07:32:35.999Z</time></trkpt><trkpt lat="45.92652784642728" lon="11.219260608521882"><ele>1207.0</ele><time>2026-04-12T07:32:36.999Z</time></trkpt><trkpt lat="45.92663713484168" lon="11.219378886519223"><ele>1207.0</ele><time>2026-04-12T07:32:37.999Z</time></trkpt><trkpt lat="45.92675225543766" lon="11.219497296759418"><ele>1207.0</ele><time>2026-04-12T07:32:38.999Z</time></trkpt><trkpt lat="45.9268681922158" lon="11.219597340098774"><ele>1211.3333333333333</ele><time>2026-04-12T07:32:39.999Z</time></trkpt><trkpt lat="45.92699939938036" lon="11.219674229220933"><ele>1215.6666666666667</ele><time>2026-04-12T07:32:40.999Z</time></trkpt><trkpt lat="45.92714810738572" lon="11.21972010774874"><ele>1220.0</ele><time>2026-04-12T07:32:41.999Z</time></trkpt><trkpt lat="45.927304697944116" lon="11.219744968495135"><ele>1220.0</ele><time>2026-04-12T07:32:42.999Z</time></trkpt><trkpt lat="45.92745913056559" lon="11.21976989229103"><ele>1220.0</ele><time>2026-04-12T07:32:43.999Z</time></trkpt><trkpt lat="45.92760912675959" lon="11.219798165472636"><ele>1220.0</ele><time>2026-04-12T07:32:44.999Z</time></trkpt><trkpt lat="45.92775540885261" lon="11.219812916916517"><ele>1210.5</ele><time>2026-04-12T07:32:45.999Z</time></trkpt><trkpt lat="45.9278975562728" lon="11.219823424149409"><ele>1201.0</ele><time>2026-04-12T07:32:46.999Z</time></trkpt><trkpt lat="45.92803001358859" lon="11.219863629534892"><ele>1191.5</ele><time>2026-04-12T07:32:47.999Z</time></trkpt><trkpt lat="45.92815622420087" lon="11.219859566812243"><ele>1182.0</ele><time>2026-04-12T07:32:48.999Z</time></trkpt><trkpt lat="45.92826652424032" lon="11.21989761598324"><ele>1182.0</ele><time>2026-04-12T07:32:49.999Z</time></trkpt><trkpt lat="45.92837361677673" lon="11.219973482134684"><ele>1182.0</ele><time>2026-04-12T07:32:50.999Z</time></trkpt><trkpt lat="45.928432469505005" lon="11.220138194620322"><ele>1182.0</ele><time>2026-04-12T07:32:51.999Z</time></trkpt><trkpt lat="45.928518134220205" lon="11.220301808492993"><ele>1182.0</ele><time>2026-04-12T07:32:52.999Z</time></trkpt><trkpt lat="45.92857593349945" lon="11.220486464224951"><ele>1179.75</ele><time>2026-04-12T07:32:53.999Z</time></trkpt><trkpt lat="45.92865293867917" lon="11.220636908829189"><ele>1177.5</ele><time>2026-04-12T07:32:54.999Z</time></trkpt><trkpt lat="45.92876935387134" lon="11.220755348316782"><ele>1175.25</ele><time>2026-04-12T07:32:55.999Z</time></trkpt><trkpt lat="45.92890513633115" lon="11.220854726293867"><ele>1173.0</ele><time>2026-04-12T07:32:56.999Z</time></trkpt><trkpt lat="45.92903944097229" lon="11.220936814766397"><ele>1173.0</ele><time>2026-04-12T07:32:57.999Z</time></trkpt><trkpt lat="45.929164015205416" lon="11.221024343931248"><ele>1173.0</ele><time>2026-04-12T07:32:58.999Z</time></trkpt><trkpt lat="45.92927569064445" lon="11.221142003540173"><ele>1173.0</ele><time>2026-04-12T07:32:59.999Z</time></trkpt><trkpt lat="45.92937039249705" lon="11.221292456980956"><ele>1173.0</ele><time>2026-04-12T07:33:00.999Z</time></trkpt><trkpt lat="45.92946498571881" lon="11.221406380339683"><ele>1170.25</ele><time>2026-04-12T07:33:01.999Z</time></trkpt><trkpt lat="45.92954292603481" lon="11.221537113065391"><ele>1167.5</ele><time>2026-04-12T07:33:02.999Z</time></trkpt><trkpt lat="45.929601469154335" lon="11.221678763446373"><ele>1164.75</ele><time>2026-04-12T07:33:03.999Z</time></trkpt><trkpt lat="45.929665253770686" lon="11.221842731170463"><ele>1162.0</ele><time>2026-04-12T07:33:04.999Z</time></trkpt><trkpt lat="45.92972964094899" lon="11.222017842368393"><ele>1162.0</ele><time>2026-04-12T07:33:05.999Z</time></trkpt><trkpt lat="45.929796502486006" lon="11.222205950627629"><ele>1162.0</ele><time>2026-04-12T07:33:06.999Z</time></trkpt><trkpt lat="45.92987077469405" lon="11.222408538017392"><ele>1162.0</ele><time>2026-04-12T07:33:07.998Z</time></trkpt><trkpt lat="45.92994460444648" lon="11.222617535742927"><ele>1161.5</ele><time>2026-04-12T07:33:08.998Z</time></trkpt><trkpt lat="45.93001846557075" lon="11.222823614537962"><ele>1161.0</ele><time>2026-04-12T07:33:09.998Z</time></trkpt><trkpt lat="45.930080565546824" lon="11.223008393254851"><ele>1160.5</ele><time>2026-04-12T07:33:10.998Z</time></trkpt><trkpt lat="45.930140482567055" lon="11.223175276866904"><ele>1160.0</ele><time>2026-04-12T07:33:11.998Z</time></trkpt><trkpt lat="45.93019680145683" lon="11.22332009990809"><ele>1157.4</ele><time>2026-04-12T07:33:12.998Z</time></trkpt><trkpt lat="45.930255278044136" lon="11.223438358561"><ele>1154.8</ele><time>2026-04-12T07:33:13.998Z</time></trkpt><trkpt lat="45.93034093650891" lon="11.223518078072713"><ele>1152.2</ele><time>2026-04-12T07:33:14.998Z</time></trkpt><trkpt lat="45.93044503829329" lon="11.223567854372481"><ele>1149.6</ele><time>2026-04-12T07:33:15.998Z</time></trkpt><trkpt lat="45.930568402914616" lon="11.223566738340706"><ele>1147.0</ele><time>2026-04-12T07:33:16.998Z</time></trkpt><trkpt lat="45.93068893381453" lon="11.223522641570971"><ele>1147.0</ele><time>2026-04-12T07:33:17.998Z</time></trkpt><trkpt lat="45.930809299746564" lon="11.22347858315104"><ele>1147.0</ele><time>2026-04-12T07:33:18.998Z</time></trkpt><trkpt lat="45.9309291096905" lon="11.223441252431149"><ele>1147.0</ele><time>2026-04-12T07:33:19.998Z</time></trkpt><trkpt lat="45.93103968342841" lon="11.22341447726259"><ele>1147.0</ele><time>2026-04-12T07:33:20.998Z</time></trkpt><trkpt lat="45.93111805066906" lon="11.223428881618053"><ele>1147.0</ele><time>2026-04-12T07:33:21.998Z</time></trkpt><trkpt lat="45.93119614146842" lon="11.223408636055074"><ele>1145.0</ele><time>2026-04-12T07:33:22.998Z</time></trkpt><trkpt lat="45.93125889230627" lon="11.223461123554797"><ele>1143.0</ele><time>2026-04-12T07:33:23.998Z</time></trkpt><trkpt lat="45.93129485946328" lon="11.223566886429296"><ele>1141.0</ele><time>2026-04-12T07:33:24.998Z</time></trkpt><trkpt lat="45.93127966089712" lon="11.22368447993925"><ele>1139.0</ele><time>2026-04-12T07:33:25.998Z</time></trkpt><trkpt lat="45.93122051547398" lon="11.223778740772378"><ele>1137.0</ele><time>2026-04-12T07:33:26.998Z</time></trkpt><trkpt lat="45.93111665863081" lon="11.223806438476764"><ele>1135.0</ele><time>2026-04-12T07:33:27.998Z</time></trkpt><trkpt lat="45.93101643248172" lon="11.22386860816332"><ele>1135.0</ele><time>2026-04-12T07:33:28.998Z</time></trkpt><trkpt lat="45.93091911597914" lon="11.223940501451986"><ele>1135.0</ele><time>2026-04-12T07:33:29.998Z</time></trkpt><trkpt lat="45.930811280855615" lon="11.22400385653487"><ele>1135.0</ele><time>2026-04-12T07:33:30.998Z</time></trkpt><trkpt lat="45.93070149654288" lon="11.224081188685568"><ele>1135.0</ele><time>2026-04-12T07:33:31.998Z</time></trkpt><trkpt lat="45.93059192189174" lon="11.22415051485026"><ele>1134.2</ele><time>2026-04-12T07:33:32.998Z</time></trkpt><trkpt lat="45.930499136074125" lon="11.22420228493999"><ele>1133.4</ele><time>2026-04-12T07:33:33.998Z</time></trkpt><trkpt lat="45.930432503173556" lon="11.224281552902362"><ele>1132.6</ele><time>2026-04-12T07:33:34.998Z</time></trkpt><trkpt lat="45.93040143586127" lon="11.224397705199697"><ele>1131.8</ele><time>2026-04-12T07:33:35.998Z</time></trkpt><trkpt lat="45.93041149191289" lon="11.224518836169722"><ele>1131.0</ele><time>2026-04-12T07:33:36.998Z</time></trkpt><trkpt lat="45.93045470946264" lon="11.224640204248045"><ele>1131.0</ele><time>2026-04-12T07:33:37.998Z</time></trkpt><trkpt lat="45.93057471658386" lon="11.22468902014621"><ele>1131.0</ele><time>2026-04-12T07:33:38.998Z</time></trkpt><trkpt lat="45.930727351841824" lon="11.224709702064137"><ele>1131.0</ele><time>2026-04-12T07:33:39.998Z</time></trkpt><trkpt lat="45.93086577469674" lon="11.224717062530662"><ele>1131.0</ele><time>2026-04-12T07:33:40.998Z</time></trkpt><trkpt lat="45.93098488368721" lon="11.224742988887423"><ele>1128.0</ele><time>2026-04-12T07:33:42Z</time></trkpt><trkpt lat="45.93109140197082" lon="11.224806196176354"><ele>1125.0</ele><time>2026-04-12T07:33:43Z</time></trkpt><trkpt lat="45.93117189041795" lon="11.224922129684082"><ele>1122.0</ele><time>2026-04-12T07:33:44Z</time></trkpt><trkpt lat="45.931270388304966" lon="11.22501036706783"><ele>1119.0</ele><time>2026-04-12T07:33:45Z</time></trkpt><trkpt lat="45.931362719609545" lon="11.225129152478516"><ele>1117.2</ele><time>2026-04-12T07:33:46Z</time></trkpt><trkpt lat="45.931453067450136" lon="11.225235733034001"><ele>1115.4</ele><time>2026-04-12T07:33:47Z</time></trkpt><trkpt lat="45.931513903701976" lon="11.225362961801276"><ele>1113.6</ele><time>2026-04-12T07:33:48Z</time></trkpt><trkpt lat="45.93157702865931" lon="11.22548902066254"><ele>1111.8</ele><time>2026-04-12T07:33:49Z</time></trkpt><trkpt lat="45.93159208974521" lon="11.225645435746618"><ele>1110.0</ele><time>2026-04-12T07:33:50Z</time></trkpt><trkpt lat="45.931589251762205" lon="11.225789390092032"><ele>1110.0</ele><time>2026-04-12T07:33:51Z</time></trkpt><trkpt lat="45.93159002135954" lon="11.225908929049908"><ele>1110.0</ele><time>2026-04-12T07:33:52Z</time></trkpt><trkpt lat="45.9316229900943" lon="11.226000068907032"><ele>1110.0</ele><time>2026-04-12T07:33:53Z</time></trkpt><trkpt lat="45.931687105466615" lon="11.226058136023372"><ele>1110.0</ele><time>2026-04-12T07:33:54Z</time></trkpt><trkpt lat="45.93177132882373" lon="11.226072236217885"><ele>1110.0</ele><time>2026-04-12T07:33:55Z</time></trkpt><trkpt lat="45.93185388621003" lon="11.22602552254885"><ele>1110.0</ele><time>2026-04-12T07:33:56Z</time></trkpt><trkpt lat="45.93191988016563" lon="11.225924327831457"><ele>1107.0</ele><time>2026-04-12T07:33:57Z</time></trkpt><trkpt lat="45.93195869045188" lon="11.225776447794235"><ele>1104.0</ele><time>2026-04-12T07:33:58Z</time></trkpt><trkpt lat="45.93198355331777" lon="11.225629951519615"><ele>1101.0</ele><time>2026-04-12T07:33:59Z</time></trkpt><trkpt lat="45.93200651597651" lon="11.225480271504763"><ele>1098.0</ele><time>2026-04-12T07:34:00Z</time></trkpt><trkpt lat="45.93202785805733" lon="11.225332250158939"><ele>1095.0</ele><time>2026-04-12T07:34:01Z</time></trkpt><trkpt lat="45.93203495436529" lon="11.225199502334528"><ele>1095.0</ele><time>2026-04-12T07:34:02Z</time></trkpt><trkpt lat="45.9320333510158" lon="11.225067843694683"><ele>1095.0</ele><time>2026-04-12T07:34:03Z</time></trkpt><trkpt lat="45.932043348657665" lon="11.224956014358337"><ele>1095.0</ele><time>2026-04-12T07:34:04Z</time></trkpt><trkpt lat="45.932089115123425" lon="11.224865574045056"><ele>1095.0</ele><time>2026-04-12T07:34:05Z</time></trkpt><trkpt lat="45.93215843450967" lon="11.224798490043737"><ele>1095.0</ele><time>2026-04-12T07:34:06Z</time></trkpt><trkpt lat="45.932257339684476" lon="11.224781565263012"><ele>1095.0</ele><time>2026-04-12T07:34:07Z</time></trkpt><trkpt lat="45.93235296237142" lon="11.224859768319517"><ele>1095.0</ele><time>2026-04-12T07:34:08Z</time></trkpt><trkpt lat="45.932463731303436" lon="11.224903616719919"><ele>1095.0</ele><time>2026-04-12T07:34:09Z</time></trkpt><trkpt lat="45.932580220062775" lon="11.224936914383335"><ele>1095.0</ele><time>2026-04-12T07:34:10Z</time></trkpt><trkpt lat="45.93269115476115" lon="11.224983049794984"><ele>1095.0</ele><time>2026-04-12T07:34:11Z</time></trkpt><trkpt lat="45.93279208897474" lon="11.225029435818136"><ele>1092.6</ele><time>2026-04-12T07:34:12Z</time></trkpt><trkpt lat="45.9328840868559" lon="11.225060794122696"><ele>1090.2</ele><time>2026-04-12T07:34:13Z</time></trkpt><trkpt lat="45.93295115433759" lon="11.225137283978562"><ele>1087.8</ele><time>2026-04-12T07:34:14Z</time></trkpt><trkpt lat="45.93298260252976" lon="11.225268344536095"><ele>1085.4</ele><time>2026-04-12T07:34:15Z</time></trkpt><trkpt lat="45.933030190659096" lon="11.225407120352234"><ele>1083.0</ele><time>2026-04-12T07:34:16Z</time></trkpt><trkpt lat="45.933068499453015" lon="11.225559009271713"><ele>1083.4</ele><time>2026-04-12T07:34:17Z</time></trkpt><trkpt lat="45.933108662177254" lon="11.225707024414731"><ele>1083.8</ele><time>2026-04-12T07:34:18Z</time></trkpt><trkpt lat="45.9331469442136" lon="11.225838255337555"><ele>1084.2</ele><time>2026-04-12T07:34:19Z</time></trkpt><trkpt lat="45.933192862148886" lon="11.225966876223055"><ele>1084.6</ele><time>2026-04-12T07:34:20Z</time></trkpt><trkpt lat="45.93326232345493" lon="11.22607797479571"><ele>1085.0</ele><time>2026-04-12T07:34:21Z</time></trkpt><trkpt lat="45.93335608449347" lon="11.226149541054248"><ele>1083.0</ele><time>2026-04-12T07:34:21.999Z</time></trkpt><trkpt lat="45.93346418661198" lon="11.22617745040881"><ele>1081.0</ele><time>2026-04-12T07:34:22.999Z</time></trkpt><trkpt lat="45.93357883257394" lon="11.226187167454302"><ele>1079.0</ele><time>2026-04-12T07:34:23.999Z</time></trkpt><trkpt lat="45.933695185825684" lon="11.226217695641603"><ele>1077.0</ele><time>2026-04-12T07:34:24.999Z</time></trkpt><trkpt lat="45.93381526111667" lon="11.226264730514405"><ele>1077.0</ele><time>2026-04-12T07:34:25.999Z</time></trkpt><trkpt lat="45.93393450579432" lon="11.226342448996949"><ele>1077.0</ele><time>2026-04-12T07:34:26.999Z</time></trkpt><trkpt lat="45.934060138022325" lon="11.226416813785006"><ele>1077.0</ele><time>2026-04-12T07:34:27.999Z</time></trkpt><trkpt lat="45.934184721261666" lon="11.226499720129109"><ele>1077.0</ele><time>2026-04-12T07:34:28.999Z</time></trkpt><trkpt lat="45.93431707086823" lon="11.226561833979952"><ele>1076.0</ele><time>2026-04-12T07:34:29.999Z</time></trkpt><trkpt lat="45.93445665677722" lon="11.22660993838736"><ele>1075.0</ele><time>2026-04-12T07:34:30.999Z</time></trkpt><trkpt lat="45.93460911520317" lon="11.226646738522343"><ele>1074.0</ele><time>2026-04-12T07:34:31.999Z</time></trkpt><trkpt lat="45.93473866335743" lon="11.226688545548397"><ele>1073.0</ele><time>2026-04-12T07:34:32.999Z</time></trkpt><trkpt lat="45.93486263190467" lon="11.226717315042817"><ele>1073.0</ele><time>2026-04-12T07:34:33.999Z</time></trkpt><trkpt lat="45.934987322247515" lon="11.226746789975818"><ele>1073.0</ele><time>2026-04-12T07:34:34.999Z</time></trkpt><trkpt lat="45.935103681607586" lon="11.226782494602963"><ele>1073.0</ele><time>2026-04-12T07:34:35.999Z</time></trkpt><trkpt lat="45.935225981372334" lon="11.226816911012703"><ele>1073.0</ele><time>2026-04-12T07:34:36.999Z</time></trkpt><trkpt lat="45.93535489801963" lon="11.226848295543729"><ele>1071.75</ele><time>2026-04-12T07:34:37.999Z</time></trkpt><trkpt lat="45.93547708877867" lon="11.226903984682572"><ele>1070.5</ele><time>2026-04-12T07:34:38.999Z</time></trkpt><trkpt lat="45.93560534633359" lon="11.226958136723102"><ele>1069.25</ele><time>2026-04-12T07:34:39.999Z</time></trkpt><trkpt lat="45.93571850903225" lon="11.226993812005865"><ele>1068.0</ele><time>2026-04-12T07:34:40.999Z</time></trkpt><trkpt lat="45.93583639825297" lon="11.22704131276621"><ele>1068.6</ele><time>2026-04-12T07:34:41.999Z</time></trkpt><trkpt lat="45.93594362864823" lon="11.227082602947043"><ele>1069.1999999999998</ele><time>2026-04-12T07:34:42.999Z</time></trkpt><trkpt lat="45.93604935584617" lon="11.227105922147496"><ele>1069.8</ele><time>2026-04-12T07:34:43.999Z</time></trkpt><trkpt lat="45.936151695645144" lon="11.227073132937793"><ele>1070.3999999999999</ele><time>2026-04-12T07:34:44.999Z</time></trkpt><trkpt lat="45.93625737679528" lon="11.226990530294525"><ele>1071.0</ele><time>2026-04-12T07:34:45.999Z</time></trkpt><trkpt lat="45.936383136862005" lon="11.2269376012983"><ele>1071.0</ele><time>2026-04-12T07:34:46.999Z</time></trkpt><trkpt lat="45.93650135761626" lon="11.226846126146306"><ele>1071.0</ele><time>2026-04-12T07:34:47.999Z</time></trkpt><trkpt lat="45.93663375317175" lon="11.226796670037599"><ele>1071.0</ele><time>2026-04-12T07:34:48.999Z</time></trkpt><trkpt lat="45.936773626443674" lon="11.226721238497925"><ele>1071.0</ele><time>2026-04-12T07:34:49.999Z</time></trkpt><trkpt lat="45.93690435914024" lon="11.226654556333827"><ele>1069.25</ele><time>2026-04-12T07:34:50.999Z</time></trkpt><trkpt lat="45.93702728498523" lon="11.226582961134262"><ele>1067.5</ele><time>2026-04-12T07:34:51.999Z</time></trkpt><trkpt lat="45.937150466036364" lon="11.22657185897985"><ele>1065.75</ele><time>2026-04-12T07:34:52.999Z</time></trkpt><trkpt lat="45.93725919303312" lon="11.226593151713827"><ele>1064.0</ele><time>2026-04-12T07:34:53.999Z</time></trkpt><trkpt lat="45.93735019006911" lon="11.2266548265664"><ele>1064.0</ele><time>2026-04-12T07:34:54.999Z</time></trkpt><trkpt lat="45.93741857692565" lon="11.226782132980867"><ele>1064.0</ele><time>2026-04-12T07:34:55.999Z</time></trkpt><trkpt lat="45.93745663336058" lon="11.226962472932964"><ele>1064.0</ele><time>2026-04-12T07:34:56.999Z</time></trkpt><trkpt lat="45.93751605726126" lon="11.227182290041375"><ele>1064.0</ele><time>2026-04-12T07:34:57.999Z</time></trkpt><trkpt lat="45.93753946790271" lon="11.227438462311204"><ele>1063.25</ele><time>2026-04-12T07:34:58.999Z</time></trkpt><trkpt lat="45.93758123470182" lon="11.227640005619133"><ele>1062.5</ele><time>2026-04-12T07:34:59.999Z</time></trkpt><trkpt lat="45.93762832785417" lon="11.227842175925526"><ele>1061.75</ele><time>2026-04-12T07:35:00.999Z</time></trkpt><trkpt lat="45.93771668771353" lon="11.22801537488484"><ele>1061.0</ele><time>2026-04-12T07:35:01.999Z</time></trkpt><trkpt lat="45.93783982733487" lon="11.228178192715623"><ele>1061.0</ele><time>2026-04-12T07:35:02.999Z</time></trkpt><trkpt lat="45.93796341636237" lon="11.228344925815865"><ele>1061.0</ele><time>2026-04-12T07:35:03.999Z</time></trkpt><trkpt lat="45.938084223799414" lon="11.228504362175137"><ele>1061.0</ele><time>2026-04-12T07:35:04.999Z</time></trkpt><trkpt lat="45.938228338942025" lon="11.228663636525052"><ele>1061.0</ele><time>2026-04-12T07:35:05.999Z</time></trkpt><trkpt lat="45.93837933942917" lon="11.228830053846924"><ele>1061.0</ele><time>2026-04-12T07:35:06.999Z</time></trkpt><trkpt lat="45.93854634607282" lon="11.228970935564591"><ele>1061.0</ele><time>2026-04-12T07:35:07.999Z</time></trkpt><trkpt lat="45.938724016103755" lon="11.229092675203928"><ele>1061.6666666666667</ele><time>2026-04-12T07:35:08.999Z</time></trkpt><trkpt lat="45.93890812382527" lon="11.229201575190405"><ele>1062.3333333333333</ele><time>2026-04-12T07:35:09.999Z</time></trkpt><trkpt lat="45.93908398810417" lon="11.229342545169859"><ele>1063.0</ele><time>2026-04-12T07:35:10.999Z</time></trkpt><trkpt lat="45.939262778690924" lon="11.229472225124196"><ele>1063.6666666666665</ele><time>2026-04-12T07:35:11.999Z</time></trkpt><trkpt lat="45.939424693332846" lon="11.229604100060454"><ele>1064.3333333333333</ele><time>2026-04-12T07:35:12.999Z</time></trkpt><trkpt lat="45.939560482425364" lon="11.229745896550474"><ele>1065.0</ele><time>2026-04-12T07:35:13.998Z</time></trkpt><trkpt lat="45.93967235093791" lon="11.229887137246772"><ele>1065.0</ele><time>2026-04-12T07:35:14.998Z</time></trkpt><trkpt lat="45.93975289936181" lon="11.230019454514915"><ele>1065.0</ele><time>2026-04-12T07:35:15.998Z</time></trkpt><trkpt lat="45.93980833638118" lon="11.230170140909213"><ele>1065.0</ele><time>2026-04-12T07:35:16.998Z</time></trkpt><trkpt lat="45.93986323021809" lon="11.230332667638082"><ele>1065.0</ele><time>2026-04-12T07:35:17.998Z</time></trkpt><trkpt lat="45.939877498912416" lon="11.230544754000622"><ele>1064.6666666666667</ele><time>2026-04-12T07:35:18.998Z</time></trkpt><trkpt lat="45.939902674673974" lon="11.23075720456998"><ele>1064.3333333333335</ele><time>2026-04-12T07:35:19.998Z</time></trkpt><trkpt lat="45.93996211855698" lon="11.230957792596893"><ele>1064.0</ele><time>2026-04-12T07:35:20.998Z</time></trkpt><trkpt lat="45.94005635692417" lon="11.231170203719937"><ele>1064.0</ele><time>2026-04-12T07:35:21.998Z</time></trkpt><trkpt lat="45.94019480639975" lon="11.231332678858086"><ele>1064.0</ele><time>2026-04-12T07:35:22.998Z</time></trkpt><trkpt lat="45.94033541153789" lon="11.231499483442917"><ele>1064.0</ele><time>2026-04-12T07:35:23.998Z</time></trkpt><trkpt lat="45.94049828181886" lon="11.231659439796537"><ele>1066.0</ele><time>2026-04-12T07:35:24.998Z</time></trkpt><trkpt lat="45.94066260153598" lon="11.231809763559882"><ele>1068.0</ele><time>2026-04-12T07:35:25.998Z</time></trkpt><trkpt lat="45.94082705434436" lon="11.231931470666924"><ele>1070.0</ele><time>2026-04-12T07:35:26.998Z</time></trkpt><trkpt lat="45.940986256599906" lon="11.232028448251233"><ele>1072.3333333333335</ele><time>2026-04-12T07:35:27.998Z</time></trkpt><trkpt lat="45.941128312860094" lon="11.232133341275697"><ele>1074.6666666666667</ele><time>2026-04-12T07:35:28.998Z</time></trkpt><trkpt lat="45.941256406515684" lon="11.232292253100141"><ele>1077.0</ele><time>2026-04-12T07:35:29.998Z</time></trkpt><trkpt lat="45.94137432890689" lon="11.232484208179475"><ele>1078.6666666666667</ele><time>2026-04-12T07:35:30.998Z</time></trkpt><trkpt lat="45.94148771027811" lon="11.232666204675107"><ele>1080.3333333333335</ele><time>2026-04-12T07:35:31.998Z</time></trkpt><trkpt lat="45.94160231693456" lon="11.232836722547818"><ele>1082.0</ele><time>2026-04-12T07:35:32.998Z</time></trkpt><trkpt lat="45.9417022577883" lon="11.2330093559972"><ele>1085.6666666666667</ele><time>2026-04-12T07:35:33.998Z</time></trkpt><trkpt lat="45.94177917044425" lon="11.233198266171312"><ele>1089.3333333333333</ele><time>2026-04-12T07:35:34.998Z</time></trkpt><trkpt lat="45.94183179376161" lon="11.233398384503877"><ele>1093.0</ele><time>2026-04-12T07:35:35.998Z</time></trkpt><trkpt lat="45.94186003673976" lon="11.233614171670663"><ele>1093.0</ele><time>2026-04-12T07:35:36.998Z</time></trkpt><trkpt lat="45.9418886265176" lon="11.233846899475418"><ele>1093.0</ele><time>2026-04-12T07:35:37.998Z</time></trkpt><trkpt lat="45.9419156665064" lon="11.23406154653648"><ele>1093.0</ele><time>2026-04-12T07:35:38.998Z</time></trkpt><trkpt lat="45.94194487373504" lon="11.234253700912854"><ele>1095.5</ele><time>2026-04-12T07:35:39.998Z</time></trkpt><trkpt lat="45.94197042141152" lon="11.234459026844833"><ele>1098.0</ele><time>2026-04-12T07:35:40.998Z</time></trkpt><trkpt lat="45.94199950385279" lon="11.23466410277573"><ele>1100.5</ele><time>2026-04-12T07:35:41.998Z</time></trkpt><trkpt lat="45.942031572051036" lon="11.234864321140849"><ele>1103.0</ele><time>2026-04-12T07:35:42.998Z</time></trkpt><trkpt lat="45.94203356617615" lon="11.235071943613251"><ele>1105.25</ele><time>2026-04-12T07:35:43.998Z</time></trkpt><trkpt lat="45.942020834106785" lon="11.235266529982102"><ele>1107.5</ele><time>2026-04-12T07:35:44.998Z</time></trkpt><trkpt lat="45.94201714137007" lon="11.235448514573019"><ele>1109.75</ele><time>2026-04-12T07:35:45.998Z</time></trkpt><trkpt lat="45.94203596000859" lon="11.235607678669853"><ele>1112.0</ele><time>2026-04-12T07:35:46.998Z</time></trkpt><trkpt lat="45.94207351666435" lon="11.235739736392603"><ele>1112.5714285714284</ele><time>2026-04-12T07:35:48Z</time></trkpt><trkpt lat="45.94210528819805" lon="11.235853487835957"><ele>1113.142857142857</ele><time>2026-04-12T07:35:49Z</time></trkpt><trkpt lat="45.9421499201872" lon="11.235943813583205"><ele>1113.7142857142858</ele><time>2026-04-12T07:35:50Z</time></trkpt><trkpt lat="45.942195102832585" lon="11.236013133503997"><ele>1114.2857142857142</ele><time>2026-04-12T07:35:51Z</time></trkpt><trkpt lat="45.942238807996226" lon="11.236094690968574"><ele>1114.857142857143</ele><time>2026-04-12T07:35:53Z</time></trkpt><trkpt lat="45.942278977171675" lon="11.236202585353677"><ele>1115.4285714285713</ele><time>2026-04-12T07:35:57Z</time></trkpt><trkpt lat="45.94223391143299" lon="11.236267446048775"><ele>1116.0</ele><time>2026-04-12T07:36:16Z</time></trkpt><trkpt lat="45.942336970399886" lon="11.236319113001628"><ele>1116.0</ele><time>2026-04-12T07:36:56.999Z</time></trkpt><trkpt lat="45.942458195217434" lon="11.236387429355597"><ele>1116.0</ele><time>2026-04-12T07:36:57.999Z</time></trkpt><trkpt lat="45.94261826396563" lon="11.236484574470609"><ele>1116.0</ele><time>2026-04-12T07:36:58.999Z</time></trkpt><trkpt lat="45.94280478506956" lon="11.236559262227642"><ele>1116.0</ele><time>2026-04-12T07:36:59.999Z</time></trkpt><trkpt lat="45.94297562047151" lon="11.23660318914308"><ele>1116.0</ele><time>2026-04-12T07:37:00.999Z</time></trkpt><trkpt lat="45.94313181045707" lon="11.236650412801527"><ele>1116.0</ele><time>2026-04-12T07:37:01.999Z</time></trkpt><trkpt lat="45.94327654417589" lon="11.236719998549109"><ele>1116.0</ele><time>2026-04-12T07:37:02.999Z</time></trkpt><trkpt lat="45.94340148424498" lon="11.236812508364386"><ele>1116.0</ele><time>2026-04-12T07:37:03.999Z</time></trkpt><trkpt lat="45.94351343337584" lon="11.236921661513861"><ele>1116.0</ele><time>2026-04-12T07:37:04.999Z</time></trkpt><trkpt lat="45.94361722729557" lon="11.23704515264338"><ele>1116.0</ele><time>2026-04-12T07:37:05.999Z</time></trkpt><trkpt lat="45.94372929136031" lon="11.237196725098576"><ele>1114.6666666666667</ele><time>2026-04-12T07:37:06.999Z</time></trkpt><trkpt lat="45.94386054191176" lon="11.237347636771599"><ele>1113.3333333333335</ele><time>2026-04-12T07:37:07.999Z</time></trkpt><trkpt lat="45.94401624942887" lon="11.23745607127537"><ele>1112.0</ele><time>2026-04-12T07:37:08.999Z</time></trkpt><trkpt lat="45.944169422837135" lon="11.237536039686685"><ele>1109.0</ele><time>2026-04-12T07:37:09.999Z</time></trkpt><trkpt lat="45.944329820271435" lon="11.237606455832607"><ele>1106.0</ele><time>2026-04-12T07:37:10.999Z</time></trkpt><trkpt lat="45.94449293151493" lon="11.237676992666715"><ele>1103.0</ele><time>2026-04-12T07:37:11.999Z</time></trkpt><trkpt lat="45.94465110055351" lon="11.237784610452755"><ele>1103.0</ele><time>2026-04-12T07:37:12.999Z</time></trkpt><trkpt lat="45.94480641081144" lon="11.237937277872076"><ele>1103.0</ele><time>2026-04-12T07:37:13.999Z</time></trkpt><trkpt lat="45.9449463637302" lon="11.238161772730157"><ele>1103.0</ele><time>2026-04-12T07:37:14.999Z</time></trkpt><trkpt lat="45.94509090305909" lon="11.238355964380485"><ele>1103.0</ele><time>2026-04-12T07:37:15.999Z</time></trkpt><trkpt lat="45.94521515359145" lon="11.238512419820704"><ele>1103.0</ele><time>2026-04-12T07:37:16.999Z</time></trkpt><trkpt lat="45.94535888275781" lon="11.23866545425831"><ele>1103.0</ele><time>2026-04-12T07:37:17.999Z</time></trkpt><trkpt lat="45.945526421352184" lon="11.238758652829238"><ele>1103.0</ele><time>2026-04-12T07:37:18.999Z</time></trkpt><trkpt lat="45.945682535430315" lon="11.23889129380724"><ele>1103.0</ele><time>2026-04-12T07:37:19.999Z</time></trkpt><trkpt lat="45.9457941585395" lon="11.23907509785028"><ele>1103.0</ele><time>2026-04-12T07:37:20.998Z</time></trkpt><trkpt lat="45.945886672825964" lon="11.239217118064346"><ele>1104.6</ele><time>2026-04-12T07:37:21.998Z</time></trkpt><trkpt lat="45.94595761528201" lon="11.239328177291295"><ele>1106.1999999999998</ele><time>2026-04-12T07:37:22.998Z</time></trkpt><trkpt lat="45.946001818002074" lon="11.239424114907145"><ele>1107.8</ele><time>2026-04-12T07:37:23.998Z</time></trkpt><trkpt lat="45.94601442507052" lon="11.2395287400925"><ele>1109.3999999999999</ele><time>2026-04-12T07:37:24.998Z</time></trkpt><trkpt lat="45.94597310795098" lon="11.2396584591291"><ele>1111.0</ele><time>2026-04-12T07:37:25.998Z</time></trkpt><trkpt lat="45.94590904650018" lon="11.239831192827898"><ele>1112.0</ele><time>2026-04-12T07:37:26.998Z</time></trkpt><trkpt lat="45.94585735823316" lon="11.240022089192887"><ele>1113.0</ele><time>2026-04-12T07:37:27.998Z</time></trkpt><trkpt lat="45.94583370862898" lon="11.240208756927778"><ele>1114.0</ele><time>2026-04-12T07:37:28.998Z</time></trkpt><trkpt lat="45.94581738096583" lon="11.240375692846852"><ele>1115.0</ele><time>2026-04-12T07:37:29.998Z</time></trkpt><trkpt lat="45.94581277247911" lon="11.240511616717363"><ele>1117.5</ele><time>2026-04-12T07:37:30.998Z</time></trkpt><trkpt lat="45.945831885524164" lon="11.240649034479198"><ele>1120.0</ele><time>2026-04-12T07:37:31.998Z</time></trkpt><trkpt lat="45.945888179338056" lon="11.240782810360933"><ele>1122.5</ele><time>2026-04-12T07:37:32.998Z</time></trkpt><trkpt lat="45.94599218444252" lon="11.240894667790437"><ele>1125.0</ele><time>2026-04-12T07:37:33.998Z</time></trkpt><trkpt lat="45.946132929669034" lon="11.240967875457379"><ele>1125.0</ele><time>2026-04-12T07:37:34.998Z</time></trkpt><trkpt lat="45.946294340173914" lon="11.241008777167218"><ele>1125.0</ele><time>2026-04-12T07:37:35.998Z</time></trkpt><trkpt lat="45.94646719028161" lon="11.24105597356622"><ele>1125.0</ele><time>2026-04-12T07:37:36.998Z</time></trkpt><trkpt lat="45.94665326948823" lon="11.241114295065062"><ele>1130.0</ele><time>2026-04-12T07:37:37.998Z</time></trkpt><trkpt lat="45.946850199030045" lon="11.241169375079883"><ele>1135.0</ele><time>2026-04-12T07:37:38.998Z</time></trkpt><trkpt lat="45.94704953664374" lon="11.241223306103645"><ele>1140.0</ele><time>2026-04-12T07:37:39.998Z</time></trkpt><trkpt lat="45.947233701696256" lon="11.24127391926609"><ele>1140.0</ele><time>2026-04-12T07:37:40.998Z</time></trkpt><trkpt lat="45.947397799228106" lon="11.241275601929312"><ele>1140.0</ele><time>2026-04-12T07:37:41.998Z</time></trkpt><trkpt lat="45.94755714653116" lon="11.241250668409526"><ele>1140.0</ele><time>2026-04-12T07:37:42.998Z</time></trkpt><trkpt lat="45.947711926433975" lon="11.241226028527471"><ele>1142.0</ele><time>2026-04-12T07:37:43.998Z</time></trkpt><trkpt lat="45.94786413327702" lon="11.241264334176156"><ele>1144.0</ele><time>2026-04-12T07:37:44.998Z</time></trkpt><trkpt lat="45.94800695246358" lon="11.241318373842669"><ele>1146.0</ele><time>2026-04-12T07:37:45.998Z</time></trkpt><trkpt lat="45.94814193810775" lon="11.241395218436056"><ele>1148.0</ele><time>2026-04-12T07:37:46.998Z</time></trkpt><trkpt lat="45.94827162505267" lon="11.241507248781243"><ele>1147.5</ele><time>2026-04-12T07:37:47.998Z</time></trkpt><trkpt lat="45.9483954435204" lon="11.241619206761099"><ele>1147.0</ele><time>2026-04-12T07:37:48.998Z</time></trkpt><trkpt lat="45.94851415694328" lon="11.241735470885056"><ele>1146.5</ele><time>2026-04-12T07:37:49.998Z</time></trkpt><trkpt lat="45.94858733209567" lon="11.241880568727423"><ele>1146.0</ele><time>2026-04-12T07:37:50.998Z</time></trkpt><trkpt lat="45.948642257362046" lon="11.24203114526686"><ele>1146.0</ele><time>2026-04-12T07:37:51.998Z</time></trkpt><trkpt lat="45.948646743616656" lon="11.242221264814969"><ele>1146.0</ele><time>2026-04-12T07:37:52.998Z</time></trkpt><trkpt lat="45.9486737605972" lon="11.242453690712567"><ele>1146.0</ele><time>2026-04-12T07:37:54Z</time></trkpt><trkpt lat="45.948693959429136" lon="11.242669322088592"><ele>1146.0</ele><time>2026-04-12T07:37:55Z</time></trkpt><trkpt lat="45.948753480498446" lon="11.242844317787405"><ele>1146.6666666666667</ele><time>2026-04-12T07:37:56Z</time></trkpt><trkpt lat="45.94887451409634" lon="11.242979337550551"><ele>1147.3333333333335</ele><time>2026-04-12T07:37:57Z</time></trkpt><trkpt lat="45.94903306135877" lon="11.243104975445902"><ele>1148.0</ele><time>2026-04-12T07:37:58Z</time></trkpt><trkpt lat="45.949192889819194" lon="11.243218699124474"><ele>1147.25</ele><time>2026-04-12T07:37:59Z</time></trkpt><trkpt lat="45.94930939693835" lon="11.243365369883577"><ele>1146.5</ele><time>2026-04-12T07:38:00Z</time></trkpt><trkpt lat="45.94940461933626" lon="11.243530998671567"><ele>1145.75</ele><time>2026-04-12T07:38:01Z</time></trkpt><trkpt lat="45.94944961621275" lon="11.2437098209852"><ele>1145.0</ele><time>2026-04-12T07:38:02Z</time></trkpt><trkpt lat="45.94946445448497" lon="11.243885146809006"><ele>1145.5</ele><time>2026-04-12T07:38:03Z</time></trkpt><trkpt lat="45.94943661602362" lon="11.244056210477224"><ele>1146.0</ele><time>2026-04-12T07:38:04Z</time></trkpt><trkpt lat="45.94937651052313" lon="11.244218411374856"><ele>1146.5</ele><time>2026-04-12T07:38:05Z</time></trkpt><trkpt lat="45.94925956628898" lon="11.24429920260493"><ele>1147.0</ele><time>2026-04-12T07:38:06Z</time></trkpt><trkpt lat="45.94909673630505" lon="11.24429782941037"><ele>1147.6666666666665</ele><time>2026-04-12T07:38:07Z</time></trkpt><trkpt lat="45.948931424949606" lon="11.244402941393014"><ele>1148.3333333333333</ele><time>2026-04-12T07:38:08Z</time></trkpt><trkpt lat="45.948788907116466" lon="11.244467263327962"><ele>1149.0</ele><time>2026-04-12T07:38:09Z</time></trkpt><trkpt lat="45.94866931471941" lon="11.244505527992406"><ele>1149.0</ele><time>2026-04-12T07:38:10Z</time></trkpt><trkpt lat="45.9485722676136" lon="11.244460369656034"><ele>1149.0</ele><time>2026-04-12T07:38:11Z</time></trkpt><trkpt lat="45.9485047565179" lon="11.244328151125268"><ele>1149.0</ele><time>2026-04-12T07:38:12Z</time></trkpt><trkpt lat="45.9484760680588" lon="11.244154509895498"><ele>1149.0</ele><time>2026-04-12T07:38:13Z</time></trkpt><trkpt lat="45.94843146369687" lon="11.243973446330463"><ele>1151.5</ele><time>2026-04-12T07:38:14Z</time></trkpt><trkpt lat="45.94837313573369" lon="11.243807078961831"><ele>1154.0</ele><time>2026-04-12T07:38:15Z</time></trkpt><trkpt lat="45.9482697182029" lon="11.243711151783943"><ele>1156.5</ele><time>2026-04-12T07:38:16Z</time></trkpt><trkpt lat="45.94814998590464" lon="11.243685661286676"><ele>1159.0</ele><time>2026-04-12T07:38:17Z</time></trkpt><trkpt lat="45.94803689571179" lon="11.24373097703009"><ele>1159.0</ele><time>2026-04-12T07:38:18Z</time></trkpt><trkpt lat="45.94796468513965" lon="11.243856619425719"><ele>1159.0</ele><time>2026-04-12T07:38:19Z</time></trkpt><trkpt lat="45.94793605784615" lon="11.244026638532906"><ele>1159.0</ele><time>2026-04-12T07:38:20Z</time></trkpt><trkpt lat="45.94792414569845" lon="11.244254130600245"><ele>1159.0</ele><time>2026-04-12T07:38:21Z</time></trkpt><trkpt lat="45.94790793237518" lon="11.244524923360222"><ele>1163.6666666666665</ele><time>2026-04-12T07:38:22Z</time></trkpt><trkpt lat="45.94789352288639" lon="11.244818981263473"><ele>1168.3333333333333</ele><time>2026-04-12T07:38:23Z</time></trkpt><trkpt lat="45.94787919354578" lon="11.245068435015794"><ele>1173.0</ele><time>2026-04-12T07:38:24Z</time></trkpt><trkpt lat="45.94784128626276" lon="11.245294504338286"><ele>1173.0</ele><time>2026-04-12T07:38:25Z</time></trkpt><trkpt lat="45.947734646616205" lon="11.245456249030797"><ele>1173.0</ele><time>2026-04-12T07:38:26Z</time></trkpt><trkpt lat="45.94761441740174" lon="11.24558338404991"><ele>1173.0</ele><time>2026-04-12T07:38:27Z</time></trkpt><trkpt lat="45.94750956404438" lon="11.24570616527154"><ele>1173.0</ele><time>2026-04-12T07:38:28Z</time></trkpt><trkpt lat="45.94744712667776" lon="11.245847118392232"><ele>1171.75</ele><time>2026-04-12T07:38:29Z</time></trkpt><trkpt lat="45.94744914415601" lon="11.246001244458164"><ele>1170.5</ele><time>2026-04-12T07:38:30Z</time></trkpt><trkpt lat="45.94751223488726" lon="11.246172628158623"><ele>1169.25</ele><time>2026-04-12T07:38:31Z</time></trkpt><trkpt lat="45.947539825589025" lon="11.24634871610938"><ele>1168.0</ele><time>2026-04-12T07:38:32Z</time></trkpt><trkpt lat="45.94752313908286" lon="11.246506235225967"><ele>1168.0</ele><time>2026-04-12T07:38:33Z</time></trkpt><trkpt lat="45.947470386201196" lon="11.246630325825551"><ele>1168.0</ele><time>2026-04-12T07:38:34Z</time></trkpt><trkpt lat="45.94733556930532" lon="11.246673369004474"><ele>1168.0</ele><time>2026-04-12T07:38:34.999Z</time></trkpt><trkpt lat="45.94716635478503" lon="11.24675768002737"><ele>1168.0</ele><time>2026-04-12T07:38:35.999Z</time></trkpt><trkpt lat="45.946971994601306" lon="11.246888602239972"><ele>1168.0</ele><time>2026-04-12T07:38:36.999Z</time></trkpt><trkpt lat="45.94676267525667" lon="11.247080139973457"><ele>1168.0</ele><time>2026-04-12T07:38:37.999Z</time></trkpt><trkpt lat="45.9465696086977" lon="11.2472654303657"><ele>1167.3333333333333</ele><time>2026-04-12T07:38:38.999Z</time></trkpt><trkpt lat="45.946411381249" lon="11.247402612432671"><ele>1166.6666666666667</ele><time>2026-04-12T07:38:39.999Z</time></trkpt><trkpt lat="45.946274579658045" lon="11.247519835158862"><ele>1166.0</ele><time>2026-04-12T07:38:40.999Z</time></trkpt><trkpt lat="45.94613876825756" lon="11.247631438300216"><ele>1166.0</ele><time>2026-04-12T07:38:41.999Z</time></trkpt><trkpt lat="45.94599710990098" lon="11.247725653336945"><ele>1166.0</ele><time>2026-04-12T07:38:42.999Z</time></trkpt><trkpt lat="45.94585227392732" lon="11.247832387398741"><ele>1166.0</ele><time>2026-04-12T07:38:43.999Z</time></trkpt><trkpt lat="45.94570943158558" lon="11.247952027811982"><ele>1166.3333333333335</ele><time>2026-04-12T07:38:44.999Z</time></trkpt><trkpt lat="45.94556849868853" lon="11.248086549037163"><ele>1166.6666666666667</ele><time>2026-04-12T07:38:45.999Z</time></trkpt><trkpt lat="45.94544431422562" lon="11.248215650737496"><ele>1167.0</ele><time>2026-04-12T07:38:46.999Z</time></trkpt><trkpt lat="45.945301872958346" lon="11.248304409131423"><ele>1167.0</ele><time>2026-04-12T07:38:47.999Z</time></trkpt><trkpt lat="45.9451596411769" lon="11.248374712282141"><ele>1167.0</ele><time>2026-04-12T07:38:48.999Z</time></trkpt><trkpt lat="45.94503100871082" lon="11.248406424358599"><ele>1167.0</ele><time>2026-04-12T07:38:49.999Z</time></trkpt><trkpt lat="45.94488697393832" lon="11.248400046200132"><ele>1167.0</ele><time>2026-04-12T07:38:50.999Z</time></trkpt><trkpt lat="45.94472866863907" lon="11.248365556430183"><ele>1169.6666666666667</ele><time>2026-04-12T07:38:51.999Z</time></trkpt><trkpt lat="45.94457451567342" lon="11.248359225360907"><ele>1172.3333333333335</ele><time>2026-04-12T07:38:52.999Z</time></trkpt><trkpt lat="45.944422349635225" lon="11.248394212096903"><ele>1175.0</ele><time>2026-04-12T07:38:53.999Z</time></trkpt><trkpt lat="45.94427422378764" lon="11.248454963095567"><ele>1174.3333333333335</ele><time>2026-04-12T07:38:54.999Z</time></trkpt><trkpt lat="45.94412867018724" lon="11.24854170413853"><ele>1173.6666666666667</ele><time>2026-04-12T07:38:55.999Z</time></trkpt><trkpt lat="45.94398285309083" lon="11.248638841328638"><ele>1173.0</ele><time>2026-04-12T07:38:56.999Z</time></trkpt><trkpt lat="45.94383760076196" lon="11.24870507031195"><ele>1173.0</ele><time>2026-04-12T07:38:57.999Z</time></trkpt><trkpt lat="45.94369271406739" lon="11.248715786411582"><ele>1173.0</ele><time>2026-04-12T07:38:58.999Z</time></trkpt><trkpt lat="45.94354327887462" lon="11.248716563898652"><ele>1173.0</ele><time>2026-04-12T07:38:59.999Z</time></trkpt><trkpt lat="45.943391644155746" lon="11.248714302373157"><ele>1173.0</ele><time>2026-04-12T07:39:00.999Z</time></trkpt><trkpt lat="45.94323615563656" lon="11.248723700195244"><ele>1174.3333333333333</ele><time>2026-04-12T07:39:01.999Z</time></trkpt><trkpt lat="45.9430811806272" lon="11.248768016316488"><ele>1175.6666666666665</ele><time>2026-04-12T07:39:02.999Z</time></trkpt><trkpt lat="45.9429361727103" lon="11.248844933397486"><ele>1177.0</ele><time>2026-04-12T07:39:03.999Z</time></trkpt><trkpt lat="45.94280265381931" lon="11.248953911330815"><ele>1175.0</ele><time>2026-04-12T07:39:04.999Z</time></trkpt><trkpt lat="45.94268506131815" lon="11.24907583577665"><ele>1173.0</ele><time>2026-04-12T07:39:05.999Z</time></trkpt><trkpt lat="45.94256560397331" lon="11.249192853796522"><ele>1171.0</ele><time>2026-04-12T07:39:06.999Z</time></trkpt><trkpt lat="45.94244892071548" lon="11.249300584577533"><ele>1169.0</ele><time>2026-04-12T07:39:07.999Z</time></trkpt><trkpt lat="45.94233461130351" lon="11.249410760229686"><ele>1168.25</ele><time>2026-04-12T07:39:08.999Z</time></trkpt><trkpt lat="45.94222787240263" lon="11.249543253337675"><ele>1167.5</ele><time>2026-04-12T07:39:09.999Z</time></trkpt><trkpt lat="45.94212859105505" lon="11.249697120483766"><ele>1166.75</ele><time>2026-04-12T07:39:10.999Z</time></trkpt><trkpt lat="45.94203151309812" lon="11.249859980300112"><ele>1166.0</ele><time>2026-04-12T07:39:11.999Z</time></trkpt><trkpt lat="45.94193167141371" lon="11.250022646326665"><ele>1166.0</ele><time>2026-04-12T07:39:12.999Z</time></trkpt><trkpt lat="45.94182830212985" lon="11.250183445619623"><ele>1166.0</ele><time>2026-04-12T07:39:13.999Z</time></trkpt><trkpt lat="45.94173590496493" lon="11.25033085260183"><ele>1166.0</ele><time>2026-04-12T07:39:14.999Z</time></trkpt><trkpt lat="45.94165769634725" lon="11.250472852582186"><ele>1166.0</ele><time>2026-04-12T07:39:15.999Z</time></trkpt><trkpt lat="45.94158635031168" lon="11.250607167143043"><ele>1168.0</ele><time>2026-04-12T07:39:16.999Z</time></trkpt><trkpt lat="45.94150975036977" lon="11.250733637321437"><ele>1170.0</ele><time>2026-04-12T07:39:17.999Z</time></trkpt><trkpt lat="45.94141146479509" lon="11.250811592635891"><ele>1172.0</ele><time>2026-04-12T07:39:18.999Z</time></trkpt><trkpt lat="45.94132858788886" lon="11.250869779627267"><ele>1174.0</ele><time>2026-04-12T07:39:19.999Z</time></trkpt><trkpt lat="45.94127140108562" lon="11.250915992986382"><ele>1176.0</ele><time>2026-04-12T07:39:20.999Z</time></trkpt><trkpt lat="45.94117422508832" lon="11.250951216702191"><ele>1176.0</ele><time>2026-04-12T07:39:22.999Z</time></trkpt><trkpt lat="45.94110462111425" lon="11.25103212614358"><ele>1176.0</ele><time>2026-04-12T07:39:24.999Z</time></trkpt><trkpt lat="45.941025217939625" lon="11.251099836885885"><ele>1176.0</ele><time>2026-04-12T07:39:26.998Z</time></trkpt><trkpt lat="45.94094319184573" lon="11.251236450792582"><ele>1176.0</ele><time>2026-04-12T07:39:28.998Z</time></trkpt><trkpt lat="45.94090923292607" lon="11.251322656281802"><ele>1176.0</ele><time>2026-04-12T07:39:29.998Z</time></trkpt><trkpt lat="45.94087338727339" lon="11.251431329351359"><ele>1174.8</ele><time>2026-04-12T07:39:30.998Z</time></trkpt><trkpt lat="45.94083351067876" lon="11.251546322101424"><ele>1173.6</ele><time>2026-04-12T07:39:31.998Z</time></trkpt><trkpt lat="45.94080102845823" lon="11.251691487602125"><ele>1172.4</ele><time>2026-04-12T07:39:32.998Z</time></trkpt><trkpt lat="45.94077187284865" lon="11.251854818477026"><ele>1171.2</ele><time>2026-04-12T07:39:33.998Z</time></trkpt><trkpt lat="45.94073385581057" lon="11.25202863299505"><ele>1170.0</ele><time>2026-04-12T07:39:34.998Z</time></trkpt><trkpt lat="45.94067568678167" lon="11.252186027984163"><ele>1170.0</ele><time>2026-04-12T07:39:35.998Z</time></trkpt><trkpt lat="45.9406100025778" lon="11.252358506818036"><ele>1170.0</ele><time>2026-04-12T07:39:36.998Z</time></trkpt><trkpt lat="45.94053264303565" lon="11.252518090916862"><ele>1170.0</ele><time>2026-04-12T07:39:37.998Z</time></trkpt><trkpt lat="45.9404572898224" lon="11.25266264709126"><ele>1170.0</ele><time>2026-04-12T07:39:38.998Z</time></trkpt><trkpt lat="45.94038258754036" lon="11.252799018932379"><ele>1170.0</ele><time>2026-04-12T07:39:39.998Z</time></trkpt><trkpt lat="45.94030527057598" lon="11.25292453989127"><ele>1170.0</ele><time>2026-04-12T07:39:40.998Z</time></trkpt><trkpt lat="45.940233706768375" lon="11.253052089381562"><ele>1170.0</ele><time>2026-04-12T07:39:41.998Z</time></trkpt><trkpt lat="45.940184216457915" lon="11.253205586604063"><ele>1170.0</ele><time>2026-04-12T07:39:42.998Z</time></trkpt><trkpt lat="45.94015967446756" lon="11.253378703351869"><ele>1168.0</ele><time>2026-04-12T07:39:43.998Z</time></trkpt><trkpt lat="45.940149571229306" lon="11.253563994622176"><ele>1166.0</ele><time>2026-04-12T07:39:44.998Z</time></trkpt><trkpt lat="45.94014068987296" lon="11.253738358066908"><ele>1164.0</ele><time>2026-04-12T07:39:45.998Z</time></trkpt><trkpt lat="45.940114458105526" lon="11.253894272786122"><ele>1162.0</ele><time>2026-04-12T07:39:46.998Z</time></trkpt><trkpt lat="45.94006251876599" lon="11.254037326509255"><ele>1160.25</ele><time>2026-04-12T07:39:47.998Z</time></trkpt><trkpt lat="45.93998389239171" lon="11.254155132258585"><ele>1158.5</ele><time>2026-04-12T07:39:48.998Z</time></trkpt><trkpt lat="45.939889807108635" lon="11.254242937077047"><ele>1156.75</ele><time>2026-04-12T07:39:49.998Z</time></trkpt><trkpt lat="45.93977573272337" lon="11.25427398130413"><ele>1155.0</ele><time>2026-04-12T07:39:50.998Z</time></trkpt><trkpt lat="45.93965209959854" lon="11.254289894465872"><ele>1155.0</ele><time>2026-04-12T07:39:51.998Z</time></trkpt><trkpt lat="45.93951975122126" lon="11.254335220180948"><ele>1155.0</ele><time>2026-04-12T07:39:52.998Z</time></trkpt><trkpt lat="45.93937799868856" lon="11.25435404197132"><ele>1155.0</ele><time>2026-04-12T07:39:53.998Z</time></trkpt><trkpt lat="45.93922993946362" lon="11.254398867914961"><ele>1155.0</ele><time>2026-04-12T07:39:54.998Z</time></trkpt><trkpt lat="45.93909318166939" lon="11.254478856190065"><ele>1154.75</ele><time>2026-04-12T07:39:55.998Z</time></trkpt><trkpt lat="45.93895663567413" lon="11.254563621361024"><ele>1154.5</ele><time>2026-04-12T07:39:56.998Z</time></trkpt><trkpt lat="45.938825996417314" lon="11.254663430778603"><ele>1154.25</ele><time>2026-04-12T07:39:57.998Z</time></trkpt><trkpt lat="45.93871211914918" lon="11.254759318556166"><ele>1154.0</ele><time>2026-04-12T07:39:58.998Z</time></trkpt><trkpt lat="45.93860829259639" lon="11.254850551816006"><ele>1154.0</ele><time>2026-04-12T07:40:00Z</time></trkpt><trkpt lat="45.93851113988337" lon="11.254943703862038"><ele>1154.0</ele><time>2026-04-12T07:40:01Z</time></trkpt><trkpt lat="45.93841811353715" lon="11.255017430316142"><ele>1154.0</ele><time>2026-04-12T07:40:02Z</time></trkpt><trkpt lat="45.93833551698049" lon="11.255079430199533"><ele>1154.0</ele><time>2026-04-12T07:40:03Z</time></trkpt><trkpt lat="45.93826742013986" lon="11.255142329378634"><ele>1154.0</ele><time>2026-04-12T07:40:04Z</time></trkpt><trkpt lat="45.93820633083742" lon="11.255217182540534"><ele>1152.8</ele><time>2026-04-12T07:40:05Z</time></trkpt><trkpt lat="45.9381604732457" lon="11.255309311568233"><ele>1151.6000000000001</ele><time>2026-04-12T07:40:06Z</time></trkpt><trkpt lat="45.93813003553445" lon="11.255428688102231"><ele>1150.4</ele><time>2026-04-12T07:40:07Z</time></trkpt><trkpt lat="45.938123386641465" lon="11.255565132572704"><ele>1149.2</ele><time>2026-04-12T07:40:08Z</time></trkpt><trkpt lat="45.93809242816361" lon="11.255709333169268"><ele>1148.0</ele><time>2026-04-12T07:40:09Z</time></trkpt><trkpt lat="45.93810005871095" lon="11.255872668366163"><ele>1147.4</ele><time>2026-04-12T07:40:10Z</time></trkpt><trkpt lat="45.93807040938779" lon="11.256040119073637"><ele>1146.8</ele><time>2026-04-12T07:40:11Z</time></trkpt><trkpt lat="45.93804500719018" lon="11.256193425766417"><ele>1146.2</ele><time>2026-04-12T07:40:12Z</time></trkpt><trkpt lat="45.938019516213046" lon="11.256349373782733"><ele>1145.6</ele><time>2026-04-12T07:40:13Z</time></trkpt><trkpt lat="45.93800042692101" lon="11.256497350837325"><ele>1145.0</ele><time>2026-04-12T07:40:14Z</time></trkpt><trkpt lat="45.93800076686649" lon="11.256651924999908"><ele>1143.2</ele><time>2026-04-12T07:40:15Z</time></trkpt><trkpt lat="45.9379977290991" lon="11.256794958378755"><ele>1141.4</ele><time>2026-04-12T07:40:16Z</time></trkpt><trkpt lat="45.93799329283777" lon="11.256945318766721"><ele>1139.6</ele><time>2026-04-12T07:40:17Z</time></trkpt><trkpt lat="45.9379839713861" lon="11.257100530861782"><ele>1137.8</ele><time>2026-04-12T07:40:18Z</time></trkpt><trkpt lat="45.937965897254614" lon="11.257257887060527"><ele>1136.0</ele><time>2026-04-12T07:40:19Z</time></trkpt><trkpt lat="45.93795919455072" lon="11.257423593529056"><ele>1135.3999999999999</ele><time>2026-04-12T07:40:20Z</time></trkpt><trkpt lat="45.93793478986959" lon="11.257577265649351"><ele>1134.8</ele><time>2026-04-12T07:40:21Z</time></trkpt><trkpt lat="45.937911776704944" lon="11.257721484510256"><ele>1134.1999999999998</ele><time>2026-04-12T07:40:22Z</time></trkpt><trkpt lat="45.9379002224596" lon="11.257864408861522"><ele>1133.6</ele><time>2026-04-12T07:40:23Z</time></trkpt><trkpt lat="45.93789640134948" lon="11.25800434198452"><ele>1133.0</ele><time>2026-04-12T07:40:24Z</time></trkpt><trkpt lat="45.937895409004554" lon="11.258135084821358"><ele>1133.0</ele><time>2026-04-12T07:40:25Z</time></trkpt><trkpt lat="45.937909414655515" lon="11.258263129572013"><ele>1133.0</ele><time>2026-04-12T07:40:26Z</time></trkpt><trkpt lat="45.93792612525099" lon="11.258384164809177"><ele>1133.0</ele><time>2026-04-12T07:40:27Z</time></trkpt><trkpt lat="45.93793800169259" lon="11.258500846322162"><ele>1133.0</ele><time>2026-04-12T07:40:28Z</time></trkpt><trkpt lat="45.93794820373035" lon="11.258598448684136"><ele>1133.0</ele><time>2026-04-12T07:40:29Z</time></trkpt><trkpt lat="45.937962122760695" lon="11.258752179198058"><ele>1133.0</ele><time>2026-04-12T07:40:31Z</time></trkpt><trkpt lat="45.9379586382719" lon="11.258848784633622"><ele>1133.0</ele><time>2026-04-12T07:40:33Z</time></trkpt><trkpt lat="45.93795156127389" lon="11.258949172484556"><ele>1133.0</ele><time>2026-04-12T07:40:39Z</time></trkpt><trkpt lat="45.93793117712431" lon="11.25910548784913"><ele>1133.0</ele><time>2026-04-12T07:43:36.999Z</time></trkpt><trkpt lat="45.93805200061975" lon="11.258800706665102"><ele>1133.0</ele><time>2026-04-12T07:46:02.454Z</time></trkpt><trkpt lat="45.9380819493987" lon="11.2590426970529"><ele>1133.0</ele><time>2026-04-12T07:47:17.021Z</time></trkpt><trkpt lat="45.93806653442831" lon="11.258942604947842"><ele>1133.0</ele><time>2026-04-12T07:48:12.999Z</time></trkpt><trkpt lat="45.938057014797394" lon="11.25904119131838"><ele>1133.0</ele><time>2026-04-12T07:48:14.999Z</time></trkpt><trkpt lat="45.93802273033907" lon="11.25913573592519"><ele>1133.0</ele><time>2026-04-12T07:48:16.999Z</time></trkpt><trkpt lat="45.93804858239423" lon="11.259051843304851"><ele>1133.0</ele><time>2026-04-12T07:48:27.999Z</time></trkpt><trkpt lat="45.93803023394549" lon="11.258956098982635"><ele>1133.0</ele><time>2026-04-12T07:55:09.999Z</time></trkpt><trkpt lat="45.93796366765584" lon="11.259005123770638"><ele>1133.0</ele><time>2026-04-12T07:56:05Z</time></trkpt><trkpt lat="45.937901839461595" lon="11.259149701677291"><ele>1134.6666666666667</ele><time>2026-04-12T07:56:07Z</time></trkpt><trkpt lat="45.937880942406835" lon="11.259271793177792"><ele>1136.3333333333335</ele><time>2026-04-12T07:56:08Z</time></trkpt><trkpt lat="45.93786554780886" lon="11.259390678127538"><ele>1138.0</ele><time>2026-04-12T07:56:09Z</time></trkpt><trkpt lat="45.937857824854404" lon="11.259509415625018"><ele>1139.6666666666667</ele><time>2026-04-12T07:56:10Z</time></trkpt><trkpt lat="45.937858608861866" lon="11.259622325922688"><ele>1141.3333333333333</ele><time>2026-04-12T07:56:11Z</time></trkpt><trkpt lat="45.9378745856076" lon="11.259748579421204"><ele>1143.0</ele><time>2026-04-12T07:56:12Z</time></trkpt><trkpt lat="45.93789537947254" lon="11.25988246783363"><ele>1143.2</ele><time>2026-04-12T07:56:13Z</time></trkpt><trkpt lat="45.93792407179832" lon="11.259991656351447"><ele>1143.4</ele><time>2026-04-12T07:56:14Z</time></trkpt><trkpt lat="45.93795601483622" lon="11.26009263177741"><ele>1143.6000000000001</ele><time>2026-04-12T07:56:15Z</time></trkpt><trkpt lat="45.93801224013737" lon="11.260190653218668"><ele>1143.8</ele><time>2026-04-12T07:56:16Z</time></trkpt><trkpt lat="45.93810965147184" lon="11.26028294439325"><ele>1144.0</ele><time>2026-04-12T07:56:17Z</time></trkpt><trkpt lat="45.93822322492995" lon="11.260376859450005"><ele>1144.0</ele><time>2026-04-12T07:56:18Z</time></trkpt><trkpt lat="45.9383486370474" lon="11.26047402431188"><ele>1144.0</ele><time>2026-04-12T07:56:19Z</time></trkpt><trkpt lat="45.938473931237056" lon="11.260580152335853"><ele>1144.0</ele><time>2026-04-12T07:56:20Z</time></trkpt><trkpt lat="45.93857652291014" lon="11.260675548454225"><ele>1144.0</ele><time>2026-04-12T07:56:21Z</time></trkpt><trkpt lat="45.938679316453715" lon="11.260782594445926"><ele>1143.5</ele><time>2026-04-12T07:56:22Z</time></trkpt><trkpt lat="45.93878936579768" lon="11.260879905410894"><ele>1143.0</ele><time>2026-04-12T07:56:23Z</time></trkpt><trkpt lat="45.9388979606842" lon="11.260981649056255"><ele>1142.5</ele><time>2026-04-12T07:56:24Z</time></trkpt><trkpt lat="45.93899813193455" lon="11.261072264806222"><ele>1142.0</ele><time>2026-04-12T07:56:25Z</time></trkpt><trkpt lat="45.93909909129394" lon="11.261148630905721"><ele>1142.0</ele><time>2026-04-12T07:56:26Z</time></trkpt><trkpt lat="45.9392097674541" lon="11.261196722805627"><ele>1142.0</ele><time>2026-04-12T07:56:27Z</time></trkpt><trkpt lat="45.93932088061366" lon="11.261242613590653"><ele>1142.0</ele><time>2026-04-12T07:56:28Z</time></trkpt><trkpt lat="45.93942969094814" lon="11.26128658686897"><ele>1142.0</ele><time>2026-04-12T07:56:29Z</time></trkpt><trkpt lat="45.939529555192905" lon="11.261345467839726"><ele>1142.5</ele><time>2026-04-12T07:56:29.999Z</time></trkpt><trkpt lat="45.93961038851718" lon="11.261424973853753"><ele>1143.0</ele><time>2026-04-12T07:56:30.999Z</time></trkpt><trkpt lat="45.93969116761031" lon="11.261533646538425"><ele>1143.5</ele><time>2026-04-12T07:56:31.999Z</time></trkpt><trkpt lat="45.93977068957315" lon="11.261683136519794"><ele>1144.0</ele><time>2026-04-12T07:56:32.999Z</time></trkpt><trkpt lat="45.93985240357191" lon="11.261840734686261"><ele>1144.0</ele><time>2026-04-12T07:56:33.999Z</time></trkpt><trkpt lat="45.93993797621835" lon="11.262006119130884"><ele>1144.0</ele><time>2026-04-12T07:56:34.999Z</time></trkpt><trkpt lat="45.94002377028569" lon="11.26217328520957"><ele>1144.0</ele><time>2026-04-12T07:56:35.999Z</time></trkpt><trkpt lat="45.940103581902314" lon="11.26232900189562"><ele>1144.0</ele><time>2026-04-12T07:56:36.999Z</time></trkpt><trkpt lat="45.94017668782626" lon="11.26247611611848"><ele>1145.25</ele><time>2026-04-12T07:56:37.999Z</time></trkpt><trkpt lat="45.940249010641914" lon="11.262624047776852"><ele>1146.5</ele><time>2026-04-12T07:56:38.999Z</time></trkpt><trkpt lat="45.940326988386296" lon="11.262775439022398"><ele>1147.75</ele><time>2026-04-12T07:56:39.999Z</time></trkpt><trkpt lat="45.94040492780157" lon="11.262925413730818"><ele>1149.0</ele><time>2026-04-12T07:56:40.999Z</time></trkpt><trkpt lat="45.9404702122095" lon="11.263074702616569"><ele>1149.0</ele><time>2026-04-12T07:56:41.999Z</time></trkpt><trkpt lat="45.940522125326844" lon="11.263226895068447"><ele>1149.0</ele><time>2026-04-12T07:56:42.999Z</time></trkpt><trkpt lat="45.94056033484754" lon="11.263378041772473"><ele>1149.0</ele><time>2026-04-12T07:56:43.999Z</time></trkpt><trkpt lat="45.94059772870781" lon="11.263517126754554"><ele>1149.0</ele><time>2026-04-12T07:56:44.999Z</time></trkpt><trkpt lat="45.940663512381036" lon="11.263643999047833"><ele>1149.0</ele><time>2026-04-12T07:56:45.999Z</time></trkpt><trkpt lat="45.94075256969489" lon="11.263747957170725"><ele>1149.0</ele><time>2026-04-12T07:56:46.999Z</time></trkpt><trkpt lat="45.94084428033748" lon="11.263834228593115"><ele>1149.0</ele><time>2026-04-12T07:56:47.999Z</time></trkpt><trkpt lat="45.94092952749994" lon="11.263917736321101"><ele>1149.0</ele><time>2026-04-12T07:56:48.999Z</time></trkpt><trkpt lat="45.94099981474079" lon="11.264016307133888"><ele>1149.0</ele><time>2026-04-12T07:56:49.999Z</time></trkpt><trkpt lat="45.9410549438939" lon="11.264122014199348"><ele>1149.0</ele><time>2026-04-12T07:56:50.999Z</time></trkpt><trkpt lat="45.94108089305233" lon="11.264254331443773"><ele>1151.75</ele><time>2026-04-12T07:56:51.999Z</time></trkpt><trkpt lat="45.941076488398075" lon="11.264401040563685"><ele>1154.5</ele><time>2026-04-12T07:56:52.999Z</time></trkpt><trkpt lat="45.941030016484675" lon="11.264545455940983"><ele>1157.25</ele><time>2026-04-12T07:56:53.999Z</time></trkpt><trkpt lat="45.940954083458436" lon="11.264679420597274"><ele>1160.0</ele><time>2026-04-12T07:56:54.999Z</time></trkpt><trkpt lat="45.94088453938278" lon="11.264815621246443"><ele>1157.25</ele><time>2026-04-12T07:56:55.999Z</time></trkpt><trkpt lat="45.94084348343896" lon="11.264967762621726"><ele>1154.5</ele><time>2026-04-12T07:56:56.999Z</time></trkpt><trkpt lat="45.940827756657555" lon="11.265126499831126"><ele>1151.75</ele><time>2026-04-12T07:56:57.999Z</time></trkpt><trkpt lat="45.94079872134445" lon="11.265283072457962"><ele>1149.0</ele><time>2026-04-12T07:56:58.999Z</time></trkpt><trkpt lat="45.94074636380488" lon="11.265427434457466"><ele>1149.0</ele><time>2026-04-12T07:56:59.999Z</time></trkpt><trkpt lat="45.940675975789205" lon="11.265553855299405"><ele>1149.0</ele><time>2026-04-12T07:57:00.999Z</time></trkpt><trkpt lat="45.940587252674554" lon="11.26564392678717"><ele>1149.0</ele><time>2026-04-12T07:57:01.999Z</time></trkpt><trkpt lat="45.94049800852342" lon="11.265724194096789"><ele>1149.0</ele><time>2026-04-12T07:57:02.999Z</time></trkpt><trkpt lat="45.9404321006337" lon="11.265837439866466"><ele>1149.0</ele><time>2026-04-12T07:57:03.999Z</time></trkpt><trkpt lat="45.94040787804814" lon="11.265988084028438"><ele>1151.2</ele><time>2026-04-12T07:57:04.999Z</time></trkpt><trkpt lat="45.940391691195785" lon="11.266131268208177"><ele>1153.4</ele><time>2026-04-12T07:57:05.999Z</time></trkpt><trkpt lat="45.94037535862827" lon="11.266265577067406"><ele>1155.6</ele><time>2026-04-12T07:57:06.999Z</time></trkpt><trkpt lat="45.940339525347845" lon="11.266403551340574"><ele>1157.8</ele><time>2026-04-12T07:57:07.999Z</time></trkpt><trkpt lat="45.94028930505926" lon="11.266541670023768"><ele>1160.0</ele><time>2026-04-12T07:57:08.999Z</time></trkpt><trkpt lat="45.94023984863112" lon="11.26667002605863"><ele>1160.8</ele><time>2026-04-12T07:57:09.999Z</time></trkpt><trkpt lat="45.94020709534034" lon="11.26679669856884"><ele>1161.6</ele><time>2026-04-12T07:57:10.999Z</time></trkpt><trkpt lat="45.940192974041864" lon="11.266929125262104"><ele>1162.4</ele><time>2026-04-12T07:57:11.999Z</time></trkpt><trkpt lat="45.94018912154869" lon="11.267061710387791"><ele>1163.2</ele><time>2026-04-12T07:57:12.999Z</time></trkpt><trkpt lat="45.94020502144181" lon="11.267201982611105"><ele>1164.0</ele><time>2026-04-12T07:57:13.999Z</time></trkpt><trkpt lat="45.94024188794198" lon="11.267338201929295"><ele>1164.4</ele><time>2026-04-12T07:57:14.999Z</time></trkpt><trkpt lat="45.94024550061139" lon="11.267471651704211"><ele>1164.8000000000002</ele><time>2026-04-12T07:57:15.999Z</time></trkpt><trkpt lat="45.94031132108292" lon="11.267594048282364"><ele>1165.1999999999998</ele><time>2026-04-12T07:57:16.999Z</time></trkpt><trkpt lat="45.94037048878289" lon="11.267712988233328"><ele>1165.6</ele><time>2026-04-12T07:57:17.999Z</time></trkpt><trkpt lat="45.94041224011175" lon="11.267840087034854"><ele>1166.0</ele><time>2026-04-12T07:57:18.999Z</time></trkpt><trkpt lat="45.94041973020214" lon="11.26797646919955"><ele>1165.6</ele><time>2026-04-12T07:57:19.999Z</time></trkpt><trkpt lat="45.94044003760974" lon="11.268113832349968"><ele>1165.1999999999998</ele><time>2026-04-12T07:57:20.999Z</time></trkpt><trkpt lat="45.9404492702475" lon="11.268245625054544"><ele>1164.8000000000002</ele><time>2026-04-12T07:57:21.999Z</time></trkpt><trkpt lat="45.94045515549574" lon="11.268349455026117"><ele>1164.4</ele><time>2026-04-12T07:57:22.998Z</time></trkpt><trkpt lat="45.94047640723009" lon="11.268474918035698"><ele>1164.0</ele><time>2026-04-12T07:57:24.998Z</time></trkpt><trkpt lat="45.940494151795605" lon="11.268638307320627"><ele>1164.0</ele><time>2026-04-12T07:57:26.998Z</time></trkpt><trkpt lat="45.94051129063093" lon="11.26875878259546"><ele>1164.0</ele><time>2026-04-12T07:57:27.998Z</time></trkpt><trkpt lat="45.940549391192945" lon="11.268863228853913"><ele>1164.0</ele><time>2026-04-12T07:57:28.998Z</time></trkpt><trkpt lat="45.940590142561895" lon="11.26896630515923"><ele>1164.0</ele><time>2026-04-12T07:57:29.998Z</time></trkpt><trkpt lat="45.940613713539" lon="11.269077915066188"><ele>1164.0</ele><time>2026-04-12T07:57:30.998Z</time></trkpt><trkpt lat="45.94062949542737" lon="11.269211406585296"><ele>1164.0</ele><time>2026-04-12T07:57:31.998Z</time></trkpt><trkpt lat="45.94065643451312" lon="11.269358900362862"><ele>1163.8</ele><time>2026-04-12T07:57:32.998Z</time></trkpt><trkpt lat="45.94068866263552" lon="11.269517352897411"><ele>1163.6000000000001</ele><time>2026-04-12T07:57:33.998Z</time></trkpt><trkpt lat="45.94072744751782" lon="11.269671679154946"><ele>1163.4</ele><time>2026-04-12T07:57:34.998Z</time></trkpt><trkpt lat="45.94075833179385" lon="11.269821715487925"><ele>1163.2</ele><time>2026-04-12T07:57:35.998Z</time></trkpt><trkpt lat="45.94079402307611" lon="11.269962977892419"><ele>1163.0</ele><time>2026-04-12T07:57:36.998Z</time></trkpt><trkpt lat="45.9408291278707" lon="11.270104200761347"><ele>1163.0</ele><time>2026-04-12T07:57:37.998Z</time></trkpt><trkpt lat="45.94087024092941" lon="11.27025120615753"><ele>1163.0</ele><time>2026-04-12T07:57:38.998Z</time></trkpt><trkpt lat="45.940908508937675" lon="11.270386627387351"><ele>1163.0</ele><time>2026-04-12T07:57:39.998Z</time></trkpt><trkpt lat="45.94094051199164" lon="11.270511746382422"><ele>1163.0</ele><time>2026-04-12T07:57:40.998Z</time></trkpt><trkpt lat="45.94097633036664" lon="11.270636330671369"><ele>1163.0</ele><time>2026-04-12T07:57:41.998Z</time></trkpt><trkpt lat="45.94101618786855" lon="11.27075796182249"><ele>1165.3333333333335</ele><time>2026-04-12T07:57:42.998Z</time></trkpt><trkpt lat="45.94104546072975" lon="11.270865273937789"><ele>1167.6666666666667</ele><time>2026-04-12T07:57:43.998Z</time></trkpt><trkpt lat="45.941065534322874" lon="11.270954168481842"><ele>1170.0</ele><time>2026-04-12T07:57:44.998Z</time></trkpt><trkpt lat="45.94107040739622" lon="11.27110133574518"><ele>1172.3333333333333</ele><time>2026-04-12T07:57:46.998Z</time></trkpt><trkpt lat="45.941024608300154" lon="11.271262290936031"><ele>1174.6666666666665</ele><time>2026-04-12T07:57:48.998Z</time></trkpt><trkpt lat="45.94100346436537" lon="11.27136151871317"><ele>1177.0</ele><time>2026-04-12T07:57:49.998Z</time></trkpt><trkpt lat="45.94097830323757" lon="11.271488508728268"><ele>1176.4</ele><time>2026-04-12T07:57:50.998Z</time></trkpt><trkpt lat="45.94094918067572" lon="11.271619535722696"><ele>1175.8000000000002</ele><time>2026-04-12T07:57:51.998Z</time></trkpt><trkpt lat="45.94092010136761" lon="11.27174812606742"><ele>1175.2</ele><time>2026-04-12T07:57:52.998Z</time></trkpt><trkpt lat="45.940885172205554" lon="11.271872941367333"><ele>1174.6000000000001</ele><time>2026-04-12T07:57:54Z</time></trkpt><trkpt lat="45.94085434228327" lon="11.272003565641434"><ele>1174.0</ele><time>2026-04-12T07:57:55Z</time></trkpt><trkpt lat="45.940792038814784" lon="11.272101741522103"><ele>1174.0</ele><time>2026-04-12T07:57:56Z</time></trkpt><trkpt lat="45.940727344695055" lon="11.272205821981569"><ele>1174.0</ele><time>2026-04-12T07:57:57Z</time></trkpt><trkpt lat="45.94065453087302" lon="11.272292731686488"><ele>1174.0</ele><time>2026-04-12T07:57:58Z</time></trkpt><trkpt lat="45.940572969268494" lon="11.272379055212411"><ele>1174.0</ele><time>2026-04-12T07:57:59Z</time></trkpt><trkpt lat="45.94049232665067" lon="11.272483136654381"><ele>1174.0</ele><time>2026-04-12T07:58:00Z</time></trkpt><trkpt lat="45.94040245625236" lon="11.272594429006185"><ele>1175.0</ele><time>2026-04-12T07:58:01Z</time></trkpt><trkpt lat="45.940309942857645" lon="11.27270346703074"><ele>1176.0</ele><time>2026-04-12T07:58:02Z</time></trkpt><trkpt lat="45.94021562462466" lon="11.272800638314294"><ele>1177.0</ele><time>2026-04-12T07:58:03Z</time></trkpt><trkpt lat="45.94010516212412" lon="11.272880343008616"><ele>1178.0</ele><time>2026-04-12T07:58:04Z</time></trkpt><trkpt lat="45.93999515379519" lon="11.27295101060537"><ele>1178.0</ele><time>2026-04-12T07:58:05Z</time></trkpt><trkpt lat="45.93988058344882" lon="11.27301150202925"><ele>1178.0</ele><time>2026-04-12T07:58:06Z</time></trkpt><trkpt lat="45.9397715965113" lon="11.273074957011918"><ele>1178.0</ele><time>2026-04-12T07:58:07Z</time></trkpt><trkpt lat="45.939679024281546" lon="11.273165598437414"><ele>1178.0</ele><time>2026-04-12T07:58:08Z</time></trkpt><trkpt lat="45.93962181619871" lon="11.273286456657033"><ele>1181.0</ele><time>2026-04-12T07:58:09Z</time></trkpt><trkpt lat="45.939584494433475" lon="11.27343503694026"><ele>1184.0</ele><time>2026-04-12T07:58:10Z</time></trkpt><trkpt lat="45.93955941763951" lon="11.273613744766024"><ele>1187.0</ele><time>2026-04-12T07:58:11Z</time></trkpt><trkpt lat="45.93952518015744" lon="11.273779571454307"><ele>1190.0</ele><time>2026-04-12T07:58:12Z</time></trkpt><trkpt lat="45.93948727758136" lon="11.27394325116591"><ele>1191.2</ele><time>2026-04-12T07:58:13Z</time></trkpt><trkpt lat="45.93944996311457" lon="11.274100511429404"><ele>1192.4</ele><time>2026-04-12T07:58:14Z</time></trkpt><trkpt lat="45.93941397264826" lon="11.274247534228259"><ele>1193.6</ele><time>2026-04-12T07:58:15Z</time></trkpt><trkpt lat="45.93939620027723" lon="11.274381455010149"><ele>1194.8</ele><time>2026-04-12T07:58:16Z</time></trkpt><trkpt lat="45.939404715790516" lon="11.274507086569942"><ele>1196.0</ele><time>2026-04-12T07:58:17Z</time></trkpt><trkpt lat="45.93943263696958" lon="11.27463631207814"><ele>1196.0</ele><time>2026-04-12T07:58:18Z</time></trkpt><trkpt lat="45.939485929524935" lon="11.274759915184147"><ele>1196.0</ele><time>2026-04-12T07:58:19Z</time></trkpt><trkpt lat="45.93955480552144" lon="11.274878293202402"><ele>1196.0</ele><time>2026-04-12T07:58:20Z</time></trkpt><trkpt lat="45.939628902190556" lon="11.274988363711504"><ele>1196.0</ele><time>2026-04-12T07:58:21Z</time></trkpt><trkpt lat="45.93970088769152" lon="11.275088924198567"><ele>1196.0</ele><time>2026-04-12T07:58:22Z</time></trkpt><trkpt lat="45.93976521566423" lon="11.275199991587314"><ele>1197.25</ele><time>2026-04-12T07:58:23Z</time></trkpt><trkpt lat="45.93983962776751" lon="11.275314943652251"><ele>1198.5</ele><time>2026-04-12T07:58:24Z</time></trkpt><trkpt lat="45.939922608171635" lon="11.275435856755852"><ele>1199.75</ele><time>2026-04-12T07:58:25Z</time></trkpt><trkpt lat="45.94000021824414" lon="11.275565496216826"><ele>1201.0</ele><time>2026-04-12T07:58:26Z</time></trkpt><trkpt lat="45.940082578818426" lon="11.275691538653046"><ele>1202.75</ele><time>2026-04-12T07:58:27Z</time></trkpt><trkpt lat="45.94016511234621" lon="11.275822950576979"><ele>1204.5</ele><time>2026-04-12T07:58:28Z</time></trkpt><trkpt lat="45.94024678457374" lon="11.275956623966675"><ele>1206.25</ele><time>2026-04-12T07:58:29Z</time></trkpt><trkpt lat="45.94033211345078" lon="11.27608510445266"><ele>1208.0</ele><time>2026-04-12T07:58:30Z</time></trkpt><trkpt lat="45.940409532644" lon="11.27620553187654"><ele>1208.0</ele><time>2026-04-12T07:58:31Z</time></trkpt><trkpt lat="45.94047717009293" lon="11.276308668803988"><ele>1208.0</ele><time>2026-04-12T07:58:32Z</time></trkpt><trkpt lat="45.940539503990315" lon="11.276406386358937"><ele>1208.0</ele><time>2026-04-12T07:58:33Z</time></trkpt><trkpt lat="45.94059152643502" lon="11.276494586035902"><ele>1208.0</ele><time>2026-04-12T07:58:33.999Z</time></trkpt><trkpt lat="45.94062904717394" lon="11.276588802048911"><ele>1208.0</ele><time>2026-04-12T07:58:34.999Z</time></trkpt><trkpt lat="45.94064333383854" lon="11.276700580819508"><ele>1208.0</ele><time>2026-04-12T07:58:35.999Z</time></trkpt><trkpt lat="45.940600619702586" lon="11.276819301568526"><ele>1209.4</ele><time>2026-04-12T07:58:36.999Z</time></trkpt><trkpt lat="45.940575394715125" lon="11.27692784299824"><ele>1210.8</ele><time>2026-04-12T07:58:37.999Z</time></trkpt><trkpt lat="45.94056722063254" lon="11.277052406097631"><ele>1212.2</ele><time>2026-04-12T07:58:38.999Z</time></trkpt><trkpt lat="45.94054204148475" lon="11.27717495169871"><ele>1213.6</ele><time>2026-04-12T07:58:39.999Z</time></trkpt><trkpt lat="45.94049600565137" lon="11.277302489314428"><ele>1215.0</ele><time>2026-04-12T07:58:40.999Z</time></trkpt><trkpt lat="45.94041614888888" lon="11.277397377864714"><ele>1215.1666666666667</ele><time>2026-04-12T07:58:41.999Z</time></trkpt><trkpt lat="45.940355367443644" lon="11.27751516542145"><ele>1215.3333333333333</ele><time>2026-04-12T07:58:42.999Z</time></trkpt><trkpt lat="45.940289909986895" lon="11.277605192403117"><ele>1215.5</ele><time>2026-04-12T07:58:43.999Z</time></trkpt><trkpt lat="45.94022127458457" lon="11.277658633021314"><ele>1215.6666666666665</ele><time>2026-04-12T07:58:44.999Z</time></trkpt><trkpt lat="45.94013741753752" lon="11.277660643367602"><ele>1215.8333333333333</ele><time>2026-04-12T07:58:45.999Z</time></trkpt><trkpt lat="45.94004997650714" lon="11.277637294184679"><ele>1216.0</ele><time>2026-04-12T07:58:46.999Z</time></trkpt><trkpt lat="45.93996208687966" lon="11.277616516607987"><ele>1216.0</ele><time>2026-04-12T07:58:47.999Z</time></trkpt><trkpt lat="45.93987025544411" lon="11.277603107865367"><ele>1216.0</ele><time>2026-04-12T07:58:48.999Z</time></trkpt><trkpt lat="45.93978943681876" lon="11.277591015482797"><ele>1216.0</ele><time>2026-04-12T07:58:49.999Z</time></trkpt><trkpt lat="45.939672557355685" lon="11.277595767601708"><ele>1216.0</ele><time>2026-04-12T07:58:51.999Z</time></trkpt><trkpt lat="45.93960067618739" lon="11.277704314848968"><ele>1216.0</ele><time>2026-04-12T07:58:53.999Z</time></trkpt><trkpt lat="45.93958805480254" lon="11.277801959769127"><ele>1216.0</ele><time>2026-04-12T07:58:54.999Z</time></trkpt><trkpt lat="45.93961934371914" lon="11.277900414231162"><ele>1216.0</ele><time>2026-04-12T07:58:55.999Z</time></trkpt><trkpt lat="45.93970979819025" lon="11.27795398669273"><ele>1216.0</ele><time>2026-04-12T07:58:56.999Z</time></trkpt><trkpt lat="45.939809569817996" lon="11.277927305167244"><ele>1216.0</ele><time>2026-04-12T07:58:57.999Z</time></trkpt><trkpt lat="45.9398997230586" lon="11.277944594749194"><ele>1216.0</ele><time>2026-04-12T07:58:58.999Z</time></trkpt><trkpt lat="45.93998620452941" lon="11.277992255833619"><ele>1217.2</ele><time>2026-04-12T07:58:59.999Z</time></trkpt><trkpt lat="45.94006518270864" lon="11.278066417149507"><ele>1218.3999999999999</ele><time>2026-04-12T07:59:00.999Z</time></trkpt><trkpt lat="45.94014292853733" lon="11.278165038309593"><ele>1219.6</ele><time>2026-04-12T07:59:01.999Z</time></trkpt><trkpt lat="45.94021817670388" lon="11.278291302209679"><ele>1220.8</ele><time>2026-04-12T07:59:02.999Z</time></trkpt><trkpt lat="45.94028601683702" lon="11.278434093585059"><ele>1222.0</ele><time>2026-04-12T07:59:03.999Z</time></trkpt><trkpt lat="45.94034914135633" lon="11.278569286654477"><ele>1223.4</ele><time>2026-04-12T07:59:04.999Z</time></trkpt><trkpt lat="45.940403304819284" lon="11.278697248736142"><ele>1224.8000000000002</ele><time>2026-04-12T07:59:05.999Z</time></trkpt><trkpt lat="45.94044271818902" lon="11.27882820039382"><ele>1226.2</ele><time>2026-04-12T07:59:06.999Z</time></trkpt><trkpt lat="45.94048387495866" lon="11.278951746587335"><ele>1227.6000000000001</ele><time>2026-04-12T07:59:07.999Z</time></trkpt><trkpt lat="45.940537401321265" lon="11.279059876164018"><ele>1229.0</ele><time>2026-04-12T07:59:08.999Z</time></trkpt><trkpt lat="45.94061717027157" lon="11.279137900221308"><ele>1230.6000000000001</ele><time>2026-04-12T07:59:09.999Z</time></trkpt><trkpt lat="45.940707631614856" lon="11.279181840232122"><ele>1232.2</ele><time>2026-04-12T07:59:10.999Z</time></trkpt><trkpt lat="45.94080254038838" lon="11.27918462724249"><ele>1233.8000000000002</ele><time>2026-04-12T07:59:11.999Z</time></trkpt><trkpt lat="45.94089868326247" lon="11.279129897341102"><ele>1235.4</ele><time>2026-04-12T07:59:12.999Z</time></trkpt><trkpt lat="45.94098687284574" lon="11.279052505347225"><ele>1237.0</ele><time>2026-04-12T07:59:13.999Z</time></trkpt><trkpt lat="45.94106918728995" lon="11.278992298227625"><ele>1239.3333333333333</ele><time>2026-04-12T07:59:14.999Z</time></trkpt><trkpt lat="45.94113524518457" lon="11.27894007013783"><ele>1241.6666666666665</ele><time>2026-04-12T07:59:15.999Z</time></trkpt><trkpt lat="45.94120028194691" lon="11.278910689069743"><ele>1244.0</ele><time>2026-04-12T07:59:16.999Z</time></trkpt><trkpt lat="45.941273196159464" lon="11.278909794755494"><ele>1246.3333333333333</ele><time>2026-04-12T07:59:17.999Z</time></trkpt><trkpt lat="45.941345919445226" lon="11.27898724255913"><ele>1248.6666666666667</ele><time>2026-04-12T07:59:18.999Z</time></trkpt><trkpt lat="45.9413852692975" lon="11.279110567366478"><ele>1251.0</ele><time>2026-04-12T07:59:19.999Z</time></trkpt><trkpt lat="45.94139483871209" lon="11.279245522583114"><ele>1251.0</ele><time>2026-04-12T07:59:20.999Z</time></trkpt><trkpt lat="45.94138345873695" lon="11.279377432387449"><ele>1251.0</ele><time>2026-04-12T07:59:21.999Z</time></trkpt><trkpt lat="45.94135313034556" lon="11.279506910349612"><ele>1251.0</ele><time>2026-04-12T07:59:22.999Z</time></trkpt><trkpt lat="45.94127719629789" lon="11.279623338763772"><ele>1251.0</ele><time>2026-04-12T07:59:23.999Z</time></trkpt><trkpt lat="45.941186379027094" lon="11.279759704597577"><ele>1251.0</ele><time>2026-04-12T07:59:24.999Z</time></trkpt><trkpt lat="45.941096938598285" lon="11.27990544748847"><ele>1250.25</ele><time>2026-04-12T07:59:25.999Z</time></trkpt><trkpt lat="45.94100254674267" lon="11.280031038771595"><ele>1249.5</ele><time>2026-04-12T07:59:26.998Z</time></trkpt><trkpt lat="45.94091767769219" lon="11.280162428420223"><ele>1248.75</ele><time>2026-04-12T07:59:27.998Z</time></trkpt><trkpt lat="45.94083668446813" lon="11.280282572697013"><ele>1248.0</ele><time>2026-04-12T07:59:28.998Z</time></trkpt><trkpt lat="45.940749448833394" lon="11.28039913850219"><ele>1248.0</ele><time>2026-04-12T07:59:29.998Z</time></trkpt><trkpt lat="45.940662863609205" lon="11.280511638277464"><ele>1248.0</ele><time>2026-04-12T07:59:30.998Z</time></trkpt><trkpt lat="45.94056459664151" lon="11.280616342221915"><ele>1248.0</ele><time>2026-04-12T07:59:31.998Z</time></trkpt><trkpt lat="45.940462360974365" lon="11.280711189200964"><ele>1248.0</ele><time>2026-04-12T07:59:32.998Z</time></trkpt><trkpt lat="45.94035352797472" lon="11.2808204089459"><ele>1250.5</ele><time>2026-04-12T07:59:33.998Z</time></trkpt><trkpt lat="45.94025402431605" lon="11.28091477228697"><ele>1253.0</ele><time>2026-04-12T07:59:34.998Z</time></trkpt><trkpt lat="45.9401465009271" lon="11.280983513840926"><ele>1255.5</ele><time>2026-04-12T07:59:35.998Z</time></trkpt><trkpt lat="45.940030915083256" lon="11.281011749747096"><ele>1258.0</ele><time>2026-04-12T07:59:36.998Z</time></trkpt><trkpt lat="45.9399120160924" lon="11.28099515486088"><ele>1258.4</ele><time>2026-04-12T07:59:37.998Z</time></trkpt><trkpt lat="45.93980159885545" lon="11.280939020941"><ele>1258.8</ele><time>2026-04-12T07:59:38.998Z</time></trkpt><trkpt lat="45.93970656558243" lon="11.28088845325597"><ele>1259.2</ele><time>2026-04-12T07:59:39.998Z</time></trkpt><trkpt lat="45.9396206794437" lon="11.280865765456308"><ele>1259.6</ele><time>2026-04-12T07:59:40.998Z</time></trkpt><trkpt lat="45.939551507002975" lon="11.280891578423148"><ele>1260.0</ele><time>2026-04-12T07:59:41.998Z</time></trkpt><trkpt lat="45.93944479739739" lon="11.281011867989806"><ele>1260.0</ele><time>2026-04-12T07:59:43.998Z</time></trkpt><trkpt lat="45.93939484279897" lon="11.281137812768469"><ele>1260.0</ele><time>2026-04-12T07:59:44.998Z</time></trkpt><trkpt lat="45.939352582757785" lon="11.281328594343748"><ele>1260.0</ele><time>2026-04-12T07:59:45.998Z</time></trkpt><trkpt lat="45.93930876255143" lon="11.281558767843288"><ele>1260.0</ele><time>2026-04-12T07:59:46.998Z</time></trkpt><trkpt lat="45.93922992422524" lon="11.281807669064161"><ele>1263.0</ele><time>2026-04-12T07:59:47.998Z</time></trkpt><trkpt lat="45.93917236717045" lon="11.282087406030108"><ele>1266.0</ele><time>2026-04-12T07:59:48.998Z</time></trkpt><trkpt lat="45.93910875930867" lon="11.28229749545164"><ele>1269.0</ele><time>2026-04-12T07:59:49.998Z</time></trkpt><trkpt lat="45.93905471797194" lon="11.282510806673189"><ele>1276.6666666666667</ele><time>2026-04-12T07:59:50.998Z</time></trkpt><trkpt lat="45.93899793329648" lon="11.282722966349706"><ele>1284.3333333333335</ele><time>2026-04-12T07:59:51.998Z</time></trkpt><trkpt lat="45.938918313671" lon="11.282911336891084"><ele>1292.0</ele><time>2026-04-12T07:59:52.998Z</time></trkpt><trkpt lat="45.938811386708096" lon="11.28307318947208"><ele>1298.0</ele><time>2026-04-12T07:59:53.998Z</time></trkpt><trkpt lat="45.938675887854" lon="11.283218038035134"><ele>1304.0</ele><time>2026-04-12T07:59:54.998Z</time></trkpt><trkpt lat="45.93852517714381" lon="11.28335723010036"><ele>1310.0</ele><time>2026-04-12T07:59:55.998Z</time></trkpt><trkpt lat="45.93839108033411" lon="11.283522908811708"><ele>1306.0</ele><time>2026-04-12T07:59:56.998Z</time></trkpt><trkpt lat="45.938271134697715" lon="11.283713430149442"><ele>1302.0</ele><time>2026-04-12T07:59:57.998Z</time></trkpt><trkpt lat="45.93817277167086" lon="11.28389487956788"><ele>1298.0</ele><time>2026-04-12T07:59:58.998Z</time></trkpt><trkpt lat="45.938095027806646" lon="11.284083689961788"><ele>1298.0</ele><time>2026-04-12T08:00:00Z</time></trkpt><trkpt lat="45.938035921638274" lon="11.284293208074233"><ele>1298.0</ele><time>2026-04-12T08:00:01Z</time></trkpt><trkpt lat="45.93798429295749" lon="11.284507461132065"><ele>1298.0</ele><time>2026-04-12T08:00:02Z</time></trkpt><trkpt lat="45.93794074512388" lon="11.284721767222349"><ele>1300.0</ele><time>2026-04-12T08:00:03Z</time></trkpt><trkpt lat="45.93792445267042" lon="11.284911237231116"><ele>1302.0</ele><time>2026-04-12T08:00:04Z</time></trkpt><trkpt lat="45.93793518400609" lon="11.285110464464173"><ele>1304.0</ele><time>2026-04-12T08:00:05Z</time></trkpt><trkpt lat="45.93798036085549" lon="11.285297917433203"><ele>1306.0</ele><time>2026-04-12T08:00:06Z</time></trkpt><trkpt lat="45.93804027357249" lon="11.285445880081264"><ele>1307.5</ele><time>2026-04-12T08:00:07Z</time></trkpt><trkpt lat="45.938059791031904" lon="11.285599296099756"><ele>1309.0</ele><time>2026-04-12T08:00:08Z</time></trkpt><trkpt lat="45.93801632401506" lon="11.285758143347227"><ele>1310.5</ele><time>2026-04-12T08:00:09Z</time></trkpt><trkpt lat="45.93792544642221" lon="11.28590101279847"><ele>1312.0</ele><time>2026-04-12T08:00:10Z</time></trkpt><trkpt lat="45.93780060052492" lon="11.286026283782258"><ele>1312.0</ele><time>2026-04-12T08:00:11Z</time></trkpt><trkpt lat="45.937661186329876" lon="11.28617297317753"><ele>1312.0</ele><time>2026-04-12T08:00:12Z</time></trkpt><trkpt lat="45.937534031281274" lon="11.28631735908237"><ele>1312.0</ele><time>2026-04-12T08:00:13Z</time></trkpt><trkpt lat="45.93742764140736" lon="11.286439010963827"><ele>1310.3999999999999</ele><time>2026-04-12T08:00:14Z</time></trkpt><trkpt lat="45.93734945146858" lon="11.286543051982468"><ele>1308.8</ele><time>2026-04-12T08:00:15Z</time></trkpt><trkpt lat="45.93730595224655" lon="11.286657709372141"><ele>1307.2</ele><time>2026-04-12T08:00:16Z</time></trkpt><trkpt lat="45.93727797800187" lon="11.286772098803967"><ele>1305.6</ele><time>2026-04-12T08:00:17Z</time></trkpt><trkpt lat="45.9373187954418" lon="11.28691146857921"><ele>1304.0</ele><time>2026-04-12T08:00:18Z</time></trkpt><trkpt lat="45.93736832073534" lon="11.287054163924278"><ele>1304.0</ele><time>2026-04-12T08:00:19Z</time></trkpt><trkpt lat="45.93744630826374" lon="11.287217105879531"><ele>1304.0</ele><time>2026-04-12T08:00:20Z</time></trkpt><trkpt lat="45.93750821195966" lon="11.287406347051327"><ele>1304.0</ele><time>2026-04-12T08:00:21Z</time></trkpt><trkpt lat="45.937546016272144" lon="11.287612856133766"><ele>1304.0</ele><time>2026-04-12T08:00:22Z</time></trkpt><trkpt lat="45.937547591038246" lon="11.287845246510203"><ele>1307.0</ele><time>2026-04-12T08:00:23Z</time></trkpt><trkpt lat="45.937566278794876" lon="11.2880873185008"><ele>1310.0</ele><time>2026-04-12T08:00:24Z</time></trkpt><trkpt lat="45.937560379279105" lon="11.288332977937575"><ele>1313.0</ele><time>2026-04-12T08:00:25Z</time></trkpt><trkpt lat="45.93756565668578" lon="11.288570196374966"><ele>1313.0</ele><time>2026-04-12T08:00:26Z</time></trkpt><trkpt lat="45.93757407178347" lon="11.288793157797953"><ele>1313.0</ele><time>2026-04-12T08:00:27Z</time></trkpt><trkpt lat="45.937581348776256" lon="11.288996451391254"><ele>1313.0</ele><time>2026-04-12T08:00:28Z</time></trkpt><trkpt lat="45.9375970707543" lon="11.289174443057714"><ele>1313.0</ele><time>2026-04-12T08:00:29Z</time></trkpt><trkpt lat="45.93763665373118" lon="11.289336868020479"><ele>1311.0</ele><time>2026-04-12T08:00:30Z</time></trkpt><trkpt lat="45.93770667551541" lon="11.289501119923598"><ele>1309.0</ele><time>2026-04-12T08:00:31Z</time></trkpt><trkpt lat="45.93781199842936" lon="11.289657567301719"><ele>1307.0</ele><time>2026-04-12T08:00:32Z</time></trkpt><trkpt lat="45.937943127293394" lon="11.28979740374916"><ele>1305.0</ele><time>2026-04-12T08:00:33Z</time></trkpt><trkpt lat="45.938086971190785" lon="11.289921995382675"><ele>1306.0</ele><time>2026-04-12T08:00:34Z</time></trkpt><trkpt lat="45.938243145892194" lon="11.290066352116778"><ele>1307.0</ele><time>2026-04-12T08:00:35Z</time></trkpt><trkpt lat="45.93840098768901" lon="11.290216867126745"><ele>1308.0</ele><time>2026-04-12T08:00:36Z</time></trkpt><trkpt lat="45.93854447249234" lon="11.29035548298027"><ele>1308.0</ele><time>2026-04-12T08:00:37Z</time></trkpt><trkpt lat="45.938675278397895" lon="11.290475033013696"><ele>1308.0</ele><time>2026-04-12T08:00:38Z</time></trkpt><trkpt lat="45.93878965574544" lon="11.29060473482848"><ele>1308.0</ele><time>2026-04-12T08:00:39Z</time></trkpt><trkpt lat="45.93890770265098" lon="11.290692587602578"><ele>1308.0</ele><time>2026-04-12T08:00:39.999Z</time></trkpt><trkpt lat="45.93898494169522" lon="11.290797073134001"><ele>1306.25</ele><time>2026-04-12T08:00:40.999Z</time></trkpt><trkpt lat="45.93904671261012" lon="11.290921429042971"><ele>1304.5</ele><time>2026-04-12T08:00:41.999Z</time></trkpt><trkpt lat="45.939083989767994" lon="11.291073258566115"><ele>1302.75</ele><time>2026-04-12T08:00:42.999Z</time></trkpt><trkpt lat="45.9390768841554" lon="11.291251759783371"><ele>1301.0</ele><time>2026-04-12T08:00:43.999Z</time></trkpt><trkpt lat="45.93909638530748" lon="11.291443048824561"><ele>1300.75</ele><time>2026-04-12T08:00:44.999Z</time></trkpt><trkpt lat="45.939108109967314" lon="11.291612938746816"><ele>1300.5</ele><time>2026-04-12T08:00:45.999Z</time></trkpt><trkpt lat="45.93913647313715" lon="11.291768554517953"><ele>1300.25</ele><time>2026-04-12T08:00:46.999Z</time></trkpt><trkpt lat="45.93919499536436" lon="11.291908235778026"><ele>1300.0</ele><time>2026-04-12T08:00:47.999Z</time></trkpt><trkpt lat="45.93928355925376" lon="11.29202238011984"><ele>1300.75</ele><time>2026-04-12T08:00:48.999Z</time></trkpt><trkpt lat="45.93938697274813" lon="11.29211025536864"><ele>1301.5</ele><time>2026-04-12T08:00:49.999Z</time></trkpt><trkpt lat="45.93949709897445" lon="11.292180381065009"><ele>1302.25</ele><time>2026-04-12T08:00:50.999Z</time></trkpt><trkpt lat="45.93961288926381" lon="11.292212970010963"><ele>1303.0</ele><time>2026-04-12T08:00:51.999Z</time></trkpt><trkpt lat="45.939733452681104" lon="11.29221607739679"><ele>1303.0</ele><time>2026-04-12T08:00:52.999Z</time></trkpt><trkpt lat="45.939852948627006" lon="11.292234226948445"><ele>1303.0</ele><time>2026-04-12T08:00:53.999Z</time></trkpt><trkpt lat="45.93996662874571" lon="11.292308428195941"><ele>1303.0</ele><time>2026-04-12T08:00:54.999Z</time></trkpt><trkpt lat="45.9400676605758" lon="11.292412971468245"><ele>1303.0</ele><time>2026-04-12T08:00:55.999Z</time></trkpt><trkpt lat="45.94017100287585" lon="11.292488955245371"><ele>1300.0</ele><time>2026-04-12T08:00:56.999Z</time></trkpt><trkpt lat="45.94028693858659" lon="11.29254057956671"><ele>1297.0</ele><time>2026-04-12T08:00:57.999Z</time></trkpt><trkpt lat="45.9404059162614" lon="11.29254879325746"><ele>1294.0</ele><time>2026-04-12T08:00:58.999Z</time></trkpt><trkpt lat="45.94053542488067" lon="11.292516320602335"><ele>1291.0</ele><time>2026-04-12T08:00:59.999Z</time></trkpt><trkpt lat="45.94067006496446" lon="11.292449084740298"><ele>1291.0</ele><time>2026-04-12T08:01:00.999Z</time></trkpt><trkpt lat="45.94081883633156" lon="11.292361877268927"><ele>1291.0</ele><time>2026-04-12T08:01:01.999Z</time></trkpt><trkpt lat="45.94097368599582" lon="11.292276298910252"><ele>1291.0</ele><time>2026-04-12T08:01:02.999Z</time></trkpt><trkpt lat="45.941133908785154" lon="11.292180254456316"><ele>1291.0</ele><time>2026-04-12T08:01:03.999Z</time></trkpt><trkpt lat="45.94128307430854" lon="11.292086133844228"><ele>1291.0</ele><time>2026-04-12T08:01:04.999Z</time></trkpt><trkpt lat="45.94142472079156" lon="11.292030537246578"><ele>1291.0</ele><time>2026-04-12T08:01:05.999Z</time></trkpt><trkpt lat="45.94154175926078" lon="11.29196504874433"><ele>1291.0</ele><time>2026-04-12T08:01:06.999Z</time></trkpt><trkpt lat="45.9416279365595" lon="11.291891600776943"><ele>1291.0</ele><time>2026-04-12T08:01:07.999Z</time></trkpt><trkpt lat="45.94170820349717" lon="11.291852593023872"><ele>1291.0</ele><time>2026-04-12T08:01:08.999Z</time></trkpt><trkpt lat="45.94178937958528" lon="11.291845532447692"><ele>1291.0</ele><time>2026-04-12T08:01:09.999Z</time></trkpt><trkpt lat="45.94186964975339" lon="11.291880473247522"><ele>1291.0</ele><time>2026-04-12T08:01:10.999Z</time></trkpt><trkpt lat="45.94192058557896" lon="11.291968792818137"><ele>1291.0</ele><time>2026-04-12T08:01:11.999Z</time></trkpt><trkpt lat="45.94192470650695" lon="11.292093311455773"><ele>1291.0</ele><time>2026-04-12T08:01:12.999Z</time></trkpt><trkpt lat="45.94186322455832" lon="11.292213383601505"><ele>1290.4</ele><time>2026-04-12T08:01:13.999Z</time></trkpt><trkpt lat="45.94178094666079" lon="11.292296168189372"><ele>1289.8</ele><time>2026-04-12T08:01:14.999Z</time></trkpt><trkpt lat="45.94168934088297" lon="11.29238896773086"><ele>1289.2</ele><time>2026-04-12T08:01:15.999Z</time></trkpt><trkpt lat="45.94162180893442" lon="11.292502712830606"><ele>1288.6000000000001</ele><time>2026-04-12T08:01:16.999Z</time></trkpt><trkpt lat="45.941575720061806" lon="11.292625910602055"><ele>1288.0</ele><time>2026-04-12T08:01:17.999Z</time></trkpt><trkpt lat="45.94154307474619" lon="11.292747553784807"><ele>1287.8000000000002</ele><time>2026-04-12T08:01:18.999Z</time></trkpt><trkpt lat="45.94155520162149" lon="11.292885859465128"><ele>1287.6</ele><time>2026-04-12T08:01:19.999Z</time></trkpt><trkpt lat="45.94160379285477" lon="11.29301398956271"><ele>1287.4</ele><time>2026-04-12T08:01:20.999Z</time></trkpt><trkpt lat="45.941690719548696" lon="11.293102377881315"><ele>1287.1999999999998</ele><time>2026-04-12T08:01:21.999Z</time></trkpt><trkpt lat="45.94179772234799" lon="11.29315379430967"><ele>1287.0</ele><time>2026-04-12T08:01:22.999Z</time></trkpt><trkpt lat="45.94193162459042" lon="11.293147639109977"><ele>1287.25</ele><time>2026-04-12T08:01:23.999Z</time></trkpt><trkpt lat="45.94207063364075" lon="11.293103523940339"><ele>1287.5</ele><time>2026-04-12T08:01:24.999Z</time></trkpt><trkpt lat="45.942206182149214" lon="11.293020334651318"><ele>1287.75</ele><time>2026-04-12T08:01:25.999Z</time></trkpt><trkpt lat="45.94233532026315" lon="11.292929283117552"><ele>1288.0</ele><time>2026-04-12T08:01:26.999Z</time></trkpt><trkpt lat="45.94246670966441" lon="11.29287116663731"><ele>1286.5</ele><time>2026-04-12T08:01:27.999Z</time></trkpt><trkpt lat="45.94261943382652" lon="11.292881437201176"><ele>1285.0</ele><time>2026-04-12T08:01:28.999Z</time></trkpt><trkpt lat="45.94275152718735" lon="11.292929414528961"><ele>1283.5</ele><time>2026-04-12T08:01:29.999Z</time></trkpt><trkpt lat="45.94286170949445" lon="11.292951514633224"><ele>1282.0</ele><time>2026-04-12T08:01:30.999Z</time></trkpt><trkpt lat="45.94297476535691" lon="11.29292190252257"><ele>1282.0</ele><time>2026-04-12T08:01:31.999Z</time></trkpt><trkpt lat="45.94309276687955" lon="11.292850966360096"><ele>1282.0</ele><time>2026-04-12T08:01:32.998Z</time></trkpt><trkpt lat="45.94320422581736" lon="11.29273879144258"><ele>1282.0</ele><time>2026-04-12T08:01:33.998Z</time></trkpt><trkpt lat="45.943325132646" lon="11.292605288641141"><ele>1282.0</ele><time>2026-04-12T08:01:34.998Z</time></trkpt><trkpt lat="45.94346877029282" lon="11.29251064336634"><ele>1277.3333333333333</ele><time>2026-04-12T08:01:35.998Z</time></trkpt><trkpt lat="45.9436375140755" lon="11.292432248742825"><ele>1272.6666666666667</ele><time>2026-04-12T08:01:36.998Z</time></trkpt><trkpt lat="45.94381940693836" lon="11.292352577467224"><ele>1268.0</ele><time>2026-04-12T08:01:37.998Z</time></trkpt><trkpt lat="45.94400840651818" lon="11.292268848180306"><ele>1270.6666666666667</ele><time>2026-04-12T08:01:38.998Z</time></trkpt><trkpt lat="45.94420260698755" lon="11.292222804140986"><ele>1273.3333333333333</ele><time>2026-04-12T08:01:39.998Z</time></trkpt><trkpt lat="45.94439153159853" lon="11.29219209279413"><ele>1276.0</ele><time>2026-04-12T08:01:40.998Z</time></trkpt><trkpt lat="45.94456011522146" lon="11.2921502156506"><ele>1276.0</ele><time>2026-04-12T08:01:41.998Z</time></trkpt><trkpt lat="45.944709489807536" lon="11.29208437018672"><ele>1276.0</ele><time>2026-04-12T08:01:42.998Z</time></trkpt><trkpt lat="45.944832225387294" lon="11.292019485725447"><ele>1276.0</ele><time>2026-04-12T08:01:43.998Z</time></trkpt><trkpt lat="45.94494844608946" lon="11.291931564205772"><ele>1276.0</ele><time>2026-04-12T08:01:44.998Z</time></trkpt><trkpt lat="45.94503910692757" lon="11.291832036643521"><ele>1274.0</ele><time>2026-04-12T08:01:45.998Z</time></trkpt><trkpt lat="45.945125251450925" lon="11.291739559271278"><ele>1272.0</ele><time>2026-04-12T08:01:46.998Z</time></trkpt><trkpt lat="45.94522721369542" lon="11.291691675456521"><ele>1270.0</ele><time>2026-04-12T08:01:47.998Z</time></trkpt><trkpt lat="45.94534355638709" lon="11.291701891648586"><ele>1268.0</ele><time>2026-04-12T08:01:48.998Z</time></trkpt><trkpt lat="45.9454501367218" lon="11.291778215275666"><ele>1268.0</ele><time>2026-04-12T08:01:49.998Z</time></trkpt><trkpt lat="45.94551915672787" lon="11.291898816215975"><ele>1268.0</ele><time>2026-04-12T08:01:50.998Z</time></trkpt><trkpt lat="45.94558803486921" lon="11.292001562033693"><ele>1268.0</ele><time>2026-04-12T08:01:51.998Z</time></trkpt><trkpt lat="45.94567981538599" lon="11.292058034711296"><ele>1268.0</ele><time>2026-04-12T08:01:52.998Z</time></trkpt><trkpt lat="45.94579348556664" lon="11.292070781773432"><ele>1268.0</ele><time>2026-04-12T08:01:53.998Z</time></trkpt><trkpt lat="45.94590968622776" lon="11.292073539174288"><ele>1270.2</ele><time>2026-04-12T08:01:54.998Z</time></trkpt><trkpt lat="45.94600880030188" lon="11.292076196798506"><ele>1272.4</ele><time>2026-04-12T08:01:55.998Z</time></trkpt><trkpt lat="45.946085343571696" lon="11.29212156305779"><ele>1274.6000000000001</ele><time>2026-04-12T08:01:56.998Z</time></trkpt><trkpt lat="45.94614391573127" lon="11.292228541927676"><ele>1276.8</ele><time>2026-04-12T08:01:57.998Z</time></trkpt><trkpt lat="45.94616007862264" lon="11.292395465373922"><ele>1279.0</ele><time>2026-04-12T08:01:58.998Z</time></trkpt><trkpt lat="45.94615913003811" lon="11.292570031929403"><ele>1279.0</ele><time>2026-04-12T08:01:59.998Z</time></trkpt><trkpt lat="45.94614813294143" lon="11.292722426769474"><ele>1279.0</ele><time>2026-04-12T08:02:00.998Z</time></trkpt><trkpt lat="45.94613363827274" lon="11.292859780991579"><ele>1279.0</ele><time>2026-04-12T08:02:01.998Z</time></trkpt><trkpt lat="45.94610740999107" lon="11.292992311528755"><ele>1279.0</ele><time>2026-04-12T08:02:02.998Z</time></trkpt><trkpt lat="45.94605692445333" lon="11.293267601816936"><ele>1277.4</ele><time>2026-04-12T08:02:03.998Z</time></trkpt><trkpt lat="45.94600365288451" lon="11.293419188628237"><ele>1275.8000000000002</ele><time>2026-04-12T08:02:04.998Z</time></trkpt><trkpt lat="45.94597871769149" lon="11.293542969750908"><ele>1274.1999999999998</ele><time>2026-04-12T08:02:06Z</time></trkpt><trkpt lat="45.94598288485025" lon="11.293667457151557"><ele>1272.6</ele><time>2026-04-12T08:02:07Z</time></trkpt><trkpt lat="45.94604458410214" lon="11.293790740955625"><ele>1271.0</ele><time>2026-04-12T08:02:08Z</time></trkpt><trkpt lat="45.946146052415955" lon="11.293879306121104"><ele>1269.25</ele><time>2026-04-12T08:02:09Z</time></trkpt><trkpt lat="45.94625082701077" lon="11.29396881273577"><ele>1267.5</ele><time>2026-04-12T08:02:10Z</time></trkpt><trkpt lat="45.946355828819605" lon="11.294067753500848"><ele>1265.75</ele><time>2026-04-12T08:02:11Z</time></trkpt><trkpt lat="45.946450280731554" lon="11.294215279988862"><ele>1264.0</ele><time>2026-04-12T08:02:12Z</time></trkpt><trkpt lat="45.946544061549695" lon="11.29438950386756"><ele>1264.0</ele><time>2026-04-12T08:02:13Z</time></trkpt><trkpt lat="45.94665925346077" lon="11.294580372322612"><ele>1264.0</ele><time>2026-04-12T08:02:14Z</time></trkpt><trkpt lat="45.94677779174731" lon="11.294753518706829"><ele>1264.0</ele><time>2026-04-12T08:02:15Z</time></trkpt><trkpt lat="45.94688528924749" lon="11.294926209887796"><ele>1261.6666666666665</ele><time>2026-04-12T08:02:16Z</time></trkpt><trkpt lat="45.94699232890531" lon="11.295087035492466"><ele>1259.3333333333333</ele><time>2026-04-12T08:02:17Z</time></trkpt><trkpt lat="45.947112520623556" lon="11.295226714414206"><ele>1257.0</ele><time>2026-04-12T08:02:18Z</time></trkpt><trkpt lat="45.94725362393316" lon="11.295349297906586"><ele>1257.0</ele><time>2026-04-12T08:02:19Z</time></trkpt><trkpt lat="45.947402111856825" lon="11.295459699901752"><ele>1257.0</ele><time>2026-04-12T08:02:20Z</time></trkpt><trkpt lat="45.94755794354721" lon="11.29555778764297"><ele>1257.0</ele><time>2026-04-12T08:02:21Z</time></trkpt><trkpt lat="45.94771592322907" lon="11.295643271227945"><ele>1254.0</ele><time>2026-04-12T08:02:22Z</time></trkpt><trkpt lat="45.94787895796702" lon="11.29568992034137"><ele>1251.0</ele><time>2026-04-12T08:02:23Z</time></trkpt><trkpt lat="45.94801932905687" lon="11.295734810331648"><ele>1248.0</ele><time>2026-04-12T08:02:24Z</time></trkpt><trkpt lat="45.94815048703275" lon="11.295781770911486"><ele>1245.0</ele><time>2026-04-12T08:02:25Z</time></trkpt><trkpt lat="45.948295517821784" lon="11.295786474942787"><ele>1243.0</ele><time>2026-04-12T08:02:26Z</time></trkpt><trkpt lat="45.94845008755365" lon="11.295736777218126"><ele>1241.0</ele><time>2026-04-12T08:02:27Z</time></trkpt><trkpt lat="45.94859256226648" lon="11.295684072858894"><ele>1239.0</ele><time>2026-04-12T08:02:28Z</time></trkpt><trkpt lat="45.948734996749735" lon="11.295612048813327"><ele>1243.3333333333333</ele><time>2026-04-12T08:02:29Z</time></trkpt><trkpt lat="45.948886579743196" lon="11.295537418024574"><ele>1247.6666666666665</ele><time>2026-04-12T08:02:30Z</time></trkpt><trkpt lat="45.94904427939774" lon="11.295470543615474"><ele>1252.0</ele><time>2026-04-12T08:02:31Z</time></trkpt><trkpt lat="45.94918321123028" lon="11.295420906324171"><ele>1250.0</ele><time>2026-04-12T08:02:32Z</time></trkpt><trkpt lat="45.94931120293254" lon="11.295367227822233"><ele>1248.0</ele><time>2026-04-12T08:02:33Z</time></trkpt><trkpt lat="45.94943299458735" lon="11.2952928155614"><ele>1246.0</ele><time>2026-04-12T08:02:34Z</time></trkpt><trkpt lat="45.9495261838612" lon="11.295215434979044"><ele>1244.0</ele><time>2026-04-12T08:02:35Z</time></trkpt><trkpt lat="45.94963663722235" lon="11.295118989521924"><ele>1244.0</ele><time>2026-04-12T08:02:36Z</time></trkpt><trkpt lat="45.94974201639897" lon="11.295056898208644"><ele>1244.0</ele><time>2026-04-12T08:02:37Z</time></trkpt><trkpt lat="45.94985543622197" lon="11.295009593029011"><ele>1244.0</ele><time>2026-04-12T08:02:38Z</time></trkpt><trkpt lat="45.94997448396139" lon="11.294971674943957"><ele>1244.0</ele><time>2026-04-12T08:02:39Z</time></trkpt><trkpt lat="45.950082737108545" lon="11.29493957155522"><ele>1241.5</ele><time>2026-04-12T08:02:40Z</time></trkpt><trkpt lat="45.9502066601103" lon="11.294917276610954"><ele>1239.0</ele><time>2026-04-12T08:02:41Z</time></trkpt><trkpt lat="45.95034700317759" lon="11.294880931422211"><ele>1236.5</ele><time>2026-04-12T08:02:42Z</time></trkpt><trkpt lat="45.950504164212205" lon="11.294841648383759"><ele>1234.0</ele><time>2026-04-12T08:02:43Z</time></trkpt><trkpt lat="45.95066023233313" lon="11.294808494914106"><ele>1234.0</ele><time>2026-04-12T08:02:44Z</time></trkpt><trkpt lat="45.95082173097322" lon="11.294770706144021"><ele>1234.0</ele><time>2026-04-12T08:02:45Z</time></trkpt><trkpt lat="45.95099606498592" lon="11.29471615287531"><ele>1234.0</ele><time>2026-04-12T08:02:46Z</time></trkpt><trkpt lat="45.95117801481262" lon="11.294668013331371"><ele>1236.0</ele><time>2026-04-12T08:02:46.999Z</time></trkpt><trkpt lat="45.9513546356997" lon="11.294650653586778"><ele>1238.0</ele><time>2026-04-12T08:02:47.999Z</time></trkpt><trkpt lat="45.9515434460047" lon="11.294644001442041"><ele>1240.0</ele><time>2026-04-12T08:02:48.999Z</time></trkpt><trkpt lat="45.95170636449298" lon="11.294615955896669"><ele>1240.25</ele><time>2026-04-12T08:02:49.999Z</time></trkpt><trkpt lat="45.95184462682757" lon="11.29462711500977"><ele>1240.5</ele><time>2026-04-12T08:02:50.999Z</time></trkpt><trkpt lat="45.951958788850014" lon="11.294633471280108"><ele>1240.75</ele><time>2026-04-12T08:02:51.999Z</time></trkpt><trkpt lat="45.9520715359597" lon="11.294625709860206"><ele>1241.0</ele><time>2026-04-12T08:02:52.999Z</time></trkpt><trkpt lat="45.952184769191916" lon="11.294621140681741"><ele>1241.0</ele><time>2026-04-12T08:02:53.999Z</time></trkpt><trkpt lat="45.95229638748505" lon="11.294624894341684"><ele>1241.0</ele><time>2026-04-12T08:02:54.999Z</time></trkpt><trkpt lat="45.95240559974728" lon="11.294622925279162"><ele>1241.0</ele><time>2026-04-12T08:02:55.999Z</time></trkpt><trkpt lat="45.9525123134367" lon="11.294629522702913"><ele>1241.0</ele><time>2026-04-12T08:02:56.999Z</time></trkpt><trkpt lat="45.9526270016618" lon="11.294629308415805"><ele>1241.0</ele><time>2026-04-12T08:02:57.999Z</time></trkpt><trkpt lat="45.95273711471532" lon="11.29461569993181"><ele>1240.75</ele><time>2026-04-12T08:02:58.999Z</time></trkpt><trkpt lat="45.95284851407288" lon="11.294619579614"><ele>1240.5</ele><time>2026-04-12T08:02:59.999Z</time></trkpt><trkpt lat="45.95297357590971" lon="11.294623645160996"><ele>1240.25</ele><time>2026-04-12T08:03:00.999Z</time></trkpt><trkpt lat="45.95309291839144" lon="11.294606080363243"><ele>1240.0</ele><time>2026-04-12T08:03:01.999Z</time></trkpt><trkpt lat="45.95319759526515" lon="11.294619308939446"><ele>1240.0</ele><time>2026-04-12T08:03:02.999Z</time></trkpt><trkpt lat="45.953297233696574" lon="11.294611104792406"><ele>1240.0</ele><time>2026-04-12T08:03:03.999Z</time></trkpt><trkpt lat="45.9533970955708" lon="11.294609136646578"><ele>1240.0</ele><time>2026-04-12T08:03:04.999Z</time></trkpt><trkpt lat="45.9534957570481" lon="11.294606093809131"><ele>1240.0</ele><time>2026-04-12T08:03:05.999Z</time></trkpt><trkpt lat="45.95359856973187" lon="11.294604206248184"><ele>1240.0</ele><time>2026-04-12T08:03:06.999Z</time></trkpt><trkpt lat="45.9537032299471" lon="11.294600946263035"><ele>1239.0</ele><time>2026-04-12T08:03:07.999Z</time></trkpt><trkpt lat="45.95380148030122" lon="11.294605968304277"><ele>1238.0</ele><time>2026-04-12T08:03:08.999Z</time></trkpt><trkpt lat="45.953882172558586" lon="11.294619317601228"><ele>1237.0</ele><time>2026-04-12T08:03:09.999Z</time></trkpt><trkpt lat="45.95396634505563" lon="11.294609541555591"><ele>1236.0</ele><time>2026-04-12T08:03:10.999Z</time></trkpt><trkpt lat="45.9540674734011" lon="11.294596565573851"><ele>1235.0</ele><time>2026-04-12T08:03:11.999Z</time></trkpt><trkpt lat="45.954176545223284" lon="11.294573588291996"><ele>1233.0</ele><time>2026-04-12T08:03:12.999Z</time></trkpt><trkpt lat="45.9542924999544" lon="11.2945285365545"><ele>1231.0</ele><time>2026-04-12T08:03:13.999Z</time></trkpt><trkpt lat="45.95440878081917" lon="11.294465881985388"><ele>1229.0</ele><time>2026-04-12T08:03:14.999Z</time></trkpt><trkpt lat="45.954511463074475" lon="11.294368034770724"><ele>1227.0</ele><time>2026-04-12T08:03:15.999Z</time></trkpt><trkpt lat="45.954608231855964" lon="11.294263615413149"><ele>1227.0</ele><time>2026-04-12T08:03:16.999Z</time></trkpt><trkpt lat="45.954705602864145" lon="11.2941612916322"><ele>1227.0</ele><time>2026-04-12T08:03:17.999Z</time></trkpt><trkpt lat="45.95479262078224" lon="11.294049740102267"><ele>1227.0</ele><time>2026-04-12T08:03:18.999Z</time></trkpt><trkpt lat="45.95488356186632" lon="11.293950562204138"><ele>1227.0</ele><time>2026-04-12T08:03:19.999Z</time></trkpt><trkpt lat="45.95498052716679" lon="11.293864796201028"><ele>1228.8</ele><time>2026-04-12T08:03:20.999Z</time></trkpt><trkpt lat="45.95507863750001" lon="11.293787334604907"><ele>1230.6</ele><time>2026-04-12T08:03:21.999Z</time></trkpt><trkpt lat="45.95518705013082" lon="11.293719109377848"><ele>1232.3999999999999</ele><time>2026-04-12T08:03:22.999Z</time></trkpt><trkpt lat="45.95527953973151" lon="11.293666034105925"><ele>1234.2</ele><time>2026-04-12T08:03:23.999Z</time></trkpt><trkpt lat="45.955368879631095" lon="11.293587590380621"><ele>1236.0</ele><time>2026-04-12T08:03:24.999Z</time></trkpt><trkpt lat="45.95542331855936" lon="11.293481667090722"><ele>1236.0</ele><time>2026-04-12T08:03:25.999Z</time></trkpt><trkpt lat="45.955473391859876" lon="11.293377772192583"><ele>1236.0</ele><time>2026-04-12T08:03:26.999Z</time></trkpt><trkpt lat="45.95552319369153" lon="11.293263590044392"><ele>1236.0</ele><time>2026-04-12T08:03:27.999Z</time></trkpt><trkpt lat="45.95558229427923" lon="11.293155046242314"><ele>1236.0</ele><time>2026-04-12T08:03:28.999Z</time></trkpt><trkpt lat="45.955651475488175" lon="11.293046553299487"><ele>1236.0</ele><time>2026-04-12T08:03:29.999Z</time></trkpt><trkpt lat="45.95576108040453" lon="11.293015552021215"><ele>1238.75</ele><time>2026-04-12T08:03:30.999Z</time></trkpt><trkpt lat="45.955870465732794" lon="11.292959625596703"><ele>1241.5</ele><time>2026-04-12T08:03:31.999Z</time></trkpt><trkpt lat="45.95600485556225" lon="11.292870495038642"><ele>1244.25</ele><time>2026-04-12T08:03:32.999Z</time></trkpt><trkpt lat="45.956157019083484" lon="11.292810211693721"><ele>1247.0</ele><time>2026-04-12T08:03:33.999Z</time></trkpt><trkpt lat="45.95634090515673" lon="11.292703325309082"><ele>1247.0</ele><time>2026-04-12T08:03:34.999Z</time></trkpt><trkpt lat="45.95655085801269" lon="11.29260720676314"><ele>1247.0</ele><time>2026-04-12T08:03:35.999Z</time></trkpt><trkpt lat="45.95674107275502" lon="11.292524950718473"><ele>1247.0</ele><time>2026-04-12T08:03:36.999Z</time></trkpt><trkpt lat="45.95689350177493" lon="11.2924647821256"><ele>1246.0</ele><time>2026-04-12T08:03:37.999Z</time></trkpt><trkpt lat="45.957027329324205" lon="11.292401264864665"><ele>1245.0</ele><time>2026-04-12T08:03:38.999Z</time></trkpt><trkpt lat="45.957170923781774" lon="11.292353336450692"><ele>1244.0</ele><time>2026-04-12T08:03:39.998Z</time></trkpt><trkpt lat="45.95730987644245" lon="11.292309611198018"><ele>1243.0</ele><time>2026-04-12T08:03:40.998Z</time></trkpt><trkpt lat="45.9573760773709" lon="11.292257323215251"><ele>1244.75</ele><time>2026-04-12T08:03:41.998Z</time></trkpt><trkpt lat="45.957461517951735" lon="11.29223977542132"><ele>1246.5</ele><time>2026-04-12T08:03:42.998Z</time></trkpt><trkpt lat="45.95757430196367" lon="11.29226500347449"><ele>1248.25</ele><time>2026-04-12T08:03:43.998Z</time></trkpt><trkpt lat="45.95770012683144" lon="11.29234429437344"><ele>1250.0</ele><time>2026-04-12T08:03:44.998Z</time></trkpt><trkpt lat="45.95782857188015" lon="11.292456546822379"><ele>1250.0</ele><time>2026-04-12T08:03:45.998Z</time></trkpt><trkpt lat="45.957974216758345" lon="11.29256500319208"><ele>1250.0</ele><time>2026-04-12T08:03:46.998Z</time></trkpt><trkpt lat="45.95812873837658" lon="11.292649065137706"><ele>1250.0</ele><time>2026-04-12T08:03:47.998Z</time></trkpt><trkpt lat="45.95828980144727" lon="11.292702003665912"><ele>1253.6666666666667</ele><time>2026-04-12T08:03:48.998Z</time></trkpt><trkpt lat="45.95845861688678" lon="11.292774530189138"><ele>1257.3333333333333</ele><time>2026-04-12T08:03:49.998Z</time></trkpt><trkpt lat="45.95863365258417" lon="11.292876756576542"><ele>1261.0</ele><time>2026-04-12T08:03:50.998Z</time></trkpt><trkpt lat="45.95881076616202" lon="11.292972703163374"><ele>1261.0</ele><time>2026-04-12T08:03:51.998Z</time></trkpt><trkpt lat="45.95896723156994" lon="11.293058082687486"><ele>1261.0</ele><time>2026-04-12T08:03:52.998Z</time></trkpt><trkpt lat="45.95910947194897" lon="11.293142149932015"><ele>1261.0</ele><time>2026-04-12T08:03:53.998Z</time></trkpt><trkpt lat="45.9592209703373" lon="11.293248521658796"><ele>1257.2</ele><time>2026-04-12T08:03:54.998Z</time></trkpt><trkpt lat="45.95931174206498" lon="11.293338486311832"><ele>1253.3999999999999</ele><time>2026-04-12T08:03:55.998Z</time></trkpt><trkpt lat="45.95940261131502" lon="11.29340820699562"><ele>1249.6</ele><time>2026-04-12T08:03:56.998Z</time></trkpt><trkpt lat="45.95950558597541" lon="11.293417103769096"><ele>1245.8</ele><time>2026-04-12T08:03:57.998Z</time></trkpt><trkpt lat="45.959612999044744" lon="11.293388095197075"><ele>1242.0</ele><time>2026-04-12T08:03:58.998Z</time></trkpt><trkpt lat="45.95973765816584" lon="11.293328854774243"><ele>1242.0</ele><time>2026-04-12T08:03:59.998Z</time></trkpt><trkpt lat="45.95989501073579" lon="11.2932612350955"><ele>1242.0</ele><time>2026-04-12T08:04:00.998Z</time></trkpt><trkpt lat="45.96005756904334" lon="11.29321492883356"><ele>1242.0</ele><time>2026-04-12T08:04:01.998Z</time></trkpt><trkpt lat="45.96022005318547" lon="11.293178479063753"><ele>1242.3333333333333</ele><time>2026-04-12T08:04:02.998Z</time></trkpt><trkpt lat="45.96039328245719" lon="11.29315270690521"><ele>1242.6666666666665</ele><time>2026-04-12T08:04:03.998Z</time></trkpt><trkpt lat="45.9605505212672" lon="11.293112107863447"><ele>1243.0</ele><time>2026-04-12T08:04:04.998Z</time></trkpt><trkpt lat="45.96068168901067" lon="11.293083326499197"><ele>1247.0</ele><time>2026-04-12T08:04:05.998Z</time></trkpt><trkpt lat="45.960812226786956" lon="11.293058930592707"><ele>1251.0</ele><time>2026-04-12T08:04:06.998Z</time></trkpt><trkpt lat="45.960945762527615" lon="11.293073860023863"><ele>1255.0</ele><time>2026-04-12T08:04:07.998Z</time></trkpt><trkpt lat="45.96108108754665" lon="11.293133428488316"><ele>1259.0</ele><time>2026-04-12T08:04:08.998Z</time></trkpt><trkpt lat="45.96121745039993" lon="11.293226826465787"><ele>1259.0</ele><time>2026-04-12T08:04:09.998Z</time></trkpt><trkpt lat="45.961356067193854" lon="11.293331136463978"><ele>1259.0</ele><time>2026-04-12T08:04:10.998Z</time></trkpt><trkpt lat="45.96149223802827" lon="11.293426657199669"><ele>1259.0</ele><time>2026-04-12T08:04:12Z</time></trkpt><trkpt lat="45.96164562194266" lon="11.293512491265346"><ele>1267.3333333333335</ele><time>2026-04-12T08:04:13Z</time></trkpt><trkpt lat="45.961804512849426" lon="11.293609332360573"><ele>1275.6666666666667</ele><time>2026-04-12T08:04:14Z</time></trkpt><trkpt lat="45.96195502043159" lon="11.29373587772728"><ele>1284.0</ele><time>2026-04-12T08:04:15Z</time></trkpt><trkpt lat="45.96210756976428" lon="11.293887040098518"><ele>1279.6666666666667</ele><time>2026-04-12T08:04:16Z</time></trkpt><trkpt lat="45.962267639930936" lon="11.294013176066239"><ele>1275.3333333333335</ele><time>2026-04-12T08:04:17Z</time></trkpt><trkpt lat="45.962417363496215" lon="11.29412950423424"><ele>1271.0</ele><time>2026-04-12T08:04:18Z</time></trkpt><trkpt lat="45.96258152047234" lon="11.29424165520267"><ele>1271.0</ele><time>2026-04-12T08:04:19Z</time></trkpt><trkpt lat="45.962758201870166" lon="11.294345936466112"><ele>1271.0</ele><time>2026-04-12T08:04:20Z</time></trkpt><trkpt lat="45.96291984241015" lon="11.294432389646172"><ele>1271.0</ele><time>2026-04-12T08:04:21Z</time></trkpt><trkpt lat="45.963070937124996" lon="11.294497215182172"><ele>1271.0</ele><time>2026-04-12T08:04:22Z</time></trkpt><trkpt lat="45.963197346344664" lon="11.294556603650648"><ele>1271.0</ele><time>2026-04-12T08:04:23Z</time></trkpt><trkpt lat="45.96332105135311" lon="11.294619168824081"><ele>1271.0</ele><time>2026-04-12T08:04:24Z</time></trkpt><trkpt lat="45.963431170229285" lon="11.29470242720972"><ele>1271.0</ele><time>2026-04-12T08:04:25Z</time></trkpt><trkpt lat="45.963523750649536" lon="11.294825444377562"><ele>1269.0</ele><time>2026-04-12T08:04:26Z</time></trkpt><trkpt lat="45.963583702290535" lon="11.295003708790121"><ele>1267.0</ele><time>2026-04-12T08:04:27Z</time></trkpt><trkpt lat="45.96366339066512" lon="11.295218592310455"><ele>1265.0</ele><time>2026-04-12T08:04:28Z</time></trkpt><trkpt lat="45.963725959186185" lon="11.295475175844063"><ele>1264.75</ele><time>2026-04-12T08:04:29Z</time></trkpt><trkpt lat="45.96378892601706" lon="11.295705918644614"><ele>1264.5</ele><time>2026-04-12T08:04:30Z</time></trkpt><trkpt lat="45.96385163318309" lon="11.295894446694703"><ele>1264.25</ele><time>2026-04-12T08:04:31Z</time></trkpt><trkpt lat="45.963927584409994" lon="11.296038969057907"><ele>1264.0</ele><time>2026-04-12T08:04:32Z</time></trkpt><trkpt lat="45.96396899018854" lon="11.296164172155931"><ele>1264.0</ele><time>2026-04-12T08:04:33Z</time></trkpt><trkpt lat="45.963999381054215" lon="11.296287374888347"><ele>1264.0</ele><time>2026-04-12T08:04:34Z</time></trkpt><trkpt lat="45.96393900187457" lon="11.296422994650065"><ele>1264.0</ele><time>2026-04-12T08:04:35Z</time></trkpt><trkpt lat="45.96388884162086" lon="11.29657616677549"><ele>1264.0</ele><time>2026-04-12T08:04:36Z</time></trkpt><trkpt lat="45.9638516480772" lon="11.296762730162374"><ele>1266.0</ele><time>2026-04-12T08:04:37Z</time></trkpt><trkpt lat="45.96380204482593" lon="11.296914089391194"><ele>1268.0</ele><time>2026-04-12T08:04:38Z</time></trkpt><trkpt lat="45.96372584664263" lon="11.297047732317917"><ele>1270.0</ele><time>2026-04-12T08:04:39Z</time></trkpt><trkpt lat="45.96361840110218" lon="11.297127138517356"><ele>1272.0</ele><time>2026-04-12T08:04:40Z</time></trkpt><trkpt lat="45.963483675036976" lon="11.297189452869315"><ele>1269.0</ele><time>2026-04-12T08:04:41Z</time></trkpt><trkpt lat="45.96335692720968" lon="11.297262126889928"><ele>1266.0</ele><time>2026-04-12T08:04:42Z</time></trkpt><trkpt lat="45.963217195086024" lon="11.297328262722425"><ele>1263.0</ele><time>2026-04-12T08:04:43Z</time></trkpt><trkpt lat="45.963071888499165" lon="11.297389453095537"><ele>1260.0</ele><time>2026-04-12T08:04:44Z</time></trkpt><trkpt lat="45.962915830016414" lon="11.297430931391071"><ele>1260.0</ele><time>2026-04-12T08:04:45Z</time></trkpt><trkpt lat="45.96274780245728" lon="11.297425930904222"><ele>1260.0</ele><time>2026-04-12T08:04:46Z</time></trkpt><trkpt lat="45.96258402473346" lon="11.297397468154077"><ele>1260.0</ele><time>2026-04-12T08:04:47Z</time></trkpt><trkpt lat="45.962423975745025" lon="11.297355422778422"><ele>1258.75</ele><time>2026-04-12T08:04:48Z</time></trkpt><trkpt lat="45.962276074817744" lon="11.297329351982121"><ele>1257.5</ele><time>2026-04-12T08:04:49Z</time></trkpt><trkpt lat="45.962139921840105" lon="11.297305481363816"><ele>1256.25</ele><time>2026-04-12T08:04:50Z</time></trkpt><trkpt lat="45.96199196919628" lon="11.297296460196401"><ele>1255.0</ele><time>2026-04-12T08:04:51Z</time></trkpt><trkpt lat="45.961871263365204" lon="11.297295164325076"><ele>1255.0</ele><time>2026-04-12T08:04:52Z</time></trkpt><trkpt lat="45.96174812484475" lon="11.29731811310753"><ele>1255.0</ele><time>2026-04-12T08:04:52.999Z</time></trkpt><trkpt lat="45.96162691762205" lon="11.297337735592379"><ele>1255.0</ele><time>2026-04-12T08:04:53.999Z</time></trkpt><trkpt lat="45.96150898593964" lon="11.29736276143228"><ele>1255.0</ele><time>2026-04-12T08:04:54.999Z</time></trkpt><trkpt lat="45.961385540801814" lon="11.297408773232883"><ele>1254.75</ele><time>2026-04-12T08:04:55.999Z</time></trkpt><trkpt lat="45.96124886890561" lon="11.297463375930409"><ele>1254.5</ele><time>2026-04-12T08:04:56.999Z</time></trkpt><trkpt lat="45.9611034543036" lon="11.297521364303568"><ele>1254.25</ele><time>2026-04-12T08:04:57.999Z</time></trkpt><trkpt lat="45.960953480252286" lon="11.297576659441596"><ele>1254.0</ele><time>2026-04-12T08:04:58.999Z</time></trkpt><trkpt lat="45.96081712337678" lon="11.29762888722341"><ele>1255.5</ele><time>2026-04-12T08:04:59.999Z</time></trkpt><trkpt lat="45.9606986561712" lon="11.297680744271963"><ele>1257.0</ele><time>2026-04-12T08:05:00.999Z</time></trkpt><trkpt lat="45.96057657595068" lon="11.297714632369482"><ele>1258.5</ele><time>2026-04-12T08:05:01.999Z</time></trkpt><trkpt lat="45.96044859201815" lon="11.29771899836766"><ele>1260.0</ele><time>2026-04-12T08:05:02.999Z</time></trkpt><trkpt lat="45.96032824766038" lon="11.297696784562472"><ele>1260.0</ele><time>2026-04-12T08:05:03.999Z</time></trkpt><trkpt lat="45.960210969874794" lon="11.297679835573952"><ele>1260.0</ele><time>2026-04-12T08:05:04.999Z</time></trkpt><trkpt lat="45.960109301017724" lon="11.297683231775384"><ele>1260.0</ele><time>2026-04-12T08:05:05.999Z</time></trkpt><trkpt lat="45.96002153185897" lon="11.29769973344611"><ele>1260.0</ele><time>2026-04-12T08:05:06.999Z</time></trkpt><trkpt lat="45.9599442465266" lon="11.297736700756088"><ele>1260.0</ele><time>2026-04-12T08:05:07.999Z</time></trkpt><trkpt lat="45.95988218603669" lon="11.297824242089321"><ele>1260.8</ele><time>2026-04-12T08:05:08.999Z</time></trkpt><trkpt lat="45.95985305211354" lon="11.297945399888146"><ele>1261.6</ele><time>2026-04-12T08:05:09.999Z</time></trkpt><trkpt lat="45.95985553031686" lon="11.29808325891055"><ele>1262.4</ele><time>2026-04-12T08:05:10.999Z</time></trkpt><trkpt lat="45.95990005429975" lon="11.298242484561479"><ele>1263.2</ele><time>2026-04-12T08:05:11.999Z</time></trkpt><trkpt lat="45.959929470079096" lon="11.298409433545782"><ele>1264.0</ele><time>2026-04-12T08:05:12.999Z</time></trkpt><trkpt lat="45.95996327172083" lon="11.29857260846031"><ele>1267.3333333333333</ele><time>2026-04-12T08:05:13.999Z</time></trkpt><trkpt lat="45.9598935397443" lon="11.298785569012558"><ele>1270.6666666666667</ele><time>2026-04-12T08:05:14.999Z</time></trkpt><trkpt lat="45.959821782245044" lon="11.299001709605573"><ele>1274.0</ele><time>2026-04-12T08:05:15.999Z</time></trkpt><trkpt lat="45.959803072895234" lon="11.299275051721253"><ele>1276.3333333333335</ele><time>2026-04-12T08:05:16.999Z</time></trkpt><trkpt lat="45.959792122989185" lon="11.299545327118365"><ele>1278.6666666666667</ele><time>2026-04-12T08:05:17.999Z</time></trkpt><trkpt lat="45.959780800300635" lon="11.299789977169414"><ele>1281.0</ele><time>2026-04-12T08:05:18.999Z</time></trkpt><trkpt lat="45.9597576347042" lon="11.300006813943858"><ele>1283.5</ele><time>2026-04-12T08:05:19.999Z</time></trkpt><trkpt lat="45.959747841122365" lon="11.30020144273747"><ele>1286.0</ele><time>2026-04-12T08:05:20.999Z</time></trkpt><trkpt lat="45.959754391442125" lon="11.300378479039868"><ele>1288.5</ele><time>2026-04-12T08:05:21.999Z</time></trkpt><trkpt lat="45.95980964330972" lon="11.300561018809118"><ele>1291.0</ele><time>2026-04-12T08:05:22.999Z</time></trkpt><trkpt lat="45.95986928985134" lon="11.300752353918014"><ele>1293.3333333333333</ele><time>2026-04-12T08:05:23.999Z</time></trkpt><trkpt lat="45.95994134250323" lon="11.300946591979187"><ele>1295.6666666666667</ele><time>2026-04-12T08:05:24.999Z</time></trkpt><trkpt lat="45.960011766109844" lon="11.301156820232622"><ele>1298.0</ele><time>2026-04-12T08:05:25.999Z</time></trkpt><trkpt lat="45.96006038746929" lon="11.30135427031076"><ele>1294.0</ele><time>2026-04-12T08:05:26.999Z</time></trkpt><trkpt lat="45.960093216839155" lon="11.301517718665835"><ele>1290.0</ele><time>2026-04-12T08:05:27.999Z</time></trkpt><trkpt lat="45.96011441022901" lon="11.301629269989752"><ele>1286.0</ele><time>2026-04-12T08:05:28.999Z</time></trkpt><trkpt lat="45.96013387408628" lon="11.301734539975518"><ele>1282.0</ele><time>2026-04-12T08:05:29.999Z</time></trkpt><trkpt lat="45.9601453592945" lon="11.30188373886372"><ele>1278.0</ele><time>2026-04-12T08:05:31.999Z</time></trkpt><trkpt lat="45.960060585359926" lon="11.30195082534351"><ele>1283.8</ele><time>2026-04-12T08:05:33.999Z</time></trkpt><trkpt lat="45.95998763317177" lon="11.301875137688235"><ele>1289.6</ele><time>2026-04-12T08:05:34.999Z</time></trkpt><trkpt lat="45.95990299280333" lon="11.301852246575129"><ele>1295.3999999999999</ele><time>2026-04-12T08:05:35.999Z</time></trkpt><trkpt lat="45.95981832221497" lon="11.301846564531605"><ele>1301.1999999999998</ele><time>2026-04-12T08:05:36.999Z</time></trkpt><trkpt lat="45.959733882667834" lon="11.301879215248208"><ele>1307.0</ele><time>2026-04-12T08:05:37.999Z</time></trkpt><trkpt lat="45.95963658529813" lon="11.301974416996387"><ele>1307.0</ele><time>2026-04-12T08:05:38.999Z</time></trkpt><trkpt lat="45.95951796514392" lon="11.302115276574938"><ele>1307.0</ele><time>2026-04-12T08:05:39.999Z</time></trkpt><trkpt lat="45.95936998672558" lon="11.302265489979572"><ele>1307.0</ele><time>2026-04-12T08:05:40.999Z</time></trkpt><trkpt lat="45.95921789435721" lon="11.302434016305384"><ele>1311.5</ele><time>2026-04-12T08:05:41.999Z</time></trkpt><trkpt lat="45.95908498961952" lon="11.302609125590465"><ele>1316.0</ele><time>2026-04-12T08:05:42.999Z</time></trkpt><trkpt lat="45.95899452526261" lon="11.302752538153303"><ele>1320.5</ele><time>2026-04-12T08:05:43.999Z</time></trkpt><trkpt lat="45.9588785965665" lon="11.302832841750469"><ele>1325.0</ele><time>2026-04-12T08:05:44.999Z</time></trkpt><trkpt lat="45.958727603463586" lon="11.302867014686019"><ele>1325.0</ele><time>2026-04-12T08:05:45.998Z</time></trkpt><trkpt lat="45.95858529322418" lon="11.30290521786389"><ele>1325.0</ele><time>2026-04-12T08:05:46.998Z</time></trkpt><trkpt lat="45.95848004353286" lon="11.302957732025577"><ele>1325.0</ele><time>2026-04-12T08:05:47.998Z</time></trkpt><trkpt lat="45.95840781944553" lon="11.302989061610317"><ele>1325.0</ele><time>2026-04-12T08:05:48.998Z</time></trkpt><trkpt lat="45.958347600065814" lon="11.303035260634257"><ele>1325.0</ele><time>2026-04-12T08:05:49.998Z</time></trkpt><trkpt lat="45.95831520074746" lon="11.303117253110605"><ele>1324.0</ele><time>2026-04-12T08:05:50.998Z</time></trkpt><trkpt lat="45.9583124070025" lon="11.303224737255103"><ele>1323.0</ele><time>2026-04-12T08:05:51.998Z</time></trkpt><trkpt lat="45.95836529354813" lon="11.303355809058004"><ele>1322.0</ele><time>2026-04-12T08:05:52.998Z</time></trkpt><trkpt lat="45.95848834475959" lon="11.303417313681035"><ele>1321.0</ele><time>2026-04-12T08:05:53.998Z</time></trkpt><trkpt lat="45.95857908573039" lon="11.303547894710654"><ele>1320.0</ele><time>2026-04-12T08:05:54.998Z</time></trkpt><trkpt lat="45.95868285273684" lon="11.303686184397383"><ele>1327.6666666666667</ele><time>2026-04-12T08:05:55.998Z</time></trkpt><trkpt lat="45.9587886533455" lon="11.30386543295384"><ele>1335.3333333333335</ele><time>2026-04-12T08:05:56.998Z</time></trkpt><trkpt lat="45.95890454214098" lon="11.30406907373835"><ele>1343.0</ele><time>2026-04-12T08:05:57.998Z</time></trkpt><trkpt lat="45.958969464259035" lon="11.30430366814299"><ele>1346.3333333333335</ele><time>2026-04-12T08:05:58.998Z</time></trkpt><trkpt lat="45.95903541468832" lon="11.304516918479413"><ele>1349.6666666666667</ele><time>2026-04-12T08:05:59.998Z</time></trkpt><trkpt lat="45.95907834096638" lon="11.304737152945602"><ele>1353.0</ele><time>2026-04-12T08:06:00.998Z</time></trkpt><trkpt lat="45.95912469621753" lon="11.304952871554605"><ele>1353.0</ele><time>2026-04-12T08:06:01.998Z</time></trkpt><trkpt lat="45.95913814991051" lon="11.305132614248102"><ele>1353.0</ele><time>2026-04-12T08:06:02.998Z</time></trkpt><trkpt lat="45.95912291117646" lon="11.305290422899771"><ele>1353.0</ele><time>2026-04-12T08:06:03.998Z</time></trkpt><trkpt lat="45.959101820912615" lon="11.305446678663825"><ele>1353.0</ele><time>2026-04-12T08:06:04.998Z</time></trkpt><trkpt lat="45.959131839705805" lon="11.30559749787757"><ele>1352.8000000000002</ele><time>2026-04-12T08:06:05.998Z</time></trkpt><trkpt lat="45.95918556147365" lon="11.305735824925433"><ele>1352.6</ele><time>2026-04-12T08:06:06.998Z</time></trkpt><trkpt lat="45.959250408683296" lon="11.3058624197683"><ele>1352.4</ele><time>2026-04-12T08:06:07.998Z</time></trkpt><trkpt lat="45.95932302152218" lon="11.305975601897833"><ele>1352.1999999999998</ele><time>2026-04-12T08:06:08.998Z</time></trkpt><trkpt lat="45.95943235295108" lon="11.306052542159957"><ele>1352.0</ele><time>2026-04-12T08:06:09.998Z</time></trkpt><trkpt lat="45.959562143552006" lon="11.306089088033712"><ele>1352.0</ele><time>2026-04-12T08:06:10.998Z</time></trkpt><trkpt lat="45.95968008929636" lon="11.306134194524704"><ele>1352.0</ele><time>2026-04-12T08:06:11.998Z</time></trkpt><trkpt lat="45.95979631065364" lon="11.306222309296759"><ele>1352.0</ele><time>2026-04-12T08:06:12.998Z</time></trkpt><trkpt lat="45.9598947304782" lon="11.306344016275496"><ele>1352.0</ele><time>2026-04-12T08:06:13.998Z</time></trkpt><trkpt lat="45.95998517781133" lon="11.306509741902026"><ele>1347.6666666666667</ele><time>2026-04-12T08:06:14.998Z</time></trkpt><trkpt lat="45.96008330017155" lon="11.306669160021736"><ele>1343.3333333333333</ele><time>2026-04-12T08:06:15.998Z</time></trkpt><trkpt lat="45.96016675160769" lon="11.30686114949907"><ele>1339.0</ele><time>2026-04-12T08:06:16.998Z</time></trkpt><trkpt lat="45.9602315924922" lon="11.30709384989712"><ele>1339.0</ele><time>2026-04-12T08:06:18Z</time></trkpt><trkpt lat="45.9602804871726" lon="11.307322225809108"><ele>1339.0</ele><time>2026-04-12T08:06:19Z</time></trkpt><trkpt lat="45.96032989702933" lon="11.307507839427586"><ele>1339.0</ele><time>2026-04-12T08:06:20Z</time></trkpt><trkpt lat="45.96037385350309" lon="11.307655712154348"><ele>1339.0</ele><time>2026-04-12T08:06:21Z</time></trkpt><trkpt lat="45.960397678256015" lon="11.30780177741776"><ele>1339.0</ele><time>2026-04-12T08:06:22Z</time></trkpt><trkpt lat="45.96037623016836" lon="11.307955630737641"><ele>1339.0</ele><time>2026-04-12T08:06:23Z</time></trkpt><trkpt lat="45.960337281770286" lon="11.308146073596767"><ele>1339.0</ele><time>2026-04-12T08:06:24Z</time></trkpt><trkpt lat="45.96027283913804" lon="11.30837286981862"><ele>1339.0</ele><time>2026-04-12T08:06:25Z</time></trkpt><trkpt lat="45.96020577076212" lon="11.308633318519629"><ele>1339.6666666666665</ele><time>2026-04-12T08:06:26Z</time></trkpt><trkpt lat="45.96013919687539" lon="11.308898290746296"><ele>1340.3333333333333</ele><time>2026-04-12T08:06:27Z</time></trkpt><trkpt lat="45.9600485951109" lon="11.309173207914153"><ele>1341.0</ele><time>2026-04-12T08:06:28Z</time></trkpt><trkpt lat="45.95997949522838" lon="11.309471168624771"><ele>1346.6666666666667</ele><time>2026-04-12T08:06:29Z</time></trkpt><trkpt lat="45.95990303765176" lon="11.309714221041137"><ele>1352.3333333333335</ele><time>2026-04-12T08:06:30Z</time></trkpt><trkpt lat="45.959839239538304" lon="11.309942721844662"><ele>1358.0</ele><time>2026-04-12T08:06:31Z</time></trkpt><trkpt lat="45.959767103346806" lon="11.31017155824647"><ele>1358.6666666666667</ele><time>2026-04-12T08:06:32Z</time></trkpt><trkpt lat="45.959721414821736" lon="11.310422216700587"><ele>1359.3333333333333</ele><time>2026-04-12T08:06:33Z</time></trkpt><trkpt lat="45.959697795499224" lon="11.310680793271347"><ele>1360.0</ele><time>2026-04-12T08:06:34Z</time></trkpt><trkpt lat="45.95965903980104" lon="11.310935968313924"><ele>1360.0</ele><time>2026-04-12T08:06:35Z</time></trkpt><trkpt lat="45.95962445777606" lon="11.311174606149816"><ele>1360.0</ele><time>2026-04-12T08:06:36Z</time></trkpt><trkpt lat="45.959596612178096" lon="11.311421693045707"><ele>1360.0</ele><time>2026-04-12T08:06:37Z</time></trkpt><trkpt lat="45.95956678057769" lon="11.311687758571388"><ele>1358.0</ele><time>2026-04-12T08:06:38Z</time></trkpt><trkpt lat="45.95961470246851" lon="11.311961040626182"><ele>1356.0</ele><time>2026-04-12T08:06:39Z</time></trkpt><trkpt lat="45.959657888124674" lon="11.312226005425845"><ele>1354.0</ele><time>2026-04-12T08:06:40Z</time></trkpt><trkpt lat="45.9596863452623" lon="11.312493156594739"><ele>1353.6666666666665</ele><time>2026-04-12T08:06:41Z</time></trkpt><trkpt lat="45.9597240470051" lon="11.312760455036345"><ele>1353.3333333333333</ele><time>2026-04-12T08:06:42Z</time></trkpt><trkpt lat="45.95976374791714" lon="11.313014783794182"><ele>1353.0</ele><time>2026-04-12T08:06:43Z</time></trkpt><trkpt lat="45.959809151135666" lon="11.31323112503697"><ele>1353.75</ele><time>2026-04-12T08:06:44Z</time></trkpt><trkpt lat="45.959819672153934" lon="11.313432483253925"><ele>1354.5</ele><time>2026-04-12T08:06:45Z</time></trkpt><trkpt lat="45.95981439243117" lon="11.313638430953205"><ele>1355.25</ele><time>2026-04-12T08:06:46Z</time></trkpt><trkpt lat="45.95980403463988" lon="11.313844260297328"><ele>1356.0</ele><time>2026-04-12T08:06:47Z</time></trkpt><trkpt lat="45.9597994622898" lon="11.314045652503943"><ele>1356.5</ele><time>2026-04-12T08:06:48Z</time></trkpt><trkpt lat="45.95980666501052" lon="11.314231599174708"><ele>1357.0</ele><time>2026-04-12T08:06:49Z</time></trkpt><trkpt lat="45.95984334183071" lon="11.314414345715987"><ele>1357.5</ele><time>2026-04-12T08:06:50Z</time></trkpt><trkpt lat="45.95991223668246" lon="11.31457542563022"><ele>1358.0</ele><time>2026-04-12T08:06:51Z</time></trkpt><trkpt lat="45.96000209805593" lon="11.314716998502643"><ele>1361.25</ele><time>2026-04-12T08:06:52Z</time></trkpt><trkpt lat="45.96011844180048" lon="11.314833901125539"><ele>1364.5</ele><time>2026-04-12T08:06:53Z</time></trkpt><trkpt lat="45.96025762631597" lon="11.314910274360066"><ele>1367.75</ele><time>2026-04-12T08:06:54Z</time></trkpt><trkpt lat="45.96040281662997" lon="11.314941127452176"><ele>1371.0</ele><time>2026-04-12T08:06:55Z</time></trkpt><trkpt lat="45.96054156513464" lon="11.314924376833186"><ele>1371.0</ele><time>2026-04-12T08:06:56Z</time></trkpt><trkpt lat="45.96067723624837" lon="11.314877404229241"><ele>1371.0</ele><time>2026-04-12T08:06:57Z</time></trkpt><trkpt lat="45.96078623149996" lon="11.314810797326112"><ele>1371.0</ele><time>2026-04-12T08:06:57.999Z</time></trkpt><trkpt lat="45.96086848353736" lon="11.314790273994499"><ele>1371.0</ele><time>2026-04-12T08:06:58.999Z</time></trkpt><trkpt lat="45.96093950822816" lon="11.31477162468555"><ele>1371.0</ele><time>2026-04-12T08:06:59.999Z</time></trkpt><trkpt lat="45.96100115931244" lon="11.314797403710914"><ele>1371.0</ele><time>2026-04-12T08:07:00.999Z</time></trkpt><trkpt lat="45.96104438396766" lon="11.314896225699366"><ele>1371.0</ele><time>2026-04-12T08:07:01.999Z</time></trkpt><trkpt lat="45.96102882657833" lon="11.315018480775686"><ele>1371.0</ele><time>2026-04-12T08:07:02.999Z</time></trkpt><trkpt lat="45.96095892811708" lon="11.315141766504926"><ele>1371.0</ele><time>2026-04-12T08:07:03.999Z</time></trkpt><trkpt lat="45.96085663718032" lon="11.31526704700221"><ele>1371.0</ele><time>2026-04-12T08:07:04.999Z</time></trkpt><trkpt lat="45.960773396451835" lon="11.315369190163212"><ele>1371.0</ele><time>2026-04-12T08:07:05.999Z</time></trkpt><trkpt lat="45.96069997738917" lon="11.315475270889728"><ele>1371.0</ele><time>2026-04-12T08:07:06.999Z</time></trkpt><trkpt lat="45.96060459451098" lon="11.31557436323567"><ele>1371.0</ele><time>2026-04-12T08:07:07.999Z</time></trkpt><trkpt lat="45.960501645208566" lon="11.315662400698823"><ele>1371.0</ele><time>2026-04-12T08:07:08.999Z</time></trkpt><trkpt lat="45.96039648225176" lon="11.315752436929403"><ele>1372.0</ele><time>2026-04-12T08:07:09.999Z</time></trkpt><trkpt lat="45.96029406885622" lon="11.315834661297156"><ele>1373.0</ele><time>2026-04-12T08:07:10.999Z</time></trkpt><trkpt lat="45.96019330773636" lon="11.315902383407886"><ele>1374.0</ele><time>2026-04-12T08:07:11.999Z</time></trkpt><trkpt lat="45.960093421728885" lon="11.315963522275801"><ele>1375.0</ele><time>2026-04-12T08:07:12.999Z</time></trkpt><trkpt lat="45.95998160054374" lon="11.3160103490138"><ele>1376.75</ele><time>2026-04-12T08:07:13.999Z</time></trkpt><trkpt lat="45.959859796447" lon="11.316047161588244"><ele>1378.5</ele><time>2026-04-12T08:07:14.999Z</time></trkpt><trkpt lat="45.959738611670495" lon="11.31608064534268"><ele>1380.25</ele><time>2026-04-12T08:07:15.999Z</time></trkpt><trkpt lat="45.95962061427826" lon="11.316102023228524"><ele>1382.0</ele><time>2026-04-12T08:07:16.999Z</time></trkpt><trkpt lat="45.95951253139687" lon="11.316138674511931"><ele>1382.0</ele><time>2026-04-12T08:07:17.999Z</time></trkpt><trkpt lat="45.95941781692554" lon="11.316177952348072"><ele>1382.0</ele><time>2026-04-12T08:07:18.999Z</time></trkpt><trkpt lat="45.959330860706565" lon="11.316226260190017"><ele>1382.0</ele><time>2026-04-12T08:07:19.999Z</time></trkpt><trkpt lat="45.95924797378419" lon="11.316295461099214"><ele>1382.0</ele><time>2026-04-12T08:07:20.999Z</time></trkpt><trkpt lat="45.959174190053" lon="11.316385792520856"><ele>1382.0</ele><time>2026-04-12T08:07:21.999Z</time></trkpt><trkpt lat="45.95909786277669" lon="11.316480613599982"><ele>1384.1999999999998</ele><time>2026-04-12T08:07:22.999Z</time></trkpt><trkpt lat="45.959037974998125" lon="11.316603635589043"><ele>1386.4</ele><time>2026-04-12T08:07:23.999Z</time></trkpt><trkpt lat="45.9590039308064" lon="11.316751277301554"><ele>1388.6</ele><time>2026-04-12T08:07:24.999Z</time></trkpt><trkpt lat="45.95896052105466" lon="11.316902183169946"><ele>1390.8000000000002</ele><time>2026-04-12T08:07:25.999Z</time></trkpt><trkpt lat="45.95891853470449" lon="11.317066122985478"><ele>1393.0</ele><time>2026-04-12T08:07:26.999Z</time></trkpt><trkpt lat="45.95888154007108" lon="11.31721588958113"><ele>1391.25</ele><time>2026-04-12T08:07:27.999Z</time></trkpt><trkpt lat="45.95884484932156" lon="11.317374267581874"><ele>1389.5</ele><time>2026-04-12T08:07:28.999Z</time></trkpt><trkpt lat="45.95881062880989" lon="11.317537323204965"><ele>1387.75</ele><time>2026-04-12T08:07:29.999Z</time></trkpt><trkpt lat="45.9587910953699" lon="11.31771076975469"><ele>1386.0</ele><time>2026-04-12T08:07:30.999Z</time></trkpt><trkpt lat="45.958786363426235" lon="11.317888277374541"><ele>1386.5</ele><time>2026-04-12T08:07:31.999Z</time></trkpt><trkpt lat="45.95879627214529" lon="11.318070320880851"><ele>1387.0</ele><time>2026-04-12T08:07:32.999Z</time></trkpt><trkpt lat="45.95881072026221" lon="11.318256125980588"><ele>1387.5</ele><time>2026-04-12T08:07:33.999Z</time></trkpt><trkpt lat="45.958830184043556" lon="11.318451063061026"><ele>1388.0</ele><time>2026-04-12T08:07:34.999Z</time></trkpt><trkpt lat="45.9588602094786" lon="11.318644070621882"><ele>1388.0</ele><time>2026-04-12T08:07:35.999Z</time></trkpt><trkpt lat="45.95888438542965" lon="11.318834397521448"><ele>1388.0</ele><time>2026-04-12T08:07:36.999Z</time></trkpt><trkpt lat="45.958887045902" lon="11.319015429419242"><ele>1388.0</ele><time>2026-04-12T08:07:37.999Z</time></trkpt><trkpt lat="45.958908905914065" lon="11.319191523641452"><ele>1388.0</ele><time>2026-04-12T08:07:38.999Z</time></trkpt><trkpt lat="45.958916791863" lon="11.319359723432626"><ele>1389.25</ele><time>2026-04-12T08:07:39.999Z</time></trkpt><trkpt lat="45.95891218564884" lon="11.319539714602673"><ele>1390.5</ele><time>2026-04-12T08:07:40.999Z</time></trkpt><trkpt lat="45.958902488398806" lon="11.319716389945912"><ele>1391.75</ele><time>2026-04-12T08:07:41.999Z</time></trkpt><trkpt lat="45.9588895728292" lon="11.319899897867687"><ele>1393.0</ele><time>2026-04-12T08:07:42.999Z</time></trkpt><trkpt lat="45.95887083084878" lon="11.320092867254255"><ele>1393.0</ele><time>2026-04-12T08:07:43.999Z</time></trkpt><trkpt lat="45.95885878988422" lon="11.32029719174048"><ele>1393.0</ele><time>2026-04-12T08:07:44.999Z</time></trkpt><trkpt lat="45.95885020719473" lon="11.320510999495962"><ele>1393.0</ele><time>2026-04-12T08:07:45.999Z</time></trkpt><trkpt lat="45.958857363130626" lon="11.32073288679495"><ele>1393.0</ele><time>2026-04-12T08:07:46.999Z</time></trkpt><trkpt lat="45.95887264519608" lon="11.320947589141381"><ele>1394.25</ele><time>2026-04-12T08:07:47.999Z</time></trkpt><trkpt lat="45.95888560242838" lon="11.321150149674521"><ele>1395.5</ele><time>2026-04-12T08:07:48.999Z</time></trkpt><trkpt lat="45.95890709665754" lon="11.32134939390201"><ele>1396.75</ele><time>2026-04-12T08:07:49.999Z</time></trkpt><trkpt lat="45.95893387973385" lon="11.321540129507428"><ele>1398.0</ele><time>2026-04-12T08:07:50.998Z</time></trkpt><trkpt lat="45.958948518058556" lon="11.321725792142159"><ele>1398.25</ele><time>2026-04-12T08:07:51.998Z</time></trkpt><trkpt lat="45.95894957349489" lon="11.321904672987165"><ele>1398.5</ele><time>2026-04-12T08:07:52.998Z</time></trkpt><trkpt lat="45.95893152153492" lon="11.322071391175566"><ele>1398.75</ele><time>2026-04-12T08:07:53.998Z</time></trkpt><trkpt lat="45.95889566581688" lon="11.32223457246352"><ele>1399.0</ele><time>2026-04-12T08:07:54.998Z</time></trkpt><trkpt lat="45.95885395061242" lon="11.322402322789392"><ele>1399.0</ele><time>2026-04-12T08:07:55.998Z</time></trkpt><trkpt lat="45.95879828808051" lon="11.322570093430045"><ele>1399.0</ele><time>2026-04-12T08:07:56.998Z</time></trkpt><trkpt lat="45.9587448989647" lon="11.322747811734954"><ele>1399.0</ele><time>2026-04-12T08:07:57.998Z</time></trkpt><trkpt lat="45.958679636200415" lon="11.322917744454097"><ele>1399.0</ele><time>2026-04-12T08:07:58.998Z</time></trkpt><trkpt lat="45.95860737645405" lon="11.323080711213125"><ele>1397.75</ele><time>2026-04-12T08:07:59.998Z</time></trkpt><trkpt lat="45.95851950257489" lon="11.323238920025899"><ele>1396.5</ele><time>2026-04-12T08:08:00.998Z</time></trkpt><trkpt lat="45.95842310429866" lon="11.323394244206494"><ele>1395.25</ele><time>2026-04-12T08:08:01.998Z</time></trkpt><trkpt lat="45.958324021719406" lon="11.32355223439171"><ele>1394.0</ele><time>2026-04-12T08:08:02.998Z</time></trkpt><trkpt lat="45.95822262162285" lon="11.323705815763114"><ele>1397.5</ele><time>2026-04-12T08:08:03.998Z</time></trkpt><trkpt lat="45.95811909936489" lon="11.323853116450964"><ele>1401.0</ele><time>2026-04-12T08:08:04.998Z</time></trkpt><trkpt lat="45.958022878802005" lon="11.32400252949318"><ele>1404.5</ele><time>2026-04-12T08:08:05.998Z</time></trkpt><trkpt lat="45.95792546913457" lon="11.324152276089215"><ele>1408.0</ele><time>2026-04-12T08:08:06.998Z</time></trkpt><trkpt lat="45.95783274240595" lon="11.324304199533843"><ele>1408.0</ele><time>2026-04-12T08:08:07.998Z</time></trkpt><trkpt lat="45.95774655746343" lon="11.324468690755596"><ele>1408.0</ele><time>2026-04-12T08:08:08.998Z</time></trkpt><trkpt lat="45.95766767371844" lon="11.324632148825508"><ele>1408.0</ele><time>2026-04-12T08:08:09.998Z</time></trkpt><trkpt lat="45.95760267708553" lon="11.324806090296242"><ele>1408.0</ele><time>2026-04-12T08:08:10.998Z</time></trkpt><trkpt lat="45.95754519909828" lon="11.324984088908911"><ele>1410.5</ele><time>2026-04-12T08:08:11.998Z</time></trkpt><trkpt lat="45.957495886754835" lon="11.325174012485702"><ele>1413.0</ele><time>2026-04-12T08:08:12.998Z</time></trkpt><trkpt lat="45.957451990410405" lon="11.32537041690784"><ele>1415.5</ele><time>2026-04-12T08:08:13.998Z</time></trkpt><trkpt lat="45.95741021490336" lon="11.325572948984792"><ele>1418.0</ele><time>2026-04-12T08:08:14.998Z</time></trkpt><trkpt lat="45.95737420248137" lon="11.325766891979924"><ele>1418.0</ele><time>2026-04-12T08:08:15.998Z</time></trkpt><trkpt lat="45.957347892747585" lon="11.325956013454377"><ele>1418.0</ele><time>2026-04-12T08:08:16.998Z</time></trkpt><trkpt lat="45.95732311419093" lon="11.32614180266903"><ele>1418.0</ele><time>2026-04-12T08:08:17.998Z</time></trkpt><trkpt lat="45.957299076420384" lon="11.326331662409256"><ele>1418.0</ele><time>2026-04-12T08:08:18.998Z</time></trkpt><trkpt lat="45.957271141438326" lon="11.32650908031282"><ele>1418.25</ele><time>2026-04-12T08:08:19.998Z</time></trkpt><trkpt lat="45.95723765658989" lon="11.326684862601374"><ele>1418.5</ele><time>2026-04-12T08:08:20.998Z</time></trkpt><trkpt lat="45.95719901450222" lon="11.32685755595063"><ele>1418.75</ele><time>2026-04-12T08:08:21.998Z</time></trkpt><trkpt lat="45.957166553270696" lon="11.327029079197427"><ele>1419.0</ele><time>2026-04-12T08:08:22.998Z</time></trkpt><trkpt lat="45.95713668698429" lon="11.327189550408088"><ele>1419.2</ele><time>2026-04-12T08:08:24Z</time></trkpt><trkpt lat="45.95710606328831" lon="11.327330717160457"><ele>1419.4</ele><time>2026-04-12T08:08:25Z</time></trkpt><trkpt lat="45.95707227147487" lon="11.327460126496003"><ele>1419.6</ele><time>2026-04-12T08:08:26Z</time></trkpt><trkpt lat="45.95702998996259" lon="11.327584269579893"><ele>1419.8</ele><time>2026-04-12T08:08:27Z</time></trkpt><trkpt lat="45.95697276042467" lon="11.327709320028209"><ele>1420.0</ele><time>2026-04-12T08:08:28Z</time></trkpt><trkpt lat="45.956913437378425" lon="11.32785735959973"><ele>1420.0</ele><time>2026-04-12T08:08:29Z</time></trkpt><trkpt lat="45.95683667661499" lon="11.328012037727044"><ele>1420.0</ele><time>2026-04-12T08:08:30Z</time></trkpt><trkpt lat="45.956767868735696" lon="11.32816905449736"><ele>1420.0</ele><time>2026-04-12T08:08:31Z</time></trkpt><trkpt lat="45.956700816045256" lon="11.328318486465909"><ele>1420.0</ele><time>2026-04-12T08:08:32Z</time></trkpt><trkpt lat="45.95664009032077" lon="11.328472606268853"><ele>1420.0</ele><time>2026-04-12T08:08:33Z</time></trkpt><trkpt lat="45.956597330378386" lon="11.328615125394327"><ele>1420.0</ele><time>2026-04-12T08:08:34Z</time></trkpt><trkpt lat="45.956570565757445" lon="11.328759055418763"><ele>1420.0</ele><time>2026-04-12T08:08:35Z</time></trkpt><trkpt lat="45.956555460882655" lon="11.328909966585009"><ele>1420.0</ele><time>2026-04-12T08:08:36Z</time></trkpt><trkpt lat="45.95655522908589" lon="11.32907401083508"><ele>1420.0</ele><time>2026-04-12T08:08:37Z</time></trkpt><trkpt lat="45.95656504553154" lon="11.329248426008016"><ele>1420.0</ele><time>2026-04-12T08:08:38Z</time></trkpt><trkpt lat="45.95656837382116" lon="11.329436691261348"><ele>1420.0</ele><time>2026-04-12T08:08:39Z</time></trkpt><trkpt lat="45.95656983643605" lon="11.329623300551251"><ele>1420.0</ele><time>2026-04-12T08:08:40Z</time></trkpt><trkpt lat="45.95657356272532" lon="11.32981519362051"><ele>1420.0</ele><time>2026-04-12T08:08:41Z</time></trkpt><trkpt lat="45.956582724033495" lon="11.330011182281408"><ele>1419.5</ele><time>2026-04-12T08:08:42Z</time></trkpt><trkpt lat="45.956582052114555" lon="11.330204875081765"><ele>1419.0</ele><time>2026-04-12T08:08:43Z</time></trkpt><trkpt lat="45.95657972238373" lon="11.330387835610747"><ele>1418.5</ele><time>2026-04-12T08:08:44Z</time></trkpt><trkpt lat="45.9565821083284" lon="11.330575605553788"><ele>1418.0</ele><time>2026-04-12T08:08:45Z</time></trkpt><trkpt lat="45.95659215371722" lon="11.330753866041269"><ele>1417.75</ele><time>2026-04-12T08:08:46Z</time></trkpt><trkpt lat="45.95659686447855" lon="11.330937702607951"><ele>1417.5</ele><time>2026-04-12T08:08:47Z</time></trkpt><trkpt lat="45.95660023050143" lon="11.331126610345082"><ele>1417.25</ele><time>2026-04-12T08:08:48Z</time></trkpt><trkpt lat="45.956606474551485" lon="11.33131180437235"><ele>1417.0</ele><time>2026-04-12T08:08:49Z</time></trkpt><trkpt lat="45.9566110441421" lon="11.331496592275975"><ele>1417.0</ele><time>2026-04-12T08:08:50Z</time></trkpt><trkpt lat="45.95661551983451" lon="11.331669479225301"><ele>1417.0</ele><time>2026-04-12T08:08:51Z</time></trkpt><trkpt lat="45.95662085161344" lon="11.33182574639282"><ele>1417.0</ele><time>2026-04-12T08:08:52Z</time></trkpt><trkpt lat="45.956625056712824" lon="11.331963904840489"><ele>1417.0</ele><time>2026-04-12T08:08:53Z</time></trkpt><trkpt lat="45.95662746847414" lon="11.332096555011397"><ele>1417.0</ele><time>2026-04-12T08:08:54Z</time></trkpt><trkpt lat="45.95663465082505" lon="11.332259223850073"><ele>1416.25</ele><time>2026-04-12T08:08:55Z</time></trkpt><trkpt lat="45.95662403363992" lon="11.332453149476912"><ele>1415.5</ele><time>2026-04-12T08:08:56Z</time></trkpt><trkpt lat="45.95661721599036" lon="11.332638562189809"><ele>1414.75</ele><time>2026-04-12T08:08:57Z</time></trkpt><trkpt lat="45.95659483056124" lon="11.33280679198491"><ele>1414.0</ele><time>2026-04-12T08:08:58Z</time></trkpt><trkpt lat="45.956553847650795" lon="11.332965595102422"><ele>1414.25</ele><time>2026-04-12T08:08:59Z</time></trkpt><trkpt lat="45.956497148221125" lon="11.333109940906075"><ele>1414.5</ele><time>2026-04-12T08:09:00Z</time></trkpt><trkpt lat="45.95642643306802" lon="11.33325896143147"><ele>1414.75</ele><time>2026-04-12T08:09:01Z</time></trkpt><trkpt lat="45.95634555788576" lon="11.33341917849318"><ele>1415.0</ele><time>2026-04-12T08:09:02Z</time></trkpt><trkpt lat="45.95626292334288" lon="11.333584934866234"><ele>1415.0</ele><time>2026-04-12T08:09:03Z</time></trkpt><trkpt lat="45.95618048422368" lon="11.333752390016212"><ele>1415.0</ele><time>2026-04-12T08:09:04Z</time></trkpt><trkpt lat="45.95611138109598" lon="11.333911477220107"><ele>1415.0</ele><time>2026-04-12T08:09:04.999Z</time></trkpt><trkpt lat="45.956062044322074" lon="11.334091154789794"><ele>1415.0</ele><time>2026-04-12T08:09:05.999Z</time></trkpt><trkpt lat="45.95601803456807" lon="11.334287401405339"><ele>1414.75</ele><time>2026-04-12T08:09:06.999Z</time></trkpt><trkpt lat="45.955979066371654" lon="11.334492220158804"><ele>1414.5</ele><time>2026-04-12T08:09:07.999Z</time></trkpt><trkpt lat="45.95593879359041" lon="11.334693884583828"><ele>1414.25</ele><time>2026-04-12T08:09:08.999Z</time></trkpt><trkpt lat="45.955896858059376" lon="11.334891389636049"><ele>1414.0</ele><time>2026-04-12T08:09:09.999Z</time></trkpt><trkpt lat="45.95585883850524" lon="11.335071189488552"><ele>1414.0</ele><time>2026-04-12T08:09:10.999Z</time></trkpt><trkpt lat="45.95581603630378" lon="11.335252256374156"><ele>1414.0</ele><time>2026-04-12T08:09:11.999Z</time></trkpt><trkpt lat="45.95576569402553" lon="11.335433154623942"><ele>1414.0</ele><time>2026-04-12T08:09:12.999Z</time></trkpt><trkpt lat="45.95570803529905" lon="11.335615862830288"><ele>1414.0</ele><time>2026-04-12T08:09:13.999Z</time></trkpt><trkpt lat="45.95564552679759" lon="11.335800647753693"><ele>1414.3333333333333</ele><time>2026-04-12T08:09:14.999Z</time></trkpt><trkpt lat="45.95557870415525" lon="11.33598833683321"><ele>1414.6666666666667</ele><time>2026-04-12T08:09:15.999Z</time></trkpt><trkpt lat="45.9555068451791" lon="11.336183377801111"><ele>1415.0</ele><time>2026-04-12T08:09:16.999Z</time></trkpt><trkpt lat="45.95542479461094" lon="11.33637066550134"><ele>1415.5</ele><time>2026-04-12T08:09:17.999Z</time></trkpt><trkpt lat="45.9553489837379" lon="11.33655559808913"><ele>1416.0</ele><time>2026-04-12T08:09:18.999Z</time></trkpt><trkpt lat="45.955272858875304" lon="11.336734296189373"><ele>1416.5</ele><time>2026-04-12T08:09:19.999Z</time></trkpt><trkpt lat="45.95520326905814" lon="11.336918058571749"><ele>1417.0</ele><time>2026-04-12T08:09:20.999Z</time></trkpt><trkpt lat="45.95513034569377" lon="11.33709926622831"><ele>1417.25</ele><time>2026-04-12T08:09:21.999Z</time></trkpt><trkpt lat="45.95505773824065" lon="11.337277573893251"><ele>1417.5</ele><time>2026-04-12T08:09:22.999Z</time></trkpt><trkpt lat="45.954990501133736" lon="11.337441725274706"><ele>1417.75</ele><time>2026-04-12T08:09:23.999Z</time></trkpt><trkpt lat="45.95492624551012" lon="11.337588479708732"><ele>1418.0</ele><time>2026-04-12T08:09:24.999Z</time></trkpt><trkpt lat="45.95486810591458" lon="11.33772405854274"><ele>1416.75</ele><time>2026-04-12T08:09:25.999Z</time></trkpt><trkpt lat="45.95481497544038" lon="11.337863670104669"><ele>1415.5</ele><time>2026-04-12T08:09:26.999Z</time></trkpt><trkpt lat="45.9547635101285" lon="11.338019555073236"><ele>1414.25</ele><time>2026-04-12T08:09:27.999Z</time></trkpt><trkpt lat="45.954771207737636" lon="11.338203014582675"><ele>1413.0</ele><time>2026-04-12T08:09:28.999Z</time></trkpt><trkpt lat="45.95475916837491" lon="11.33838911465728"><ele>1412.75</ele><time>2026-04-12T08:09:29.999Z</time></trkpt><trkpt lat="45.954761941388675" lon="11.338585701752622"><ele>1412.5</ele><time>2026-04-12T08:09:30.999Z</time></trkpt><trkpt lat="45.954777438097246" lon="11.338779411526163"><ele>1412.25</ele><time>2026-04-12T08:09:31.999Z</time></trkpt><trkpt lat="45.95474478754861" lon="11.338957046178859"><ele>1412.0</ele><time>2026-04-12T08:09:32.999Z</time></trkpt><trkpt lat="45.95471663783459" lon="11.339135724368191"><ele>1411.75</ele><time>2026-04-12T08:09:33.999Z</time></trkpt><trkpt lat="45.9546282812168" lon="11.339277678523375"><ele>1411.5</ele><time>2026-04-12T08:09:34.999Z</time></trkpt><trkpt lat="45.95454180758236" lon="11.339427821293922"><ele>1411.25</ele><time>2026-04-12T08:09:35.999Z</time></trkpt><trkpt lat="45.954446641802726" lon="11.339585286565933"><ele>1411.0</ele><time>2026-04-12T08:09:36.999Z</time></trkpt><trkpt lat="45.95435662508008" lon="11.33976613011383"><ele>1412.0</ele><time>2026-04-12T08:09:37.999Z</time></trkpt><trkpt lat="45.95425488274968" lon="11.339937034702592"><ele>1413.0</ele><time>2026-04-12T08:09:38.999Z</time></trkpt><trkpt lat="45.954153296753255" lon="11.340106069184298"><ele>1414.0</ele><time>2026-04-12T08:09:39.999Z</time></trkpt><trkpt lat="45.95405315031061" lon="11.340267770093952"><ele>1412.5</ele><time>2026-04-12T08:09:40.999Z</time></trkpt><trkpt lat="45.95395707254805" lon="11.340428978400517"><ele>1411.0</ele><time>2026-04-12T08:09:41.999Z</time></trkpt><trkpt lat="45.95386046647426" lon="11.340587003217738"><ele>1409.5</ele><time>2026-04-12T08:09:42.999Z</time></trkpt><trkpt lat="45.95376526486372" lon="11.3407456678852"><ele>1408.0</ele><time>2026-04-12T08:09:43.999Z</time></trkpt><trkpt lat="45.95367344142279" lon="11.340913608353576"><ele>1407.0</ele><time>2026-04-12T08:09:44.999Z</time></trkpt><trkpt lat="45.953591105874644" lon="11.341098502940447"><ele>1406.0</ele><time>2026-04-12T08:09:45.999Z</time></trkpt><trkpt lat="45.95351700692359" lon="11.341299097572554"><ele>1405.0</ele><time>2026-04-12T08:09:46.999Z</time></trkpt><trkpt lat="45.95344951001485" lon="11.34150545914196"><ele>1404.3333333333333</ele><time>2026-04-12T08:09:47.999Z</time></trkpt><trkpt lat="45.953377424541465" lon="11.34171368775693"><ele>1403.6666666666667</ele><time>2026-04-12T08:09:48.999Z</time></trkpt><trkpt lat="45.95330551084136" lon="11.341914441302043"><ele>1403.0</ele><time>2026-04-12T08:09:49.999Z</time></trkpt><trkpt lat="45.95323837799747" lon="11.342106258199305"><ele>1401.5</ele><time>2026-04-12T08:09:50.999Z</time></trkpt><trkpt lat="45.95317700130342" lon="11.34228461583051"><ele>1400.0</ele><time>2026-04-12T08:09:51.999Z</time></trkpt><trkpt lat="45.953122512670106" lon="11.34245152211806"><ele>1398.5</ele><time>2026-04-12T08:09:52.999Z</time></trkpt><trkpt lat="45.95308163338709" lon="11.342619280482369"><ele>1397.0</ele><time>2026-04-12T08:09:53.999Z</time></trkpt><trkpt lat="45.95306555708108" lon="11.342805242653013"><ele>1397.0</ele><time>2026-04-12T08:09:54.999Z</time></trkpt><trkpt lat="45.95308103470727" lon="11.342996409090476"><ele>1397.0</ele><time>2026-04-12T08:09:55.999Z</time></trkpt><trkpt lat="45.9531142562632" lon="11.343190691292225"><ele>1397.0</ele><time>2026-04-12T08:09:56.999Z</time></trkpt><trkpt lat="45.953143684664205" lon="11.343366954977473"><ele>1397.0</ele><time>2026-04-12T08:09:57.998Z</time></trkpt><trkpt lat="45.95317129866091" lon="11.3435296218013"><ele>1397.0</ele><time>2026-04-12T08:09:58.998Z</time></trkpt><trkpt lat="45.953178892995474" lon="11.343679724740555"><ele>1397.0</ele><time>2026-04-12T08:09:59.998Z</time></trkpt><trkpt lat="45.95319900622604" lon="11.34381059297546"><ele>1397.0</ele><time>2026-04-12T08:10:00.998Z</time></trkpt><trkpt lat="45.95321056235667" lon="11.343938287197425"><ele>1397.0</ele><time>2026-04-12T08:10:01.998Z</time></trkpt><trkpt lat="45.95320603702004" lon="11.344073488518777"><ele>1397.0</ele><time>2026-04-12T08:10:02.998Z</time></trkpt><trkpt lat="45.95316216724681" lon="11.34419229078246"><ele>1398.0</ele><time>2026-04-12T08:10:03.998Z</time></trkpt><trkpt lat="45.953092831413414" lon="11.34430033503835"><ele>1399.0</ele><time>2026-04-12T08:10:04.998Z</time></trkpt><trkpt lat="45.95303969833539" lon="11.344453227926293"><ele>1400.0</ele><time>2026-04-12T08:10:05.998Z</time></trkpt><trkpt lat="45.95293257060002" lon="11.344551423234792"><ele>1401.0</ele><time>2026-04-12T08:10:06.998Z</time></trkpt><trkpt lat="45.95280959190105" lon="11.34463735595252"><ele>1402.3333333333333</ele><time>2026-04-12T08:10:07.998Z</time></trkpt><trkpt lat="45.952672685431786" lon="11.344741007866052"><ele>1403.6666666666665</ele><time>2026-04-12T08:10:08.998Z</time></trkpt><trkpt lat="45.95252142991086" lon="11.344833421280393"><ele>1405.0</ele><time>2026-04-12T08:10:09.998Z</time></trkpt><trkpt lat="45.95239280641128" lon="11.34497091542166"><ele>1403.0</ele><time>2026-04-12T08:10:10.998Z</time></trkpt><trkpt lat="45.95228007179201" lon="11.345104545917355"><ele>1401.0</ele><time>2026-04-12T08:10:11.998Z</time></trkpt><trkpt lat="45.9521696674422" lon="11.345242963990884"><ele>1399.0</ele><time>2026-04-12T08:10:12.998Z</time></trkpt><trkpt lat="45.95206366949711" lon="11.345389330622003"><ele>1397.0</ele><time>2026-04-12T08:10:13.998Z</time></trkpt><trkpt lat="45.951945770325" lon="11.34552248752189"><ele>1397.3333333333335</ele><time>2026-04-12T08:10:14.998Z</time></trkpt><trkpt lat="45.951820351732096" lon="11.345654346830997"><ele>1397.6666666666667</ele><time>2026-04-12T08:10:15.998Z</time></trkpt><trkpt lat="45.9516775549445" lon="11.345754572363473"><ele>1398.0</ele><time>2026-04-12T08:10:16.998Z</time></trkpt><trkpt lat="45.95155096702504" lon="11.345862666880102"><ele>1396.3333333333333</ele><time>2026-04-12T08:10:17.998Z</time></trkpt><trkpt lat="45.95142748273354" lon="11.345997601747914"><ele>1394.6666666666665</ele><time>2026-04-12T08:10:18.998Z</time></trkpt><trkpt lat="45.951298221434904" lon="11.346112483467591"><ele>1393.0</ele><time>2026-04-12T08:10:19.998Z</time></trkpt><trkpt lat="45.95117891671002" lon="11.346237196388673"><ele>1393.0</ele><time>2026-04-12T08:10:20.998Z</time></trkpt><trkpt lat="45.95107070812767" lon="11.346371113127617"><ele>1393.0</ele><time>2026-04-12T08:10:21.998Z</time></trkpt><trkpt lat="45.95096636981311" lon="11.346523627783094"><ele>1393.0</ele><time>2026-04-12T08:10:22.998Z</time></trkpt><trkpt lat="45.95086875316731" lon="11.346692714585702"><ele>1393.0</ele><time>2026-04-12T08:10:23.998Z</time></trkpt><trkpt lat="45.95077811141275" lon="11.346854156069861"><ele>1392.25</ele><time>2026-04-12T08:10:24.998Z</time></trkpt><trkpt lat="45.95070531576841" lon="11.347003852827864"><ele>1391.5</ele><time>2026-04-12T08:10:25.998Z</time></trkpt><trkpt lat="45.95062602613412" lon="11.347163953825685"><ele>1390.75</ele><time>2026-04-12T08:10:26.998Z</time></trkpt><trkpt lat="45.95057334419068" lon="11.347360216406841"><ele>1390.0</ele><time>2026-04-12T08:10:27.998Z</time></trkpt><trkpt lat="45.95054341438204" lon="11.347582872964802"><ele>1390.0</ele><time>2026-04-12T08:10:28.998Z</time></trkpt><trkpt lat="45.950524477376376" lon="11.34781600846815"><ele>1390.0</ele><time>2026-04-12T08:10:30Z</time></trkpt><trkpt lat="45.950511333390025" lon="11.348066547152166"><ele>1390.0</ele><time>2026-04-12T08:10:31Z</time></trkpt><trkpt lat="45.95049920268604" lon="11.348318233052035"><ele>1390.3333333333333</ele><time>2026-04-12T08:10:32Z</time></trkpt><trkpt lat="45.950493028748795" lon="11.348565243123682"><ele>1390.6666666666667</ele><time>2026-04-12T08:10:33Z</time></trkpt><trkpt lat="45.95048077227851" lon="11.348800171167577"><ele>1391.0</ele><time>2026-04-12T08:10:34Z</time></trkpt><trkpt lat="45.95046817848353" lon="11.349021454685948"><ele>1392.0</ele><time>2026-04-12T08:10:35Z</time></trkpt><trkpt lat="45.950455934782106" lon="11.349220068408146"><ele>1393.0</ele><time>2026-04-12T08:10:36Z</time></trkpt><trkpt lat="45.95042293548055" lon="11.34941390121027"><ele>1394.0</ele><time>2026-04-12T08:10:37Z</time></trkpt><trkpt lat="45.95038965829539" lon="11.349611610016167"><ele>1395.0</ele><time>2026-04-12T08:10:38Z</time></trkpt><trkpt lat="45.95034188851007" lon="11.34981654409789"><ele>1395.0</ele><time>2026-04-12T08:10:39Z</time></trkpt><trkpt lat="45.950283392774075" lon="11.350018304918908"><ele>1395.0</ele><time>2026-04-12T08:10:40Z</time></trkpt><trkpt lat="45.950214851879046" lon="11.350201573870613"><ele>1395.0</ele><time>2026-04-12T08:10:41Z</time></trkpt><trkpt lat="45.95014507169813" lon="11.350370210536898"><ele>1395.0</ele><time>2026-04-12T08:10:42Z</time></trkpt><trkpt lat="45.95007772466798" lon="11.35052126495321"><ele>1392.6</ele><time>2026-04-12T08:10:43Z</time></trkpt><trkpt lat="45.950024141830745" lon="11.350675958188397"><ele>1390.2</ele><time>2026-04-12T08:10:44Z</time></trkpt><trkpt lat="45.94995958081588" lon="11.350813079252806"><ele>1387.8000000000002</ele><time>2026-04-12T08:10:45Z</time></trkpt><trkpt lat="45.949906589403355" lon="11.350949261902269"><ele>1385.4</ele><time>2026-04-12T08:10:46Z</time></trkpt><trkpt lat="45.94986553538383" lon="11.351081269787178"><ele>1383.0</ele><time>2026-04-12T08:10:47Z</time></trkpt><trkpt lat="45.949843571292" lon="11.351227310695238"><ele>1382.25</ele><time>2026-04-12T08:10:48Z</time></trkpt><trkpt lat="45.94985558033521" lon="11.351375024112775"><ele>1381.5</ele><time>2026-04-12T08:10:49Z</time></trkpt><trkpt lat="45.94993580089599" lon="11.351512587412586"><ele>1380.75</ele><time>2026-04-12T08:10:50Z</time></trkpt><trkpt lat="45.950030078926204" lon="11.351646032574104"><ele>1380.0</ele><time>2026-04-12T08:10:51Z</time></trkpt><trkpt lat="45.95012922528888" lon="11.351793557184672"><ele>1381.5</ele><time>2026-04-12T08:10:52Z</time></trkpt><trkpt lat="45.95020424018653" lon="11.351966708356274"><ele>1383.0</ele><time>2026-04-12T08:10:53Z</time></trkpt><trkpt lat="45.950296498421594" lon="11.352145700516175"><ele>1384.5</ele><time>2026-04-12T08:10:54Z</time></trkpt><trkpt lat="45.950359918124335" lon="11.35233491630803"><ele>1386.0</ele><time>2026-04-12T08:10:55Z</time></trkpt><trkpt lat="45.95039635808786" lon="11.352530373461569"><ele>1386.0</ele><time>2026-04-12T08:10:56Z</time></trkpt><trkpt lat="45.950390768674545" lon="11.352729957789865"><ele>1386.0</ele><time>2026-04-12T08:10:57Z</time></trkpt><trkpt lat="45.9503783592611" lon="11.352916355931614"><ele>1386.0</ele><time>2026-04-12T08:10:58Z</time></trkpt><trkpt lat="45.95034632182299" lon="11.353102158177077"><ele>1386.0</ele><time>2026-04-12T08:10:59Z</time></trkpt><trkpt lat="45.9503245563071" lon="11.353305965288852"><ele>1386.25</ele><time>2026-04-12T08:11:00Z</time></trkpt><trkpt lat="45.950289244191374" lon="11.353498777396815"><ele>1386.5</ele><time>2026-04-12T08:11:01Z</time></trkpt><trkpt lat="45.95028502107027" lon="11.353695073662331"><ele>1386.75</ele><time>2026-04-12T08:11:02Z</time></trkpt><trkpt lat="45.95029702557131" lon="11.353891092343128"><ele>1387.0</ele><time>2026-04-12T08:11:03Z</time></trkpt><trkpt lat="45.95033365286185" lon="11.354086268575553"><ele>1386.3333333333333</ele><time>2026-04-12T08:11:04Z</time></trkpt><trkpt lat="45.950393535969404" lon="11.354281424762174"><ele>1385.6666666666667</ele><time>2026-04-12T08:11:05Z</time></trkpt><trkpt lat="45.950465358960585" lon="11.354495966370042"><ele>1385.0</ele><time>2026-04-12T08:11:06Z</time></trkpt><trkpt lat="45.950517785993306" lon="11.354714806172087"><ele>1384.0</ele><time>2026-04-12T08:11:07Z</time></trkpt><trkpt lat="45.95056288924898" lon="11.35491624014834"><ele>1383.0</ele><time>2026-04-12T08:11:08Z</time></trkpt><trkpt lat="45.950610207668795" lon="11.355106328533584"><ele>1382.0</ele><time>2026-04-12T08:11:09Z</time></trkpt><trkpt lat="45.95065397954058" lon="11.355288255682982"><ele>1381.0</ele><time>2026-04-12T08:11:09.999Z</time></trkpt><trkpt lat="45.95069698613515" lon="11.355450510722527"><ele>1381.5</ele><time>2026-04-12T08:11:10.999Z</time></trkpt><trkpt lat="45.95075916741542" lon="11.355592607377428"><ele>1382.0</ele><time>2026-04-12T08:11:11.999Z</time></trkpt><trkpt lat="45.950848952448716" lon="11.355712240651043"><ele>1382.5</ele><time>2026-04-12T08:11:12.999Z</time></trkpt><trkpt lat="45.950969114475654" lon="11.355826169255504"><ele>1383.0</ele><time>2026-04-12T08:11:13.999Z</time></trkpt><trkpt lat="45.95110080587074" lon="11.355950697475183"><ele>1383.0</ele><time>2026-04-12T08:11:14.999Z</time></trkpt><trkpt lat="45.95122964397526" lon="11.35607308055854"><ele>1383.0</ele><time>2026-04-12T08:11:15.999Z</time></trkpt><trkpt lat="45.95134463116842" lon="11.356189314541005"><ele>1383.0</ele><time>2026-04-12T08:11:16.999Z</time></trkpt><trkpt lat="45.95144189818795" lon="11.356295998873936"><ele>1383.0</ele><time>2026-04-12T08:11:17.999Z</time></trkpt><trkpt lat="45.95151978190626" lon="11.35640782533082"><ele>1381.75</ele><time>2026-04-12T08:11:18.999Z</time></trkpt><trkpt lat="45.95157567765601" lon="11.356556110866732"><ele>1380.5</ele><time>2026-04-12T08:11:19.999Z</time></trkpt><trkpt lat="45.951571301952086" lon="11.35672560347756"><ele>1379.25</ele><time>2026-04-12T08:11:20.999Z</time></trkpt><trkpt lat="45.951529038598714" lon="11.356884445886122"><ele>1378.0</ele><time>2026-04-12T08:11:21.999Z</time></trkpt><trkpt lat="45.951471428213004" lon="11.357052959744035"><ele>1377.5</ele><time>2026-04-12T08:11:22.999Z</time></trkpt><trkpt lat="45.951400338179866" lon="11.357210007287183"><ele>1377.0</ele><time>2026-04-12T08:11:23.999Z</time></trkpt><trkpt lat="45.95133169388289" lon="11.357334268133899"><ele>1376.5</ele><time>2026-04-12T08:11:24.999Z</time></trkpt><trkpt lat="45.951276958672246" lon="11.357468239350835"><ele>1376.0</ele><time>2026-04-12T08:11:25.999Z</time></trkpt><trkpt lat="45.951227139414584" lon="11.35760191236253"><ele>1376.0</ele><time>2026-04-12T08:11:26.999Z</time></trkpt><trkpt lat="45.95120919673703" lon="11.357754395096144"><ele>1376.0</ele><time>2026-04-12T08:11:27.999Z</time></trkpt><trkpt lat="45.951234844155216" lon="11.357930911182788"><ele>1376.0</ele><time>2026-04-12T08:11:28.999Z</time></trkpt><trkpt lat="45.951297921337044" lon="11.358125964894848"><ele>1376.0</ele><time>2026-04-12T08:11:29.999Z</time></trkpt><trkpt lat="45.95138310973386" lon="11.358314074003468"><ele>1376.0</ele><time>2026-04-12T08:11:30.999Z</time></trkpt><trkpt lat="45.951453029026716" lon="11.358519299630252"><ele>1376.0</ele><time>2026-04-12T08:11:31.999Z</time></trkpt><trkpt lat="45.95148870794241" lon="11.358736974817901"><ele>1376.0</ele><time>2026-04-12T08:11:32.999Z</time></trkpt><trkpt lat="45.95153678727409" lon="11.358951788558583"><ele>1376.0</ele><time>2026-04-12T08:11:33.999Z</time></trkpt><trkpt lat="45.951521310793" lon="11.35918724177727"><ele>1376.0</ele><time>2026-04-12T08:11:34.999Z</time></trkpt><trkpt lat="45.95149060247496" lon="11.359430579866409"><ele>1376.0</ele><time>2026-04-12T08:11:35.999Z</time></trkpt><trkpt lat="45.951446475818344" lon="11.359680243429056"><ele>1375.6666666666667</ele><time>2026-04-12T08:11:36.999Z</time></trkpt><trkpt lat="45.95140170141779" lon="11.359937448394781"><ele>1375.3333333333333</ele><time>2026-04-12T08:11:37.999Z</time></trkpt><trkpt lat="45.95136244635839" lon="11.360197021037129"><ele>1375.0</ele><time>2026-04-12T08:11:38.999Z</time></trkpt><trkpt lat="45.95132359559703" lon="11.360458983031767"><ele>1376.6666666666665</ele><time>2026-04-12T08:11:39.999Z</time></trkpt><trkpt lat="45.95128145219314" lon="11.360719571407808"><ele>1378.3333333333333</ele><time>2026-04-12T08:11:40.999Z</time></trkpt><trkpt lat="45.95122471002398" lon="11.360968496532356"><ele>1380.0</ele><time>2026-04-12T08:11:41.999Z</time></trkpt><trkpt lat="45.951198813398875" lon="11.361217615152864"><ele>1378.6666666666667</ele><time>2026-04-12T08:11:42.999Z</time></trkpt><trkpt lat="45.951143616860065" lon="11.361441205888674"><ele>1377.3333333333335</ele><time>2026-04-12T08:11:43.999Z</time></trkpt><trkpt lat="45.95110454351464" lon="11.361670531885972"><ele>1376.0</ele><time>2026-04-12T08:11:44.999Z</time></trkpt><trkpt lat="45.951060491541476" lon="11.361920925837799"><ele>1376.0</ele><time>2026-04-12T08:11:45.999Z</time></trkpt><trkpt lat="45.951014373832066" lon="11.362183061547478"><ele>1376.0</ele><time>2026-04-12T08:11:46.999Z</time></trkpt><trkpt lat="45.950967454643084" lon="11.362449752910898"><ele>1376.0</ele><time>2026-04-12T08:11:47.999Z</time></trkpt><trkpt lat="45.95091917504839" lon="11.362724569182582"><ele>1369.6666666666667</ele><time>2026-04-12T08:11:48.999Z</time></trkpt><trkpt lat="45.95087233339159" lon="11.362991552261438"><ele>1363.3333333333333</ele><time>2026-04-12T08:11:49.999Z</time></trkpt><trkpt lat="45.95083797454718" lon="11.363255247393699"><ele>1357.0</ele><time>2026-04-12T08:11:50.999Z</time></trkpt><trkpt lat="45.95077015615019" lon="11.363502404400217"><ele>1357.0</ele><time>2026-04-12T08:11:51.999Z</time></trkpt><trkpt lat="45.950707066376445" lon="11.36374604805344"><ele>1357.0</ele><time>2026-04-12T08:11:52.999Z</time></trkpt><trkpt lat="45.95064172322768" lon="11.363989147216518"><ele>1357.0</ele><time>2026-04-12T08:11:53.999Z</time></trkpt><trkpt lat="45.95059186086827" lon="11.364237328590383"><ele>1359.6666666666665</ele><time>2026-04-12T08:11:54.999Z</time></trkpt><trkpt lat="45.95052144080264" lon="11.36448118362589"><ele>1362.3333333333333</ele><time>2026-04-12T08:11:55.999Z</time></trkpt><trkpt lat="45.95045664836878" lon="11.364728908766457"><ele>1365.0</ele><time>2026-04-12T08:11:56.999Z</time></trkpt><trkpt lat="45.9503910523234" lon="11.364972580223238"><ele>1367.6666666666667</ele><time>2026-04-12T08:11:57.999Z</time></trkpt><trkpt lat="45.95032870103165" lon="11.3652084018643"><ele>1370.3333333333335</ele><time>2026-04-12T08:11:58.999Z</time></trkpt><trkpt lat="45.95026947151878" lon="11.365443490732591"><ele>1373.0</ele><time>2026-04-12T08:11:59.999Z</time></trkpt><trkpt lat="45.95021454939873" lon="11.365686376969082"><ele>1373.6666666666667</ele><time>2026-04-12T08:12:00.999Z</time></trkpt><trkpt lat="45.95017441973753" lon="11.365931530483115"><ele>1374.3333333333333</ele><time>2026-04-12T08:12:01.999Z</time></trkpt><trkpt lat="45.95013539564076" lon="11.366173850874311"><ele>1375.0</ele><time>2026-04-12T08:12:02.998Z</time></trkpt><trkpt lat="45.95010225051738" lon="11.366402449800335"><ele>1376.3333333333333</ele><time>2026-04-12T08:12:03.998Z</time></trkpt><trkpt lat="45.950073953749516" lon="11.366633517807971"><ele>1377.6666666666667</ele><time>2026-04-12T08:12:04.998Z</time></trkpt><trkpt lat="45.95006007227241" lon="11.366876512809947"><ele>1379.0</ele><time>2026-04-12T08:12:05.998Z</time></trkpt><trkpt lat="45.95005453790684" lon="11.367103112156192"><ele>1381.0</ele><time>2026-04-12T08:12:06.998Z</time></trkpt><trkpt lat="45.95005172638722" lon="11.367330809018327"><ele>1383.0</ele><time>2026-04-12T08:12:07.998Z</time></trkpt><trkpt lat="45.95004447421368" lon="11.367571997799129"><ele>1385.0</ele><time>2026-04-12T08:12:08.998Z</time></trkpt><trkpt lat="45.95003672990585" lon="11.3678174337878"><ele>1370.6666666666667</ele><time>2026-04-12T08:12:09.998Z</time></trkpt><trkpt lat="45.950030725805824" lon="11.368065103826577"><ele>1356.3333333333333</ele><time>2026-04-12T08:12:10.998Z</time></trkpt><trkpt lat="45.95002408119039" lon="11.368320837821965"><ele>1342.0</ele><time>2026-04-12T08:12:11.998Z</time></trkpt><trkpt lat="45.950025282925054" lon="11.368575856221486"><ele>1342.0</ele><time>2026-04-12T08:12:12.998Z</time></trkpt><trkpt lat="45.95001805954455" lon="11.368842070626986"><ele>1342.0</ele><time>2026-04-12T08:12:13.998Z</time></trkpt><trkpt lat="45.95001106370268" lon="11.369105858513311"><ele>1342.0</ele><time>2026-04-12T08:12:14.998Z</time></trkpt><trkpt lat="45.95000353308131" lon="11.369367490726372"><ele>1341.6666666666665</ele><time>2026-04-12T08:12:15.998Z</time></trkpt><trkpt lat="45.94998588567447" lon="11.369622310244461"><ele>1341.3333333333333</ele><time>2026-04-12T08:12:16.998Z</time></trkpt><trkpt lat="45.94996323420387" lon="11.369880675039667"><ele>1341.0</ele><time>2026-04-12T08:12:17.998Z</time></trkpt><trkpt lat="45.94993943632001" lon="11.370127938019579"><ele>1341.0</ele><time>2026-04-12T08:12:18.998Z</time></trkpt><trkpt lat="45.949915585031654" lon="11.370360471305917"><ele>1341.0</ele><time>2026-04-12T08:12:19.998Z</time></trkpt><trkpt lat="45.94989889817374" lon="11.370591056227493"><ele>1341.0</ele><time>2026-04-12T08:12:20.998Z</time></trkpt><trkpt lat="45.94989209684421" lon="11.370834449154723"><ele>1339.6666666666667</ele><time>2026-04-12T08:12:21.998Z</time></trkpt><trkpt lat="45.94990668893163" lon="11.371078785119328"><ele>1338.3333333333335</ele><time>2026-04-12T08:12:22.998Z</time></trkpt><trkpt lat="45.949921909992305" lon="11.3713336075724"><ele>1337.0</ele><time>2026-04-12T08:12:23.998Z</time></trkpt><trkpt lat="45.949951173773115" lon="11.371609205937906"><ele>1334.0</ele><time>2026-04-12T08:12:24.998Z</time></trkpt><trkpt lat="45.94997805058787" lon="11.371898651141779"><ele>1331.0</ele><time>2026-04-12T08:12:25.998Z</time></trkpt><trkpt lat="45.95000579834958" lon="11.37220995690822"><ele>1328.0</ele><time>2026-04-12T08:12:26.998Z</time></trkpt><trkpt lat="45.950034079606304" lon="11.372521264885783"><ele>1335.6666666666667</ele><time>2026-04-12T08:12:27.998Z</time></trkpt><trkpt lat="45.950059886082535" lon="11.372821660864245"><ele>1343.3333333333333</ele><time>2026-04-12T08:12:28.998Z</time></trkpt><trkpt lat="45.95008438773308" lon="11.373106995900159"><ele>1351.0</ele><time>2026-04-12T08:12:29.998Z</time></trkpt><trkpt lat="45.95010827690934" lon="11.37337904176571"><ele>1351.0</ele><time>2026-04-12T08:12:30.998Z</time></trkpt><trkpt lat="45.95013377858186" lon="11.373638909435375"><ele>1351.0</ele><time>2026-04-12T08:12:31.998Z</time></trkpt><trkpt lat="45.95015727204859" lon="11.37388131627402"><ele>1351.0</ele><time>2026-04-12T08:12:32.998Z</time></trkpt><trkpt lat="45.95017953293192" lon="11.374123883788355"><ele>1349.3333333333333</ele><time>2026-04-12T08:12:33.998Z</time></trkpt><trkpt lat="45.95020151851442" lon="11.374362270710726"><ele>1347.6666666666667</ele><time>2026-04-12T08:12:34.998Z</time></trkpt><trkpt lat="45.95022764868257" lon="11.37460477016979"><ele>1346.0</ele><time>2026-04-12T08:12:36Z</time></trkpt><trkpt lat="45.9502494608011" lon="11.374846704710595"><ele>1346.0</ele><time>2026-04-12T08:12:37Z</time></trkpt><trkpt lat="45.95026845940391" lon="11.375089192767842"><ele>1346.0</ele><time>2026-04-12T08:12:38Z</time></trkpt><trkpt lat="45.95026105929787" lon="11.37532878181579"><ele>1346.0</ele><time>2026-04-12T08:12:39Z</time></trkpt><trkpt lat="45.95027723552955" lon="11.375565045000158"><ele>1346.0</ele><time>2026-04-12T08:12:40Z</time></trkpt><trkpt lat="45.9502597127092" lon="11.375784681816192"><ele>1346.0</ele><time>2026-04-12T08:12:41Z</time></trkpt><trkpt lat="45.950258746757875" lon="11.375993899548613"><ele>1346.0</ele><time>2026-04-12T08:12:42Z</time></trkpt><trkpt lat="45.95025966783657" lon="11.376195060399812"><ele>1346.0</ele><time>2026-04-12T08:12:43Z</time></trkpt><trkpt lat="45.950269968881145" lon="11.376410417242045"><ele>1344.3333333333335</ele><time>2026-04-12T08:12:44Z</time></trkpt><trkpt lat="45.950287204769964" lon="11.376640953044431"><ele>1342.6666666666667</ele><time>2026-04-12T08:12:45Z</time></trkpt><trkpt lat="45.950304372228146" lon="11.37687403142652"><ele>1341.0</ele><time>2026-04-12T08:12:46Z</time></trkpt><trkpt lat="45.950312994851394" lon="11.377114675212125"><ele>1341.6666666666667</ele><time>2026-04-12T08:12:47Z</time></trkpt><trkpt lat="45.95032542532235" lon="11.377374766875144"><ele>1342.3333333333335</ele><time>2026-04-12T08:12:48Z</time></trkpt><trkpt lat="45.95031643235324" lon="11.37763491326034"><ele>1343.0</ele><time>2026-04-12T08:12:49Z</time></trkpt><trkpt lat="45.95031639535069" lon="11.377891094632153"><ele>1344.0</ele><time>2026-04-12T08:12:50Z</time></trkpt><trkpt lat="45.95030722505829" lon="11.378137088972915"><ele>1345.0</ele><time>2026-04-12T08:12:51Z</time></trkpt><trkpt lat="45.95032496316217" lon="11.378388506705383"><ele>1346.0</ele><time>2026-04-12T08:12:52Z</time></trkpt><trkpt lat="45.950351839973294" lon="11.37864107442333"><ele>1343.3333333333335</ele><time>2026-04-12T08:12:53Z</time></trkpt><trkpt lat="45.95037858014612" lon="11.378878572829446"><ele>1340.6666666666667</ele><time>2026-04-12T08:12:54Z</time></trkpt><trkpt lat="45.9504045076851" lon="11.379108853649356"><ele>1338.0</ele><time>2026-04-12T08:12:55Z</time></trkpt><trkpt lat="45.95044203838585" lon="11.379318547667951"><ele>1338.0</ele><time>2026-04-12T08:12:56Z</time></trkpt><trkpt lat="45.95045983069824" lon="11.379513139282167"><ele>1338.0</ele><time>2026-04-12T08:12:57Z</time></trkpt><trkpt lat="45.95048204664791" lon="11.379693886706754"><ele>1338.0</ele><time>2026-04-12T08:12:58Z</time></trkpt><trkpt lat="45.95051806635523" lon="11.37985694706664"><ele>1338.0</ele><time>2026-04-12T08:12:59Z</time></trkpt><trkpt lat="45.95056576478429" lon="11.380011046253614"><ele>1339.25</ele><time>2026-04-12T08:13:00Z</time></trkpt><trkpt lat="45.9506418259588" lon="11.380162391306188"><ele>1340.5</ele><time>2026-04-12T08:13:01Z</time></trkpt><trkpt lat="45.95070960827286" lon="11.380322634716105"><ele>1341.75</ele><time>2026-04-12T08:13:02Z</time></trkpt><trkpt lat="45.9508251891767" lon="11.380456086197714"><ele>1343.0</ele><time>2026-04-12T08:13:03Z</time></trkpt><trkpt lat="45.95093323055317" lon="11.38059949428576"><ele>1343.0</ele><time>2026-04-12T08:13:04Z</time></trkpt><trkpt lat="45.951021910551404" lon="11.38077166859851"><ele>1343.0</ele><time>2026-04-12T08:13:05Z</time></trkpt><trkpt lat="45.951062831828196" lon="11.380966509807097"><ele>1343.0</ele><time>2026-04-12T08:13:06Z</time></trkpt><trkpt lat="45.95110141078212" lon="11.38115826110798"><ele>1343.0</ele><time>2026-04-12T08:13:07Z</time></trkpt><trkpt lat="45.95112440999047" lon="11.381366414934533"><ele>1340.0</ele><time>2026-04-12T08:13:08Z</time></trkpt><trkpt lat="45.95113510686646" lon="11.381578160936286"><ele>1337.0</ele><time>2026-04-12T08:13:09Z</time></trkpt><trkpt lat="45.95112434074265" lon="11.381778141711083"><ele>1334.0</ele><time>2026-04-12T08:13:10Z</time></trkpt><trkpt lat="45.951091390989426" lon="11.381965038551556"><ele>1331.0</ele><time>2026-04-12T08:13:11Z</time></trkpt><trkpt lat="45.95102889792467" lon="11.38211653172461"><ele>1328.75</ele><time>2026-04-12T08:13:12Z</time></trkpt><trkpt lat="45.95096338399394" lon="11.38227231859026"><ele>1326.5</ele><time>2026-04-12T08:13:13Z</time></trkpt><trkpt lat="45.95090986442528" lon="11.382435427071956"><ele>1324.25</ele><time>2026-04-12T08:13:14Z</time></trkpt><trkpt lat="45.95088255919528" lon="11.382596105775649"><ele>1322.0</ele><time>2026-04-12T08:13:14.999Z</time></trkpt><trkpt lat="45.95090526590794" lon="11.38276557501386"><ele>1322.0</ele><time>2026-04-12T08:13:15.999Z</time></trkpt><trkpt lat="45.95094156982972" lon="11.382952566664937"><ele>1322.0</ele><time>2026-04-12T08:13:16.999Z</time></trkpt><trkpt lat="45.95099564622679" lon="11.383143350907384"><ele>1322.0</ele><time>2026-04-12T08:13:17.999Z</time></trkpt><trkpt lat="45.9510516780386" lon="11.383334920333661"><ele>1322.0</ele><time>2026-04-12T08:13:18.999Z</time></trkpt><trkpt lat="45.95109933054318" lon="11.383510155245922"><ele>1322.0</ele><time>2026-04-12T08:13:19.999Z</time></trkpt><trkpt lat="45.951109894299" lon="11.383687327255458"><ele>1322.0</ele><time>2026-04-12T08:13:20.999Z</time></trkpt><trkpt lat="45.95110965516048" lon="11.383848054851185"><ele>1322.0</ele><time>2026-04-12T08:13:21.999Z</time></trkpt><trkpt lat="45.95107925073638" lon="11.384012290507332"><ele>1322.0</ele><time>2026-04-12T08:13:22.999Z</time></trkpt><trkpt lat="45.95106442781366" lon="11.384191377886662"><ele>1322.0</ele><time>2026-04-12T08:13:23.999Z</time></trkpt><trkpt lat="45.95106745800978" lon="11.384357309551634"><ele>1322.0</ele><time>2026-04-12T08:13:24.999Z</time></trkpt><trkpt lat="45.95109885096496" lon="11.384517531837488"><ele>1322.0</ele><time>2026-04-12T08:13:25.999Z</time></trkpt><trkpt lat="45.95116141091743" lon="11.384679745455223"><ele>1322.0</ele><time>2026-04-12T08:13:26.999Z</time></trkpt><trkpt lat="45.95123607722478" lon="11.384841488973954"><ele>1322.5</ele><time>2026-04-12T08:13:27.999Z</time></trkpt><trkpt lat="45.95130146943114" lon="11.385018790335604"><ele>1323.0</ele><time>2026-04-12T08:13:28.999Z</time></trkpt><trkpt lat="45.95137282676481" lon="11.385200832325115"><ele>1323.5</ele><time>2026-04-12T08:13:29.999Z</time></trkpt><trkpt lat="45.95144334812384" lon="11.385389240447967"><ele>1324.0</ele><time>2026-04-12T08:13:30.999Z</time></trkpt><trkpt lat="45.95152513121694" lon="11.385577840384165"><ele>1323.0</ele><time>2026-04-12T08:13:31.999Z</time></trkpt><trkpt lat="45.95159805272214" lon="11.385766888931107"><ele>1322.0</ele><time>2026-04-12T08:13:32.999Z</time></trkpt><trkpt lat="45.95166643058013" lon="11.385944314679728"><ele>1321.0</ele><time>2026-04-12T08:13:33.999Z</time></trkpt><trkpt lat="45.95172838088382" lon="11.38613071147819"><ele>1320.0</ele><time>2026-04-12T08:13:34.999Z</time></trkpt><trkpt lat="45.95178067504701" lon="11.386331392722576"><ele>1329.0</ele><time>2026-04-12T08:13:35.999Z</time></trkpt><trkpt lat="45.95178080259611" lon="11.38654873591446"><ele>1338.0</ele><time>2026-04-12T08:13:36.999Z</time></trkpt><trkpt lat="45.95179009992015" lon="11.386777756094764"><ele>1347.0</ele><time>2026-04-12T08:13:37.999Z</time></trkpt><trkpt lat="45.95181266724266" lon="11.38699632162108"><ele>1342.3333333333333</ele><time>2026-04-12T08:13:38.999Z</time></trkpt><trkpt lat="45.95182268446575" lon="11.387223685975023"><ele>1337.6666666666665</ele><time>2026-04-12T08:13:39.999Z</time></trkpt><trkpt lat="45.95183960595215" lon="11.38744338042752"><ele>1333.0</ele><time>2026-04-12T08:13:40.999Z</time></trkpt><trkpt lat="45.9518259188461" lon="11.38765373526371"><ele>1333.0</ele><time>2026-04-12T08:13:41.999Z</time></trkpt><trkpt lat="45.951816923674166" lon="11.387850880066274"><ele>1333.0</ele><time>2026-04-12T08:13:42.999Z</time></trkpt><trkpt lat="45.95178931981017" lon="11.38804683917484"><ele>1333.0</ele><time>2026-04-12T08:13:43.999Z</time></trkpt><trkpt lat="45.951738016127315" lon="11.388244741698283"><ele>1333.0</ele><time>2026-04-12T08:13:44.999Z</time></trkpt><trkpt lat="45.95169250969149" lon="11.388467089140239"><ele>1321.6666666666665</ele><time>2026-04-12T08:13:45.999Z</time></trkpt><trkpt lat="45.9516394072095" lon="11.38868792890938"><ele>1310.3333333333333</ele><time>2026-04-12T08:13:46.999Z</time></trkpt><trkpt lat="45.951594850462094" lon="11.388931196178813"><ele>1299.0</ele><time>2026-04-12T08:13:47.999Z</time></trkpt><trkpt lat="45.95157583584046" lon="11.389168038822445"><ele>1298.6666666666667</ele><time>2026-04-12T08:13:48.999Z</time></trkpt><trkpt lat="45.95156761341184" lon="11.389396085136944"><ele>1298.3333333333335</ele><time>2026-04-12T08:13:49.999Z</time></trkpt><trkpt lat="45.951575220633686" lon="11.389616576259828"><ele>1298.0</ele><time>2026-04-12T08:13:50.999Z</time></trkpt><trkpt lat="45.951584152626964" lon="11.389831098348504"><ele>1299.3333333333335</ele><time>2026-04-12T08:13:51.999Z</time></trkpt><trkpt lat="45.95154859617498" lon="11.390039179654668"><ele>1300.6666666666667</ele><time>2026-04-12T08:13:52.999Z</time></trkpt><trkpt lat="45.951503002913334" lon="11.390249617784152"><ele>1302.0</ele><time>2026-04-12T08:13:53.999Z</time></trkpt><trkpt lat="45.951423454931536" lon="11.390457386072317"><ele>1307.0</ele><time>2026-04-12T08:13:54.999Z</time></trkpt><trkpt lat="45.95132492589347" lon="11.390654581173717"><ele>1312.0</ele><time>2026-04-12T08:13:55.999Z</time></trkpt><trkpt lat="45.95122260515694" lon="11.390859424947598"><ele>1317.0</ele><time>2026-04-12T08:13:56.999Z</time></trkpt><trkpt lat="45.95112922208145" lon="11.391072523867107"><ele>1317.0</ele><time>2026-04-12T08:13:57.999Z</time></trkpt><trkpt lat="45.95101808595548" lon="11.39126498245641"><ele>1317.0</ele><time>2026-04-12T08:13:58.999Z</time></trkpt><trkpt lat="45.95090272429074" lon="11.391444777781148"><ele>1317.0</ele><time>2026-04-12T08:13:59.999Z</time></trkpt><trkpt lat="45.95078120071801" lon="11.39161272240677"><ele>1315.5</ele><time>2026-04-12T08:14:00.999Z</time></trkpt><trkpt lat="45.950669362376246" lon="11.39176245094327"><ele>1314.0</ele><time>2026-04-12T08:14:01.999Z</time></trkpt><trkpt lat="45.95056318485799" lon="11.391913746352982"><ele>1312.5</ele><time>2026-04-12T08:14:02.999Z</time></trkpt><trkpt lat="45.95047073222272" lon="11.39205354378452"><ele>1311.0</ele><time>2026-04-12T08:14:03.999Z</time></trkpt><trkpt lat="45.95039573342636" lon="11.392194996467481"><ele>1311.0</ele><time>2026-04-12T08:14:04.999Z</time></trkpt><trkpt lat="45.95034592977045" lon="11.39236642373723"><ele>1311.0</ele><time>2026-04-12T08:14:05.999Z</time></trkpt><trkpt lat="45.95032564967876" lon="11.392576687361867"><ele>1311.0</ele><time>2026-04-12T08:14:06.999Z</time></trkpt><trkpt lat="45.95031708960802" lon="11.39281170444488"><ele>1311.0</ele><time>2026-04-12T08:14:07.998Z</time></trkpt><trkpt lat="45.95031429100022" lon="11.393045785289553"><ele>1310.75</ele><time>2026-04-12T08:14:08.998Z</time></trkpt><trkpt lat="45.95030741883448" lon="11.393264150338734"><ele>1310.5</ele><time>2026-04-12T08:14:09.998Z</time></trkpt><trkpt lat="45.950296813267585" lon="11.393463949788256"><ele>1310.25</ele><time>2026-04-12T08:14:10.998Z</time></trkpt><trkpt lat="45.95028226683767" lon="11.393622942731529"><ele>1310.0</ele><time>2026-04-12T08:14:11.998Z</time></trkpt><trkpt lat="45.95025653114701" lon="11.39377005023188"><ele>1310.75</ele><time>2026-04-12T08:14:12.998Z</time></trkpt><trkpt lat="45.95020794710921" lon="11.393900763041895"><ele>1311.5</ele><time>2026-04-12T08:14:13.998Z</time></trkpt><trkpt lat="45.950117972719205" lon="11.394001859723147"><ele>1312.25</ele><time>2026-04-12T08:14:14.998Z</time></trkpt><trkpt lat="45.94998007653876" lon="11.394022350453515"><ele>1313.0</ele><time>2026-04-12T08:14:15.998Z</time></trkpt><trkpt lat="45.94981906464912" lon="11.394076729846615"><ele>1307.6666666666667</ele><time>2026-04-12T08:14:16.998Z</time></trkpt><trkpt lat="45.949657107847294" lon="11.39415051821145"><ele>1302.3333333333333</ele><time>2026-04-12T08:14:17.998Z</time></trkpt><trkpt lat="45.949502257047016" lon="11.394210296943859"><ele>1297.0</ele><time>2026-04-12T08:14:18.998Z</time></trkpt><trkpt lat="45.949360383074385" lon="11.394288127480857"><ele>1297.0</ele><time>2026-04-12T08:14:19.998Z</time></trkpt><trkpt lat="45.949224668214605" lon="11.394380717043859"><ele>1297.0</ele><time>2026-04-12T08:14:20.998Z</time></trkpt><trkpt lat="45.949085279213335" lon="11.394481949994843"><ele>1297.0</ele><time>2026-04-12T08:14:21.998Z</time></trkpt><trkpt lat="45.948946452893196" lon="11.394599425909137"><ele>1299.0</ele><time>2026-04-12T08:14:22.998Z</time></trkpt><trkpt lat="45.94881157279758" lon="11.394730219880062"><ele>1301.0</ele><time>2026-04-12T08:14:23.998Z</time></trkpt><trkpt lat="45.948685873751316" lon="11.394868406399222"><ele>1303.0</ele><time>2026-04-12T08:14:24.998Z</time></trkpt><trkpt lat="45.94856440446896" lon="11.39501685973524"><ele>1303.0</ele><time>2026-04-12T08:14:25.998Z</time></trkpt><trkpt lat="45.94846155747381" lon="11.395175927477156"><ele>1303.0</ele><time>2026-04-12T08:14:26.998Z</time></trkpt><trkpt lat="45.94836412109627" lon="11.395360865501276"><ele>1303.0</ele><time>2026-04-12T08:14:27.998Z</time></trkpt><trkpt lat="45.948268115595546" lon="11.395555380006016"><ele>1300.3333333333333</ele><time>2026-04-12T08:14:28.998Z</time></trkpt><trkpt lat="45.948175835635475" lon="11.39576189583506"><ele>1297.6666666666667</ele><time>2026-04-12T08:14:29.998Z</time></trkpt><trkpt lat="45.94807990801483" lon="11.395973982424703"><ele>1295.0</ele><time>2026-04-12T08:14:30.998Z</time></trkpt><trkpt lat="45.94799524952457" lon="11.396189551214752"><ele>1299.0</ele><time>2026-04-12T08:14:31.998Z</time></trkpt><trkpt lat="45.94791069284447" lon="11.396401962197654"><ele>1303.0</ele><time>2026-04-12T08:14:32.998Z</time></trkpt><trkpt lat="45.947821037833485" lon="11.396601754428938"><ele>1307.0</ele><time>2026-04-12T08:14:33.998Z</time></trkpt><trkpt lat="45.94771682892915" lon="11.396777791848987"><ele>1307.0</ele><time>2026-04-12T08:14:34.998Z</time></trkpt><trkpt lat="45.94759136586027" lon="11.396938840606394"><ele>1307.0</ele><time>2026-04-12T08:14:35.998Z</time></trkpt><trkpt lat="45.94746302776437" lon="11.397095673398438"><ele>1307.0</ele><time>2026-04-12T08:14:36.998Z</time></trkpt><trkpt lat="45.947334386688674" lon="11.397265228090674"><ele>1304.6666666666667</ele><time>2026-04-12T08:14:37.998Z</time></trkpt><trkpt lat="45.94719640040677" lon="11.397430536687105"><ele>1302.3333333333333</ele><time>2026-04-12T08:14:38.998Z</time></trkpt><trkpt lat="45.94704016546141" lon="11.397574917228335"><ele>1300.0</ele><time>2026-04-12T08:14:39.998Z</time></trkpt><trkpt lat="45.946870195227326" lon="11.397691553079778"><ele>1300.0</ele><time>2026-04-12T08:14:40.998Z</time></trkpt><trkpt lat="45.94669940753851" lon="11.39779960982973"><ele>1300.0</ele><time>2026-04-12T08:14:42Z</time></trkpt><trkpt lat="45.94652228922058" lon="11.397903458527395"><ele>1300.0</ele><time>2026-04-12T08:14:43Z</time></trkpt><trkpt lat="45.94635548465446" lon="11.398019447298466"><ele>1300.0</ele><time>2026-04-12T08:14:44Z</time></trkpt><trkpt lat="45.946188083798" lon="11.398140412327017"><ele>1300.0</ele><time>2026-04-12T08:14:45Z</time></trkpt><trkpt lat="45.946038501460905" lon="11.39827956086517"><ele>1300.0</ele><time>2026-04-12T08:14:46Z</time></trkpt><trkpt lat="45.945895593342264" lon="11.398423116487859"><ele>1292.0</ele><time>2026-04-12T08:14:47Z</time></trkpt><trkpt lat="45.94575986286591" lon="11.398562415401901"><ele>1284.0</ele><time>2026-04-12T08:14:48Z</time></trkpt><trkpt lat="45.945632935819404" lon="11.39869627830328"><ele>1276.0</ele><time>2026-04-12T08:14:49Z</time></trkpt><trkpt lat="45.94550740807387" lon="11.398819206101324"><ele>1281.25</ele><time>2026-04-12T08:14:50Z</time></trkpt><trkpt lat="45.945390363995735" lon="11.398938832823768"><ele>1286.5</ele><time>2026-04-12T08:14:51Z</time></trkpt><trkpt lat="45.945286320195244" lon="11.399077143037967"><ele>1291.75</ele><time>2026-04-12T08:14:52Z</time></trkpt><trkpt lat="45.94519610919549" lon="11.399253495819577"><ele>1297.0</ele><time>2026-04-12T08:14:53Z</time></trkpt><trkpt lat="45.94510993105747" lon="11.39946917585599"><ele>1291.6666666666665</ele><time>2026-04-12T08:14:54Z</time></trkpt><trkpt lat="45.945020818248075" lon="11.399693883537116"><ele>1286.3333333333333</ele><time>2026-04-12T08:14:55Z</time></trkpt><trkpt lat="45.944920964506835" lon="11.399919746057586"><ele>1281.0</ele><time>2026-04-12T08:14:56Z</time></trkpt><trkpt lat="45.944825223428346" lon="11.400144968448448"><ele>1281.0</ele><time>2026-04-12T08:14:57Z</time></trkpt><trkpt lat="45.944741036928825" lon="11.40036436319305"><ele>1281.0</ele><time>2026-04-12T08:14:58Z</time></trkpt><trkpt lat="45.94465780620551" lon="11.40058121120102"><ele>1281.0</ele><time>2026-04-12T08:14:59Z</time></trkpt><trkpt lat="45.944581820436504" lon="11.40081553807337"><ele>1286.3333333333333</ele><time>2026-04-12T08:15:00Z</time></trkpt><trkpt lat="45.94452418004184" lon="11.401059035982849"><ele>1291.6666666666665</ele><time>2026-04-12T08:15:01Z</time></trkpt><trkpt lat="45.94447102299964" lon="11.401323505529598"><ele>1297.0</ele><time>2026-04-12T08:15:02Z</time></trkpt><trkpt lat="45.94441939703488" lon="11.401586726601751"><ele>1301.6666666666665</ele><time>2026-04-12T08:15:03Z</time></trkpt><trkpt lat="45.94436193249028" lon="11.401844958351562"><ele>1306.3333333333333</ele><time>2026-04-12T08:15:04Z</time></trkpt><trkpt lat="45.944309840476635" lon="11.40208707902316"><ele>1311.0</ele><time>2026-04-12T08:15:05Z</time></trkpt><trkpt lat="45.94426098576156" lon="11.402323937314788"><ele>1312.0</ele><time>2026-04-12T08:15:06Z</time></trkpt><trkpt lat="45.94422685000131" lon="11.402562419152757"><ele>1313.0</ele><time>2026-04-12T08:15:07Z</time></trkpt><trkpt lat="45.944214788123915" lon="11.40279643508995"><ele>1314.0</ele><time>2026-04-12T08:15:08Z</time></trkpt><trkpt lat="45.94423408848583" lon="11.403034281349603"><ele>1308.3333333333333</ele><time>2026-04-12T08:15:09Z</time></trkpt><trkpt lat="45.94427250177532" lon="11.403276352027245"><ele>1302.6666666666665</ele><time>2026-04-12T08:15:10Z</time></trkpt><trkpt lat="45.944329664045405" lon="11.403520555915398"><ele>1297.0</ele><time>2026-04-12T08:15:11Z</time></trkpt><trkpt lat="45.944397537829026" lon="11.403750501336368"><ele>1290.6666666666665</ele><time>2026-04-12T08:15:12Z</time></trkpt><trkpt lat="45.94447928255916" lon="11.403952611361252"><ele>1284.3333333333333</ele><time>2026-04-12T08:15:13Z</time></trkpt><trkpt lat="45.94454792610342" lon="11.404170001666888"><ele>1278.0</ele><time>2026-04-12T08:15:14Z</time></trkpt><trkpt lat="45.944628894165085" lon="11.404388928804556"><ele>1278.0</ele><time>2026-04-12T08:15:15Z</time></trkpt><trkpt lat="45.94471608557098" lon="11.404607677906574"><ele>1278.0</ele><time>2026-04-12T08:15:16Z</time></trkpt><trkpt lat="45.94492082882473" lon="11.404727887204555"><ele>1278.0</ele><time>2026-04-12T08:15:17Z</time></trkpt><trkpt lat="45.9450281564042" lon="11.404918441247261"><ele>1277.6666666666667</ele><time>2026-04-12T08:15:18Z</time></trkpt><trkpt lat="45.94512241857977" lon="11.405111938012888"><ele>1277.3333333333335</ele><time>2026-04-12T08:15:18.999Z</time></trkpt><trkpt lat="45.94520560575945" lon="11.405301331757022"><ele>1277.0</ele><time>2026-04-12T08:15:19.999Z</time></trkpt><trkpt lat="45.945274147599854" lon="11.405517663509418"><ele>1277.0</ele><time>2026-04-12T08:15:20.999Z</time></trkpt><trkpt lat="45.94533251825542" lon="11.405746078379037"><ele>1277.0</ele><time>2026-04-12T08:15:21.999Z</time></trkpt><trkpt lat="45.9453935216101" lon="11.405982825538969"><ele>1277.0</ele><time>2026-04-12T08:15:22.999Z</time></trkpt><trkpt lat="45.9454407988264" lon="11.406234134745473"><ele>1274.0</ele><time>2026-04-12T08:15:23.999Z</time></trkpt><trkpt lat="45.945483618855164" lon="11.406497462823333"><ele>1271.0</ele><time>2026-04-12T08:15:24.999Z</time></trkpt><trkpt lat="45.94552071318324" lon="11.40676473456535"><ele>1268.0</ele><time>2026-04-12T08:15:25.999Z</time></trkpt><trkpt lat="45.9455679428009" lon="11.407028286004635"><ele>1267.0</ele><time>2026-04-12T08:15:26.999Z</time></trkpt><trkpt lat="45.9456213195335" lon="11.407292567962518"><ele>1266.0</ele><time>2026-04-12T08:15:27.999Z</time></trkpt><trkpt lat="45.945688719122764" lon="11.407533693407794"><ele>1265.0</ele><time>2026-04-12T08:15:28.999Z</time></trkpt><trkpt lat="45.94576314115033" lon="11.40776474432727"><ele>1265.0</ele><time>2026-04-12T08:15:29.999Z</time></trkpt><trkpt lat="45.94583494266765" lon="11.407975862373915"><ele>1265.0</ele><time>2026-04-12T08:15:30.999Z</time></trkpt><trkpt lat="45.94590296240413" lon="11.40817552094201"><ele>1265.0</ele><time>2026-04-12T08:15:31.999Z</time></trkpt><trkpt lat="45.94597476681403" lon="11.408366243363227"><ele>1265.25</ele><time>2026-04-12T08:15:32.999Z</time></trkpt><trkpt lat="45.94605942255852" lon="11.408544978786516"><ele>1265.5</ele><time>2026-04-12T08:15:33.999Z</time></trkpt><trkpt lat="45.946159070109786" lon="11.408686844822899"><ele>1265.75</ele><time>2026-04-12T08:15:34.999Z</time></trkpt><trkpt lat="45.946265872310526" lon="11.40881314166091"><ele>1266.0</ele><time>2026-04-12T08:15:35.999Z</time></trkpt><trkpt lat="45.94638780215294" lon="11.408908071927506"><ele>1266.6666666666667</ele><time>2026-04-12T08:15:36.999Z</time></trkpt><trkpt lat="45.94653151422354" lon="11.408970423649633"><ele>1267.3333333333335</ele><time>2026-04-12T08:15:37.999Z</time></trkpt><trkpt lat="45.9466841826527" lon="11.409031088727195"><ele>1268.0</ele><time>2026-04-12T08:15:38.999Z</time></trkpt><trkpt lat="45.946845400617896" lon="11.409102550151813"><ele>1268.0</ele><time>2026-04-12T08:15:39.999Z</time></trkpt><trkpt lat="45.94700586964388" lon="11.409177504907404"><ele>1268.0</ele><time>2026-04-12T08:15:40.999Z</time></trkpt><trkpt lat="45.947157174429734" lon="11.409271207841947"><ele>1268.0</ele><time>2026-04-12T08:15:41.999Z</time></trkpt><trkpt lat="45.94729965748586" lon="11.409409101042021"><ele>1268.0</ele><time>2026-04-12T08:15:42.999Z</time></trkpt><trkpt lat="45.9474306874652" lon="11.409588526527498"><ele>1268.0</ele><time>2026-04-12T08:15:43.999Z</time></trkpt><trkpt lat="45.9475590135827" lon="11.409779215470543"><ele>1268.0</ele><time>2026-04-12T08:15:44.999Z</time></trkpt><trkpt lat="45.94768842670098" lon="11.40997374416131"><ele>1270.6666666666667</ele><time>2026-04-12T08:15:45.999Z</time></trkpt><trkpt lat="45.94782046161902" lon="11.410165006474193"><ele>1273.3333333333333</ele><time>2026-04-12T08:15:46.999Z</time></trkpt><trkpt lat="45.94793571237647" lon="11.41036440884012"><ele>1276.0</ele><time>2026-04-12T08:15:47.999Z</time></trkpt><trkpt lat="45.94806118973823" lon="11.410541874158595"><ele>1279.6666666666665</ele><time>2026-04-12T08:15:48.999Z</time></trkpt><trkpt lat="45.94818691891698" lon="11.410691984907208"><ele>1283.3333333333333</ele><time>2026-04-12T08:15:49.999Z</time></trkpt><trkpt lat="45.9482951932908" lon="11.41085046395615"><ele>1287.0</ele><time>2026-04-12T08:15:50.999Z</time></trkpt><trkpt lat="45.94839764987973" lon="11.411004146407478"><ele>1287.0</ele><time>2026-04-12T08:15:51.999Z</time></trkpt><trkpt lat="45.94849129883599" lon="11.411165586609156"><ele>1287.0</ele><time>2026-04-12T08:15:52.999Z</time></trkpt><trkpt lat="45.94858136936375" lon="11.411348907006138"><ele>1287.0</ele><time>2026-04-12T08:15:53.999Z</time></trkpt><trkpt lat="45.94866999773071" lon="11.411548387724013"><ele>1279.3333333333333</ele><time>2026-04-12T08:15:54.999Z</time></trkpt><trkpt lat="45.948759418618884" lon="11.411750662515967"><ele>1271.6666666666665</ele><time>2026-04-12T08:15:55.999Z</time></trkpt><trkpt lat="45.94885735609991" lon="11.411957328350184"><ele>1264.0</ele><time>2026-04-12T08:15:56.999Z</time></trkpt><trkpt lat="45.948970449439905" lon="11.41215899374615"><ele>1267.3333333333333</ele><time>2026-04-12T08:15:57.999Z</time></trkpt><trkpt lat="45.94909511999901" lon="11.412356769292835"><ele>1270.6666666666667</ele><time>2026-04-12T08:15:58.999Z</time></trkpt><trkpt lat="45.9492255925598" lon="11.412557521757192"><ele>1274.0</ele><time>2026-04-12T08:15:59.999Z</time></trkpt><trkpt lat="45.94935926070456" lon="11.412758510822485"><ele>1274.0</ele><time>2026-04-12T08:16:00.999Z</time></trkpt><trkpt lat="45.94949578587795" lon="11.412962681924956"><ele>1274.0</ele><time>2026-04-12T08:16:01.999Z</time></trkpt><trkpt lat="45.94963368384449" lon="11.413167697317357"><ele>1274.0</ele><time>2026-04-12T08:16:02.999Z</time></trkpt><trkpt lat="45.9497697422368" lon="11.413363253368418"><ele>1268.0</ele><time>2026-04-12T08:16:03.999Z</time></trkpt><trkpt lat="45.94990118319131" lon="11.413549529899424"><ele>1262.0</ele><time>2026-04-12T08:16:04.999Z</time></trkpt><trkpt lat="45.95002680116665" lon="11.413730299564486"><ele>1256.0</ele><time>2026-04-12T08:16:05.999Z</time></trkpt><trkpt lat="45.95014925889504" lon="11.41390397249969"><ele>1256.0</ele><time>2026-04-12T08:16:06.999Z</time></trkpt><trkpt lat="45.95027536835674" lon="11.414075935091601"><ele>1256.0</ele><time>2026-04-12T08:16:07.999Z</time></trkpt><trkpt lat="45.950393022861455" lon="11.41424158670984"><ele>1256.0</ele><time>2026-04-12T08:16:08.999Z</time></trkpt><trkpt lat="45.950512897765435" lon="11.414407817089563"><ele>1256.0</ele><time>2026-04-12T08:16:09.999Z</time></trkpt><trkpt lat="45.95063358745954" lon="11.414576879377792"><ele>1256.0</ele><time>2026-04-12T08:16:10.999Z</time></trkpt><trkpt lat="45.950753153896684" lon="11.414745712244722"><ele>1256.0</ele><time>2026-04-12T08:16:11.999Z</time></trkpt><trkpt lat="45.95087636151793" lon="11.414917751665616"><ele>1258.6666666666667</ele><time>2026-04-12T08:16:12.998Z</time></trkpt><trkpt lat="45.951000066008824" lon="11.415082135575902"><ele>1261.3333333333333</ele><time>2026-04-12T08:16:13.998Z</time></trkpt><trkpt lat="45.95110818556646" lon="11.415267484588998"><ele>1264.0</ele><time>2026-04-12T08:16:14.998Z</time></trkpt><trkpt lat="45.95121726034522" lon="11.415420671990985"><ele>1259.25</ele><time>2026-04-12T08:16:15.998Z</time></trkpt><trkpt lat="45.951323876099856" lon="11.415570260705335"><ele>1254.5</ele><time>2026-04-12T08:16:16.998Z</time></trkpt><trkpt lat="45.95142281082926" lon="11.415713960499176"><ele>1249.75</ele><time>2026-04-12T08:16:17.998Z</time></trkpt><trkpt lat="45.95151515077765" lon="11.415849486673002"><ele>1245.0</ele><time>2026-04-12T08:16:18.998Z</time></trkpt><trkpt lat="45.951601604906244" lon="11.415965587823106"><ele>1245.0</ele><time>2026-04-12T08:16:19.998Z</time></trkpt><trkpt lat="45.95165809006399" lon="11.416114778135928"><ele>1245.0</ele><time>2026-04-12T08:16:20.998Z</time></trkpt><trkpt lat="45.951691111220946" lon="11.416265881939324"><ele>1245.0</ele><time>2026-04-12T08:16:21.998Z</time></trkpt><trkpt lat="45.95170141982248" lon="11.416433482220564"><ele>1245.0</ele><time>2026-04-12T08:16:22.998Z</time></trkpt><trkpt lat="45.951680015604715" lon="11.416609654188415"><ele>1243.5</ele><time>2026-04-12T08:16:23.998Z</time></trkpt><trkpt lat="45.951607882916186" lon="11.416763108434916"><ele>1242.0</ele><time>2026-04-12T08:16:24.998Z</time></trkpt><trkpt lat="45.951485209556644" lon="11.416883051256098"><ele>1240.5</ele><time>2026-04-12T08:16:25.998Z</time></trkpt><trkpt lat="45.95134369660108" lon="11.416988822398595"><ele>1239.0</ele><time>2026-04-12T08:16:26.998Z</time></trkpt><trkpt lat="45.951242776935544" lon="11.417093692788852"><ele>1237.5</ele><time>2026-04-12T08:16:27.998Z</time></trkpt><trkpt lat="45.95118237301184" lon="11.417232311739692"><ele>1236.0</ele><time>2026-04-12T08:16:28.998Z</time></trkpt><trkpt lat="45.95113786310163" lon="11.417376557180942"><ele>1234.5</ele><time>2026-04-12T08:16:29.998Z</time></trkpt><trkpt lat="45.951112922253465" lon="11.417533704389442"><ele>1233.0</ele><time>2026-04-12T08:16:30.998Z</time></trkpt><trkpt lat="45.95109478277524" lon="11.417704600328497"><ele>1233.0</ele><time>2026-04-12T08:16:31.998Z</time></trkpt><trkpt lat="45.95108183518322" lon="11.417875376037959"><ele>1233.0</ele><time>2026-04-12T08:16:32.998Z</time></trkpt><trkpt lat="45.95106909547794" lon="11.418064990563087"><ele>1233.0</ele><time>2026-04-12T08:16:33.998Z</time></trkpt><trkpt lat="45.95109447794991" lon="11.418248851457635"><ele>1233.0</ele><time>2026-04-12T08:16:34.998Z</time></trkpt><trkpt lat="45.951147335736216" lon="11.418434916009833"><ele>1232.6666666666667</ele><time>2026-04-12T08:16:35.998Z</time></trkpt><trkpt lat="45.951226457203354" lon="11.41862151290498"><ele>1232.3333333333335</ele><time>2026-04-12T08:16:36.998Z</time></trkpt><trkpt lat="45.95133118284529" lon="11.418810255036364"><ele>1232.0</ele><time>2026-04-12T08:16:37.998Z</time></trkpt><trkpt lat="45.95143739105577" lon="11.418998215877048"><ele>1232.0</ele><time>2026-04-12T08:16:38.998Z</time></trkpt><trkpt lat="45.95152960436573" lon="11.419164286711176"><ele>1232.0</ele><time>2026-04-12T08:16:39.998Z</time></trkpt><trkpt lat="45.951616284451596" lon="11.419320076409225"><ele>1232.0</ele><time>2026-04-12T08:16:40.998Z</time></trkpt><trkpt lat="45.95169756492523" lon="11.419467597633135"><ele>1232.0</ele><time>2026-04-12T08:16:41.998Z</time></trkpt><trkpt lat="45.95177411607603" lon="11.419614335683141"><ele>1240.5</ele><time>2026-04-12T08:16:42.998Z</time></trkpt><trkpt lat="45.95183074617898" lon="11.419763244301596"><ele>1249.0</ele><time>2026-04-12T08:16:43.998Z</time></trkpt><trkpt lat="45.9518502558215" lon="11.41992281058267"><ele>1257.5</ele><time>2026-04-12T08:16:44.998Z</time></trkpt><trkpt lat="45.95183691177182" lon="11.420103274868731"><ele>1266.0</ele><time>2026-04-12T08:16:45.998Z</time></trkpt><trkpt lat="45.95179083136877" lon="11.420287822528985"><ele>1256.25</ele><time>2026-04-12T08:16:46.998Z</time></trkpt><trkpt lat="45.9517005170988" lon="11.420451738994956"><ele>1246.5</ele><time>2026-04-12T08:16:48Z</time></trkpt><trkpt lat="45.95158840354384" lon="11.420585270422583"><ele>1236.75</ele><time>2026-04-12T08:16:49Z</time></trkpt><trkpt lat="45.951462687570086" lon="11.420715660258407"><ele>1227.0</ele><time>2026-04-12T08:16:50Z</time></trkpt><trkpt lat="45.95131319854069" lon="11.420778288831269"><ele>1227.0</ele><time>2026-04-12T08:16:51Z</time></trkpt><trkpt lat="45.951156468323006" lon="11.420767843792554"><ele>1227.0</ele><time>2026-04-12T08:16:52Z</time></trkpt><trkpt lat="45.95099809335638" lon="11.420769045147967"><ele>1227.0</ele><time>2026-04-12T08:16:53Z</time></trkpt><trkpt lat="45.95084464437255" lon="11.420754192230776"><ele>1224.0</ele><time>2026-04-12T08:16:54Z</time></trkpt><trkpt lat="45.95071556126534" lon="11.420758614717851"><ele>1221.0</ele><time>2026-04-12T08:16:55Z</time></trkpt><trkpt lat="45.9506087213903" lon="11.420750481936091"><ele>1218.0</ele><time>2026-04-12T08:16:56Z</time></trkpt><trkpt lat="45.950511950072126" lon="11.420766435654034"><ele>1215.0</ele><time>2026-04-12T08:16:57Z</time></trkpt><trkpt lat="45.95042608163424" lon="11.42082867995956"><ele>1212.0</ele><time>2026-04-12T08:16:58Z</time></trkpt><trkpt lat="45.950366928435116" lon="11.420927653635957"><ele>1212.0</ele><time>2026-04-12T08:16:59Z</time></trkpt><trkpt lat="45.95032977917444" lon="11.421070907083585"><ele>1212.0</ele><time>2026-04-12T08:17:00Z</time></trkpt><trkpt lat="45.9503371305179" lon="11.421223856142944"><ele>1212.0</ele><time>2026-04-12T08:17:01Z</time></trkpt><trkpt lat="45.95037020935114" lon="11.421362481323351"><ele>1212.0</ele><time>2026-04-12T08:17:02Z</time></trkpt><trkpt lat="45.95040881934287" lon="11.42153118870519"><ele>1212.0</ele><time>2026-04-12T08:17:03Z</time></trkpt><trkpt lat="45.95045137444713" lon="11.421712301408268"><ele>1214.0</ele><time>2026-04-12T08:17:04Z</time></trkpt><trkpt lat="45.95047213450358" lon="11.421887977940893"><ele>1216.0</ele><time>2026-04-12T08:17:05Z</time></trkpt><trkpt lat="45.95045482846438" lon="11.422095591520046"><ele>1218.0</ele><time>2026-04-12T08:17:06Z</time></trkpt><trkpt lat="45.9504148167173" lon="11.422333647426942"><ele>1220.0</ele><time>2026-04-12T08:17:07Z</time></trkpt><trkpt lat="45.95033597978167" lon="11.422555962879768"><ele>1221.0</ele><time>2026-04-12T08:17:08Z</time></trkpt><trkpt lat="45.9502646211114" lon="11.422751405440884"><ele>1222.0</ele><time>2026-04-12T08:17:09Z</time></trkpt><trkpt lat="45.95021738247217" lon="11.422948110903219"><ele>1223.0</ele><time>2026-04-12T08:17:10Z</time></trkpt><trkpt lat="45.950179119626334" lon="11.423133851011427"><ele>1224.0</ele><time>2026-04-12T08:17:11Z</time></trkpt><trkpt lat="45.950123736917604" lon="11.423302395406639"><ele>1224.4</ele><time>2026-04-12T08:17:12Z</time></trkpt><trkpt lat="45.95007816024263" lon="11.42344415043102"><ele>1224.8000000000002</ele><time>2026-04-12T08:17:13Z</time></trkpt><trkpt lat="45.95005507346131" lon="11.423588044443875"><ele>1225.1999999999998</ele><time>2026-04-12T08:17:14Z</time></trkpt><trkpt lat="45.95004469018471" lon="11.423728989365252"><ele>1225.6</ele><time>2026-04-12T08:17:15Z</time></trkpt><trkpt lat="45.95008413672629" lon="11.423905890837904"><ele>1226.0</ele><time>2026-04-12T08:17:16Z</time></trkpt><trkpt lat="45.950182217942476" lon="11.424046060543235"><ele>1222.25</ele><time>2026-04-12T08:17:17Z</time></trkpt><trkpt lat="45.95027277972694" lon="11.42414143042351"><ele>1218.5</ele><time>2026-04-12T08:17:18Z</time></trkpt><trkpt lat="45.95036517060973" lon="11.424241230682956"><ele>1214.75</ele><time>2026-04-12T08:17:19Z</time></trkpt><trkpt lat="45.950462269751306" lon="11.424372093447339"><ele>1211.0</ele><time>2026-04-12T08:17:20Z</time></trkpt><trkpt lat="45.9505219928229" lon="11.424542573188765"><ele>1207.0</ele><time>2026-04-12T08:17:21Z</time></trkpt><trkpt lat="45.950536689780364" lon="11.424750517535509"><ele>1203.0</ele><time>2026-04-12T08:17:22Z</time></trkpt><trkpt lat="45.950546337959366" lon="11.424994835077587"><ele>1199.0</ele><time>2026-04-12T08:17:23Z</time></trkpt><trkpt lat="45.9505636873514" lon="11.425254009608539"><ele>1199.6666666666667</ele><time>2026-04-12T08:17:23.999Z</time></trkpt><trkpt lat="45.95057113383959" lon="11.425515052465382"><ele>1200.3333333333333</ele><time>2026-04-12T08:17:24.999Z</time></trkpt><trkpt lat="45.950579855694066" lon="11.425784452979611"><ele>1201.0</ele><time>2026-04-12T08:17:25.999Z</time></trkpt><trkpt lat="45.95058882227476" lon="11.426052470697575"><ele>1201.0</ele><time>2026-04-12T08:17:26.999Z</time></trkpt><trkpt lat="45.95059619598717" lon="11.426294889036702"><ele>1201.0</ele><time>2026-04-12T08:17:27.999Z</time></trkpt><trkpt lat="45.95060304307095" lon="11.42652079109492"><ele>1201.0</ele><time>2026-04-12T08:17:28.999Z</time></trkpt><trkpt lat="45.95060863440436" lon="11.426729596507533"><ele>1203.0</ele><time>2026-04-12T08:17:29.999Z</time></trkpt><trkpt lat="45.950609725342254" lon="11.426923386014613"><ele>1205.0</ele><time>2026-04-12T08:17:30.999Z</time></trkpt><trkpt lat="45.950594952630794" lon="11.427100100993718"><ele>1207.0</ele><time>2026-04-12T08:17:31.999Z</time></trkpt><trkpt lat="45.950536254803396" lon="11.42726640431252"><ele>1209.0</ele><time>2026-04-12T08:17:32.999Z</time></trkpt><trkpt lat="45.95042998029357" lon="11.427423631759744"><ele>1211.3333333333333</ele><time>2026-04-12T08:17:33.999Z</time></trkpt><trkpt lat="45.95030056707361" lon="11.427596250637464"><ele>1213.6666666666665</ele><time>2026-04-12T08:17:34.999Z</time></trkpt><trkpt lat="45.95017495429736" lon="11.427774070988413"><ele>1216.0</ele><time>2026-04-12T08:17:35.999Z</time></trkpt><trkpt lat="45.95005891317209" lon="11.427943720136621"><ele>1211.75</ele><time>2026-04-12T08:17:36.999Z</time></trkpt><trkpt lat="45.94995030614159" lon="11.428096398875898"><ele>1207.5</ele><time>2026-04-12T08:17:37.999Z</time></trkpt><trkpt lat="45.94985340419785" lon="11.428249031211813"><ele>1203.25</ele><time>2026-04-12T08:17:38.999Z</time></trkpt><trkpt lat="45.949774376503115" lon="11.42840559010033"><ele>1199.0</ele><time>2026-04-12T08:17:39.999Z</time></trkpt><trkpt lat="45.94971669539956" lon="11.428589336311447"><ele>1199.6666666666667</ele><time>2026-04-12T08:17:40.999Z</time></trkpt><trkpt lat="45.94967043530273" lon="11.428809594505719"><ele>1200.3333333333333</ele><time>2026-04-12T08:17:41.999Z</time></trkpt><trkpt lat="45.949627191631315" lon="11.429048221646173"><ele>1201.0</ele><time>2026-04-12T08:17:42.999Z</time></trkpt><trkpt lat="45.94958357498168" lon="11.429289899527667"><ele>1201.0</ele><time>2026-04-12T08:17:43.999Z</time></trkpt><trkpt lat="45.94954169712347" lon="11.429518970864748"><ele>1201.0</ele><time>2026-04-12T08:17:44.999Z</time></trkpt><trkpt lat="45.94950193729125" lon="11.429731304364678"><ele>1201.0</ele><time>2026-04-12T08:17:45.999Z</time></trkpt><trkpt lat="45.949466121461704" lon="11.429928095872741"><ele>1199.25</ele><time>2026-04-12T08:17:46.999Z</time></trkpt><trkpt lat="45.9494336856626" lon="11.430117043741191"><ele>1197.5</ele><time>2026-04-12T08:17:47.999Z</time></trkpt><trkpt lat="45.94941217352986" lon="11.430295944053613"><ele>1195.75</ele><time>2026-04-12T08:17:48.999Z</time></trkpt><trkpt lat="45.94941586409085" lon="11.430476516273858"><ele>1194.0</ele><time>2026-04-12T08:17:49.999Z</time></trkpt><trkpt lat="45.94945130575124" lon="11.430661446880533"><ele>1194.0</ele><time>2026-04-12T08:17:50.999Z</time></trkpt><trkpt lat="45.94952092425998" lon="11.430833707136365"><ele>1194.0</ele><time>2026-04-12T08:17:51.999Z</time></trkpt><trkpt lat="45.94962401432915" lon="11.430971153066418"><ele>1194.0</ele><time>2026-04-12T08:17:52.999Z</time></trkpt><trkpt lat="45.94973838502904" lon="11.431079972245811"><ele>1194.0</ele><time>2026-04-12T08:17:53.999Z</time></trkpt><trkpt lat="45.94984214801116" lon="11.431173553382324"><ele>1194.0</ele><time>2026-04-12T08:17:54.999Z</time></trkpt><trkpt lat="45.94994204644455" lon="11.43125749620112"><ele>1194.0</ele><time>2026-04-12T08:17:55.999Z</time></trkpt><trkpt lat="45.95002628632614" lon="11.431365772157827"><ele>1194.0</ele><time>2026-04-12T08:17:56.999Z</time></trkpt><trkpt lat="45.950080249404145" lon="11.431525585899061"><ele>1194.0</ele><time>2026-04-12T08:17:57.999Z</time></trkpt><trkpt lat="45.95009714762138" lon="11.431694368250724"><ele>1192.75</ele><time>2026-04-12T08:17:58.999Z</time></trkpt><trkpt lat="45.9500729595593" lon="11.431872863488525"><ele>1191.5</ele><time>2026-04-12T08:17:59.999Z</time></trkpt><trkpt lat="45.9500365733573" lon="11.432055937238912"><ele>1190.25</ele><time>2026-04-12T08:18:00.999Z</time></trkpt><trkpt lat="45.94998057429481" lon="11.432242482404074"><ele>1189.0</ele><time>2026-04-12T08:18:01.999Z</time></trkpt><trkpt lat="45.94989360660908" lon="11.43241298776215"><ele>1187.0</ele><time>2026-04-12T08:18:02.999Z</time></trkpt><trkpt lat="45.949783410774124" lon="11.432561624074207"><ele>1185.0</ele><time>2026-04-12T08:18:03.999Z</time></trkpt><trkpt lat="45.949646320510546" lon="11.432704273590051"><ele>1183.0</ele><time>2026-04-12T08:18:04.999Z</time></trkpt><trkpt lat="45.94951085662944" lon="11.432857414767946"><ele>1182.3333333333333</ele><time>2026-04-12T08:18:05.999Z</time></trkpt><trkpt lat="45.94936993147362" lon="11.433008339391069"><ele>1181.6666666666667</ele><time>2026-04-12T08:18:06.999Z</time></trkpt><trkpt lat="45.94921052914315" lon="11.43313413379222"><ele>1181.0</ele><time>2026-04-12T08:18:07.999Z</time></trkpt><trkpt lat="45.94905268033018" lon="11.433220835707747"><ele>1181.0</ele><time>2026-04-12T08:18:08.999Z</time></trkpt><trkpt lat="45.948910986399206" lon="11.433307637838569"><ele>1181.0</ele><time>2026-04-12T08:18:09.999Z</time></trkpt><trkpt lat="45.94878522904814" lon="11.433409888132907"><ele>1181.0</ele><time>2026-04-12T08:18:10.999Z</time></trkpt><trkpt lat="45.94867461306438" lon="11.433526051268451"><ele>1181.0</ele><time>2026-04-12T08:18:11.999Z</time></trkpt><trkpt lat="45.94858519523755" lon="11.43366929774329"><ele>1187.25</ele><time>2026-04-12T08:18:12.999Z</time></trkpt><trkpt lat="45.94852222998655" lon="11.4338417810974"><ele>1193.5</ele><time>2026-04-12T08:18:13.999Z</time></trkpt><trkpt lat="45.94848216166221" lon="11.434031200778238"><ele>1199.75</ele><time>2026-04-12T08:18:14.999Z</time></trkpt><trkpt lat="45.94845790794147" lon="11.43423007339147"><ele>1206.0</ele><time>2026-04-12T08:18:15.999Z</time></trkpt><trkpt lat="45.94842198837324" lon="11.434411445108696"><ele>1203.0</ele><time>2026-04-12T08:18:16.999Z</time></trkpt><trkpt lat="45.94837489983265" lon="11.434584441658414"><ele>1200.0</ele><time>2026-04-12T08:18:17.999Z</time></trkpt><trkpt lat="45.94829340845298" lon="11.434740381642088"><ele>1197.0</ele><time>2026-04-12T08:18:18.999Z</time></trkpt><trkpt lat="45.94819232290414" lon="11.434863926902896"><ele>1194.0</ele><time>2026-04-12T08:18:19.999Z</time></trkpt><trkpt lat="45.94807329181801" lon="11.43494755776623"><ele>1194.0</ele><time>2026-04-12T08:18:20.998Z</time></trkpt><trkpt lat="45.94793598814213" lon="11.434987440212172"><ele>1194.0</ele><time>2026-04-12T08:18:21.998Z</time></trkpt><trkpt lat="45.94779580116352" lon="11.434979591046677"><ele>1194.0</ele><time>2026-04-12T08:18:22.998Z</time></trkpt><trkpt lat="45.94768190708123" lon="11.434930202095055"><ele>1194.0</ele><time>2026-04-12T08:18:23.998Z</time></trkpt><trkpt lat="45.94756480298689" lon="11.434823046556481"><ele>1190.75</ele><time>2026-04-12T08:18:24.998Z</time></trkpt><trkpt lat="45.94745046584486" lon="11.43472460688017"><ele>1187.5</ele><time>2026-04-12T08:18:25.998Z</time></trkpt><trkpt lat="45.94734005198617" lon="11.434658887630585"><ele>1184.25</ele><time>2026-04-12T08:18:26.998Z</time></trkpt><trkpt lat="45.947223826007686" lon="11.43464027656557"><ele>1181.0</ele><time>2026-04-12T08:18:27.998Z</time></trkpt><trkpt lat="45.947101723552656" lon="11.434676871639132"><ele>1181.0</ele><time>2026-04-12T08:18:28.998Z</time></trkpt><trkpt lat="45.946988785184146" lon="11.434767202581119"><ele>1181.0</ele><time>2026-04-12T08:18:29.998Z</time></trkpt><trkpt lat="45.946881422238" lon="11.434901121287586"><ele>1181.0</ele><time>2026-04-12T08:18:30.998Z</time></trkpt><trkpt lat="45.94677604028665" lon="11.435065094401914"><ele>1181.0</ele><time>2026-04-12T08:18:31.998Z</time></trkpt><trkpt lat="45.94664940104113" lon="11.43524555152108"><ele>1178.6666666666667</ele><time>2026-04-12T08:18:32.998Z</time></trkpt><trkpt lat="45.946494772461854" lon="11.435397409467704"><ele>1176.3333333333333</ele><time>2026-04-12T08:18:33.998Z</time></trkpt><trkpt lat="45.946311419486484" lon="11.435512981667094"><ele>1174.0</ele><time>2026-04-12T08:18:34.998Z</time></trkpt><trkpt lat="45.946119645208974" lon="11.435620528414894"><ele>1172.3333333333333</ele><time>2026-04-12T08:18:35.998Z</time></trkpt><trkpt lat="45.94594970746892" lon="11.43574400913969"><ele>1170.6666666666667</ele><time>2026-04-12T08:18:36.998Z</time></trkpt><trkpt lat="45.94579750799118" lon="11.435868593578757"><ele>1169.0</ele><time>2026-04-12T08:18:37.998Z</time></trkpt><trkpt lat="45.94565247049699" lon="11.43600006284854"><ele>1169.0</ele><time>2026-04-12T08:18:38.998Z</time></trkpt><trkpt lat="45.94551567768425" lon="11.43613494092062"><ele>1169.0</ele><time>2026-04-12T08:18:39.998Z</time></trkpt><trkpt lat="45.945379607660314" lon="11.436265119477506"><ele>1169.0</ele><time>2026-04-12T08:18:40.998Z</time></trkpt><trkpt lat="45.94523900567378" lon="11.43638377368045"><ele>1175.0</ele><time>2026-04-12T08:18:41.998Z</time></trkpt><trkpt lat="45.944946782477594" lon="11.436371119412055"><ele>1181.0</ele><time>2026-04-12T08:18:42.998Z</time></trkpt><trkpt lat="45.94475191532801" lon="11.43638776025369"><ele>1181.0</ele><time>2026-04-12T08:18:43.998Z</time></trkpt><trkpt lat="45.944551680497334" lon="11.436369563339786"><ele>1181.0</ele><time>2026-04-12T08:18:44.998Z</time></trkpt><trkpt lat="45.94434934193727" lon="11.436342772443366"><ele>1181.0</ele><time>2026-04-12T08:18:45.998Z</time></trkpt><trkpt lat="45.94414510531012" lon="11.436330481162713"><ele>1178.3333333333335</ele><time>2026-04-12T08:18:46.998Z</time></trkpt><trkpt lat="45.94393545720992" lon="11.43632493226523"><ele>1175.6666666666667</ele><time>2026-04-12T08:18:47.998Z</time></trkpt><trkpt lat="45.943731976119444" lon="11.436323911676928"><ele>1173.0</ele><time>2026-04-12T08:18:48.998Z</time></trkpt><trkpt lat="45.94354314330035" lon="11.436323832145147"><ele>1173.0</ele><time>2026-04-12T08:18:49.998Z</time></trkpt><trkpt lat="45.943365939712805" lon="11.436317698150416"><ele>1173.0</ele><time>2026-04-12T08:18:50.998Z</time></trkpt><trkpt lat="45.9432024897627" lon="11.436309418899958"><ele>1173.0</ele><time>2026-04-12T08:18:51.998Z</time></trkpt><trkpt lat="45.94305189655087" lon="11.436275722178951"><ele>1169.0</ele><time>2026-04-12T08:18:52.998Z</time></trkpt><trkpt lat="45.94291442186361" lon="11.436198664655741"><ele>1165.0</ele><time>2026-04-12T08:18:54Z</time></trkpt><trkpt lat="45.942802294376506" lon="11.436082847308885"><ele>1161.0</ele><time>2026-04-12T08:18:55Z</time></trkpt><trkpt lat="45.94269328534443" lon="11.435961390140996"><ele>1157.0</ele><time>2026-04-12T08:18:56Z</time></trkpt><trkpt lat="45.942578174576596" lon="11.435874787612782"><ele>1154.75</ele><time>2026-04-12T08:18:57Z</time></trkpt><trkpt lat="45.94246023552059" lon="11.435837750958513"><ele>1152.5</ele><time>2026-04-12T08:18:58Z</time></trkpt><trkpt lat="45.94233491996444" lon="11.43584434836091"><ele>1150.25</ele><time>2026-04-12T08:18:59Z</time></trkpt><trkpt lat="45.942190552206114" lon="11.4358872087209"><ele>1148.0</ele><time>2026-04-12T08:19:00Z</time></trkpt><trkpt lat="45.94203173045011" lon="11.435965007278106"><ele>1148.0</ele><time>2026-04-12T08:19:01Z</time></trkpt><trkpt lat="45.94186271363918" lon="11.436050228958859"><ele>1148.0</ele><time>2026-04-12T08:19:02Z</time></trkpt><trkpt lat="45.941687147015294" lon="11.436125803555846"><ele>1148.0</ele><time>2026-04-12T08:19:03Z</time></trkpt><trkpt lat="45.94150716599528" lon="11.436210683766417"><ele>1150.3333333333335</ele><time>2026-04-12T08:19:04Z</time></trkpt><trkpt lat="45.941323822070366" lon="11.436341652415976"><ele>1152.6666666666667</ele><time>2026-04-12T08:19:05Z</time></trkpt><trkpt lat="45.94114817374183" lon="11.43646670744973"><ele>1155.0</ele><time>2026-04-12T08:19:06Z</time></trkpt><trkpt lat="45.94099021235775" lon="11.436620284857261"><ele>1152.0</ele><time>2026-04-12T08:19:07Z</time></trkpt><trkpt lat="45.940837154050115" lon="11.436791508864761"><ele>1149.0</ele><time>2026-04-12T08:19:08Z</time></trkpt><trkpt lat="45.94068320583441" lon="11.436973011955795"><ele>1146.0</ele><time>2026-04-12T08:19:09Z</time></trkpt><trkpt lat="45.94052667302805" lon="11.437147291431302"><ele>1146.0</ele><time>2026-04-12T08:19:10Z</time></trkpt><trkpt lat="45.94036896916018" lon="11.437312448179103"><ele>1146.0</ele><time>2026-04-12T08:19:11Z</time></trkpt><trkpt lat="45.94021341070455" lon="11.43748352168777"><ele>1146.0</ele><time>2026-04-12T08:19:12Z</time></trkpt><trkpt lat="45.94005573693443" lon="11.437640339741383"><ele>1143.3333333333333</ele><time>2026-04-12T08:19:13Z</time></trkpt><trkpt lat="45.93989961063219" lon="11.43780071148407"><ele>1140.6666666666665</ele><time>2026-04-12T08:19:14Z</time></trkpt><trkpt lat="45.93973324664828" lon="11.437945175815054"><ele>1138.0</ele><time>2026-04-12T08:19:15Z</time></trkpt><trkpt lat="45.939557107974586" lon="11.438085696298185"><ele>1138.3333333333333</ele><time>2026-04-12T08:19:16Z</time></trkpt><trkpt lat="45.939378934809675" lon="11.438218797663884"><ele>1138.6666666666667</ele><time>2026-04-12T08:19:17Z</time></trkpt><trkpt lat="45.93921304297851" lon="11.43836055989712"><ele>1139.0</ele><time>2026-04-12T08:19:18Z</time></trkpt><trkpt lat="45.93905232639436" lon="11.438523351647847"><ele>1139.0</ele><time>2026-04-12T08:19:19Z</time></trkpt><trkpt lat="45.93890469416747" lon="11.438715303219572"><ele>1139.0</ele><time>2026-04-12T08:19:20Z</time></trkpt><trkpt lat="45.938762129020766" lon="11.438921200281062"><ele>1139.0</ele><time>2026-04-12T08:19:21Z</time></trkpt><trkpt lat="45.93862680441792" lon="11.439116022481087"><ele>1138.6666666666667</ele><time>2026-04-12T08:19:22Z</time></trkpt><trkpt lat="45.93849434526567" lon="11.439305464050289"><ele>1138.3333333333333</ele><time>2026-04-12T08:19:23Z</time></trkpt><trkpt lat="45.93836954290893" lon="11.439486308382097"><ele>1138.0</ele><time>2026-04-12T08:19:24Z</time></trkpt><trkpt lat="45.93822758935562" lon="11.439666258392633"><ele>1138.0</ele><time>2026-04-12T08:19:25Z</time></trkpt><trkpt lat="45.93807480743379" lon="11.439833588297654"><ele>1138.0</ele><time>2026-04-12T08:19:26Z</time></trkpt><trkpt lat="45.93791403803894" lon="11.439994202769414"><ele>1138.0</ele><time>2026-04-12T08:19:27Z</time></trkpt><trkpt lat="45.937751244111396" lon="11.440144229077385"><ele>1138.0</ele><time>2026-04-12T08:19:28Z</time></trkpt><trkpt lat="45.937586995225615" lon="11.44029930796307"><ele>1138.0</ele><time>2026-04-12T08:19:29Z</time></trkpt><trkpt lat="45.93742421622359" lon="11.440463476324682"><ele>1138.0</ele><time>2026-04-12T08:19:29.999Z</time></trkpt><trkpt lat="45.93725898923433" lon="11.44062847209249"><ele>1141.0</ele><time>2026-04-12T08:19:30.999Z</time></trkpt><trkpt lat="45.93709672549384" lon="11.440794219576674"><ele>1144.0</ele><time>2026-04-12T08:19:31.999Z</time></trkpt><trkpt lat="45.936944577934334" lon="11.440943745325821"><ele>1147.0</ele><time>2026-04-12T08:19:32.999Z</time></trkpt><trkpt lat="45.936778729307775" lon="11.441069252298886"><ele>1143.6666666666665</ele><time>2026-04-12T08:19:33.999Z</time></trkpt><trkpt lat="45.936617222050195" lon="11.441156557870043"><ele>1140.3333333333333</ele><time>2026-04-12T08:19:34.999Z</time></trkpt><trkpt lat="45.93645117506461" lon="11.44121976803826"><ele>1137.0</ele><time>2026-04-12T08:19:35.999Z</time></trkpt><trkpt lat="45.93628603081171" lon="11.441278730520274"><ele>1139.3333333333333</ele><time>2026-04-12T08:19:36.999Z</time></trkpt><trkpt lat="45.936122534612416" lon="11.441344805913191"><ele>1141.6666666666665</ele><time>2026-04-12T08:19:37.999Z</time></trkpt><trkpt lat="45.93596073654033" lon="11.441420230824097"><ele>1144.0</ele><time>2026-04-12T08:19:38.999Z</time></trkpt><trkpt lat="45.9358112110491" lon="11.441507073780459"><ele>1139.75</ele><time>2026-04-12T08:19:39.999Z</time></trkpt><trkpt lat="45.93567693963907" lon="11.441604631130119"><ele>1135.5</ele><time>2026-04-12T08:19:40.999Z</time></trkpt><trkpt lat="45.93556101538623" lon="11.441733651990633"><ele>1131.25</ele><time>2026-04-12T08:19:41.999Z</time></trkpt><trkpt lat="45.93545962839067" lon="11.441890569736332"><ele>1127.0</ele><time>2026-04-12T08:19:42.999Z</time></trkpt><trkpt lat="45.935371351691835" lon="11.442046238117666"><ele>1127.75</ele><time>2026-04-12T08:19:43.999Z</time></trkpt><trkpt lat="45.93527685282573" lon="11.442201310828937"><ele>1128.5</ele><time>2026-04-12T08:19:44.999Z</time></trkpt><trkpt lat="45.93517313123206" lon="11.442356725829123"><ele>1129.25</ele><time>2026-04-12T08:19:45.999Z</time></trkpt><trkpt lat="45.935054921190044" lon="11.442496667248959"><ele>1130.0</ele><time>2026-04-12T08:19:46.999Z</time></trkpt><trkpt lat="45.934925207592975" lon="11.442619757004397"><ele>1130.0</ele><time>2026-04-12T08:19:47.999Z</time></trkpt><trkpt lat="45.93478421482278" lon="11.442719823908766"><ele>1130.0</ele><time>2026-04-12T08:19:48.999Z</time></trkpt><trkpt lat="45.93463372564277" lon="11.442822483391433"><ele>1130.0</ele><time>2026-04-12T08:19:49.999Z</time></trkpt><trkpt lat="45.934477569009395" lon="11.442939907926363"><ele>1131.6666666666667</ele><time>2026-04-12T08:19:50.999Z</time></trkpt><trkpt lat="45.934316408021836" lon="11.443057939960926"><ele>1133.3333333333333</ele><time>2026-04-12T08:19:51.999Z</time></trkpt><trkpt lat="45.934168083363545" lon="11.443160851670951"><ele>1135.0</ele><time>2026-04-12T08:19:52.999Z</time></trkpt><trkpt lat="45.93402633207183" lon="11.443257469130517"><ele>1135.0</ele><time>2026-04-12T08:19:53.999Z</time></trkpt><trkpt lat="45.93389351121601" lon="11.44335044898625"><ele>1135.0</ele><time>2026-04-12T08:19:54.999Z</time></trkpt><trkpt lat="45.933752565475515" lon="11.443405237359023"><ele>1135.0</ele><time>2026-04-12T08:19:55.999Z</time></trkpt><trkpt lat="45.933597756247316" lon="11.44340245789076"><ele>1135.0</ele><time>2026-04-12T08:19:56.999Z</time></trkpt><trkpt lat="45.933438768005686" lon="11.443359183476387"><ele>1132.0</ele><time>2026-04-12T08:19:57.999Z</time></trkpt><trkpt lat="45.93328812709993" lon="11.44331474242508"><ele>1129.0</ele><time>2026-04-12T08:19:58.999Z</time></trkpt><trkpt lat="45.93313966318194" lon="11.443306955323186"><ele>1126.0</ele><time>2026-04-12T08:19:59.999Z</time></trkpt><trkpt lat="45.93298354783952" lon="11.443336349926957"><ele>1126.0</ele><time>2026-04-12T08:20:00.999Z</time></trkpt><trkpt lat="45.93283264346502" lon="11.443410167348967"><ele>1126.0</ele><time>2026-04-12T08:20:01.999Z</time></trkpt><trkpt lat="45.932688415501396" lon="11.443532559307796"><ele>1126.0</ele><time>2026-04-12T08:20:02.999Z</time></trkpt><trkpt lat="45.93254103896836" lon="11.4436661738336"><ele>1125.3333333333333</ele><time>2026-04-12T08:20:03.999Z</time></trkpt><trkpt lat="45.932382577226655" lon="11.443800649469281"><ele>1124.6666666666667</ele><time>2026-04-12T08:20:04.999Z</time></trkpt><trkpt lat="45.93221352491345" lon="11.443928543387536"><ele>1124.0</ele><time>2026-04-12T08:20:05.999Z</time></trkpt><trkpt lat="45.93203843384533" lon="11.444064783094857"><ele>1124.0</ele><time>2026-04-12T08:20:06.999Z</time></trkpt><trkpt lat="45.93186453274406" lon="11.444199958737217"><ele>1124.0</ele><time>2026-04-12T08:20:07.999Z</time></trkpt><trkpt lat="45.9316971303688" lon="11.444334811534231"><ele>1124.0</ele><time>2026-04-12T08:20:08.999Z</time></trkpt><trkpt lat="45.931546875409325" lon="11.444463109552265"><ele>1124.3333333333335</ele><time>2026-04-12T08:20:09.999Z</time></trkpt><trkpt lat="45.93140013383435" lon="11.444579644800598"><ele>1124.6666666666667</ele><time>2026-04-12T08:20:10.999Z</time></trkpt><trkpt lat="45.9312569585933" lon="11.44468960760568"><ele>1125.0</ele><time>2026-04-12T08:20:11.999Z</time></trkpt><trkpt lat="45.931115554693804" lon="11.444801381347101"><ele>1125.0</ele><time>2026-04-12T08:20:12.999Z</time></trkpt><trkpt lat="45.930979646110224" lon="11.444913492017257"><ele>1125.0</ele><time>2026-04-12T08:20:13.999Z</time></trkpt><trkpt lat="45.93084291328802" lon="11.445020136119085"><ele>1125.0</ele><time>2026-04-12T08:20:14.999Z</time></trkpt><trkpt lat="45.93070550076272" lon="11.445125059185653"><ele>1126.25</ele><time>2026-04-12T08:20:15.999Z</time></trkpt><trkpt lat="45.930574962564954" lon="11.445225956079788"><ele>1127.5</ele><time>2026-04-12T08:20:16.999Z</time></trkpt><trkpt lat="45.930449842271976" lon="11.445322185882704"><ele>1128.75</ele><time>2026-04-12T08:20:17.999Z</time></trkpt><trkpt lat="45.9303319502616" lon="11.445412041350568"><ele>1130.0</ele><time>2026-04-12T08:20:18.999Z</time></trkpt><trkpt lat="45.93020904946769" lon="11.445499416354979"><ele>1130.0</ele><time>2026-04-12T08:20:19.999Z</time></trkpt><trkpt lat="45.93009584319535" lon="11.445612531703246"><ele>1130.0</ele><time>2026-04-12T08:20:20.999Z</time></trkpt><trkpt lat="45.92998517848048" lon="11.445754394601533"><ele>1130.0</ele><time>2026-04-12T08:20:21.999Z</time></trkpt><trkpt lat="45.929895594467055" lon="11.445922171684794"><ele>1130.0</ele><time>2026-04-12T08:20:22.999Z</time></trkpt><trkpt lat="45.92981553926498" lon="11.44610113942583"><ele>1126.75</ele><time>2026-04-12T08:20:23.999Z</time></trkpt><trkpt lat="45.929741944690214" lon="11.446271747648582"><ele>1123.5</ele><time>2026-04-12T08:20:24.999Z</time></trkpt><trkpt lat="45.92967673424834" lon="11.446439570672513"><ele>1120.25</ele><time>2026-04-12T08:20:25.999Z</time></trkpt><trkpt lat="45.929630903845045" lon="11.44661907578521"><ele>1117.0</ele><time>2026-04-12T08:20:26.999Z</time></trkpt><trkpt lat="45.92960345936684" lon="11.446821862140837"><ele>1116.3333333333333</ele><time>2026-04-12T08:20:27.998Z</time></trkpt><trkpt lat="45.92959009438875" lon="11.447042151772227"><ele>1115.6666666666667</ele><time>2026-04-12T08:20:28.998Z</time></trkpt><trkpt lat="45.92957398371319" lon="11.44726468900186"><ele>1115.0</ele><time>2026-04-12T08:20:29.998Z</time></trkpt><trkpt lat="45.92954979215796" lon="11.447490662922508"><ele>1117.3333333333335</ele><time>2026-04-12T08:20:30.998Z</time></trkpt><trkpt lat="45.929510931616846" lon="11.447725783322012"><ele>1119.6666666666667</ele><time>2026-04-12T08:20:31.998Z</time></trkpt><trkpt lat="45.929455434312096" lon="11.447953886844882"><ele>1122.0</ele><time>2026-04-12T08:20:32.998Z</time></trkpt><trkpt lat="45.929372475193624" lon="11.448177416029912"><ele>1127.6666666666667</ele><time>2026-04-12T08:20:33.998Z</time></trkpt><trkpt lat="45.92927956068561" lon="11.44838276853377"><ele>1133.3333333333335</ele><time>2026-04-12T08:20:34.998Z</time></trkpt><trkpt lat="45.92916367683461" lon="11.448566659943102"><ele>1139.0</ele><time>2026-04-12T08:20:35.998Z</time></trkpt><trkpt lat="45.92902302103383" lon="11.448725627924697"><ele>1131.0</ele><time>2026-04-12T08:20:36.998Z</time></trkpt><trkpt lat="45.92886350603756" lon="11.448854714433462"><ele>1123.0</ele><time>2026-04-12T08:20:37.998Z</time></trkpt><trkpt lat="45.92869595513005" lon="11.448975369894612"><ele>1115.0</ele><time>2026-04-12T08:20:38.998Z</time></trkpt><trkpt lat="45.928544552454895" lon="11.449109594754992"><ele>1115.0</ele><time>2026-04-12T08:20:39.998Z</time></trkpt><trkpt lat="45.928418736426714" lon="11.44926385571936"><ele>1115.0</ele><time>2026-04-12T08:20:40.998Z</time></trkpt><trkpt lat="45.92831321191449" lon="11.449432356596851"><ele>1115.0</ele><time>2026-04-12T08:20:41.998Z</time></trkpt><trkpt lat="45.928218013963125" lon="11.449632859025115"><ele>1111.6666666666667</ele><time>2026-04-12T08:20:42.998Z</time></trkpt><trkpt lat="45.92811264685289" lon="11.449833463581085"><ele>1108.3333333333333</ele><time>2026-04-12T08:20:43.998Z</time></trkpt><trkpt lat="45.92799425447886" lon="11.449997758306457"><ele>1105.0</ele><time>2026-04-12T08:20:44.998Z</time></trkpt><trkpt lat="45.92785696831801" lon="11.450124045743284"><ele>1105.0</ele><time>2026-04-12T08:20:45.998Z</time></trkpt><trkpt lat="45.92770018957445" lon="11.450224774011568"><ele>1105.0</ele><time>2026-04-12T08:20:46.998Z</time></trkpt><trkpt lat="45.927528492903676" lon="11.450288961040824"><ele>1105.0</ele><time>2026-04-12T08:20:47.998Z</time></trkpt><trkpt lat="45.92734014330835" lon="11.450321422775197"><ele>1100.3333333333333</ele><time>2026-04-12T08:20:48.998Z</time></trkpt><trkpt lat="45.92714631995272" lon="11.450320904609253"><ele>1095.6666666666667</ele><time>2026-04-12T08:20:49.998Z</time></trkpt><trkpt lat="45.92694533293517" lon="11.450306363225568"><ele>1091.0</ele><time>2026-04-12T08:20:50.998Z</time></trkpt><trkpt lat="45.926739341321365" lon="11.45031792035768"><ele>1092.0</ele><time>2026-04-12T08:20:51.998Z</time></trkpt><trkpt lat="45.92653793814576" lon="11.450350932819598"><ele>1093.0</ele><time>2026-04-12T08:20:52.998Z</time></trkpt><trkpt lat="45.92634564270646" lon="11.450417295570714"><ele>1094.0</ele><time>2026-04-12T08:20:53.998Z</time></trkpt><trkpt lat="45.92615464198979" lon="11.450511158046616"><ele>1094.0</ele><time>2026-04-12T08:20:54.998Z</time></trkpt><trkpt lat="45.92597197795276" lon="11.450625307812984"><ele>1094.0</ele><time>2026-04-12T08:20:55.998Z</time></trkpt><trkpt lat="45.92579672397044" lon="11.450753996569635"><ele>1094.0</ele><time>2026-04-12T08:20:56.998Z</time></trkpt><trkpt lat="45.92563131049572" lon="11.450899344684482"><ele>1091.3333333333335</ele><time>2026-04-12T08:20:57.998Z</time></trkpt><trkpt lat="45.92547281123217" lon="11.451055388742173"><ele>1088.6666666666667</ele><time>2026-04-12T08:20:58.998Z</time></trkpt><trkpt lat="45.92531104334054" lon="11.451209993415379"><ele>1086.0</ele><time>2026-04-12T08:21:00Z</time></trkpt><trkpt lat="45.92514740820655" lon="11.451368402046988"><ele>1085.0</ele><time>2026-04-12T08:21:01Z</time></trkpt><trkpt lat="45.924972747365665" lon="11.451519083379928"><ele>1084.0</ele><time>2026-04-12T08:21:02Z</time></trkpt><trkpt lat="45.92478955548763" lon="11.451652050544418"><ele>1083.0</ele><time>2026-04-12T08:21:03Z</time></trkpt><trkpt lat="45.92460741023403" lon="11.451752460701764"><ele>1083.0</ele><time>2026-04-12T08:21:04Z</time></trkpt><trkpt lat="45.92440611390554" lon="11.451821965846959"><ele>1083.0</ele><time>2026-04-12T08:21:05Z</time></trkpt><trkpt lat="45.92419807391202" lon="11.451875836548444"><ele>1083.0</ele><time>2026-04-12T08:21:06Z</time></trkpt><trkpt lat="45.924000204312144" lon="11.45193614021826"><ele>1081.6666666666667</ele><time>2026-04-12T08:21:07Z</time></trkpt><trkpt lat="45.923811180662646" lon="11.45201823937663"><ele>1080.3333333333335</ele><time>2026-04-12T08:21:08Z</time></trkpt><trkpt lat="45.923630179848416" lon="11.452123929862042"><ele>1079.0</ele><time>2026-04-12T08:21:09Z</time></trkpt><trkpt lat="45.92345523610634" lon="11.452243043647714"><ele>1078.0</ele><time>2026-04-12T08:21:10Z</time></trkpt><trkpt lat="45.92328895235399" lon="11.452376601067327"><ele>1077.0</ele><time>2026-04-12T08:21:11Z</time></trkpt><trkpt lat="45.92312875193231" lon="11.452519040195332"><ele>1076.0</ele><time>2026-04-12T08:21:12Z</time></trkpt><trkpt lat="45.92297670390369" lon="11.452664836937199"><ele>1076.0</ele><time>2026-04-12T08:21:13Z</time></trkpt><trkpt lat="45.92283279263337" lon="11.452790815110658"><ele>1076.0</ele><time>2026-04-12T08:21:14Z</time></trkpt><trkpt lat="45.92268484284345" lon="11.452870730896795"><ele>1076.0</ele><time>2026-04-12T08:21:15Z</time></trkpt><trkpt lat="45.92252549242124" lon="11.452911914157495"><ele>1077.3333333333335</ele><time>2026-04-12T08:21:16Z</time></trkpt><trkpt lat="45.92235314287365" lon="11.452902773454502"><ele>1078.6666666666667</ele><time>2026-04-12T08:21:17Z</time></trkpt><trkpt lat="45.922182451971864" lon="11.452919365234681"><ele>1080.0</ele><time>2026-04-12T08:21:18Z</time></trkpt><trkpt lat="45.922008314898555" lon="11.452984414985439"><ele>1080.0</ele><time>2026-04-12T08:21:19Z</time></trkpt><trkpt lat="45.92184141169958" lon="11.453084066411677"><ele>1080.0</ele><time>2026-04-12T08:21:20Z</time></trkpt><trkpt lat="45.92168434461598" lon="11.45318108199556"><ele>1080.0</ele><time>2026-04-12T08:21:21Z</time></trkpt><trkpt lat="45.92152812880757" lon="11.453255982968185"><ele>1075.6666666666667</ele><time>2026-04-12T08:21:22Z</time></trkpt><trkpt lat="45.92136684628209" lon="11.453295607665746"><ele>1071.3333333333335</ele><time>2026-04-12T08:21:23Z</time></trkpt><trkpt lat="45.92119796613513" lon="11.453279933991633"><ele>1067.0</ele><time>2026-04-12T08:21:24Z</time></trkpt><trkpt lat="45.92101952167613" lon="11.453231016766939"><ele>1064.6666666666667</ele><time>2026-04-12T08:21:25Z</time></trkpt><trkpt lat="45.920831319678854" lon="11.45320170815764"><ele>1062.3333333333333</ele><time>2026-04-12T08:21:26Z</time></trkpt><trkpt lat="45.92064063717889" lon="11.45319534243275"><ele>1060.0</ele><time>2026-04-12T08:21:27Z</time></trkpt><trkpt lat="45.920440105881056" lon="11.45321058845522"><ele>1060.0</ele><time>2026-04-12T08:21:28Z</time></trkpt><trkpt lat="45.92023382050256" lon="11.453235878986394"><ele>1060.0</ele><time>2026-04-12T08:21:29Z</time></trkpt><trkpt lat="45.9200276292928" lon="11.453256023952243"><ele>1060.0</ele><time>2026-04-12T08:21:30Z</time></trkpt><trkpt lat="45.91981741762135" lon="11.453272474866042"><ele>1057.0</ele><time>2026-04-12T08:21:31Z</time></trkpt><trkpt lat="45.91961052520235" lon="11.453284667879302"><ele>1054.0</ele><time>2026-04-12T08:21:32Z</time></trkpt><trkpt lat="45.919415640331216" lon="11.453297560622309"><ele>1051.0</ele><time>2026-04-12T08:21:33Z</time></trkpt><trkpt lat="45.91923285789297" lon="11.453311478383993"><ele>1049.6666666666665</ele><time>2026-04-12T08:21:34Z</time></trkpt><trkpt lat="45.91905464501526" lon="11.453332496433811"><ele>1048.3333333333333</ele><time>2026-04-12T08:21:35Z</time></trkpt><trkpt lat="45.91887974556684" lon="11.453381707680652"><ele>1047.0</ele><time>2026-04-12T08:21:35.999Z</time></trkpt><trkpt lat="45.918709740485724" lon="11.453475212826715"><ele>1047.0</ele><time>2026-04-12T08:21:36.999Z</time></trkpt><trkpt lat="45.918542923259" lon="11.45358263047947"><ele>1047.0</ele><time>2026-04-12T08:21:37.999Z</time></trkpt><trkpt lat="45.91837359093418" lon="11.453687038775636"><ele>1047.0</ele><time>2026-04-12T08:21:38.999Z</time></trkpt><trkpt lat="45.91820538677957" lon="11.453792868747751"><ele>1047.6666666666667</ele><time>2026-04-12T08:21:39.999Z</time></trkpt><trkpt lat="45.91804753481825" lon="11.453891984523333"><ele>1048.3333333333335</ele><time>2026-04-12T08:21:40.999Z</time></trkpt><trkpt lat="45.917898553908195" lon="11.453983038002132"><ele>1049.0</ele><time>2026-04-12T08:21:41.999Z</time></trkpt><trkpt lat="45.91775091120247" lon="11.45406641047328"><ele>1049.0</ele><time>2026-04-12T08:21:42.999Z</time></trkpt><trkpt lat="45.91760851957695" lon="11.454147534470073"><ele>1049.0</ele><time>2026-04-12T08:21:43.999Z</time></trkpt><trkpt lat="45.9174750193695" lon="11.454234311384162"><ele>1049.0</ele><time>2026-04-12T08:21:44.999Z</time></trkpt><trkpt lat="45.917346213812515" lon="11.454336640828018"><ele>1049.0</ele><time>2026-04-12T08:21:45.999Z</time></trkpt><trkpt lat="45.91722010910886" lon="11.454477451220631"><ele>1049.6666666666667</ele><time>2026-04-12T08:21:46.999Z</time></trkpt><trkpt lat="45.917105429746904" lon="11.454657024198488"><ele>1050.3333333333333</ele><time>2026-04-12T08:21:47.999Z</time></trkpt><trkpt lat="45.916997246328734" lon="11.454847502569054"><ele>1051.0</ele><time>2026-04-12T08:21:48.999Z</time></trkpt><trkpt lat="45.916889329977145" lon="11.455025200074662"><ele>1051.0</ele><time>2026-04-12T08:21:49.999Z</time></trkpt><trkpt lat="45.91678345431927" lon="11.45518063743804"><ele>1051.0</ele><time>2026-04-12T08:21:50.999Z</time></trkpt><trkpt lat="45.91666106407548" lon="11.455305153623792"><ele>1051.0</ele><time>2026-04-12T08:21:51.999Z</time></trkpt><trkpt lat="45.916527474294796" lon="11.455392198942876"><ele>1051.0</ele><time>2026-04-12T08:21:52.999Z</time></trkpt><trkpt lat="45.916385355619724" lon="11.455413787584568"><ele>1043.3333333333333</ele><time>2026-04-12T08:21:53.999Z</time></trkpt><trkpt lat="45.91624956967811" lon="11.455376853166005"><ele>1035.6666666666667</ele><time>2026-04-12T08:21:54.999Z</time></trkpt><trkpt lat="45.91610335258992" lon="11.45533426243173"><ele>1028.0</ele><time>2026-04-12T08:21:55.999Z</time></trkpt><trkpt lat="45.915936129086845" lon="11.45532532669052"><ele>1027.6666666666667</ele><time>2026-04-12T08:21:56.999Z</time></trkpt><trkpt lat="45.91575193548532" lon="11.455377827129235"><ele>1027.3333333333333</ele><time>2026-04-12T08:21:57.999Z</time></trkpt><trkpt lat="45.9155588877684" lon="11.45544301013685"><ele>1027.0</ele><time>2026-04-12T08:21:58.999Z</time></trkpt><trkpt lat="45.915372560779865" lon="11.455508241076553"><ele>1027.0</ele><time>2026-04-12T08:21:59.999Z</time></trkpt><trkpt lat="45.91519611307459" lon="11.455570894898553"><ele>1027.0</ele><time>2026-04-12T08:22:00.999Z</time></trkpt><trkpt lat="45.91502554604457" lon="11.455631755424164"><ele>1027.0</ele><time>2026-04-12T08:22:01.999Z</time></trkpt><trkpt lat="45.91487080000678" lon="11.455714723950441"><ele>1027.0</ele><time>2026-04-12T08:22:02.999Z</time></trkpt><trkpt lat="45.91473119581875" lon="11.455824865198437"><ele>1027.0</ele><time>2026-04-12T08:22:03.999Z</time></trkpt><trkpt lat="45.914592543450475" lon="11.455959263066836"><ele>1027.0</ele><time>2026-04-12T08:22:04.999Z</time></trkpt><trkpt lat="45.91446153732678" lon="11.456125947348362"><ele>1026.6666666666665</ele><time>2026-04-12T08:22:05.999Z</time></trkpt><trkpt lat="45.91432939384314" lon="11.456300179076068"><ele>1026.3333333333333</ele><time>2026-04-12T08:22:06.999Z</time></trkpt><trkpt lat="45.91419344349934" lon="11.456443221708323"><ele>1026.0</ele><time>2026-04-12T08:22:07.999Z</time></trkpt><trkpt lat="45.91404023608072" lon="11.456526771073975"><ele>1026.0</ele><time>2026-04-12T08:22:08.999Z</time></trkpt><trkpt lat="45.913871375780104" lon="11.456564281867601"><ele>1026.0</ele><time>2026-04-12T08:22:09.999Z</time></trkpt><trkpt lat="45.91371171368273" lon="11.456565363150663"><ele>1026.0</ele><time>2026-04-12T08:22:10.999Z</time></trkpt><trkpt lat="45.913558425587084" lon="11.456628278946487"><ele>1026.0</ele><time>2026-04-12T08:22:11.999Z</time></trkpt><trkpt lat="45.913437028536045" lon="11.456727700681597"><ele>1026.0</ele><time>2026-04-12T08:22:12.999Z</time></trkpt><trkpt lat="45.913325179946725" lon="11.456867950510103"><ele>1026.0</ele><time>2026-04-12T08:22:13.999Z</time></trkpt><trkpt lat="45.913204491341084" lon="11.457019871801238"><ele>1026.0</ele><time>2026-04-12T08:22:14.999Z</time></trkpt><trkpt lat="45.9130704575858" lon="11.45715625119505"><ele>1027.3333333333333</ele><time>2026-04-12T08:22:15.999Z</time></trkpt><trkpt lat="45.912913649513044" lon="11.457268339170474"><ele>1028.6666666666665</ele><time>2026-04-12T08:22:16.999Z</time></trkpt><trkpt lat="45.91274522800717" lon="11.4573714591448"><ele>1030.0</ele><time>2026-04-12T08:22:17.999Z</time></trkpt><trkpt lat="45.91256969426836" lon="11.457471746188823"><ele>1023.0</ele><time>2026-04-12T08:22:18.999Z</time></trkpt><trkpt lat="45.91239546055886" lon="11.457571403310865"><ele>1016.0</ele><time>2026-04-12T08:22:19.999Z</time></trkpt><trkpt lat="45.912233144200925" lon="11.457672828793092"><ele>1009.0</ele><time>2026-04-12T08:22:20.999Z</time></trkpt><trkpt lat="45.91208594447085" lon="11.457770377932771"><ele>1009.0</ele><time>2026-04-12T08:22:21.999Z</time></trkpt><trkpt lat="45.911956497533374" lon="11.45785596769114"><ele>1009.0</ele><time>2026-04-12T08:22:22.999Z</time></trkpt><trkpt lat="45.911846459728096" lon="11.45792412733921"><ele>1009.0</ele><time>2026-04-12T08:22:23.999Z</time></trkpt><trkpt lat="45.91173353451886" lon="11.457964823462609"><ele>1009.0</ele><time>2026-04-12T08:22:24.999Z</time></trkpt><trkpt lat="45.91161802800931" lon="11.457948433243779"><ele>1007.0</ele><time>2026-04-12T08:22:25.999Z</time></trkpt><trkpt lat="45.91151158184366" lon="11.457889362591274"><ele>1005.0</ele><time>2026-04-12T08:22:26.999Z</time></trkpt><trkpt lat="45.91140265992449" lon="11.45779338566773"><ele>1003.0</ele><time>2026-04-12T08:22:27.999Z</time></trkpt><trkpt lat="45.911293684053014" lon="11.457666122044118"><ele>1001.0</ele><time>2026-04-12T08:22:28.999Z</time></trkpt><trkpt lat="45.91117322562767" lon="11.457532902992869"><ele>1001.0</ele><time>2026-04-12T08:22:29.999Z</time></trkpt><trkpt lat="45.91104521976777" lon="11.45739267067964"><ele>1001.0</ele><time>2026-04-12T08:22:30.999Z</time></trkpt><trkpt lat="45.910923482241174" lon="11.457255882948123"><ele>1001.0</ele><time>2026-04-12T08:22:31.999Z</time></trkpt><trkpt lat="45.91081142744243" lon="11.457131733101146"><ele>1001.25</ele><time>2026-04-12T08:22:32.999Z</time></trkpt><trkpt lat="45.91070576121323" lon="11.457016552756789"><ele>1001.5</ele><time>2026-04-12T08:22:33.999Z</time></trkpt><trkpt lat="45.91059787792801" lon="11.456926544622867"><ele>1001.75</ele><time>2026-04-12T08:22:34.998Z</time></trkpt><trkpt lat="45.91048639409015" lon="11.456885812318307"><ele>1002.0</ele><time>2026-04-12T08:22:35.998Z</time></trkpt><trkpt lat="45.910362919272664" lon="11.456882215285486"><ele>1002.0</ele><time>2026-04-12T08:22:36.998Z</time></trkpt><trkpt lat="45.910219638341495" lon="11.4569178246887"><ele>1002.0</ele><time>2026-04-12T08:22:37.998Z</time></trkpt><trkpt lat="45.91007194350732" lon="11.45695887550728"><ele>1002.0</ele><time>2026-04-12T08:22:38.998Z</time></trkpt><trkpt lat="45.909922457620205" lon="11.457007081915622"><ele>1002.0</ele><time>2026-04-12T08:22:39.998Z</time></trkpt><trkpt lat="45.90979769314445" lon="11.457069663693689"><ele>1003.0</ele><time>2026-04-12T08:22:40.998Z</time></trkpt><trkpt lat="45.9096977221545" lon="11.45716368749936"><ele>1004.0</ele><time>2026-04-12T08:22:41.998Z</time></trkpt><trkpt lat="45.90960467659891" lon="11.457309256369966"><ele>1005.0</ele><time>2026-04-12T08:22:42.998Z</time></trkpt><trkpt lat="45.90951121963753" lon="11.457480060338044"><ele>1006.0</ele><time>2026-04-12T08:22:43.998Z</time></trkpt><trkpt lat="45.90939963434782" lon="11.457663591608606"><ele>1006.0</ele><time>2026-04-12T08:22:44.998Z</time></trkpt><trkpt lat="45.909263871434206" lon="11.45783474652299"><ele>1006.0</ele><time>2026-04-12T08:22:45.998Z</time></trkpt><trkpt lat="45.909117453197474" lon="11.458006097309596"><ele>1006.0</ele><time>2026-04-12T08:22:46.998Z</time></trkpt><trkpt lat="45.908969945354" lon="11.458182753535834"><ele>1007.6666666666666</ele><time>2026-04-12T08:22:47.998Z</time></trkpt><trkpt lat="45.908818108953255" lon="11.458359346489555"><ele>1009.3333333333333</ele><time>2026-04-12T08:22:48.998Z</time></trkpt><trkpt lat="45.90865116949814" lon="11.45852322116897"><ele>1011.0</ele><time>2026-04-12T08:22:49.998Z</time></trkpt><trkpt lat="45.90848772225168" lon="11.458664783169707"><ele>1014.0</ele><time>2026-04-12T08:22:50.998Z</time></trkpt><trkpt lat="45.90835063658176" lon="11.458790529532449"><ele>1017.0</ele><time>2026-04-12T08:22:51.998Z</time></trkpt><trkpt lat="45.908209251576274" lon="11.45888587293738"><ele>1020.0</ele><time>2026-04-12T08:22:52.998Z</time></trkpt><trkpt lat="45.90807427970645" lon="11.458968051420037"><ele>1020.0</ele><time>2026-04-12T08:22:53.998Z</time></trkpt><trkpt lat="45.90792971058452" lon="11.458998887475012"><ele>1020.0</ele><time>2026-04-12T08:22:54.998Z</time></trkpt><trkpt lat="45.90777075500236" lon="11.458960271530117"><ele>1020.0</ele><time>2026-04-12T08:22:55.998Z</time></trkpt><trkpt lat="45.90761519027754" lon="11.458873975057802"><ele>1021.0</ele><time>2026-04-12T08:22:56.998Z</time></trkpt><trkpt lat="45.90745438219335" lon="11.45882711431862"><ele>1022.0</ele><time>2026-04-12T08:22:57.998Z</time></trkpt><trkpt lat="45.90728238381121" lon="11.458861372901472"><ele>1023.0</ele><time>2026-04-12T08:22:58.998Z</time></trkpt><trkpt lat="45.907085264880166" lon="11.458902519057032"><ele>1023.0</ele><time>2026-04-12T08:22:59.998Z</time></trkpt><trkpt lat="45.90687824586774" lon="11.458912845114803"><ele>1023.0</ele><time>2026-04-12T08:23:00.998Z</time></trkpt><trkpt lat="45.90668449374839" lon="11.458906014630186"><ele>1023.0</ele><time>2026-04-12T08:23:01.998Z</time></trkpt><trkpt lat="45.90650888409083" lon="11.45891487203488"><ele>1023.3333333333333</ele><time>2026-04-12T08:23:02.998Z</time></trkpt><trkpt lat="45.90634408976013" lon="11.458967034370295"><ele>1023.6666666666666</ele><time>2026-04-12T08:23:03.998Z</time></trkpt><trkpt lat="45.9061757393464" lon="11.459064226718676"><ele>1024.0</ele><time>2026-04-12T08:23:04.998Z</time></trkpt><trkpt lat="45.90602786350254" lon="11.459180770015497"><ele>1028.6666666666665</ele><time>2026-04-12T08:23:06Z</time></trkpt><trkpt lat="45.90589110131459" lon="11.459335683011359"><ele>1033.3333333333333</ele><time>2026-04-12T08:23:07Z</time></trkpt><trkpt lat="45.905760375701384" lon="11.459512263129062"><ele>1038.0</ele><time>2026-04-12T08:23:08Z</time></trkpt><trkpt lat="45.90563729766938" lon="11.459697077778475"><ele>1038.0</ele><time>2026-04-12T08:23:09Z</time></trkpt><trkpt lat="45.9054913431948" lon="11.459851072551794"><ele>1038.0</ele><time>2026-04-12T08:23:10Z</time></trkpt><trkpt lat="45.905326604234546" lon="11.459962926947737"><ele>1038.0</ele><time>2026-04-12T08:23:11Z</time></trkpt><trkpt lat="45.905141664224395" lon="11.460015737315278"><ele>1028.6666666666667</ele><time>2026-04-12T08:23:12Z</time></trkpt><trkpt lat="45.904957548220096" lon="11.46004702334468"><ele>1019.3333333333334</ele><time>2026-04-12T08:23:13Z</time></trkpt><trkpt lat="45.904783504693825" lon="11.460089711829072"><ele>1010.0</ele><time>2026-04-12T08:23:14Z</time></trkpt><trkpt lat="45.90462845010099" lon="11.460142963795768"><ele>1010.0</ele><time>2026-04-12T08:23:15Z</time></trkpt><trkpt lat="45.904506688147954" lon="11.460217039025554"><ele>1010.0</ele><time>2026-04-12T08:23:16Z</time></trkpt><trkpt lat="45.90439787003617" lon="11.460359020738665"><ele>1010.0</ele><time>2026-04-12T08:23:17Z</time></trkpt><trkpt lat="45.90431540479025" lon="11.460555818072585"><ele>1010.0</ele><time>2026-04-12T08:23:18Z</time></trkpt><trkpt lat="45.90424392251296" lon="11.460782547358399"><ele>1014.0</ele><time>2026-04-12T08:23:19Z</time></trkpt><trkpt lat="45.904135569822515" lon="11.460966998783167"><ele>1018.0</ele><time>2026-04-12T08:23:20Z</time></trkpt><trkpt lat="45.90399338314448" lon="11.4611057020368"><ele>1022.0</ele><time>2026-04-12T08:23:21Z</time></trkpt><trkpt lat="45.90383052444435" lon="11.461205147533322"><ele>1022.0</ele><time>2026-04-12T08:23:22Z</time></trkpt><trkpt lat="45.903656702260015" lon="11.461269814493054"><ele>1022.0</ele><time>2026-04-12T08:23:23Z</time></trkpt><trkpt lat="45.90348530617765" lon="11.461323904542763"><ele>1022.0</ele><time>2026-04-12T08:23:24Z</time></trkpt><trkpt lat="45.903320648752825" lon="11.461410987635066"><ele>1023.0</ele><time>2026-04-12T08:23:25Z</time></trkpt><trkpt lat="45.90317950942682" lon="11.46153754539574"><ele>1024.0</ele><time>2026-04-12T08:23:26Z</time></trkpt><trkpt lat="45.90303654238248" lon="11.461696337179506"><ele>1025.0</ele><time>2026-04-12T08:23:27Z</time></trkpt><trkpt lat="45.9029048593549" lon="11.461870922474052"><ele>1025.0</ele><time>2026-04-12T08:23:28Z</time></trkpt><trkpt lat="45.902773519984386" lon="11.462065756732388"><ele>1025.0</ele><time>2026-04-12T08:23:29Z</time></trkpt><trkpt lat="45.90264390472342" lon="11.462258761669377"><ele>1025.0</ele><time>2026-04-12T08:23:30Z</time></trkpt><trkpt lat="45.902513169698466" lon="11.462461551656876"><ele>1025.6666666666667</ele><time>2026-04-12T08:23:31Z</time></trkpt><trkpt lat="45.90236927689579" lon="11.462676379483678"><ele>1026.3333333333333</ele><time>2026-04-12T08:23:32Z</time></trkpt><trkpt lat="45.902215143715274" lon="11.462900628985468"><ele>1027.0</ele><time>2026-04-12T08:23:33Z</time></trkpt><trkpt lat="45.9020556333111" lon="11.463117866458687"><ele>1025.3333333333333</ele><time>2026-04-12T08:23:34Z</time></trkpt><trkpt lat="45.90190776028072" lon="11.463318164517514"><ele>1023.6666666666667</ele><time>2026-04-12T08:23:35Z</time></trkpt><trkpt lat="45.90177803029852" lon="11.463529375082095"><ele>1022.0</ele><time>2026-04-12T08:23:36Z</time></trkpt><trkpt lat="45.90166665917089" lon="11.463769893339906"><ele>1030.0</ele><time>2026-04-12T08:23:37Z</time></trkpt><trkpt lat="45.90157584200131" lon="11.464032302710507"><ele>1038.0</ele><time>2026-04-12T08:23:38Z</time></trkpt><trkpt lat="45.90147505815819" lon="11.464291317068716"><ele>1046.0</ele><time>2026-04-12T08:23:39Z</time></trkpt><trkpt lat="45.901352327925295" lon="11.464513684911735"><ele>1053.0</ele><time>2026-04-12T08:23:40Z</time></trkpt><trkpt lat="45.90120157039187" lon="11.46465266747173"><ele>1060.0</ele><time>2026-04-12T08:23:41Z</time></trkpt><trkpt lat="45.901085938939914" lon="11.46481399151364"><ele>1067.0</ele><time>2026-04-12T08:23:42Z</time></trkpt><trkpt lat="45.90099653543532" lon="11.464962897250889"><ele>1057.6666666666667</ele><time>2026-04-12T08:23:43Z</time></trkpt><trkpt lat="45.90085864621537" lon="11.465026659646666"><ele>1048.3333333333333</ele><time>2026-04-12T08:23:44Z</time></trkpt><trkpt lat="45.90071483609119" lon="11.465025365875228"><ele>1039.0</ele><time>2026-04-12T08:23:45Z</time></trkpt><trkpt lat="45.9005473672505" lon="11.465057557425531"><ele>1039.0</ele><time>2026-04-12T08:23:46Z</time></trkpt><trkpt lat="45.900361088233744" lon="11.465144408092833"><ele>1039.0</ele><time>2026-04-12T08:23:47Z</time></trkpt><trkpt lat="45.90015834661369" lon="11.465216753129145"><ele>1039.0</ele><time>2026-04-12T08:23:48Z</time></trkpt><trkpt lat="45.899943420265494" lon="11.465310774111614"><ele>1032.6666666666665</ele><time>2026-04-12T08:23:49Z</time></trkpt><trkpt lat="45.899744800292765" lon="11.465411100735064"><ele>1026.3333333333333</ele><time>2026-04-12T08:23:49.999Z</time></trkpt><trkpt lat="45.89952366969221" lon="11.465506922881456"><ele>1020.0</ele><time>2026-04-12T08:23:50.999Z</time></trkpt><trkpt lat="45.89930280068699" lon="11.465598532322964"><ele>1030.0</ele><time>2026-04-12T08:23:51.999Z</time></trkpt><trkpt lat="45.899084040425386" lon="11.465681307062004"><ele>1040.0</ele><time>2026-04-12T08:23:52.999Z</time></trkpt><trkpt lat="45.89886287183352" lon="11.465709337238666"><ele>1050.0</ele><time>2026-04-12T08:23:53.999Z</time></trkpt><trkpt lat="45.89867283613002" lon="11.46580021263385"><ele>1050.0</ele><time>2026-04-12T08:23:54.999Z</time></trkpt><trkpt lat="45.898482439935215" lon="11.465874559399685"><ele>1050.0</ele><time>2026-04-12T08:23:55.999Z</time></trkpt><trkpt lat="45.89830083643485" lon="11.465973535205759"><ele>1050.0</ele><time>2026-04-12T08:23:56.999Z</time></trkpt><trkpt lat="45.89814348857409" lon="11.46604993205444"><ele>1045.3333333333333</ele><time>2026-04-12T08:23:57.999Z</time></trkpt><trkpt lat="45.89800063837343" lon="11.4661578911998"><ele>1040.6666666666665</ele><time>2026-04-12T08:23:58.999Z</time></trkpt><trkpt lat="45.897873815566854" lon="11.466294058582667"><ele>1036.0</ele><time>2026-04-12T08:23:59.999Z</time></trkpt><trkpt lat="45.897764576187235" lon="11.466458375692273"><ele>1034.3333333333333</ele><time>2026-04-12T08:24:00.999Z</time></trkpt><trkpt lat="45.89768280866295" lon="11.466635375868169"><ele>1032.6666666666667</ele><time>2026-04-12T08:24:01.999Z</time></trkpt><trkpt lat="45.89761447398164" lon="11.466831399742711"><ele>1031.0</ele><time>2026-04-12T08:24:02.999Z</time></trkpt><trkpt lat="45.89755362858314" lon="11.467037743309511"><ele>1035.25</ele><time>2026-04-12T08:24:03.999Z</time></trkpt><trkpt lat="45.89751803383156" lon="11.467247467572593"><ele>1039.5</ele><time>2026-04-12T08:24:04.999Z</time></trkpt><trkpt lat="45.8975215608447" lon="11.467449279097186"><ele>1043.75</ele><time>2026-04-12T08:24:05.999Z</time></trkpt><trkpt lat="45.897526214408664" lon="11.467632641206752"><ele>1048.0</ele><time>2026-04-12T08:24:06.999Z</time></trkpt><trkpt lat="45.897496821733355" lon="11.467805400361657"><ele>1054.0</ele><time>2026-04-12T08:24:07.999Z</time></trkpt><trkpt lat="45.89742743194011" lon="11.467967760190268"><ele>1060.0</ele><time>2026-04-12T08:24:08.999Z</time></trkpt><trkpt lat="45.897345826469575" lon="11.468089966318553"><ele>1066.0</ele><time>2026-04-12T08:24:09.999Z</time></trkpt><trkpt lat="45.897251611057925" lon="11.468151871185514"><ele>1072.0</ele><time>2026-04-12T08:24:10.999Z</time></trkpt><trkpt lat="45.89714957543305" lon="11.468132156614827"><ele>1072.0</ele><time>2026-04-12T08:24:11.999Z</time></trkpt><trkpt lat="45.89705590521701" lon="11.468018713877711"><ele>1072.0</ele><time>2026-04-12T08:24:12.999Z</time></trkpt><trkpt lat="45.896933126668486" lon="11.467999516395942"><ele>1072.0</ele><time>2026-04-12T08:24:13.999Z</time></trkpt><trkpt lat="45.896785823986995" lon="11.468013845965466"><ele>1072.0</ele><time>2026-04-12T08:24:14.999Z</time></trkpt><trkpt lat="45.89660539076145" lon="11.468066680594017"><ele>1068.6666666666665</ele><time>2026-04-12T08:24:15.999Z</time></trkpt><trkpt lat="45.89641997021538" lon="11.468139257110815"><ele>1065.3333333333333</ele><time>2026-04-12T08:24:16.999Z</time></trkpt><trkpt lat="45.896259758983646" lon="11.468242043046386"><ele>1062.0</ele><time>2026-04-12T08:24:17.999Z</time></trkpt><trkpt lat="45.896128156207155" lon="11.46832508757007"><ele>1062.0</ele><time>2026-04-12T08:24:18.999Z</time></trkpt><trkpt lat="45.895999703549585" lon="11.468385139574114"><ele>1062.0</ele><time>2026-04-12T08:24:19.999Z</time></trkpt><trkpt lat="45.89588988252645" lon="11.468468229715304"><ele>1062.0</ele><time>2026-04-12T08:24:20.999Z</time></trkpt><trkpt lat="45.895808312771784" lon="11.468588257520375"><ele>1062.0</ele><time>2026-04-12T08:24:21.999Z</time></trkpt><trkpt lat="45.89572410268356" lon="11.468726702831487"><ele>1057.75</ele><time>2026-04-12T08:24:22.999Z</time></trkpt><trkpt lat="45.8956274290066" lon="11.468803377977867"><ele>1053.5</ele><time>2026-04-12T08:24:23.999Z</time></trkpt><trkpt lat="45.8955213005782" lon="11.468752182698406"><ele>1049.25</ele><time>2026-04-12T08:24:24.999Z</time></trkpt><trkpt lat="45.895431495447674" lon="11.46865479701432"><ele>1045.0</ele><time>2026-04-12T08:24:25.999Z</time></trkpt><trkpt lat="45.89531796143372" lon="11.468594897714889"><ele>1045.0</ele><time>2026-04-12T08:24:26.999Z</time></trkpt><trkpt lat="45.89520956202303" lon="11.468523766096268"><ele>1045.0</ele><time>2026-04-12T08:24:27.999Z</time></trkpt><trkpt lat="45.89509839241644" lon="11.46853532692453"><ele>1045.0</ele><time>2026-04-12T08:24:28.999Z</time></trkpt><trkpt lat="45.89498133093389" lon="11.468633997749919"><ele>1045.0</ele><time>2026-04-12T08:24:29.999Z</time></trkpt><trkpt lat="45.894852797037984" lon="11.468771010611102"><ele>1053.3333333333333</ele><time>2026-04-12T08:24:30.999Z</time></trkpt><trkpt lat="45.89469931050227" lon="11.468865933680725"><ele>1061.6666666666667</ele><time>2026-04-12T08:24:31.999Z</time></trkpt><trkpt lat="45.8945390187412" lon="11.468970268638879"><ele>1070.0</ele><time>2026-04-12T08:24:32.999Z</time></trkpt><trkpt lat="45.89439733928899" lon="11.469018549629913"><ele>1070.0</ele><time>2026-04-12T08:24:33.999Z</time></trkpt><trkpt lat="45.89428289702199" lon="11.469085279180922"><ele>1070.0</ele><time>2026-04-12T08:24:34.999Z</time></trkpt><trkpt lat="45.894199334615905" lon="11.469172330246245"><ele>1070.0</ele><time>2026-04-12T08:24:35.999Z</time></trkpt><trkpt lat="45.894132310427324" lon="11.469307890834008"><ele>1070.0</ele><time>2026-04-12T08:24:36.999Z</time></trkpt><trkpt lat="45.89409128438621" lon="11.469494005111857"><ele>1073.25</ele><time>2026-04-12T08:24:37.999Z</time></trkpt><trkpt lat="45.894022266568" lon="11.469657092350475"><ele>1076.5</ele><time>2026-04-12T08:24:38.999Z</time></trkpt><trkpt lat="45.893896705340254" lon="11.469753161567162"><ele>1079.75</ele><time>2026-04-12T08:24:39.999Z</time></trkpt><trkpt lat="45.89374551097513" lon="11.469817431123381"><ele>1083.0</ele><time>2026-04-12T08:24:40.999Z</time></trkpt><trkpt lat="45.893606120155894" lon="11.469906600852656"><ele>1083.0</ele><time>2026-04-12T08:24:41.999Z</time></trkpt><trkpt lat="45.893473600380574" lon="11.469976203961192"><ele>1083.0</ele><time>2026-04-12T08:24:42.999Z</time></trkpt><trkpt lat="45.893343291146245" lon="11.469979937177408"><ele>1083.0</ele><time>2026-04-12T08:24:43.999Z</time></trkpt><trkpt lat="45.89321188912909" lon="11.46990637138969"><ele>1083.0</ele><time>2026-04-12T08:24:44.999Z</time></trkpt><trkpt lat="45.89307139317842" lon="11.469806228261621"><ele>1078.6666666666667</ele><time>2026-04-12T08:24:45.999Z</time></trkpt><trkpt lat="45.892931570367644" lon="11.469759213895555"><ele>1074.3333333333335</ele><time>2026-04-12T08:24:46.999Z</time></trkpt><trkpt lat="45.892775718893795" lon="11.46976066134192"><ele>1070.0</ele><time>2026-04-12T08:24:47.999Z</time></trkpt><trkpt lat="45.89260146042703" lon="11.469805050219051"><ele>1069.3333333333335</ele><time>2026-04-12T08:24:48.999Z</time></trkpt><trkpt lat="45.892387615883386" lon="11.469923923404437"><ele>1068.6666666666667</ele><time>2026-04-12T08:24:49.998Z</time></trkpt><trkpt lat="45.89217348857161" lon="11.469970675425614"><ele>1068.0</ele><time>2026-04-12T08:24:50.998Z</time></trkpt><trkpt lat="45.89196805819765" lon="11.470007526809514"><ele>1068.0</ele><time>2026-04-12T08:24:51.998Z</time></trkpt><trkpt lat="45.89177066017806" lon="11.470047339270314"><ele>1068.0</ele><time>2026-04-12T08:24:52.998Z</time></trkpt><trkpt lat="45.891552241137376" lon="11.470062914935346"><ele>1068.0</ele><time>2026-04-12T08:24:53.998Z</time></trkpt><trkpt lat="45.89131302576813" lon="11.470038779696958"><ele>1068.5</ele><time>2026-04-12T08:24:54.998Z</time></trkpt><trkpt lat="45.89105255960197" lon="11.469972722808215"><ele>1069.0</ele><time>2026-04-12T08:24:55.998Z</time></trkpt><trkpt lat="45.89081897185908" lon="11.469936478107343"><ele>1071.0</ele><time>2026-04-12T08:24:56.998Z</time></trkpt><trkpt lat="45.89062133739385" lon="11.469932871114608"><ele>1073.0</ele><time>2026-04-12T08:24:57.998Z</time></trkpt><trkpt lat="45.89046878659024" lon="11.469922213912186"><ele>1075.0</ele><time>2026-04-12T08:24:58.998Z</time></trkpt><trkpt lat="45.890339676744006" lon="11.469890783339508"><ele>1075.0</ele><time>2026-04-12T08:24:59.998Z</time></trkpt><trkpt lat="45.89022150378061" lon="11.469801578059796"><ele>1075.0</ele><time>2026-04-12T08:25:00.998Z</time></trkpt><trkpt lat="45.89012020504123" lon="11.469639195296496"><ele>1075.0</ele><time>2026-04-12T08:25:01.998Z</time></trkpt><trkpt lat="45.89001091463973" lon="11.469468862647094"><ele>1075.0</ele><time>2026-04-12T08:25:02.998Z</time></trkpt><trkpt lat="45.88989384302605" lon="11.469349299460522"><ele>1071.0</ele><time>2026-04-12T08:25:03.998Z</time></trkpt><trkpt lat="45.88977230050021" lon="11.469285038950002"><ele>1067.0</ele><time>2026-04-12T08:25:04.998Z</time></trkpt><trkpt lat="45.88965917342" lon="11.469271743759725"><ele>1063.0</ele><time>2026-04-12T08:25:05.998Z</time></trkpt><trkpt lat="45.88955816032633" lon="11.46931630198265"><ele>1059.0</ele><time>2026-04-12T08:25:06.998Z</time></trkpt><trkpt lat="45.88945770988061" lon="11.46943799157584"><ele>1060.3333333333333</ele><time>2026-04-12T08:25:07.998Z</time></trkpt><trkpt lat="45.889367052218354" lon="11.46961162568602"><ele>1061.6666666666665</ele><time>2026-04-12T08:25:08.998Z</time></trkpt><trkpt lat="45.88927188869973" lon="11.469812064529199"><ele>1063.0</ele><time>2026-04-12T08:25:09.998Z</time></trkpt><trkpt lat="45.88916901809308" lon="11.470018902146643"><ele>1063.0</ele><time>2026-04-12T08:25:10.998Z</time></trkpt><trkpt lat="45.88907760954331" lon="11.470230818189647"><ele>1063.0</ele><time>2026-04-12T08:25:12Z</time></trkpt><trkpt lat="45.88899740499336" lon="11.470442904611557"><ele>1063.0</ele><time>2026-04-12T08:25:13Z</time></trkpt><trkpt lat="45.88893280996665" lon="11.470658548225863"><ele>1067.6666666666665</ele><time>2026-04-12T08:25:14Z</time></trkpt><trkpt lat="45.88884711550715" lon="11.47084586607442"><ele>1072.3333333333333</ele><time>2026-04-12T08:25:15Z</time></trkpt><trkpt lat="45.88872233084997" lon="11.47097069830616"><ele>1077.0</ele><time>2026-04-12T08:25:16Z</time></trkpt><trkpt lat="45.888572343299415" lon="11.471077184223901"><ele>1078.0</ele><time>2026-04-12T08:25:17Z</time></trkpt><trkpt lat="45.88840090830158" lon="11.471190565917407"><ele>1079.0</ele><time>2026-04-12T08:25:18Z</time></trkpt><trkpt lat="45.888233653831044" lon="11.471338723010774"><ele>1080.0</ele><time>2026-04-12T08:25:19Z</time></trkpt><trkpt lat="45.88806769434992" lon="11.471470720451613"><ele>1080.0</ele><time>2026-04-12T08:25:20Z</time></trkpt><trkpt lat="45.8879066464105" lon="11.471530430400177"><ele>1080.0</ele><time>2026-04-12T08:25:21Z</time></trkpt><trkpt lat="45.887762026957596" lon="11.471530082019266"><ele>1080.0</ele><time>2026-04-12T08:25:22Z</time></trkpt><trkpt lat="45.8876047375978" lon="11.4715412905381"><ele>1078.0</ele><time>2026-04-12T08:25:23Z</time></trkpt><trkpt lat="45.88743869025831" lon="11.471605693540141"><ele>1076.0</ele><time>2026-04-12T08:25:24Z</time></trkpt><trkpt lat="45.88724511454185" lon="11.471721076936475"><ele>1074.0</ele><time>2026-04-12T08:25:25Z</time></trkpt><trkpt lat="45.8870565351104" lon="11.471828274774914"><ele>1074.0</ele><time>2026-04-12T08:25:26Z</time></trkpt><trkpt lat="45.88686214659004" lon="11.471932751738247"><ele>1074.0</ele><time>2026-04-12T08:25:27Z</time></trkpt><trkpt lat="45.886649115913286" lon="11.472025195910506"><ele>1074.0</ele><time>2026-04-12T08:25:28Z</time></trkpt><trkpt lat="45.886432618148184" lon="11.472093829570287"><ele>1080.0</ele><time>2026-04-12T08:25:29Z</time></trkpt><trkpt lat="45.8862060811733" lon="11.472134271603"><ele>1086.0</ele><time>2026-04-12T08:25:30Z</time></trkpt><trkpt lat="45.88596782416532" lon="11.472168017046362"><ele>1080.3333333333333</ele><time>2026-04-12T08:25:31Z</time></trkpt><trkpt lat="45.88575466148551" lon="11.472211710920444"><ele>1074.6666666666665</ele><time>2026-04-12T08:25:32Z</time></trkpt><trkpt lat="45.88556307011536" lon="11.47224387664329"><ele>1069.0</ele><time>2026-04-12T08:25:33Z</time></trkpt><trkpt lat="45.885385201760336" lon="11.472266968906789"><ele>1069.0</ele><time>2026-04-12T08:25:34Z</time></trkpt><trkpt lat="45.88524618679905" lon="11.47229125535229"><ele>1069.0</ele><time>2026-04-12T08:25:35Z</time></trkpt><trkpt lat="45.885129309311885" lon="11.472314574445507"><ele>1069.0</ele><time>2026-04-12T08:25:36Z</time></trkpt><trkpt lat="45.885027438887185" lon="11.472382747912592"><ele>1069.0</ele><time>2026-04-12T08:25:37Z</time></trkpt><trkpt lat="45.88492713538229" lon="11.472509162791795"><ele>1068.6666666666665</ele><time>2026-04-12T08:25:38Z</time></trkpt><trkpt lat="45.88483819017473" lon="11.47269479360052"><ele>1068.3333333333333</ele><time>2026-04-12T08:25:39Z</time></trkpt><trkpt lat="45.88474972270288" lon="11.472901280374545"><ele>1068.0</ele><time>2026-04-12T08:25:40Z</time></trkpt><trkpt lat="45.88465446168192" lon="11.473113117677785"><ele>1068.0</ele><time>2026-04-12T08:25:41Z</time></trkpt><trkpt lat="45.88456123826618" lon="11.473315885821158"><ele>1068.0</ele><time>2026-04-12T08:25:42Z</time></trkpt><trkpt lat="45.88447784330386" lon="11.473497088090745"><ele>1068.0</ele><time>2026-04-12T08:25:43Z</time></trkpt><trkpt lat="45.88440340314529" lon="11.473674443711529"><ele>1068.3333333333333</ele><time>2026-04-12T08:25:44Z</time></trkpt><trkpt lat="45.88434350512885" lon="11.473874721692214"><ele>1068.6666666666665</ele><time>2026-04-12T08:25:45Z</time></trkpt><trkpt lat="45.88430544481192" lon="11.474097070383902"><ele>1069.0</ele><time>2026-04-12T08:25:46Z</time></trkpt><trkpt lat="45.884275987323626" lon="11.474327876857814"><ele>1066.0</ele><time>2026-04-12T08:25:47Z</time></trkpt><trkpt lat="45.88424460536944" lon="11.474571573161873"><ele>1063.0</ele><time>2026-04-12T08:25:48Z</time></trkpt><trkpt lat="45.88420989938971" lon="11.474824003336861"><ele>1060.0</ele><time>2026-04-12T08:25:49Z</time></trkpt><trkpt lat="45.88417119745106" lon="11.47507669287669"><ele>1059.6666666666665</ele><time>2026-04-12T08:25:50Z</time></trkpt><trkpt lat="45.88413927778511" lon="11.475322916185606"><ele>1059.3333333333333</ele><time>2026-04-12T08:25:51Z</time></trkpt><trkpt lat="45.884112641559184" lon="11.475552868595164"><ele>1059.0</ele><time>2026-04-12T08:25:52Z</time></trkpt><trkpt lat="45.88408926611064" lon="11.475758692307998"><ele>1059.0</ele><time>2026-04-12T08:25:53Z</time></trkpt><trkpt lat="45.88406632625099" lon="11.4759513438879"><ele>1059.0</ele><time>2026-04-12T08:25:54Z</time></trkpt><trkpt lat="45.884039678639056" lon="11.476143137993628"><ele>1059.0</ele><time>2026-04-12T08:25:55Z</time></trkpt><trkpt lat="45.88401463937619" lon="11.476337362475089"><ele>1059.0</ele><time>2026-04-12T08:25:56Z</time></trkpt><trkpt lat="45.88397975667799" lon="11.47654136428913"><ele>1060.0</ele><time>2026-04-12T08:25:56.999Z</time></trkpt><trkpt lat="45.883913150356115" lon="11.47674450966097"><ele>1061.0</ele><time>2026-04-12T08:25:57.999Z</time></trkpt><trkpt lat="45.88383095140889" lon="11.476946393054876"><ele>1062.0</ele><time>2026-04-12T08:25:58.999Z</time></trkpt><trkpt lat="45.883733588627514" lon="11.477146157962444"><ele>1062.75</ele><time>2026-04-12T08:25:59.999Z</time></trkpt><trkpt lat="45.88364794520982" lon="11.477336420449042"><ele>1063.5</ele><time>2026-04-12T08:26:00.999Z</time></trkpt><trkpt lat="45.88355890784751" lon="11.477501719472794"><ele>1064.25</ele><time>2026-04-12T08:26:01.999Z</time></trkpt><trkpt lat="45.88348356453386" lon="11.477660785498452"><ele>1065.0</ele><time>2026-04-12T08:26:02.999Z</time></trkpt><trkpt lat="45.88341991417804" lon="11.477815349072355"><ele>1063.75</ele><time>2026-04-12T08:26:03.999Z</time></trkpt><trkpt lat="45.88337648362267" lon="11.477985722323995"><ele>1062.5</ele><time>2026-04-12T08:26:04.999Z</time></trkpt><trkpt lat="45.88335434899066" lon="11.478178913053634"><ele>1061.25</ele><time>2026-04-12T08:26:05.999Z</time></trkpt><trkpt lat="45.883343697736876" lon="11.47836227115783"><ele>1060.0</ele><time>2026-04-12T08:26:06.999Z</time></trkpt><trkpt lat="45.88331335167137" lon="11.478525213264692"><ele>1060.0</ele><time>2026-04-12T08:26:07.999Z</time></trkpt><trkpt lat="45.88330384811672" lon="11.478685057067727"><ele>1060.0</ele><time>2026-04-12T08:26:08.999Z</time></trkpt><trkpt lat="45.88323025674241" lon="11.478829859584504"><ele>1060.0</ele><time>2026-04-12T08:26:09.999Z</time></trkpt><trkpt lat="45.88311226536552" lon="11.478933329191161"><ele>1060.0</ele><time>2026-04-12T08:26:10.999Z</time></trkpt><trkpt lat="45.88298491388517" lon="11.478993811317151"><ele>1058.3333333333333</ele><time>2026-04-12T08:26:11.999Z</time></trkpt><trkpt lat="45.88283209944235" lon="11.479055927830766"><ele>1056.6666666666667</ele><time>2026-04-12T08:26:12.999Z</time></trkpt><trkpt lat="45.88267480393382" lon="11.479116149998625"><ele>1055.0</ele><time>2026-04-12T08:26:13.999Z</time></trkpt><trkpt lat="45.88251512464675" lon="11.479175477976217"><ele>1055.0</ele><time>2026-04-12T08:26:14.999Z</time></trkpt><trkpt lat="45.88237223058498" lon="11.47923988002808"><ele>1055.0</ele><time>2026-04-12T08:26:15.999Z</time></trkpt><trkpt lat="45.882242791027096" lon="11.479294455329345"><ele>1055.0</ele><time>2026-04-12T08:26:16.999Z</time></trkpt><trkpt lat="45.882118847446826" lon="11.479357818793767"><ele>1055.0</ele><time>2026-04-12T08:26:17.999Z</time></trkpt><trkpt lat="45.88200303887188" lon="11.479471555572692"><ele>1056.5</ele><time>2026-04-12T08:26:18.999Z</time></trkpt><trkpt lat="45.881913805144464" lon="11.479626995937604"><ele>1058.0</ele><time>2026-04-12T08:26:19.999Z</time></trkpt><trkpt lat="45.88184022876712" lon="11.479799839633658"><ele>1059.5</ele><time>2026-04-12T08:26:20.999Z</time></trkpt><trkpt lat="45.88180422044118" lon="11.480003163569247"><ele>1061.0</ele><time>2026-04-12T08:26:21.999Z</time></trkpt><trkpt lat="45.881776161528634" lon="11.480204217030321"><ele>1059.25</ele><time>2026-04-12T08:26:22.999Z</time></trkpt><trkpt lat="45.88173240679576" lon="11.480390934055455"><ele>1057.5</ele><time>2026-04-12T08:26:23.999Z</time></trkpt><trkpt lat="45.881671475843156" lon="11.480543632307871"><ele>1055.75</ele><time>2026-04-12T08:26:24.999Z</time></trkpt><trkpt lat="45.881595532965825" lon="11.480680211555562"><ele>1054.0</ele><time>2026-04-12T08:26:25.999Z</time></trkpt><trkpt lat="45.88149986424856" lon="11.480824008468959"><ele>1054.0</ele><time>2026-04-12T08:26:26.999Z</time></trkpt><trkpt lat="45.88140130205598" lon="11.480961162714435"><ele>1054.0</ele><time>2026-04-12T08:26:27.999Z</time></trkpt><trkpt lat="45.88131774911547" lon="11.481113253762713"><ele>1054.0</ele><time>2026-04-12T08:26:28.999Z</time></trkpt><trkpt lat="45.88123134607269" lon="11.48125536201526"><ele>1054.0</ele><time>2026-04-12T08:26:29.999Z</time></trkpt><trkpt lat="45.88116499655368" lon="11.481416402496901"><ele>1054.5</ele><time>2026-04-12T08:26:30.999Z</time></trkpt><trkpt lat="45.881112528076635" lon="11.481582873654073"><ele>1055.0</ele><time>2026-04-12T08:26:31.999Z</time></trkpt><trkpt lat="45.881061722362865" lon="11.481731523607358"><ele>1055.5</ele><time>2026-04-12T08:26:32.999Z</time></trkpt><trkpt lat="45.88099905154311" lon="11.481868555914065"><ele>1056.0</ele><time>2026-04-12T08:26:33.999Z</time></trkpt><trkpt lat="45.880941778338666" lon="11.482012686450577"><ele>1054.0</ele><time>2026-04-12T08:26:34.999Z</time></trkpt><trkpt lat="45.88089213584308" lon="11.482159551126486"><ele>1052.0</ele><time>2026-04-12T08:26:35.999Z</time></trkpt><trkpt lat="45.88085077831594" lon="11.482305252226022"><ele>1050.0</ele><time>2026-04-12T08:26:36.999Z</time></trkpt><trkpt lat="45.88080731618195" lon="11.482454039837487"><ele>1048.0</ele><time>2026-04-12T08:26:37.999Z</time></trkpt><trkpt lat="45.880752819828004" lon="11.482603248611493"><ele>1048.0</ele><time>2026-04-12T08:26:38.999Z</time></trkpt><trkpt lat="45.880704399257034" lon="11.482753886690794"><ele>1048.0</ele><time>2026-04-12T08:26:39.999Z</time></trkpt><trkpt lat="45.8806445136776" lon="11.482899514531722"><ele>1048.0</ele><time>2026-04-12T08:26:40.999Z</time></trkpt><trkpt lat="45.8805843818795" lon="11.483047530992717"><ele>1048.0</ele><time>2026-04-12T08:26:41.999Z</time></trkpt><trkpt lat="45.88054130702464" lon="11.483204891556511"><ele>1049.0</ele><time>2026-04-12T08:26:42.999Z</time></trkpt><trkpt lat="45.88048361188454" lon="11.483348354638762"><ele>1050.0</ele><time>2026-04-12T08:26:43.999Z</time></trkpt><trkpt lat="45.88046577312537" lon="11.483506165273166"><ele>1051.0</ele><time>2026-04-12T08:26:44.999Z</time></trkpt><trkpt lat="45.88043120935288" lon="11.483662931559964"><ele>1052.0</ele><time>2026-04-12T08:26:45.999Z</time></trkpt><trkpt lat="45.88039629810149" lon="11.48382099546603"><ele>1052.75</ele><time>2026-04-12T08:26:46.999Z</time></trkpt><trkpt lat="45.88035799724168" lon="11.483983457960274"><ele>1053.5</ele><time>2026-04-12T08:26:47.999Z</time></trkpt><trkpt lat="45.88032289628271" lon="11.484153654937902"><ele>1054.25</ele><time>2026-04-12T08:26:48.999Z</time></trkpt><trkpt lat="45.880288308223705" lon="11.484324407925353"><ele>1055.0</ele><time>2026-04-12T08:26:49.999Z</time></trkpt><trkpt lat="45.880258283948045" lon="11.484485605827214"><ele>1056.4</ele><time>2026-04-12T08:26:50.999Z</time></trkpt><trkpt lat="45.88023001554972" lon="11.484628528368967"><ele>1057.8</ele><time>2026-04-12T08:26:51.999Z</time></trkpt><trkpt lat="45.880190815983255" lon="11.484750175502459"><ele>1059.2</ele><time>2026-04-12T08:26:52.999Z</time></trkpt><trkpt lat="45.880183115851715" lon="11.48487665983995"><ele>1060.6</ele><time>2026-04-12T08:26:53.999Z</time></trkpt><trkpt lat="45.88016176687687" lon="11.485004928790492"><ele>1062.0</ele><time>2026-04-12T08:26:54.998Z</time></trkpt><trkpt lat="45.88014097062729" lon="11.4851433487805"><ele>1062.0</ele><time>2026-04-12T08:26:55.998Z</time></trkpt><trkpt lat="45.88011908728339" lon="11.485280725569549"><ele>1062.0</ele><time>2026-04-12T08:26:56.998Z</time></trkpt><trkpt lat="45.8800934252111" lon="11.485412771587288"><ele>1062.0</ele><time>2026-04-12T08:26:57.998Z</time></trkpt><trkpt lat="45.88007384305147" lon="11.485549290501911"><ele>1062.0</ele><time>2026-04-12T08:26:58.998Z</time></trkpt><trkpt lat="45.88005284070203" lon="11.485691197136948"><ele>1062.0</ele><time>2026-04-12T08:26:59.998Z</time></trkpt><trkpt lat="45.88004398632228" lon="11.485822200150333"><ele>1061.0</ele><time>2026-04-12T08:27:00.998Z</time></trkpt><trkpt lat="45.88000704622391" lon="11.485936399389459"><ele>1060.0</ele><time>2026-04-12T08:27:01.998Z</time></trkpt><trkpt lat="45.87996897936839" lon="11.486058296556246"><ele>1059.0</ele><time>2026-04-12T08:27:02.998Z</time></trkpt><trkpt lat="45.87996588425584" lon="11.486182136733643"><ele>1058.0</ele><time>2026-04-12T08:27:03.998Z</time></trkpt><trkpt lat="45.87996161126963" lon="11.4863192534264"><ele>1057.0</ele><time>2026-04-12T08:27:04.998Z</time></trkpt><trkpt lat="45.880050936605166" lon="11.486419870649273"><ele>1057.0</ele><time>2026-04-12T08:27:05.998Z</time></trkpt><trkpt lat="45.88005807508376" lon="11.48655653228654"><ele>1057.0</ele><time>2026-04-12T08:27:06.998Z</time></trkpt><trkpt lat="45.880072530425025" lon="11.486700620453783"><ele>1057.0</ele><time>2026-04-12T08:27:07.998Z</time></trkpt><trkpt lat="45.88011549394089" lon="11.486822738361786"><ele>1057.0</ele><time>2026-04-12T08:27:08.998Z</time></trkpt><trkpt lat="45.88014475546867" lon="11.486924369829477"><ele>1057.0</ele><time>2026-04-12T08:27:09.998Z</time></trkpt><trkpt lat="45.88017038994467" lon="11.487016538232393"><ele>1057.0</ele><time>2026-04-12T08:27:10.998Z</time></trkpt><trkpt lat="45.88018908192836" lon="11.48710559222068"><ele>1057.6666666666665</ele><time>2026-04-12T08:27:11.998Z</time></trkpt><trkpt lat="45.88020478561436" lon="11.487202702773981"><ele>1058.3333333333333</ele><time>2026-04-12T08:27:12.998Z</time></trkpt><trkpt lat="45.88021457406395" lon="11.487295080415953"><ele>1059.0</ele><time>2026-04-12T08:27:13.998Z</time></trkpt><trkpt lat="45.88022962711622" lon="11.487448376709885"><ele>1059.6666666666667</ele><time>2026-04-12T08:27:15.998Z</time></trkpt><trkpt lat="45.88024291888899" lon="11.487596707820032"><ele>1060.3333333333335</ele><time>2026-04-12T08:27:18Z</time></trkpt><trkpt lat="45.88025388957948" lon="11.487737170186117"><ele>1061.0</ele><time>2026-04-12T08:27:20Z</time></trkpt><trkpt lat="45.88026397506558" lon="11.487866991601535"><ele>1060.0</ele><time>2026-04-12T08:27:22Z</time></trkpt><trkpt lat="45.880287728832236" lon="11.487994009993315"><ele>1059.0</ele><time>2026-04-12T08:27:25Z</time></trkpt><trkpt lat="45.880319468580744" lon="11.488082792561736"><ele>1058.0</ele><time>2026-04-12T08:27:27Z</time></trkpt><trkpt lat="45.88039350978639" lon="11.48817948461677"><ele>1057.0</ele><time>2026-04-12T08:27:29Z</time></trkpt><trkpt lat="45.88046320898273" lon="11.48830317389975"><ele>1056.0</ele><time>2026-04-12T08:27:31Z</time></trkpt><trkpt lat="45.880480602548715" lon="11.48840424167959"><ele>1055.0</ele><time>2026-04-12T08:27:32Z</time></trkpt><trkpt lat="45.88048330653309" lon="11.488516805718207"><ele>1055.0</ele><time>2026-04-12T08:27:33Z</time></trkpt><trkpt lat="45.88047106042522" lon="11.488639549202198"><ele>1055.0</ele><time>2026-04-12T08:27:34Z</time></trkpt><trkpt lat="45.88043918302518" lon="11.488761728590093"><ele>1055.0</ele><time>2026-04-12T08:27:35Z</time></trkpt><trkpt lat="45.8803891976022" lon="11.488878139418372"><ele>1055.0</ele><time>2026-04-12T08:27:36Z</time></trkpt><trkpt lat="45.88033131193094" lon="11.488978897957244"><ele>1055.0</ele><time>2026-04-12T08:27:37Z</time></trkpt><trkpt lat="45.88026380492903" lon="11.489055083504475"><ele>1055.0</ele><time>2026-04-12T08:27:38Z</time></trkpt><trkpt lat="45.88018894503214" lon="11.489101938008183"><ele>1054.0</ele><time>2026-04-12T08:27:39Z</time></trkpt><trkpt lat="45.88010523026239" lon="11.48913953050122"><ele>1053.0</ele><time>2026-04-12T08:27:40Z</time></trkpt><trkpt lat="45.88001707920244" lon="11.489181988835092"><ele>1052.0</ele><time>2026-04-12T08:27:41Z</time></trkpt><trkpt lat="45.8799294782924" lon="11.48923208362499"><ele>1051.0</ele><time>2026-04-12T08:27:42Z</time></trkpt><trkpt lat="45.879842323564" lon="11.489258937604554"><ele>1050.0</ele><time>2026-04-12T08:27:43Z</time></trkpt><trkpt lat="45.8797501526825" lon="11.489307348770227"><ele>1050.0</ele><time>2026-04-12T08:27:44Z</time></trkpt><trkpt lat="45.87966088815431" lon="11.489355091371117"><ele>1050.0</ele><time>2026-04-12T08:27:45Z</time></trkpt><trkpt lat="45.87956487939036" lon="11.489397034263332"><ele>1050.0</ele><time>2026-04-12T08:27:46Z</time></trkpt><trkpt lat="45.879470831175645" lon="11.48943440723228"><ele>1050.0</ele><time>2026-04-12T08:27:47Z</time></trkpt><trkpt lat="45.87937411209961" lon="11.489488881672564"><ele>1050.0</ele><time>2026-04-12T08:27:48Z</time></trkpt><trkpt lat="45.87928298746616" lon="11.489529638642422"><ele>1049.6</ele><time>2026-04-12T08:27:49Z</time></trkpt><trkpt lat="45.8791843156269" lon="11.489575954910084"><ele>1049.2</ele><time>2026-04-12T08:27:50Z</time></trkpt><trkpt lat="45.879084556986385" lon="11.489621990889736"><ele>1048.8</ele><time>2026-04-12T08:27:51Z</time></trkpt><trkpt lat="45.87898005282708" lon="11.489674264899756"><ele>1048.4</ele><time>2026-04-12T08:27:52Z</time></trkpt><trkpt lat="45.87886688197331" lon="11.489731711289942"><ele>1048.0</ele><time>2026-04-12T08:27:53Z</time></trkpt><trkpt lat="45.87876188833966" lon="11.489779307736955"><ele>1046.3333333333333</ele><time>2026-04-12T08:27:54Z</time></trkpt><trkpt lat="45.87865858557039" lon="11.48981780405125"><ele>1044.6666666666665</ele><time>2026-04-12T08:27:55Z</time></trkpt><trkpt lat="45.878572576444995" lon="11.489854461292564"><ele>1043.0</ele><time>2026-04-12T08:27:56Z</time></trkpt><trkpt lat="45.878497093617" lon="11.489890905382504"><ele>1041.3333333333333</ele><time>2026-04-12T08:27:57Z</time></trkpt><trkpt lat="45.87843468003911" lon="11.489946890565417"><ele>1039.6666666666667</ele><time>2026-04-12T08:27:58Z</time></trkpt><trkpt lat="45.87838870271117" lon="11.490022818236907"><ele>1038.0</ele><time>2026-04-12T08:27:59Z</time></trkpt><trkpt lat="45.87836513231081" lon="11.490122479413605"><ele>1038.0</ele><time>2026-04-12T08:28:00Z</time></trkpt><trkpt lat="45.87839136334523" lon="11.49021108157592"><ele>1038.0</ele><time>2026-04-12T08:28:00.999Z</time></trkpt><trkpt lat="45.878453525539044" lon="11.490305962721513"><ele>1038.0</ele><time>2026-04-12T08:28:01.999Z</time></trkpt><trkpt lat="45.87855557308948" lon="11.49036324178078"><ele>1038.0</ele><time>2026-04-12T08:28:02.999Z</time></trkpt><trkpt lat="45.878671861912316" lon="11.490297799925498"><ele>1038.0</ele><time>2026-04-12T08:28:03.999Z</time></trkpt><trkpt lat="45.87878047173122" lon="11.490230684915947"><ele>1038.0</ele><time>2026-04-12T08:28:04.999Z</time></trkpt><trkpt lat="45.87887678807904" lon="11.49022929815814"><ele>1038.0</ele><time>2026-04-12T08:28:05.999Z</time></trkpt><trkpt lat="45.87895772544938" lon="11.490248547281453"><ele>1038.0</ele><time>2026-04-12T08:28:06.999Z</time></trkpt><trkpt lat="45.879045430709745" lon="11.49028236422295"><ele>1038.0</ele><time>2026-04-12T08:28:07.999Z</time></trkpt><trkpt lat="45.8791273258101" lon="11.49036093416839"><ele>1038.0</ele><time>2026-04-12T08:28:08.999Z</time></trkpt><trkpt lat="45.879183102296174" lon="11.490493061678409"><ele>1036.0</ele><time>2026-04-12T08:28:09.999Z</time></trkpt><trkpt lat="45.87926203628623" lon="11.490605105665164"><ele>1034.0</ele><time>2026-04-12T08:28:10.999Z</time></trkpt><trkpt lat="45.87931554928718" lon="11.490718608780142"><ele>1032.0</ele><time>2026-04-12T08:28:11.999Z</time></trkpt><trkpt lat="45.879375995999176" lon="11.490808960456658"><ele>1030.0</ele><time>2026-04-12T08:28:12.999Z</time></trkpt><trkpt lat="45.879442692510565" lon="11.490884433423673"><ele>1028.0</ele><time>2026-04-12T08:28:13.999Z</time></trkpt><trkpt lat="45.879525786317934" lon="11.490941043214038"><ele>1027.8</ele><time>2026-04-12T08:28:14.999Z</time></trkpt><trkpt lat="45.87962690443749" lon="11.490977148245792"><ele>1027.6</ele><time>2026-04-12T08:28:15.999Z</time></trkpt><trkpt lat="45.87973651462553" lon="11.490981397925639"><ele>1027.4</ele><time>2026-04-12T08:28:16.999Z</time></trkpt><trkpt lat="45.87984699159176" lon="11.490954849763742"><ele>1027.2</ele><time>2026-04-12T08:28:17.999Z</time></trkpt><trkpt lat="45.87995505269872" lon="11.490926260418945"><ele>1027.0</ele><time>2026-04-12T08:28:18.999Z</time></trkpt><trkpt lat="45.88005167815798" lon="11.490899930798168"><ele>1027.2</ele><time>2026-04-12T08:28:19.999Z</time></trkpt><trkpt lat="45.88014598663848" lon="11.490872305553104"><ele>1027.4</ele><time>2026-04-12T08:28:20.999Z</time></trkpt><trkpt lat="45.880236381751196" lon="11.490853783822775"><ele>1027.6</ele><time>2026-04-12T08:28:21.999Z</time></trkpt><trkpt lat="45.880323892643965" lon="11.490828927046433"><ele>1027.8</ele><time>2026-04-12T08:28:22.999Z</time></trkpt><trkpt lat="45.880415282312086" lon="11.49080798248567"><ele>1028.0</ele><time>2026-04-12T08:28:23.999Z</time></trkpt><trkpt lat="45.88050117732476" lon="11.490801861971514"><ele>1028.0</ele><time>2026-04-12T08:28:24.999Z</time></trkpt><trkpt lat="45.88058884440825" lon="11.490817164428693"><ele>1028.0</ele><time>2026-04-12T08:28:25.999Z</time></trkpt><trkpt lat="45.880665209419405" lon="11.490871626989291"><ele>1028.0</ele><time>2026-04-12T08:28:26.999Z</time></trkpt><trkpt lat="45.880728738330944" lon="11.490962779003087"><ele>1028.0</ele><time>2026-04-12T08:28:27.999Z</time></trkpt><trkpt lat="45.88077463512469" lon="11.491071998500274"><ele>1028.0</ele><time>2026-04-12T08:28:28.999Z</time></trkpt><trkpt lat="45.88082948210158" lon="11.49118356252567"><ele>1028.0</ele><time>2026-04-12T08:28:29.999Z</time></trkpt><trkpt lat="45.88089338916482" lon="11.491293663413769"><ele>1026.8</ele><time>2026-04-12T08:28:30.999Z</time></trkpt><trkpt lat="45.88095485426564" lon="11.491402745067516"><ele>1025.6</ele><time>2026-04-12T08:28:31.999Z</time></trkpt><trkpt lat="45.88100962266486" lon="11.491530081719457"><ele>1024.4</ele><time>2026-04-12T08:28:32.999Z</time></trkpt><trkpt lat="45.88105049594097" lon="11.491676796947454"><ele>1023.2</ele><time>2026-04-12T08:28:33.999Z</time></trkpt><trkpt lat="45.881069703191834" lon="11.49183053217811"><ele>1022.0</ele><time>2026-04-12T08:28:34.999Z</time></trkpt><trkpt lat="45.8810516090722" lon="11.491991791057385"><ele>1023.0</ele><time>2026-04-12T08:28:35.999Z</time></trkpt><trkpt lat="45.881016611159296" lon="11.492142020724579"><ele>1024.0</ele><time>2026-04-12T08:28:36.999Z</time></trkpt><trkpt lat="45.88095300327856" lon="11.492287597615524"><ele>1025.0</ele><time>2026-04-12T08:28:37.999Z</time></trkpt><trkpt lat="45.88086491463182" lon="11.492390021768635"><ele>1026.0</ele><time>2026-04-12T08:28:38.999Z</time></trkpt><trkpt lat="45.88079524727145" lon="11.492510326213381"><ele>1025.6666666666667</ele><time>2026-04-12T08:28:39.999Z</time></trkpt><trkpt lat="45.88072220699508" lon="11.492603189330234"><ele>1025.3333333333333</ele><time>2026-04-12T08:28:40.999Z</time></trkpt><trkpt lat="45.88066141731868" lon="11.49270139999131"><ele>1025.0</ele><time>2026-04-12T08:28:41.999Z</time></trkpt><trkpt lat="45.88059888132605" lon="11.492779311818767"><ele>1024.6666666666665</ele><time>2026-04-12T08:28:42.999Z</time></trkpt><trkpt lat="45.880535218779066" lon="11.492860076260255"><ele>1024.3333333333333</ele><time>2026-04-12T08:28:43.999Z</time></trkpt><trkpt lat="45.88046330368006" lon="11.492942546532227"><ele>1024.0</ele><time>2026-04-12T08:28:44.999Z</time></trkpt><trkpt lat="45.88038514403639" lon="11.493033911827316"><ele>1024.0</ele><time>2026-04-12T08:28:45.999Z</time></trkpt><trkpt lat="45.880302718556734" lon="11.493122562236294"><ele>1024.0</ele><time>2026-04-12T08:28:46.999Z</time></trkpt><trkpt lat="45.88021848900667" lon="11.493208984268582"><ele>1024.0</ele><time>2026-04-12T08:28:47.999Z</time></trkpt><trkpt lat="45.880130070894886" lon="11.493297140128568"><ele>1024.0</ele><time>2026-04-12T08:28:48.999Z</time></trkpt><trkpt lat="45.88004254933038" lon="11.493383111833458"><ele>1024.0</ele><time>2026-04-12T08:28:49.999Z</time></trkpt><trkpt lat="45.87995165561259" lon="11.493469655459924"><ele>1024.2</ele><time>2026-04-12T08:28:50.999Z</time></trkpt><trkpt lat="45.87985860092386" lon="11.493550588792749"><ele>1024.4</ele><time>2026-04-12T08:28:51.999Z</time></trkpt><trkpt lat="45.879769978466754" lon="11.493632146840854"><ele>1024.6</ele><time>2026-04-12T08:28:52.999Z</time></trkpt><trkpt lat="45.87968080127556" lon="11.493710640063794"><ele>1024.8</ele><time>2026-04-12T08:28:53.999Z</time></trkpt><trkpt lat="45.87959170259858" lon="11.493788158548302"><ele>1025.0</ele><time>2026-04-12T08:28:54.999Z</time></trkpt><trkpt lat="45.87950220051543" lon="11.493870500523947"><ele>1025.0</ele><time>2026-04-12T08:28:55.999Z</time></trkpt><trkpt lat="45.87941427582417" lon="11.49394914677628"><ele>1025.0</ele><time>2026-04-12T08:28:56.999Z</time></trkpt><trkpt lat="45.87932878222408" lon="11.494021783313219"><ele>1025.0</ele><time>2026-04-12T08:28:57.999Z</time></trkpt><trkpt lat="45.87924455673927" lon="11.494094946410318"><ele>1025.0</ele><time>2026-04-12T08:28:58.998Z</time></trkpt><trkpt lat="45.87916404871734" lon="11.494176742828216"><ele>1025.0</ele><time>2026-04-12T08:28:59.998Z</time></trkpt><trkpt lat="45.879090048469244" lon="11.494272170574572"><ele>1024.6</ele><time>2026-04-12T08:29:00.998Z</time></trkpt><trkpt lat="45.8790295936948" lon="11.494387645589958"><ele>1024.2</ele><time>2026-04-12T08:29:01.998Z</time></trkpt><trkpt lat="45.87897642882699" lon="11.494522950328845"><ele>1023.8</ele><time>2026-04-12T08:29:02.998Z</time></trkpt><trkpt lat="45.87893651846802" lon="11.494669756283763"><ele>1023.4</ele><time>2026-04-12T08:29:03.998Z</time></trkpt><trkpt lat="45.87890842949901" lon="11.49482449981389"><ele>1023.0</ele><time>2026-04-12T08:29:04.998Z</time></trkpt><trkpt lat="45.87889375817935" lon="11.494990669822158"><ele>1023.5</ele><time>2026-04-12T08:29:05.998Z</time></trkpt><trkpt lat="45.878888653919326" lon="11.495167107817226"><ele>1024.0</ele><time>2026-04-12T08:29:06.998Z</time></trkpt><trkpt lat="45.87887881406973" lon="11.49534534970728"><ele>1024.5</ele><time>2026-04-12T08:29:07.998Z</time></trkpt><trkpt lat="45.87886367931104" lon="11.49552481690176"><ele>1025.0</ele><time>2026-04-12T08:29:08.998Z</time></trkpt><trkpt lat="45.878844273009" lon="11.495705090406657"><ele>1025.0</ele><time>2026-04-12T08:29:09.998Z</time></trkpt><trkpt lat="45.87881345545285" lon="11.495887246974226"><ele>1025.0</ele><time>2026-04-12T08:29:10.998Z</time></trkpt><trkpt lat="45.878771829152555" lon="11.49604465289061"><ele>1025.0</ele><time>2026-04-12T08:29:11.998Z</time></trkpt><trkpt lat="45.87871587547452" lon="11.496202377044145"><ele>1025.0</ele><time>2026-04-12T08:29:12.998Z</time></trkpt><trkpt lat="45.878644325635754" lon="11.496354937840266"><ele>1025.0</ele><time>2026-04-12T08:29:13.998Z</time></trkpt><trkpt lat="45.878557435411004" lon="11.49650173625905"><ele>1025.0</ele><time>2026-04-12T08:29:14.998Z</time></trkpt><trkpt lat="45.87846334647349" lon="11.496641362801284"><ele>1025.0</ele><time>2026-04-12T08:29:15.998Z</time></trkpt><trkpt lat="45.87835438566186" lon="11.496781186198515"><ele>1025.0</ele><time>2026-04-12T08:29:16.998Z</time></trkpt><trkpt lat="45.8782603463357" lon="11.496909867178848"><ele>1025.0</ele><time>2026-04-12T08:29:17.998Z</time></trkpt><trkpt lat="45.87815766821635" lon="11.497037502370969"><ele>1025.0</ele><time>2026-04-12T08:29:18.998Z</time></trkpt><trkpt lat="45.87805767925012" lon="11.49716081883295"><ele>1025.0</ele><time>2026-04-12T08:29:19.998Z</time></trkpt><trkpt lat="45.8779560021391" lon="11.497294773862487"><ele>1025.0</ele><time>2026-04-12T08:29:20.998Z</time></trkpt><trkpt lat="45.87785484229994" lon="11.497424197895086"><ele>1025.0</ele><time>2026-04-12T08:29:21.998Z</time></trkpt><trkpt lat="45.877760952747686" lon="11.497540215249424"><ele>1025.0</ele><time>2026-04-12T08:29:22.998Z</time></trkpt><trkpt lat="45.877666558680154" lon="11.497648623379012"><ele>1025.0</ele><time>2026-04-12T08:29:24Z</time></trkpt><trkpt lat="45.877570671497836" lon="11.497750234870505"><ele>1025.0</ele><time>2026-04-12T08:29:25Z</time></trkpt><trkpt lat="45.87748142873034" lon="11.49786975259915"><ele>1025.0</ele><time>2026-04-12T08:29:26Z</time></trkpt><trkpt lat="45.877383762559205" lon="11.497993958296965"><ele>1025.0</ele><time>2026-04-12T08:29:27Z</time></trkpt><trkpt lat="45.877278979493155" lon="11.498119773543559"><ele>1025.0</ele><time>2026-04-12T08:29:28Z</time></trkpt><trkpt lat="45.87716814468633" lon="11.49823952931893"><ele>1025.0</ele><time>2026-04-12T08:29:29Z</time></trkpt><trkpt lat="45.877065333848456" lon="11.498363034885724"><ele>1025.0</ele><time>2026-04-12T08:29:30Z</time></trkpt><trkpt lat="45.87695926113071" lon="11.49849302450436"><ele>1025.0</ele><time>2026-04-12T08:29:31Z</time></trkpt><trkpt lat="45.876849988165155" lon="11.498614246838837"><ele>1025.0</ele><time>2026-04-12T08:29:32Z</time></trkpt><trkpt lat="45.876745175639705" lon="11.498736717915014"><ele>1025.0</ele><time>2026-04-12T08:29:33Z</time></trkpt><trkpt lat="45.8766389546069" lon="11.498858996573327"><ele>1024.25</ele><time>2026-04-12T08:29:34Z</time></trkpt><trkpt lat="45.876538787045284" lon="11.498981123550648"><ele>1023.5</ele><time>2026-04-12T08:29:35Z</time></trkpt><trkpt lat="45.87643838490903" lon="11.499102490679855"><ele>1022.75</ele><time>2026-04-12T08:29:36Z</time></trkpt><trkpt lat="45.8763434702192" lon="11.499223691995097"><ele>1022.0</ele><time>2026-04-12T08:29:37Z</time></trkpt><trkpt lat="45.87623923480156" lon="11.499354587683225"><ele>1022.0</ele><time>2026-04-12T08:29:38Z</time></trkpt><trkpt lat="45.87613681064746" lon="11.49948824933299"><ele>1022.0</ele><time>2026-04-12T08:29:39Z</time></trkpt><trkpt lat="45.87604573198627" lon="11.499618195934278"><ele>1022.0</ele><time>2026-04-12T08:29:40Z</time></trkpt><trkpt lat="45.87595969124999" lon="11.499741136187119"><ele>1022.0</ele><time>2026-04-12T08:29:41Z</time></trkpt><trkpt lat="45.8758782919207" lon="11.499865352936734"><ele>1022.0</ele><time>2026-04-12T08:29:42Z</time></trkpt><trkpt lat="45.875790311539085" lon="11.500002939083021"><ele>1022.0</ele><time>2026-04-12T08:29:43Z</time></trkpt><trkpt lat="45.87570657357885" lon="11.500155965349828"><ele>1022.0</ele><time>2026-04-12T08:29:44Z</time></trkpt><trkpt lat="45.87563213374062" lon="11.500320743353823"><ele>1022.0</ele><time>2026-04-12T08:29:45Z</time></trkpt><trkpt lat="45.875579538501334" lon="11.500504870910094"><ele>1021.0</ele><time>2026-04-12T08:29:46Z</time></trkpt><trkpt lat="45.87554466502297" lon="11.500712259698247"><ele>1020.0</ele><time>2026-04-12T08:29:47Z</time></trkpt><trkpt lat="45.87552833752244" lon="11.500928588789375"><ele>1019.0</ele><time>2026-04-12T08:29:48Z</time></trkpt><trkpt lat="45.87552797782557" lon="11.501147306076826"><ele>1018.0</ele><time>2026-04-12T08:29:49Z</time></trkpt><trkpt lat="45.87554546992741" lon="11.501363790878665"><ele>1017.0</ele><time>2026-04-12T08:29:50Z</time></trkpt><trkpt lat="45.875576570013315" lon="11.501566998768293"><ele>1016.0</ele><time>2026-04-12T08:29:51Z</time></trkpt><trkpt lat="45.875612975165026" lon="11.501750196836218"><ele>1015.0</ele><time>2026-04-12T08:29:52Z</time></trkpt><trkpt lat="45.87564839187288" lon="11.50192490147736"><ele>1015.0</ele><time>2026-04-12T08:29:53Z</time></trkpt><trkpt lat="45.8756664305933" lon="11.502093112825301"><ele>1015.0</ele><time>2026-04-12T08:29:54Z</time></trkpt><trkpt lat="45.87569273326793" lon="11.502251095898323"><ele>1015.0</ele><time>2026-04-12T08:29:55Z</time></trkpt><trkpt lat="45.8757104975657" lon="11.502426884195849"><ele>1015.0</ele><time>2026-04-12T08:29:56Z</time></trkpt><trkpt lat="45.87570485667841" lon="11.502585329599054"><ele>1015.0</ele><time>2026-04-12T08:29:57Z</time></trkpt><trkpt lat="45.875684733550735" lon="11.502743648642896"><ele>1015.0</ele><time>2026-04-12T08:29:58Z</time></trkpt><trkpt lat="45.875652104190124" lon="11.50289780430361"><ele>1015.0</ele><time>2026-04-12T08:29:59Z</time></trkpt><trkpt lat="45.875615708778476" lon="11.50305473021388"><ele>1015.0</ele><time>2026-04-12T08:30:00Z</time></trkpt><trkpt lat="45.875580876124545" lon="11.503199864924522"><ele>1015.0</ele><time>2026-04-12T08:30:01Z</time></trkpt><trkpt lat="45.87556249559129" lon="11.50334432908907"><ele>1014.4999999999999</ele><time>2026-04-12T08:30:02Z</time></trkpt><trkpt lat="45.875515534826995" lon="11.503461657518319"><ele>1014.0</ele><time>2026-04-12T08:30:03Z</time></trkpt><trkpt lat="45.87548860916613" lon="11.503564698620037"><ele>1013.5</ele><time>2026-04-12T08:30:04Z</time></trkpt><trkpt lat="45.87546309599634" lon="11.503655887190991"><ele>1013.0</ele><time>2026-04-12T08:30:05Z</time></trkpt><trkpt lat="45.87545374441073" lon="11.503750675867709"><ele>1012.4999999999999</ele><time>2026-04-12T08:30:06Z</time></trkpt><trkpt lat="45.87542010832022" lon="11.503836132721585"><ele>1012.0</ele><time>2026-04-12T08:30:07Z</time></trkpt><trkpt lat="45.87538122839298" lon="11.50393885776723"><ele>1012.1666666666666</ele><time>2026-04-12T08:30:07.999Z</time></trkpt><trkpt lat="45.875322123673264" lon="11.504033723118917"><ele>1012.3333333333333</ele><time>2026-04-12T08:30:08.999Z</time></trkpt><trkpt lat="45.875279956554515" lon="11.504126414536113"><ele>1012.5</ele><time>2026-04-12T08:30:09.999Z</time></trkpt><trkpt lat="45.875244221197995" lon="11.504204091307955"><ele>1012.6666666666667</ele><time>2026-04-12T08:30:10.999Z</time></trkpt><trkpt lat="45.87518779837861" lon="11.504323626695339"><ele>1012.8333333333334</ele><time>2026-04-12T08:30:12.999Z</time></trkpt><trkpt lat="45.87514242375257" lon="11.50439755865926"><ele>1013.0</ele><time>2026-04-12T08:30:14.999Z</time></trkpt><trkpt lat="45.87508478796385" lon="11.504507647606646"><ele>1013.0000000000001</ele><time>2026-04-12T08:30:28.999Z</time></trkpt><trkpt lat="45.8750243701078" lon="11.504617977473227"><ele>1013.0</ele><time>2026-04-12T08:30:30.999Z</time></trkpt><trkpt lat="45.874981006113714" lon="11.504689379795687"><ele>1013.0</ele><time>2026-04-12T08:30:31.999Z</time></trkpt><trkpt lat="45.874895486028706" lon="11.504790105003236"><ele>1013.0</ele><time>2026-04-12T08:30:33.999Z</time></trkpt><trkpt lat="45.874849258772386" lon="11.504851538352858"><ele>1013.0000000000001</ele><time>2026-04-12T08:30:34.999Z</time></trkpt><trkpt lat="45.87479335397864" lon="11.504915408531193"><ele>1013.0</ele><time>2026-04-12T08:30:35.999Z</time></trkpt><trkpt lat="45.874728793763914" lon="11.504981024874832"><ele>1013.0</ele><time>2026-04-12T08:30:36.999Z</time></trkpt><trkpt lat="45.874662789110744" lon="11.505072820706289"><ele>1013.0</ele><time>2026-04-12T08:30:37.999Z</time></trkpt><trkpt lat="45.87457238836696" lon="11.50513670030025"><ele>1013.0</ele><time>2026-04-12T08:30:38.999Z</time></trkpt><trkpt lat="45.87448634548389" lon="11.505197330088215"><ele>1013.0</ele><time>2026-04-12T08:30:39.999Z</time></trkpt><trkpt lat="45.87439975539298" lon="11.505256369590509"><ele>1013.0</ele><time>2026-04-12T08:30:40.999Z</time></trkpt><trkpt lat="45.87430499184269" lon="11.505315364222433"><ele>1012.5999999999999</ele><time>2026-04-12T08:30:41.999Z</time></trkpt><trkpt lat="45.874206659104" lon="11.505352425515248"><ele>1012.1999999999999</ele><time>2026-04-12T08:30:42.999Z</time></trkpt><trkpt lat="45.87411755870064" lon="11.505407696811165"><ele>1011.8</ele><time>2026-04-12T08:30:43.999Z</time></trkpt><trkpt lat="45.8740285248312" lon="11.505464760730314"><ele>1011.4</ele><time>2026-04-12T08:30:44.999Z</time></trkpt><trkpt lat="45.873951197699824" lon="11.505532072996147"><ele>1011.0</ele><time>2026-04-12T08:30:45.999Z</time></trkpt><trkpt lat="45.87386973690172" lon="11.50557468896358"><ele>1011.6666666666666</ele><time>2026-04-12T08:30:46.999Z</time></trkpt><trkpt lat="45.873787530087164" lon="11.505603485961299"><ele>1012.3333333333333</ele><time>2026-04-12T08:30:47.999Z</time></trkpt><trkpt lat="45.87370779287955" lon="11.505604293807961"><ele>1013.0</ele><time>2026-04-12T08:30:48.999Z</time></trkpt><trkpt lat="45.87362709771952" lon="11.505570743981822"><ele>1013.6666666666666</ele><time>2026-04-12T08:30:49.999Z</time></trkpt><trkpt lat="45.873560463505015" lon="11.505522600220683"><ele>1014.3333333333333</ele><time>2026-04-12T08:30:50.999Z</time></trkpt><trkpt lat="45.873493873674825" lon="11.505500881254385"><ele>1015.0</ele><time>2026-04-12T08:30:51.999Z</time></trkpt><trkpt lat="45.873433439639584" lon="11.505533631593922"><ele>1013.3333333333333</ele><time>2026-04-12T08:30:52.999Z</time></trkpt><trkpt lat="45.873390725266404" lon="11.505622588304476"><ele>1011.6666666666666</ele><time>2026-04-12T08:30:53.999Z</time></trkpt><trkpt lat="45.873367091904086" lon="11.505751583024697"><ele>1010.0</ele><time>2026-04-12T08:30:54.999Z</time></trkpt><trkpt lat="45.87334593189364" lon="11.505867731838975"><ele>1008.3333333333333</ele><time>2026-04-12T08:30:55.999Z</time></trkpt><trkpt lat="45.87331437691589" lon="11.505991687848384"><ele>1006.6666666666666</ele><time>2026-04-12T08:30:56.999Z</time></trkpt><trkpt lat="45.873278523109974" lon="11.506119913434008"><ele>1005.0</ele><time>2026-04-12T08:30:57.999Z</time></trkpt><trkpt lat="45.87323044726893" lon="11.506245347470696"><ele>1004.6</ele><time>2026-04-12T08:30:58.999Z</time></trkpt><trkpt lat="45.873174748638874" lon="11.506364393518464"><ele>1004.2</ele><time>2026-04-12T08:30:59.999Z</time></trkpt><trkpt lat="45.873100755844014" lon="11.506468179151492"><ele>1003.8</ele><time>2026-04-12T08:31:00.999Z</time></trkpt><trkpt lat="45.87302033213382" lon="11.506560699847308"><ele>1003.4</ele><time>2026-04-12T08:31:01.999Z</time></trkpt><trkpt lat="45.872929217742566" lon="11.50661995685023"><ele>1003.0</ele><time>2026-04-12T08:31:02.999Z</time></trkpt><trkpt lat="45.87285473384295" lon="11.506707592112681"><ele>1003.0</ele><time>2026-04-12T08:31:03.999Z</time></trkpt><trkpt lat="45.872773319274366" lon="11.506767147073065"><ele>1003.0</ele><time>2026-04-12T08:31:04.999Z</time></trkpt><trkpt lat="45.87269345954617" lon="11.50682007489172"><ele>1003.0</ele><time>2026-04-12T08:31:05.999Z</time></trkpt><trkpt lat="45.87261394427409" lon="11.506856139465928"><ele>1003.0</ele><time>2026-04-12T08:31:06.998Z</time></trkpt><trkpt lat="45.87254728561903" lon="11.507005766858855"><ele>1003.0</ele><time>2026-04-12T08:31:07.998Z</time></trkpt><trkpt lat="45.87254108986804" lon="11.507110258475215"><ele>1002.8</ele><time>2026-04-12T08:31:08.998Z</time></trkpt><trkpt lat="45.8725091829672" lon="11.507249498703034"><ele>1002.5999999999999</ele><time>2026-04-12T08:31:09.998Z</time></trkpt><trkpt lat="45.872492908476765" lon="11.507399202326638"><ele>1002.4000000000001</ele><time>2026-04-12T08:31:10.998Z</time></trkpt><trkpt lat="45.87247494735055" lon="11.507537057399729"><ele>1002.2</ele><time>2026-04-12T08:31:11.998Z</time></trkpt><trkpt lat="45.8724594496366" lon="11.507669771974443"><ele>1002.0</ele><time>2026-04-12T08:31:12.998Z</time></trkpt><trkpt lat="45.87243900522102" lon="11.507800228862326"><ele>1002.0</ele><time>2026-04-12T08:31:13.998Z</time></trkpt><trkpt lat="45.87242112204983" lon="11.507904284464196"><ele>1002.0</ele><time>2026-04-12T08:31:14.998Z</time></trkpt><trkpt lat="45.8724040629046" lon="11.50801830638626"><ele>1002.0</ele><time>2026-04-12T08:31:16.998Z</time></trkpt><trkpt lat="45.87239513683214" lon="11.508118047711717"><ele>1002.0</ele><time>2026-04-12T08:31:21.998Z</time></trkpt><trkpt lat="45.87237951652517" lon="11.508253678582788"><ele>1002.0</ele><time>2026-04-12T08:31:23.998Z</time></trkpt><trkpt lat="45.87235773084192" lon="11.508407942788667"><ele>1002.0</ele><time>2026-04-12T08:31:25.998Z</time></trkpt><trkpt lat="45.872339722269636" lon="11.508570952016846"><ele>1000.8</ele><time>2026-04-12T08:31:27.998Z</time></trkpt><trkpt lat="45.87231263776056" lon="11.50876612589083"><ele>999.6</ele><time>2026-04-12T08:31:30Z</time></trkpt><trkpt lat="45.87229591712174" lon="11.508892730171153"><ele>998.3999999999999</ele><time>2026-04-12T08:31:31Z</time></trkpt><trkpt lat="45.87226873221897" lon="11.509028824798634"><ele>997.1999999999999</ele><time>2026-04-12T08:31:32Z</time></trkpt><trkpt lat="45.87225816196176" lon="11.50913049588543"><ele>996.0</ele><time>2026-04-12T08:31:33Z</time></trkpt><trkpt lat="45.872251635698305" lon="11.509220662043838"><ele>996.0</ele><time>2026-04-12T08:31:34Z</time></trkpt><trkpt lat="45.87222882588886" lon="11.509367759083958"><ele>996.0</ele><time>2026-04-12T08:31:36Z</time></trkpt><trkpt lat="45.87221630773651" lon="11.509488566781156"><ele>996.0</ele><time>2026-04-12T08:31:38Z</time></trkpt><trkpt lat="45.87219542345904" lon="11.509604730769869"><ele>996.0</ele><time>2026-04-12T08:31:41Z</time></trkpt><trkpt lat="45.87217743515891" lon="11.5096951072538"><ele>996.0</ele><time>2026-04-12T08:31:43Z</time></trkpt><trkpt lat="45.87216209206659" lon="11.509808320771869"><ele>996.0</ele><time>2026-04-12T08:31:45Z</time></trkpt><trkpt lat="45.87213150092116" lon="11.509956459333988"><ele>996.0</ele><time>2026-04-12T08:31:47Z</time></trkpt><trkpt lat="45.87210960240702" lon="11.510041528462136"><ele>996.0</ele><time>2026-04-12T08:31:48Z</time></trkpt><trkpt lat="45.87202443933049" lon="11.510144243147014"><ele>996.0</ele><time>2026-04-12T08:31:50Z</time></trkpt><trkpt lat="45.871962277492926" lon="11.510186442761643"><ele>996.0</ele><time>2026-04-12T08:31:51Z</time></trkpt><trkpt lat="45.871902172631316" lon="11.510217483987711"><ele>996.0</ele><time>2026-04-12T08:31:52Z</time></trkpt><trkpt lat="45.87180579573933" lon="11.510266048602197"><ele>996.0</ele><time>2026-04-12T08:31:54Z</time></trkpt><trkpt lat="45.871691849595514" lon="11.510336225222044"><ele>996.0</ele><time>2026-04-12T08:31:56Z</time></trkpt><trkpt lat="45.87162423053074" lon="11.510372116759434"><ele>996.0</ele><time>2026-04-12T08:31:57Z</time></trkpt><trkpt lat="45.871550215634414" lon="11.510425284863778"><ele>996.0</ele><time>2026-04-12T08:31:58Z</time></trkpt><trkpt lat="45.87147334983581" lon="11.510470701899955"><ele>996.0</ele><time>2026-04-12T08:31:59Z</time></trkpt><trkpt lat="45.87141432502961" lon="11.510524279095609"><ele>996.0</ele><time>2026-04-12T08:32:00Z</time></trkpt><trkpt lat="45.871354328663365" lon="11.510580587537962"><ele>996.0</ele><time>2026-04-12T08:32:01Z</time></trkpt><trkpt lat="45.871313374004274" lon="11.510668916918629"><ele>996.0</ele><time>2026-04-12T08:32:02Z</time></trkpt><trkpt lat="45.8712806228309" lon="11.510761227675525"><ele>996.0</ele><time>2026-04-12T08:32:03Z</time></trkpt><trkpt lat="45.87128568772295" lon="11.510891791458851"><ele>996.0</ele><time>2026-04-12T08:32:04Z</time></trkpt><trkpt lat="45.87130794367027" lon="11.511012988841141"><ele>996.0</ele><time>2026-04-12T08:32:05Z</time></trkpt><trkpt lat="45.871336131708425" lon="11.511139256028425"><ele>996.0</ele><time>2026-04-12T08:32:06Z</time></trkpt><trkpt lat="45.871359090213964" lon="11.511256727037736"><ele>996.0</ele><time>2026-04-12T08:32:07Z</time></trkpt><trkpt lat="45.87138119875145" lon="11.511383205024709"><ele>996.1666666666666</ele><time>2026-04-12T08:32:08Z</time></trkpt><trkpt lat="45.87140005735683" lon="11.511509475382159"><ele>996.3333333333333</ele><time>2026-04-12T08:32:09Z</time></trkpt><trkpt lat="45.871417301986355" lon="11.51161995775548"><ele>996.5</ele><time>2026-04-12T08:32:10Z</time></trkpt><trkpt lat="45.87143540085448" lon="11.511721775374216"><ele>996.6666666666666</ele><time>2026-04-12T08:32:11Z</time></trkpt><trkpt lat="45.87144689058486" lon="11.511816343782126"><ele>996.8333333333333</ele><time>2026-04-12T08:32:12Z</time></trkpt><trkpt lat="45.87140943081508" lon="11.511995155484815"><ele>997.0</ele><time>2026-04-12T08:32:13.999Z</time></trkpt><trkpt lat="45.87134870506616" lon="11.512082326536857"><ele>997.0</ele><time>2026-04-12T08:32:14.999Z</time></trkpt><trkpt lat="45.871295641297486" lon="11.512176174659363"><ele>997.0</ele><time>2026-04-12T08:32:15.999Z</time></trkpt><trkpt lat="45.871200205663506" lon="11.512227302569906"><ele>997.0</ele><time>2026-04-12T08:32:16.999Z</time></trkpt><trkpt lat="45.87111797522808" lon="11.51230546453216"><ele>997.0</ele><time>2026-04-12T08:32:17.999Z</time></trkpt><trkpt lat="45.87102532353651" lon="11.51238458604701"><ele>997.0</ele><time>2026-04-12T08:32:18.999Z</time></trkpt><trkpt lat="45.87093769490521" lon="11.512469248793868"><ele>997.0</ele><time>2026-04-12T08:32:19.999Z</time></trkpt><trkpt lat="45.87084312319031" lon="11.512555323710734"><ele>997.0</ele><time>2026-04-12T08:32:20.999Z</time></trkpt><trkpt lat="45.87074583366504" lon="11.512641316106683"><ele>997.0</ele><time>2026-04-12T08:32:21.999Z</time></trkpt><trkpt lat="45.870632553166026" lon="11.51272760360253"><ele>997.0</ele><time>2026-04-12T08:32:22.999Z</time></trkpt><trkpt lat="45.870517284156044" lon="11.512815679618468"><ele>997.0</ele><time>2026-04-12T08:32:23.999Z</time></trkpt><trkpt lat="45.87040313344348" lon="11.512892630429509"><ele>997.0</ele><time>2026-04-12T08:32:24.999Z</time></trkpt><trkpt lat="45.870279675463856" lon="11.512963414294932"><ele>997.0</ele><time>2026-04-12T08:32:25.999Z</time></trkpt><trkpt lat="45.87016435216449" lon="11.513047787540444"><ele>997.0</ele><time>2026-04-12T08:32:26.999Z</time></trkpt><trkpt lat="45.87004416472632" lon="11.513127165213078"><ele>997.0</ele><time>2026-04-12T08:32:27.999Z</time></trkpt><trkpt lat="45.869924667504485" lon="11.513215736032638"><ele>997.0</ele><time>2026-04-12T08:32:28.999Z</time></trkpt><trkpt lat="45.86981699327183" lon="11.513318145619074"><ele>997.0</ele><time>2026-04-12T08:32:29.999Z</time></trkpt><trkpt lat="45.869711326893125" lon="11.513430518666656"><ele>997.0</ele><time>2026-04-12T08:32:30.999Z</time></trkpt><trkpt lat="45.86961659848427" lon="11.513557248349612"><ele>997.0</ele><time>2026-04-12T08:32:31.999Z</time></trkpt><trkpt lat="45.86953554302923" lon="11.513689705423804"><ele>997.0</ele><time>2026-04-12T08:32:32.999Z</time></trkpt><trkpt lat="45.86946753642775" lon="11.513842702594118"><ele>997.0</ele><time>2026-04-12T08:32:33.999Z</time></trkpt><trkpt lat="45.8694216805114" lon="11.51403034145244"><ele>997.0</ele><time>2026-04-12T08:32:34.999Z</time></trkpt><trkpt lat="45.86938899902211" lon="11.514239448477284"><ele>995.6666666666666</ele><time>2026-04-12T08:32:35.999Z</time></trkpt><trkpt lat="45.869353222279436" lon="11.51446167413444"><ele>994.3333333333333</ele><time>2026-04-12T08:32:36.999Z</time></trkpt><trkpt lat="45.86929986690388" lon="11.514686684916535"><ele>993.0</ele><time>2026-04-12T08:32:37.999Z</time></trkpt><trkpt lat="45.869228846661606" lon="11.514907881032657"><ele>993.0</ele><time>2026-04-12T08:32:38.999Z</time></trkpt><trkpt lat="45.86912580625493" lon="11.515106014793046"><ele>993.0</ele><time>2026-04-12T08:32:39.999Z</time></trkpt><trkpt lat="45.869030791574176" lon="11.515313758235616"><ele>993.0</ele><time>2026-04-12T08:32:40.999Z</time></trkpt><trkpt lat="45.86894874811803" lon="11.515525740831146"><ele>993.25</ele><time>2026-04-12T08:32:41.999Z</time></trkpt><trkpt lat="45.86886018779336" lon="11.515707074800906"><ele>993.5</ele><time>2026-04-12T08:32:42.999Z</time></trkpt><trkpt lat="45.86878615294216" lon="11.51587211485434"><ele>993.75</ele><time>2026-04-12T08:32:43.999Z</time></trkpt><trkpt lat="45.86871880807416" lon="11.516019593698074"><ele>994.0</ele><time>2026-04-12T08:32:44.999Z</time></trkpt><trkpt lat="45.86865679992466" lon="11.516153155843122"><ele>993.8333333333333</ele><time>2026-04-12T08:32:45.999Z</time></trkpt><trkpt lat="45.86860185674833" lon="11.516283517401922"><ele>993.6666666666666</ele><time>2026-04-12T08:32:46.999Z</time></trkpt><trkpt lat="45.86854699354284" lon="11.516404185071956"><ele>993.5</ele><time>2026-04-12T08:32:47.999Z</time></trkpt><trkpt lat="45.86849584393009" lon="11.516509145019295"><ele>993.3333333333333</ele><time>2026-04-12T08:32:48.999Z</time></trkpt><trkpt lat="45.868452550467026" lon="11.516607294695582"><ele>993.1666666666666</ele><time>2026-04-12T08:32:49.999Z</time></trkpt><trkpt lat="45.86841455622221" lon="11.516694190561093"><ele>993.0</ele><time>2026-04-12T08:32:50.999Z</time></trkpt><trkpt lat="45.868368250941366" lon="11.516766534544846"><ele>993.0</ele><time>2026-04-12T08:32:51.999Z</time></trkpt><trkpt lat="45.868424923393555" lon="11.516971834672818"><ele>993.0</ele><time>2026-04-12T08:32:53.999Z</time></trkpt><trkpt lat="45.868471363539996" lon="11.517073978566868"><ele>993.0</ele><time>2026-04-12T08:32:54.999Z</time></trkpt><trkpt lat="45.868493428974986" lon="11.517206080076742"><ele>993.0</ele><time>2026-04-12T08:32:55.999Z</time></trkpt><trkpt lat="45.86852776504564" lon="11.517340865266016"><ele>993.0</ele><time>2026-04-12T08:32:56.999Z</time></trkpt><trkpt lat="45.86856780271212" lon="11.517492105292343"><ele>994.5</ele><time>2026-04-12T08:32:57.999Z</time></trkpt><trkpt lat="45.86861512732677" lon="11.517654045948037"><ele>996.0</ele><time>2026-04-12T08:32:58.999Z</time></trkpt><trkpt lat="45.86866239878923" lon="11.517815177105176"><ele>997.5</ele><time>2026-04-12T08:32:59.999Z</time></trkpt><trkpt lat="45.86871266726146" lon="11.517978072263816"><ele>999.0</ele><time>2026-04-12T08:33:00.999Z</time></trkpt><trkpt lat="45.86876443362109" lon="11.518153493159273"><ele>999.0</ele><time>2026-04-12T08:33:01.999Z</time></trkpt><trkpt lat="45.86880684763573" lon="11.518331027322457"><ele>999.0</ele><time>2026-04-12T08:33:02.999Z</time></trkpt><trkpt lat="45.868844056183804" lon="11.51851650714116"><ele>999.0</ele><time>2026-04-12T08:33:03.999Z</time></trkpt><trkpt lat="45.868879367285075" lon="11.51869844232558"><ele>999.0</ele><time>2026-04-12T08:33:04.999Z</time></trkpt><trkpt lat="45.868906777284494" lon="11.518886482560088"><ele>999.0</ele><time>2026-04-12T08:33:05.999Z</time></trkpt><trkpt lat="45.86892372266505" lon="11.519086987307222"><ele>999.0</ele><time>2026-04-12T08:33:06.999Z</time></trkpt><trkpt lat="45.86893165824914" lon="11.519303025640877"><ele>999.0</ele><time>2026-04-12T08:33:07.999Z</time></trkpt><trkpt lat="45.86892430554331" lon="11.519523845869816"><ele>999.0</ele><time>2026-04-12T08:33:08.999Z</time></trkpt><trkpt lat="45.868909266307845" lon="11.519762121273377"><ele>999.0</ele><time>2026-04-12T08:33:09.999Z</time></trkpt><trkpt lat="45.868908060989206" lon="11.520018290627167"><ele>999.0</ele><time>2026-04-12T08:33:10.998Z</time></trkpt><trkpt lat="45.86887720353727" lon="11.520268621016994"><ele>999.0</ele><time>2026-04-12T08:33:11.998Z</time></trkpt><trkpt lat="45.86887711357604" lon="11.520528908627435"><ele>999.6666666666667</ele><time>2026-04-12T08:33:12.998Z</time></trkpt><trkpt lat="45.86891317230648" lon="11.520772482657776"><ele>1000.3333333333334</ele><time>2026-04-12T08:33:13.998Z</time></trkpt><trkpt lat="45.86895063326883" lon="11.521014066130785"><ele>1001.0</ele><time>2026-04-12T08:33:14.998Z</time></trkpt><trkpt lat="45.86900011492575" lon="11.521252912578987"><ele>1001.3333333333334</ele><time>2026-04-12T08:33:15.998Z</time></trkpt><trkpt lat="45.86904384937273" lon="11.521505808627893"><ele>1001.6666666666667</ele><time>2026-04-12T08:33:16.998Z</time></trkpt><trkpt lat="45.86905463068508" lon="11.521777475196153"><ele>1002.0</ele><time>2026-04-12T08:33:17.998Z</time></trkpt><trkpt lat="45.86906700879907" lon="11.522063189653759"><ele>1001.6666666666667</ele><time>2026-04-12T08:33:18.998Z</time></trkpt><trkpt lat="45.86908032295446" lon="11.522335568501285"><ele>1001.3333333333334</ele><time>2026-04-12T08:33:19.998Z</time></trkpt><trkpt lat="45.86910178834543" lon="11.522577070383711"><ele>1001.0</ele><time>2026-04-12T08:33:20.998Z</time></trkpt><trkpt lat="45.869104130295206" lon="11.522804227225254"><ele>1001.3333333333334</ele><time>2026-04-12T08:33:21.998Z</time></trkpt><trkpt lat="45.869108896490154" lon="11.523018605446074"><ele>1001.6666666666667</ele><time>2026-04-12T08:33:22.998Z</time></trkpt><trkpt lat="45.869076889081256" lon="11.523249228843891"><ele>1002.0</ele><time>2026-04-12T08:33:23.998Z</time></trkpt><trkpt lat="45.86902188335288" lon="11.523482133985528"><ele>1002.3333333333333</ele><time>2026-04-12T08:33:24.998Z</time></trkpt><trkpt lat="45.86895103198554" lon="11.523746472309206"><ele>1002.6666666666666</ele><time>2026-04-12T08:33:25.998Z</time></trkpt><trkpt lat="45.868898804387456" lon="11.52401601158513"><ele>1003.0</ele><time>2026-04-12T08:33:26.998Z</time></trkpt><trkpt lat="45.868845712791725" lon="11.524281996594755"><ele>1003.3333333333333</ele><time>2026-04-12T08:33:27.998Z</time></trkpt><trkpt lat="45.86881143787303" lon="11.524571635244662"><ele>1003.6666666666667</ele><time>2026-04-12T08:33:28.998Z</time></trkpt><trkpt lat="45.86877805404621" lon="11.524862827912186"><ele>1004.0</ele><time>2026-04-12T08:33:29.998Z</time></trkpt><trkpt lat="45.86874350987501" lon="11.525147568548569"><ele>1005.0</ele><time>2026-04-12T08:33:30.998Z</time></trkpt><trkpt lat="45.868710295935344" lon="11.525419879713949"><ele>1006.0</ele><time>2026-04-12T08:33:31.998Z</time></trkpt><trkpt lat="45.86866497548195" lon="11.525662435764568"><ele>1007.0</ele><time>2026-04-12T08:33:32.998Z</time></trkpt><trkpt lat="45.86863732880962" lon="11.525885933530901"><ele>1007.0</ele><time>2026-04-12T08:33:33.998Z</time></trkpt><trkpt lat="45.86862835549674" lon="11.526096921223397"><ele>1007.0</ele><time>2026-04-12T08:33:34.998Z</time></trkpt><trkpt lat="45.868586128214275" lon="11.526290181652028"><ele>1007.0</ele><time>2026-04-12T08:33:36Z</time></trkpt><trkpt lat="45.868551631577105" lon="11.526465616651945"><ele>1007.0</ele><time>2026-04-12T08:33:37Z</time></trkpt><trkpt lat="45.868490716371525" lon="11.526624528508895"><ele>1007.25</ele><time>2026-04-12T08:33:38Z</time></trkpt><trkpt lat="45.86839746842859" lon="11.526740088017823"><ele>1007.5</ele><time>2026-04-12T08:33:39Z</time></trkpt><trkpt lat="45.868269158929884" lon="11.526862405862039"><ele>1007.75</ele><time>2026-04-12T08:33:40Z</time></trkpt><trkpt lat="45.86813781945236" lon="11.527015529808986"><ele>1008.0</ele><time>2026-04-12T08:33:41Z</time></trkpt><trkpt lat="45.86798779560323" lon="11.527153646829344"><ele>1008.3333333333333</ele><time>2026-04-12T08:33:42Z</time></trkpt><trkpt lat="45.86785901300558" lon="11.527306403223138"><ele>1008.6666666666666</ele><time>2026-04-12T08:33:43Z</time></trkpt><trkpt lat="45.86775154275771" lon="11.52747665695776"><ele>1009.0</ele><time>2026-04-12T08:33:44Z</time></trkpt><trkpt lat="45.86765206818682" lon="11.52767301876339"><ele>1009.3333333333333</ele><time>2026-04-12T08:33:45Z</time></trkpt><trkpt lat="45.86756338771029" lon="11.527888820630466"><ele>1009.6666666666667</ele><time>2026-04-12T08:33:46Z</time></trkpt><trkpt lat="45.86748798225411" lon="11.528123656187745"><ele>1010.0</ele><time>2026-04-12T08:33:47Z</time></trkpt><trkpt lat="45.86741376385015" lon="11.528370620330326"><ele>1010.0</ele><time>2026-04-12T08:33:48Z</time></trkpt><trkpt lat="45.867331281367996" lon="11.52861905454012"><ele>1010.0</ele><time>2026-04-12T08:33:49Z</time></trkpt><trkpt lat="45.86724587197747" lon="11.528870251723307"><ele>1010.0</ele><time>2026-04-12T08:33:50Z</time></trkpt><trkpt lat="45.86715479858768" lon="11.529117376013081"><ele>1010.3333333333334</ele><time>2026-04-12T08:33:51Z</time></trkpt><trkpt lat="45.86705619363986" lon="11.529357888552472"><ele>1010.6666666666667</ele><time>2026-04-12T08:33:52Z</time></trkpt><trkpt lat="45.866950280865346" lon="11.529596017659244"><ele>1011.0</ele><time>2026-04-12T08:33:53Z</time></trkpt><trkpt lat="45.86684518045944" lon="11.529827250748875"><ele>1011.6666666666667</ele><time>2026-04-12T08:33:54Z</time></trkpt><trkpt lat="45.86675048419034" lon="11.530035308153996"><ele>1012.3333333333334</ele><time>2026-04-12T08:33:55Z</time></trkpt><trkpt lat="45.86666037408856" lon="11.530224472482935"><ele>1013.0</ele><time>2026-04-12T08:33:56Z</time></trkpt><trkpt lat="45.866574375884255" lon="11.530407850484783"><ele>1013.0</ele><time>2026-04-12T08:33:57Z</time></trkpt><trkpt lat="45.866479964772424" lon="11.530599475788156"><ele>1013.0</ele><time>2026-04-12T08:33:58Z</time></trkpt><trkpt lat="45.86637278275288" lon="11.530780316446982"><ele>1013.0</ele><time>2026-04-12T08:33:59Z</time></trkpt><trkpt lat="45.86625149412075" lon="11.530955581923148"><ele>1013.0</ele><time>2026-04-12T08:34:00Z</time></trkpt><trkpt lat="45.8661152573938" lon="11.531103308590122"><ele>1013.0</ele><time>2026-04-12T08:34:01Z</time></trkpt><trkpt lat="45.865965886563174" lon="11.53122441975181"><ele>1013.0</ele><time>2026-04-12T08:34:02Z</time></trkpt><trkpt lat="45.86580241439464" lon="11.53132502197147"><ele>1014.6666666666667</ele><time>2026-04-12T08:34:03Z</time></trkpt><trkpt lat="45.865623972394864" lon="11.5314112766961"><ele>1016.3333333333333</ele><time>2026-04-12T08:34:04Z</time></trkpt><trkpt lat="45.86544437554039" lon="11.531485514317197"><ele>1018.0</ele><time>2026-04-12T08:34:05Z</time></trkpt><trkpt lat="45.86528356854087" lon="11.531548049172443"><ele>1018.0</ele><time>2026-04-12T08:34:06Z</time></trkpt><trkpt lat="45.86513942923121" lon="11.531633952245686"><ele>1018.0</ele><time>2026-04-12T08:34:07Z</time></trkpt><trkpt lat="45.86501166436056" lon="11.531746169963103"><ele>1018.0</ele><time>2026-04-12T08:34:08Z</time></trkpt><trkpt lat="45.86490971259563" lon="11.531907180319168"><ele>1020.0</ele><time>2026-04-12T08:34:09Z</time></trkpt><trkpt lat="45.864828691527066" lon="11.532096320223866"><ele>1022.0</ele><time>2026-04-12T08:34:10Z</time></trkpt><trkpt lat="45.86475026789145" lon="11.532281841026512"><ele>1024.0</ele><time>2026-04-12T08:34:11Z</time></trkpt><trkpt lat="45.86465382454246" lon="11.532453190481169"><ele>1024.0</ele><time>2026-04-12T08:34:12Z</time></trkpt><trkpt lat="45.8645348874833" lon="11.532611700746482"><ele>1024.0</ele><time>2026-04-12T08:34:13Z</time></trkpt><trkpt lat="45.86439746792959" lon="11.53276091053371"><ele>1024.0</ele><time>2026-04-12T08:34:14Z</time></trkpt><trkpt lat="45.86426147759226" lon="11.532900643218433"><ele>1027.3333333333333</ele><time>2026-04-12T08:34:15Z</time></trkpt><trkpt lat="45.864135100975034" lon="11.533043185860741"><ele>1030.6666666666667</ele><time>2026-04-12T08:34:16Z</time></trkpt><trkpt lat="45.864036644443914" lon="11.533231485314186"><ele>1034.0</ele><time>2026-04-12T08:34:17Z</time></trkpt><trkpt lat="45.86396612463834" lon="11.533449463796034"><ele>1034.0</ele><time>2026-04-12T08:34:18Z</time></trkpt><trkpt lat="45.86391419540968" lon="11.533681810515995"><ele>1034.0</ele><time>2026-04-12T08:34:19Z</time></trkpt><trkpt lat="45.86386432323608" lon="11.53389538886772"><ele>1034.0</ele><time>2026-04-12T08:34:20Z</time></trkpt><trkpt lat="45.86381189095753" lon="11.534114460605704"><ele>1033.0</ele><time>2026-04-12T08:34:20.999Z</time></trkpt><trkpt lat="45.863726460581205" lon="11.534309169352307"><ele>1032.0</ele><time>2026-04-12T08:34:21.999Z</time></trkpt><trkpt lat="45.86361513064949" lon="11.534490567142734"><ele>1031.0</ele><time>2026-04-12T08:34:22.999Z</time></trkpt><trkpt lat="45.86352162315069" lon="11.534689106610855"><ele>1033.5</ele><time>2026-04-12T08:34:23.999Z</time></trkpt><trkpt lat="45.863427522202095" lon="11.534856401983964"><ele>1036.0</ele><time>2026-04-12T08:34:24.999Z</time></trkpt><trkpt lat="45.86335414920847" lon="11.535016413754512"><ele>1038.5</ele><time>2026-04-12T08:34:25.999Z</time></trkpt><trkpt lat="45.863292263824285" lon="11.53517583882758"><ele>1041.0</ele><time>2026-04-12T08:34:26.999Z</time></trkpt><trkpt lat="45.86323432179814" lon="11.535347945743323"><ele>1041.5</ele><time>2026-04-12T08:34:27.999Z</time></trkpt><trkpt lat="45.86318201861216" lon="11.535530702318562"><ele>1042.0</ele><time>2026-04-12T08:34:28.999Z</time></trkpt><trkpt lat="45.86313775327339" lon="11.535716634412609"><ele>1042.5</ele><time>2026-04-12T08:34:29.999Z</time></trkpt><trkpt lat="45.86310205795454" lon="11.535889956590818"><ele>1043.0</ele><time>2026-04-12T08:34:30.999Z</time></trkpt><trkpt lat="45.86306281599109" lon="11.536062796974981"><ele>1044.0</ele><time>2026-04-12T08:34:31.999Z</time></trkpt><trkpt lat="45.86302360998067" lon="11.536239307903442"><ele>1045.0</ele><time>2026-04-12T08:34:32.999Z</time></trkpt><trkpt lat="45.86298306286498" lon="11.536415728720595"><ele>1046.0</ele><time>2026-04-12T08:34:33.999Z</time></trkpt><trkpt lat="45.86293971204655" lon="11.53658902105634"><ele>1047.0</ele><time>2026-04-12T08:34:34.999Z</time></trkpt><trkpt lat="45.86289213528717" lon="11.536764973409054"><ele>1047.0</ele><time>2026-04-12T08:34:35.999Z</time></trkpt><trkpt lat="45.86283616735748" lon="11.536931746983374"><ele>1047.0</ele><time>2026-04-12T08:34:36.999Z</time></trkpt><trkpt lat="45.86277766806087" lon="11.537095278117484"><ele>1047.0</ele><time>2026-04-12T08:34:37.999Z</time></trkpt><trkpt lat="45.86272922192929" lon="11.537243203593244"><ele>1047.0</ele><time>2026-04-12T08:34:38.999Z</time></trkpt><trkpt lat="45.86269173016489" lon="11.537411012846201"><ele>1047.25</ele><time>2026-04-12T08:34:39.999Z</time></trkpt><trkpt lat="45.86266503396814" lon="11.537590598708697"><ele>1047.5</ele><time>2026-04-12T08:34:40.999Z</time></trkpt><trkpt lat="45.86263691755914" lon="11.537783325820394"><ele>1047.75</ele><time>2026-04-12T08:34:41.999Z</time></trkpt><trkpt lat="45.8626112156549" lon="11.537993513570012"><ele>1048.0</ele><time>2026-04-12T08:34:42.999Z</time></trkpt><trkpt lat="45.86258904695543" lon="11.538202629117842"><ele>1050.0</ele><time>2026-04-12T08:34:43.999Z</time></trkpt><trkpt lat="45.862570414644686" lon="11.538408488701954"><ele>1052.0</ele><time>2026-04-12T08:34:44.999Z</time></trkpt><trkpt lat="45.86255184357805" lon="11.538607912647665"><ele>1054.0</ele><time>2026-04-12T08:34:45.999Z</time></trkpt><trkpt lat="45.862534528240644" lon="11.538787701683745"><ele>1056.0</ele><time>2026-04-12T08:34:46.999Z</time></trkpt><trkpt lat="45.86251768355198" lon="11.538968537325617"><ele>1056.75</ele><time>2026-04-12T08:34:47.999Z</time></trkpt><trkpt lat="45.862498687207356" lon="11.539149076998518"><ele>1057.5</ele><time>2026-04-12T08:34:48.999Z</time></trkpt><trkpt lat="45.862470674159276" lon="11.539323363038761"><ele>1058.25</ele><time>2026-04-12T08:34:49.999Z</time></trkpt><trkpt lat="45.86242478333235" lon="11.539490352867272"><ele>1059.0</ele><time>2026-04-12T08:34:50.999Z</time></trkpt><trkpt lat="45.86236606996055" lon="11.539643658430386"><ele>1059.25</ele><time>2026-04-12T08:34:51.999Z</time></trkpt><trkpt lat="45.86228573051305" lon="11.539782198244618"><ele>1059.5</ele><time>2026-04-12T08:34:52.999Z</time></trkpt><trkpt lat="45.86219072070702" lon="11.539911988076629"><ele>1059.75</ele><time>2026-04-12T08:34:53.999Z</time></trkpt><trkpt lat="45.86208681876754" lon="11.540038082366486"><ele>1060.0</ele><time>2026-04-12T08:34:54.999Z</time></trkpt><trkpt lat="45.861981870750455" lon="11.540162903703942"><ele>1060.0</ele><time>2026-04-12T08:34:55.999Z</time></trkpt><trkpt lat="45.86187996524951" lon="11.540282959343672"><ele>1060.0</ele><time>2026-04-12T08:34:56.999Z</time></trkpt><trkpt lat="45.86177991641087" lon="11.540392253380718"><ele>1060.0</ele><time>2026-04-12T08:34:57.999Z</time></trkpt><trkpt lat="45.86168275491087" lon="11.540504667086717"><ele>1060.0</ele><time>2026-04-12T08:34:58.999Z</time></trkpt><trkpt lat="45.861583241001995" lon="11.540612176101869"><ele>1062.5</ele><time>2026-04-12T08:34:59.999Z</time></trkpt><trkpt lat="45.86148070518884" lon="11.540721267617918"><ele>1065.0</ele><time>2026-04-12T08:35:00.999Z</time></trkpt><trkpt lat="45.86137877434866" lon="11.540831797635889"><ele>1067.5</ele><time>2026-04-12T08:35:01.999Z</time></trkpt><trkpt lat="45.86127335223804" lon="11.540941679963298"><ele>1070.0</ele><time>2026-04-12T08:35:02.999Z</time></trkpt><trkpt lat="45.86117036139289" lon="11.541048867884117"><ele>1070.0</ele><time>2026-04-12T08:35:03.999Z</time></trkpt><trkpt lat="45.86106657653487" lon="11.541160770119221"><ele>1070.0</ele><time>2026-04-12T08:35:04.999Z</time></trkpt><trkpt lat="45.86095883104065" lon="11.541281806197867"><ele>1070.0</ele><time>2026-04-12T08:35:05.999Z</time></trkpt><trkpt lat="45.86084815045642" lon="11.541408361984661"><ele>1070.0</ele><time>2026-04-12T08:35:06.999Z</time></trkpt><trkpt lat="45.86073438079104" lon="11.541538296425983"><ele>1070.25</ele><time>2026-04-12T08:35:07.999Z</time></trkpt><trkpt lat="45.86062269769246" lon="11.54167655403116"><ele>1070.5</ele><time>2026-04-12T08:35:08.999Z</time></trkpt><trkpt lat="45.860518290196865" lon="11.54182930303569"><ele>1070.75</ele><time>2026-04-12T08:35:09.999Z</time></trkpt><trkpt lat="45.86043370403197" lon="11.542011108164827"><ele>1071.0</ele><time>2026-04-12T08:35:10.999Z</time></trkpt><trkpt lat="45.86036381875342" lon="11.54221439299761"><ele>1071.75</ele><time>2026-04-12T08:35:11.999Z</time></trkpt><trkpt lat="45.860309267010265" lon="11.54242908493541"><ele>1072.5</ele><time>2026-04-12T08:35:12.999Z</time></trkpt><trkpt lat="45.860254381291284" lon="11.54261662362801"><ele>1073.25</ele><time>2026-04-12T08:35:13.999Z</time></trkpt><trkpt lat="45.860198475441464" lon="11.542807587348875"><ele>1074.0</ele><time>2026-04-12T08:35:14.999Z</time></trkpt><trkpt lat="45.8601270354046" lon="11.542987303605067"><ele>1076.0</ele><time>2026-04-12T08:35:15.999Z</time></trkpt><trkpt lat="45.860032426165674" lon="11.543141497317833"><ele>1078.0</ele><time>2026-04-12T08:35:16.999Z</time></trkpt><trkpt lat="45.859918469926235" lon="11.543274088860423"><ele>1080.0</ele><time>2026-04-12T08:35:17.998Z</time></trkpt><trkpt lat="45.85979846552151" lon="11.54339447222861"><ele>1082.0</ele><time>2026-04-12T08:35:18.998Z</time></trkpt><trkpt lat="45.85966810005169" lon="11.54351050502084"><ele>1082.0</ele><time>2026-04-12T08:35:19.998Z</time></trkpt><trkpt lat="45.85953578476658" lon="11.543628125955328"><ele>1082.0</ele><time>2026-04-12T08:35:20.998Z</time></trkpt><trkpt lat="45.85940234004856" lon="11.543742321772815"><ele>1082.0</ele><time>2026-04-12T08:35:21.998Z</time></trkpt><trkpt lat="45.85927523269792" lon="11.543854363141252"><ele>1083.25</ele><time>2026-04-12T08:35:22.998Z</time></trkpt><trkpt lat="45.85915266540938" lon="11.543961055140446"><ele>1084.5</ele><time>2026-04-12T08:35:23.998Z</time></trkpt><trkpt lat="45.85903414178885" lon="11.544063930668914"><ele>1085.75</ele><time>2026-04-12T08:35:24.998Z</time></trkpt><trkpt lat="45.85891891174591" lon="11.544175880021859"><ele>1087.0</ele><time>2026-04-12T08:35:25.998Z</time></trkpt><trkpt lat="45.85881045882402" lon="11.544307424043106"><ele>1087.0</ele><time>2026-04-12T08:35:26.998Z</time></trkpt><trkpt lat="45.85870623562703" lon="11.544460001376441"><ele>1087.0</ele><time>2026-04-12T08:35:27.998Z</time></trkpt><trkpt lat="45.85859958333583" lon="11.544626532189847"><ele>1087.0</ele><time>2026-04-12T08:35:28.998Z</time></trkpt><trkpt lat="45.858487889835644" lon="11.544800750041437"><ele>1086.0</ele><time>2026-04-12T08:35:29.998Z</time></trkpt><trkpt lat="45.858368562673895" lon="11.544975602516356"><ele>1085.0</ele><time>2026-04-12T08:35:30.998Z</time></trkpt><trkpt lat="45.85824834578904" lon="11.545146522032507"><ele>1084.0</ele><time>2026-04-12T08:35:31.998Z</time></trkpt><trkpt lat="45.85812064060803" lon="11.545300777604291"><ele>1085.3333333333333</ele><time>2026-04-12T08:35:32.998Z</time></trkpt><trkpt lat="45.85798987236407" lon="11.545443036277433"><ele>1086.6666666666667</ele><time>2026-04-12T08:35:33.998Z</time></trkpt><trkpt lat="45.85786174490616" lon="11.545568853206035"><ele>1088.0</ele><time>2026-04-12T08:35:34.998Z</time></trkpt><trkpt lat="45.85773847637287" lon="11.545674096457203"><ele>1088.0</ele><time>2026-04-12T08:35:35.998Z</time></trkpt><trkpt lat="45.85762786691407" lon="11.545765810102715"><ele>1088.0</ele><time>2026-04-12T08:35:36.998Z</time></trkpt><trkpt lat="45.85753459652403" lon="11.545841197963844"><ele>1088.0</ele><time>2026-04-12T08:35:37.998Z</time></trkpt><trkpt lat="45.85745979113342" lon="11.545920023085772"><ele>1088.0</ele><time>2026-04-12T08:35:38.998Z</time></trkpt><trkpt lat="45.857405526222486" lon="11.546017144052351"><ele>1088.0</ele><time>2026-04-12T08:35:39.998Z</time></trkpt><trkpt lat="45.85736306512334" lon="11.54611853887882"><ele>1087.25</ele><time>2026-04-12T08:35:40.998Z</time></trkpt><trkpt lat="45.8574048780042" lon="11.54626697451773"><ele>1086.5</ele><time>2026-04-12T08:35:42Z</time></trkpt><trkpt lat="45.857462095658086" lon="11.546420895304452"><ele>1085.75</ele><time>2026-04-12T08:35:43Z</time></trkpt><trkpt lat="45.857549962428145" lon="11.546564557087825"><ele>1085.0</ele><time>2026-04-12T08:35:44Z</time></trkpt><trkpt lat="45.85762682109782" lon="11.546727392930169"><ele>1085.0</ele><time>2026-04-12T08:35:45Z</time></trkpt><trkpt lat="45.85766497795412" lon="11.546906977625364"><ele>1085.0</ele><time>2026-04-12T08:35:46Z</time></trkpt><trkpt lat="45.857663759037706" lon="11.54710623960088"><ele>1085.0</ele><time>2026-04-12T08:35:47Z</time></trkpt><trkpt lat="45.85763681549191" lon="11.547314949620217"><ele>1085.0</ele><time>2026-04-12T08:35:48Z</time></trkpt><trkpt lat="45.857604848625385" lon="11.547526862921973"><ele>1081.0</ele><time>2026-04-12T08:35:49Z</time></trkpt><trkpt lat="45.85756239399709" lon="11.547749782743542"><ele>1077.0</ele><time>2026-04-12T08:35:50Z</time></trkpt><trkpt lat="45.85752089257927" lon="11.547972647608203"><ele>1073.0</ele><time>2026-04-12T08:35:51Z</time></trkpt><trkpt lat="45.85748284614849" lon="11.54819149647244"><ele>1073.0</ele><time>2026-04-12T08:35:52Z</time></trkpt><trkpt lat="45.857448476588274" lon="11.548401284525793"><ele>1073.0</ele><time>2026-04-12T08:35:53Z</time></trkpt><trkpt lat="45.85741334288041" lon="11.548599511726312"><ele>1073.0</ele><time>2026-04-12T08:35:54Z</time></trkpt><trkpt lat="45.857378938533635" lon="11.548788198467678"><ele>1073.0</ele><time>2026-04-12T08:35:55Z</time></trkpt><trkpt lat="45.857348356278536" lon="11.548963503725167"><ele>1073.3333333333335</ele><time>2026-04-12T08:35:56Z</time></trkpt><trkpt lat="45.857320683498784" lon="11.549125954144229"><ele>1073.6666666666667</ele><time>2026-04-12T08:35:57Z</time></trkpt><trkpt lat="45.85729477661906" lon="11.549256948093532"><ele>1074.0</ele><time>2026-04-12T08:35:58Z</time></trkpt><trkpt lat="45.857270242995966" lon="11.549363555967735"><ele>1074.3333333333333</ele><time>2026-04-12T08:35:59Z</time></trkpt><trkpt lat="45.85725014257355" lon="11.549449974203348"><ele>1074.6666666666665</ele><time>2026-04-12T08:36:00Z</time></trkpt><trkpt lat="45.85722734706628" lon="11.549563991605442"><ele>1075.0</ele><time>2026-04-12T08:36:02Z</time></trkpt><trkpt lat="45.85720854017952" lon="11.549664070630769"><ele>1075.6</ele><time>2026-04-12T08:36:05Z</time></trkpt><trkpt lat="45.8571813153702" lon="11.549761324450598"><ele>1076.2</ele><time>2026-04-12T08:36:11Z</time></trkpt><trkpt lat="45.85715564119853" lon="11.549850423654632"><ele>1076.8</ele><time>2026-04-12T08:36:14Z</time></trkpt><trkpt lat="45.85725177378238" lon="11.54999460740545"><ele>1077.4</ele><time>2026-04-12T08:36:16Z</time></trkpt><trkpt lat="45.85734409566148" lon="11.55006603978364"><ele>1078.0</ele><time>2026-04-12T08:36:17Z</time></trkpt><trkpt lat="45.857434694296124" lon="11.550128633153252"><ele>1078.0</ele><time>2026-04-12T08:36:18Z</time></trkpt><trkpt lat="45.8575514877772" lon="11.55019554023729"><ele>1078.0</ele><time>2026-04-12T08:36:19Z</time></trkpt><trkpt lat="45.85766137116998" lon="11.550265297948405"><ele>1078.0</ele><time>2026-04-12T08:36:20Z</time></trkpt><trkpt lat="45.8577726978046" lon="11.550345313858909"><ele>1078.0</ele><time>2026-04-12T08:36:21Z</time></trkpt><trkpt lat="45.857896372787536" lon="11.550430606391147"><ele>1079.3333333333333</ele><time>2026-04-12T08:36:22Z</time></trkpt><trkpt lat="45.85802908126529" lon="11.550522459429779"><ele>1080.6666666666667</ele><time>2026-04-12T08:36:23Z</time></trkpt><trkpt lat="45.858168191353705" lon="11.550610898027529"><ele>1082.0</ele><time>2026-04-12T08:36:24Z</time></trkpt><trkpt lat="45.8583129141821" lon="11.550690232572054"><ele>1082.0</ele><time>2026-04-12T08:36:24.999Z</time></trkpt><trkpt lat="45.858463194795775" lon="11.550757523189562"><ele>1082.0</ele><time>2026-04-12T08:36:25.999Z</time></trkpt><trkpt lat="45.8586152195366" lon="11.55081309941956"><ele>1082.0</ele><time>2026-04-12T08:36:26.999Z</time></trkpt><trkpt lat="45.858768799773955" lon="11.550861979882301"><ele>1082.0</ele><time>2026-04-12T08:36:27.999Z</time></trkpt><trkpt lat="45.85892545511719" lon="11.550911568194351"><ele>1082.0</ele><time>2026-04-12T08:36:28.999Z</time></trkpt><trkpt lat="45.85908689346505" lon="11.55096134009851"><ele>1082.0</ele><time>2026-04-12T08:36:29.999Z</time></trkpt><trkpt lat="45.85925047543544" lon="11.551013454091082"><ele>1082.3333333333335</ele><time>2026-04-12T08:36:30.999Z</time></trkpt><trkpt lat="45.85941940848466" lon="11.551062385472939"><ele>1082.6666666666667</ele><time>2026-04-12T08:36:31.999Z</time></trkpt><trkpt lat="45.859590780623115" lon="11.55111154002225"><ele>1083.0</ele><time>2026-04-12T08:36:32.999Z</time></trkpt><trkpt lat="45.85976464092985" lon="11.551167155921357"><ele>1083.3333333333333</ele><time>2026-04-12T08:36:33.999Z</time></trkpt><trkpt lat="45.85993883824745" lon="11.551236809197734"><ele>1083.6666666666665</ele><time>2026-04-12T08:36:34.999Z</time></trkpt><trkpt lat="45.860111709608354" lon="11.551319592625353"><ele>1084.0</ele><time>2026-04-12T08:36:35.999Z</time></trkpt><trkpt lat="45.86027847262624" lon="11.551422029318951"><ele>1084.0</ele><time>2026-04-12T08:36:36.999Z</time></trkpt><trkpt lat="45.860437748317494" lon="11.551546274944847"><ele>1084.0</ele><time>2026-04-12T08:36:37.999Z</time></trkpt><trkpt lat="45.8605900757892" lon="11.551686981586355"><ele>1084.0</ele><time>2026-04-12T08:36:38.999Z</time></trkpt><trkpt lat="45.860741680626155" lon="11.551835787416"><ele>1084.0</ele><time>2026-04-12T08:36:39.999Z</time></trkpt><trkpt lat="45.86089283683826" lon="11.551989075043332"><ele>1084.0</ele><time>2026-04-12T08:36:40.999Z</time></trkpt><trkpt lat="45.86104649359249" lon="11.552134662070673"><ele>1084.0</ele><time>2026-04-12T08:36:41.999Z</time></trkpt><trkpt lat="45.86120480099774" lon="11.552267651038521"><ele>1084.0</ele><time>2026-04-12T08:36:42.999Z</time></trkpt><trkpt lat="45.86137670166432" lon="11.552373856850382"><ele>1084.0</ele><time>2026-04-12T08:36:43.999Z</time></trkpt><trkpt lat="45.861555892572845" lon="11.552467627199286"><ele>1084.0</ele><time>2026-04-12T08:36:44.999Z</time></trkpt><trkpt lat="45.861737251610506" lon="11.552542916884704"><ele>1084.3333333333333</ele><time>2026-04-12T08:36:45.999Z</time></trkpt><trkpt lat="45.86192514075414" lon="11.552606639458151"><ele>1084.6666666666667</ele><time>2026-04-12T08:36:46.999Z</time></trkpt><trkpt lat="45.86211022127945" lon="11.552673208043998"><ele>1085.0</ele><time>2026-04-12T08:36:47.999Z</time></trkpt><trkpt lat="45.86229590089661" lon="11.552740720904472"><ele>1085.0</ele><time>2026-04-12T08:36:48.999Z</time></trkpt><trkpt lat="45.8624861318995" lon="11.55280871478765"><ele>1085.0</ele><time>2026-04-12T08:36:49.999Z</time></trkpt><trkpt lat="45.86267848066997" lon="11.552867032498284"><ele>1085.0</ele><time>2026-04-12T08:36:50.999Z</time></trkpt><trkpt lat="45.86287346900175" lon="11.552897910173247"><ele>1086.0</ele><time>2026-04-12T08:36:51.999Z</time></trkpt><trkpt lat="45.86306755324844" lon="11.552891334074648"><ele>1087.0</ele><time>2026-04-12T08:36:52.999Z</time></trkpt><trkpt lat="45.86325937831251" lon="11.552864816595655"><ele>1088.0</ele><time>2026-04-12T08:36:53.999Z</time></trkpt><trkpt lat="45.86344791247457" lon="11.55283179697303"><ele>1089.0</ele><time>2026-04-12T08:36:54.999Z</time></trkpt><trkpt lat="45.863629942636344" lon="11.552798086264074"><ele>1090.0</ele><time>2026-04-12T08:36:55.999Z</time></trkpt><trkpt lat="45.86380273578242" lon="11.55276706867195"><ele>1091.0</ele><time>2026-04-12T08:36:56.999Z</time></trkpt><trkpt lat="45.86396269050614" lon="11.552734432362053"><ele>1091.0</ele><time>2026-04-12T08:36:57.999Z</time></trkpt><trkpt lat="45.86410914429138" lon="11.552694328350334"><ele>1091.0</ele><time>2026-04-12T08:36:58.999Z</time></trkpt><trkpt lat="45.86424901105861" lon="11.552641916184115"><ele>1091.0</ele><time>2026-04-12T08:36:59.999Z</time></trkpt><trkpt lat="45.86438529475348" lon="11.552591952642857"><ele>1091.0</ele><time>2026-04-12T08:37:00.999Z</time></trkpt><trkpt lat="45.86450569875049" lon="11.55253774926606"><ele>1092.3999999999999</ele><time>2026-04-12T08:37:01.999Z</time></trkpt><trkpt lat="45.86461477864131" lon="11.552483395050427"><ele>1093.8</ele><time>2026-04-12T08:37:02.999Z</time></trkpt><trkpt lat="45.86471777789268" lon="11.552433091804197"><ele>1095.1999999999998</ele><time>2026-04-12T08:37:03.999Z</time></trkpt><trkpt lat="45.86480426741717" lon="11.552378609118177"><ele>1096.6</ele><time>2026-04-12T08:37:04.999Z</time></trkpt><trkpt lat="45.86489584582102" lon="11.552324877830962"><ele>1098.0</ele><time>2026-04-12T08:37:05.999Z</time></trkpt><trkpt lat="45.864987513091364" lon="11.552274243246504"><ele>1098.0</ele><time>2026-04-12T08:37:06.999Z</time></trkpt><trkpt lat="45.86508496751731" lon="11.552237835323531"><ele>1098.0</ele><time>2026-04-12T08:37:07.999Z</time></trkpt><trkpt lat="45.865152708040824" lon="11.552118947840809"><ele>1098.0</ele><time>2026-04-12T08:37:08.999Z</time></trkpt><trkpt lat="45.8652390515471" lon="11.552035694390526"><ele>1098.0</ele><time>2026-04-12T08:37:09.999Z</time></trkpt><trkpt lat="45.86533252808283" lon="11.551944268740323"><ele>1098.0</ele><time>2026-04-12T08:37:10.999Z</time></trkpt><trkpt lat="45.86543075868782" lon="11.551849184490885"><ele>1098.75</ele><time>2026-04-12T08:37:11.999Z</time></trkpt><trkpt lat="45.86553397913532" lon="11.551743960711526"><ele>1099.5</ele><time>2026-04-12T08:37:12.999Z</time></trkpt><trkpt lat="45.86563638661284" lon="11.551648601145354"><ele>1100.25</ele><time>2026-04-12T08:37:13.999Z</time></trkpt><trkpt lat="45.865741685161424" lon="11.551549035891444"><ele>1101.0</ele><time>2026-04-12T08:37:14.999Z</time></trkpt><trkpt lat="45.8658495244514" lon="11.551447413896167"><ele>1101.0</ele><time>2026-04-12T08:37:15.999Z</time></trkpt><trkpt lat="45.865958443486875" lon="11.551342660529158"><ele>1101.0</ele><time>2026-04-12T08:37:16.999Z</time></trkpt><trkpt lat="45.86607494246683" lon="11.551229838791102"><ele>1101.0</ele><time>2026-04-12T08:37:17.999Z</time></trkpt><trkpt lat="45.866191356279714" lon="11.551095031237377"><ele>1101.0</ele><time>2026-04-12T08:37:18.999Z</time></trkpt><trkpt lat="45.86631414942697" lon="11.550942609640622"><ele>1101.0</ele><time>2026-04-12T08:37:19.999Z</time></trkpt><trkpt lat="45.86643976170639" lon="11.550771556929856"><ele>1101.0</ele><time>2026-04-12T08:37:20.999Z</time></trkpt><trkpt lat="45.86656540217841" lon="11.550591453232332"><ele>1101.0</ele><time>2026-04-12T08:37:21.998Z</time></trkpt><trkpt lat="45.86668785215342" lon="11.550395411452863"><ele>1102.6666666666667</ele><time>2026-04-12T08:37:22.998Z</time></trkpt><trkpt lat="45.8668136717732" lon="11.550199695522092"><ele>1104.3333333333335</ele><time>2026-04-12T08:37:23.998Z</time></trkpt><trkpt lat="45.86694258968872" lon="11.549995872454595"><ele>1106.0</ele><time>2026-04-12T08:37:24.998Z</time></trkpt><trkpt lat="45.86706772381613" lon="11.549789120815635"><ele>1106.0</ele><time>2026-04-12T08:37:25.998Z</time></trkpt><trkpt lat="45.867174763670455" lon="11.54959279074123"><ele>1106.0</ele><time>2026-04-12T08:37:26.998Z</time></trkpt><trkpt lat="45.86727814936527" lon="11.549416721131026"><ele>1106.0</ele><time>2026-04-12T08:37:27.998Z</time></trkpt><trkpt lat="45.86738845638202" lon="11.54928255930384"><ele>1103.6666666666667</ele><time>2026-04-12T08:37:28.998Z</time></trkpt><trkpt lat="45.8675210470577" lon="11.549214113122357"><ele>1101.3333333333333</ele><time>2026-04-12T08:37:29.998Z</time></trkpt><trkpt lat="45.86766199951711" lon="11.549161386582192"><ele>1099.0</ele><time>2026-04-12T08:37:30.998Z</time></trkpt><trkpt lat="45.86782210224811" lon="11.54910689354721"><ele>1099.0</ele><time>2026-04-12T08:37:31.998Z</time></trkpt><trkpt lat="45.86799102616822" lon="11.549036395518494"><ele>1099.0</ele><time>2026-04-12T08:37:32.998Z</time></trkpt><trkpt lat="45.86817029941951" lon="11.54898705711854"><ele>1099.0</ele><time>2026-04-12T08:37:33.998Z</time></trkpt><trkpt lat="45.868351530780416" lon="11.548920710481195"><ele>1099.0</ele><time>2026-04-12T08:37:34.998Z</time></trkpt><trkpt lat="45.86853882097746" lon="11.548852596155767"><ele>1099.0</ele><time>2026-04-12T08:37:35.998Z</time></trkpt><trkpt lat="45.86872549492954" lon="11.548796948431267"><ele>1099.0</ele><time>2026-04-12T08:37:36.998Z</time></trkpt><trkpt lat="45.868907241720265" lon="11.548739770627323"><ele>1094.6666666666665</ele><time>2026-04-12T08:37:37.998Z</time></trkpt><trkpt lat="45.869077515930194" lon="11.548687059744559"><ele>1090.3333333333333</ele><time>2026-04-12T08:37:38.998Z</time></trkpt><trkpt lat="45.86923467758379" lon="11.54863670271169"><ele>1086.0</ele><time>2026-04-12T08:37:39.998Z</time></trkpt><trkpt lat="45.86938291142662" lon="11.548594090722611"><ele>1085.6666666666667</ele><time>2026-04-12T08:37:40.998Z</time></trkpt><trkpt lat="45.86952975605733" lon="11.54855070821223"><ele>1085.3333333333335</ele><time>2026-04-12T08:37:41.998Z</time></trkpt><trkpt lat="45.86968103048329" lon="11.548503386136536"><ele>1085.0</ele><time>2026-04-12T08:37:42.998Z</time></trkpt><trkpt lat="45.86983619573975" lon="11.548447891101171"><ele>1085.0</ele><time>2026-04-12T08:37:43.998Z</time></trkpt><trkpt lat="45.869992990750625" lon="11.548390770460106"><ele>1085.0</ele><time>2026-04-12T08:37:44.998Z</time></trkpt><trkpt lat="45.870155323902594" lon="11.548339434843442"><ele>1085.0</ele><time>2026-04-12T08:37:45.998Z</time></trkpt><trkpt lat="45.87032118029954" lon="11.548282112677787"><ele>1086.3333333333335</ele><time>2026-04-12T08:37:46.998Z</time></trkpt><trkpt lat="45.870494232651794" lon="11.548226668103272"><ele>1087.6666666666667</ele><time>2026-04-12T08:37:48Z</time></trkpt><trkpt lat="45.87067110015769" lon="11.548171381536697"><ele>1089.0</ele><time>2026-04-12T08:37:49Z</time></trkpt><trkpt lat="45.87085152776103" lon="11.548114230264936"><ele>1090.3333333333333</ele><time>2026-04-12T08:37:50Z</time></trkpt><trkpt lat="45.87103296618631" lon="11.548051712441195"><ele>1091.6666666666665</ele><time>2026-04-12T08:37:51Z</time></trkpt><trkpt lat="45.871213267202975" lon="11.547970730252812"><ele>1093.0</ele><time>2026-04-12T08:37:52Z</time></trkpt><trkpt lat="45.871381499421325" lon="11.54785120227639"><ele>1091.0</ele><time>2026-04-12T08:37:53Z</time></trkpt><trkpt lat="45.87153879659874" lon="11.547655494994975"><ele>1089.0</ele><time>2026-04-12T08:37:54Z</time></trkpt><trkpt lat="45.87168967083203" lon="11.54747151294448"><ele>1087.0</ele><time>2026-04-12T08:37:55Z</time></trkpt><trkpt lat="45.87184138665756" lon="11.547309991486737"><ele>1087.0</ele><time>2026-04-12T08:37:56Z</time></trkpt><trkpt lat="45.87195173156304" lon="11.54718075528943"><ele>1087.0</ele><time>2026-04-12T08:37:57Z</time></trkpt><trkpt lat="45.87209197425897" lon="11.547070912380281"><ele>1087.0</ele><time>2026-04-12T08:37:58Z</time></trkpt><trkpt lat="45.872212452952816" lon="11.54694784551472"><ele>1085.0</ele><time>2026-04-12T08:37:59Z</time></trkpt><trkpt lat="45.872329504050924" lon="11.546816880119131"><ele>1083.0</ele><time>2026-04-12T08:38:00Z</time></trkpt><trkpt lat="45.872463708128755" lon="11.54667053926733"><ele>1081.0</ele><time>2026-04-12T08:38:01Z</time></trkpt><trkpt lat="45.872598168512454" lon="11.546528907468428"><ele>1080.0</ele><time>2026-04-12T08:38:02Z</time></trkpt><trkpt lat="45.87273472896415" lon="11.546395026009451"><ele>1079.0</ele><time>2026-04-12T08:38:03Z</time></trkpt><trkpt lat="45.872878054167295" lon="11.546290439298451"><ele>1078.0</ele><time>2026-04-12T08:38:04Z</time></trkpt><trkpt lat="45.87302733062206" lon="11.546211922917578"><ele>1078.0</ele><time>2026-04-12T08:38:05Z</time></trkpt><trkpt lat="45.8731851344548" lon="11.546165991261365"><ele>1078.0</ele><time>2026-04-12T08:38:06Z</time></trkpt><trkpt lat="45.87334598527894" lon="11.546142906478114"><ele>1078.0</ele><time>2026-04-12T08:38:07Z</time></trkpt><trkpt lat="45.873503300628876" lon="11.54614540142649"><ele>1076.0</ele><time>2026-04-12T08:38:08Z</time></trkpt><trkpt lat="45.87365647236806" lon="11.546172193303203"><ele>1074.0</ele><time>2026-04-12T08:38:09Z</time></trkpt><trkpt lat="45.87380626351691" lon="11.546226051477527"><ele>1072.0</ele><time>2026-04-12T08:38:10Z</time></trkpt><trkpt lat="45.87394841409681" lon="11.546277794431557"><ele>1072.0</ele><time>2026-04-12T08:38:11Z</time></trkpt><trkpt lat="45.87408353905647" lon="11.546332369698948"><ele>1072.0</ele><time>2026-04-12T08:38:12Z</time></trkpt><trkpt lat="45.87421768862999" lon="11.546383614982537"><ele>1072.0</ele><time>2026-04-12T08:38:13Z</time></trkpt><trkpt lat="45.87436037098304" lon="11.546440167795433"><ele>1072.0</ele><time>2026-04-12T08:38:14Z</time></trkpt><trkpt lat="45.87450464043986" lon="11.54648954352534"><ele>1070.75</ele><time>2026-04-12T08:38:15Z</time></trkpt><trkpt lat="45.874648179772386" lon="11.546542190973486"><ele>1069.5</ele><time>2026-04-12T08:38:16Z</time></trkpt><trkpt lat="45.87479094071177" lon="11.546592746715863"><ele>1068.25</ele><time>2026-04-12T08:38:17Z</time></trkpt><trkpt lat="45.874931203727044" lon="11.546657521963342"><ele>1067.0</ele><time>2026-04-12T08:38:18Z</time></trkpt><trkpt lat="45.87507523032996" lon="11.54670638002028"><ele>1066.75</ele><time>2026-04-12T08:38:19Z</time></trkpt><trkpt lat="45.87521614563943" lon="11.546756887523118"><ele>1066.5</ele><time>2026-04-12T08:38:20Z</time></trkpt><trkpt lat="45.875361194566054" lon="11.546802567962457"><ele>1066.25</ele><time>2026-04-12T08:38:21Z</time></trkpt><trkpt lat="45.875504579547496" lon="11.54686091616889"><ele>1066.0</ele><time>2026-04-12T08:38:22Z</time></trkpt><trkpt lat="45.87564462203161" lon="11.546924480000838"><ele>1066.0</ele><time>2026-04-12T08:38:23Z</time></trkpt><trkpt lat="45.875782065699795" lon="11.546988658698519"><ele>1066.0</ele><time>2026-04-12T08:38:24Z</time></trkpt><trkpt lat="45.87591119460448" lon="11.547065484332073"><ele>1066.0</ele><time>2026-04-12T08:38:25Z</time></trkpt><trkpt lat="45.87603227199753" lon="11.547144889033254"><ele>1066.0</ele><time>2026-04-12T08:38:26Z</time></trkpt><trkpt lat="45.87616061274477" lon="11.547240322796979"><ele>1066.5</ele><time>2026-04-12T08:38:27Z</time></trkpt><trkpt lat="45.87628943799454" lon="11.547333555231857"><ele>1067.0</ele><time>2026-04-12T08:38:28Z</time></trkpt><trkpt lat="45.87642154671319" lon="11.547432285238761"><ele>1067.5</ele><time>2026-04-12T08:38:29Z</time></trkpt><trkpt lat="45.87656025697939" lon="11.547529189973558"><ele>1068.0</ele><time>2026-04-12T08:38:30Z</time></trkpt><trkpt lat="45.87670870105628" lon="11.547626880477162"><ele>1068.0</ele><time>2026-04-12T08:38:30.999Z</time></trkpt><trkpt lat="45.876847551664476" lon="11.547717542689394"><ele>1068.0</ele><time>2026-04-12T08:38:31.999Z</time></trkpt><trkpt lat="45.87698204188016" lon="11.547809887737804"><ele>1068.0</ele><time>2026-04-12T08:38:32.999Z</time></trkpt><trkpt lat="45.87710544956196" lon="11.547894576922012"><ele>1068.0</ele><time>2026-04-12T08:38:33.999Z</time></trkpt><trkpt lat="45.87723072558041" lon="11.54797954126724"><ele>1069.3333333333333</ele><time>2026-04-12T08:38:34.999Z</time></trkpt><trkpt lat="45.877364412931335" lon="11.548058462917936"><ele>1070.6666666666665</ele><time>2026-04-12T08:38:35.999Z</time></trkpt><trkpt lat="45.877506802049886" lon="11.548122631634723"><ele>1072.0</ele><time>2026-04-12T08:38:36.999Z</time></trkpt><trkpt lat="45.87766234421096" lon="11.548175365665413"><ele>1073.0</ele><time>2026-04-12T08:38:37.999Z</time></trkpt><trkpt lat="45.87782462085631" lon="11.548219724112647"><ele>1074.0</ele><time>2026-04-12T08:38:38.999Z</time></trkpt><trkpt lat="45.87799499916751" lon="11.5482626808744"><ele>1075.0</ele><time>2026-04-12T08:38:39.999Z</time></trkpt><trkpt lat="45.87816724853924" lon="11.548293274886944"><ele>1075.0</ele><time>2026-04-12T08:38:40.999Z</time></trkpt><trkpt lat="45.87834583379819" lon="11.548326651462961"><ele>1075.0</ele><time>2026-04-12T08:38:41.999Z</time></trkpt><trkpt lat="45.87852895166844" lon="11.548365905838512"><ele>1075.0</ele><time>2026-04-12T08:38:42.999Z</time></trkpt><trkpt lat="45.87870469862866" lon="11.548407326426675"><ele>1074.3333333333333</ele><time>2026-04-12T08:38:43.999Z</time></trkpt><trkpt lat="45.87888186636034" lon="11.54844642579358"><ele>1073.6666666666667</ele><time>2026-04-12T08:38:44.999Z</time></trkpt><trkpt lat="45.87905597009459" lon="11.548484560523367"><ele>1073.0</ele><time>2026-04-12T08:38:45.999Z</time></trkpt><trkpt lat="45.87922675320541" lon="11.548515404219494"><ele>1073.0</ele><time>2026-04-12T08:38:46.999Z</time></trkpt><trkpt lat="45.87939543045242" lon="11.54855172811842"><ele>1073.0</ele><time>2026-04-12T08:38:47.999Z</time></trkpt><trkpt lat="45.87956834530327" lon="11.548569882872503"><ele>1073.0</ele><time>2026-04-12T08:38:48.999Z</time></trkpt><trkpt lat="45.87974402067526" lon="11.548571065723038"><ele>1073.0</ele><time>2026-04-12T08:38:49.999Z</time></trkpt><trkpt lat="45.87992012385551" lon="11.548559756047547"><ele>1073.0</ele><time>2026-04-12T08:38:50.999Z</time></trkpt><trkpt lat="45.880099289582745" lon="11.548538659294772"><ele>1073.0</ele><time>2026-04-12T08:38:51.999Z</time></trkpt><trkpt lat="45.88027947321162" lon="11.548511805028461"><ele>1073.0</ele><time>2026-04-12T08:38:52.999Z</time></trkpt><trkpt lat="45.8804581223094" lon="11.54848756286353"><ele>1073.0</ele><time>2026-04-12T08:38:53.999Z</time></trkpt><trkpt lat="45.880636728057745" lon="11.54845903527338"><ele>1073.0</ele><time>2026-04-12T08:38:54.999Z</time></trkpt><trkpt lat="45.88080991911248" lon="11.548435272602456"><ele>1075.6666666666667</ele><time>2026-04-12T08:38:55.999Z</time></trkpt><trkpt lat="45.880972897257216" lon="11.548408775749413"><ele>1078.3333333333333</ele><time>2026-04-12T08:38:56.999Z</time></trkpt><trkpt lat="45.88112822836855" lon="11.548385225483788"><ele>1081.0</ele><time>2026-04-12T08:38:57.999Z</time></trkpt><trkpt lat="45.881274074590294" lon="11.548368213467848"><ele>1081.0</ele><time>2026-04-12T08:38:58.999Z</time></trkpt><trkpt lat="45.88141961037175" lon="11.548346984717424"><ele>1081.0</ele><time>2026-04-12T08:38:59.999Z</time></trkpt><trkpt lat="45.88156706635437" lon="11.548328471103229"><ele>1081.0</ele><time>2026-04-12T08:39:00.999Z</time></trkpt><trkpt lat="45.881708783374705" lon="11.548307610887258"><ele>1081.0</ele><time>2026-04-12T08:39:01.999Z</time></trkpt><trkpt lat="45.881845403802664" lon="11.548283498621286"><ele>1081.25</ele><time>2026-04-12T08:39:02.999Z</time></trkpt><trkpt lat="45.88198070474813" lon="11.548261124384963"><ele>1081.5</ele><time>2026-04-12T08:39:03.999Z</time></trkpt><trkpt lat="45.88211725824847" lon="11.54823694222256"><ele>1081.75</ele><time>2026-04-12T08:39:04.999Z</time></trkpt><trkpt lat="45.88225719193392" lon="11.548212246847777"><ele>1082.0</ele><time>2026-04-12T08:39:05.999Z</time></trkpt><trkpt lat="45.88239562669859" lon="11.548189532921764"><ele>1082.0</ele><time>2026-04-12T08:39:06.999Z</time></trkpt><trkpt lat="45.88253627733482" lon="11.548168100561613"><ele>1082.0</ele><time>2026-04-12T08:39:07.999Z</time></trkpt><trkpt lat="45.88267161188868" lon="11.548152652476059"><ele>1082.0</ele><time>2026-04-12T08:39:08.999Z</time></trkpt><trkpt lat="45.88279852481095" lon="11.548140740774794"><ele>1082.0</ele><time>2026-04-12T08:39:09.999Z</time></trkpt><trkpt lat="45.88292088029994" lon="11.548124579293994"><ele>1083.0</ele><time>2026-04-12T08:39:10.999Z</time></trkpt><trkpt lat="45.883037539923066" lon="11.54810918679826"><ele>1084.0</ele><time>2026-04-12T08:39:11.999Z</time></trkpt><trkpt lat="45.883155784509945" lon="11.548088209200685"><ele>1085.0</ele><time>2026-04-12T08:39:12.999Z</time></trkpt><trkpt lat="45.8832781424844" lon="11.548071209679474"><ele>1086.0</ele><time>2026-04-12T08:39:13.999Z</time></trkpt><trkpt lat="45.88340590157062" lon="11.548062755772103"><ele>1083.75</ele><time>2026-04-12T08:39:14.999Z</time></trkpt><trkpt lat="45.883536110785634" lon="11.548038492430099"><ele>1081.5</ele><time>2026-04-12T08:39:15.999Z</time></trkpt><trkpt lat="45.883663805942646" lon="11.548013263285815"><ele>1079.25</ele><time>2026-04-12T08:39:16.999Z</time></trkpt><trkpt lat="45.883799286080674" lon="11.547993877979051"><ele>1077.0</ele><time>2026-04-12T08:39:17.999Z</time></trkpt><trkpt lat="45.88394302460296" lon="11.54798063512485"><ele>1077.0</ele><time>2026-04-12T08:39:18.999Z</time></trkpt><trkpt lat="45.88408573417221" lon="11.547971665830037"><ele>1077.0</ele><time>2026-04-12T08:39:19.999Z</time></trkpt><trkpt lat="45.88422471153094" lon="11.54796890195839"><ele>1077.0</ele><time>2026-04-12T08:39:20.999Z</time></trkpt><trkpt lat="45.88435764554104" lon="11.54797297108286"><ele>1077.0</ele><time>2026-04-12T08:39:21.999Z</time></trkpt><trkpt lat="45.884482711573796" lon="11.547987299145648"><ele>1076.25</ele><time>2026-04-12T08:39:22.999Z</time></trkpt><trkpt lat="45.884607570947225" lon="11.547997004505586"><ele>1075.5</ele><time>2026-04-12T08:39:23.999Z</time></trkpt><trkpt lat="45.88473161467875" lon="11.548026574032916"><ele>1074.75</ele><time>2026-04-12T08:39:24.999Z</time></trkpt><trkpt lat="45.88487094736546" lon="11.54805090884944"><ele>1074.0</ele><time>2026-04-12T08:39:25.999Z</time></trkpt><trkpt lat="45.88501337475366" lon="11.548084870760064"><ele>1074.5</ele><time>2026-04-12T08:39:26.999Z</time></trkpt><trkpt lat="45.885157559238166" lon="11.548124279456353"><ele>1075.0</ele><time>2026-04-12T08:39:27.998Z</time></trkpt><trkpt lat="45.88530158494466" lon="11.548163152275736"><ele>1075.5</ele><time>2026-04-12T08:39:28.998Z</time></trkpt><trkpt lat="45.88544244925644" lon="11.548205387612473"><ele>1076.0</ele><time>2026-04-12T08:39:29.998Z</time></trkpt><trkpt lat="45.885579988898996" lon="11.548244921437547"><ele>1076.0</ele><time>2026-04-12T08:39:30.998Z</time></trkpt><trkpt lat="45.88570495169674" lon="11.548282410761288"><ele>1076.0</ele><time>2026-04-12T08:39:31.998Z</time></trkpt><trkpt lat="45.88582211630345" lon="11.548315106005072"><ele>1076.0</ele><time>2026-04-12T08:39:32.998Z</time></trkpt><trkpt lat="45.88593331515947" lon="11.548347544485143"><ele>1076.0</ele><time>2026-04-12T08:39:33.998Z</time></trkpt><trkpt lat="45.88603280024552" lon="11.548375420202019"><ele>1076.2</ele><time>2026-04-12T08:39:34.998Z</time></trkpt><trkpt lat="45.886115300204146" lon="11.54840048478815"><ele>1076.3999999999999</ele><time>2026-04-12T08:39:35.998Z</time></trkpt><trkpt lat="45.88620534537581" lon="11.548432863678345"><ele>1076.6</ele><time>2026-04-12T08:39:36.998Z</time></trkpt><trkpt lat="45.886295702350324" lon="11.548482697784733"><ele>1076.8</ele><time>2026-04-12T08:39:37.998Z</time></trkpt><trkpt lat="45.88640153802976" lon="11.548523044834493"><ele>1077.0</ele><time>2026-04-12T08:39:38.998Z</time></trkpt><trkpt lat="45.88653579071831" lon="11.548531442227086"><ele>1077.0</ele><time>2026-04-12T08:39:39.998Z</time></trkpt><trkpt lat="45.8866868306009" lon="11.548560345022436"><ele>1077.0</ele><time>2026-04-12T08:39:40.998Z</time></trkpt><trkpt lat="45.88685394200879" lon="11.548607792108754"><ele>1077.0</ele><time>2026-04-12T08:39:41.998Z</time></trkpt><trkpt lat="45.887015103184964" lon="11.5486406163098"><ele>1078.25</ele><time>2026-04-12T08:39:42.998Z</time></trkpt><trkpt lat="45.88717464000229" lon="11.54864753221332"><ele>1079.5</ele><time>2026-04-12T08:39:43.998Z</time></trkpt><trkpt lat="45.887319919075594" lon="11.548644988149983"><ele>1080.75</ele><time>2026-04-12T08:39:44.998Z</time></trkpt><trkpt lat="45.88744884736057" lon="11.548638692607247"><ele>1082.0</ele><time>2026-04-12T08:39:45.998Z</time></trkpt><trkpt lat="45.887575647946946" lon="11.548634072534403"><ele>1082.0</ele><time>2026-04-12T08:39:46.998Z</time></trkpt><trkpt lat="45.88771492165707" lon="11.5486147937013"><ele>1082.0</ele><time>2026-04-12T08:39:47.998Z</time></trkpt><trkpt lat="45.88786404716007" lon="11.548567980823675"><ele>1082.0</ele><time>2026-04-12T08:39:48.998Z</time></trkpt><trkpt lat="45.88798950655404" lon="11.548489156562454"><ele>1082.0</ele><time>2026-04-12T08:39:49.998Z</time></trkpt><trkpt lat="45.888089310933786" lon="11.54838832160045"><ele>1082.0</ele><time>2026-04-12T08:39:50.998Z</time></trkpt><trkpt lat="45.88816671577535" lon="11.548266045500801"><ele>1082.0</ele><time>2026-04-12T08:39:51.998Z</time></trkpt><trkpt lat="45.88824307838026" lon="11.548157582578336"><ele>1082.0</ele><time>2026-04-12T08:39:52.998Z</time></trkpt><trkpt lat="45.888320327323086" lon="11.54805632931741"><ele>1082.0</ele><time>2026-04-12T08:39:54Z</time></trkpt><trkpt lat="45.88840101902054" lon="11.547970209812982"><ele>1082.0</ele><time>2026-04-12T08:39:55Z</time></trkpt><trkpt lat="45.88850265507884" lon="11.547940475908858"><ele>1081.25</ele><time>2026-04-12T08:39:56Z</time></trkpt><trkpt lat="45.888604336715" lon="11.547862399720957"><ele>1080.5</ele><time>2026-04-12T08:39:57Z</time></trkpt><trkpt lat="45.888718661978814" lon="11.547815908165495"><ele>1079.75</ele><time>2026-04-12T08:39:58Z</time></trkpt><trkpt lat="45.888834855561925" lon="11.547773062773581"><ele>1079.0</ele><time>2026-04-12T08:39:59Z</time></trkpt><trkpt lat="45.88895796766384" lon="11.547752727133537"><ele>1079.0</ele><time>2026-04-12T08:40:00Z</time></trkpt><trkpt lat="45.88908375598889" lon="11.547745692725293"><ele>1079.0</ele><time>2026-04-12T08:40:01Z</time></trkpt><trkpt lat="45.88921159512653" lon="11.54774705963959"><ele>1079.0</ele><time>2026-04-12T08:40:02Z</time></trkpt><trkpt lat="45.88934397045083" lon="11.547755358180037"><ele>1079.0</ele><time>2026-04-12T08:40:03Z</time></trkpt><trkpt lat="45.88947270211891" lon="11.547774665493334"><ele>1079.0</ele><time>2026-04-12T08:40:04Z</time></trkpt><trkpt lat="45.88959727444082" lon="11.547782005770468"><ele>1079.0</ele><time>2026-04-12T08:40:05Z</time></trkpt><trkpt lat="45.88972154639022" lon="11.547795530273037"><ele>1079.0</ele><time>2026-04-12T08:40:06Z</time></trkpt><trkpt lat="45.889847221701075" lon="11.547797877885628"><ele>1079.0</ele><time>2026-04-12T08:40:07Z</time></trkpt><trkpt lat="45.88996806076141" lon="11.547804677377075"><ele>1079.0</ele><time>2026-04-12T08:40:08Z</time></trkpt><trkpt lat="45.890085218743174" lon="11.547820449622979"><ele>1079.0</ele><time>2026-04-12T08:40:09Z</time></trkpt><trkpt lat="45.890198117698205" lon="11.547845489926194"><ele>1079.0</ele><time>2026-04-12T08:40:10Z</time></trkpt><trkpt lat="45.890309692922024" lon="11.54788085466202"><ele>1079.0</ele><time>2026-04-12T08:40:11Z</time></trkpt><trkpt lat="45.890420164594595" lon="11.54791954725511"><ele>1079.25</ele><time>2026-04-12T08:40:12Z</time></trkpt><trkpt lat="45.89052759241074" lon="11.547960099042273"><ele>1079.5</ele><time>2026-04-12T08:40:13Z</time></trkpt><trkpt lat="45.89063457798628" lon="11.54800195219102"><ele>1079.75</ele><time>2026-04-12T08:40:14Z</time></trkpt><trkpt lat="45.89074842271485" lon="11.548041164144198"><ele>1080.0</ele><time>2026-04-12T08:40:15Z</time></trkpt><trkpt lat="45.89086264408262" lon="11.548088649510351"><ele>1080.8</ele><time>2026-04-12T08:40:16Z</time></trkpt><trkpt lat="45.89096967574378" lon="11.548119644651681"><ele>1081.6</ele><time>2026-04-12T08:40:17Z</time></trkpt><trkpt lat="45.891078804005495" lon="11.548126088699247"><ele>1082.4</ele><time>2026-04-12T08:40:18Z</time></trkpt><trkpt lat="45.8911887229067" lon="11.54810442165509"><ele>1083.2</ele><time>2026-04-12T08:40:19Z</time></trkpt><trkpt lat="45.891295459513486" lon="11.54810271154809"><ele>1084.0</ele><time>2026-04-12T08:40:20Z</time></trkpt><trkpt lat="45.891389896118305" lon="11.548042388936159"><ele>1084.0</ele><time>2026-04-12T08:40:21Z</time></trkpt><trkpt lat="45.89148817264554" lon="11.548002616738401"><ele>1084.0</ele><time>2026-04-12T08:40:22Z</time></trkpt><trkpt lat="45.89158309472148" lon="11.547959443376264"><ele>1084.0</ele><time>2026-04-12T08:40:23Z</time></trkpt><trkpt lat="45.8916682531971" lon="11.54792916120166"><ele>1084.0</ele><time>2026-04-12T08:40:24Z</time></trkpt><trkpt lat="45.891739090200495" lon="11.547892212422182"><ele>1084.0</ele><time>2026-04-12T08:40:25Z</time></trkpt><trkpt lat="45.891799728503" lon="11.547854645930311"><ele>1084.0</ele><time>2026-04-12T08:40:26Z</time></trkpt><trkpt lat="45.89192335105687" lon="11.547814039676032"><ele>1084.6000000000001</ele><time>2026-04-12T08:40:28Z</time></trkpt><trkpt lat="45.89199391928412" lon="11.547789129665835"><ele>1085.2</ele><time>2026-04-12T08:40:29Z</time></trkpt><trkpt lat="45.89210253271849" lon="11.547781180784042"><ele>1085.8000000000002</ele><time>2026-04-12T08:40:31Z</time></trkpt><trkpt lat="45.89220243678737" lon="11.547768273788112"><ele>1086.4</ele><time>2026-04-12T08:40:33Z</time></trkpt><trkpt lat="45.89228879425872" lon="11.547794903815788"><ele>1087.0</ele><time>2026-04-12T08:40:35Z</time></trkpt><trkpt lat="45.892370040070574" lon="11.547832823871783"><ele>1086.8</ele><time>2026-04-12T08:40:37.999Z</time></trkpt><trkpt lat="45.892453594524895" lon="11.547893763314498"><ele>1086.6</ele><time>2026-04-12T08:40:40.999Z</time></trkpt><trkpt lat="45.89246352593365" lon="11.54805685110101"><ele>1086.3999999999999</ele><time>2026-04-12T08:40:42.999Z</time></trkpt><trkpt lat="45.892454525291434" lon="11.548148391503634"><ele>1086.2</ele><time>2026-04-12T08:40:43.999Z</time></trkpt><trkpt lat="45.892445907406376" lon="11.548300091091855"><ele>1086.0</ele><time>2026-04-12T08:40:44.999Z</time></trkpt><trkpt lat="45.892437404955274" lon="11.548444598510594"><ele>1086.0</ele><time>2026-04-12T08:40:45.999Z</time></trkpt><trkpt lat="45.892420580567176" lon="11.548597180730118"><ele>1086.0</ele><time>2026-04-12T08:40:46.999Z</time></trkpt><trkpt lat="45.89239260331948" lon="11.54877487168376"><ele>1086.0</ele><time>2026-04-12T08:40:47.999Z</time></trkpt><trkpt lat="45.89236308525007" lon="11.548952608122052"><ele>1086.0</ele><time>2026-04-12T08:40:48.999Z</time></trkpt><trkpt lat="45.892337972691834" lon="11.549125100271793"><ele>1086.0</ele><time>2026-04-12T08:40:49.999Z</time></trkpt><trkpt lat="45.89231096943628" lon="11.549310402666386"><ele>1086.0</ele><time>2026-04-12T08:40:50.999Z</time></trkpt><trkpt lat="45.89228588425347" lon="11.549495640069683"><ele>1086.0</ele><time>2026-04-12T08:40:51.999Z</time></trkpt><trkpt lat="45.89226293471847" lon="11.549682034615103"><ele>1086.0</ele><time>2026-04-12T08:40:52.999Z</time></trkpt><trkpt lat="45.892235165411726" lon="11.549869405138221"><ele>1087.0</ele><time>2026-04-12T08:40:53.999Z</time></trkpt><trkpt lat="45.892210005890504" lon="11.550060519196876"><ele>1088.0</ele><time>2026-04-12T08:40:54.999Z</time></trkpt><trkpt lat="45.892185080392395" lon="11.550248470947029"><ele>1089.0</ele><time>2026-04-12T08:40:55.999Z</time></trkpt><trkpt lat="45.89216012023014" lon="11.550436684074166"><ele>1090.0</ele><time>2026-04-12T08:40:56.999Z</time></trkpt><trkpt lat="45.89214974263297" lon="11.550628656713254"><ele>1091.5</ele><time>2026-04-12T08:40:57.999Z</time></trkpt><trkpt lat="45.89211030750319" lon="11.550811856668366"><ele>1093.0</ele><time>2026-04-12T08:40:58.999Z</time></trkpt><trkpt lat="45.892087942018016" lon="11.550984432999188"><ele>1094.5</ele><time>2026-04-12T08:40:59.999Z</time></trkpt><trkpt lat="45.89206512138827" lon="11.551160768577272"><ele>1096.0</ele><time>2026-04-12T08:41:00.999Z</time></trkpt><trkpt lat="45.89204303081553" lon="11.551331463023843"><ele>1096.3999999999999</ele><time>2026-04-12T08:41:01.999Z</time></trkpt><trkpt lat="45.89203313358715" lon="11.55149286300054"><ele>1096.8</ele><time>2026-04-12T08:41:02.999Z</time></trkpt><trkpt lat="45.89200895948792" lon="11.551641234502979"><ele>1097.1999999999998</ele><time>2026-04-12T08:41:03.999Z</time></trkpt><trkpt lat="45.891992477934984" lon="11.551797298008198"><ele>1097.6</ele><time>2026-04-12T08:41:04.999Z</time></trkpt><trkpt lat="45.8919721782108" lon="11.551946489929339"><ele>1098.0</ele><time>2026-04-12T08:41:05.999Z</time></trkpt><trkpt lat="45.89195321400909" lon="11.55207379848738"><ele>1098.4</ele><time>2026-04-12T08:41:06.999Z</time></trkpt><trkpt lat="45.89194315271087" lon="11.552192907184594"><ele>1098.8</ele><time>2026-04-12T08:41:07.999Z</time></trkpt><trkpt lat="45.89192861434798" lon="11.552333267161549"><ele>1099.2</ele><time>2026-04-12T08:41:08.999Z</time></trkpt><trkpt lat="45.89190979827035" lon="11.552473155857948"><ele>1099.6</ele><time>2026-04-12T08:41:09.999Z</time></trkpt><trkpt lat="45.891888628305736" lon="11.552619401763323"><ele>1100.0</ele><time>2026-04-12T08:41:10.999Z</time></trkpt><trkpt lat="45.89185656829948" lon="11.552767478549923"><ele>1100.5</ele><time>2026-04-12T08:41:11.999Z</time></trkpt><trkpt lat="45.89181139789607" lon="11.552935088092317"><ele>1101.0</ele><time>2026-04-12T08:41:12.999Z</time></trkpt><trkpt lat="45.89176865261963" lon="11.553098442789082"><ele>1101.5</ele><time>2026-04-12T08:41:13.999Z</time></trkpt><trkpt lat="45.891738287752325" lon="11.553278933295935"><ele>1102.0</ele><time>2026-04-12T08:41:14.999Z</time></trkpt><trkpt lat="45.891699614736694" lon="11.553464032483546"><ele>1100.25</ele><time>2026-04-12T08:41:15.999Z</time></trkpt><trkpt lat="45.89165517487608" lon="11.55364819405279"><ele>1098.5</ele><time>2026-04-12T08:41:16.999Z</time></trkpt><trkpt lat="45.89163466996371" lon="11.553848206631216"><ele>1096.75</ele><time>2026-04-12T08:41:17.999Z</time></trkpt><trkpt lat="45.89160095470303" lon="11.554041903643112"><ele>1095.0</ele><time>2026-04-12T08:41:18.999Z</time></trkpt><trkpt lat="45.8915731257293" lon="11.554230342825823"><ele>1095.0</ele><time>2026-04-12T08:41:19.999Z</time></trkpt><trkpt lat="45.891560277437826" lon="11.554418521449275"><ele>1095.0</ele><time>2026-04-12T08:41:20.999Z</time></trkpt><trkpt lat="45.89153719544488" lon="11.554596052393626"><ele>1095.0</ele><time>2026-04-12T08:41:21.999Z</time></trkpt><trkpt lat="45.89151118244674" lon="11.554768271981821"><ele>1095.0</ele><time>2026-04-12T08:41:22.999Z</time></trkpt><trkpt lat="45.89148610191434" lon="11.554934896302294"><ele>1095.0</ele><time>2026-04-12T08:41:23.999Z</time></trkpt><trkpt lat="45.89146533980729" lon="11.555107104899685"><ele>1095.0</ele><time>2026-04-12T08:41:24.999Z</time></trkpt><trkpt lat="45.89144242558798" lon="11.555282916606625"><ele>1095.0</ele><time>2026-04-12T08:41:25.999Z</time></trkpt><trkpt lat="45.89142271305185" lon="11.555446946732994"><ele>1095.0</ele><time>2026-04-12T08:41:26.999Z</time></trkpt><trkpt lat="45.891399705105414" lon="11.555612202727314"><ele>1096.25</ele><time>2026-04-12T08:41:27.999Z</time></trkpt><trkpt lat="45.89137373820078" lon="11.555773713279066"><ele>1097.5</ele><time>2026-04-12T08:41:28.999Z</time></trkpt><trkpt lat="45.89135117543547" lon="11.555935297130397"><ele>1098.75</ele><time>2026-04-12T08:41:29.999Z</time></trkpt><trkpt lat="45.89132875135005" lon="11.556100144093765"><ele>1100.0</ele><time>2026-04-12T08:41:30.999Z</time></trkpt><trkpt lat="45.8913136585064" lon="11.556260963445999"><ele>1100.25</ele><time>2026-04-12T08:41:31.999Z</time></trkpt><trkpt lat="45.891313083194476" lon="11.556422101240788"><ele>1100.5</ele><time>2026-04-12T08:41:32.998Z</time></trkpt><trkpt lat="45.891332122464355" lon="11.556581620084422"><ele>1100.75</ele><time>2026-04-12T08:41:33.998Z</time></trkpt><trkpt lat="45.89138060617935" lon="11.556735304553062"><ele>1101.0</ele><time>2026-04-12T08:41:34.998Z</time></trkpt><trkpt lat="45.89147424362009" lon="11.556867982908557"><ele>1101.0</ele><time>2026-04-12T08:41:35.998Z</time></trkpt><trkpt lat="45.89158503978639" lon="11.556995652588837"><ele>1101.0</ele><time>2026-04-12T08:41:36.998Z</time></trkpt><trkpt lat="45.8916970873037" lon="11.557129260454635"><ele>1101.0</ele><time>2026-04-12T08:41:37.998Z</time></trkpt><trkpt lat="45.89179384300466" lon="11.557259795476313"><ele>1101.0</ele><time>2026-04-12T08:41:38.998Z</time></trkpt><trkpt lat="45.89188567289142" lon="11.55738114313478"><ele>1100.25</ele><time>2026-04-12T08:41:39.998Z</time></trkpt><trkpt lat="45.891973257186415" lon="11.55750140066434"><ele>1099.5</ele><time>2026-04-12T08:41:40.998Z</time></trkpt><trkpt lat="45.89206206275652" lon="11.557621207036371"><ele>1098.75</ele><time>2026-04-12T08:41:41.998Z</time></trkpt><trkpt lat="45.89213348122715" lon="11.55776929385008"><ele>1098.0</ele><time>2026-04-12T08:41:42.998Z</time></trkpt><trkpt lat="45.892174938275794" lon="11.557931471018932"><ele>1098.0</ele><time>2026-04-12T08:41:43.998Z</time></trkpt><trkpt lat="45.89217110975774" lon="11.558131794328599"><ele>1098.0</ele><time>2026-04-12T08:41:44.998Z</time></trkpt><trkpt lat="45.89218369302186" lon="11.558330124090398"><ele>1098.0</ele><time>2026-04-12T08:41:45.998Z</time></trkpt><trkpt lat="45.89219585978256" lon="11.558508829025746"><ele>1098.0</ele><time>2026-04-12T08:41:46.998Z</time></trkpt><trkpt lat="45.89222481817977" lon="11.558659613575925"><ele>1099.75</ele><time>2026-04-12T08:41:47.998Z</time></trkpt><trkpt lat="45.89229110036621" lon="11.558786588465608"><ele>1101.5</ele><time>2026-04-12T08:41:48.998Z</time></trkpt><trkpt lat="45.89239833715475" lon="11.558894509163387"><ele>1103.25</ele><time>2026-04-12T08:41:49.998Z</time></trkpt><trkpt lat="45.892514111069026" lon="11.558985046891873"><ele>1105.0</ele><time>2026-04-12T08:41:50.998Z</time></trkpt><trkpt lat="45.89264170877647" lon="11.559075773344023"><ele>1105.0</ele><time>2026-04-12T08:41:51.998Z</time></trkpt><trkpt lat="45.89277499316864" lon="11.559179356495614"><ele>1105.0</ele><time>2026-04-12T08:41:52.998Z</time></trkpt><trkpt lat="45.89289875322681" lon="11.559315543161102"><ele>1105.0</ele><time>2026-04-12T08:41:53.998Z</time></trkpt><trkpt lat="45.89302329759513" lon="11.559447058103862"><ele>1107.25</ele><time>2026-04-12T08:41:54.998Z</time></trkpt><trkpt lat="45.8931436583468" lon="11.559575649988268"><ele>1109.5</ele><time>2026-04-12T08:41:55.998Z</time></trkpt><trkpt lat="45.89326919804438" lon="11.559685976395262"><ele>1111.75</ele><time>2026-04-12T08:41:56.998Z</time></trkpt><trkpt lat="45.89337805117347" lon="11.559827016179275"><ele>1114.0</ele><time>2026-04-12T08:41:57.998Z</time></trkpt><trkpt lat="45.893479719959565" lon="11.559984090133286"><ele>1114.0</ele><time>2026-04-12T08:41:58.998Z</time></trkpt><trkpt lat="45.893552178257984" lon="11.560185565658339"><ele>1114.0</ele><time>2026-04-12T08:42:00Z</time></trkpt><trkpt lat="45.893644990704104" lon="11.560376335490334"><ele>1114.0</ele><time>2026-04-12T08:42:01Z</time></trkpt><trkpt lat="45.893713916269014" lon="11.56058511438183"><ele>1107.3333333333333</ele><time>2026-04-12T08:42:02Z</time></trkpt><trkpt lat="45.89378944796399" lon="11.56079329244158"><ele>1100.6666666666667</ele><time>2026-04-12T08:42:03Z</time></trkpt><trkpt lat="45.8938685298208" lon="11.560994314834689"><ele>1094.0</ele><time>2026-04-12T08:42:04Z</time></trkpt><trkpt lat="45.89394567273044" lon="11.56118765478521"><ele>1096.25</ele><time>2026-04-12T08:42:05Z</time></trkpt><trkpt lat="45.89402954002282" lon="11.561361842076836"><ele>1098.5</ele><time>2026-04-12T08:42:06Z</time></trkpt><trkpt lat="45.89412549258984" lon="11.561508464031732"><ele>1100.75</ele><time>2026-04-12T08:42:07Z</time></trkpt><trkpt lat="45.89424679432726" lon="11.561627954644472"><ele>1103.0</ele><time>2026-04-12T08:42:08Z</time></trkpt><trkpt lat="45.89438547753317" lon="11.561732844196394"><ele>1103.0</ele><time>2026-04-12T08:42:09Z</time></trkpt><trkpt lat="45.89452857383361" lon="11.561841138258975"><ele>1103.0</ele><time>2026-04-12T08:42:10Z</time></trkpt><trkpt lat="45.894663061877964" lon="11.56196054279074"><ele>1103.0</ele><time>2026-04-12T08:42:11Z</time></trkpt><trkpt lat="45.89479128782393" lon="11.562075787883765"><ele>1097.0</ele><time>2026-04-12T08:42:12Z</time></trkpt><trkpt lat="45.89491698035073" lon="11.56216565445073"><ele>1091.0</ele><time>2026-04-12T08:42:13Z</time></trkpt><trkpt lat="45.8950541121369" lon="11.562218590937368"><ele>1085.0</ele><time>2026-04-12T08:42:14Z</time></trkpt><trkpt lat="45.89520763684734" lon="11.562235591408884"><ele>1079.0</ele><time>2026-04-12T08:42:15Z</time></trkpt><trkpt lat="45.89537035276432" lon="11.56223038053479"><ele>1078.3333333333335</ele><time>2026-04-12T08:42:16Z</time></trkpt><trkpt lat="45.89553040576609" lon="11.562236597700128"><ele>1077.6666666666667</ele><time>2026-04-12T08:42:17Z</time></trkpt><trkpt lat="45.8956853966009" lon="11.562243985108973"><ele>1077.0</ele><time>2026-04-12T08:42:18Z</time></trkpt><trkpt lat="45.895820391991975" lon="11.56223037944902"><ele>1077.75</ele><time>2026-04-12T08:42:19Z</time></trkpt><trkpt lat="45.89594455155244" lon="11.562170731938217"><ele>1078.5</ele><time>2026-04-12T08:42:20Z</time></trkpt><trkpt lat="45.89604817074394" lon="11.5620707431178"><ele>1079.25</ele><time>2026-04-12T08:42:21Z</time></trkpt><trkpt lat="45.89613791336061" lon="11.561905954392635"><ele>1080.0</ele><time>2026-04-12T08:42:22Z</time></trkpt><trkpt lat="45.89621448640143" lon="11.561717984519483"><ele>1080.0</ele><time>2026-04-12T08:42:23Z</time></trkpt><trkpt lat="45.89629928553148" lon="11.561554587941641"><ele>1080.0</ele><time>2026-04-12T08:42:24Z</time></trkpt><trkpt lat="45.89639684889167" lon="11.561444552909693"><ele>1080.0</ele><time>2026-04-12T08:42:25Z</time></trkpt><trkpt lat="45.89648131301033" lon="11.56131993275982"><ele>1080.0</ele><time>2026-04-12T08:42:26Z</time></trkpt><trkpt lat="45.89657996873037" lon="11.561238150786032"><ele>1080.0</ele><time>2026-04-12T08:42:27Z</time></trkpt><trkpt lat="45.89669450949489" lon="11.561240997591796"><ele>1080.0</ele><time>2026-04-12T08:42:28Z</time></trkpt><trkpt lat="45.896810488924245" lon="11.5612635262545"><ele>1080.0</ele><time>2026-04-12T08:42:29Z</time></trkpt><trkpt lat="45.896913500562945" lon="11.561356995275826"><ele>1080.0</ele><time>2026-04-12T08:42:30Z</time></trkpt><trkpt lat="45.896987763027724" lon="11.56150931460887"><ele>1086.0</ele><time>2026-04-12T08:42:31Z</time></trkpt><trkpt lat="45.897082899958775" lon="11.561674095046234"><ele>1092.0</ele><time>2026-04-12T08:42:32Z</time></trkpt><trkpt lat="45.897186232117484" lon="11.561841633954145"><ele>1098.0</ele><time>2026-04-12T08:42:33Z</time></trkpt><trkpt lat="45.897292377986325" lon="11.562023415479857"><ele>1098.3333333333333</ele><time>2026-04-12T08:42:34Z</time></trkpt><trkpt lat="45.897413358601064" lon="11.562184380479001"><ele>1098.6666666666665</ele><time>2026-04-12T08:42:35Z</time></trkpt><trkpt lat="45.89754849531464" lon="11.562317675578148"><ele>1099.0</ele><time>2026-04-12T08:42:36Z</time></trkpt><trkpt lat="45.89769759885369" lon="11.562427413070642"><ele>1099.0</ele><time>2026-04-12T08:42:37Z</time></trkpt><trkpt lat="45.89785552333329" lon="11.562538387522755"><ele>1099.0</ele><time>2026-04-12T08:42:38Z</time></trkpt><trkpt lat="45.89798694247349" lon="11.562696004614848"><ele>1099.0</ele><time>2026-04-12T08:42:39Z</time></trkpt><trkpt lat="45.89812013439985" lon="11.562840818624693"><ele>1101.3333333333333</ele><time>2026-04-12T08:42:40Z</time></trkpt><trkpt lat="45.89825790314953" lon="11.562971758151427"><ele>1103.6666666666667</ele><time>2026-04-12T08:42:41Z</time></trkpt><trkpt lat="45.8983698575891" lon="11.563110416355649"><ele>1106.0</ele><time>2026-04-12T08:42:42Z</time></trkpt><trkpt lat="45.89846698234575" lon="11.563265285617145"><ele>1106.0</ele><time>2026-04-12T08:42:42.999Z</time></trkpt><trkpt lat="45.89853324783383" lon="11.563461371493453"><ele>1106.0</ele><time>2026-04-12T08:42:43.999Z</time></trkpt><trkpt lat="45.8986203244132" lon="11.563646523545343"><ele>1106.0</ele><time>2026-04-12T08:42:44.999Z</time></trkpt><trkpt lat="45.898701631219346" lon="11.563844910218156"><ele>1101.3333333333335</ele><time>2026-04-12T08:42:45.999Z</time></trkpt><trkpt lat="45.89880472217733" lon="11.564029879424972"><ele>1096.6666666666667</ele><time>2026-04-12T08:42:46.999Z</time></trkpt><trkpt lat="45.89890910851919" lon="11.564191337076913"><ele>1092.0</ele><time>2026-04-12T08:42:47.999Z</time></trkpt><trkpt lat="45.8989887063582" lon="11.56435716586422"><ele>1092.0</ele><time>2026-04-12T08:42:48.999Z</time></trkpt><trkpt lat="45.8990472432804" lon="11.564510455755128"><ele>1092.0</ele><time>2026-04-12T08:42:49.999Z</time></trkpt><trkpt lat="45.899071103273656" lon="11.564675522134344"><ele>1092.0</ele><time>2026-04-12T08:42:50.999Z</time></trkpt><trkpt lat="45.89905227324009" lon="11.564845075667137"><ele>1092.0</ele><time>2026-04-12T08:42:51.999Z</time></trkpt><trkpt lat="45.89899649086417" lon="11.56500848675459"><ele>1091.0</ele><time>2026-04-12T08:42:52.999Z</time></trkpt><trkpt lat="45.89890066955652" lon="11.565125513729852"><ele>1090.0</ele><time>2026-04-12T08:42:53.999Z</time></trkpt><trkpt lat="45.89877017690337" lon="11.56520029736839"><ele>1089.0</ele><time>2026-04-12T08:42:54.999Z</time></trkpt><trkpt lat="45.898618856698626" lon="11.56528355307185"><ele>1088.0</ele><time>2026-04-12T08:42:55.999Z</time></trkpt><trkpt lat="45.89847285909253" lon="11.565376394402826"><ele>1088.0</ele><time>2026-04-12T08:42:56.999Z</time></trkpt><trkpt lat="45.8983259381705" lon="11.565431040581908"><ele>1088.0</ele><time>2026-04-12T08:42:57.999Z</time></trkpt><trkpt lat="45.8981803074444" lon="11.565434807219134"><ele>1088.0</ele><time>2026-04-12T08:42:58.999Z</time></trkpt><trkpt lat="45.89803793701209" lon="11.565469104634397"><ele>1088.0</ele><time>2026-04-12T08:42:59.999Z</time></trkpt><trkpt lat="45.89789803013117" lon="11.565482094713914"><ele>1088.0</ele><time>2026-04-12T08:43:00.999Z</time></trkpt><trkpt lat="45.89775384611609" lon="11.565550694447312"><ele>1088.0</ele><time>2026-04-12T08:43:01.999Z</time></trkpt><trkpt lat="45.89761832343267" lon="11.565661234933318"><ele>1088.0</ele><time>2026-04-12T08:43:02.999Z</time></trkpt><trkpt lat="45.89749920483374" lon="11.565776448319006"><ele>1082.8</ele><time>2026-04-12T08:43:03.999Z</time></trkpt><trkpt lat="45.897396424186475" lon="11.5658697916585"><ele>1077.6</ele><time>2026-04-12T08:43:04.999Z</time></trkpt><trkpt lat="45.89731629285011" lon="11.565972605023683"><ele>1072.4</ele><time>2026-04-12T08:43:05.999Z</time></trkpt><trkpt lat="45.89727128207742" lon="11.566105768356202"><ele>1067.2</ele><time>2026-04-12T08:43:06.999Z</time></trkpt><trkpt lat="45.89726703212667" lon="11.566266205519662"><ele>1062.0</ele><time>2026-04-12T08:43:07.999Z</time></trkpt><trkpt lat="45.897324480449846" lon="11.566426292429917"><ele>1062.0</ele><time>2026-04-12T08:43:08.999Z</time></trkpt><trkpt lat="45.897412765467216" lon="11.566556576556426"><ele>1062.0</ele><time>2026-04-12T08:43:09.999Z</time></trkpt><trkpt lat="45.897513031408124" lon="11.566650177803641"><ele>1062.0</ele><time>2026-04-12T08:43:10.999Z</time></trkpt><trkpt lat="45.89760725736027" lon="11.5667358217602"><ele>1062.0</ele><time>2026-04-12T08:43:11.999Z</time></trkpt><trkpt lat="45.89766034171005" lon="11.566845895441272"><ele>1066.4</ele><time>2026-04-12T08:43:12.999Z</time></trkpt><trkpt lat="45.897687938884715" lon="11.566952603220566"><ele>1070.8000000000002</ele><time>2026-04-12T08:43:13.999Z</time></trkpt><trkpt lat="45.89767145850034" lon="11.567066099357994"><ele>1075.2</ele><time>2026-04-12T08:43:14.999Z</time></trkpt><trkpt lat="45.89763088691275" lon="11.56717379343717"><ele>1079.6000000000001</ele><time>2026-04-12T08:43:15.999Z</time></trkpt><trkpt lat="45.89752009222712" lon="11.567230813121"><ele>1084.0</ele><time>2026-04-12T08:43:16.999Z</time></trkpt><trkpt lat="45.897407368626055" lon="11.567245548935004"><ele>1084.0</ele><time>2026-04-12T08:43:17.999Z</time></trkpt><trkpt lat="45.8972867418151" lon="11.567293740303837"><ele>1084.0</ele><time>2026-04-12T08:43:18.999Z</time></trkpt><trkpt lat="45.89715364247721" lon="11.567333524107731"><ele>1084.0</ele><time>2026-04-12T08:43:19.999Z</time></trkpt><trkpt lat="45.897027508711666" lon="11.567378764620397"><ele>1084.0</ele><time>2026-04-12T08:43:20.999Z</time></trkpt><trkpt lat="45.89689357468242" lon="11.567419464103573"><ele>1084.0</ele><time>2026-04-12T08:43:21.999Z</time></trkpt><trkpt lat="45.89676149939153" lon="11.567442582823636"><ele>1084.0</ele><time>2026-04-12T08:43:22.999Z</time></trkpt><trkpt lat="45.896639800051936" lon="11.567432420819747"><ele>1084.0</ele><time>2026-04-12T08:43:23.999Z</time></trkpt><trkpt lat="45.8965314580201" lon="11.567394431853602"><ele>1084.0</ele><time>2026-04-12T08:43:24.999Z</time></trkpt><trkpt lat="45.8964298279735" lon="11.56735371202837"><ele>1081.6666666666665</ele><time>2026-04-12T08:43:25.999Z</time></trkpt><trkpt lat="45.89635570615229" lon="11.567310977411106"><ele>1079.3333333333333</ele><time>2026-04-12T08:43:26.999Z</time></trkpt><trkpt lat="45.89626786338701" lon="11.567267078875979"><ele>1077.0</ele><time>2026-04-12T08:43:28.999Z</time></trkpt><trkpt lat="45.896205704346" lon="11.56730947666023"><ele>1074.6666666666667</ele><time>2026-04-12T08:45:40.999Z</time></trkpt><trkpt lat="45.89612813214493" lon="11.567338120592261"><ele>1072.3333333333335</ele><time>2026-04-12T08:45:42.999Z</time></trkpt><trkpt lat="45.89605389065729" lon="11.56737805458015"><ele>1070.0</ele><time>2026-04-12T08:45:43.999Z</time></trkpt><trkpt lat="45.89595306082759" lon="11.56743534799402"><ele>1068.25</ele><time>2026-04-12T08:45:44.999Z</time></trkpt><trkpt lat="45.89583052639408" lon="11.567510305529021"><ele>1066.5</ele><time>2026-04-12T08:45:45.998Z</time></trkpt><trkpt lat="45.89568475238459" lon="11.567568791961303"><ele>1064.75</ele><time>2026-04-12T08:45:46.998Z</time></trkpt><trkpt lat="45.89555587060404" lon="11.567631871382517"><ele>1063.0</ele><time>2026-04-12T08:45:47.998Z</time></trkpt><trkpt lat="45.89543440171894" lon="11.56768721737239"><ele>1063.0</ele><time>2026-04-12T08:45:48.998Z</time></trkpt><trkpt lat="45.89532095809952" lon="11.567720994348827"><ele>1063.0</ele><time>2026-04-12T08:45:49.998Z</time></trkpt><trkpt lat="45.895201267369224" lon="11.56771658286729"><ele>1063.0</ele><time>2026-04-12T08:45:50.998Z</time></trkpt><trkpt lat="45.895069026663435" lon="11.56765298566969"><ele>1063.0</ele><time>2026-04-12T08:45:51.998Z</time></trkpt><trkpt lat="45.894915774709226" lon="11.567535433936884"><ele>1064.3333333333333</ele><time>2026-04-12T08:45:52.998Z</time></trkpt><trkpt lat="45.89474775282391" lon="11.5674062489703"><ele>1065.6666666666667</ele><time>2026-04-12T08:45:53.998Z</time></trkpt><trkpt lat="45.8946036426066" lon="11.567319876788044"><ele>1067.0</ele><time>2026-04-12T08:45:54.998Z</time></trkpt><trkpt lat="45.89447193651431" lon="11.567243635696501"><ele>1067.0</ele><time>2026-04-12T08:45:55.998Z</time></trkpt><trkpt lat="45.89430654632531" lon="11.567213396807233"><ele>1067.0</ele><time>2026-04-12T08:45:56.998Z</time></trkpt><trkpt lat="45.89411626082889" lon="11.567227066464223"><ele>1067.0</ele><time>2026-04-12T08:45:57.998Z</time></trkpt><trkpt lat="45.89395513542063" lon="11.56725796365353"><ele>1068.0</ele><time>2026-04-12T08:45:58.998Z</time></trkpt><trkpt lat="45.89380758104971" lon="11.567295026357057"><ele>1069.0</ele><time>2026-04-12T08:45:59.998Z</time></trkpt><trkpt lat="45.89367172630632" lon="11.567373075678413"><ele>1070.0</ele><time>2026-04-12T08:46:00.998Z</time></trkpt><trkpt lat="45.89355568163529" lon="11.567459114013388"><ele>1071.0</ele><time>2026-04-12T08:46:01.998Z</time></trkpt><trkpt lat="45.893457223084305" lon="11.56760488987896"><ele>1063.3333333333333</ele><time>2026-04-12T08:46:02.998Z</time></trkpt><trkpt lat="45.89336753787597" lon="11.567826091784694"><ele>1055.6666666666665</ele><time>2026-04-12T08:46:03.998Z</time></trkpt><trkpt lat="45.893277572602344" lon="11.568091946551093"><ele>1048.0</ele><time>2026-04-12T08:46:04.998Z</time></trkpt><trkpt lat="45.89317173074983" lon="11.568386581024823"><ele>1048.0</ele><time>2026-04-12T08:46:05.998Z</time></trkpt><trkpt lat="45.89305209320627" lon="11.568663901924404"><ele>1048.0</ele><time>2026-04-12T08:46:06.998Z</time></trkpt><trkpt lat="45.892943825562725" lon="11.568920455463854"><ele>1048.0</ele><time>2026-04-12T08:46:07.998Z</time></trkpt><trkpt lat="45.89284494919802" lon="11.569161141329776"><ele>1052.0</ele><time>2026-04-12T08:46:08.998Z</time></trkpt><trkpt lat="45.892754556209866" lon="11.569418329489803"><ele>1056.0</ele><time>2026-04-12T08:46:09.998Z</time></trkpt><trkpt lat="45.892674708415555" lon="11.569680282434765"><ele>1060.0</ele><time>2026-04-12T08:46:10.998Z</time></trkpt><trkpt lat="45.89260359473094" lon="11.569941027847161"><ele>1054.6666666666665</ele><time>2026-04-12T08:46:12Z</time></trkpt><trkpt lat="45.89254694081097" lon="11.570184631706637"><ele>1049.3333333333333</ele><time>2026-04-12T08:46:13Z</time></trkpt><trkpt lat="45.89250687046242" lon="11.57042721711952"><ele>1044.0</ele><time>2026-04-12T08:46:14Z</time></trkpt><trkpt lat="45.89248537322951" lon="11.570677230462216"><ele>1044.0</ele><time>2026-04-12T08:46:15Z</time></trkpt><trkpt lat="45.89249450081328" lon="11.570933822141523"><ele>1044.0</ele><time>2026-04-12T08:46:16Z</time></trkpt><trkpt lat="45.89253349377171" lon="11.571195203651358"><ele>1044.0</ele><time>2026-04-12T08:46:17Z</time></trkpt><trkpt lat="45.8925962444043" lon="11.571443364741802"><ele>1056.3333333333333</ele><time>2026-04-12T08:46:18Z</time></trkpt><trkpt lat="45.892644879167584" lon="11.57166997634475"><ele>1068.6666666666665</ele><time>2026-04-12T08:46:19Z</time></trkpt><trkpt lat="45.89266948578083" lon="11.571885875195454"><ele>1081.0</ele><time>2026-04-12T08:46:20Z</time></trkpt><trkpt lat="45.8926576302126" lon="11.57208502438128"><ele>1082.75</ele><time>2026-04-12T08:46:21Z</time></trkpt><trkpt lat="45.892611797733295" lon="11.572272231362005"><ele>1084.5</ele><time>2026-04-12T08:46:22Z</time></trkpt><trkpt lat="45.892506780633724" lon="11.572418997490642"><ele>1086.25</ele><time>2026-04-12T08:46:23Z</time></trkpt><trkpt lat="45.892399399900945" lon="11.572586120066495"><ele>1088.0</ele><time>2026-04-12T08:46:24Z</time></trkpt><trkpt lat="45.89230560481197" lon="11.572770609537978"><ele>1078.0</ele><time>2026-04-12T08:46:25Z</time></trkpt><trkpt lat="45.892208298412314" lon="11.572979913029057"><ele>1068.0</ele><time>2026-04-12T08:46:26Z</time></trkpt><trkpt lat="45.89213779379417" lon="11.573215854329932"><ele>1058.0</ele><time>2026-04-12T08:46:27Z</time></trkpt><trkpt lat="45.89209560607324" lon="11.573425411470968"><ele>1058.0</ele><time>2026-04-12T08:46:28Z</time></trkpt><trkpt lat="45.89205695146169" lon="11.573602839901504"><ele>1058.0</ele><time>2026-04-12T08:46:29Z</time></trkpt><trkpt lat="45.89203314262886" lon="11.573788913566819"><ele>1058.0</ele><time>2026-04-12T08:46:30Z</time></trkpt><trkpt lat="45.89205395784595" lon="11.573986755018742"><ele>1058.0</ele><time>2026-04-12T08:46:31Z</time></trkpt><trkpt lat="45.8921157323864" lon="11.57419261412293"><ele>1058.0</ele><time>2026-04-12T08:46:32Z</time></trkpt><trkpt lat="45.89221344432246" lon="11.574410372726309"><ele>1058.0</ele><time>2026-04-12T08:46:33Z</time></trkpt><trkpt lat="45.89229907590231" lon="11.574609124291113"><ele>1058.0</ele><time>2026-04-12T08:46:34Z</time></trkpt><trkpt lat="45.89233369726374" lon="11.57482864658539"><ele>1058.0</ele><time>2026-04-12T08:46:35Z</time></trkpt><trkpt lat="45.892337964323794" lon="11.575046465704043"><ele>1058.0</ele><time>2026-04-12T08:46:36Z</time></trkpt><trkpt lat="45.892297651134285" lon="11.575274349305282"><ele>1058.0</ele><time>2026-04-12T08:46:37Z</time></trkpt><trkpt lat="45.89223318228054" lon="11.575528341764699"><ele>1058.3333333333335</ele><time>2026-04-12T08:46:38Z</time></trkpt><trkpt lat="45.892182051267305" lon="11.575771660626371"><ele>1058.6666666666667</ele><time>2026-04-12T08:46:39Z</time></trkpt><trkpt lat="45.892138511722976" lon="11.575980317307716"><ele>1059.0</ele><time>2026-04-12T08:46:40Z</time></trkpt><trkpt lat="45.892150250659874" lon="11.576184216900788"><ele>1056.6666666666667</ele><time>2026-04-12T08:46:41Z</time></trkpt><trkpt lat="45.8921955649519" lon="11.576379025600845"><ele>1054.3333333333335</ele><time>2026-04-12T08:46:42Z</time></trkpt><trkpt lat="45.892297814771325" lon="11.576563076873516"><ele>1052.0</ele><time>2026-04-12T08:46:43Z</time></trkpt><trkpt lat="45.89243402452353" lon="11.576734785180982"><ele>1052.0</ele><time>2026-04-12T08:46:44Z</time></trkpt><trkpt lat="45.892532540753514" lon="11.576929629004937"><ele>1052.0</ele><time>2026-04-12T08:46:45Z</time></trkpt><trkpt lat="45.89258070237404" lon="11.57714627565649"><ele>1052.0</ele><time>2026-04-12T08:46:46Z</time></trkpt><trkpt lat="45.8926006051666" lon="11.577417963167333"><ele>1054.5</ele><time>2026-04-12T08:46:47Z</time></trkpt><trkpt lat="45.89262209483429" lon="11.577657376447073"><ele>1057.0</ele><time>2026-04-12T08:46:48Z</time></trkpt><trkpt lat="45.89264042560435" lon="11.577855572506271"><ele>1059.5</ele><time>2026-04-12T08:46:49Z</time></trkpt><trkpt lat="45.89262888039607" lon="11.578020359117268"><ele>1062.0</ele><time>2026-04-12T08:46:50Z</time></trkpt><trkpt lat="45.89258783548418" lon="11.57815555252666"><ele>1062.0</ele><time>2026-04-12T08:46:51Z</time></trkpt><trkpt lat="45.89246628482455" lon="11.578222080806368"><ele>1062.0</ele><time>2026-04-12T08:46:52Z</time></trkpt><trkpt lat="45.89234262891602" lon="11.57825821476815"><ele>1062.0</ele><time>2026-04-12T08:46:53Z</time></trkpt><trkpt lat="45.89220580721636" lon="11.578321273192383"><ele>1062.0</ele><time>2026-04-12T08:46:54Z</time></trkpt><trkpt lat="45.89208161626787" lon="11.578345680196444"><ele>1062.0</ele><time>2026-04-12T08:46:54.999Z</time></trkpt><trkpt lat="45.891988623606515" lon="11.578451474176813"><ele>1062.0</ele><time>2026-04-12T08:46:55.999Z</time></trkpt><trkpt lat="45.89192798175597" lon="11.57859431821595"><ele>1062.0</ele><time>2026-04-12T08:46:56.999Z</time></trkpt><trkpt lat="45.89188925980892" lon="11.578775759643817"><ele>1062.0</ele><time>2026-04-12T08:46:57.999Z</time></trkpt><trkpt lat="45.891868279172925" lon="11.578967440075838"><ele>1065.25</ele><time>2026-04-12T08:46:58.999Z</time></trkpt><trkpt lat="45.89182416281312" lon="11.579163200538085"><ele>1068.5</ele><time>2026-04-12T08:46:59.999Z</time></trkpt><trkpt lat="45.89176911558147" lon="11.579353330285098"><ele>1071.75</ele><time>2026-04-12T08:47:00.999Z</time></trkpt><trkpt lat="45.891691502705186" lon="11.579517172467655"><ele>1075.0</ele><time>2026-04-12T08:47:01.999Z</time></trkpt><trkpt lat="45.8916116070437" lon="11.579652107617942"><ele>1066.75</ele><time>2026-04-12T08:47:02.999Z</time></trkpt><trkpt lat="45.89154714216291" lon="11.579787434804816"><ele>1058.5</ele><time>2026-04-12T08:47:03.999Z</time></trkpt><trkpt lat="45.891517675923836" lon="11.57995708063265"><ele>1050.25</ele><time>2026-04-12T08:47:04.999Z</time></trkpt><trkpt lat="45.891514757606764" lon="11.580132591303064"><ele>1042.0</ele><time>2026-04-12T08:47:05.999Z</time></trkpt><trkpt lat="45.891561347428606" lon="11.58030640107085"><ele>1040.3333333333333</ele><time>2026-04-12T08:47:06.999Z</time></trkpt><trkpt lat="45.89165345742906" lon="11.58046433108067"><ele>1038.6666666666667</ele><time>2026-04-12T08:47:07.999Z</time></trkpt><trkpt lat="45.89173845950793" lon="11.580631821240756"><ele>1037.0</ele><time>2026-04-12T08:47:08.999Z</time></trkpt><trkpt lat="45.89183955898656" lon="11.580855258269546"><ele>1043.0</ele><time>2026-04-12T08:47:09.999Z</time></trkpt><trkpt lat="45.8919326513175" lon="11.581118049247564"><ele>1049.0</ele><time>2026-04-12T08:47:10.999Z</time></trkpt><trkpt lat="45.892025186007984" lon="11.581420673517473"><ele>1055.0</ele><time>2026-04-12T08:47:11.999Z</time></trkpt><trkpt lat="45.89212566342824" lon="11.58174937753775"><ele>1048.5</ele><time>2026-04-12T08:47:12.999Z</time></trkpt><trkpt lat="45.892232774758675" lon="11.582069480040285"><ele>1042.0</ele><time>2026-04-12T08:47:13.999Z</time></trkpt><trkpt lat="45.89234948190976" lon="11.582359337585688"><ele>1042.0</ele><time>2026-04-12T08:47:14.999Z</time></trkpt><trkpt lat="45.89242302467871" lon="11.58265519791503"><ele>1042.0</ele><time>2026-04-12T08:47:15.999Z</time></trkpt><trkpt lat="45.89251593671342" lon="11.582914132191938"><ele>1042.0</ele><time>2026-04-12T08:47:16.999Z</time></trkpt><trkpt lat="45.8925843552989" lon="11.583151144751348"><ele>1042.75</ele><time>2026-04-12T08:47:17.999Z</time></trkpt><trkpt lat="45.892653577287355" lon="11.583352995027367"><ele>1043.5</ele><time>2026-04-12T08:47:18.999Z</time></trkpt><trkpt lat="45.89272887192367" lon="11.583513722402895"><ele>1044.25</ele><time>2026-04-12T08:47:19.999Z</time></trkpt><trkpt lat="45.8928246105891" lon="11.583640880684642"><ele>1045.0</ele><time>2026-04-12T08:47:20.999Z</time></trkpt><trkpt lat="45.89295099505337" lon="11.583724541608696"><ele>1041.75</ele><time>2026-04-12T08:47:21.999Z</time></trkpt><trkpt lat="45.893101661954844" lon="11.58375399835676"><ele>1038.5</ele><time>2026-04-12T08:47:22.999Z</time></trkpt><trkpt lat="45.89324262400598" lon="11.583803677502548"><ele>1035.25</ele><time>2026-04-12T08:47:23.999Z</time></trkpt><trkpt lat="45.89338155116426" lon="11.583858115467331"><ele>1032.0</ele><time>2026-04-12T08:47:24.999Z</time></trkpt><trkpt lat="45.89349111917583" lon="11.583939850218854"><ele>1041.0</ele><time>2026-04-12T08:47:25.999Z</time></trkpt><trkpt lat="45.89358671590154" lon="11.58406187885003"><ele>1050.0</ele><time>2026-04-12T08:47:26.999Z</time></trkpt><trkpt lat="45.893638362767625" lon="11.584274598450728"><ele>1059.0</ele><time>2026-04-12T08:47:27.999Z</time></trkpt><trkpt lat="45.893675788398575" lon="11.584527207979937"><ele>1059.0</ele><time>2026-04-12T08:47:28.999Z</time></trkpt><trkpt lat="45.893716661502204" lon="11.5848129791311"><ele>1059.0</ele><time>2026-04-12T08:47:29.999Z</time></trkpt><trkpt lat="45.89377675353331" lon="11.585118496221492"><ele>1059.0</ele><time>2026-04-12T08:47:30.999Z</time></trkpt><trkpt lat="45.89382018015024" lon="11.585445253790567"><ele>1053.0</ele><time>2026-04-12T08:47:31.999Z</time></trkpt><trkpt lat="45.8938675925906" lon="11.585768453759687"><ele>1047.0</ele><time>2026-04-12T08:47:32.999Z</time></trkpt><trkpt lat="45.89391485589686" lon="11.586078884376473"><ele>1042.0</ele><time>2026-04-12T08:47:33.999Z</time></trkpt><trkpt lat="45.893967697934585" lon="11.586377525624314"><ele>1037.0</ele><time>2026-04-12T08:47:34.999Z</time></trkpt><trkpt lat="45.89404091491185" lon="11.586647967354972"><ele>1032.0</ele><time>2026-04-12T08:47:35.999Z</time></trkpt><trkpt lat="45.89412952597348" lon="11.586894146850376"><ele>1036.0</ele><time>2026-04-12T08:47:36.999Z</time></trkpt><trkpt lat="45.89424011759736" lon="11.58712839979409"><ele>1040.0</ele><time>2026-04-12T08:47:37.999Z</time></trkpt><trkpt lat="45.89434991933782" lon="11.587359604558394"><ele>1044.0</ele><time>2026-04-12T08:47:38.999Z</time></trkpt><trkpt lat="45.8944611666991" lon="11.587568459804636"><ele>1044.0</ele><time>2026-04-12T08:47:39.999Z</time></trkpt><trkpt lat="45.894558121652" lon="11.587789900993611"><ele>1044.0</ele><time>2026-04-12T08:47:40.999Z</time></trkpt><trkpt lat="45.894618018335294" lon="11.588047263098629"><ele>1044.0</ele><time>2026-04-12T08:47:41.999Z</time></trkpt><trkpt lat="45.894664270712596" lon="11.588328801377179"><ele>1042.0</ele><time>2026-04-12T08:47:42.999Z</time></trkpt><trkpt lat="45.8947018119437" lon="11.58859350223171"><ele>1040.0</ele><time>2026-04-12T08:47:43.999Z</time></trkpt><trkpt lat="45.89471705838097" lon="11.588901120671304"><ele>1038.0</ele><time>2026-04-12T08:47:44.999Z</time></trkpt><trkpt lat="45.894693088594295" lon="11.589173528310159"><ele>1038.0</ele><time>2026-04-12T08:47:45.999Z</time></trkpt><trkpt lat="45.894660076016194" lon="11.589503069807854"><ele>1038.0</ele><time>2026-04-12T08:47:46.999Z</time></trkpt><trkpt lat="45.8946476947934" lon="11.589862493282293"><ele>1038.5</ele><time>2026-04-12T08:47:47.999Z</time></trkpt><trkpt lat="45.8946508407977" lon="11.590218968298261"><ele>1039.0</ele><time>2026-04-12T08:47:48.999Z</time></trkpt><trkpt lat="45.89465352623591" lon="11.59057210353101"><ele>1039.0</ele><time>2026-04-12T08:47:49.999Z</time></trkpt><trkpt lat="45.894655941437065" lon="11.590910913963507"><ele>1039.0</ele><time>2026-04-12T08:47:50.998Z</time></trkpt><trkpt lat="45.89465826939313" lon="11.591237834934558"><ele>1037.0</ele><time>2026-04-12T08:47:51.998Z</time></trkpt><trkpt lat="45.89467453373544" lon="11.591563732394656"><ele>1035.0</ele><time>2026-04-12T08:47:52.998Z</time></trkpt><trkpt lat="45.89467873528242" lon="11.591883534999257"><ele>1034.3333333333333</ele><time>2026-04-12T08:47:53.998Z</time></trkpt><trkpt lat="45.894683161394866" lon="11.592185116515157"><ele>1033.6666666666665</ele><time>2026-04-12T08:47:54.998Z</time></trkpt><trkpt lat="45.89470120907966" lon="11.592473389554348"><ele>1033.0</ele><time>2026-04-12T08:47:55.998Z</time></trkpt><trkpt lat="45.8947345343133" lon="11.59274489244212"><ele>1029.6666666666665</ele><time>2026-04-12T08:47:56.998Z</time></trkpt><trkpt lat="45.89479568264428" lon="11.593020040601479"><ele>1026.3333333333333</ele><time>2026-04-12T08:47:57.998Z</time></trkpt><trkpt lat="45.89488305234114" lon="11.593290991357863"><ele>1023.0</ele><time>2026-04-12T08:47:58.998Z</time></trkpt><trkpt lat="45.89497864773739" lon="11.593535205945063"><ele>1021.0</ele><time>2026-04-12T08:47:59.998Z</time></trkpt><trkpt lat="45.89505828306381" lon="11.593797373305762"><ele>1019.0</ele><time>2026-04-12T08:48:00.998Z</time></trkpt><trkpt lat="45.895058075369164" lon="11.594054760477777"><ele>1017.0</ele><time>2026-04-12T08:48:01.998Z</time></trkpt><trkpt lat="45.89502965528567" lon="11.594315432343242"><ele>1016.6666666666667</ele><time>2026-04-12T08:48:02.998Z</time></trkpt><trkpt lat="45.89499462202158" lon="11.594570352328457"><ele>1016.3333333333334</ele><time>2026-04-12T08:48:03.998Z</time></trkpt><trkpt lat="45.894977068951235" lon="11.594810959519423"><ele>1016.0</ele><time>2026-04-12T08:48:04.998Z</time></trkpt><trkpt lat="45.89498440976903" lon="11.595054502636673"><ele>1016.0</ele><time>2026-04-12T08:48:05.998Z</time></trkpt><trkpt lat="45.89500963963809" lon="11.595309153811291"><ele>1016.0</ele><time>2026-04-12T08:48:06.998Z</time></trkpt><trkpt lat="45.89509689265113" lon="11.595584498875924"><ele>1016.0</ele><time>2026-04-12T08:48:07.998Z</time></trkpt><trkpt lat="45.89519033327151" lon="11.595852754475112"><ele>1023.0</ele><time>2026-04-12T08:48:08.998Z</time></trkpt><trkpt lat="45.89528593802173" lon="11.596131652200084"><ele>1030.0</ele><time>2026-04-12T08:48:09.998Z</time></trkpt><trkpt lat="45.89537561877814" lon="11.59638847445706"><ele>1037.0</ele><time>2026-04-12T08:48:10.998Z</time></trkpt><trkpt lat="45.89541697508061" lon="11.596646939538141"><ele>1037.0</ele><time>2026-04-12T08:48:11.998Z</time></trkpt><trkpt lat="45.89543944847378" lon="11.596899160094932"><ele>1037.0</ele><time>2026-04-12T08:48:12.998Z</time></trkpt><trkpt lat="45.89544529130377" lon="11.597183848452678"><ele>1037.0</ele><time>2026-04-12T08:48:13.998Z</time></trkpt><trkpt lat="45.89544700290716" lon="11.597495931084685"><ele>1036.0</ele><time>2026-04-12T08:48:14.998Z</time></trkpt><trkpt lat="45.895450461293734" lon="11.597829431793263"><ele>1035.0</ele><time>2026-04-12T08:48:15.998Z</time></trkpt><trkpt lat="45.89544189449552" lon="11.598159969056782"><ele>1035.0</ele><time>2026-04-12T08:48:16.998Z</time></trkpt><trkpt lat="45.895423879615954" lon="11.598484134482275"><ele>1035.0</ele><time>2026-04-12T08:48:18Z</time></trkpt><trkpt lat="45.89538995158473" lon="11.598814165451829"><ele>1035.5</ele><time>2026-04-12T08:48:19Z</time></trkpt><trkpt lat="45.8953361471995" lon="11.599142198276155"><ele>1036.0</ele><time>2026-04-12T08:48:20Z</time></trkpt><trkpt lat="45.895282890193045" lon="11.59946228938246"><ele>1035.0</ele><time>2026-04-12T08:48:21Z</time></trkpt><trkpt lat="45.89521455995474" lon="11.599736922042126"><ele>1034.0</ele><time>2026-04-12T08:48:22Z</time></trkpt><trkpt lat="45.895153123069676" lon="11.599977157924709"><ele>1033.0</ele><time>2026-04-12T08:48:23Z</time></trkpt><trkpt lat="45.89509448582392" lon="11.60018828191262"><ele>1027.5</ele><time>2026-04-12T08:48:24Z</time></trkpt><trkpt lat="45.89505799080154" lon="11.600374910852413"><ele>1022.0</ele><time>2026-04-12T08:48:25Z</time></trkpt><trkpt lat="45.895047049672186" lon="11.600554624526142"><ele>1016.5</ele><time>2026-04-12T08:48:26Z</time></trkpt><trkpt lat="45.89507975083579" lon="11.60072604825449"><ele>1011.0</ele><time>2026-04-12T08:48:27Z</time></trkpt><trkpt lat="45.895169065019374" lon="11.600859060967654"><ele>1011.0</ele><time>2026-04-12T08:48:28Z</time></trkpt><trkpt lat="45.895302280010185" lon="11.600953427168918"><ele>1011.0</ele><time>2026-04-12T08:48:29Z</time></trkpt><trkpt lat="45.895473591173086" lon="11.60099409783025"><ele>1011.0</ele><time>2026-04-12T08:48:30Z</time></trkpt><trkpt lat="45.89567058386161" lon="11.600995714748919"><ele>1011.0</ele><time>2026-04-12T08:48:31Z</time></trkpt><trkpt lat="45.8958454480204" lon="11.60101272363141"><ele>1011.0</ele><time>2026-04-12T08:48:32Z</time></trkpt><trkpt lat="45.89598256543627" lon="11.601069249819613"><ele>1011.0</ele><time>2026-04-12T08:48:33Z</time></trkpt><trkpt lat="45.89608949740145" lon="11.60114871971086"><ele>1011.0</ele><time>2026-04-12T08:48:34Z</time></trkpt><trkpt lat="45.89616382135038" lon="11.60127487248817"><ele>1013.0</ele><time>2026-04-12T08:48:35Z</time></trkpt><trkpt lat="45.89620784195048" lon="11.601446699434383"><ele>1015.0</ele><time>2026-04-12T08:48:36Z</time></trkpt><trkpt lat="45.89623165833913" lon="11.601639183367682"><ele>1017.0</ele><time>2026-04-12T08:48:37Z</time></trkpt><trkpt lat="45.896236555976394" lon="11.601834773152119"><ele>1019.0</ele><time>2026-04-12T08:48:38Z</time></trkpt><trkpt lat="45.89626940689078" lon="11.602022953599297"><ele>1031.0</ele><time>2026-04-12T08:48:39Z</time></trkpt><trkpt lat="45.89630107399523" lon="11.602247303992751"><ele>1043.0</ele><time>2026-04-12T08:48:40Z</time></trkpt><trkpt lat="45.89587044862037" lon="11.602699341964673"><ele>1026.5</ele><time>2026-04-12T08:48:41Z</time></trkpt><trkpt lat="45.895775179648936" lon="11.603045133049783"><ele>1010.0</ele><time>2026-04-12T08:48:42Z</time></trkpt><trkpt lat="45.8956793763374" lon="11.603344602306425"><ele>1010.0</ele><time>2026-04-12T08:48:43Z</time></trkpt><trkpt lat="45.895594871530676" lon="11.60361442648461"><ele>1010.0</ele><time>2026-04-12T08:48:44Z</time></trkpt><trkpt lat="45.89551879543421" lon="11.603865421166192"><ele>1010.0</ele><time>2026-04-12T08:48:45Z</time></trkpt><trkpt lat="45.89543719628969" lon="11.604086893361242"><ele>1013.0</ele><time>2026-04-12T08:48:46Z</time></trkpt><trkpt lat="45.895313816302604" lon="11.604284011321981"><ele>1016.0</ele><time>2026-04-12T08:48:47Z</time></trkpt><trkpt lat="45.89515730615873" lon="11.60445933141556"><ele>1019.0</ele><time>2026-04-12T08:48:48Z</time></trkpt><trkpt lat="45.894997518837684" lon="11.60462619123685"><ele>1019.0</ele><time>2026-04-12T08:48:49Z</time></trkpt><trkpt lat="45.89486025228431" lon="11.604769106285142"><ele>1019.0</ele><time>2026-04-12T08:48:50Z</time></trkpt><trkpt lat="45.894751505482866" lon="11.604926868701291"><ele>1019.0</ele><time>2026-04-12T08:48:51Z</time></trkpt><trkpt lat="45.89466658800805" lon="11.605099098453644"><ele>1019.0</ele><time>2026-04-12T08:48:52Z</time></trkpt><trkpt lat="45.89459942395443" lon="11.605306632260186"><ele>1019.0</ele><time>2026-04-12T08:48:53Z</time></trkpt><trkpt lat="45.8945588471995" lon="11.605543657681732"><ele>1019.0</ele><time>2026-04-12T08:48:54Z</time></trkpt><trkpt lat="45.89454765660355" lon="11.605811866999398"><ele>1024.6666666666667</ele><time>2026-04-12T08:48:55Z</time></trkpt><trkpt lat="45.89456806636829" lon="11.60610843451319"><ele>1030.3333333333333</ele><time>2026-04-12T08:48:56Z</time></trkpt><trkpt lat="45.8945940273236" lon="11.606410824373008"><ele>1036.0</ele><time>2026-04-12T08:48:57Z</time></trkpt><trkpt lat="45.89461070694058" lon="11.606702908651004"><ele>1036.0</ele><time>2026-04-12T08:48:58Z</time></trkpt><trkpt lat="45.894629873089336" lon="11.606947955789401"><ele>1036.0</ele><time>2026-04-12T08:48:59Z</time></trkpt><trkpt lat="45.89464737066366" lon="11.607176716131066"><ele>1036.0</ele><time>2026-04-12T08:49:00Z</time></trkpt><trkpt lat="45.89462788509989" lon="11.607408468943909"><ele>1036.0</ele><time>2026-04-12T08:49:00.999Z</time></trkpt><trkpt lat="45.89456553062353" lon="11.60764050969979"><ele>1036.0</ele><time>2026-04-12T08:49:01.999Z</time></trkpt><trkpt lat="45.89451146956949" lon="11.607903726822569"><ele>1036.0</ele><time>2026-04-12T08:49:02.999Z</time></trkpt><trkpt lat="45.89448963329782" lon="11.608211452164907"><ele>1036.0</ele><time>2026-04-12T08:49:03.999Z</time></trkpt><trkpt lat="45.89449155170355" lon="11.608527407554861"><ele>1036.0</ele><time>2026-04-12T08:49:04.999Z</time></trkpt><trkpt lat="45.89448922744248" lon="11.608810159535135"><ele>1036.0</ele><time>2026-04-12T08:49:05.999Z</time></trkpt><trkpt lat="45.894482872296216" lon="11.609071141546568"><ele>1037.3333333333333</ele><time>2026-04-12T08:49:06.999Z</time></trkpt><trkpt lat="45.89445001556019" lon="11.60934525453589"><ele>1038.6666666666667</ele><time>2026-04-12T08:49:07.999Z</time></trkpt><trkpt lat="45.89437378707625" lon="11.609612930435263"><ele>1040.0</ele><time>2026-04-12T08:49:08.999Z</time></trkpt><trkpt lat="45.894254867935906" lon="11.609859895204712"><ele>1042.6666666666667</ele><time>2026-04-12T08:49:09.999Z</time></trkpt><trkpt lat="45.8941122400725" lon="11.610085148154246"><ele>1045.3333333333333</ele><time>2026-04-12T08:49:10.999Z</time></trkpt><trkpt lat="45.893969421016486" lon="11.610288953290343"><ele>1048.0</ele><time>2026-04-12T08:49:11.999Z</time></trkpt><trkpt lat="45.893815691645436" lon="11.610459798937775"><ele>1048.0</ele><time>2026-04-12T08:49:12.999Z</time></trkpt><trkpt lat="45.893642313947446" lon="11.610605188559072"><ele>1048.0</ele><time>2026-04-12T08:49:13.999Z</time></trkpt><trkpt lat="45.89344967694054" lon="11.610744996593562"><ele>1048.0</ele><time>2026-04-12T08:49:14.999Z</time></trkpt><trkpt lat="45.893258861384865" lon="11.610878248668048"><ele>1038.3333333333333</ele><time>2026-04-12T08:49:15.999Z</time></trkpt><trkpt lat="45.89309278354141" lon="11.610994975142448"><ele>1028.6666666666667</ele><time>2026-04-12T08:49:16.999Z</time></trkpt><trkpt lat="45.89291492476007" lon="11.611057887363781"><ele>1019.0</ele><time>2026-04-12T08:49:17.999Z</time></trkpt><trkpt lat="45.8927453355958" lon="11.611093785863284"><ele>1019.0</ele><time>2026-04-12T08:49:18.999Z</time></trkpt><trkpt lat="45.89259398175806" lon="11.611131279410145"><ele>1019.0</ele><time>2026-04-12T08:49:19.999Z</time></trkpt><trkpt lat="45.89245248695292" lon="11.611205322507047"><ele>1019.0</ele><time>2026-04-12T08:49:20.999Z</time></trkpt><trkpt lat="45.89230313854123" lon="11.611311890355742"><ele>1019.0</ele><time>2026-04-12T08:49:21.999Z</time></trkpt><trkpt lat="45.892171119544905" lon="11.611448081574972"><ele>1019.0</ele><time>2026-04-12T08:49:22.999Z</time></trkpt><trkpt lat="45.89206062639745" lon="11.611626746592382"><ele>1019.0</ele><time>2026-04-12T08:49:23.999Z</time></trkpt><trkpt lat="45.891976863171905" lon="11.61183823781869"><ele>1023.0</ele><time>2026-04-12T08:49:24.999Z</time></trkpt><trkpt lat="45.891916808620515" lon="11.612070947699062"><ele>1027.0</ele><time>2026-04-12T08:49:25.999Z</time></trkpt><trkpt lat="45.891891259373736" lon="11.612278003403437"><ele>1031.0</ele><time>2026-04-12T08:49:26.999Z</time></trkpt><trkpt lat="45.89191846312151" lon="11.61250190189962"><ele>1031.0</ele><time>2026-04-12T08:49:27.999Z</time></trkpt><trkpt lat="45.8919766814831" lon="11.61273658783119"><ele>1031.0</ele><time>2026-04-12T08:49:28.999Z</time></trkpt><trkpt lat="45.8920452819023" lon="11.612967051394357"><ele>1031.0</ele><time>2026-04-12T08:49:29.999Z</time></trkpt><trkpt lat="45.892103599398624" lon="11.613205368557344"><ele>1031.6666666666667</ele><time>2026-04-12T08:49:30.999Z</time></trkpt><trkpt lat="45.89214947652598" lon="11.613463016760656"><ele>1032.3333333333333</ele><time>2026-04-12T08:49:31.999Z</time></trkpt><trkpt lat="45.89218346763502" lon="11.61372414822659"><ele>1033.0</ele><time>2026-04-12T08:49:32.999Z</time></trkpt><trkpt lat="45.89220243442304" lon="11.613974704330126"><ele>1032.6666666666665</ele><time>2026-04-12T08:49:33.999Z</time></trkpt><trkpt lat="45.89219815346645" lon="11.614210497689012"><ele>1032.3333333333333</ele><time>2026-04-12T08:49:34.999Z</time></trkpt><trkpt lat="45.892163048489465" lon="11.614438461164108"><ele>1032.0</ele><time>2026-04-12T08:49:35.999Z</time></trkpt><trkpt lat="45.892096567898314" lon="11.614668225948138"><ele>1032.0</ele><time>2026-04-12T08:49:36.999Z</time></trkpt><trkpt lat="45.892005731199916" lon="11.614893525404533"><ele>1032.0</ele><time>2026-04-12T08:49:37.999Z</time></trkpt><trkpt lat="45.89190108457437" lon="11.61510222920538"><ele>1032.0</ele><time>2026-04-12T08:49:38.999Z</time></trkpt><trkpt lat="45.89176974604619" lon="11.615279879938543"><ele>1029.0</ele><time>2026-04-12T08:49:39.999Z</time></trkpt><trkpt lat="45.891626342353646" lon="11.615439986094719"><ele>1026.0</ele><time>2026-04-12T08:49:40.999Z</time></trkpt><trkpt lat="45.891472401942735" lon="11.615573376619615"><ele>1023.0</ele><time>2026-04-12T08:49:41.999Z</time></trkpt><trkpt lat="45.89133287364793" lon="11.615675084777758"><ele>1023.0</ele><time>2026-04-12T08:49:42.999Z</time></trkpt><trkpt lat="45.89120276986517" lon="11.615754449018088"><ele>1023.0</ele><time>2026-04-12T08:49:43.999Z</time></trkpt><trkpt lat="45.89107978879037" lon="11.615825851705681"><ele>1023.0</ele><time>2026-04-12T08:49:44.999Z</time></trkpt><trkpt lat="45.89096490010992" lon="11.615893013160619"><ele>1023.0</ele><time>2026-04-12T08:49:45.999Z</time></trkpt><trkpt lat="45.89086901389817" lon="11.615978676341218"><ele>1020.75</ele><time>2026-04-12T08:49:46.999Z</time></trkpt><trkpt lat="45.890790755263296" lon="11.616058339029326"><ele>1018.5</ele><time>2026-04-12T08:49:47.999Z</time></trkpt><trkpt lat="45.89073719974468" lon="11.616157739585539"><ele>1016.25</ele><time>2026-04-12T08:49:48.999Z</time></trkpt><trkpt lat="45.890627326175874" lon="11.616160327032574"><ele>1014.0</ele><time>2026-04-12T08:49:49.999Z</time></trkpt><trkpt lat="45.89068112227542" lon="11.616383432636846"><ele>1014.0</ele><time>2026-04-12T08:49:50.999Z</time></trkpt><trkpt lat="45.89069194602318" lon="11.616515664180028"><ele>1014.0000000000001</ele><time>2026-04-12T08:49:51.999Z</time></trkpt><trkpt lat="45.890726954533335" lon="11.616642038413119"><ele>1014.0000000000001</ele><time>2026-04-12T08:49:52.999Z</time></trkpt><trkpt lat="45.89078856196998" lon="11.616743463861548"><ele>1014.0</ele><time>2026-04-12T08:49:53.999Z</time></trkpt><trkpt lat="45.890877598920156" lon="11.616821008769767"><ele>1014.0</ele><time>2026-04-12T08:49:54.999Z</time></trkpt><trkpt lat="45.890976315508105" lon="11.616846588433413"><ele>1015.5</ele><time>2026-04-12T08:49:55.998Z</time></trkpt><trkpt lat="45.89109472208775" lon="11.616819404970697"><ele>1017.0</ele><time>2026-04-12T08:49:56.998Z</time></trkpt><trkpt lat="45.89121769891696" lon="11.616767189870028"><ele>1018.5</ele><time>2026-04-12T08:49:57.998Z</time></trkpt><trkpt lat="45.8913431436696" lon="11.61673021431203"><ele>1020.0</ele><time>2026-04-12T08:49:58.998Z</time></trkpt><trkpt lat="45.89147232399286" lon="11.616697524767286"><ele>1020.0</ele><time>2026-04-12T08:49:59.998Z</time></trkpt><trkpt lat="45.89161247983288" lon="11.616655068113914"><ele>1020.0</ele><time>2026-04-12T08:50:00.998Z</time></trkpt><trkpt lat="45.891758297014384" lon="11.61658815976079"><ele>1020.0</ele><time>2026-04-12T08:50:01.998Z</time></trkpt><trkpt lat="45.89191244955435" lon="11.616522638851384"><ele>1015.6666666666667</ele><time>2026-04-12T08:50:02.998Z</time></trkpt><trkpt lat="45.89206219991153" lon="11.616450283096995"><ele>1011.3333333333334</ele><time>2026-04-12T08:50:03.998Z</time></trkpt><trkpt lat="45.89222067995572" lon="11.616368708830112"><ele>1007.0</ele><time>2026-04-12T08:50:04.998Z</time></trkpt><trkpt lat="45.892382612344385" lon="11.616272908585872"><ele>1007.0</ele><time>2026-04-12T08:50:05.998Z</time></trkpt><trkpt lat="45.89253683370063" lon="11.616153551150777"><ele>1007.0</ele><time>2026-04-12T08:50:06.998Z</time></trkpt><trkpt lat="45.892683523017666" lon="11.616011063081437"><ele>1007.0</ele><time>2026-04-12T08:50:07.998Z</time></trkpt><trkpt lat="45.89281923815493" lon="11.615856403032085"><ele>1008.0</ele><time>2026-04-12T08:50:08.998Z</time></trkpt><trkpt lat="45.89295130977069" lon="11.61571246411304"><ele>1009.0</ele><time>2026-04-12T08:50:09.998Z</time></trkpt><trkpt lat="45.89308111645883" lon="11.61557028125376"><ele>1010.0</ele><time>2026-04-12T08:50:10.998Z</time></trkpt><trkpt lat="45.89321313613082" lon="11.615430277925116"><ele>1015.3333333333334</ele><time>2026-04-12T08:50:11.998Z</time></trkpt><trkpt lat="45.89333912928695" lon="11.615299064656295"><ele>1020.6666666666667</ele><time>2026-04-12T08:50:12.998Z</time></trkpt><trkpt lat="45.89346106507324" lon="11.615170890676138"><ele>1026.0</ele><time>2026-04-12T08:50:13.998Z</time></trkpt><trkpt lat="45.89358977768293" lon="11.615052261227978"><ele>1026.0</ele><time>2026-04-12T08:50:14.998Z</time></trkpt><trkpt lat="45.89373092059129" lon="11.614956370311857"><ele>1026.0</ele><time>2026-04-12T08:50:15.998Z</time></trkpt><trkpt lat="45.893887152415445" lon="11.614951046878419"><ele>1026.0</ele><time>2026-04-12T08:50:16.998Z</time></trkpt><trkpt lat="45.89405465794227" lon="11.61498347764692"><ele>1026.0</ele><time>2026-04-12T08:50:17.998Z</time></trkpt><trkpt lat="45.89422757896665" lon="11.615065703635247"><ele>1026.0</ele><time>2026-04-12T08:50:18.998Z</time></trkpt><trkpt lat="45.89440194262568" lon="11.615154503777234"><ele>1026.0</ele><time>2026-04-12T08:50:19.998Z</time></trkpt><trkpt lat="45.89456644476452" lon="11.615233540311227"><ele>1021.6666666666667</ele><time>2026-04-12T08:50:20.998Z</time></trkpt><trkpt lat="45.89473769051784" lon="11.61531353742375"><ele>1017.3333333333334</ele><time>2026-04-12T08:50:21.998Z</time></trkpt><trkpt lat="45.89490965143626" lon="11.615406004099595"><ele>1013.0</ele><time>2026-04-12T08:50:22.998Z</time></trkpt><trkpt lat="45.895084951108494" lon="11.615512443139663"><ele>1021.6666666666667</ele><time>2026-04-12T08:50:24Z</time></trkpt><trkpt lat="45.89525913550954" lon="11.615633827665924"><ele>1030.3333333333333</ele><time>2026-04-12T08:50:25Z</time></trkpt><trkpt lat="45.89543831259617" lon="11.615778500870507"><ele>1039.0</ele><time>2026-04-12T08:50:26Z</time></trkpt><trkpt lat="45.895612676129545" lon="11.615945565903047"><ele>1039.0</ele><time>2026-04-12T08:50:27Z</time></trkpt><trkpt lat="45.89578825742527" lon="11.616119710392413"><ele>1039.0</ele><time>2026-04-12T08:50:28Z</time></trkpt><trkpt lat="45.89595829973328" lon="11.616296153066921"><ele>1039.0</ele><time>2026-04-12T08:50:29Z</time></trkpt><trkpt lat="45.896128966118795" lon="11.616476687814624"><ele>1038.6666666666665</ele><time>2026-04-12T08:50:30Z</time></trkpt><trkpt lat="45.89629990819043" lon="11.616656638422821"><ele>1038.3333333333333</ele><time>2026-04-12T08:50:31Z</time></trkpt><trkpt lat="45.89646993530153" lon="11.61683136287391"><ele>1038.0</ele><time>2026-04-12T08:50:32Z</time></trkpt><trkpt lat="45.89662627496128" lon="11.617006460331059"><ele>1036.6666666666667</ele><time>2026-04-12T08:50:33Z</time></trkpt><trkpt lat="45.896777706096195" lon="11.617161131823192"><ele>1035.3333333333335</ele><time>2026-04-12T08:50:34Z</time></trkpt><trkpt lat="45.89693207182971" lon="11.617310738446902"><ele>1034.0</ele><time>2026-04-12T08:50:35Z</time></trkpt><trkpt lat="45.89710566089722" lon="11.617416146009393"><ele>1034.0</ele><time>2026-04-12T08:50:36Z</time></trkpt><trkpt lat="45.89729072422231" lon="11.617491724242313"><ele>1034.0</ele><time>2026-04-12T08:50:37Z</time></trkpt><trkpt lat="45.89746407255744" lon="11.617532733128234"><ele>1034.0</ele><time>2026-04-12T08:50:38Z</time></trkpt><trkpt lat="45.89761878210291" lon="11.617553106645634"><ele>1034.75</ele><time>2026-04-12T08:50:39Z</time></trkpt><trkpt lat="45.89775897672874" lon="11.617599743949771"><ele>1035.5</ele><time>2026-04-12T08:50:40Z</time></trkpt><trkpt lat="45.89787530098477" lon="11.617721835539516"><ele>1036.25</ele><time>2026-04-12T08:50:41Z</time></trkpt><trkpt lat="45.89796636481416" lon="11.617883496853407"><ele>1037.0</ele><time>2026-04-12T08:50:42Z</time></trkpt><trkpt lat="45.898048742159865" lon="11.618074298164514"><ele>1037.0</ele><time>2026-04-12T08:50:43Z</time></trkpt><trkpt lat="45.898156102998335" lon="11.618272836306797"><ele>1037.0</ele><time>2026-04-12T08:50:44Z</time></trkpt><trkpt lat="45.89826800246097" lon="11.618490914890105"><ele>1037.0</ele><time>2026-04-12T08:50:45Z</time></trkpt><trkpt lat="45.898395787973875" lon="11.61870730390418"><ele>1039.3333333333335</ele><time>2026-04-12T08:50:46Z</time></trkpt><trkpt lat="45.89853215265366" lon="11.61892185193554"><ele>1041.6666666666667</ele><time>2026-04-12T08:50:47Z</time></trkpt><trkpt lat="45.89867589439133" lon="11.619126528919443"><ele>1044.0</ele><time>2026-04-12T08:50:48Z</time></trkpt><trkpt lat="45.89880176310397" lon="11.61934081362091"><ele>1044.3333333333333</ele><time>2026-04-12T08:50:49Z</time></trkpt><trkpt lat="45.89893415322086" lon="11.619532488942129"><ele>1044.6666666666665</ele><time>2026-04-12T08:50:50Z</time></trkpt><trkpt lat="45.89912052780836" lon="11.619722323755294"><ele>1045.0</ele><time>2026-04-12T08:50:51Z</time></trkpt><trkpt lat="45.89929874505875" lon="11.620013081926027"><ele>1045.0</ele><time>2026-04-12T08:50:52Z</time></trkpt><trkpt lat="45.89945643699363" lon="11.620245401740979"><ele>1045.0</ele><time>2026-04-12T08:50:53Z</time></trkpt><trkpt lat="45.89961514823298" lon="11.6204747911136"><ele>1041.6666666666665</ele><time>2026-04-12T08:50:54Z</time></trkpt><trkpt lat="45.899767980279805" lon="11.620689171706776"><ele>1038.3333333333333</ele><time>2026-04-12T08:50:55Z</time></trkpt><trkpt lat="45.899917997722945" lon="11.62090274732709"><ele>1035.0</ele><time>2026-04-12T08:50:56Z</time></trkpt><trkpt lat="45.90005901033134" lon="11.621101818878884"><ele>1043.3333333333333</ele><time>2026-04-12T08:50:57Z</time></trkpt><trkpt lat="45.900193523905976" lon="11.621291956860865"><ele>1051.6666666666665</ele><time>2026-04-12T08:50:58Z</time></trkpt><trkpt lat="45.90031250311469" lon="11.621494643752659"><ele>1060.0</ele><time>2026-04-12T08:50:59Z</time></trkpt><trkpt lat="45.900446487356604" lon="11.621662440689274"><ele>1060.0</ele><time>2026-04-12T08:51:00Z</time></trkpt><trkpt lat="45.900554951168246" lon="11.621870134573527"><ele>1060.0</ele><time>2026-04-12T08:51:01Z</time></trkpt><trkpt lat="45.9006330184892" lon="11.62211575612942"><ele>1060.0</ele><time>2026-04-12T08:51:02Z</time></trkpt><trkpt lat="45.900684245045376" lon="11.622388720883306"><ele>1058.3333333333333</ele><time>2026-04-12T08:51:03Z</time></trkpt><trkpt lat="45.90069567599452" lon="11.622670164943564"><ele>1056.6666666666667</ele><time>2026-04-12T08:51:04Z</time></trkpt><trkpt lat="45.90066508909739" lon="11.62295056022675"><ele>1055.0</ele><time>2026-04-12T08:51:05Z</time></trkpt><trkpt lat="45.90062174827579" lon="11.62320299046922"><ele>1053.6666666666667</ele><time>2026-04-12T08:51:05.999Z</time></trkpt><trkpt lat="45.90060513149211" lon="11.623446285377419"><ele>1052.3333333333333</ele><time>2026-04-12T08:51:06.999Z</time></trkpt><trkpt lat="45.90061482907695" lon="11.623702671586338"><ele>1051.0</ele><time>2026-04-12T08:51:07.999Z</time></trkpt><trkpt lat="45.9006453923905" lon="11.623950605861225"><ele>1051.0</ele><time>2026-04-12T08:51:08.999Z</time></trkpt><trkpt lat="45.90064988238938" lon="11.624170949266867"><ele>1051.0</ele><time>2026-04-12T08:51:09.999Z</time></trkpt><trkpt lat="45.90066892206845" lon="11.624360264951948"><ele>1051.0</ele><time>2026-04-12T08:51:10.999Z</time></trkpt><trkpt lat="45.9007007109028" lon="11.624533436509266"><ele>1051.0</ele><time>2026-04-12T08:51:11.999Z</time></trkpt><trkpt lat="45.90069547411677" lon="11.624696308711698"><ele>1052.0</ele><time>2026-04-12T08:51:12.999Z</time></trkpt><trkpt lat="45.90065075876035" lon="11.624845651828833"><ele>1053.0</ele><time>2026-04-12T08:51:13.999Z</time></trkpt><trkpt lat="45.90055166807882" lon="11.624952666966824"><ele>1054.0</ele><time>2026-04-12T08:51:14.999Z</time></trkpt><trkpt lat="45.90042523467326" lon="11.624982699873943"><ele>1055.0</ele><time>2026-04-12T08:51:15.999Z</time></trkpt><trkpt lat="45.900290292616596" lon="11.62496929087207"><ele>1055.0</ele><time>2026-04-12T08:51:16.999Z</time></trkpt><trkpt lat="45.90014953980809" lon="11.624958798645338"><ele>1055.0</ele><time>2026-04-12T08:51:17.999Z</time></trkpt><trkpt lat="45.900006783383915" lon="11.624964363951955"><ele>1055.0</ele><time>2026-04-12T08:51:18.999Z</time></trkpt><trkpt lat="45.899867730734805" lon="11.625005119829598"><ele>1055.0</ele><time>2026-04-12T08:51:19.999Z</time></trkpt><trkpt lat="45.899745272986635" lon="11.62510807256334"><ele>1052.5</ele><time>2026-04-12T08:51:20.999Z</time></trkpt><trkpt lat="45.89963939465743" lon="11.6252403342159"><ele>1050.0</ele><time>2026-04-12T08:51:21.999Z</time></trkpt><trkpt lat="45.89956830808802" lon="11.625410666480484"><ele>1047.5</ele><time>2026-04-12T08:51:22.999Z</time></trkpt><trkpt lat="45.89953106591891" lon="11.625623143349948"><ele>1045.0</ele><time>2026-04-12T08:51:23.999Z</time></trkpt><trkpt lat="45.89951735138573" lon="11.625841900139834"><ele>1050.25</ele><time>2026-04-12T08:51:24.999Z</time></trkpt><trkpt lat="45.899505139469404" lon="11.62605479509782"><ele>1055.5</ele><time>2026-04-12T08:51:25.999Z</time></trkpt><trkpt lat="45.89947771954341" lon="11.626257094387077"><ele>1060.75</ele><time>2026-04-12T08:51:26.999Z</time></trkpt><trkpt lat="45.89942477419874" lon="11.626447167206576"><ele>1066.0</ele><time>2026-04-12T08:51:27.999Z</time></trkpt><trkpt lat="45.899343237502315" lon="11.626624150475996"><ele>1066.75</ele><time>2026-04-12T08:51:28.999Z</time></trkpt><trkpt lat="45.89928047757998" lon="11.62679199059221"><ele>1067.5</ele><time>2026-04-12T08:51:29.999Z</time></trkpt><trkpt lat="45.89925458699183" lon="11.626958002019947"><ele>1068.25</ele><time>2026-04-12T08:51:30.999Z</time></trkpt><trkpt lat="45.89927109311822" lon="11.627127532572198"><ele>1069.0</ele><time>2026-04-12T08:51:31.999Z</time></trkpt><trkpt lat="45.899325165664116" lon="11.627290095690917"><ele>1069.0</ele><time>2026-04-12T08:51:32.999Z</time></trkpt><trkpt lat="45.899357800605344" lon="11.627446824655756"><ele>1069.0</ele><time>2026-04-12T08:51:33.999Z</time></trkpt><trkpt lat="45.899363663959775" lon="11.627603230649752"><ele>1069.0</ele><time>2026-04-12T08:51:34.999Z</time></trkpt><trkpt lat="45.89934018177844" lon="11.627763263522477"><ele>1069.0</ele><time>2026-04-12T08:51:35.999Z</time></trkpt><trkpt lat="45.89922947562498" lon="11.627877746845789"><ele>1068.0</ele><time>2026-04-12T08:51:36.999Z</time></trkpt><trkpt lat="45.899090384823225" lon="11.62796471052846"><ele>1067.0</ele><time>2026-04-12T08:51:37.999Z</time></trkpt><trkpt lat="45.898939379293154" lon="11.62805596346149"><ele>1066.0</ele><time>2026-04-12T08:51:38.999Z</time></trkpt><trkpt lat="45.8987981876184" lon="11.628160161686248"><ele>1066.0</ele><time>2026-04-12T08:51:39.999Z</time></trkpt><trkpt lat="45.89865220465371" lon="11.628267311278318"><ele>1066.0</ele><time>2026-04-12T08:51:40.999Z</time></trkpt><trkpt lat="45.89847697262484" lon="11.628372791019265"><ele>1066.0</ele><time>2026-04-12T08:51:41.999Z</time></trkpt><trkpt lat="45.89829972151992" lon="11.628469359182889"><ele>1064.0</ele><time>2026-04-12T08:51:42.999Z</time></trkpt><trkpt lat="45.89811987350713" lon="11.628549570707149"><ele>1062.0</ele><time>2026-04-12T08:51:43.999Z</time></trkpt><trkpt lat="45.89794938662348" lon="11.62865142012263"><ele>1060.0</ele><time>2026-04-12T08:51:44.999Z</time></trkpt><trkpt lat="45.8977826962067" lon="11.628793217433687"><ele>1064.6666666666665</ele><time>2026-04-12T08:51:45.999Z</time></trkpt><trkpt lat="45.89761550958058" lon="11.62895901838206"><ele>1069.3333333333333</ele><time>2026-04-12T08:51:46.999Z</time></trkpt><trkpt lat="45.89746073769915" lon="11.629133750313638"><ele>1074.0</ele><time>2026-04-12T08:51:47.999Z</time></trkpt><trkpt lat="45.89729547984934" lon="11.629304635238073"><ele>1079.0</ele><time>2026-04-12T08:51:48.999Z</time></trkpt><trkpt lat="45.897136474532616" lon="11.629487235379992"><ele>1084.0</ele><time>2026-04-12T08:51:49.999Z</time></trkpt><trkpt lat="45.89700891885377" lon="11.629657879323991"><ele>1089.0</ele><time>2026-04-12T08:51:50.999Z</time></trkpt><trkpt lat="45.896889202258016" lon="11.629807363081197"><ele>1089.0</ele><time>2026-04-12T08:51:51.999Z</time></trkpt><trkpt lat="45.89678606598476" lon="11.629947699415972"><ele>1089.0</ele><time>2026-04-12T08:51:52.999Z</time></trkpt><trkpt lat="45.8966813510609" lon="11.630084985421966"><ele>1089.0</ele><time>2026-04-12T08:51:53.999Z</time></trkpt><trkpt lat="45.89659589835244" lon="11.630208146782765"><ele>1089.0</ele><time>2026-04-12T08:51:54.999Z</time></trkpt><trkpt lat="45.89653032834711" lon="11.630324908711952"><ele>1088.0</ele><time>2026-04-12T08:51:55.999Z</time></trkpt><trkpt lat="45.89648345223305" lon="11.630422106058875"><ele>1087.0</ele><time>2026-04-12T08:51:56.999Z</time></trkpt><trkpt lat="45.896472335052536" lon="11.630607171202106"><ele>1086.0</ele><time>2026-04-12T08:51:58.999Z</time></trkpt><trkpt lat="45.89650284685366" lon="11.630693191059322"><ele>1085.0</ele><time>2026-04-12T08:51:59.998Z</time></trkpt><trkpt lat="45.896583164013016" lon="11.630743251992522"><ele>1084.0</ele><time>2026-04-12T08:52:00.998Z</time></trkpt><trkpt lat="45.89668664230226" lon="11.630748212838968"><ele>1085.4</ele><time>2026-04-12T08:52:01.998Z</time></trkpt><trkpt lat="45.89679891779416" lon="11.630729447438783"><ele>1086.8000000000002</ele><time>2026-04-12T08:52:02.998Z</time></trkpt><trkpt lat="45.896905045953204" lon="11.63071721224369"><ele>1088.1999999999998</ele><time>2026-04-12T08:52:03.998Z</time></trkpt><trkpt lat="45.897011194421346" lon="11.63070354814901"><ele>1089.6</ele><time>2026-04-12T08:52:04.998Z</time></trkpt><trkpt lat="45.89709241703106" lon="11.630705141929718"><ele>1091.0</ele><time>2026-04-12T08:52:05.998Z</time></trkpt><trkpt lat="45.89716496002668" lon="11.630702375192529"><ele>1091.0</ele><time>2026-04-12T08:52:06.998Z</time></trkpt><trkpt lat="45.89726091917481" lon="11.630713142188489"><ele>1091.0</ele><time>2026-04-12T08:52:08.998Z</time></trkpt><trkpt lat="45.89732902147452" lon="11.630699884027578"><ele>1091.0</ele><time>2026-04-12T08:52:12.998Z</time></trkpt><trkpt lat="45.89742433209584" lon="11.63065244079645"><ele>1091.0</ele><time>2026-04-12T08:52:17.998Z</time></trkpt><trkpt lat="45.89750372533461" lon="11.63061651905869"><ele>1091.0</ele><time>2026-04-12T08:52:18.998Z</time></trkpt><trkpt lat="45.89758606538798" lon="11.630545704219488"><ele>1091.0</ele><time>2026-04-12T08:52:19.998Z</time></trkpt><trkpt lat="45.89767393637735" lon="11.630490682917593"><ele>1091.2</ele><time>2026-04-12T08:52:20.998Z</time></trkpt><trkpt lat="45.89777327533922" lon="11.630448305071395"><ele>1091.3999999999999</ele><time>2026-04-12T08:52:21.998Z</time></trkpt><trkpt lat="45.897863107137034" lon="11.630430257779615"><ele>1091.6</ele><time>2026-04-12T08:52:22.998Z</time></trkpt><trkpt lat="45.897934176967404" lon="11.630419928480396"><ele>1091.8</ele><time>2026-04-12T08:52:23.998Z</time></trkpt><trkpt lat="45.89802284105833" lon="11.630417342661096"><ele>1092.0</ele><time>2026-04-12T08:52:25.998Z</time></trkpt><trkpt lat="45.89811327280226" lon="11.630372297254668"><ele>1092.0</ele><time>2026-04-12T08:52:54Z</time></trkpt><trkpt lat="45.89818323869391" lon="11.630346358975382"><ele>1092.0</ele><time>2026-04-12T08:52:55Z</time></trkpt><trkpt lat="45.89827744295975" lon="11.63032642552013"><ele>1092.0</ele><time>2026-04-12T08:52:56Z</time></trkpt><trkpt lat="45.898353049782834" lon="11.630307417850121"><ele>1092.0</ele><time>2026-04-12T08:52:57Z</time></trkpt><trkpt lat="45.89842889710127" lon="11.630289771931928"><ele>1092.0</ele><time>2026-04-12T08:52:58Z</time></trkpt><trkpt lat="45.898517112814616" lon="11.630274154457974"><ele>1092.0</ele><time>2026-04-12T08:52:59Z</time></trkpt><trkpt lat="45.89860740477609" lon="11.630253194581833"><ele>1091.0</ele><time>2026-04-12T08:53:00Z</time></trkpt><trkpt lat="45.89870262388922" lon="11.630228617127285"><ele>1090.0</ele><time>2026-04-12T08:53:01Z</time></trkpt><trkpt lat="45.898800065571216" lon="11.63020226128021"><ele>1089.0</ele><time>2026-04-12T08:53:02Z</time></trkpt><trkpt lat="45.898896834427276" lon="11.63017864829802"><ele>1088.0</ele><time>2026-04-12T08:53:03Z</time></trkpt><trkpt lat="45.8989861206733" lon="11.6301571476287"><ele>1087.0</ele><time>2026-04-12T08:53:04Z</time></trkpt><trkpt lat="45.89907680125503" lon="11.63013270685702"><ele>1087.0</ele><time>2026-04-12T08:53:05Z</time></trkpt><trkpt lat="45.8991729605796" lon="11.630108018639058"><ele>1087.0</ele><time>2026-04-12T08:53:06Z</time></trkpt><trkpt lat="45.89927263886646" lon="11.630083234366964"><ele>1087.0</ele><time>2026-04-12T08:53:07Z</time></trkpt><trkpt lat="45.89937880209064" lon="11.630055972921163"><ele>1087.0</ele><time>2026-04-12T08:53:08Z</time></trkpt><trkpt lat="45.89948147120135" lon="11.63002311163446"><ele>1087.0</ele><time>2026-04-12T08:53:09Z</time></trkpt><trkpt lat="45.899586942874045" lon="11.629991662589736"><ele>1085.4</ele><time>2026-04-12T08:53:10Z</time></trkpt><trkpt lat="45.89969226485281" lon="11.629961350870866"><ele>1083.8000000000002</ele><time>2026-04-12T08:53:10.999Z</time></trkpt><trkpt lat="45.89979587004086" lon="11.62993397789473"><ele>1082.2</ele><time>2026-04-12T08:53:11.999Z</time></trkpt><trkpt lat="45.89989582849822" lon="11.629903949888883"><ele>1080.6000000000001</ele><time>2026-04-12T08:53:12.999Z</time></trkpt><trkpt lat="45.89999619575" lon="11.629884086911062"><ele>1079.0</ele><time>2026-04-12T08:53:13.999Z</time></trkpt><trkpt lat="45.90009973387175" lon="11.629866377568133"><ele>1079.0</ele><time>2026-04-12T08:53:14.999Z</time></trkpt><trkpt lat="45.900207458424624" lon="11.629852517557321"><ele>1079.0</ele><time>2026-04-12T08:53:15.999Z</time></trkpt><trkpt lat="45.90031520356094" lon="11.6298583963929"><ele>1079.0</ele><time>2026-04-12T08:53:16.999Z</time></trkpt><trkpt lat="45.90042353973832" lon="11.629871881602238"><ele>1079.0</ele><time>2026-04-12T08:53:17.999Z</time></trkpt><trkpt lat="45.90053086596684" lon="11.62989359228318"><ele>1079.0</ele><time>2026-04-12T08:53:18.999Z</time></trkpt><trkpt lat="45.90064297319439" lon="11.629919072179526"><ele>1079.0</ele><time>2026-04-12T08:53:19.999Z</time></trkpt><trkpt lat="45.900760301348484" lon="11.629948635541272"><ele>1079.0</ele><time>2026-04-12T08:53:20.999Z</time></trkpt><trkpt lat="45.90088175929877" lon="11.629978866880707"><ele>1079.0</ele><time>2026-04-12T08:53:21.999Z</time></trkpt><trkpt lat="45.90100480402902" lon="11.630007734802485"><ele>1079.0</ele><time>2026-04-12T08:53:22.999Z</time></trkpt><trkpt lat="45.901128328888845" lon="11.630032217882858"><ele>1080.75</ele><time>2026-04-12T08:53:23.999Z</time></trkpt><trkpt lat="45.90126569358733" lon="11.630026706333725"><ele>1082.5</ele><time>2026-04-12T08:53:24.999Z</time></trkpt><trkpt lat="45.90140830443872" lon="11.63001486178298"><ele>1084.25</ele><time>2026-04-12T08:53:25.999Z</time></trkpt><trkpt lat="45.90155059764954" lon="11.63000340892492"><ele>1086.0</ele><time>2026-04-12T08:53:26.999Z</time></trkpt><trkpt lat="45.90168896843244" lon="11.629987434214177"><ele>1091.0</ele><time>2026-04-12T08:53:27.999Z</time></trkpt><trkpt lat="45.90181633005114" lon="11.6299727471155"><ele>1096.0</ele><time>2026-04-12T08:53:28.999Z</time></trkpt><trkpt lat="45.90194257522991" lon="11.629970088064834"><ele>1101.0</ele><time>2026-04-12T08:53:29.999Z</time></trkpt><trkpt lat="45.90206683705631" lon="11.629995763248777"><ele>1106.0</ele><time>2026-04-12T08:53:30.999Z</time></trkpt><trkpt lat="45.902182537612134" lon="11.63009961830318"><ele>1106.0</ele><time>2026-04-12T08:53:31.999Z</time></trkpt><trkpt lat="45.902279969717654" lon="11.630268772463902"><ele>1106.0</ele><time>2026-04-12T08:53:32.999Z</time></trkpt><trkpt lat="45.902375100455" lon="11.63046980672062"><ele>1106.0</ele><time>2026-04-12T08:53:33.999Z</time></trkpt><trkpt lat="45.90247105500305" lon="11.630652157861704"><ele>1109.0</ele><time>2026-04-12T08:53:34.999Z</time></trkpt><trkpt lat="45.90257159286066" lon="11.630807347678706"><ele>1112.0</ele><time>2026-04-12T08:53:35.999Z</time></trkpt><trkpt lat="45.902677546631026" lon="11.630966400949738"><ele>1115.0</ele><time>2026-04-12T08:53:36.999Z</time></trkpt><trkpt lat="45.902790367410795" lon="11.631114020283743"><ele>1105.0</ele><time>2026-04-12T08:53:37.999Z</time></trkpt><trkpt lat="45.90292308590307" lon="11.63122616939221"><ele>1095.0</ele><time>2026-04-12T08:53:38.999Z</time></trkpt><trkpt lat="45.90306897786691" lon="11.631330979222117"><ele>1085.0</ele><time>2026-04-12T08:53:39.999Z</time></trkpt><trkpt lat="45.90322538713676" lon="11.631431082032538"><ele>1085.0</ele><time>2026-04-12T08:53:40.999Z</time></trkpt><trkpt lat="45.90338539852092" lon="11.631534373330311"><ele>1085.0</ele><time>2026-04-12T08:53:41.999Z</time></trkpt><trkpt lat="45.90353279030789" lon="11.631621005890054"><ele>1085.0</ele><time>2026-04-12T08:53:42.999Z</time></trkpt><trkpt lat="45.90368255609202" lon="11.631692195408467"><ele>1092.3333333333335</ele><time>2026-04-12T08:53:43.999Z</time></trkpt><trkpt lat="45.90383764395313" lon="11.631752783889043"><ele>1099.6666666666667</ele><time>2026-04-12T08:53:44.999Z</time></trkpt><trkpt lat="45.903988251619204" lon="11.631808826752266"><ele>1107.0</ele><time>2026-04-12T08:53:45.999Z</time></trkpt><trkpt lat="45.904139414054484" lon="11.631884928101094"><ele>1108.6666666666667</ele><time>2026-04-12T08:53:46.999Z</time></trkpt><trkpt lat="45.90428285516529" lon="11.632016272746686"><ele>1110.3333333333335</ele><time>2026-04-12T08:53:47.999Z</time></trkpt><trkpt lat="45.90440900187981" lon="11.632200761589896"><ele>1112.0</ele><time>2026-04-12T08:53:48.999Z</time></trkpt><trkpt lat="45.904517251459474" lon="11.632425201130342"><ele>1112.0</ele><time>2026-04-12T08:53:49.999Z</time></trkpt><trkpt lat="45.90461854407528" lon="11.632643311458594"><ele>1112.0</ele><time>2026-04-12T08:53:50.999Z</time></trkpt><trkpt lat="45.90470711070025" lon="11.632832438275098"><ele>1112.0</ele><time>2026-04-12T08:53:51.999Z</time></trkpt><trkpt lat="45.90479306652719" lon="11.633004985184824"><ele>1108.2</ele><time>2026-04-12T08:53:52.999Z</time></trkpt><trkpt lat="45.90487172244402" lon="11.633156106473043"><ele>1104.4</ele><time>2026-04-12T08:53:53.999Z</time></trkpt><trkpt lat="45.904948290029424" lon="11.633279618568642"><ele>1100.6</ele><time>2026-04-12T08:53:54.999Z</time></trkpt><trkpt lat="45.90503371779601" lon="11.633374087659753"><ele>1096.8</ele><time>2026-04-12T08:53:55.999Z</time></trkpt><trkpt lat="45.9051214074484" lon="11.63342307251845"><ele>1093.0</ele><time>2026-04-12T08:53:56.999Z</time></trkpt><trkpt lat="45.90520371479034" lon="11.633415655537215"><ele>1093.0</ele><time>2026-04-12T08:53:57.999Z</time></trkpt><trkpt lat="45.90527930464211" lon="11.633346945430077"><ele>1093.0</ele><time>2026-04-12T08:53:58.999Z</time></trkpt><trkpt lat="45.90537981619769" lon="11.633229465674972"><ele>1093.0</ele><time>2026-04-12T08:53:59.999Z</time></trkpt><trkpt lat="45.90547608240979" lon="11.633101454498192"><ele>1093.0</ele><time>2026-04-12T08:54:00.999Z</time></trkpt><trkpt lat="45.90556877252526" lon="11.632981905178157"><ele>1093.0</ele><time>2026-04-12T08:54:01.999Z</time></trkpt><trkpt lat="45.90565930458648" lon="11.632882210397602"><ele>1093.0</ele><time>2026-04-12T08:54:02.999Z</time></trkpt><trkpt lat="45.90575561036538" lon="11.632805093809067"><ele>1093.0</ele><time>2026-04-12T08:54:03.999Z</time></trkpt><trkpt lat="45.905867974157644" lon="11.632770713855557"><ele>1093.0</ele><time>2026-04-12T08:54:04.999Z</time></trkpt><trkpt lat="45.90597357191886" lon="11.632798442402848"><ele>1093.0</ele><time>2026-04-12T08:54:05.998Z</time></trkpt><trkpt lat="45.90606586635118" lon="11.6328963253602"><ele>1100.75</ele><time>2026-04-12T08:54:06.998Z</time></trkpt><trkpt lat="45.906112445624785" lon="11.633063931626475"><ele>1108.5</ele><time>2026-04-12T08:54:07.998Z</time></trkpt><trkpt lat="45.90616350317516" lon="11.633246544465328"><ele>1116.25</ele><time>2026-04-12T08:54:08.998Z</time></trkpt><trkpt lat="45.906200738331556" lon="11.633448906394264"><ele>1124.0</ele><time>2026-04-12T08:54:09.998Z</time></trkpt><trkpt lat="45.90622301565587" lon="11.63365276497339"><ele>1124.0</ele><time>2026-04-12T08:54:10.998Z</time></trkpt><trkpt lat="45.90624627950457" lon="11.633846213085928"><ele>1124.0</ele><time>2026-04-12T08:54:11.998Z</time></trkpt><trkpt lat="45.90627100932407" lon="11.634052860599528"><ele>1124.0</ele><time>2026-04-12T08:54:12.998Z</time></trkpt><trkpt lat="45.906309011182856" lon="11.634268240857384"><ele>1124.0</ele><time>2026-04-12T08:54:13.998Z</time></trkpt><trkpt lat="45.90634934292007" lon="11.63448629032258"><ele>1122.0</ele><time>2026-04-12T08:54:14.998Z</time></trkpt><trkpt lat="45.90639261154952" lon="11.634689676713158"><ele>1120.0</ele><time>2026-04-12T08:54:15.998Z</time></trkpt><trkpt lat="45.9064249315497" lon="11.634879995620883"><ele>1118.0</ele><time>2026-04-12T08:54:16.998Z</time></trkpt><trkpt lat="45.90645127396364" lon="11.635078321362343"><ele>1116.0</ele><time>2026-04-12T08:54:17.998Z</time></trkpt><trkpt lat="45.906469149032276" lon="11.635281944930012"><ele>1113.5</ele><time>2026-04-12T08:54:18.998Z</time></trkpt><trkpt lat="45.906490162433165" lon="11.635486778962406"><ele>1111.0</ele><time>2026-04-12T08:54:19.998Z</time></trkpt><trkpt lat="45.90651164940415" lon="11.635682075575618"><ele>1108.5</ele><time>2026-04-12T08:54:20.998Z</time></trkpt><trkpt lat="45.90654077116752" lon="11.635872958399979"><ele>1106.0</ele><time>2026-04-12T08:54:21.998Z</time></trkpt><trkpt lat="45.906578949069896" lon="11.636059375174783"><ele>1103.3999999999999</ele><time>2026-04-12T08:54:22.998Z</time></trkpt><trkpt lat="45.90660766301809" lon="11.636203387315906"><ele>1100.8</ele><time>2026-04-12T08:54:23.998Z</time></trkpt><trkpt lat="45.906625830802156" lon="11.636359575313984"><ele>1098.1999999999998</ele><time>2026-04-12T08:54:24.998Z</time></trkpt><trkpt lat="45.90668623232942" lon="11.636509217012105"><ele>1095.6</ele><time>2026-04-12T08:54:25.998Z</time></trkpt><trkpt lat="45.906756313959214" lon="11.6366354197131"><ele>1093.0</ele><time>2026-04-12T08:54:26.998Z</time></trkpt><trkpt lat="45.90684785186965" lon="11.63676169852474"><ele>1097.25</ele><time>2026-04-12T08:54:27.998Z</time></trkpt><trkpt lat="45.90694616183909" lon="11.636872797624871"><ele>1101.5</ele><time>2026-04-12T08:54:28.998Z</time></trkpt><trkpt lat="45.90704521764488" lon="11.636979003082368"><ele>1105.75</ele><time>2026-04-12T08:54:29.998Z</time></trkpt><trkpt lat="45.907140702163225" lon="11.637096286443722"><ele>1110.0</ele><time>2026-04-12T08:54:30.998Z</time></trkpt><trkpt lat="45.907218407139254" lon="11.637229410216948"><ele>1110.0</ele><time>2026-04-12T08:54:31.998Z</time></trkpt><trkpt lat="45.90728711819015" lon="11.637352096927854"><ele>1110.0</ele><time>2026-04-12T08:54:32.998Z</time></trkpt><trkpt lat="45.90735090992701" lon="11.63748723828659"><ele>1110.0</ele><time>2026-04-12T08:54:33.998Z</time></trkpt><trkpt lat="45.907364534054906" lon="11.637675478570761"><ele>1110.0</ele><time>2026-04-12T08:54:34.998Z</time></trkpt><trkpt lat="45.90733720475594" lon="11.637873193110103"><ele>1114.3333333333333</ele><time>2026-04-12T08:54:36Z</time></trkpt><trkpt lat="45.907277221616084" lon="11.638081020196198"><ele>1118.6666666666665</ele><time>2026-04-12T08:54:37Z</time></trkpt><trkpt lat="45.90718552227162" lon="11.63829110945195"><ele>1123.0</ele><time>2026-04-12T08:54:38Z</time></trkpt><trkpt lat="45.907090520325404" lon="11.638488972588982"><ele>1132.3333333333333</ele><time>2026-04-12T08:54:39Z</time></trkpt><trkpt lat="45.906992310224624" lon="11.638661302957615"><ele>1141.6666666666667</ele><time>2026-04-12T08:54:40Z</time></trkpt><trkpt lat="45.90688936714699" lon="11.638839588715586"><ele>1151.0</ele><time>2026-04-12T08:54:41Z</time></trkpt><trkpt lat="45.90678052252888" lon="11.639002155860963"><ele>1139.25</ele><time>2026-04-12T08:54:42Z</time></trkpt><trkpt lat="45.90666201725514" lon="11.639137281186633"><ele>1127.5</ele><time>2026-04-12T08:54:43Z</time></trkpt><trkpt lat="45.90654661058994" lon="11.639243434811325"><ele>1115.75</ele><time>2026-04-12T08:54:44Z</time></trkpt><trkpt lat="45.906435228125105" lon="11.63933754954674"><ele>1104.0</ele><time>2026-04-12T08:54:45Z</time></trkpt><trkpt lat="45.906331410049035" lon="11.639430511936558"><ele>1111.0</ele><time>2026-04-12T08:54:46Z</time></trkpt><trkpt lat="45.906238473064114" lon="11.639557233144236"><ele>1118.0</ele><time>2026-04-12T08:54:47Z</time></trkpt><trkpt lat="45.90616561613217" lon="11.639736959868923"><ele>1125.0</ele><time>2026-04-12T08:54:48Z</time></trkpt><trkpt lat="45.90610143440103" lon="11.639944322551786"><ele>1132.0</ele><time>2026-04-12T08:54:49Z</time></trkpt><trkpt lat="45.9060168498813" lon="11.640134014528591"><ele>1132.0</ele><time>2026-04-12T08:54:50Z</time></trkpt><trkpt lat="45.90592398247544" lon="11.640297195627545"><ele>1132.0</ele><time>2026-04-12T08:54:51Z</time></trkpt><trkpt lat="45.905837749678895" lon="11.640498258257114"><ele>1132.0</ele><time>2026-04-12T08:54:52Z</time></trkpt><trkpt lat="45.905782522018185" lon="11.640744221000947"><ele>1127.6666666666665</ele><time>2026-04-12T08:54:53Z</time></trkpt><trkpt lat="45.90572451719224" lon="11.640999595561748"><ele>1123.3333333333333</ele><time>2026-04-12T08:54:54Z</time></trkpt><trkpt lat="45.90566564453617" lon="11.641254827227852"><ele>1119.0</ele><time>2026-04-12T08:54:55Z</time></trkpt><trkpt lat="45.90559419022592" lon="11.64148976389289"><ele>1119.0</ele><time>2026-04-12T08:54:56Z</time></trkpt><trkpt lat="45.90551601861896" lon="11.641689044501367"><ele>1119.0</ele><time>2026-04-12T08:54:57Z</time></trkpt><trkpt lat="45.905449966677736" lon="11.641873717885336"><ele>1119.0</ele><time>2026-04-12T08:54:58Z</time></trkpt><trkpt lat="45.90540876226223" lon="11.642064083369435"><ele>1119.0</ele><time>2026-04-12T08:54:59Z</time></trkpt><trkpt lat="45.90538352704346" lon="11.642280804615998"><ele>1119.75</ele><time>2026-04-12T08:55:00Z</time></trkpt><trkpt lat="45.905371024164815" lon="11.642506633687358"><ele>1120.5</ele><time>2026-04-12T08:55:01Z</time></trkpt><trkpt lat="45.90535964449893" lon="11.642718652518974"><ele>1121.25</ele><time>2026-04-12T08:55:02Z</time></trkpt><trkpt lat="45.90535309246445" lon="11.642918341973385"><ele>1122.0</ele><time>2026-04-12T08:55:03Z</time></trkpt><trkpt lat="45.90534406637244" lon="11.643102322144545"><ele>1122.25</ele><time>2026-04-12T08:55:04Z</time></trkpt><trkpt lat="45.90533167145228" lon="11.643293870108675"><ele>1122.5</ele><time>2026-04-12T08:55:05Z</time></trkpt><trkpt lat="45.90531515012948" lon="11.643496634388681"><ele>1122.75</ele><time>2026-04-12T08:55:06Z</time></trkpt><trkpt lat="45.90529749736692" lon="11.643692334716633"><ele>1123.0</ele><time>2026-04-12T08:55:07Z</time></trkpt><trkpt lat="45.905282366029205" lon="11.64389093649128"><ele>1121.5</ele><time>2026-04-12T08:55:08Z</time></trkpt><trkpt lat="45.905283682060016" lon="11.644096650538776"><ele>1120.0</ele><time>2026-04-12T08:55:09Z</time></trkpt><trkpt lat="45.90529564052932" lon="11.644306411910561"><ele>1118.5</ele><time>2026-04-12T08:55:10Z</time></trkpt><trkpt lat="45.90531281260069" lon="11.64451714146168"><ele>1117.0</ele><time>2026-04-12T08:55:11Z</time></trkpt><trkpt lat="45.905326526269526" lon="11.644723939675414"><ele>1114.25</ele><time>2026-04-12T08:55:12Z</time></trkpt><trkpt lat="45.905341980632606" lon="11.644913896162407"><ele>1111.5</ele><time>2026-04-12T08:55:13Z</time></trkpt><trkpt lat="45.90534712858964" lon="11.645084747807754"><ele>1108.75</ele><time>2026-04-12T08:55:14Z</time></trkpt><trkpt lat="45.90533194922794" lon="11.645244848214146"><ele>1106.0</ele><time>2026-04-12T08:55:15Z</time></trkpt><trkpt lat="45.9052926112339" lon="11.645385889708745"><ele>1104.2</ele><time>2026-04-12T08:55:16Z</time></trkpt><trkpt lat="45.905266157084014" lon="11.645524283019112"><ele>1102.3999999999999</ele><time>2026-04-12T08:55:17Z</time></trkpt><trkpt lat="45.90526935166288" lon="11.64567677521285"><ele>1100.6</ele><time>2026-04-12T08:55:17.999Z</time></trkpt><trkpt lat="45.90530410053906" lon="11.645832759103788"><ele>1098.8</ele><time>2026-04-12T08:55:18.999Z</time></trkpt><trkpt lat="45.90536491486014" lon="11.645973591736702"><ele>1097.0</ele><time>2026-04-12T08:55:19.999Z</time></trkpt><trkpt lat="45.90544849453573" lon="11.64609660186023"><ele>1097.75</ele><time>2026-04-12T08:55:20.999Z</time></trkpt><trkpt lat="45.90555545239337" lon="11.646199557943257"><ele>1098.5</ele><time>2026-04-12T08:55:21.999Z</time></trkpt><trkpt lat="45.90568649054155" lon="11.646281257557064"><ele>1099.25</ele><time>2026-04-12T08:55:22.999Z</time></trkpt><trkpt lat="45.90582026089761" lon="11.646371431784116"><ele>1100.0</ele><time>2026-04-12T08:55:23.999Z</time></trkpt><trkpt lat="45.905946463103135" lon="11.646476847501555"><ele>1100.0</ele><time>2026-04-12T08:55:24.999Z</time></trkpt><trkpt lat="45.90606838270983" lon="11.646610859493864"><ele>1100.0</ele><time>2026-04-12T08:55:25.999Z</time></trkpt><trkpt lat="45.90616638185155" lon="11.646768301413472"><ele>1100.0</ele><time>2026-04-12T08:55:26.999Z</time></trkpt><trkpt lat="45.90624285132963" lon="11.646946862774705"><ele>1100.0</ele><time>2026-04-12T08:55:27.999Z</time></trkpt><trkpt lat="45.90631883029285" lon="11.647133446679515"><ele>1094.3333333333335</ele><time>2026-04-12T08:55:28.999Z</time></trkpt><trkpt lat="45.906408132207574" lon="11.647320576720912"><ele>1088.6666666666667</ele><time>2026-04-12T08:55:29.999Z</time></trkpt><trkpt lat="45.906510093952704" lon="11.64750927047614"><ele>1083.0</ele><time>2026-04-12T08:55:30.999Z</time></trkpt><trkpt lat="45.90662567807746" lon="11.647703218872874"><ele>1080.6666666666667</ele><time>2026-04-12T08:55:31.999Z</time></trkpt><trkpt lat="45.90675273788597" lon="11.647874863886472"><ele>1078.3333333333335</ele><time>2026-04-12T08:55:32.999Z</time></trkpt><trkpt lat="45.90689594979592" lon="11.648023288683536"><ele>1076.0</ele><time>2026-04-12T08:55:33.999Z</time></trkpt><trkpt lat="45.90705050520334" lon="11.648165699969711"><ele>1076.0</ele><time>2026-04-12T08:55:34.999Z</time></trkpt><trkpt lat="45.90719721562368" lon="11.648339771005167"><ele>1076.0</ele><time>2026-04-12T08:55:35.999Z</time></trkpt><trkpt lat="45.907333907594996" lon="11.648534339335905"><ele>1076.0</ele><time>2026-04-12T08:55:36.999Z</time></trkpt><trkpt lat="45.90745628256245" lon="11.64871737713893"><ele>1077.6666666666667</ele><time>2026-04-12T08:55:37.999Z</time></trkpt><trkpt lat="45.90756071976106" lon="11.648909325093088"><ele>1079.3333333333333</ele><time>2026-04-12T08:55:38.999Z</time></trkpt><trkpt lat="45.90764374221828" lon="11.649107060348305"><ele>1081.0</ele><time>2026-04-12T08:55:39.999Z</time></trkpt><trkpt lat="45.907725835714224" lon="11.649275870059153"><ele>1081.0</ele><time>2026-04-12T08:55:40.999Z</time></trkpt><trkpt lat="45.90784140952958" lon="11.649422294292219"><ele>1081.0</ele><time>2026-04-12T08:55:41.999Z</time></trkpt><trkpt lat="45.90799010454529" lon="11.649548518454205"><ele>1081.0</ele><time>2026-04-12T08:55:42.999Z</time></trkpt><trkpt lat="45.90812520065638" lon="11.649657692212637"><ele>1076.5</ele><time>2026-04-12T08:55:43.999Z</time></trkpt><trkpt lat="45.90822905263" lon="11.649796857702691"><ele>1072.0</ele><time>2026-04-12T08:55:44.999Z</time></trkpt><trkpt lat="45.90832877150125" lon="11.649928483483842"><ele>1067.5</ele><time>2026-04-12T08:55:45.999Z</time></trkpt><trkpt lat="45.90838072742337" lon="11.650114751694348"><ele>1063.0</ele><time>2026-04-12T08:55:46.999Z</time></trkpt><trkpt lat="45.90839052731448" lon="11.65033601371091"><ele>1058.75</ele><time>2026-04-12T08:55:47.999Z</time></trkpt><trkpt lat="45.908386404610894" lon="11.650536946202344"><ele>1054.5</ele><time>2026-04-12T08:55:48.999Z</time></trkpt><trkpt lat="45.90839522073934" lon="11.650737929031227"><ele>1050.25</ele><time>2026-04-12T08:55:49.999Z</time></trkpt><trkpt lat="45.90839959943005" lon="11.650927970713097"><ele>1046.0</ele><time>2026-04-12T08:55:50.999Z</time></trkpt><trkpt lat="45.90840235776985" lon="11.651097864105393"><ele>1045.3999999999999</ele><time>2026-04-12T08:55:51.999Z</time></trkpt><trkpt lat="45.90841755774392" lon="11.651257592958835"><ele>1044.8</ele><time>2026-04-12T08:55:52.999Z</time></trkpt><trkpt lat="45.90845531386545" lon="11.651400670801337"><ele>1044.1999999999998</ele><time>2026-04-12T08:55:53.999Z</time></trkpt><trkpt lat="45.90852509965567" lon="11.651517571401001"><ele>1043.6</ele><time>2026-04-12T08:55:54.999Z</time></trkpt><trkpt lat="45.908627312268855" lon="11.651610534390208"><ele>1043.0</ele><time>2026-04-12T08:55:55.999Z</time></trkpt><trkpt lat="45.90876226385449" lon="11.651712453039329"><ele>1043.0</ele><time>2026-04-12T08:55:56.999Z</time></trkpt><trkpt lat="45.908938345896864" lon="11.651828922164622"><ele>1043.0</ele><time>2026-04-12T08:55:57.999Z</time></trkpt><trkpt lat="45.909091519911584" lon="11.651931383188298"><ele>1043.0</ele><time>2026-04-12T08:55:58.999Z</time></trkpt><trkpt lat="45.90923293165246" lon="11.652018122524392"><ele>1041.75</ele><time>2026-04-12T08:55:59.999Z</time></trkpt><trkpt lat="45.90933263477208" lon="11.652178930523586"><ele>1040.5</ele><time>2026-04-12T08:56:00.999Z</time></trkpt><trkpt lat="45.90943186106985" lon="11.652330356332271"><ele>1039.25</ele><time>2026-04-12T08:56:01.999Z</time></trkpt><trkpt lat="45.90951382072956" lon="11.652489913062482"><ele>1038.0</ele><time>2026-04-12T08:56:02.999Z</time></trkpt><trkpt lat="45.90960280627126" lon="11.652635059913717"><ele>1038.0</ele><time>2026-04-12T08:56:03.999Z</time></trkpt><trkpt lat="45.90972003853804" lon="11.652768352033894"><ele>1038.0</ele><time>2026-04-12T08:56:04.999Z</time></trkpt><trkpt lat="45.90986436453585" lon="11.652893749396291"><ele>1038.0</ele><time>2026-04-12T08:56:05.999Z</time></trkpt><trkpt lat="45.91006639884208" lon="11.653014864067027"><ele>1035.0</ele><time>2026-04-12T08:56:06.999Z</time></trkpt><trkpt lat="45.91029421193869" lon="11.65315544854289"><ele>1032.0</ele><time>2026-04-12T08:56:07.999Z</time></trkpt><trkpt lat="45.9105450225923" lon="11.653301421288381"><ele>1032.0</ele><time>2026-04-12T08:56:08.999Z</time></trkpt><trkpt lat="45.91079361648195" lon="11.653525627267673"><ele>1032.0</ele><time>2026-04-12T08:56:09.999Z</time></trkpt><trkpt lat="45.91102188980159" lon="11.653773782691937"><ele>1026.0</ele><time>2026-04-12T08:56:10.999Z</time></trkpt><trkpt lat="45.91123119806536" lon="11.654003156418492"><ele>1020.0</ele><time>2026-04-12T08:56:11.998Z</time></trkpt><trkpt lat="45.91143109086052" lon="11.654215744917083"><ele>1020.0</ele><time>2026-04-12T08:56:12.998Z</time></trkpt><trkpt lat="45.91161307437847" lon="11.654410644957201"><ele>1020.0</ele><time>2026-04-12T08:56:13.998Z</time></trkpt><trkpt lat="45.9117813769219" lon="11.654628565675345"><ele>1016.0</ele><time>2026-04-12T08:56:14.998Z</time></trkpt><trkpt lat="45.91191643137645" lon="11.654871830669501"><ele>1012.0</ele><time>2026-04-12T08:56:15.998Z</time></trkpt><trkpt lat="45.91203611370952" lon="11.655105661445853"><ele>1008.0</ele><time>2026-04-12T08:56:16.998Z</time></trkpt><trkpt lat="45.91216925551401" lon="11.65529314049572"><ele>1003.5</ele><time>2026-04-12T08:56:17.998Z</time></trkpt><trkpt lat="45.91230233303602" lon="11.655439628273868"><ele>999.0</ele><time>2026-04-12T08:56:18.998Z</time></trkpt><trkpt lat="45.912425005364085" lon="11.655559957584048"><ele>994.5</ele><time>2026-04-12T08:56:19.998Z</time></trkpt><trkpt lat="45.91253374455766" lon="11.655653171901015"><ele>990.0</ele><time>2026-04-12T08:56:20.998Z</time></trkpt><trkpt lat="45.912643469199104" lon="11.655721006104697"><ele>988.75</ele><time>2026-04-12T08:56:21.998Z</time></trkpt><trkpt lat="45.91276395950423" lon="11.655725974770851"><ele>987.5</ele><time>2026-04-12T08:56:22.998Z</time></trkpt><trkpt lat="45.91286440416368" lon="11.655650557326359"><ele>986.25</ele><time>2026-04-12T08:56:23.998Z</time></trkpt><trkpt lat="45.91294325665778" lon="11.655506822029702"><ele>985.0</ele><time>2026-04-12T08:56:24.998Z</time></trkpt><trkpt lat="45.913002717081596" lon="11.655346862708615"><ele>990.0</ele><time>2026-04-12T08:56:25.998Z</time></trkpt><trkpt lat="45.91311140198557" lon="11.655205277887633"><ele>995.0</ele><time>2026-04-12T08:56:26.998Z</time></trkpt><trkpt lat="45.91327951444527" lon="11.655109248339455"><ele>1000.0</ele><time>2026-04-12T08:56:27.998Z</time></trkpt><trkpt lat="45.913466254784375" lon="11.654983797525913"><ele>999.6666666666666</ele><time>2026-04-12T08:56:28.998Z</time></trkpt><trkpt lat="45.91365116248164" lon="11.654799103752083"><ele>999.3333333333333</ele><time>2026-04-12T08:56:29.998Z</time></trkpt><trkpt lat="45.91380881391793" lon="11.65461914899585"><ele>999.0</ele><time>2026-04-12T08:56:30.998Z</time></trkpt><trkpt lat="45.91395239493015" lon="11.654448817011383"><ele>999.0</ele><time>2026-04-12T08:56:31.998Z</time></trkpt><trkpt lat="45.9140997031251" lon="11.654309271535089"><ele>999.0</ele><time>2026-04-12T08:56:32.998Z</time></trkpt><trkpt lat="45.91421364468058" lon="11.654182552449914"><ele>999.0</ele><time>2026-04-12T08:56:33.998Z</time></trkpt><trkpt lat="45.914316252005875" lon="11.654073346207895"><ele>999.0</ele><time>2026-04-12T08:56:34.998Z</time></trkpt><trkpt lat="45.91441788536831" lon="11.654001140124953"><ele>987.0</ele><time>2026-04-12T08:56:35.998Z</time></trkpt><trkpt lat="45.914547920194835" lon="11.653992351919847"><ele>975.0</ele><time>2026-04-12T08:56:36.998Z</time></trkpt><trkpt lat="45.91465753096541" lon="11.654017777078105"><ele>963.0</ele><time>2026-04-12T08:56:37.998Z</time></trkpt><trkpt lat="45.91477065074049" lon="11.654072416833513"><ele>951.0</ele><time>2026-04-12T08:56:38.998Z</time></trkpt><trkpt lat="45.91488017960346" lon="11.654163084361032"><ele>951.0</ele><time>2026-04-12T08:56:39.998Z</time></trkpt><trkpt lat="45.91498527706498" lon="11.654266853527416"><ele>951.0</ele><time>2026-04-12T08:56:40.998Z</time></trkpt><trkpt lat="45.915090829974076" lon="11.654369645055926"><ele>951.0</ele><time>2026-04-12T08:56:42Z</time></trkpt><trkpt lat="45.91520093576602" lon="11.65446395668601"><ele>951.0</ele><time>2026-04-12T08:56:43Z</time></trkpt><trkpt lat="45.915299820645025" lon="11.654552669794485"><ele>931.1999999999999</ele><time>2026-04-12T08:56:44Z</time></trkpt><trkpt lat="45.91539168740946" lon="11.65464037543489"><ele>911.3999999999999</ele><time>2026-04-12T08:56:45Z</time></trkpt><trkpt lat="45.915477740557776" lon="11.654722490781122"><ele>891.6</ele><time>2026-04-12T08:56:46Z</time></trkpt><trkpt lat="45.91556505476535" lon="11.654794513574792"><ele>871.8</ele><time>2026-04-12T08:56:47Z</time></trkpt><trkpt lat="45.915654291798795" lon="11.654879772906863"><ele>852.0</ele><time>2026-04-12T08:56:48Z</time></trkpt><trkpt lat="45.915749680118424" lon="11.654963920805388"><ele>852.0</ele><time>2026-04-12T08:56:49Z</time></trkpt><trkpt lat="45.91584883760478" lon="11.655060337467965"><ele>852.0</ele><time>2026-04-12T08:56:50Z</time></trkpt><trkpt lat="45.91595149380928" lon="11.655174549277286"><ele>852.0</ele><time>2026-04-12T08:56:51Z</time></trkpt><trkpt lat="45.916061009824226" lon="11.655291375431784"><ele>852.0</ele><time>2026-04-12T08:56:52Z</time></trkpt><trkpt lat="45.91618519770524" lon="11.655406225910829"><ele>873.6666666666667</ele><time>2026-04-12T08:56:53Z</time></trkpt><trkpt lat="45.91631604833902" lon="11.655520287759849"><ele>895.3333333333334</ele><time>2026-04-12T08:56:54Z</time></trkpt><trkpt lat="45.91644876476542" lon="11.655637488919943"><ele>917.0</ele><time>2026-04-12T08:56:55Z</time></trkpt><trkpt lat="45.9165743593709" lon="11.655749280142707"><ele>917.0</ele><time>2026-04-12T08:56:56Z</time></trkpt><trkpt lat="45.91669212243661" lon="11.655852996785969"><ele>917.0</ele><time>2026-04-12T08:56:57Z</time></trkpt><trkpt lat="45.91679189948582" lon="11.655953468009585"><ele>917.0</ele><time>2026-04-12T08:56:58Z</time></trkpt><trkpt lat="45.916881236906136" lon="11.65606912459928"><ele>917.0</ele><time>2026-04-12T08:56:59Z</time></trkpt><trkpt lat="45.916943347662325" lon="11.656201542721861"><ele>930.0</ele><time>2026-04-12T08:57:00Z</time></trkpt><trkpt lat="45.91697435185421" lon="11.65637550714772"><ele>943.0</ele><time>2026-04-12T08:57:01Z</time></trkpt><trkpt lat="45.91703615059934" lon="11.656576858766435"><ele>956.0</ele><time>2026-04-12T08:57:02Z</time></trkpt><trkpt lat="45.91711269300732" lon="11.656778791414665"><ele>969.0</ele><time>2026-04-12T08:57:03Z</time></trkpt><trkpt lat="45.91719599557627" lon="11.656957389518254"><ele>969.0</ele><time>2026-04-12T08:57:04Z</time></trkpt><trkpt lat="45.91727698063599" lon="11.65714695864816"><ele>969.0</ele><time>2026-04-12T08:57:05Z</time></trkpt><trkpt lat="45.91735759042398" lon="11.657351554611823"><ele>969.0</ele><time>2026-04-12T08:57:06Z</time></trkpt><trkpt lat="45.91743549952045" lon="11.657550580038153"><ele>969.0</ele><time>2026-04-12T08:57:07Z</time></trkpt><trkpt lat="45.91751320779265" lon="11.65775939823531"><ele>969.0</ele><time>2026-04-12T08:57:08Z</time></trkpt><trkpt lat="45.91759259581931" lon="11.657957988955419"><ele>969.0</ele><time>2026-04-12T08:57:09Z</time></trkpt><trkpt lat="45.91767177645424" lon="11.658148105124019"><ele>984.3333333333333</ele><time>2026-04-12T08:57:10Z</time></trkpt><trkpt lat="45.91775724130846" lon="11.658340117329697"><ele>999.6666666666666</ele><time>2026-04-12T08:57:11Z</time></trkpt><trkpt lat="45.917847928126484" lon="11.658538924262757"><ele>1015.0</ele><time>2026-04-12T08:57:12Z</time></trkpt><trkpt lat="45.91794671004287" lon="11.658747477246804"><ele>1015.0</ele><time>2026-04-12T08:57:13Z</time></trkpt><trkpt lat="45.918033930772886" lon="11.658977738710393"><ele>1015.0</ele><time>2026-04-12T08:57:14Z</time></trkpt><trkpt lat="45.918090840600684" lon="11.659218545802856"><ele>1015.0</ele><time>2026-04-12T08:57:15Z</time></trkpt><trkpt lat="45.91811679091695" lon="11.659445075993046"><ele>1014.0</ele><time>2026-04-12T08:57:16Z</time></trkpt><trkpt lat="45.91811683236172" lon="11.659661180961304"><ele>1013.0</ele><time>2026-04-12T08:57:17Z</time></trkpt><trkpt lat="45.91808701039261" lon="11.659855439827849"><ele>1012.0</ele><time>2026-04-12T08:57:18Z</time></trkpt><trkpt lat="45.91799800008727" lon="11.659999865021543"><ele>1011.0</ele><time>2026-04-12T08:57:19Z</time></trkpt><trkpt lat="45.91788904293353" lon="11.660133126874458"><ele>1011.0</ele><time>2026-04-12T08:57:20Z</time></trkpt><trkpt lat="45.91779114267752" lon="11.660240221038785"><ele>1010.9999999999999</ele><time>2026-04-12T08:57:21Z</time></trkpt><trkpt lat="45.91769942861906" lon="11.660329087674885"><ele>1010.9999999999999</ele><time>2026-04-12T08:57:22Z</time></trkpt><trkpt lat="45.91765488122518" lon="11.66044934126259"><ele>1011.0</ele><time>2026-04-12T08:57:23Z</time></trkpt><trkpt lat="45.91768015644273" lon="11.660592942312753"><ele>1011.0</ele><time>2026-04-12T08:57:23.999Z</time></trkpt><trkpt lat="45.91773261879983" lon="11.660740005003234"><ele>1012.0</ele><time>2026-04-12T08:57:24.999Z</time></trkpt><trkpt lat="45.917798848215625" lon="11.660904390231067"><ele>1013.0</ele><time>2026-04-12T08:57:25.999Z</time></trkpt><trkpt lat="45.91788741737837" lon="11.661092444332057"><ele>1014.0</ele><time>2026-04-12T08:57:26.999Z</time></trkpt><trkpt lat="45.91799619328875" lon="11.661281129778741"><ele>1008.0</ele><time>2026-04-12T08:57:27.999Z</time></trkpt><trkpt lat="45.918118393603315" lon="11.661465387167514"><ele>1002.0</ele><time>2026-04-12T08:57:28.999Z</time></trkpt><trkpt lat="45.91824982370539" lon="11.661665630098948"><ele>996.0</ele><time>2026-04-12T08:57:29.999Z</time></trkpt><trkpt lat="45.91837570675189" lon="11.661882211257348"><ele>1001.0</ele><time>2026-04-12T08:57:30.999Z</time></trkpt><trkpt lat="45.91850797894853" lon="11.662086696866684"><ele>1006.0</ele><time>2026-04-12T08:57:31.999Z</time></trkpt><trkpt lat="45.918644567589816" lon="11.662285656973362"><ele>1011.0</ele><time>2026-04-12T08:57:32.999Z</time></trkpt><trkpt lat="45.918766302946125" lon="11.662480365014208"><ele>1011.0</ele><time>2026-04-12T08:57:33.999Z</time></trkpt><trkpt lat="45.918865555255145" lon="11.662678631232435"><ele>1011.0</ele><time>2026-04-12T08:57:34.999Z</time></trkpt><trkpt lat="45.9189573566238" lon="11.662871745978629"><ele>1011.0</ele><time>2026-04-12T08:57:35.999Z</time></trkpt><trkpt lat="45.919057907402056" lon="11.663067621352985"><ele>1012.3333333333333</ele><time>2026-04-12T08:57:36.999Z</time></trkpt><trkpt lat="45.919197276385674" lon="11.663231462223683"><ele>1013.6666666666666</ele><time>2026-04-12T08:57:37.999Z</time></trkpt><trkpt lat="45.91935817460653" lon="11.66336871011747"><ele>1015.0</ele><time>2026-04-12T08:57:38.999Z</time></trkpt><trkpt lat="45.91950778018512" lon="11.663515178375478"><ele>1008.0</ele><time>2026-04-12T08:57:39.999Z</time></trkpt><trkpt lat="45.91962406977406" lon="11.663665793106485"><ele>1001.0</ele><time>2026-04-12T08:57:40.999Z</time></trkpt><trkpt lat="45.91973194751868" lon="11.663802996580843"><ele>994.0</ele><time>2026-04-12T08:57:41.999Z</time></trkpt><trkpt lat="45.919856464731176" lon="11.663914331095524"><ele>987.0</ele><time>2026-04-12T08:57:42.999Z</time></trkpt><trkpt lat="45.92000045110485" lon="11.663974381746769"><ele>994.0</ele><time>2026-04-12T08:57:43.999Z</time></trkpt><trkpt lat="45.92015279533422" lon="11.664015290034794"><ele>1001.0</ele><time>2026-04-12T08:57:44.999Z</time></trkpt><trkpt lat="45.92030749743005" lon="11.664089358165924"><ele>1008.0</ele><time>2026-04-12T08:57:45.999Z</time></trkpt><trkpt lat="45.92044002594029" lon="11.664179559750051"><ele>1008.0</ele><time>2026-04-12T08:57:46.999Z</time></trkpt><trkpt lat="45.92055931593511" lon="11.664292720148904"><ele>1008.0</ele><time>2026-04-12T08:57:47.999Z</time></trkpt><trkpt lat="45.920648253037285" lon="11.664464138722419"><ele>1008.0</ele><time>2026-04-12T08:57:48.999Z</time></trkpt><trkpt lat="45.92073510162345" lon="11.66462326798238"><ele>1008.0</ele><time>2026-04-12T08:57:49.999Z</time></trkpt><trkpt lat="45.920828479479376" lon="11.664748764970689"><ele>1008.25</ele><time>2026-04-12T08:57:50.999Z</time></trkpt><trkpt lat="45.92096962447545" lon="11.664798551930032"><ele>1008.5</ele><time>2026-04-12T08:57:51.999Z</time></trkpt><trkpt lat="45.92111950457081" lon="11.664838471788576"><ele>1008.75</ele><time>2026-04-12T08:57:52.999Z</time></trkpt><trkpt lat="45.92125304737074" lon="11.664880654936159"><ele>1009.0</ele><time>2026-04-12T08:57:53.999Z</time></trkpt><trkpt lat="45.921366302212206" lon="11.66497302860699"><ele>1009.0</ele><time>2026-04-12T08:57:54.999Z</time></trkpt><trkpt lat="45.921459470190236" lon="11.665109322352762"><ele>1009.0</ele><time>2026-04-12T08:57:55.999Z</time></trkpt><trkpt lat="45.921496594437514" lon="11.665303571048383"><ele>1009.0</ele><time>2026-04-12T08:57:56.999Z</time></trkpt><trkpt lat="45.92161609813244" lon="11.665468156645842"><ele>1009.0</ele><time>2026-04-12T08:57:57.999Z</time></trkpt><trkpt lat="45.92174247077225" lon="11.665641787677341"><ele>1012.3333333333333</ele><time>2026-04-12T08:57:58.999Z</time></trkpt><trkpt lat="45.92189032280919" lon="11.665802882912583"><ele>1015.6666666666667</ele><time>2026-04-12T08:57:59.999Z</time></trkpt><trkpt lat="45.922020454633504" lon="11.665977570477512"><ele>1019.0</ele><time>2026-04-12T08:58:00.999Z</time></trkpt><trkpt lat="45.922116565762614" lon="11.666164467787786"><ele>1019.0</ele><time>2026-04-12T08:58:01.999Z</time></trkpt><trkpt lat="45.92219909112991" lon="11.666333965256687"><ele>1019.0000000000001</ele><time>2026-04-12T08:58:02.999Z</time></trkpt><trkpt lat="45.92226533711285" lon="11.666462794762321"><ele>1019.0000000000001</ele><time>2026-04-12T08:58:03.999Z</time></trkpt><trkpt lat="45.922313481305856" lon="11.666567130787133"><ele>1019.0</ele><time>2026-04-12T08:58:04.999Z</time></trkpt><trkpt lat="45.92233316773997" lon="11.666698245937564"><ele>1019.0</ele><time>2026-04-12T08:58:05.999Z</time></trkpt><trkpt lat="45.92231610153767" lon="11.666842883499358"><ele>1019.0</ele><time>2026-04-12T08:58:06.999Z</time></trkpt><trkpt lat="45.92224734340843" lon="11.666954346350533"><ele>1019.0</ele><time>2026-04-12T08:58:07.999Z</time></trkpt><trkpt lat="45.922154524868375" lon="11.666986768129068"><ele>1019.0</ele><time>2026-04-12T08:58:08.999Z</time></trkpt><trkpt lat="45.92203293782194" lon="11.666940567509178"><ele>1019.0</ele><time>2026-04-12T08:58:09.999Z</time></trkpt><trkpt lat="45.92188862863326" lon="11.666831028546085"><ele>1019.0</ele><time>2026-04-12T08:58:10.999Z</time></trkpt><trkpt lat="45.921749774827795" lon="11.666739413965274"><ele>1019.0</ele><time>2026-04-12T08:58:11.999Z</time></trkpt><trkpt lat="45.92158678933615" lon="11.666715723810448"><ele>1019.0</ele><time>2026-04-12T08:58:12.999Z</time></trkpt><trkpt lat="45.921398002785416" lon="11.666728489003889"><ele>1017.6666666666667</ele><time>2026-04-12T08:58:13.999Z</time></trkpt><trkpt lat="45.92120773828005" lon="11.666730518710366"><ele>1016.3333333333333</ele><time>2026-04-12T08:58:14.999Z</time></trkpt><trkpt lat="45.921041044241" lon="11.666774957299616"><ele>1015.0</ele><time>2026-04-12T08:58:15.999Z</time></trkpt><trkpt lat="45.920892454801205" lon="11.666813545500844"><ele>1013.25</ele><time>2026-04-12T08:58:16.999Z</time></trkpt><trkpt lat="45.920768767781304" lon="11.666864058878383"><ele>1011.5</ele><time>2026-04-12T08:58:17.999Z</time></trkpt><trkpt lat="45.92067411342372" lon="11.666958347724645"><ele>1009.75</ele><time>2026-04-12T08:58:18.998Z</time></trkpt><trkpt lat="45.920600956894276" lon="11.667094640878771"><ele>1008.0</ele><time>2026-04-12T08:58:19.998Z</time></trkpt><trkpt lat="45.92054036016585" lon="11.667285374955773"><ele>1015.6666666666667</ele><time>2026-04-12T08:58:20.998Z</time></trkpt><trkpt lat="45.92050342655664" lon="11.667497289699439"><ele>1023.3333333333334</ele><time>2026-04-12T08:58:21.998Z</time></trkpt><trkpt lat="45.92046700599698" lon="11.667710341974844"><ele>1031.0</ele><time>2026-04-12T08:58:22.998Z</time></trkpt><trkpt lat="45.92045481293354" lon="11.667933943770764"><ele>1035.0</ele><time>2026-04-12T08:58:23.998Z</time></trkpt><trkpt lat="45.92045300390186" lon="11.668126241998772"><ele>1039.0</ele><time>2026-04-12T08:58:24.998Z</time></trkpt><trkpt lat="45.92044137178574" lon="11.668300637816042"><ele>1043.0</ele><time>2026-04-12T08:58:25.998Z</time></trkpt><trkpt lat="45.92040871168933" lon="11.668459861527822"><ele>1047.0</ele><time>2026-04-12T08:58:26.998Z</time></trkpt><trkpt lat="45.92034514902441" lon="11.668572054563892"><ele>1047.0</ele><time>2026-04-12T08:58:27.998Z</time></trkpt><trkpt lat="45.92025026083041" lon="11.668613534114062"><ele>1047.0</ele><time>2026-04-12T08:58:28.998Z</time></trkpt><trkpt lat="45.92014451825483" lon="11.668606251357296"><ele>1047.0</ele><time>2026-04-12T08:58:29.998Z</time></trkpt><trkpt lat="45.92003946630817" lon="11.668634798790524"><ele>1047.0</ele><time>2026-04-12T08:58:30.998Z</time></trkpt><trkpt lat="45.91994256082904" lon="11.668749652916604"><ele>1047.0</ele><time>2026-04-12T08:58:31.998Z</time></trkpt><trkpt lat="45.91987936623612" lon="11.668867849270118"><ele>1046.75</ele><time>2026-04-12T08:58:32.998Z</time></trkpt><trkpt lat="45.919798122750834" lon="11.668950347442896"><ele>1046.5</ele><time>2026-04-12T08:58:33.998Z</time></trkpt><trkpt lat="45.91969464439029" lon="11.668959456077724"><ele>1046.25</ele><time>2026-04-12T08:58:34.998Z</time></trkpt><trkpt lat="45.91958109416178" lon="11.668892573924905"><ele>1046.0</ele><time>2026-04-12T08:58:35.998Z</time></trkpt><trkpt lat="45.91947461103597" lon="11.668768897190327"><ele>1046.0</ele><time>2026-04-12T08:58:36.998Z</time></trkpt><trkpt lat="45.91935493944574" lon="11.668656492696444"><ele>1046.0</ele><time>2026-04-12T08:58:37.998Z</time></trkpt><trkpt lat="45.919226006079114" lon="11.668572986030366"><ele>1046.0</ele><time>2026-04-12T08:58:38.998Z</time></trkpt><trkpt lat="45.91909150354506" lon="11.668501917465937"><ele>1046.0</ele><time>2026-04-12T08:58:39.998Z</time></trkpt><trkpt lat="45.918949003013495" lon="11.668474946356072"><ele>1037.3333333333335</ele><time>2026-04-12T08:58:40.998Z</time></trkpt><trkpt lat="45.91879502008481" lon="11.668506230550411"><ele>1028.6666666666667</ele><time>2026-04-12T08:58:41.998Z</time></trkpt><trkpt lat="45.91863009356383" lon="11.668560308909012"><ele>1020.0</ele><time>2026-04-12T08:58:42.998Z</time></trkpt><trkpt lat="45.91846196107158" lon="11.668582351903373"><ele>1024.0</ele><time>2026-04-12T08:58:43.998Z</time></trkpt><trkpt lat="45.918283840716754" lon="11.668542676235868"><ele>1028.0</ele><time>2026-04-12T08:58:44.998Z</time></trkpt><trkpt lat="45.918105249089756" lon="11.668471379831576"><ele>1032.0</ele><time>2026-04-12T08:58:45.998Z</time></trkpt><trkpt lat="45.91793272542473" lon="11.668400208088615"><ele>1032.0</ele><time>2026-04-12T08:58:46.998Z</time></trkpt><trkpt lat="45.91777593588774" lon="11.668329651160327"><ele>1032.0</ele><time>2026-04-12T08:58:48Z</time></trkpt><trkpt lat="45.917626970831435" lon="11.66826641342065"><ele>1032.0</ele><time>2026-04-12T08:58:49Z</time></trkpt><trkpt lat="45.917466546682185" lon="11.66819672015572"><ele>1035.0</ele><time>2026-04-12T08:58:50Z</time></trkpt><trkpt lat="45.91732056713472" lon="11.668151095748755"><ele>1038.0</ele><time>2026-04-12T08:58:51Z</time></trkpt><trkpt lat="45.91717444906568" lon="11.668131402573776"><ele>1041.0</ele><time>2026-04-12T08:58:52Z</time></trkpt><trkpt lat="45.91704064981824" lon="11.668126591951152"><ele>1044.0</ele><time>2026-04-12T08:58:53Z</time></trkpt><trkpt lat="45.916893064740655" lon="11.668159693321382"><ele>1044.0</ele><time>2026-04-12T08:58:54Z</time></trkpt><trkpt lat="45.91676213761485" lon="11.668247731228217"><ele>1044.0</ele><time>2026-04-12T08:58:55Z</time></trkpt><trkpt lat="45.916639107788896" lon="11.668369000976647"><ele>1044.0</ele><time>2026-04-12T08:58:56Z</time></trkpt><trkpt lat="45.916495362183255" lon="11.668471168884274"><ele>1044.0</ele><time>2026-04-12T08:58:57Z</time></trkpt><trkpt lat="45.916354453780784" lon="11.668530473823143"><ele>1044.0</ele><time>2026-04-12T08:58:58Z</time></trkpt><trkpt lat="45.91619158853678" lon="11.668561243891991"><ele>1044.0</ele><time>2026-04-12T08:58:59Z</time></trkpt><trkpt lat="45.916020643498626" lon="11.668542308228737"><ele>1044.0</ele><time>2026-04-12T08:59:00Z</time></trkpt><trkpt lat="45.91587081094709" lon="11.668556743149225"><ele>1044.0</ele><time>2026-04-12T08:59:01Z</time></trkpt><trkpt lat="45.915739865698505" lon="11.66857914518022"><ele>1044.0</ele><time>2026-04-12T08:59:02Z</time></trkpt><trkpt lat="45.91559246747588" lon="11.668553088659579"><ele>1044.0</ele><time>2026-04-12T08:59:03Z</time></trkpt><trkpt lat="45.91544353348302" lon="11.668534257826941"><ele>1044.0</ele><time>2026-04-12T08:59:04Z</time></trkpt><trkpt lat="45.91529183732771" lon="11.668505441449943"><ele>1044.0</ele><time>2026-04-12T08:59:05Z</time></trkpt><trkpt lat="45.91514957186194" lon="11.668473607750357"><ele>1044.0</ele><time>2026-04-12T08:59:06Z</time></trkpt><trkpt lat="45.91500698212229" lon="11.668391940239683"><ele>1044.5</ele><time>2026-04-12T08:59:07Z</time></trkpt><trkpt lat="45.91486228319569" lon="11.668309868977165"><ele>1045.0</ele><time>2026-04-12T08:59:08Z</time></trkpt><trkpt lat="45.914720121101574" lon="11.668234478005962"><ele>1045.5</ele><time>2026-04-12T08:59:09Z</time></trkpt><trkpt lat="45.91458314256417" lon="11.66819388946298"><ele>1046.0</ele><time>2026-04-12T08:59:10Z</time></trkpt><trkpt lat="45.91444502608642" lon="11.668125883273158"><ele>1046.0</ele><time>2026-04-12T08:59:11Z</time></trkpt><trkpt lat="45.91430458314507" lon="11.668060959018813"><ele>1046.0</ele><time>2026-04-12T08:59:12Z</time></trkpt><trkpt lat="45.91416026762989" lon="11.668044472409862"><ele>1046.0</ele><time>2026-04-12T08:59:13Z</time></trkpt><trkpt lat="45.91402691092439" lon="11.66807955875643"><ele>1046.0</ele><time>2026-04-12T08:59:14Z</time></trkpt><trkpt lat="45.91392552013644" lon="11.66816083460965"><ele>1046.25</ele><time>2026-04-12T08:59:15Z</time></trkpt><trkpt lat="45.91385235526744" lon="11.668275960943548"><ele>1046.5</ele><time>2026-04-12T08:59:16Z</time></trkpt><trkpt lat="45.913817686588665" lon="11.668418415578362"><ele>1046.75</ele><time>2026-04-12T08:59:17Z</time></trkpt><trkpt lat="45.91382770518266" lon="11.66858749154783"><ele>1047.0</ele><time>2026-04-12T08:59:18Z</time></trkpt><trkpt lat="45.913877756528386" lon="11.668759736895435"><ele>1047.0</ele><time>2026-04-12T08:59:19Z</time></trkpt><trkpt lat="45.9139445393678" lon="11.66892268137795"><ele>1047.0</ele><time>2026-04-12T08:59:20Z</time></trkpt><trkpt lat="45.91402068544673" lon="11.66910006554045"><ele>1047.0</ele><time>2026-04-12T08:59:21Z</time></trkpt><trkpt lat="45.91410448477483" lon="11.669294408122548"><ele>1047.0</ele><time>2026-04-12T08:59:22Z</time></trkpt><trkpt lat="45.914197033326836" lon="11.66949899041236"><ele>1054.0</ele><time>2026-04-12T08:59:23Z</time></trkpt><trkpt lat="45.91429744549698" lon="11.669712776407591"><ele>1061.0</ele><time>2026-04-12T08:59:24Z</time></trkpt><trkpt lat="45.91438476641948" lon="11.66994156247265"><ele>1068.0</ele><time>2026-04-12T08:59:25Z</time></trkpt><trkpt lat="45.91448545950719" lon="11.67015633181329"><ele>1066.3333333333333</ele><time>2026-04-12T08:59:26Z</time></trkpt><trkpt lat="45.91456921001909" lon="11.670372121311571"><ele>1064.6666666666665</ele><time>2026-04-12T08:59:27Z</time></trkpt><trkpt lat="45.914642595292904" lon="11.670574885373904"><ele>1063.0</ele><time>2026-04-12T08:59:28Z</time></trkpt><trkpt lat="45.91471364016349" lon="11.670768411184858"><ele>1063.0</ele><time>2026-04-12T08:59:28.999Z</time></trkpt><trkpt lat="45.914788436054955" lon="11.670953099160288"><ele>1063.0</ele><time>2026-04-12T08:59:29.999Z</time></trkpt><trkpt lat="45.91486238806412" lon="11.671134675124073"><ele>1063.0</ele><time>2026-04-12T08:59:30.999Z</time></trkpt><trkpt lat="45.914931733375575" lon="11.67131821460934"><ele>1063.0</ele><time>2026-04-12T08:59:31.999Z</time></trkpt><trkpt lat="45.914975035157674" lon="11.671514644159489"><ele>1061.3333333333333</ele><time>2026-04-12T08:59:32.999Z</time></trkpt><trkpt lat="45.914970377434884" lon="11.671734261155477"><ele>1059.6666666666667</ele><time>2026-04-12T08:59:33.999Z</time></trkpt><trkpt lat="45.914941626514455" lon="11.671957561806224"><ele>1058.0</ele><time>2026-04-12T08:59:34.999Z</time></trkpt><trkpt lat="45.91491596600684" lon="11.672186120890125"><ele>1058.0</ele><time>2026-04-12T08:59:35.999Z</time></trkpt><trkpt lat="45.91491043169952" lon="11.672424014224566"><ele>1058.0</ele><time>2026-04-12T08:59:36.999Z</time></trkpt><trkpt lat="45.91491380973066" lon="11.67266522393247"><ele>1058.0</ele><time>2026-04-12T08:59:37.999Z</time></trkpt><trkpt lat="45.91491852109146" lon="11.672896968048823"><ele>1059.0</ele><time>2026-04-12T08:59:38.999Z</time></trkpt><trkpt lat="45.91491953627153" lon="11.673121719061793"><ele>1060.0</ele><time>2026-04-12T08:59:39.999Z</time></trkpt><trkpt lat="45.914925956048315" lon="11.673346615069462"><ele>1061.0</ele><time>2026-04-12T08:59:40.999Z</time></trkpt><trkpt lat="45.91493950820454" lon="11.673567355067634"><ele>1060.75</ele><time>2026-04-12T08:59:41.999Z</time></trkpt><trkpt lat="45.91495535084416" lon="11.673778281278308"><ele>1060.5</ele><time>2026-04-12T08:59:42.999Z</time></trkpt><trkpt lat="45.91496586747942" lon="11.673972874339485"><ele>1060.25</ele><time>2026-04-12T08:59:43.999Z</time></trkpt><trkpt lat="45.914970553242554" lon="11.674162316733508"><ele>1060.0</ele><time>2026-04-12T08:59:44.999Z</time></trkpt><trkpt lat="45.91496219886779" lon="11.674355851470517"><ele>1061.5</ele><time>2026-04-12T08:59:45.999Z</time></trkpt><trkpt lat="45.91493804703061" lon="11.67455332180661"><ele>1063.0</ele><time>2026-04-12T08:59:46.999Z</time></trkpt><trkpt lat="45.914898494430176" lon="11.674743978238405"><ele>1064.5</ele><time>2026-04-12T08:59:47.999Z</time></trkpt><trkpt lat="45.9148515558601" lon="11.674926031631353"><ele>1066.0</ele><time>2026-04-12T08:59:48.999Z</time></trkpt><trkpt lat="45.914824877938074" lon="11.675102122688406"><ele>1066.0</ele><time>2026-04-12T08:59:49.999Z</time></trkpt><trkpt lat="45.91482530572532" lon="11.675265694387939"><ele>1066.0</ele><time>2026-04-12T08:59:50.999Z</time></trkpt><trkpt lat="45.914841659375384" lon="11.675419344122767"><ele>1066.0</ele><time>2026-04-12T08:59:51.999Z</time></trkpt><trkpt lat="45.91491374298393" lon="11.675530026569449"><ele>1066.0</ele><time>2026-04-12T08:59:52.999Z</time></trkpt><trkpt lat="45.91500685321444" lon="11.675607858648196"><ele>1066.0</ele><time>2026-04-12T08:59:53.999Z</time></trkpt><trkpt lat="45.91514006203953" lon="11.675577962565669"><ele>1061.5</ele><time>2026-04-12T08:59:54.999Z</time></trkpt><trkpt lat="45.915263460351916" lon="11.67554536741154"><ele>1057.0</ele><time>2026-04-12T08:59:55.999Z</time></trkpt><trkpt lat="45.915409154539326" lon="11.675517150857686"><ele>1052.5</ele><time>2026-04-12T08:59:56.999Z</time></trkpt><trkpt lat="45.915555998957046" lon="11.675443740714792"><ele>1048.0</ele><time>2026-04-12T08:59:57.999Z</time></trkpt><trkpt lat="45.9157171352946" lon="11.675387154000344"><ele>1048.0</ele><time>2026-04-12T08:59:58.999Z</time></trkpt><trkpt lat="45.915887881454665" lon="11.675318566774026"><ele>1048.0</ele><time>2026-04-12T08:59:59.999Z</time></trkpt><trkpt lat="45.916066095708075" lon="11.675245195866253"><ele>1048.0</ele><time>2026-04-12T09:00:00.999Z</time></trkpt><trkpt lat="45.91624158164329" lon="11.675183102984935"><ele>1051.0</ele><time>2026-04-12T09:00:01.999Z</time></trkpt><trkpt lat="45.91639572654226" lon="11.675135233308971"><ele>1054.0</ele><time>2026-04-12T09:00:02.999Z</time></trkpt><trkpt lat="45.91653426018026" lon="11.67510335023536"><ele>1057.0</ele><time>2026-04-12T09:00:03.999Z</time></trkpt><trkpt lat="45.91665803112114" lon="11.675074315101893"><ele>1060.0</ele><time>2026-04-12T09:00:04.999Z</time></trkpt><trkpt lat="45.91677001576509" lon="11.675035596100551"><ele>1060.0</ele><time>2026-04-12T09:00:05.999Z</time></trkpt><trkpt lat="45.91688034901431" lon="11.67497244360454"><ele>1060.0</ele><time>2026-04-12T09:00:06.999Z</time></trkpt><trkpt lat="45.916986781334785" lon="11.674882439501726"><ele>1060.0</ele><time>2026-04-12T09:00:07.999Z</time></trkpt><trkpt lat="45.917092515235616" lon="11.674773466851327"><ele>1060.0</ele><time>2026-04-12T09:00:08.999Z</time></trkpt><trkpt lat="45.91720336148033" lon="11.674655657998972"><ele>1060.0</ele><time>2026-04-12T09:00:09.999Z</time></trkpt><trkpt lat="45.91732005784478" lon="11.67454325248946"><ele>1060.0</ele><time>2026-04-12T09:00:10.999Z</time></trkpt><trkpt lat="45.91744514506295" lon="11.6744459515091"><ele>1060.0</ele><time>2026-04-12T09:00:11.999Z</time></trkpt><trkpt lat="45.9175823648087" lon="11.674377520259208"><ele>1060.0</ele><time>2026-04-12T09:00:12.999Z</time></trkpt><trkpt lat="45.91773081841173" lon="11.674338700207407"><ele>1062.25</ele><time>2026-04-12T09:00:13.999Z</time></trkpt><trkpt lat="45.91787321477352" lon="11.674324211358968"><ele>1064.5</ele><time>2026-04-12T09:00:14.999Z</time></trkpt><trkpt lat="45.91800956957587" lon="11.674335875542038"><ele>1066.75</ele><time>2026-04-12T09:00:15.999Z</time></trkpt><trkpt lat="45.91814634164113" lon="11.674404681625257"><ele>1069.0</ele><time>2026-04-12T09:00:16.999Z</time></trkpt><trkpt lat="45.91829104395225" lon="11.674465059592912"><ele>1073.3333333333333</ele><time>2026-04-12T09:00:17.999Z</time></trkpt><trkpt lat="45.91842691548812" lon="11.674577139099057"><ele>1077.6666666666667</ele><time>2026-04-12T09:00:18.999Z</time></trkpt><trkpt lat="45.91853761740396" lon="11.6747552595662"><ele>1082.0</ele><time>2026-04-12T09:00:19.999Z</time></trkpt><trkpt lat="45.91865583519674" lon="11.674944797785288"><ele>1082.0</ele><time>2026-04-12T09:00:20.999Z</time></trkpt><trkpt lat="45.91876238292264" lon="11.675141800386074"><ele>1082.0</ele><time>2026-04-12T09:00:21.999Z</time></trkpt><trkpt lat="45.91885394044478" lon="11.675314337562208"><ele>1082.0</ele><time>2026-04-12T09:00:22.999Z</time></trkpt><trkpt lat="45.918953226936885" lon="11.675454485169915"><ele>1082.5</ele><time>2026-04-12T09:00:23.998Z</time></trkpt><trkpt lat="45.9190303152877" lon="11.675593029800641"><ele>1083.0</ele><time>2026-04-12T09:00:24.998Z</time></trkpt><trkpt lat="45.9191043646024" lon="11.675713097757674"><ele>1083.5</ele><time>2026-04-12T09:00:25.998Z</time></trkpt><trkpt lat="45.9191971963575" lon="11.67581910059641"><ele>1084.0</ele><time>2026-04-12T09:00:26.998Z</time></trkpt><trkpt lat="45.91930111621839" lon="11.675921745636424"><ele>1084.0</ele><time>2026-04-12T09:00:27.998Z</time></trkpt><trkpt lat="45.91944660181853" lon="11.675964354088196"><ele>1084.0</ele><time>2026-04-12T09:00:28.998Z</time></trkpt><trkpt lat="45.91963013482445" lon="11.676028193931549"><ele>1084.0</ele><time>2026-04-12T09:00:29.998Z</time></trkpt><trkpt lat="45.919843540289435" lon="11.676098782038776"><ele>1076.5</ele><time>2026-04-12T09:00:30.998Z</time></trkpt><trkpt lat="45.920083147825316" lon="11.676169526038464"><ele>1069.0</ele><time>2026-04-12T09:00:31.998Z</time></trkpt><trkpt lat="45.92030415318484" lon="11.67622234502246"><ele>1069.0</ele><time>2026-04-12T09:00:32.998Z</time></trkpt><trkpt lat="45.92050153657478" lon="11.676242959107046"><ele>1069.0</ele><time>2026-04-12T09:00:33.998Z</time></trkpt><trkpt lat="45.92067966132503" lon="11.676215367464959"><ele>1069.0</ele><time>2026-04-12T09:00:34.998Z</time></trkpt><trkpt lat="45.92084502834584" lon="11.67622693860543"><ele>1073.0</ele><time>2026-04-12T09:00:35.998Z</time></trkpt><trkpt lat="45.92100693395089" lon="11.67635094385672"><ele>1077.0</ele><time>2026-04-12T09:00:36.998Z</time></trkpt><trkpt lat="45.92116482958928" lon="11.676504155075046"><ele>1081.0</ele><time>2026-04-12T09:00:37.998Z</time></trkpt><trkpt lat="45.92130952833858" lon="11.676607264879122"><ele>1081.0</ele><time>2026-04-12T09:00:38.998Z</time></trkpt><trkpt lat="45.92148060176052" lon="11.676647545770543"><ele>1081.0</ele><time>2026-04-12T09:00:39.998Z</time></trkpt><trkpt lat="45.92170192585178" lon="11.676628243492809"><ele>1081.0</ele><time>2026-04-12T09:00:40.998Z</time></trkpt><trkpt lat="45.92195997781786" lon="11.676577890959813"><ele>1082.5</ele><time>2026-04-12T09:00:41.998Z</time></trkpt><trkpt lat="45.92223497365436" lon="11.676543348995187"><ele>1084.0</ele><time>2026-04-12T09:00:42.998Z</time></trkpt><trkpt lat="45.92254054978645" lon="11.676515254383864"><ele>1083.0</ele><time>2026-04-12T09:00:43.998Z</time></trkpt><trkpt lat="45.92284408936636" lon="11.676443375089939"><ele>1082.0</ele><time>2026-04-12T09:00:44.998Z</time></trkpt><trkpt lat="45.92308967345185" lon="11.676362578351194"><ele>1082.0</ele><time>2026-04-12T09:00:45.998Z</time></trkpt><trkpt lat="45.92329328547336" lon="11.676291820148116"><ele>1082.0</ele><time>2026-04-12T09:00:46.998Z</time></trkpt><trkpt lat="45.92349021036391" lon="11.67625952474148"><ele>1082.0</ele><time>2026-04-12T09:00:47.998Z</time></trkpt><trkpt lat="45.923670365979824" lon="11.676327767391257"><ele>1080.6666666666667</ele><time>2026-04-12T09:00:48.998Z</time></trkpt><trkpt lat="45.923850510410006" lon="11.67634176156631"><ele>1079.3333333333333</ele><time>2026-04-12T09:00:49.998Z</time></trkpt><trkpt lat="45.92402627656617" lon="11.676321377421809"><ele>1078.0</ele><time>2026-04-12T09:00:50.998Z</time></trkpt><trkpt lat="45.92421782539934" lon="11.676229395385068"><ele>1078.3333333333333</ele><time>2026-04-12T09:00:51.998Z</time></trkpt><trkpt lat="45.92438839330256" lon="11.676135728408157"><ele>1078.6666666666667</ele><time>2026-04-12T09:00:52.998Z</time></trkpt><trkpt lat="45.924534512333516" lon="11.676062607768186"><ele>1079.0</ele><time>2026-04-12T09:00:54Z</time></trkpt><trkpt lat="45.92466488470761" lon="11.67605873881931"><ele>1079.0</ele><time>2026-04-12T09:00:55Z</time></trkpt><trkpt lat="45.92478944799866" lon="11.676177496309169"><ele>1079.0</ele><time>2026-04-12T09:00:56Z</time></trkpt><trkpt lat="45.92490286426222" lon="11.676307785187317"><ele>1079.0</ele><time>2026-04-12T09:00:57Z</time></trkpt><trkpt lat="45.92502760242299" lon="11.676343393408812"><ele>1079.0</ele><time>2026-04-12T09:00:58Z</time></trkpt><trkpt lat="45.925176072119264" lon="11.676315265414155"><ele>1084.6666666666667</ele><time>2026-04-12T09:00:59Z</time></trkpt><trkpt lat="45.925327838539125" lon="11.676257345763505"><ele>1090.3333333333333</ele><time>2026-04-12T09:01:00Z</time></trkpt><trkpt lat="45.92548353068597" lon="11.676257439309001"><ele>1096.0</ele><time>2026-04-12T09:01:01Z</time></trkpt><trkpt lat="45.925621973445445" lon="11.676386827858012"><ele>1096.0</ele><time>2026-04-12T09:01:02Z</time></trkpt><trkpt lat="45.92576037750511" lon="11.676510636860765"><ele>1096.0</ele><time>2026-04-12T09:01:03Z</time></trkpt><trkpt lat="45.92592778223776" lon="11.676577805500823"><ele>1096.0</ele><time>2026-04-12T09:01:04Z</time></trkpt><trkpt lat="45.92611796273599" lon="11.676608524375405"><ele>1098.6666666666665</ele><time>2026-04-12T09:01:05Z</time></trkpt><trkpt lat="45.926300581487105" lon="11.676608755581965"><ele>1101.3333333333333</ele><time>2026-04-12T09:01:06Z</time></trkpt><trkpt lat="45.9264623237306" lon="11.676580903577776"><ele>1104.0</ele><time>2026-04-12T09:01:07Z</time></trkpt><trkpt lat="45.9266051221386" lon="11.67653951072879"><ele>1111.0</ele><time>2026-04-12T09:01:08Z</time></trkpt><trkpt lat="45.9267352446943" lon="11.676504823706455"><ele>1118.0</ele><time>2026-04-12T09:01:09Z</time></trkpt><trkpt lat="45.92686439375508" lon="11.67654389713638"><ele>1125.0</ele><time>2026-04-12T09:01:10Z</time></trkpt><trkpt lat="45.92695639812536" lon="11.676670258738715"><ele>1132.0</ele><time>2026-04-12T09:01:11Z</time></trkpt><trkpt lat="45.927014916567146" lon="11.67686599310117"><ele>1130.0</ele><time>2026-04-12T09:01:12Z</time></trkpt><trkpt lat="45.92703430706198" lon="11.677114002139888"><ele>1128.0</ele><time>2026-04-12T09:01:13Z</time></trkpt><trkpt lat="45.92700515645063" lon="11.677372631583596"><ele>1126.0</ele><time>2026-04-12T09:01:14Z</time></trkpt><trkpt lat="45.92698739463097" lon="11.677590712595755"><ele>1125.25</ele><time>2026-04-12T09:01:15Z</time></trkpt><trkpt lat="45.92703808698572" lon="11.677780273470427"><ele>1124.5</ele><time>2026-04-12T09:01:16Z</time></trkpt><trkpt lat="45.92714527586425" lon="11.677954152516604"><ele>1123.75</ele><time>2026-04-12T09:01:17Z</time></trkpt><trkpt lat="45.92724416214214" lon="11.678108056517699"><ele>1123.0</ele><time>2026-04-12T09:01:18Z</time></trkpt><trkpt lat="45.92728137337268" lon="11.678280046033768"><ele>1123.0</ele><time>2026-04-12T09:01:19Z</time></trkpt><trkpt lat="45.927240079946515" lon="11.678471402529755"><ele>1123.0</ele><time>2026-04-12T09:01:20Z</time></trkpt><trkpt lat="45.92713790241602" lon="11.678688605841353"><ele>1123.0</ele><time>2026-04-12T09:01:21Z</time></trkpt><trkpt lat="45.92700841853867" lon="11.678942993593383"><ele>1126.5</ele><time>2026-04-12T09:01:22Z</time></trkpt><trkpt lat="45.92687649224434" lon="11.679259135044605"><ele>1130.0</ele><time>2026-04-12T09:01:23Z</time></trkpt><trkpt lat="45.92674306503529" lon="11.679613766220944"><ele>1114.0</ele><time>2026-04-12T09:01:24Z</time></trkpt><trkpt lat="45.926600342571106" lon="11.679946259706549"><ele>1098.0</ele><time>2026-04-12T09:01:25Z</time></trkpt><trkpt lat="45.92649224225383" lon="11.680231764852222"><ele>1100.0</ele><time>2026-04-12T09:01:26Z</time></trkpt><trkpt lat="45.92640431953618" lon="11.680502925163042"><ele>1102.0</ele><time>2026-04-12T09:01:27Z</time></trkpt><trkpt lat="45.926353786034745" lon="11.680726999112718"><ele>1104.0</ele><time>2026-04-12T09:01:28Z</time></trkpt><trkpt lat="45.92630673112131" lon="11.680894919987015"><ele>1104.0</ele><time>2026-04-12T09:01:29Z</time></trkpt><trkpt lat="45.92627177274674" lon="11.681041012416491"><ele>1104.0</ele><time>2026-04-12T09:01:30Z</time></trkpt><trkpt lat="45.92626884940458" lon="11.681197065394729"><ele>1104.0</ele><time>2026-04-12T09:01:31Z</time></trkpt><trkpt lat="45.92632689585306" lon="11.6813330557113"><ele>1104.0</ele><time>2026-04-12T09:01:32Z</time></trkpt><trkpt lat="45.92642360243073" lon="11.681443638511025"><ele>1101.75</ele><time>2026-04-12T09:01:33Z</time></trkpt><trkpt lat="45.92655512979877" lon="11.681483827683103"><ele>1099.5</ele><time>2026-04-12T09:01:33.999Z</time></trkpt><trkpt lat="45.926695963484164" lon="11.681419131645699"><ele>1097.25</ele><time>2026-04-12T09:01:34.999Z</time></trkpt><trkpt lat="45.926841475622396" lon="11.68133721787591"><ele>1095.0</ele><time>2026-04-12T09:01:35.999Z</time></trkpt><trkpt lat="45.92700203086589" lon="11.681254281291073"><ele>1095.0</ele><time>2026-04-12T09:01:36.999Z</time></trkpt><trkpt lat="45.92716819146479" lon="11.681235752137246"><ele>1095.0</ele><time>2026-04-12T09:01:37.999Z</time></trkpt><trkpt lat="45.92733869287556" lon="11.681276056237241"><ele>1095.0</ele><time>2026-04-12T09:01:38.999Z</time></trkpt><trkpt lat="45.92750152888475" lon="11.681294691616307"><ele>1092.0</ele><time>2026-04-12T09:01:39.999Z</time></trkpt><trkpt lat="45.92769941015475" lon="11.68123057510382"><ele>1089.0</ele><time>2026-04-12T09:01:40.999Z</time></trkpt><trkpt lat="45.927918287651664" lon="11.681121433605467"><ele>1086.0</ele><time>2026-04-12T09:01:41.999Z</time></trkpt><trkpt lat="45.92815096716751" lon="11.681021094967923"><ele>1093.3333333333333</ele><time>2026-04-12T09:01:42.999Z</time></trkpt><trkpt lat="45.92836183262922" lon="11.68094585913418"><ele>1100.6666666666665</ele><time>2026-04-12T09:01:43.999Z</time></trkpt><trkpt lat="45.92855345495069" lon="11.680876100027582"><ele>1108.0</ele><time>2026-04-12T09:01:44.999Z</time></trkpt><trkpt lat="45.92872188443045" lon="11.680839769228754"><ele>1111.6666666666665</ele><time>2026-04-12T09:01:45.999Z</time></trkpt><trkpt lat="45.92887842922241" lon="11.680882087226285"><ele>1115.3333333333333</ele><time>2026-04-12T09:01:46.999Z</time></trkpt><trkpt lat="45.92902047557567" lon="11.680999462340594"><ele>1119.0</ele><time>2026-04-12T09:01:47.999Z</time></trkpt><trkpt lat="45.92917607897682" lon="11.681172800491124"><ele>1118.0</ele><time>2026-04-12T09:01:48.999Z</time></trkpt><trkpt lat="45.92933576437252" lon="11.68133981517816"><ele>1117.0</ele><time>2026-04-12T09:01:49.999Z</time></trkpt><trkpt lat="45.92948090812363" lon="11.681464973289389"><ele>1116.0</ele><time>2026-04-12T09:01:50.999Z</time></trkpt><trkpt lat="45.92962370022136" lon="11.681571872949068"><ele>1116.0</ele><time>2026-04-12T09:01:51.999Z</time></trkpt><trkpt lat="45.9297716593618" lon="11.681614877313717"><ele>1116.0</ele><time>2026-04-12T09:01:52.999Z</time></trkpt><trkpt lat="45.92992733583329" lon="11.68156135498023"><ele>1116.0</ele><time>2026-04-12T09:01:53.999Z</time></trkpt><trkpt lat="45.930065295144495" lon="11.681560666701719"><ele>1116.0</ele><time>2026-04-12T09:01:54.999Z</time></trkpt><trkpt lat="45.930197995084235" lon="11.681650835658816"><ele>1115.0</ele><time>2026-04-12T09:01:55.999Z</time></trkpt><trkpt lat="45.93029137211627" lon="11.681804367626098"><ele>1114.0</ele><time>2026-04-12T09:01:56.999Z</time></trkpt><trkpt lat="45.93040268335383" lon="11.681965342762869"><ele>1113.0</ele><time>2026-04-12T09:01:57.999Z</time></trkpt><trkpt lat="45.930519303965745" lon="11.68214916956393"><ele>1113.0</ele><time>2026-04-12T09:01:58.999Z</time></trkpt><trkpt lat="45.930695970608355" lon="11.682308821904272"><ele>1113.0</ele><time>2026-04-12T09:01:59.999Z</time></trkpt><trkpt lat="45.93092463592157" lon="11.682462238058928"><ele>1110.5</ele><time>2026-04-12T09:02:00.999Z</time></trkpt><trkpt lat="45.93119170222032" lon="11.682642730286338"><ele>1108.0</ele><time>2026-04-12T09:02:01.999Z</time></trkpt><trkpt lat="45.93145993872515" lon="11.682853212585934"><ele>1108.0</ele><time>2026-04-12T09:02:02.999Z</time></trkpt><trkpt lat="45.93169847202515" lon="11.683042076580856"><ele>1108.0</ele><time>2026-04-12T09:02:03.999Z</time></trkpt><trkpt lat="45.93191252388288" lon="11.683222552495403"><ele>1109.0</ele><time>2026-04-12T09:02:04.999Z</time></trkpt><trkpt lat="45.932118669900305" lon="11.68338574841996"><ele>1110.0</ele><time>2026-04-12T09:02:05.999Z</time></trkpt><trkpt lat="45.93230069696696" lon="11.683527589022038"><ele>1111.0</ele><time>2026-04-12T09:02:06.999Z</time></trkpt><trkpt lat="45.932463373373096" lon="11.6836769233987"><ele>1124.3333333333333</ele><time>2026-04-12T09:02:07.999Z</time></trkpt><trkpt lat="45.93259424544729" lon="11.683867781838133"><ele>1137.6666666666667</ele><time>2026-04-12T09:02:08.999Z</time></trkpt><trkpt lat="45.932682293485335" lon="11.684098764970251"><ele>1151.0</ele><time>2026-04-12T09:02:09.999Z</time></trkpt><trkpt lat="45.93274615033807" lon="11.684360957642612"><ele>1147.3333333333335</ele><time>2026-04-12T09:02:10.999Z</time></trkpt><trkpt lat="45.93275544527727" lon="11.684638011054542"><ele>1143.6666666666667</ele><time>2026-04-12T09:02:11.999Z</time></trkpt><trkpt lat="45.93272973327685" lon="11.684927992017712"><ele>1140.0</ele><time>2026-04-12T09:02:12.999Z</time></trkpt><trkpt lat="45.93273221415641" lon="11.685209451162244"><ele>1137.3333333333333</ele><time>2026-04-12T09:02:13.999Z</time></trkpt><trkpt lat="45.93280667366175" lon="11.685499298152992"><ele>1134.6666666666665</ele><time>2026-04-12T09:02:14.999Z</time></trkpt><trkpt lat="45.93287368504327" lon="11.685763044079945"><ele>1132.0</ele><time>2026-04-12T09:02:15.999Z</time></trkpt><trkpt lat="45.93290563208717" lon="11.686018957544292"><ele>1132.0</ele><time>2026-04-12T09:02:16.999Z</time></trkpt><trkpt lat="45.932882721556645" lon="11.686279045993789"><ele>1132.0</ele><time>2026-04-12T09:02:17.999Z</time></trkpt><trkpt lat="45.93281990868657" lon="11.686545117278824"><ele>1132.0</ele><time>2026-04-12T09:02:18.999Z</time></trkpt><trkpt lat="45.932758091112994" lon="11.686808625301524"><ele>1128.5</ele><time>2026-04-12T09:02:19.999Z</time></trkpt><trkpt lat="45.93271385780832" lon="11.68712727578238"><ele>1125.0</ele><time>2026-04-12T09:02:20.999Z</time></trkpt><trkpt lat="45.932689484546486" lon="11.687472995096435"><ele>1120.0</ele><time>2026-04-12T09:02:21.999Z</time></trkpt><trkpt lat="45.93266303004936" lon="11.687802860176749"><ele>1115.0</ele><time>2026-04-12T09:02:22.999Z</time></trkpt><trkpt lat="45.93262602963528" lon="11.688118533080662"><ele>1115.0</ele><time>2026-04-12T09:02:23.999Z</time></trkpt><trkpt lat="45.93257081377617" lon="11.688416491230152"><ele>1115.0</ele><time>2026-04-12T09:02:24.999Z</time></trkpt><trkpt lat="45.93250067683533" lon="11.688694795589745"><ele>1115.0</ele><time>2026-04-12T09:02:25.999Z</time></trkpt><trkpt lat="45.9324609471609" lon="11.688977672008589"><ele>1104.0</ele><time>2026-04-12T09:02:26.999Z</time></trkpt><trkpt lat="45.93245755856259" lon="11.689318411003129"><ele>1093.0</ele><time>2026-04-12T09:02:27.999Z</time></trkpt><trkpt lat="45.93245563486533" lon="11.68968494030882"><ele>1088.5</ele><time>2026-04-12T09:02:28.998Z</time></trkpt><trkpt lat="45.932460407008875" lon="11.69004336537704"><ele>1084.0</ele><time>2026-04-12T09:02:29.998Z</time></trkpt><trkpt lat="45.93246488376873" lon="11.690377723791203"><ele>1083.6666666666665</ele><time>2026-04-12T09:02:30.998Z</time></trkpt><trkpt lat="45.93246909083599" lon="11.690690800056059"><ele>1083.3333333333333</ele><time>2026-04-12T09:02:31.998Z</time></trkpt><trkpt lat="45.932471400691256" lon="11.690976038429685"><ele>1083.0</ele><time>2026-04-12T09:02:32.998Z</time></trkpt><trkpt lat="45.93247015293511" lon="11.691357986119836"><ele>1083.0</ele><time>2026-04-12T09:02:33.998Z</time></trkpt><trkpt lat="45.932395132158405" lon="11.691695924094548"><ele>1083.0</ele><time>2026-04-12T09:02:34.998Z</time></trkpt><trkpt lat="45.93232105972874" lon="11.692032413843151"><ele>1084.3333333333333</ele><time>2026-04-12T09:02:35.998Z</time></trkpt><trkpt lat="45.932265736379215" lon="11.692347436287857"><ele>1085.6666666666665</ele><time>2026-04-12T09:02:36.998Z</time></trkpt><trkpt lat="45.932186417173845" lon="11.692636858359712"><ele>1087.0</ele><time>2026-04-12T09:02:37.998Z</time></trkpt><trkpt lat="45.93211431906959" lon="11.692918614130704"><ele>1087.3333333333333</ele><time>2026-04-12T09:02:38.998Z</time></trkpt><trkpt lat="45.93198650785503" lon="11.693168954922044"><ele>1087.6666666666667</ele><time>2026-04-12T09:02:39.998Z</time></trkpt><trkpt lat="45.93184065475421" lon="11.69340352865836"><ele>1088.0</ele><time>2026-04-12T09:02:40.998Z</time></trkpt><trkpt lat="45.931702426606854" lon="11.693631909915798"><ele>1083.3333333333335</ele><time>2026-04-12T09:02:41.998Z</time></trkpt><trkpt lat="45.931557645830175" lon="11.693850277759294"><ele>1078.6666666666667</ele><time>2026-04-12T09:02:42.998Z</time></trkpt><trkpt lat="45.93140446359265" lon="11.694033501062101"><ele>1074.0</ele><time>2026-04-12T09:02:43.998Z</time></trkpt><trkpt lat="45.93125311888115" lon="11.694195287054637"><ele>1074.0</ele><time>2026-04-12T09:02:44.998Z</time></trkpt><trkpt lat="45.93111445231518" lon="11.694368739915934"><ele>1074.0</ele><time>2026-04-12T09:02:45.998Z</time></trkpt><trkpt lat="45.930992210577344" lon="11.694571526418805"><ele>1074.0</ele><time>2026-04-12T09:02:46.998Z</time></trkpt><trkpt lat="45.930889491471234" lon="11.694786256951588"><ele>1070.6666666666667</ele><time>2026-04-12T09:02:47.998Z</time></trkpt><trkpt lat="45.93080914757728" lon="11.695040739148311"><ele>1067.3333333333335</ele><time>2026-04-12T09:02:48.998Z</time></trkpt><trkpt lat="45.930748654443846" lon="11.695332283490146"><ele>1064.0</ele><time>2026-04-12T09:02:49.998Z</time></trkpt><trkpt lat="45.930685439844396" lon="11.695603350121687"><ele>1063.75</ele><time>2026-04-12T09:02:50.998Z</time></trkpt><trkpt lat="45.93063164489431" lon="11.695852447234884"><ele>1063.5</ele><time>2026-04-12T09:02:51.998Z</time></trkpt><trkpt lat="45.930597115767235" lon="11.69603989433359"><ele>1063.25</ele><time>2026-04-12T09:02:52.998Z</time></trkpt><trkpt lat="45.93059838190841" lon="11.696211683991256"><ele>1063.0</ele><time>2026-04-12T09:02:53.998Z</time></trkpt><trkpt lat="45.93063286931234" lon="11.696358081293381"><ele>1062.0</ele><time>2026-04-12T09:02:54.998Z</time></trkpt><trkpt lat="45.93070294091753" lon="11.696500767907382"><ele>1061.0</ele><time>2026-04-12T09:02:55.998Z</time></trkpt><trkpt lat="45.93084171035624" lon="11.696561571754035"><ele>1060.0</ele><time>2026-04-12T09:02:56.998Z</time></trkpt><trkpt lat="45.93101915438623" lon="11.696583476023163"><ele>1059.0</ele><time>2026-04-12T09:02:57.998Z</time></trkpt><trkpt lat="45.931212988931776" lon="11.696630285172926"><ele>1057.3333333333333</ele><time>2026-04-12T09:02:58.998Z</time></trkpt><trkpt lat="45.93138583889925" lon="11.696648140676917"><ele>1055.6666666666665</ele><time>2026-04-12T09:03:00Z</time></trkpt><trkpt lat="45.93154615318661" lon="11.696680776151199"><ele>1054.0</ele><time>2026-04-12T09:03:01Z</time></trkpt><trkpt lat="45.93169606141145" lon="11.69670273094738"><ele>1052.75</ele><time>2026-04-12T09:03:02Z</time></trkpt><trkpt lat="45.93182111873237" lon="11.696690464505021"><ele>1051.5</ele><time>2026-04-12T09:03:03Z</time></trkpt><trkpt lat="45.93192764115765" lon="11.69662297643376"><ele>1050.25</ele><time>2026-04-12T09:03:04Z</time></trkpt><trkpt lat="45.9320060204781" lon="11.696482404093231"><ele>1049.0</ele><time>2026-04-12T09:03:05Z</time></trkpt><trkpt lat="45.93206562915616" lon="11.696303145566226"><ele>1049.0</ele><time>2026-04-12T09:03:06Z</time></trkpt><trkpt lat="45.93214825232624" lon="11.69618593537176"><ele>1049.0</ele><time>2026-04-12T09:03:07Z</time></trkpt><trkpt lat="45.9322647770998" lon="11.696153378137971"><ele>1049.0</ele><time>2026-04-12T09:03:08Z</time></trkpt><trkpt lat="45.932395792899726" lon="11.696231504680464"><ele>1049.0</ele><time>2026-04-12T09:03:09Z</time></trkpt><trkpt lat="45.93255582043273" lon="11.696320447955845"><ele>1045.3333333333335</ele><time>2026-04-12T09:03:10Z</time></trkpt><trkpt lat="45.93271650342652" lon="11.696458567067083"><ele>1041.6666666666667</ele><time>2026-04-12T09:03:11Z</time></trkpt><trkpt lat="45.93286544090434" lon="11.696627511036628"><ele>1038.0</ele><time>2026-04-12T09:03:12Z</time></trkpt><trkpt lat="45.93297866104001" lon="11.696796370487144"><ele>1038.0</ele><time>2026-04-12T09:03:13Z</time></trkpt><trkpt lat="45.93307265693546" lon="11.696917781605338"><ele>1038.0</ele><time>2026-04-12T09:03:14Z</time></trkpt><trkpt lat="45.933169055822766" lon="11.69699594685743"><ele>1038.0</ele><time>2026-04-12T09:03:15Z</time></trkpt><trkpt lat="45.93328527937024" lon="11.697010473405648"><ele>1038.0</ele><time>2026-04-12T09:03:16Z</time></trkpt><trkpt lat="45.93340091512567" lon="11.696939547195145"><ele>1032.6666666666667</ele><time>2026-04-12T09:03:17Z</time></trkpt><trkpt lat="45.93350698493992" lon="11.69679485738182"><ele>1027.3333333333335</ele><time>2026-04-12T09:03:18Z</time></trkpt><trkpt lat="45.933631971024575" lon="11.696591085155834"><ele>1022.0</ele><time>2026-04-12T09:03:19Z</time></trkpt><trkpt lat="45.933779559633" lon="11.696391994476363"><ele>1022.0</ele><time>2026-04-12T09:03:20Z</time></trkpt><trkpt lat="45.933914010812" lon="11.696214084604371"><ele>1022.0</ele><time>2026-04-12T09:03:21Z</time></trkpt><trkpt lat="45.934033720969055" lon="11.696019740182917"><ele>1022.0</ele><time>2026-04-12T09:03:22Z</time></trkpt><trkpt lat="45.934140250856146" lon="11.695784687138556"><ele>1025.3333333333335</ele><time>2026-04-12T09:03:23Z</time></trkpt><trkpt lat="45.93421652681516" lon="11.69553039045071"><ele>1028.6666666666667</ele><time>2026-04-12T09:03:24Z</time></trkpt><trkpt lat="45.93427297120068" lon="11.695300847725031"><ele>1032.0</ele><time>2026-04-12T09:03:25Z</time></trkpt><trkpt lat="45.93430139464104" lon="11.69509340670951"><ele>1026.4</ele><time>2026-04-12T09:03:26Z</time></trkpt><trkpt lat="45.934319097312475" lon="11.694906166391384"><ele>1020.8000000000001</ele><time>2026-04-12T09:03:27Z</time></trkpt><trkpt lat="45.934315595918505" lon="11.69476529175868"><ele>1015.2</ele><time>2026-04-12T09:03:28Z</time></trkpt><trkpt lat="45.9343576416166" lon="11.694655728227273"><ele>1009.6</ele><time>2026-04-12T09:03:30Z</time></trkpt><trkpt lat="45.934442295105946" lon="11.69480135433151"><ele>1004.0</ele><time>2026-04-12T09:03:32Z</time></trkpt><trkpt lat="45.93438629431537" lon="11.695004355159506"><ele>1004.0</ele><time>2026-04-12T09:03:33Z</time></trkpt><trkpt lat="45.93437370091565" lon="11.695241814538916"><ele>1004.0</ele><time>2026-04-12T09:03:34Z</time></trkpt><trkpt lat="45.934326533796174" lon="11.695522257771444"><ele>1004.0</ele><time>2026-04-12T09:03:35Z</time></trkpt><trkpt lat="45.93428917904606" lon="11.695763820384185"><ele>1003.0</ele><time>2026-04-12T09:03:36Z</time></trkpt><trkpt lat="45.93425267024418" lon="11.69599769878422"><ele>1002.0</ele><time>2026-04-12T09:03:37Z</time></trkpt><trkpt lat="45.93422113213639" lon="11.696219978737762"><ele>1001.0</ele><time>2026-04-12T09:03:38Z</time></trkpt><trkpt lat="45.93413831892373" lon="11.696406864769575"><ele>1004.75</ele><time>2026-04-12T09:03:39Z</time></trkpt><trkpt lat="45.9340519696476" lon="11.696556907218682"><ele>1008.5</ele><time>2026-04-12T09:03:40Z</time></trkpt><trkpt lat="45.93398063525812" lon="11.696701989504911"><ele>1012.25</ele><time>2026-04-12T09:03:41Z</time></trkpt><trkpt lat="45.93394153901908" lon="11.696873001804677"><ele>1016.0</ele><time>2026-04-12T09:03:41.999Z</time></trkpt><trkpt lat="45.93396978810194" lon="11.697062854711525"><ele>1016.0</ele><time>2026-04-12T09:03:42.999Z</time></trkpt><trkpt lat="45.934044659513866" lon="11.697242391057173"><ele>1016.0</ele><time>2026-04-12T09:03:43.999Z</time></trkpt><trkpt lat="45.934058445133616" lon="11.697431439958752"><ele>1016.0</ele><time>2026-04-12T09:03:44.999Z</time></trkpt><trkpt lat="45.9340457529687" lon="11.697606472762608"><ele>1016.0</ele><time>2026-04-12T09:03:45.999Z</time></trkpt><trkpt lat="45.93398848342944" lon="11.697777601253344"><ele>1014.0</ele><time>2026-04-12T09:03:46.999Z</time></trkpt><trkpt lat="45.93391943403443" lon="11.697969222317386"><ele>1012.0</ele><time>2026-04-12T09:03:47.999Z</time></trkpt><trkpt lat="45.933822303500136" lon="11.698108409658378"><ele>1010.0</ele><time>2026-04-12T09:03:48.999Z</time></trkpt><trkpt lat="45.933701018911165" lon="11.698182665740376"><ele>1008.0</ele><time>2026-04-12T09:03:49.999Z</time></trkpt><trkpt lat="45.933577665413516" lon="11.698203398232026"><ele>1008.0</ele><time>2026-04-12T09:03:50.999Z</time></trkpt><trkpt lat="45.93341761451789" lon="11.698219976838603"><ele>1008.0</ele><time>2026-04-12T09:03:51.999Z</time></trkpt><trkpt lat="45.933261199577174" lon="11.698211727049804"><ele>1008.0</ele><time>2026-04-12T09:03:52.999Z</time></trkpt><trkpt lat="45.93311441688342" lon="11.698158489115555"><ele>1008.75</ele><time>2026-04-12T09:03:53.999Z</time></trkpt><trkpt lat="45.93297477934256" lon="11.698061878562081"><ele>1009.5</ele><time>2026-04-12T09:03:54.999Z</time></trkpt><trkpt lat="45.93284192193089" lon="11.697977362033606"><ele>1010.25</ele><time>2026-04-12T09:03:55.999Z</time></trkpt><trkpt lat="45.932728407183745" lon="11.697892739371818"><ele>1011.0</ele><time>2026-04-12T09:03:56.999Z</time></trkpt><trkpt lat="45.93261063680305" lon="11.697886876469601"><ele>1011.5</ele><time>2026-04-12T09:03:57.999Z</time></trkpt><trkpt lat="45.93250116004352" lon="11.697943891037001"><ele>1012.0</ele><time>2026-04-12T09:03:58.999Z</time></trkpt><trkpt lat="45.9324200636278" lon="11.698088430364141"><ele>1012.5</ele><time>2026-04-12T09:03:59.999Z</time></trkpt><trkpt lat="45.932367489975704" lon="11.698270312664564"><ele>1013.0</ele><time>2026-04-12T09:04:00.999Z</time></trkpt><trkpt lat="45.93230724535633" lon="11.69843439619888"><ele>1013.0</ele><time>2026-04-12T09:04:01.999Z</time></trkpt><trkpt lat="45.93223698615419" lon="11.698565587695352"><ele>1013.0</ele><time>2026-04-12T09:04:02.999Z</time></trkpt><trkpt lat="45.932139553185934" lon="11.698661906996476"><ele>1013.0</ele><time>2026-04-12T09:04:03.999Z</time></trkpt><trkpt lat="45.93200931284425" lon="11.698646153842859"><ele>1013.0</ele><time>2026-04-12T09:04:04.999Z</time></trkpt><trkpt lat="45.931872623100205" lon="11.698664606895186"><ele>1011.0</ele><time>2026-04-12T09:04:05.999Z</time></trkpt><trkpt lat="45.93175858470659" lon="11.69872178520653"><ele>1009.0</ele><time>2026-04-12T09:04:06.999Z</time></trkpt><trkpt lat="45.93167277078272" lon="11.698807491509564"><ele>1007.0</ele><time>2026-04-12T09:04:07.999Z</time></trkpt><trkpt lat="45.93163108727747" lon="11.698973460682481"><ele>1005.0</ele><time>2026-04-12T09:04:08.999Z</time></trkpt><trkpt lat="45.93163271876728" lon="11.699180714044699"><ele>1005.0</ele><time>2026-04-12T09:04:09.999Z</time></trkpt><trkpt lat="45.931682294735715" lon="11.699377718385799"><ele>1005.0</ele><time>2026-04-12T09:04:10.999Z</time></trkpt><trkpt lat="45.931711912434345" lon="11.699577219696746"><ele>1005.0</ele><time>2026-04-12T09:04:11.999Z</time></trkpt><trkpt lat="45.93171495841633" lon="11.699757939772747"><ele>1005.0</ele><time>2026-04-12T09:04:12.999Z</time></trkpt><trkpt lat="45.93166406376418" lon="11.699908936295078"><ele>1001.6666666666667</ele><time>2026-04-12T09:04:13.999Z</time></trkpt><trkpt lat="45.93156717488171" lon="11.70003356367203"><ele>998.3333333333334</ele><time>2026-04-12T09:04:14.999Z</time></trkpt><trkpt lat="45.93142489959916" lon="11.700190438830775"><ele>995.0</ele><time>2026-04-12T09:04:15.999Z</time></trkpt><trkpt lat="45.931244111924656" lon="11.700394059976633"><ele>990.5</ele><time>2026-04-12T09:04:16.999Z</time></trkpt><trkpt lat="45.93105165587801" lon="11.700627729621806"><ele>986.0</ele><time>2026-04-12T09:04:17.999Z</time></trkpt><trkpt lat="45.93083033382727" lon="11.700855060640418"><ele>982.0</ele><time>2026-04-12T09:04:18.999Z</time></trkpt><trkpt lat="45.93063663131246" lon="11.701099709223346"><ele>978.0</ele><time>2026-04-12T09:04:19.999Z</time></trkpt><trkpt lat="45.93044986230598" lon="11.701304385160565"><ele>978.0</ele><time>2026-04-12T09:04:20.999Z</time></trkpt><trkpt lat="45.93023332910374" lon="11.701532728603167"><ele>978.0</ele><time>2026-04-12T09:04:21.999Z</time></trkpt><trkpt lat="45.93003702138068" lon="11.701751790090631"><ele>973.6666666666667</ele><time>2026-04-12T09:04:22.999Z</time></trkpt><trkpt lat="45.929856171894976" lon="11.701948627796593"><ele>969.3333333333334</ele><time>2026-04-12T09:04:23.999Z</time></trkpt><trkpt lat="45.929685569379444" lon="11.702132023686001"><ele>965.0</ele><time>2026-04-12T09:04:24.999Z</time></trkpt><trkpt lat="45.92952417708748" lon="11.702307046360735"><ele>965.0</ele><time>2026-04-12T09:04:25.999Z</time></trkpt><trkpt lat="45.92938133049519" lon="11.702468597315393"><ele>965.0</ele><time>2026-04-12T09:04:26.999Z</time></trkpt><trkpt lat="45.92925278915024" lon="11.70260850247636"><ele>965.0</ele><time>2026-04-12T09:04:27.999Z</time></trkpt><trkpt lat="45.92914059475399" lon="11.702733913107426"><ele>964.5</ele><time>2026-04-12T09:04:28.999Z</time></trkpt><trkpt lat="45.92904192326612" lon="11.702855142680034"><ele>964.0</ele><time>2026-04-12T09:04:29.999Z</time></trkpt><trkpt lat="45.928967930562436" lon="11.70299716467386"><ele>963.5</ele><time>2026-04-12T09:04:30.999Z</time></trkpt><trkpt lat="45.92891900953227" lon="11.70316904072334"><ele>963.0</ele><time>2026-04-12T09:04:31.999Z</time></trkpt><trkpt lat="45.928905582862846" lon="11.70337065565798"><ele>963.0</ele><time>2026-04-12T09:04:32.999Z</time></trkpt><trkpt lat="45.928925625006144" lon="11.703577018790082"><ele>963.0</ele><time>2026-04-12T09:04:33.999Z</time></trkpt><trkpt lat="45.92897675745745" lon="11.70375168083589"><ele>963.0</ele><time>2026-04-12T09:04:34.999Z</time></trkpt><trkpt lat="45.92905372233374" lon="11.703892897165089"><ele>963.0</ele><time>2026-04-12T09:04:35.999Z</time></trkpt><trkpt lat="45.929164791573676" lon="11.704005985675447"><ele>959.75</ele><time>2026-04-12T09:04:36.998Z</time></trkpt><trkpt lat="45.92929446471167" lon="11.704077504931895"><ele>956.5</ele><time>2026-04-12T09:04:37.998Z</time></trkpt><trkpt lat="45.92943181099047" lon="11.704096732164428"><ele>953.25</ele><time>2026-04-12T09:04:38.998Z</time></trkpt><trkpt lat="45.9295650174912" lon="11.704062627852682"><ele>950.0</ele><time>2026-04-12T09:04:39.998Z</time></trkpt><trkpt lat="45.92967811341597" lon="11.703983423900041"><ele>950.0</ele><time>2026-04-12T09:04:40.998Z</time></trkpt><trkpt lat="45.929778200965124" lon="11.703854533168755"><ele>950.0</ele><time>2026-04-12T09:04:41.998Z</time></trkpt><trkpt lat="45.92986058921471" lon="11.703667546008685"><ele>950.0</ele><time>2026-04-12T09:04:42.998Z</time></trkpt><trkpt lat="45.92995539918621" lon="11.703443476447434"><ele>951.0</ele><time>2026-04-12T09:04:43.998Z</time></trkpt><trkpt lat="45.93002549936134" lon="11.703236612773441"><ele>952.0</ele><time>2026-04-12T09:04:44.998Z</time></trkpt><trkpt lat="45.93008933628718" lon="11.703066224180596"><ele>953.0</ele><time>2026-04-12T09:04:45.998Z</time></trkpt><trkpt lat="45.930145389627086" lon="11.70293344605778"><ele>954.0</ele><time>2026-04-12T09:04:46.998Z</time></trkpt><trkpt lat="45.93024696267633" lon="11.702865447497736"><ele>954.5</ele><time>2026-04-12T09:04:47.998Z</time></trkpt><trkpt lat="45.93036452006147" lon="11.702872742291962"><ele>955.0</ele><time>2026-04-12T09:04:48.998Z</time></trkpt><trkpt lat="45.93047640525178" lon="11.702965012457021"><ele>955.5</ele><time>2026-04-12T09:04:49.998Z</time></trkpt><trkpt lat="45.93055837424929" lon="11.703122733230298"><ele>956.0</ele><time>2026-04-12T09:04:50.998Z</time></trkpt><trkpt lat="45.930650376437036" lon="11.703276377231951"><ele>956.0</ele><time>2026-04-12T09:04:51.998Z</time></trkpt><trkpt lat="45.930784638332476" lon="11.70338709413181"><ele>956.0</ele><time>2026-04-12T09:04:52.998Z</time></trkpt><trkpt lat="45.930941085932275" lon="11.7034653262181"><ele>956.0</ele><time>2026-04-12T09:04:53.998Z</time></trkpt><trkpt lat="45.93108409331442" lon="11.703519424851414"><ele>954.5</ele><time>2026-04-12T09:04:54.998Z</time></trkpt><trkpt lat="45.931223012425384" lon="11.703548017169226"><ele>953.0</ele><time>2026-04-12T09:04:55.998Z</time></trkpt><trkpt lat="45.93135613562198" lon="11.70352535951266"><ele>951.5</ele><time>2026-04-12T09:04:56.998Z</time></trkpt><trkpt lat="45.931478759783616" lon="11.70344543027578"><ele>950.0</ele><time>2026-04-12T09:04:57.998Z</time></trkpt><trkpt lat="45.931602960161676" lon="11.703284203671117"><ele>944.6666666666667</ele><time>2026-04-12T09:04:58.998Z</time></trkpt><trkpt lat="45.93173133673924" lon="11.703046407958437"><ele>939.3333333333333</ele><time>2026-04-12T09:04:59.998Z</time></trkpt><trkpt lat="45.93187687621345" lon="11.702805801546914"><ele>934.0</ele><time>2026-04-12T09:05:00.998Z</time></trkpt><trkpt lat="45.9320028122337" lon="11.70259555645104"><ele>934.0</ele><time>2026-04-12T09:05:01.998Z</time></trkpt><trkpt lat="45.93212189230566" lon="11.702406474069667"><ele>934.0</ele><time>2026-04-12T09:05:02.998Z</time></trkpt><trkpt lat="45.9322199965413" lon="11.702261891963094"><ele>934.0</ele><time>2026-04-12T09:05:03.998Z</time></trkpt><trkpt lat="45.93232345667505" lon="11.702149394245023"><ele>934.0</ele><time>2026-04-12T09:05:04.998Z</time></trkpt><trkpt lat="45.932465731909346" lon="11.702106450869806"><ele>929.5</ele><time>2026-04-12T09:05:06Z</time></trkpt><trkpt lat="45.93261574534223" lon="11.702132388625206"><ele>925.0</ele><time>2026-04-12T09:05:07Z</time></trkpt><trkpt lat="45.9327279389414" lon="11.702124714161652"><ele>920.5</ele><time>2026-04-12T09:05:08Z</time></trkpt><trkpt lat="45.93283802873788" lon="11.702053812360147"><ele>916.0</ele><time>2026-04-12T09:05:09Z</time></trkpt><trkpt lat="45.93293599375496" lon="11.701929550000823"><ele>920.0</ele><time>2026-04-12T09:05:10Z</time></trkpt><trkpt lat="45.93300685976039" lon="11.70175083587137"><ele>924.0</ele><time>2026-04-12T09:05:11Z</time></trkpt><trkpt lat="45.933054222347494" lon="11.701563650577091"><ele>928.0</ele><time>2026-04-12T09:05:12Z</time></trkpt><trkpt lat="45.93312429798221" lon="11.701435427815523"><ele>932.0</ele><time>2026-04-12T09:05:13Z</time></trkpt><trkpt lat="45.933197352540446" lon="11.70134912474756"><ele>932.0</ele><time>2026-04-12T09:05:14Z</time></trkpt><trkpt lat="45.93331462606216" lon="11.701346679942544"><ele>932.0</ele><time>2026-04-12T09:05:15Z</time></trkpt><trkpt lat="45.93341454123404" lon="11.701448101122617"><ele>932.0</ele><time>2026-04-12T09:05:16Z</time></trkpt><trkpt lat="45.933549750040825" lon="11.701579811106365"><ele>932.0</ele><time>2026-04-12T09:05:17Z</time></trkpt><trkpt lat="45.93369517510911" lon="11.70176308237568"><ele>927.6666666666667</ele><time>2026-04-12T09:05:18Z</time></trkpt><trkpt lat="45.93384953616522" lon="11.701921387009873"><ele>923.3333333333333</ele><time>2026-04-12T09:05:19Z</time></trkpt><trkpt lat="45.93399031712865" lon="11.702079805963029"><ele>919.0</ele><time>2026-04-12T09:05:20Z</time></trkpt><trkpt lat="45.934113343273566" lon="11.702225197297343"><ele>919.0</ele><time>2026-04-12T09:05:21Z</time></trkpt><trkpt lat="45.93421405517049" lon="11.702346793174812"><ele>919.0</ele><time>2026-04-12T09:05:22Z</time></trkpt><trkpt lat="45.93434164395412" lon="11.702422658285101"><ele>919.0</ele><time>2026-04-12T09:05:23Z</time></trkpt><trkpt lat="45.93448260998829" lon="11.702546996182939"><ele>919.0</ele><time>2026-04-12T09:05:24Z</time></trkpt><trkpt lat="45.93468775637646" lon="11.702438111415708"><ele>915.6666666666666</ele><time>2026-04-12T09:05:25Z</time></trkpt><trkpt lat="45.934845512245666" lon="11.702398125541352"><ele>912.3333333333333</ele><time>2026-04-12T09:05:26Z</time></trkpt><trkpt lat="45.93500210674627" lon="11.702304569640239"><ele>909.0</ele><time>2026-04-12T09:05:27Z</time></trkpt><trkpt lat="45.935167856633136" lon="11.702154191383503"><ele>907.3333333333333</ele><time>2026-04-12T09:05:28Z</time></trkpt><trkpt lat="45.93532857971407" lon="11.701987488047651"><ele>905.6666666666666</ele><time>2026-04-12T09:05:29Z</time></trkpt><trkpt lat="45.93547797674781" lon="11.701835673564762"><ele>904.0</ele><time>2026-04-12T09:05:30Z</time></trkpt><trkpt lat="45.93562528836019" lon="11.701695161389084"><ele>904.0</ele><time>2026-04-12T09:05:31Z</time></trkpt><trkpt lat="45.9357470391153" lon="11.701539503796592"><ele>904.0</ele><time>2026-04-12T09:05:32Z</time></trkpt><trkpt lat="45.935845483564805" lon="11.701356684588891"><ele>904.0</ele><time>2026-04-12T09:05:33Z</time></trkpt><trkpt lat="45.93594086957032" lon="11.701130681491987"><ele>890.0</ele><time>2026-04-12T09:05:34Z</time></trkpt><trkpt lat="45.936007267132396" lon="11.700826894333945"><ele>876.0</ele><time>2026-04-12T09:05:35Z</time></trkpt><trkpt lat="45.93607828161586" lon="11.700476268959209"><ele>878.5</ele><time>2026-04-12T09:05:36Z</time></trkpt><trkpt lat="45.9361527875692" lon="11.700099476186836"><ele>881.0</ele><time>2026-04-12T09:05:37Z</time></trkpt><trkpt lat="45.936232837532856" lon="11.69969542085633"><ele>884.0</ele><time>2026-04-12T09:05:38Z</time></trkpt><trkpt lat="45.936306547500266" lon="11.699323008870971"><ele>887.0</ele><time>2026-04-12T09:05:39Z</time></trkpt><trkpt lat="45.93637684666676" lon="11.69896573341372"><ele>887.0</ele><time>2026-04-12T09:05:40Z</time></trkpt><trkpt lat="45.936449106775214" lon="11.698586219789794"><ele>887.0</ele><time>2026-04-12T09:05:41Z</time></trkpt><trkpt lat="45.936511707913226" lon="11.698215579444245"><ele>888.5</ele><time>2026-04-12T09:05:42Z</time></trkpt><trkpt lat="45.93655765471121" lon="11.697837436573435"><ele>890.0</ele><time>2026-04-12T09:05:43Z</time></trkpt><trkpt lat="45.93659197789623" lon="11.697459598186343"><ele>891.3333333333334</ele><time>2026-04-12T09:05:44Z</time></trkpt><trkpt lat="45.93660391115577" lon="11.697123679515014"><ele>892.6666666666667</ele><time>2026-04-12T09:05:45Z</time></trkpt><trkpt lat="45.936644114237794" lon="11.69682315081562"><ele>894.0</ele><time>2026-04-12T09:05:45.999Z</time></trkpt><trkpt lat="45.93666576352036" lon="11.696558869706106"><ele>894.75</ele><time>2026-04-12T09:05:46.999Z</time></trkpt><trkpt lat="45.93668434701088" lon="11.69632766553512"><ele>895.5</ele><time>2026-04-12T09:05:47.999Z</time></trkpt><trkpt lat="45.936700396394855" lon="11.696142648194085"><ele>896.25</ele><time>2026-04-12T09:05:48.999Z</time></trkpt><trkpt lat="45.93672552504564" lon="11.696010209510012"><ele>897.0</ele><time>2026-04-12T09:05:49.999Z</time></trkpt><trkpt lat="45.93675952047908" lon="11.69591252784868"><ele>899.25</ele><time>2026-04-12T09:05:50.999Z</time></trkpt><trkpt lat="45.93682846178471" lon="11.695849582880513"><ele>901.5</ele><time>2026-04-12T09:05:51.999Z</time></trkpt><trkpt lat="45.936936786885845" lon="11.69586967869188"><ele>903.75</ele><time>2026-04-12T09:05:52.999Z</time></trkpt><trkpt lat="45.93704959977334" lon="11.69596993148195"><ele>906.0</ele><time>2026-04-12T09:05:53.999Z</time></trkpt><trkpt lat="45.93715870224054" lon="11.69612591262231"><ele>900.0</ele><time>2026-04-12T09:05:54.999Z</time></trkpt><trkpt lat="45.9372669362489" lon="11.696326463489198"><ele>894.0</ele><time>2026-04-12T09:05:55.999Z</time></trkpt><trkpt lat="45.937364834605205" lon="11.696596507387763"><ele>888.0</ele><time>2026-04-12T09:05:56.999Z</time></trkpt><trkpt lat="45.93745115113702" lon="11.696943157671447"><ele>883.5</ele><time>2026-04-12T09:05:57.999Z</time></trkpt><trkpt lat="45.937527619761326" lon="11.697353682648776"><ele>879.0</ele><time>2026-04-12T09:05:58.999Z</time></trkpt><trkpt lat="45.93760757706198" lon="11.697781202360675"><ele>890.5</ele><time>2026-04-12T09:05:59.999Z</time></trkpt><trkpt lat="45.93769507645424" lon="11.698187453404683"><ele>902.0</ele><time>2026-04-12T09:06:00.999Z</time></trkpt><trkpt lat="45.93776573634573" lon="11.698556763056478"><ele>894.0</ele><time>2026-04-12T09:06:01.999Z</time></trkpt><trkpt lat="45.937832170678135" lon="11.69890853680018"><ele>886.0</ele><time>2026-04-12T09:06:02.999Z</time></trkpt><trkpt lat="45.93788698504192" lon="11.699202214918328"><ele>881.75</ele><time>2026-04-12T09:06:03.999Z</time></trkpt><trkpt lat="45.937892277472955" lon="11.69942391031092"><ele>877.5</ele><time>2026-04-12T09:06:04.999Z</time></trkpt><trkpt lat="45.93787350584659" lon="11.699624547766959"><ele>873.25</ele><time>2026-04-12T09:06:05.999Z</time></trkpt><trkpt lat="45.93787667494485" lon="11.699845568838734"><ele>869.0</ele><time>2026-04-12T09:06:06.999Z</time></trkpt><trkpt lat="45.93792679499853" lon="11.700079471955661"><ele>864.0</ele><time>2026-04-12T09:06:07.999Z</time></trkpt><trkpt lat="45.93802003237165" lon="11.700359327742872"><ele>859.0</ele><time>2026-04-12T09:06:08.999Z</time></trkpt><trkpt lat="45.93809654702022" lon="11.7006743076471"><ele>854.0</ele><time>2026-04-12T09:06:09.999Z</time></trkpt><trkpt lat="45.938183880245255" lon="11.70098444363791"><ele>849.3333333333334</ele><time>2026-04-12T09:06:10.999Z</time></trkpt><trkpt lat="45.938215097689564" lon="11.701290352088515"><ele>844.6666666666667</ele><time>2026-04-12T09:06:11.999Z</time></trkpt><trkpt lat="45.93825972875754" lon="11.701539558132128"><ele>840.0</ele><time>2026-04-12T09:06:12.999Z</time></trkpt><trkpt lat="45.93829962007027" lon="11.70178534864378"><ele>843.0</ele><time>2026-04-12T09:06:13.999Z</time></trkpt><trkpt lat="45.93837294855018" lon="11.702031822162919"><ele>846.0</ele><time>2026-04-12T09:06:14.999Z</time></trkpt><trkpt lat="45.938457618244605" lon="11.702244622187397"><ele>849.0</ele><time>2026-04-12T09:06:15.999Z</time></trkpt><trkpt lat="45.9385394345541" lon="11.702438213106237"><ele>849.0</ele><time>2026-04-12T09:06:16.999Z</time></trkpt><trkpt lat="45.93859323519307" lon="11.702644590044258"><ele>849.0</ele><time>2026-04-12T09:06:17.999Z</time></trkpt><trkpt lat="45.938643107305396" lon="11.702869826423223"><ele>849.0</ele><time>2026-04-12T09:06:18.999Z</time></trkpt><trkpt lat="45.938649495985175" lon="11.703134102752022"><ele>845.6666666666667</ele><time>2026-04-12T09:06:19.999Z</time></trkpt><trkpt lat="45.93865032459985" lon="11.703389952725148"><ele>842.3333333333334</ele><time>2026-04-12T09:06:20.999Z</time></trkpt><trkpt lat="45.93867790846638" lon="11.703637746730886"><ele>839.0</ele><time>2026-04-12T09:06:21.999Z</time></trkpt><trkpt lat="45.93873629208304" lon="11.703895517444618"><ele>835.6666666666667</ele><time>2026-04-12T09:06:22.999Z</time></trkpt><trkpt lat="45.938811609503155" lon="11.704124958104018"><ele>832.3333333333333</ele><time>2026-04-12T09:06:23.999Z</time></trkpt><trkpt lat="45.93886002540115" lon="11.704357339738772"><ele>829.0</ele><time>2026-04-12T09:06:24.999Z</time></trkpt><trkpt lat="45.938907212810484" lon="11.70460065510909"><ele>825.6666666666666</ele><time>2026-04-12T09:06:25.999Z</time></trkpt><trkpt lat="45.93892182728482" lon="11.704839396106353"><ele>822.3333333333333</ele><time>2026-04-12T09:06:26.999Z</time></trkpt><trkpt lat="45.938937009224134" lon="11.705062846396183"><ele>819.0</ele><time>2026-04-12T09:06:27.999Z</time></trkpt><trkpt lat="45.93895842044055" lon="11.705267539493764"><ele>818.0</ele><time>2026-04-12T09:06:28.999Z</time></trkpt><trkpt lat="45.93899874829184" lon="11.70542536665295"><ele>817.0</ele><time>2026-04-12T09:06:29.999Z</time></trkpt><trkpt lat="45.93906630622955" lon="11.705561499026976"><ele>816.0</ele><time>2026-04-12T09:06:30.999Z</time></trkpt><trkpt lat="45.93916467655106" lon="11.705671592609974"><ele>815.0</ele><time>2026-04-12T09:06:31.999Z</time></trkpt><trkpt lat="45.93929364483221" lon="11.70575201428378"><ele>815.0</ele><time>2026-04-12T09:06:32.999Z</time></trkpt><trkpt lat="45.93942779690311" lon="11.705828830968178"><ele>815.0</ele><time>2026-04-12T09:06:33.999Z</time></trkpt><trkpt lat="45.93954839612907" lon="11.705909986083787"><ele>815.0</ele><time>2026-04-12T09:06:34.999Z</time></trkpt><trkpt lat="45.93966489603464" lon="11.705985721379442"><ele>815.0</ele><time>2026-04-12T09:06:35.999Z</time></trkpt><trkpt lat="45.93977809531289" lon="11.70603609065142"><ele>815.0</ele><time>2026-04-12T09:06:36.999Z</time></trkpt><trkpt lat="45.939893175412394" lon="11.706062383501289"><ele>815.0</ele><time>2026-04-12T09:06:37.999Z</time></trkpt><trkpt lat="45.940006629183195" lon="11.706054060452367"><ele>815.0</ele><time>2026-04-12T09:06:38.999Z</time></trkpt><trkpt lat="45.940114841827814" lon="11.706018297848317"><ele>815.0</ele><time>2026-04-12T09:06:39.999Z</time></trkpt><trkpt lat="45.94021657741444" lon="11.705974104756354"><ele>815.0</ele><time>2026-04-12T09:06:40.998Z</time></trkpt><trkpt lat="45.94030352172015" lon="11.705934430293468"><ele>811.8333333333334</ele><time>2026-04-12T09:06:41.998Z</time></trkpt><trkpt lat="45.94038026064864" lon="11.705895386119545"><ele>808.6666666666667</ele><time>2026-04-12T09:06:42.998Z</time></trkpt><trkpt lat="45.940454943329094" lon="11.705856548976682"><ele>805.5</ele><time>2026-04-12T09:06:43.998Z</time></trkpt><trkpt lat="45.940527172021746" lon="11.705813928304904"><ele>802.3333333333333</ele><time>2026-04-12T09:06:44.998Z</time></trkpt><trkpt lat="45.94060526969522" lon="11.705753956347525"><ele>799.1666666666666</ele><time>2026-04-12T09:06:45.998Z</time></trkpt><trkpt lat="45.94067750608911" lon="11.705684678306822"><ele>796.0</ele><time>2026-04-12T09:06:46.998Z</time></trkpt><trkpt lat="45.94074430362942" lon="11.705598445227132"><ele>795.9999999999999</ele><time>2026-04-12T09:06:47.998Z</time></trkpt><trkpt lat="45.940804248028876" lon="11.70549725862048"><ele>796.0</ele><time>2026-04-12T09:06:48.998Z</time></trkpt><trkpt lat="45.940855120463006" lon="11.705391032447876"><ele>796.0</ele><time>2026-04-12T09:06:49.998Z</time></trkpt><trkpt lat="45.94089601198027" lon="11.705281334926447"><ele>796.0</ele><time>2026-04-12T09:06:50.998Z</time></trkpt><trkpt lat="45.94092882737737" lon="11.705168422122382"><ele>795.9999999999999</ele><time>2026-04-12T09:06:51.998Z</time></trkpt><trkpt lat="45.940957954002315" lon="11.705059533351811"><ele>796.0</ele><time>2026-04-12T09:06:52.998Z</time></trkpt><trkpt lat="45.94100583010439" lon="11.704978743229002"><ele>791.4999999999999</ele><time>2026-04-12T09:06:53.998Z</time></trkpt><trkpt lat="45.94104888003756" lon="11.704886023392284"><ele>787.0</ele><time>2026-04-12T09:06:54.998Z</time></trkpt><trkpt lat="45.94109921019664" lon="11.704799939515492"><ele>782.5</ele><time>2026-04-12T09:06:55.998Z</time></trkpt><trkpt lat="45.941148682573925" lon="11.704696157270416"><ele>778.0</ele><time>2026-04-12T09:06:56.998Z</time></trkpt><trkpt lat="45.941216503065206" lon="11.704610850197044"><ele>773.4999999999999</ele><time>2026-04-12T09:06:57.998Z</time></trkpt><trkpt lat="45.94127644212873" lon="11.704526407089778"><ele>769.0</ele><time>2026-04-12T09:06:58.998Z</time></trkpt><trkpt lat="45.94133676193799" lon="11.704446694423824"><ele>771.1428571428571</ele><time>2026-04-12T09:06:59.998Z</time></trkpt><trkpt lat="45.94138354481595" lon="11.704359310607618"><ele>773.2857142857143</ele><time>2026-04-12T09:07:00.998Z</time></trkpt><trkpt lat="45.941424607613854" lon="11.704265442360153"><ele>775.4285714285714</ele><time>2026-04-12T09:07:01.998Z</time></trkpt><trkpt lat="45.941457813930434" lon="11.704164322720011"><ele>777.5714285714286</ele><time>2026-04-12T09:07:02.998Z</time></trkpt><trkpt lat="45.94149645463524" lon="11.704076653781039"><ele>779.7142857142858</ele><time>2026-04-12T09:07:03.998Z</time></trkpt><trkpt lat="45.94150290797889" lon="11.703968394039412"><ele>781.8571428571429</ele><time>2026-04-12T09:07:04.998Z</time></trkpt><trkpt lat="45.94151799420327" lon="11.703879701983297"><ele>784.0</ele><time>2026-04-12T09:07:05.998Z</time></trkpt><trkpt lat="45.9415581360507" lon="11.703749622233056"><ele>784.0</ele><time>2026-04-12T09:07:07.998Z</time></trkpt><trkpt lat="45.9416253143011" lon="11.703667282275408"><ele>784.0</ele><time>2026-04-12T09:07:10.998Z</time></trkpt><trkpt lat="45.94164405120073" lon="11.7038258807321"><ele>784.0</ele><time>2026-04-12T09:07:13Z</time></trkpt><trkpt lat="45.9415948440225" lon="11.703962239437113"><ele>784.0</ele><time>2026-04-12T09:07:15Z</time></trkpt><trkpt lat="45.94156459814532" lon="11.704081550796916"><ele>784.0</ele><time>2026-04-12T09:07:17Z</time></trkpt><trkpt lat="45.94153466785044" lon="11.704221583544381"><ele>784.0</ele><time>2026-04-12T09:07:19Z</time></trkpt><trkpt lat="45.941499009057324" lon="11.704352804738827"><ele>784.0</ele><time>2026-04-12T09:07:21Z</time></trkpt><trkpt lat="45.94146041842881" lon="11.704500988463044"><ele>784.0</ele><time>2026-04-12T09:07:23Z</time></trkpt><trkpt lat="45.941419167479985" lon="11.704624340858198"><ele>784.0</ele><time>2026-04-12T09:07:25Z</time></trkpt><trkpt lat="45.94138646141953" lon="11.704733377086914"><ele>784.0</ele><time>2026-04-12T09:07:27Z</time></trkpt><trkpt lat="45.94136358131426" lon="11.704847608343607"><ele>781.0</ele><time>2026-04-12T09:07:29Z</time></trkpt><trkpt lat="45.94134970440665" lon="11.704979374880926"><ele>778.0</ele><time>2026-04-12T09:07:31Z</time></trkpt><trkpt lat="45.94134509882146" lon="11.705132518182234"><ele>775.0</ele><time>2026-04-12T09:07:33Z</time></trkpt><trkpt lat="45.94133760678195" lon="11.705292257684103"><ele>772.0</ele><time>2026-04-12T09:07:35Z</time></trkpt><trkpt lat="45.94132578037655" lon="11.705456404211752"><ele>769.0</ele><time>2026-04-12T09:07:37Z</time></trkpt><trkpt lat="45.94130269138719" lon="11.705625951519881"><ele>767.6666666666666</ele><time>2026-04-12T09:07:39Z</time></trkpt><trkpt lat="45.94125891847897" lon="11.705797202449528"><ele>766.3333333333333</ele><time>2026-04-12T09:07:41Z</time></trkpt><trkpt lat="45.94122850544424" lon="11.705887000255936"><ele>765.0</ele><time>2026-04-12T09:07:42Z</time></trkpt><trkpt lat="45.94119813270486" lon="11.705981482149747"><ele>763.6666666666666</ele><time>2026-04-12T09:07:43Z</time></trkpt><trkpt lat="45.9411664245544" lon="11.706073750186174"><ele>762.3333333333333</ele><time>2026-04-12T09:07:44Z</time></trkpt><trkpt lat="45.94113369089479" lon="11.706176396176486"><ele>761.0</ele><time>2026-04-12T09:07:45Z</time></trkpt><trkpt lat="45.94110776556097" lon="11.706279235306482"><ele>760.4285714285713</ele><time>2026-04-12T09:07:46Z</time></trkpt><trkpt lat="45.941093682488585" lon="11.706386408013987"><ele>759.8571428571429</ele><time>2026-04-12T09:07:47Z</time></trkpt><trkpt lat="45.94107918187068" lon="11.706493196629943"><ele>759.2857142857142</ele><time>2026-04-12T09:07:48Z</time></trkpt><trkpt lat="45.941066646174384" lon="11.706595700749295"><ele>758.7142857142857</ele><time>2026-04-12T09:07:49Z</time></trkpt><trkpt lat="45.94106043694223" lon="11.706700646749766"><ele>758.1428571428571</ele><time>2026-04-12T09:07:50Z</time></trkpt><trkpt lat="45.94104717019368" lon="11.70679174632512"><ele>757.5714285714286</ele><time>2026-04-12T09:07:51Z</time></trkpt><trkpt lat="45.941031494276665" lon="11.706886680372982"><ele>757.0</ele><time>2026-04-12T09:07:51.999Z</time></trkpt><trkpt lat="45.9410148427262" lon="11.706986894639352"><ele>756.8333333333334</ele><time>2026-04-12T09:07:52.999Z</time></trkpt><trkpt lat="45.941000509396254" lon="11.707090202121874"><ele>756.6666666666667</ele><time>2026-04-12T09:07:53.999Z</time></trkpt><trkpt lat="45.940982023343324" lon="11.707193430176734"><ele>756.5</ele><time>2026-04-12T09:07:54.999Z</time></trkpt><trkpt lat="45.94096452657538" lon="11.707301581742893"><ele>756.3333333333334</ele><time>2026-04-12T09:07:55.999Z</time></trkpt><trkpt lat="45.94095032695785" lon="11.707413088080926"><ele>756.1666666666666</ele><time>2026-04-12T09:07:56.999Z</time></trkpt><trkpt lat="45.94093431239331" lon="11.70752317909343"><ele>756.0</ele><time>2026-04-12T09:07:57.999Z</time></trkpt><trkpt lat="45.94090720620086" lon="11.707634084340015"><ele>756.0</ele><time>2026-04-12T09:07:58.999Z</time></trkpt><trkpt lat="45.94089484915341" lon="11.707729888328476"><ele>756.0</ele><time>2026-04-12T09:07:59.999Z</time></trkpt><trkpt lat="45.940880488965355" lon="11.707842197569851"><ele>756.0</ele><time>2026-04-12T09:08:00.999Z</time></trkpt><trkpt lat="45.94086601762674" lon="11.707949834817335"><ele>756.0</ele><time>2026-04-12T09:08:01.999Z</time></trkpt><trkpt lat="45.94085034823044" lon="11.708052293499962"><ele>756.0</ele><time>2026-04-12T09:08:02.999Z</time></trkpt><trkpt lat="45.940835696417146" lon="11.708149363126779"><ele>756.0</ele><time>2026-04-12T09:08:03.999Z</time></trkpt><trkpt lat="45.9408115617786" lon="11.708254912859982"><ele>756.0</ele><time>2026-04-12T09:08:04.999Z</time></trkpt><trkpt lat="45.94077336935509" lon="11.708361340097781"><ele>756.8</ele><time>2026-04-12T09:08:05.999Z</time></trkpt><trkpt lat="45.94070149606007" lon="11.708434306933087"><ele>757.5999999999999</ele><time>2026-04-12T09:08:06.999Z</time></trkpt><trkpt lat="45.94063508210827" lon="11.708511452598179"><ele>758.4</ele><time>2026-04-12T09:08:07.999Z</time></trkpt><trkpt lat="45.94056233663949" lon="11.708596275514994"><ele>759.2</ele><time>2026-04-12T09:08:08.999Z</time></trkpt><trkpt lat="45.94048984043874" lon="11.708693332023838"><ele>760.0</ele><time>2026-04-12T09:08:09.999Z</time></trkpt><trkpt lat="45.94042851925307" lon="11.708807059703984"><ele>760.0</ele><time>2026-04-12T09:08:10.999Z</time></trkpt><trkpt lat="45.94035762435232" lon="11.70888746755504"><ele>760.0</ele><time>2026-04-12T09:08:11.999Z</time></trkpt><trkpt lat="45.94029277664645" lon="11.708968846885679"><ele>760.0</ele><time>2026-04-12T09:08:12.999Z</time></trkpt><trkpt lat="45.94023073387727" lon="11.709048554033538"><ele>760.0</ele><time>2026-04-12T09:08:13.999Z</time></trkpt><trkpt lat="45.94017582687808" lon="11.709130873687455"><ele>760.0</ele><time>2026-04-12T09:08:14.999Z</time></trkpt><trkpt lat="45.94012157195982" lon="11.709205846523489"><ele>760.0</ele><time>2026-04-12T09:08:15.999Z</time></trkpt><trkpt lat="45.94007250123306" lon="11.709274824789464"><ele>760.7142857142858</ele><time>2026-04-12T09:08:16.999Z</time></trkpt><trkpt lat="45.94002692179552" lon="11.70933911141727"><ele>761.4285714285714</ele><time>2026-04-12T09:08:17.999Z</time></trkpt><trkpt lat="45.939948591538005" lon="11.70943328867748"><ele>762.1428571428571</ele><time>2026-04-12T09:08:19.999Z</time></trkpt><trkpt lat="45.939892480962705" lon="11.709487617307161"><ele>762.8571428571429</ele><time>2026-04-12T09:08:22.999Z</time></trkpt><trkpt lat="45.9398875419193" lon="11.709589474375873"><ele>763.5714285714286</ele><time>2026-04-12T09:09:30Z</time></trkpt><trkpt lat="45.939875043937725" lon="11.70968318474936"><ele>764.2857142857143</ele><time>2026-04-12T09:09:32Z</time></trkpt><trkpt lat="45.93992107989853" lon="11.70976571078871"><ele>765.0</ele><time>2026-04-12T09:09:35Z</time></trkpt><trkpt lat="45.94003520092169" lon="11.709763988463678"><ele>763.6</ele><time>2026-04-12T09:09:37Z</time></trkpt><trkpt lat="45.9401440849271" lon="11.70972619474187"><ele>762.2</ele><time>2026-04-12T09:09:39Z</time></trkpt><trkpt lat="45.94026293251398" lon="11.709670258274581"><ele>760.8</ele><time>2026-04-12T09:09:41Z</time></trkpt><trkpt lat="45.94032295211359" lon="11.709639737072294"><ele>759.4</ele><time>2026-04-12T09:09:42Z</time></trkpt><trkpt lat="45.94042721406575" lon="11.709567810471857"><ele>758.0</ele><time>2026-04-12T09:09:44Z</time></trkpt><trkpt lat="45.940538150559426" lon="11.709469516408353"><ele>758.0</ele><time>2026-04-12T09:09:46Z</time></trkpt><trkpt lat="45.94060007926792" lon="11.709427043662544"><ele>758.0</ele><time>2026-04-12T09:09:47Z</time></trkpt><trkpt lat="45.94066420653526" lon="11.709377937522813"><ele>758.0</ele><time>2026-04-12T09:09:48Z</time></trkpt><trkpt lat="45.9407310481034" lon="11.709321915819242"><ele>758.0</ele><time>2026-04-12T09:09:49Z</time></trkpt><trkpt lat="45.94079972575009" lon="11.709269270312769"><ele>758.0</ele><time>2026-04-12T09:09:50Z</time></trkpt><trkpt lat="45.940897163118336" lon="11.709181240122412"><ele>758.0</ele><time>2026-04-12T09:09:52Z</time></trkpt><trkpt lat="45.940966541109454" lon="11.70918534685653"><ele>757.1666666666666</ele><time>2026-04-12T09:09:54Z</time></trkpt><trkpt lat="45.941035337660324" lon="11.709292280236642"><ele>756.3333333333333</ele><time>2026-04-12T09:09:56Z</time></trkpt><trkpt lat="45.94104952365737" lon="11.709387307978544"><ele>755.5</ele><time>2026-04-12T09:09:57Z</time></trkpt><trkpt lat="45.94106420607146" lon="11.709495227595916"><ele>754.6666666666666</ele><time>2026-04-12T09:09:57.999Z</time></trkpt><trkpt lat="45.94109314673379" lon="11.709617196814895"><ele>753.8333333333334</ele><time>2026-04-12T09:09:58.999Z</time></trkpt><trkpt lat="45.94111662764513" lon="11.709720507950909"><ele>753.0</ele><time>2026-04-12T09:09:59.999Z</time></trkpt><trkpt lat="45.941172196474554" lon="11.70983595800478"><ele>753.0</ele><time>2026-04-12T09:10:00.999Z</time></trkpt><trkpt lat="45.94125448752546" lon="11.709922175842271"><ele>753.0</ele><time>2026-04-12T09:10:01.999Z</time></trkpt><trkpt lat="45.94132371091786" lon="11.710014841966391"><ele>753.0</ele><time>2026-04-12T09:10:02.999Z</time></trkpt><trkpt lat="45.94140132689155" lon="11.710117857774888"><ele>753.0</ele><time>2026-04-12T09:10:03.999Z</time></trkpt><trkpt lat="45.9414814936708" lon="11.710202749217382"><ele>753.0</ele><time>2026-04-12T09:10:04.999Z</time></trkpt><trkpt lat="45.941563227282586" lon="11.710266768923717"><ele>748.5999999999999</ele><time>2026-04-12T09:10:05.999Z</time></trkpt><trkpt lat="45.94165078984999" lon="11.710292316900793"><ele>744.1999999999999</ele><time>2026-04-12T09:10:06.999Z</time></trkpt><trkpt lat="45.941736513648564" lon="11.710261224866212"><ele>739.8</ele><time>2026-04-12T09:10:07.999Z</time></trkpt><trkpt lat="45.941819601505266" lon="11.710166265687707"><ele>735.4</ele><time>2026-04-12T09:10:08.999Z</time></trkpt><trkpt lat="45.941900744083455" lon="11.710040928213573"><ele>731.0</ele><time>2026-04-12T09:10:09.999Z</time></trkpt><trkpt lat="45.94198225875991" lon="11.70990303567047"><ele>730.75</ele><time>2026-04-12T09:10:10.999Z</time></trkpt><trkpt lat="45.94206119808943" lon="11.709774045730333"><ele>730.5</ele><time>2026-04-12T09:10:11.999Z</time></trkpt><trkpt lat="45.942143906061546" lon="11.709649034833628"><ele>730.25</ele><time>2026-04-12T09:10:12.999Z</time></trkpt><trkpt lat="45.942238081866535" lon="11.70955828488471"><ele>730.0</ele><time>2026-04-12T09:10:13.999Z</time></trkpt><trkpt lat="45.94232498056443" lon="11.709476397769988"><ele>730.0</ele><time>2026-04-12T09:10:14.999Z</time></trkpt><trkpt lat="45.942436799954926" lon="11.70941642000087"><ele>730.0</ele><time>2026-04-12T09:10:15.999Z</time></trkpt><trkpt lat="45.94254977794279" lon="11.709379489601515"><ele>730.0</ele><time>2026-04-12T09:10:16.999Z</time></trkpt><trkpt lat="45.942662710573" lon="11.70932554093645"><ele>730.0</ele><time>2026-04-12T09:10:17.999Z</time></trkpt><trkpt lat="45.94278899908964" lon="11.70929447872433"><ele>727.0</ele><time>2026-04-12T09:10:18.999Z</time></trkpt><trkpt lat="45.94292484976532" lon="11.709278614633305"><ele>724.0</ele><time>2026-04-12T09:10:19.999Z</time></trkpt><trkpt lat="45.943061688724114" lon="11.709327453850246"><ele>721.0</ele><time>2026-04-12T09:10:20.999Z</time></trkpt><trkpt lat="45.94320025057308" lon="11.709359200308683"><ele>718.0</ele><time>2026-04-12T09:10:21.999Z</time></trkpt><trkpt lat="45.94332799589678" lon="11.709415451851006"><ele>719.75</ele><time>2026-04-12T09:10:22.999Z</time></trkpt><trkpt lat="45.943457269898936" lon="11.70942877065024"><ele>721.5</ele><time>2026-04-12T09:10:23.999Z</time></trkpt><trkpt lat="45.9435995137973" lon="11.709397442162482"><ele>723.25</ele><time>2026-04-12T09:10:24.999Z</time></trkpt><trkpt lat="45.9437353551173" lon="11.709303973635254"><ele>725.0</ele><time>2026-04-12T09:10:25.999Z</time></trkpt><trkpt lat="45.943876285821545" lon="11.709153271819165"><ele>725.0</ele><time>2026-04-12T09:10:26.999Z</time></trkpt><trkpt lat="45.94399937194676" lon="11.708969312208207"><ele>725.0</ele><time>2026-04-12T09:10:27.999Z</time></trkpt><trkpt lat="45.944098174833194" lon="11.70880729554786"><ele>725.0</ele><time>2026-04-12T09:10:28.999Z</time></trkpt><trkpt lat="45.94421844768323" lon="11.70871383135898"><ele>721.3333333333333</ele><time>2026-04-12T09:10:29.999Z</time></trkpt><trkpt lat="45.94435114231304" lon="11.708651912974194"><ele>717.6666666666666</ele><time>2026-04-12T09:10:30.999Z</time></trkpt><trkpt lat="45.94450850460669" lon="11.708609146936425"><ele>714.0</ele><time>2026-04-12T09:10:31.999Z</time></trkpt><trkpt lat="45.94467481462543" lon="11.708616394272465"><ele>714.0</ele><time>2026-04-12T09:10:32.999Z</time></trkpt><trkpt lat="45.94483452698364" lon="11.708603524812817"><ele>714.0</ele><time>2026-04-12T09:10:33.999Z</time></trkpt><trkpt lat="45.94499509372046" lon="11.708587459572524"><ele>714.0</ele><time>2026-04-12T09:10:34.999Z</time></trkpt><trkpt lat="45.94516159416418" lon="11.708561439194188"><ele>720.3333333333334</ele><time>2026-04-12T09:10:35.999Z</time></trkpt><trkpt lat="45.945324380674684" lon="11.708564125714343"><ele>726.6666666666667</ele><time>2026-04-12T09:10:36.999Z</time></trkpt><trkpt lat="45.94547354014387" lon="11.708562868858653"><ele>733.0</ele><time>2026-04-12T09:10:37.999Z</time></trkpt><trkpt lat="45.945633003549" lon="11.708524936253168"><ele>733.0</ele><time>2026-04-12T09:10:38.999Z</time></trkpt><trkpt lat="45.94579691348886" lon="11.708456422860525"><ele>733.0</ele><time>2026-04-12T09:10:39.999Z</time></trkpt><trkpt lat="45.94596418512751" lon="11.708377986311703"><ele>733.0</ele><time>2026-04-12T09:10:40.999Z</time></trkpt><trkpt lat="45.946142216701865" lon="11.708360400388313"><ele>729.6666666666667</ele><time>2026-04-12T09:10:41.999Z</time></trkpt><trkpt lat="45.946325762361965" lon="11.708375685789594"><ele>726.3333333333334</ele><time>2026-04-12T09:10:42.999Z</time></trkpt><trkpt lat="45.94650013342028" lon="11.708333658853594"><ele>723.0</ele><time>2026-04-12T09:10:43.999Z</time></trkpt><trkpt lat="45.94667108043618" lon="11.708268946618032"><ele>717.6666666666666</ele><time>2026-04-12T09:10:44.999Z</time></trkpt><trkpt lat="45.946839465199226" lon="11.708203439538174"><ele>712.3333333333333</ele><time>2026-04-12T09:10:45.999Z</time></trkpt><trkpt lat="45.94701085133406" lon="11.708129831289416"><ele>707.0</ele><time>2026-04-12T09:10:46.999Z</time></trkpt><trkpt lat="45.94718283796572" lon="11.70802351639542"><ele>707.0</ele><time>2026-04-12T09:10:47.999Z</time></trkpt><trkpt lat="45.94735440064226" lon="11.707890862076724"><ele>707.0</ele><time>2026-04-12T09:10:48.999Z</time></trkpt><trkpt lat="45.94752853555541" lon="11.707763592213054"><ele>707.0</ele><time>2026-04-12T09:10:49.999Z</time></trkpt><trkpt lat="45.94770048062897" lon="11.707643986142628"><ele>709.3333333333333</ele><time>2026-04-12T09:10:50.999Z</time></trkpt><trkpt lat="45.947871325021886" lon="11.707537775201542"><ele>711.6666666666666</ele><time>2026-04-12T09:10:51.999Z</time></trkpt><trkpt lat="45.94804743284465" lon="11.707450052413444"><ele>714.0</ele><time>2026-04-12T09:10:52.999Z</time></trkpt><trkpt lat="45.94822443163063" lon="11.707383657457163"><ele>709.6666666666666</ele><time>2026-04-12T09:10:53.999Z</time></trkpt><trkpt lat="45.948408856643695" lon="11.707342079542949"><ele>705.3333333333333</ele><time>2026-04-12T09:10:54.998Z</time></trkpt><trkpt lat="45.948587167528984" lon="11.707305418722358"><ele>701.0</ele><time>2026-04-12T09:10:55.998Z</time></trkpt><trkpt lat="45.94875015585999" lon="11.707271448018483"><ele>701.0</ele><time>2026-04-12T09:10:56.998Z</time></trkpt><trkpt lat="45.94890304004058" lon="11.707221223804034"><ele>701.0</ele><time>2026-04-12T09:10:57.998Z</time></trkpt><trkpt lat="45.94903762023419" lon="11.707140820997523"><ele>701.0</ele><time>2026-04-12T09:10:58.998Z</time></trkpt><trkpt lat="45.94914472715694" lon="11.707012171939759"><ele>701.0</ele><time>2026-04-12T09:10:59.998Z</time></trkpt><trkpt lat="45.94921547671106" lon="11.706865673547131"><ele>698.0</ele><time>2026-04-12T09:11:00.998Z</time></trkpt><trkpt lat="45.94926890680851" lon="11.706746969308886"><ele>695.0</ele><time>2026-04-12T09:11:01.998Z</time></trkpt><trkpt lat="45.94936027833563" lon="11.706685144705695"><ele>692.0</ele><time>2026-04-12T09:11:03.998Z</time></trkpt><trkpt lat="45.94937906996219" lon="11.706841295558352"><ele>689.0</ele><time>2026-04-12T09:11:05.998Z</time></trkpt><trkpt lat="45.949309908498215" lon="11.706966766302893"><ele>686.0</ele><time>2026-04-12T09:11:06.998Z</time></trkpt><trkpt lat="45.94925178620618" lon="11.707087532954299"><ele>689.75</ele><time>2026-04-12T09:11:07.998Z</time></trkpt><trkpt lat="45.94918989309882" lon="11.70723030617098"><ele>693.5</ele><time>2026-04-12T09:11:08.998Z</time></trkpt><trkpt lat="45.94910190879663" lon="11.70736830489319"><ele>697.25</ele><time>2026-04-12T09:11:09.998Z</time></trkpt><trkpt lat="45.94899299431992" lon="11.707488326992406"><ele>701.0</ele><time>2026-04-12T09:11:10.998Z</time></trkpt><trkpt lat="45.948856029369196" lon="11.707591181882776"><ele>701.0</ele><time>2026-04-12T09:11:11.998Z</time></trkpt><trkpt lat="45.94870375098241" lon="11.707674755050865"><ele>701.0</ele><time>2026-04-12T09:11:12.998Z</time></trkpt><trkpt lat="45.94854342820049" lon="11.707752733857681"><ele>701.0</ele><time>2026-04-12T09:11:13.998Z</time></trkpt><trkpt lat="45.94837668962036" lon="11.707825349881862"><ele>699.3333333333333</ele><time>2026-04-12T09:11:14.998Z</time></trkpt><trkpt lat="45.94821649581714" lon="11.707921574669063"><ele>697.6666666666666</ele><time>2026-04-12T09:11:15.998Z</time></trkpt><trkpt lat="45.94806512804948" lon="11.708068951489071"><ele>696.0</ele><time>2026-04-12T09:11:16.998Z</time></trkpt><trkpt lat="45.94791710513157" lon="11.708244919465763"><ele>696.0</ele><time>2026-04-12T09:11:17.998Z</time></trkpt><trkpt lat="45.94776767873965" lon="11.708411359373947"><ele>696.0</ele><time>2026-04-12T09:11:18.998Z</time></trkpt><trkpt lat="45.94761369260329" lon="11.70856002811708"><ele>696.0</ele><time>2026-04-12T09:11:19.998Z</time></trkpt><trkpt lat="45.94745480770185" lon="11.708709362578864"><ele>693.3333333333334</ele><time>2026-04-12T09:11:20.998Z</time></trkpt><trkpt lat="45.94728999675462" lon="11.708865050223109"><ele>690.6666666666667</ele><time>2026-04-12T09:11:21.998Z</time></trkpt><trkpt lat="45.94711511725986" lon="11.70900153092521"><ele>688.0</ele><time>2026-04-12T09:11:22.998Z</time></trkpt><trkpt lat="45.946955862095066" lon="11.70915045747371"><ele>688.0</ele><time>2026-04-12T09:11:24Z</time></trkpt><trkpt lat="45.94680942840356" lon="11.709312915355838"><ele>688.0</ele><time>2026-04-12T09:11:25Z</time></trkpt><trkpt lat="45.946648720771186" lon="11.709437289018227"><ele>688.0</ele><time>2026-04-12T09:11:26Z</time></trkpt><trkpt lat="45.946473414141195" lon="11.709514933513343"><ele>684.0</ele><time>2026-04-12T09:11:27Z</time></trkpt><trkpt lat="45.946300647477294" lon="11.709621357074232"><ele>680.0</ele><time>2026-04-12T09:11:28Z</time></trkpt><trkpt lat="45.94611994361671" lon="11.709698607783901"><ele>676.0</ele><time>2026-04-12T09:11:29Z</time></trkpt><trkpt lat="45.94593766261845" lon="11.709783373680047"><ele>678.3333333333334</ele><time>2026-04-12T09:11:30Z</time></trkpt><trkpt lat="45.94575199718876" lon="11.70987618938418"><ele>680.6666666666666</ele><time>2026-04-12T09:11:31Z</time></trkpt><trkpt lat="45.945557118987566" lon="11.709947617562143"><ele>683.0</ele><time>2026-04-12T09:11:32Z</time></trkpt><trkpt lat="45.945385269946534" lon="11.710056954089312"><ele>683.0</ele><time>2026-04-12T09:11:33Z</time></trkpt><trkpt lat="45.945224273833574" lon="11.710139713757039"><ele>683.0</ele><time>2026-04-12T09:11:34Z</time></trkpt><trkpt lat="45.94507540616496" lon="11.710206713097854"><ele>683.0</ele><time>2026-04-12T09:11:35Z</time></trkpt><trkpt lat="45.94494011488537" lon="11.710260300513118"><ele>680.5999999999999</ele><time>2026-04-12T09:11:36Z</time></trkpt><trkpt lat="45.94482375688962" lon="11.71030018898574"><ele>678.1999999999999</ele><time>2026-04-12T09:11:37Z</time></trkpt><trkpt lat="45.94473748737255" lon="11.710339412021565"><ele>675.8</ele><time>2026-04-12T09:11:38Z</time></trkpt><trkpt lat="45.944681107901" lon="11.710405524301537"><ele>673.4</ele><time>2026-04-12T09:11:39Z</time></trkpt><trkpt lat="45.944667371833745" lon="11.710495233729457"><ele>671.0</ele><time>2026-04-12T09:11:40Z</time></trkpt><trkpt lat="45.944778976491165" lon="11.710636186203358"><ele>671.0</ele><time>2026-04-12T09:11:42Z</time></trkpt><trkpt lat="45.94490019871931" lon="11.710591736446412"><ele>671.0</ele><time>2026-04-12T09:11:43Z</time></trkpt><trkpt lat="45.94502620034251" lon="11.710561202776468"><ele>671.0</ele><time>2026-04-12T09:11:44Z</time></trkpt><trkpt lat="45.945163560167764" lon="11.710527801311635"><ele>671.0</ele><time>2026-04-12T09:11:45Z</time></trkpt><trkpt lat="45.94531926204522" lon="11.710502364579542"><ele>669.3333333333333</ele><time>2026-04-12T09:11:46Z</time></trkpt><trkpt lat="45.945489185952106" lon="11.710482242843936"><ele>667.6666666666666</ele><time>2026-04-12T09:11:47Z</time></trkpt><trkpt lat="45.94566608805164" lon="11.71046550949242"><ele>666.0</ele><time>2026-04-12T09:11:48Z</time></trkpt><trkpt lat="45.94584304561286" lon="11.710448277226797"><ele>664.0</ele><time>2026-04-12T09:11:49Z</time></trkpt><trkpt lat="45.94601476396276" lon="11.710431807855024"><ele>662.0</ele><time>2026-04-12T09:11:50Z</time></trkpt><trkpt lat="45.946182102594165" lon="11.71041240553306"><ele>660.0</ele><time>2026-04-12T09:11:51Z</time></trkpt><trkpt lat="45.94634359366695" lon="11.710381738278619"><ele>660.0</ele><time>2026-04-12T09:11:52Z</time></trkpt><trkpt lat="45.94649547676472" lon="11.710338939062996"><ele>660.0</ele><time>2026-04-12T09:11:53Z</time></trkpt><trkpt lat="45.946632255774524" lon="11.710280442771316"><ele>660.0</ele><time>2026-04-12T09:11:54Z</time></trkpt><trkpt lat="45.94675164790456" lon="11.710211031880917"><ele>660.0</ele><time>2026-04-12T09:11:55Z</time></trkpt><trkpt lat="45.946842978970245" lon="11.710158690828088"><ele>660.0</ele><time>2026-04-12T09:11:56Z</time></trkpt><trkpt lat="45.946915230019286" lon="11.710137219417371"><ele>660.0</ele><time>2026-04-12T09:11:57Z</time></trkpt><trkpt lat="45.94697860897825" lon="11.710267617469844"><ele>660.0</ele><time>2026-04-12T09:11:59Z</time></trkpt><trkpt lat="45.94693753691695" lon="11.71034184768702"><ele>660.0</ele><time>2026-04-12T09:12:00Z</time></trkpt><trkpt lat="45.94682226138035" lon="11.710369810970624"><ele>660.0</ele><time>2026-04-12T09:12:01Z</time></trkpt><trkpt lat="45.946687842457635" lon="11.710460802040048"><ele>660.0</ele><time>2026-04-12T09:12:02Z</time></trkpt><trkpt lat="45.94654027471368" lon="11.710541891725613"><ele>660.0</ele><time>2026-04-12T09:12:03Z</time></trkpt><trkpt lat="45.946379588620864" lon="11.710610592918208"><ele>660.0</ele><time>2026-04-12T09:12:04Z</time></trkpt><trkpt lat="45.94624033389998" lon="11.710712149962044"><ele>660.0</ele><time>2026-04-12T09:12:05Z</time></trkpt><trkpt lat="45.94610975270991" lon="11.710795353063569"><ele>660.0</ele><time>2026-04-12T09:12:06Z</time></trkpt><trkpt lat="45.94600104407002" lon="11.710892291736267"><ele>660.0</ele><time>2026-04-12T09:12:06.999Z</time></trkpt><trkpt lat="45.94590436170268" lon="11.711003878363597"><ele>660.0</ele><time>2026-04-12T09:12:07.999Z</time></trkpt><trkpt lat="45.945830357623294" lon="11.711131729076126"><ele>659.5</ele><time>2026-04-12T09:12:08.999Z</time></trkpt><trkpt lat="45.945772182047236" lon="11.711275737598484"><ele>659.0</ele><time>2026-04-12T09:12:09.999Z</time></trkpt><trkpt lat="45.945725673787386" lon="11.711440485894896"><ele>658.5</ele><time>2026-04-12T09:12:10.999Z</time></trkpt><trkpt lat="45.945680069866995" lon="11.711610545371236"><ele>658.0</ele><time>2026-04-12T09:12:11.999Z</time></trkpt><trkpt lat="45.94562400179913" lon="11.711759658221595"><ele>658.0</ele><time>2026-04-12T09:12:12.999Z</time></trkpt><trkpt lat="45.945540324030745" lon="11.711887445490863"><ele>658.0</ele><time>2026-04-12T09:12:13.999Z</time></trkpt><trkpt lat="45.94542650893465" lon="11.712003765184587"><ele>658.0</ele><time>2026-04-12T09:12:14.999Z</time></trkpt><trkpt lat="45.9453017349876" lon="11.712103010072648"><ele>658.0</ele><time>2026-04-12T09:12:15.999Z</time></trkpt><trkpt lat="45.945173171310195" lon="11.7121954992742"><ele>655.25</ele><time>2026-04-12T09:12:16.999Z</time></trkpt><trkpt lat="45.94503953339871" lon="11.712270573152152"><ele>652.5</ele><time>2026-04-12T09:12:17.999Z</time></trkpt><trkpt lat="45.94489358475188" lon="11.712280998879463"><ele>649.75</ele><time>2026-04-12T09:12:18.999Z</time></trkpt><trkpt lat="45.9447497228567" lon="11.712310149444109"><ele>647.0</ele><time>2026-04-12T09:12:19.999Z</time></trkpt><trkpt lat="45.94461555276006" lon="11.712296194770884"><ele>647.0</ele><time>2026-04-12T09:12:20.999Z</time></trkpt><trkpt lat="45.944492435896684" lon="11.712253555002478"><ele>647.0</ele><time>2026-04-12T09:12:21.999Z</time></trkpt><trkpt lat="45.94438837932731" lon="11.712203536023205"><ele>647.0</ele><time>2026-04-12T09:12:22.999Z</time></trkpt><trkpt lat="45.944311039424655" lon="11.712172840642879"><ele>647.0</ele><time>2026-04-12T09:12:23.999Z</time></trkpt><trkpt lat="45.94424653855075" lon="11.71218710127369"><ele>647.0</ele><time>2026-04-12T09:12:24.999Z</time></trkpt><trkpt lat="45.944221548033525" lon="11.71241224791492"><ele>647.0</ele><time>2026-04-12T09:12:26.999Z</time></trkpt><trkpt lat="45.94428233643554" lon="11.71258035436326"><ele>647.0</ele><time>2026-04-12T09:12:27.999Z</time></trkpt><trkpt lat="45.94437879758821" lon="11.712740550103343"><ele>647.0</ele><time>2026-04-12T09:12:28.999Z</time></trkpt><trkpt lat="45.944483665095035" lon="11.712872300778667"><ele>647.0</ele><time>2026-04-12T09:12:29.999Z</time></trkpt><trkpt lat="45.94462742031652" lon="11.712917693755838"><ele>642.0</ele><time>2026-04-12T09:12:30.999Z</time></trkpt><trkpt lat="45.94474623427673" lon="11.712903363195856"><ele>637.0</ele><time>2026-04-12T09:12:31.999Z</time></trkpt><trkpt lat="45.944884938390345" lon="11.712891690024627"><ele>632.0</ele><time>2026-04-12T09:12:32.999Z</time></trkpt><trkpt lat="45.94503007717951" lon="11.712846189277743"><ele>627.0</ele><time>2026-04-12T09:12:33.999Z</time></trkpt><trkpt lat="45.94519215100192" lon="11.71276048008829"><ele>630.6666666666666</ele><time>2026-04-12T09:12:34.999Z</time></trkpt><trkpt lat="45.945364666010704" lon="11.712654580820796"><ele>634.3333333333333</ele><time>2026-04-12T09:12:35.999Z</time></trkpt><trkpt lat="45.945561994496614" lon="11.712581420384385"><ele>638.0</ele><time>2026-04-12T09:12:36.999Z</time></trkpt><trkpt lat="45.94576242403032" lon="11.712535814872853"><ele>633.3333333333333</ele><time>2026-04-12T09:12:37.999Z</time></trkpt><trkpt lat="45.94596292475368" lon="11.712506648817122"><ele>628.6666666666666</ele><time>2026-04-12T09:12:38.999Z</time></trkpt><trkpt lat="45.94615292093669" lon="11.712461545958126"><ele>624.0</ele><time>2026-04-12T09:12:39.999Z</time></trkpt><trkpt lat="45.9462914312194" lon="11.712313146321065"><ele>624.0</ele><time>2026-04-12T09:12:40.999Z</time></trkpt><trkpt lat="45.94633839452518" lon="11.71222530384321"><ele>624.0</ele><time>2026-04-12T09:12:41.999Z</time></trkpt><trkpt lat="45.94643520996129" lon="11.712087611304643"><ele>624.0</ele><time>2026-04-12T09:12:42.999Z</time></trkpt><trkpt lat="45.946507129528285" lon="11.711985130012895"><ele>624.0</ele><time>2026-04-12T09:12:43.999Z</time></trkpt><trkpt lat="45.946568679683914" lon="11.711936513561465"><ele>624.0</ele><time>2026-04-12T09:12:44.999Z</time></trkpt><trkpt lat="45.9466392632383" lon="11.71198358039565"><ele>624.0</ele><time>2026-04-12T09:12:46.999Z</time></trkpt><trkpt lat="45.946614606516405" lon="11.712082569556696"><ele>624.0</ele><time>2026-04-12T09:12:47.999Z</time></trkpt><trkpt lat="45.94651482585788" lon="11.712135916886998"><ele>624.0</ele><time>2026-04-12T09:12:48.999Z</time></trkpt><trkpt lat="45.94639310037562" lon="11.71225452279628"><ele>624.0</ele><time>2026-04-12T09:12:49.999Z</time></trkpt><trkpt lat="45.94628808013334" lon="11.712414049989002"><ele>624.0</ele><time>2026-04-12T09:12:50.999Z</time></trkpt><trkpt lat="45.94616330588009" lon="11.712558255068947"><ele>624.0</ele><time>2026-04-12T09:12:51.999Z</time></trkpt><trkpt lat="45.94601847552055" lon="11.712673882836608"><ele>624.0</ele><time>2026-04-12T09:12:52.999Z</time></trkpt><trkpt lat="45.94586828749815" lon="11.712748910965548"><ele>621.0</ele><time>2026-04-12T09:12:53.999Z</time></trkpt><trkpt lat="45.94571058895434" lon="11.71281473584703"><ele>618.0</ele><time>2026-04-12T09:12:54.999Z</time></trkpt><trkpt lat="45.94556434112243" lon="11.712894745689756"><ele>615.0</ele><time>2026-04-12T09:12:55.999Z</time></trkpt><trkpt lat="45.94541593597245" lon="11.712966225154931"><ele>615.0</ele><time>2026-04-12T09:12:56.999Z</time></trkpt><trkpt lat="45.945280221891196" lon="11.71308159593419"><ele>615.0</ele><time>2026-04-12T09:12:57.999Z</time></trkpt><trkpt lat="45.94515902137466" lon="11.71325241090478"><ele>615.0</ele><time>2026-04-12T09:12:58.999Z</time></trkpt><trkpt lat="45.94503638302775" lon="11.713436488890794"><ele>611.3333333333334</ele><time>2026-04-12T09:12:59.999Z</time></trkpt><trkpt lat="45.94488185496608" lon="11.713548527696545"><ele>607.6666666666667</ele><time>2026-04-12T09:13:00.999Z</time></trkpt><trkpt lat="45.94473731222801" lon="11.713660707162976"><ele>604.0</ele><time>2026-04-12T09:13:01.999Z</time></trkpt><trkpt lat="45.94460559939373" lon="11.713783242129157"><ele>604.0</ele><time>2026-04-12T09:13:02.999Z</time></trkpt><trkpt lat="45.94446938500306" lon="11.71386243597038"><ele>604.0</ele><time>2026-04-12T09:13:03.998Z</time></trkpt><trkpt lat="45.94434438818929" lon="11.713945291048555"><ele>604.0</ele><time>2026-04-12T09:13:04.998Z</time></trkpt><trkpt lat="45.94423082872901" lon="11.714020930746129"><ele>604.0</ele><time>2026-04-12T09:13:05.998Z</time></trkpt><trkpt lat="45.94413724109308" lon="11.71408824919879"><ele>604.0</ele><time>2026-04-12T09:13:06.998Z</time></trkpt><trkpt lat="45.94405247051346" lon="11.714151785950182"><ele>604.0</ele><time>2026-04-12T09:13:07.998Z</time></trkpt><trkpt lat="45.94399513758214" lon="11.714198231302925"><ele>604.0</ele><time>2026-04-12T09:13:08.998Z</time></trkpt><trkpt lat="45.94402623150452" lon="11.714360472463053"><ele>604.0</ele><time>2026-04-12T09:13:10.998Z</time></trkpt><trkpt lat="45.94422697662521" lon="11.714326974657007"><ele>604.0</ele><time>2026-04-12T09:13:12.998Z</time></trkpt><trkpt lat="45.94438027084819" lon="11.714236366226682"><ele>604.0</ele><time>2026-04-12T09:13:13.998Z</time></trkpt><trkpt lat="45.944533488391166" lon="11.714142299442853"><ele>604.0</ele><time>2026-04-12T09:13:14.998Z</time></trkpt><trkpt lat="45.94470941277925" lon="11.714057441738333"><ele>604.0</ele><time>2026-04-12T09:13:15.998Z</time></trkpt><trkpt lat="45.944891880229264" lon="11.713976366309305"><ele>604.0</ele><time>2026-04-12T09:13:16.998Z</time></trkpt><trkpt lat="45.94507642359729" lon="11.713870929894721"><ele>604.0</ele><time>2026-04-12T09:13:17.998Z</time></trkpt><trkpt lat="45.94525628416304" lon="11.713759833303667"><ele>607.6666666666667</ele><time>2026-04-12T09:13:18.998Z</time></trkpt><trkpt lat="45.945428278270214" lon="11.713646383951716"><ele>611.3333333333334</ele><time>2026-04-12T09:13:19.998Z</time></trkpt><trkpt lat="45.94560602579375" lon="11.713560607579737"><ele>615.0</ele><time>2026-04-12T09:13:20.998Z</time></trkpt><trkpt lat="45.94579971774204" lon="11.713507376386024"><ele>610.3333333333334</ele><time>2026-04-12T09:13:21.998Z</time></trkpt><trkpt lat="45.94598939613984" lon="11.713468822992297"><ele>605.6666666666667</ele><time>2026-04-12T09:13:22.998Z</time></trkpt><trkpt lat="45.946174935252884" lon="11.713419174817997"><ele>601.0</ele><time>2026-04-12T09:13:23.998Z</time></trkpt><trkpt lat="45.94635837721854" lon="11.713352063936371"><ele>601.0</ele><time>2026-04-12T09:13:24.998Z</time></trkpt><trkpt lat="45.94654809487663" lon="11.713266587960165"><ele>601.0</ele><time>2026-04-12T09:13:25.998Z</time></trkpt><trkpt lat="45.946735399853786" lon="11.713190660277238"><ele>601.0</ele><time>2026-04-12T09:13:26.998Z</time></trkpt><trkpt lat="45.94691422563713" lon="11.713116653186185"><ele>597.0</ele><time>2026-04-12T09:13:27.998Z</time></trkpt><trkpt lat="45.94708443289126" lon="11.713038056658185"><ele>593.0</ele><time>2026-04-12T09:13:28.998Z</time></trkpt><trkpt lat="45.94724257517696" lon="11.712955554759674"><ele>589.0</ele><time>2026-04-12T09:13:30Z</time></trkpt><trkpt lat="45.94739654221812" lon="11.712881276926169"><ele>589.0</ele><time>2026-04-12T09:13:31Z</time></trkpt><trkpt lat="45.947540561389" lon="11.712800373608207"><ele>589.0</ele><time>2026-04-12T09:13:32Z</time></trkpt><trkpt lat="45.94769547626631" lon="11.712713023555803"><ele>589.0</ele><time>2026-04-12T09:13:33Z</time></trkpt><trkpt lat="45.94785314277231" lon="11.712608039498214"><ele>589.0</ele><time>2026-04-12T09:13:34Z</time></trkpt><trkpt lat="45.94800464878436" lon="11.712499316380338"><ele>589.0</ele><time>2026-04-12T09:13:35Z</time></trkpt><trkpt lat="45.948136266160965" lon="11.712387568113769"><ele>589.0</ele><time>2026-04-12T09:13:36Z</time></trkpt><trkpt lat="45.948255046637705" lon="11.712268866677126"><ele>589.0</ele><time>2026-04-12T09:13:37Z</time></trkpt><trkpt lat="45.94836444229539" lon="11.71215637324294"><ele>589.0</ele><time>2026-04-12T09:13:38Z</time></trkpt><trkpt lat="45.94845092759465" lon="11.712048685211172"><ele>589.0</ele><time>2026-04-12T09:13:39Z</time></trkpt><trkpt lat="45.94851510167408" lon="11.711952048910453"><ele>589.0</ele><time>2026-04-12T09:13:40Z</time></trkpt><trkpt lat="45.94859153941554" lon="11.711884434409548"><ele>589.0</ele><time>2026-04-12T09:13:42Z</time></trkpt><trkpt lat="45.94863341115756" lon="11.711985343155133"><ele>589.0</ele><time>2026-04-12T09:13:44Z</time></trkpt><trkpt lat="45.94858392900746" lon="11.712076986590276"><ele>589.0</ele><time>2026-04-12T09:13:45Z</time></trkpt><trkpt lat="45.948493721141006" lon="11.712183360616967"><ele>589.0</ele><time>2026-04-12T09:13:46Z</time></trkpt><trkpt lat="45.94839359739292" lon="11.712313541488399"><ele>589.0</ele><time>2026-04-12T09:13:47Z</time></trkpt><trkpt lat="45.948297573914196" lon="11.712449781838266"><ele>589.0</ele><time>2026-04-12T09:13:48Z</time></trkpt><trkpt lat="45.94819693872913" lon="11.712596797975817"><ele>589.0</ele><time>2026-04-12T09:13:49Z</time></trkpt><trkpt lat="45.948093747637785" lon="11.712747099448565"><ele>589.0</ele><time>2026-04-12T09:13:50Z</time></trkpt><trkpt lat="45.947988524577724" lon="11.712888856894581"><ele>589.0</ele><time>2026-04-12T09:13:51Z</time></trkpt><trkpt lat="45.94787438240736" lon="11.713009967076815"><ele>589.0</ele><time>2026-04-12T09:13:52Z</time></trkpt><trkpt lat="45.9477440992719" lon="11.713136417660701"><ele>589.0</ele><time>2026-04-12T09:13:53Z</time></trkpt><trkpt lat="45.947605712238435" lon="11.713262420023561"><ele>589.0</ele><time>2026-04-12T09:13:54Z</time></trkpt><trkpt lat="45.947463358535806" lon="11.71339280956733"><ele>589.0</ele><time>2026-04-12T09:13:55Z</time></trkpt><trkpt lat="45.94731750040544" lon="11.713528333765558"><ele>589.0</ele><time>2026-04-12T09:13:56Z</time></trkpt><trkpt lat="45.947166577988575" lon="11.713667470328328"><ele>589.0</ele><time>2026-04-12T09:13:57Z</time></trkpt><trkpt lat="45.947015374048476" lon="11.713817191983015"><ele>586.0</ele><time>2026-04-12T09:13:58Z</time></trkpt><trkpt lat="45.94686749397214" lon="11.713973110787803"><ele>583.0</ele><time>2026-04-12T09:13:59Z</time></trkpt><trkpt lat="45.94672522861032" lon="11.714144149381658"><ele>580.0</ele><time>2026-04-12T09:14:00Z</time></trkpt><trkpt lat="45.946593600567354" lon="11.714311456179843"><ele>577.0</ele><time>2026-04-12T09:14:01Z</time></trkpt><trkpt lat="45.94647670878863" lon="11.714464173442876"><ele>574.0</ele><time>2026-04-12T09:14:02Z</time></trkpt><trkpt lat="45.94636507750732" lon="11.714610023892458"><ele>571.0</ele><time>2026-04-12T09:14:03Z</time></trkpt><trkpt lat="45.94626404698511" lon="11.714746251572294"><ele>568.0</ele><time>2026-04-12T09:14:04Z</time></trkpt><trkpt lat="45.946168440167824" lon="11.714889470357825"><ele>568.0</ele><time>2026-04-12T09:14:05Z</time></trkpt><trkpt lat="45.946086887629534" lon="11.71506871081038"><ele>568.0</ele><time>2026-04-12T09:14:06Z</time></trkpt><trkpt lat="45.946023093489934" lon="11.7152932391263"><ele>568.0</ele><time>2026-04-12T09:14:07Z</time></trkpt><trkpt lat="45.945978957556285" lon="11.71551361124609"><ele>567.75</ele><time>2026-04-12T09:14:08Z</time></trkpt><trkpt lat="45.94594747301343" lon="11.715696215244098"><ele>567.5</ele><time>2026-04-12T09:14:09Z</time></trkpt><trkpt lat="45.94590045266697" lon="11.715838900945242"><ele>567.25</ele><time>2026-04-12T09:14:10Z</time></trkpt><trkpt lat="45.945814113167074" lon="11.715942089668303"><ele>567.0</ele><time>2026-04-12T09:14:11Z</time></trkpt><trkpt lat="45.945671665444216" lon="11.71600665526879"><ele>563.0</ele><time>2026-04-12T09:14:12Z</time></trkpt><trkpt lat="45.94550783840184" lon="11.716087683934992"><ele>559.0</ele><time>2026-04-12T09:14:12.999Z</time></trkpt><trkpt lat="45.94534255013506" lon="11.716209798784504"><ele>555.0</ele><time>2026-04-12T09:14:13.999Z</time></trkpt><trkpt lat="45.945189826711754" lon="11.716348465842827"><ele>555.0</ele><time>2026-04-12T09:14:14.999Z</time></trkpt><trkpt lat="45.94505402293384" lon="11.716503822562258"><ele>555.0</ele><time>2026-04-12T09:14:15.999Z</time></trkpt><trkpt lat="45.944940693137276" lon="11.716655048380963"><ele>555.0</ele><time>2026-04-12T09:14:16.999Z</time></trkpt><trkpt lat="45.944833637131445" lon="11.71681583685466"><ele>553.0</ele><time>2026-04-12T09:14:17.999Z</time></trkpt><trkpt lat="45.944744678313135" lon="11.717020260190736"><ele>551.0</ele><time>2026-04-12T09:14:18.999Z</time></trkpt><trkpt lat="45.94467851810795" lon="11.7172623628257"><ele>549.0</ele><time>2026-04-12T09:14:19.999Z</time></trkpt><trkpt lat="45.94462715204896" lon="11.717489992092176"><ele>549.0</ele><time>2026-04-12T09:14:20.999Z</time></trkpt><trkpt lat="45.94457635097371" lon="11.717687038314414"><ele>549.0</ele><time>2026-04-12T09:14:21.999Z</time></trkpt><trkpt lat="45.94449079608101" lon="11.717843208532216"><ele>549.0</ele><time>2026-04-12T09:14:22.999Z</time></trkpt><trkpt lat="45.944372926961705" lon="11.71797196399585"><ele>549.0</ele><time>2026-04-12T09:14:23.999Z</time></trkpt><trkpt lat="45.94423111774234" lon="11.718096265204759"><ele>550.0</ele><time>2026-04-12T09:14:24.999Z</time></trkpt><trkpt lat="45.94407062481484" lon="11.718195768431315"><ele>551.0</ele><time>2026-04-12T09:14:25.999Z</time></trkpt><trkpt lat="45.94390585745382" lon="11.718301353513828"><ele>552.0</ele><time>2026-04-12T09:14:26.999Z</time></trkpt><trkpt lat="45.943741837058944" lon="11.71836310677888"><ele>552.0</ele><time>2026-04-12T09:14:27.999Z</time></trkpt><trkpt lat="45.94359101285823" lon="11.718426526260039"><ele>552.0</ele><time>2026-04-12T09:14:28.999Z</time></trkpt><trkpt lat="45.94345445188593" lon="11.718484546620633"><ele>552.0</ele><time>2026-04-12T09:14:29.999Z</time></trkpt><trkpt lat="45.9433213103158" lon="11.718496293026236"><ele>552.0</ele><time>2026-04-12T09:14:30.999Z</time></trkpt><trkpt lat="45.943193331305196" lon="11.718485751936607"><ele>553.25</ele><time>2026-04-12T09:14:31.999Z</time></trkpt><trkpt lat="45.94306291765852" lon="11.718490101404361"><ele>554.5</ele><time>2026-04-12T09:14:32.999Z</time></trkpt><trkpt lat="45.94294715845224" lon="11.718474874816478"><ele>555.75</ele><time>2026-04-12T09:14:33.999Z</time></trkpt><trkpt lat="45.942835228956206" lon="11.718460201813444"><ele>557.0</ele><time>2026-04-12T09:14:34.999Z</time></trkpt><trkpt lat="45.942732896012885" lon="11.718441988525921"><ele>557.0</ele><time>2026-04-12T09:14:35.999Z</time></trkpt><trkpt lat="45.94263902318723" lon="11.718407647782497"><ele>557.0</ele><time>2026-04-12T09:14:36.999Z</time></trkpt><trkpt lat="45.942548775606554" lon="11.718376262068805"><ele>557.0</ele><time>2026-04-12T09:14:37.999Z</time></trkpt><trkpt lat="45.942458764089295" lon="11.71835003531367"><ele>557.0</ele><time>2026-04-12T09:14:38.999Z</time></trkpt><trkpt lat="45.94236939375363" lon="11.71832075134198"><ele>557.0</ele><time>2026-04-12T09:14:39.999Z</time></trkpt><trkpt lat="45.942293510581905" lon="11.71829948996639"><ele>555.8000000000001</ele><time>2026-04-12T09:14:40.999Z</time></trkpt><trkpt lat="45.94221375482278" lon="11.718319491119942"><ele>554.6</ele><time>2026-04-12T09:14:41.999Z</time></trkpt><trkpt lat="45.94213923081925" lon="11.71833298800222"><ele>553.4000000000001</ele><time>2026-04-12T09:14:42.999Z</time></trkpt><trkpt lat="45.94207543934437" lon="11.718358871962083"><ele>552.2</ele><time>2026-04-12T09:14:43.999Z</time></trkpt><trkpt lat="45.94198121966754" lon="11.718421092899963"><ele>551.0</ele><time>2026-04-12T09:14:45.999Z</time></trkpt><trkpt lat="45.94188276244137" lon="11.718543939516747"><ele>551.1428571428571</ele><time>2026-04-12T09:14:47.999Z</time></trkpt><trkpt lat="45.94183874882865" lon="11.718639939244738"><ele>551.2857142857142</ele><time>2026-04-12T09:14:48.999Z</time></trkpt><trkpt lat="45.94180741029941" lon="11.718752640308654"><ele>551.4285714285714</ele><time>2026-04-12T09:14:49.999Z</time></trkpt><trkpt lat="45.941783665754784" lon="11.718856450060677"><ele>551.5714285714286</ele><time>2026-04-12T09:14:50.999Z</time></trkpt><trkpt lat="45.9417596895023" lon="11.718959401278678"><ele>551.7142857142858</ele><time>2026-04-12T09:14:51.999Z</time></trkpt><trkpt lat="45.94173676813358" lon="11.719045889570886"><ele>551.8571428571429</ele><time>2026-04-12T09:14:52.999Z</time></trkpt><trkpt lat="45.9417180611963" lon="11.719138545257334"><ele>552.0</ele><time>2026-04-12T09:14:53.999Z</time></trkpt><trkpt lat="45.94170271740552" lon="11.719240448722363"><ele>552.0</ele><time>2026-04-12T09:14:54.999Z</time></trkpt><trkpt lat="45.94168701605507" lon="11.719333344582745"><ele>552.0</ele><time>2026-04-12T09:14:55.999Z</time></trkpt><trkpt lat="45.941668458268204" lon="11.719433561300947"><ele>552.0</ele><time>2026-04-12T09:14:56.999Z</time></trkpt><trkpt lat="45.94165149896835" lon="11.719545029445008"><ele>552.0</ele><time>2026-04-12T09:14:57.999Z</time></trkpt><trkpt lat="45.94164376951926" lon="11.719656260352608"><ele>552.0</ele><time>2026-04-12T09:14:58.999Z</time></trkpt><trkpt lat="45.94163285922537" lon="11.719751832609104"><ele>552.0</ele><time>2026-04-12T09:14:59.999Z</time></trkpt><trkpt lat="45.941619586665745" lon="11.719845737813989"><ele>552.0</ele><time>2026-04-12T09:15:00.999Z</time></trkpt><trkpt lat="45.94165235288216" lon="11.71999968599917"><ele>545.0</ele><time>2026-04-12T09:15:02.999Z</time></trkpt><trkpt lat="45.941790117622226" lon="11.719998028202356"><ele>538.0</ele><time>2026-04-12T09:15:04.999Z</time></trkpt><trkpt lat="45.941839877156035" lon="11.719858422401302"><ele>531.0</ele><time>2026-04-12T09:15:05.999Z</time></trkpt><trkpt lat="45.94181469026912" lon="11.71970218274238"><ele>524.0</ele><time>2026-04-12T09:15:06.999Z</time></trkpt><trkpt lat="45.94182068272773" lon="11.719551055809777"><ele>524.0</ele><time>2026-04-12T09:15:07.998Z</time></trkpt><trkpt lat="45.941877142179266" lon="11.719427238878438"><ele>524.0</ele><time>2026-04-12T09:15:08.998Z</time></trkpt><trkpt lat="45.941936865438436" lon="11.719309780358886"><ele>524.0</ele><time>2026-04-12T09:15:09.998Z</time></trkpt><trkpt lat="45.942016494533924" lon="11.71924340295439"><ele>524.0</ele><time>2026-04-12T09:15:10.998Z</time></trkpt><trkpt lat="45.942108254053664" lon="11.719226608494358"><ele>524.0</ele><time>2026-04-12T09:15:11.998Z</time></trkpt><trkpt lat="45.942210100048165" lon="11.719213051243749"><ele>522.5</ele><time>2026-04-12T09:15:12.998Z</time></trkpt><trkpt lat="45.94233368229324" lon="11.719279576156572"><ele>521.0</ele><time>2026-04-12T09:15:13.998Z</time></trkpt><trkpt lat="45.942441092493645" lon="11.719345742559042"><ele>519.5</ele><time>2026-04-12T09:15:14.998Z</time></trkpt><trkpt lat="45.94256230021665" lon="11.719400848849604"><ele>518.0</ele><time>2026-04-12T09:15:15.998Z</time></trkpt><trkpt lat="45.94269175144122" lon="11.719418493136752"><ele>518.0</ele><time>2026-04-12T09:15:16.998Z</time></trkpt><trkpt lat="45.942826608894045" lon="11.719418999768108"><ele>518.0</ele><time>2026-04-12T09:15:17.998Z</time></trkpt><trkpt lat="45.94297407232765" lon="11.719388790824606"><ele>518.0</ele><time>2026-04-12T09:15:18.998Z</time></trkpt><trkpt lat="45.94312165824481" lon="11.719323182664736"><ele>518.0</ele><time>2026-04-12T09:15:19.998Z</time></trkpt><trkpt lat="45.943272395785655" lon="11.71927557771758"><ele>521.0</ele><time>2026-04-12T09:15:20.998Z</time></trkpt><trkpt lat="45.94340634765368" lon="11.71921451415257"><ele>524.0</ele><time>2026-04-12T09:15:21.998Z</time></trkpt><trkpt lat="45.9435333308449" lon="11.7191478503151"><ele>527.0</ele><time>2026-04-12T09:15:22.998Z</time></trkpt><trkpt lat="45.94367590695211" lon="11.719163236687113"><ele>530.0</ele><time>2026-04-12T09:15:23.998Z</time></trkpt><trkpt lat="45.94381880494896" lon="11.719196368866983"><ele>530.0</ele><time>2026-04-12T09:15:24.998Z</time></trkpt><trkpt lat="45.943957743854575" lon="11.719214148585747"><ele>530.0</ele><time>2026-04-12T09:15:25.998Z</time></trkpt><trkpt lat="45.94408264772775" lon="11.719248063652897"><ele>530.0</ele><time>2026-04-12T09:15:26.998Z</time></trkpt><trkpt lat="45.94419316728084" lon="11.719287114665972"><ele>530.0</ele><time>2026-04-12T09:15:27.998Z</time></trkpt><trkpt lat="45.944298018762034" lon="11.719318227476457"><ele>529.2</ele><time>2026-04-12T09:15:28.998Z</time></trkpt><trkpt lat="45.944393374865626" lon="11.719346034309213"><ele>528.4</ele><time>2026-04-12T09:15:29.998Z</time></trkpt><trkpt lat="45.94447926533838" lon="11.719394896048435"><ele>527.6</ele><time>2026-04-12T09:15:30.998Z</time></trkpt><trkpt lat="45.944543049640345" lon="11.71948102416656"><ele>526.8</ele><time>2026-04-12T09:15:31.998Z</time></trkpt><trkpt lat="45.944572913709266" lon="11.719625789868843"><ele>526.0</ele><time>2026-04-12T09:15:32.998Z</time></trkpt><trkpt lat="45.944577416021026" lon="11.71977266472264"><ele>524.4</ele><time>2026-04-12T09:15:33.998Z</time></trkpt><trkpt lat="45.9445660094997" lon="11.719925083383929"><ele>522.8</ele><time>2026-04-12T09:15:34.998Z</time></trkpt><trkpt lat="45.944546646080745" lon="11.720089684294212"><ele>521.1999999999999</ele><time>2026-04-12T09:15:36Z</time></trkpt><trkpt lat="45.944519920226476" lon="11.720244923311398"><ele>519.6</ele><time>2026-04-12T09:15:37Z</time></trkpt><trkpt lat="45.944497509396804" lon="11.7204057421326"><ele>518.0</ele><time>2026-04-12T09:15:38Z</time></trkpt><trkpt lat="45.94446994966305" lon="11.720566858511694"><ele>517.0</ele><time>2026-04-12T09:15:39Z</time></trkpt><trkpt lat="45.94444040045218" lon="11.720731615230864"><ele>516.0</ele><time>2026-04-12T09:15:40Z</time></trkpt><trkpt lat="45.94439514789347" lon="11.720895086165253"><ele>515.0</ele><time>2026-04-12T09:15:41Z</time></trkpt><trkpt lat="45.94434250579722" lon="11.72104346873672"><ele>514.0</ele><time>2026-04-12T09:15:42Z</time></trkpt><trkpt lat="45.944286942675426" lon="11.721179133609972"><ele>513.6</ele><time>2026-04-12T09:15:43Z</time></trkpt><trkpt lat="45.94423386774161" lon="11.721310687246214"><ele>513.2</ele><time>2026-04-12T09:15:44Z</time></trkpt><trkpt lat="45.944176608450654" lon="11.721445305047801"><ele>512.8000000000001</ele><time>2026-04-12T09:15:45Z</time></trkpt><trkpt lat="45.94412566522796" lon="11.721588357404205"><ele>512.4</ele><time>2026-04-12T09:15:46Z</time></trkpt><trkpt lat="45.94409355268527" lon="11.721727961668849"><ele>512.0</ele><time>2026-04-12T09:15:47Z</time></trkpt><trkpt lat="45.944078219785446" lon="11.721857115510021"><ele>509.8</ele><time>2026-04-12T09:15:48Z</time></trkpt><trkpt lat="45.94408784217046" lon="11.721966796739466"><ele>507.6</ele><time>2026-04-12T09:15:49Z</time></trkpt><trkpt lat="45.94412925009199" lon="11.722071490756738"><ele>505.40000000000003</ele><time>2026-04-12T09:15:50Z</time></trkpt><trkpt lat="45.94420479319491" lon="11.7221335165533"><ele>503.20000000000005</ele><time>2026-04-12T09:15:51Z</time></trkpt><trkpt lat="45.94430178650351" lon="11.722148002816413"><ele>501.0</ele><time>2026-04-12T09:15:52Z</time></trkpt><trkpt lat="45.94441366743104" lon="11.72211116009615"><ele>502.20000000000005</ele><time>2026-04-12T09:15:53Z</time></trkpt><trkpt lat="45.94452325578827" lon="11.722050703158773"><ele>503.40000000000003</ele><time>2026-04-12T09:15:54Z</time></trkpt><trkpt lat="45.944622737853116" lon="11.722000026977748"><ele>504.6</ele><time>2026-04-12T09:15:55Z</time></trkpt><trkpt lat="45.944715446354024" lon="11.721950038412382"><ele>505.8</ele><time>2026-04-12T09:15:56Z</time></trkpt><trkpt lat="45.94481005137202" lon="11.72189520907015"><ele>507.0</ele><time>2026-04-12T09:15:57Z</time></trkpt><trkpt lat="45.944907447175645" lon="11.721822255112274"><ele>507.0</ele><time>2026-04-12T09:15:58Z</time></trkpt><trkpt lat="45.94501106667577" lon="11.721723135082605"><ele>507.0</ele><time>2026-04-12T09:15:59Z</time></trkpt><trkpt lat="45.945109209343045" lon="11.72159540910071"><ele>507.0</ele><time>2026-04-12T09:16:00Z</time></trkpt><trkpt lat="45.945202461661495" lon="11.72145313641255"><ele>507.0</ele><time>2026-04-12T09:16:01Z</time></trkpt><trkpt lat="45.94529639589013" lon="11.721308592095314"><ele>507.25</ele><time>2026-04-12T09:16:02Z</time></trkpt><trkpt lat="45.94539630820569" lon="11.721204507368746"><ele>507.5</ele><time>2026-04-12T09:16:03Z</time></trkpt><trkpt lat="45.945504028202166" lon="11.721113559470275"><ele>507.75</ele><time>2026-04-12T09:16:04Z</time></trkpt><trkpt lat="45.94562109090252" lon="11.721039493893581"><ele>508.0</ele><time>2026-04-12T09:16:05Z</time></trkpt><trkpt lat="45.945744813123696" lon="11.720979775105782"><ele>508.0</ele><time>2026-04-12T09:16:06Z</time></trkpt><trkpt lat="45.94587680484487" lon="11.720922136402818"><ele>508.0</ele><time>2026-04-12T09:16:07Z</time></trkpt><trkpt lat="45.94601206458435" lon="11.720903026264475"><ele>508.0</ele><time>2026-04-12T09:16:08Z</time></trkpt><trkpt lat="45.94614351072902" lon="11.720890425205226"><ele>508.0</ele><time>2026-04-12T09:16:09Z</time></trkpt><trkpt lat="45.94626573203444" lon="11.720883249914014"><ele>505.0</ele><time>2026-04-12T09:16:10Z</time></trkpt><trkpt lat="45.94638245021383" lon="11.720874658312749"><ele>502.0</ele><time>2026-04-12T09:16:11Z</time></trkpt><trkpt lat="45.94648745276941" lon="11.720852104490199"><ele>499.0</ele><time>2026-04-12T09:16:12Z</time></trkpt><trkpt lat="45.94658956660236" lon="11.720798820654942"><ele>496.0</ele><time>2026-04-12T09:16:13Z</time></trkpt><trkpt lat="45.9466894530003" lon="11.720689427675433"><ele>493.0</ele><time>2026-04-12T09:16:14Z</time></trkpt><trkpt lat="45.94675008915755" lon="11.720529227958206"><ele>490.0</ele><time>2026-04-12T09:16:15Z</time></trkpt><trkpt lat="45.94679456569604" lon="11.720338306585402"><ele>487.0</ele><time>2026-04-12T09:16:16Z</time></trkpt><trkpt lat="45.94683498556769" lon="11.720138479088794"><ele>484.0</ele><time>2026-04-12T09:16:17Z</time></trkpt><trkpt lat="45.94686853500404" lon="11.719943162214644"><ele>484.0</ele><time>2026-04-12T09:16:18Z</time></trkpt><trkpt lat="45.94693419854184" lon="11.71977337024374"><ele>484.0</ele><time>2026-04-12T09:16:18.999Z</time></trkpt><trkpt lat="45.94700077958393" lon="11.7196055319608"><ele>484.0</ele><time>2026-04-12T09:16:19.999Z</time></trkpt><trkpt lat="45.94708189869515" lon="11.719449704940967"><ele>484.0</ele><time>2026-04-12T09:16:20.999Z</time></trkpt><trkpt lat="45.947168336718725" lon="11.719295910231128"><ele>484.75</ele><time>2026-04-12T09:16:21.999Z</time></trkpt><trkpt lat="45.94727041245381" lon="11.719151679215843"><ele>485.5</ele><time>2026-04-12T09:16:22.999Z</time></trkpt><trkpt lat="45.94735717419711" lon="11.719026406990661"><ele>486.25</ele><time>2026-04-12T09:16:23.999Z</time></trkpt><trkpt lat="45.947438147872916" lon="11.71889318299676"><ele>487.0</ele><time>2026-04-12T09:16:24.999Z</time></trkpt><trkpt lat="45.94751181214656" lon="11.718742868615562"><ele>484.0</ele><time>2026-04-12T09:16:25.999Z</time></trkpt><trkpt lat="45.94758526130275" lon="11.718595283253077"><ele>481.0</ele><time>2026-04-12T09:16:26.999Z</time></trkpt><trkpt lat="45.947659739509554" lon="11.718436038428147"><ele>478.0</ele><time>2026-04-12T09:16:27.999Z</time></trkpt><trkpt lat="45.947738143371126" lon="11.718277547012484"><ele>475.0</ele><time>2026-04-12T09:16:28.999Z</time></trkpt><trkpt lat="45.94781123001027" lon="11.718103645837262"><ele>475.0</ele><time>2026-04-12T09:16:29.999Z</time></trkpt><trkpt lat="45.94788266356398" lon="11.717936508572484"><ele>475.0</ele><time>2026-04-12T09:16:30.999Z</time></trkpt><trkpt lat="45.94796835748942" lon="11.717782136404084"><ele>475.0</ele><time>2026-04-12T09:16:31.999Z</time></trkpt><trkpt lat="45.94804489633487" lon="11.717608526676944"><ele>475.0</ele><time>2026-04-12T09:16:32.999Z</time></trkpt><trkpt lat="45.94815610298268" lon="11.717472582838786"><ele>473.5</ele><time>2026-04-12T09:16:33.999Z</time></trkpt><trkpt lat="45.94824881740635" lon="11.717314250077282"><ele>472.0</ele><time>2026-04-12T09:16:34.999Z</time></trkpt><trkpt lat="45.94835876332576" lon="11.717181417547488"><ele>470.5</ele><time>2026-04-12T09:16:35.999Z</time></trkpt><trkpt lat="45.94846149181685" lon="11.717055206588505"><ele>469.0</ele><time>2026-04-12T09:16:36.999Z</time></trkpt><trkpt lat="45.94856840923085" lon="11.716943170112224"><ele>470.5</ele><time>2026-04-12T09:16:37.999Z</time></trkpt><trkpt lat="45.94867611652053" lon="11.71683711069916"><ele>472.0</ele><time>2026-04-12T09:16:38.999Z</time></trkpt><trkpt lat="45.948796665070915" lon="11.71674377216785"><ele>473.5</ele><time>2026-04-12T09:16:39.999Z</time></trkpt><trkpt lat="45.948917631174204" lon="11.71664533463616"><ele>475.0</ele><time>2026-04-12T09:16:40.999Z</time></trkpt><trkpt lat="45.94904743750338" lon="11.716551523233758"><ele>475.0</ele><time>2026-04-12T09:16:41.999Z</time></trkpt><trkpt lat="45.94917879168575" lon="11.716463094646915"><ele>475.0</ele><time>2026-04-12T09:16:42.999Z</time></trkpt><trkpt lat="45.94929350829985" lon="11.716369181248862"><ele>475.0</ele><time>2026-04-12T09:16:43.999Z</time></trkpt><trkpt lat="45.949388577749886" lon="11.71625192460132"><ele>475.0</ele><time>2026-04-12T09:16:44.999Z</time></trkpt><trkpt lat="45.94948550616892" lon="11.716127994289417"><ele>473.5</ele><time>2026-04-12T09:16:45.999Z</time></trkpt><trkpt lat="45.94958886348782" lon="11.715987535184674"><ele>472.0</ele><time>2026-04-12T09:16:46.999Z</time></trkpt><trkpt lat="45.94969432394758" lon="11.715852719024834"><ele>470.5</ele><time>2026-04-12T09:16:47.999Z</time></trkpt><trkpt lat="45.94980285819475" lon="11.71570936880026"><ele>469.0</ele><time>2026-04-12T09:16:48.999Z</time></trkpt><trkpt lat="45.94990845235561" lon="11.715559101207242"><ele>469.0</ele><time>2026-04-12T09:16:49.999Z</time></trkpt><trkpt lat="45.950009804423956" lon="11.715403748414824"><ele>469.0</ele><time>2026-04-12T09:16:50.999Z</time></trkpt><trkpt lat="45.9500959401201" lon="11.715236319391401"><ele>469.0</ele><time>2026-04-12T09:16:51.999Z</time></trkpt><trkpt lat="45.95015715224049" lon="11.715058981969934"><ele>469.0</ele><time>2026-04-12T09:16:52.999Z</time></trkpt><trkpt lat="45.95020964124349" lon="11.714898665002657"><ele>467.6</ele><time>2026-04-12T09:16:53.999Z</time></trkpt><trkpt lat="45.95025562525889" lon="11.714747145714703"><ele>466.2</ele><time>2026-04-12T09:16:54.999Z</time></trkpt><trkpt lat="45.95030394030091" lon="11.714622607913952"><ele>464.80000000000007</ele><time>2026-04-12T09:16:55.999Z</time></trkpt><trkpt lat="45.95033539082422" lon="11.714524254188456"><ele>463.40000000000003</ele><time>2026-04-12T09:16:56.999Z</time></trkpt><trkpt lat="45.950414786417696" lon="11.714389742060073"><ele>462.0</ele><time>2026-04-12T09:16:58.999Z</time></trkpt><trkpt lat="45.95051518459421" lon="11.714345386937799"><ele>460.5</ele><time>2026-04-12T09:17:00.999Z</time></trkpt><trkpt lat="45.950584656022826" lon="11.714492328960128"><ele>459.0</ele><time>2026-04-12T09:17:02.999Z</time></trkpt><trkpt lat="45.95055572487847" lon="11.714640507905473"><ele>457.5</ele><time>2026-04-12T09:17:03.999Z</time></trkpt><trkpt lat="45.950493615663994" lon="11.714840465180831"><ele>456.0</ele><time>2026-04-12T09:17:04.999Z</time></trkpt><trkpt lat="45.950441195942695" lon="11.715088734115582"><ele>455.0</ele><time>2026-04-12T09:17:05.999Z</time></trkpt><trkpt lat="45.95039255239461" lon="11.715325141418896"><ele>454.0</ele><time>2026-04-12T09:17:06.999Z</time></trkpt><trkpt lat="45.9503540318175" lon="11.715587328875538"><ele>453.0</ele><time>2026-04-12T09:17:07.999Z</time></trkpt><trkpt lat="45.950306221732006" lon="11.715862129792667"><ele>452.0</ele><time>2026-04-12T09:17:08.999Z</time></trkpt><trkpt lat="45.950277062663424" lon="11.716151285924218"><ele>451.0</ele><time>2026-04-12T09:17:09.999Z</time></trkpt><trkpt lat="45.950265018558234" lon="11.716424357122653"><ele>450.0</ele><time>2026-04-12T09:17:10.999Z</time></trkpt><trkpt lat="45.950255171119764" lon="11.71667125118407"><ele>449.66666666666663</ele><time>2026-04-12T09:17:11.999Z</time></trkpt><trkpt lat="45.950249223219615" lon="11.71690559900934"><ele>449.3333333333333</ele><time>2026-04-12T09:17:12.998Z</time></trkpt><trkpt lat="45.95028238039407" lon="11.717170021938395"><ele>449.0</ele><time>2026-04-12T09:17:13.998Z</time></trkpt><trkpt lat="45.95034946655702" lon="11.717444982109331"><ele>449.0</ele><time>2026-04-12T09:17:14.998Z</time></trkpt><trkpt lat="45.950415498851314" lon="11.717686326424225"><ele>449.0</ele><time>2026-04-12T09:17:15.998Z</time></trkpt><trkpt lat="45.95045127699327" lon="11.71792506940534"><ele>449.0</ele><time>2026-04-12T09:17:16.998Z</time></trkpt><trkpt lat="45.95047489184649" lon="11.718150985120174"><ele>448.25</ele><time>2026-04-12T09:17:17.998Z</time></trkpt><trkpt lat="45.95049034890777" lon="11.71836003617169"><ele>447.5</ele><time>2026-04-12T09:17:18.998Z</time></trkpt><trkpt lat="45.95050246521145" lon="11.71856097492148"><ele>446.75</ele><time>2026-04-12T09:17:19.998Z</time></trkpt><trkpt lat="45.95048375456673" lon="11.718739511108307"><ele>446.0</ele><time>2026-04-12T09:17:20.998Z</time></trkpt><trkpt lat="45.950432203571104" lon="11.718910705235784"><ele>442.0</ele><time>2026-04-12T09:17:21.998Z</time></trkpt><trkpt lat="45.95034284130609" lon="11.719090852208838"><ele>438.0</ele><time>2026-04-12T09:17:22.998Z</time></trkpt><trkpt lat="45.95021825184585" lon="11.719268532136741"><ele>434.0</ele><time>2026-04-12T09:17:23.998Z</time></trkpt><trkpt lat="45.95007720142392" lon="11.7194923728016"><ele>436.66666666666663</ele><time>2026-04-12T09:17:24.998Z</time></trkpt><trkpt lat="45.949913184324245" lon="11.719705541338255"><ele>439.33333333333337</ele><time>2026-04-12T09:17:25.998Z</time></trkpt><trkpt lat="45.94979070208497" lon="11.719920239812375"><ele>442.0</ele><time>2026-04-12T09:17:26.998Z</time></trkpt><trkpt lat="45.949695376848474" lon="11.72011442842454"><ele>436.75</ele><time>2026-04-12T09:17:27.998Z</time></trkpt><trkpt lat="45.94958672059177" lon="11.720274133435497"><ele>431.5</ele><time>2026-04-12T09:17:28.998Z</time></trkpt><trkpt lat="45.94949331971996" lon="11.720412439556684"><ele>426.25</ele><time>2026-04-12T09:17:29.998Z</time></trkpt><trkpt lat="45.94937530391628" lon="11.720488872463635"><ele>421.0</ele><time>2026-04-12T09:17:30.998Z</time></trkpt><trkpt lat="45.949219712305606" lon="11.720518624334531"><ele>426.6666666666667</ele><time>2026-04-12T09:17:31.998Z</time></trkpt><trkpt lat="45.94904194974264" lon="11.72058304150032"><ele>432.33333333333337</ele><time>2026-04-12T09:17:32.998Z</time></trkpt><trkpt lat="45.9488594587205" lon="11.720661291290394"><ele>438.0</ele><time>2026-04-12T09:17:33.998Z</time></trkpt><trkpt lat="45.94867820724391" lon="11.720785475322483"><ele>438.0</ele><time>2026-04-12T09:17:34.998Z</time></trkpt><trkpt lat="45.94851832466468" lon="11.720945998838072"><ele>438.0</ele><time>2026-04-12T09:17:35.998Z</time></trkpt><trkpt lat="45.94837367102622" lon="11.721130254941935"><ele>438.0</ele><time>2026-04-12T09:17:36.998Z</time></trkpt><trkpt lat="45.94822077494246" lon="11.721263179200767"><ele>435.0</ele><time>2026-04-12T09:17:37.998Z</time></trkpt><trkpt lat="45.94808109496756" lon="11.721404407684267"><ele>432.0</ele><time>2026-04-12T09:17:38.998Z</time></trkpt><trkpt lat="45.94794376928259" lon="11.721526464346095"><ele>429.0</ele><time>2026-04-12T09:17:39.998Z</time></trkpt><trkpt lat="45.947833481407315" lon="11.721704501606137"><ele>422.66666666666663</ele><time>2026-04-12T09:17:40.998Z</time></trkpt><trkpt lat="45.94773769932186" lon="11.721930572116353"><ele>416.3333333333333</ele><time>2026-04-12T09:17:42Z</time></trkpt><trkpt lat="45.94765347020489" lon="11.72215884590529"><ele>410.0</ele><time>2026-04-12T09:17:43Z</time></trkpt><trkpt lat="45.94755779611485" lon="11.722353459517796"><ele>415.25</ele><time>2026-04-12T09:17:44Z</time></trkpt><trkpt lat="45.94746366947253" lon="11.722517554072676"><ele>420.5</ele><time>2026-04-12T09:17:45Z</time></trkpt><trkpt lat="45.94736976496908" lon="11.722660143709415"><ele>425.75</ele><time>2026-04-12T09:17:46Z</time></trkpt><trkpt lat="45.94729446917477" lon="11.722776097713483"><ele>431.0</ele><time>2026-04-12T09:17:47Z</time></trkpt><trkpt lat="45.9472412721216" lon="11.722870416923808"><ele>431.0</ele><time>2026-04-12T09:17:48Z</time></trkpt><trkpt lat="45.94722180774911" lon="11.722979061975538"><ele>431.0</ele><time>2026-04-12T09:17:49Z</time></trkpt><trkpt lat="45.947252523432155" lon="11.72308627049177"><ele>431.0</ele><time>2026-04-12T09:17:50Z</time></trkpt><trkpt lat="45.94731176452113" lon="11.723152278731552"><ele>431.0</ele><time>2026-04-12T09:17:51Z</time></trkpt><trkpt lat="45.94742641480084" lon="11.723089502076729"><ele>431.0</ele><time>2026-04-12T09:17:52Z</time></trkpt><trkpt lat="45.947507201723745" lon="11.722950555715926"><ele>424.0</ele><time>2026-04-12T09:17:53Z</time></trkpt><trkpt lat="45.947586702826236" lon="11.72276752262322"><ele>417.0</ele><time>2026-04-12T09:17:54Z</time></trkpt><trkpt lat="45.94769104731694" lon="11.722588331387948"><ele>410.0</ele><time>2026-04-12T09:17:55Z</time></trkpt><trkpt lat="45.947794317905206" lon="11.722390374995054"><ele>410.0</ele><time>2026-04-12T09:17:56Z</time></trkpt><trkpt lat="45.947893366684085" lon="11.72220638283012"><ele>410.0</ele><time>2026-04-12T09:17:57Z</time></trkpt><trkpt lat="45.947970029685386" lon="11.722028859267223"><ele>410.0</ele><time>2026-04-12T09:17:58Z</time></trkpt><trkpt lat="45.948071863350535" lon="11.72187233289834"><ele>409.0</ele><time>2026-04-12T09:17:59Z</time></trkpt><trkpt lat="45.94820758409867" lon="11.721744817087721"><ele>408.0</ele><time>2026-04-12T09:18:00Z</time></trkpt><trkpt lat="45.948378087873195" lon="11.721699908782547"><ele>407.0</ele><time>2026-04-12T09:18:01Z</time></trkpt><trkpt lat="45.94854392991117" lon="11.72159869396665"><ele>407.0</ele><time>2026-04-12T09:18:02Z</time></trkpt><trkpt lat="45.94871046816002" lon="11.721472057161481"><ele>407.0</ele><time>2026-04-12T09:18:03Z</time></trkpt><trkpt lat="45.94885230440598" lon="11.72130874411628"><ele>407.0</ele><time>2026-04-12T09:18:04Z</time></trkpt><trkpt lat="45.94898306984999" lon="11.721151993809391"><ele>407.0</ele><time>2026-04-12T09:18:05Z</time></trkpt><trkpt lat="45.949128010131034" lon="11.72107118621113"><ele>407.0</ele><time>2026-04-12T09:18:06Z</time></trkpt><trkpt lat="45.9492823609236" lon="11.721011565891688"><ele>407.0</ele><time>2026-04-12T09:18:07Z</time></trkpt><trkpt lat="45.94945078661271" lon="11.720952967759557"><ele>411.66666666666663</ele><time>2026-04-12T09:18:08Z</time></trkpt><trkpt lat="45.94962112094621" lon="11.720931600974506"><ele>416.33333333333337</ele><time>2026-04-12T09:18:09Z</time></trkpt><trkpt lat="45.94977761819776" lon="11.720875839075099"><ele>421.0</ele><time>2026-04-12T09:18:10Z</time></trkpt><trkpt lat="45.94993699373342" lon="11.720757266886245"><ele>412.6666666666667</ele><time>2026-04-12T09:18:11Z</time></trkpt><trkpt lat="45.95008875820492" lon="11.7206042746044"><ele>404.33333333333337</ele><time>2026-04-12T09:18:12Z</time></trkpt><trkpt lat="45.950241202888506" lon="11.720471274628466"><ele>396.0</ele><time>2026-04-12T09:18:13Z</time></trkpt><trkpt lat="45.95039658242018" lon="11.720334684775418"><ele>402.33333333333337</ele><time>2026-04-12T09:18:14Z</time></trkpt><trkpt lat="45.950553104550345" lon="11.720173485652902"><ele>408.6666666666667</ele><time>2026-04-12T09:18:15Z</time></trkpt><trkpt lat="45.95069533301737" lon="11.71997525333161"><ele>415.0</ele><time>2026-04-12T09:18:16Z</time></trkpt><trkpt lat="45.95083350457938" lon="11.71976494271257"><ele>409.0</ele><time>2026-04-12T09:18:17Z</time></trkpt><trkpt lat="45.95098604708039" lon="11.719547664519075"><ele>403.0</ele><time>2026-04-12T09:18:18Z</time></trkpt><trkpt lat="45.95113033213109" lon="11.719325079717665"><ele>397.0</ele><time>2026-04-12T09:18:19Z</time></trkpt><trkpt lat="45.951270150021905" lon="11.719103124968617"><ele>397.0</ele><time>2026-04-12T09:18:20Z</time></trkpt><trkpt lat="45.951406833814936" lon="11.718883061179378"><ele>397.0</ele><time>2026-04-12T09:18:21Z</time></trkpt><trkpt lat="45.9515373128244" lon="11.718682824007047"><ele>397.0</ele><time>2026-04-12T09:18:22Z</time></trkpt><trkpt lat="45.95166246453536" lon="11.71849565117046"><ele>380.0</ele><time>2026-04-12T09:18:23Z</time></trkpt><trkpt lat="45.95178325497479" lon="11.718316317549716"><ele>363.0</ele><time>2026-04-12T09:18:23.999Z</time></trkpt><trkpt lat="45.95188957781119" lon="11.718091838940776"><ele>346.0</ele><time>2026-04-12T09:18:24.999Z</time></trkpt><trkpt lat="45.951986527642056" lon="11.717875708846728"><ele>353.0</ele><time>2026-04-12T09:18:25.999Z</time></trkpt><trkpt lat="45.95205954436384" lon="11.71766052047775"><ele>360.0</ele><time>2026-04-12T09:18:26.999Z</time></trkpt><trkpt lat="45.952107168281515" lon="11.717431172740087"><ele>367.0</ele><time>2026-04-12T09:18:27.999Z</time></trkpt><trkpt lat="45.95210429819265" lon="11.717169761482166"><ele>367.0</ele><time>2026-04-12T09:18:28.999Z</time></trkpt><trkpt lat="45.952112086510375" lon="11.71691068110395"><ele>367.0</ele><time>2026-04-12T09:18:29.999Z</time></trkpt><trkpt lat="45.952121943057314" lon="11.716655828498572"><ele>367.0</ele><time>2026-04-12T09:18:30.999Z</time></trkpt><trkpt lat="45.952150209626836" lon="11.716401814408062"><ele>370.0</ele><time>2026-04-12T09:18:31.999Z</time></trkpt><trkpt lat="45.952156021972996" lon="11.716147726891581"><ele>373.0</ele><time>2026-04-12T09:18:32.999Z</time></trkpt><trkpt lat="45.95218616206532" lon="11.71591850667183"><ele>376.0</ele><time>2026-04-12T09:18:33.999Z</time></trkpt><trkpt lat="45.95220165680691" lon="11.71572401946118"><ele>376.0</ele><time>2026-04-12T09:18:34.999Z</time></trkpt><trkpt lat="45.95221674835736" lon="11.715563827748388"><ele>376.0</ele><time>2026-04-12T09:18:35.999Z</time></trkpt><trkpt lat="45.95223703617638" lon="11.715436933519761"><ele>376.0</ele><time>2026-04-12T09:18:36.999Z</time></trkpt><trkpt lat="45.95226377911577" lon="11.715332747310311"><ele>376.0</ele><time>2026-04-12T09:18:37.999Z</time></trkpt><trkpt lat="45.95235251781871" lon="11.715304693243441"><ele>376.0</ele><time>2026-04-12T09:18:39.999Z</time></trkpt><trkpt lat="45.952390349784096" lon="11.715462548432669"><ele>376.0</ele><time>2026-04-12T09:18:40.999Z</time></trkpt><trkpt lat="45.952392694310205" lon="11.715649494200342"><ele>376.0</ele><time>2026-04-12T09:18:41.999Z</time></trkpt><trkpt lat="45.95239344126616" lon="11.715860769915448"><ele>376.0</ele><time>2026-04-12T09:18:42.999Z</time></trkpt><trkpt lat="45.95241687626698" lon="11.716079114418047"><ele>376.0</ele><time>2026-04-12T09:18:43.999Z</time></trkpt><trkpt lat="45.95243657537078" lon="11.716324487831688"><ele>376.25</ele><time>2026-04-12T09:18:44.999Z</time></trkpt><trkpt lat="45.952438513896396" lon="11.716550426098292"><ele>376.5</ele><time>2026-04-12T09:18:45.999Z</time></trkpt><trkpt lat="45.95243602300856" lon="11.716755324323552"><ele>376.75</ele><time>2026-04-12T09:18:46.999Z</time></trkpt><trkpt lat="45.95239997184031" lon="11.716941187775236"><ele>377.0</ele><time>2026-04-12T09:18:47.999Z</time></trkpt><trkpt lat="45.95236503216443" lon="11.717131199861752"><ele>375.33333333333337</ele><time>2026-04-12T09:18:48.999Z</time></trkpt><trkpt lat="45.952330497579034" lon="11.717300741004832"><ele>373.6666666666667</ele><time>2026-04-12T09:18:49.999Z</time></trkpt><trkpt lat="45.9523161298355" lon="11.717417813371727"><ele>372.0</ele><time>2026-04-12T09:18:50.999Z</time></trkpt><trkpt lat="45.95231484680621" lon="11.717534265579403"><ele>370.3333333333333</ele><time>2026-04-12T09:18:51.999Z</time></trkpt><trkpt lat="45.95233655071553" lon="11.717626913886143"><ele>368.66666666666663</ele><time>2026-04-12T09:18:52.999Z</time></trkpt><trkpt lat="45.95241471358067" lon="11.717667251656716"><ele>367.0</ele><time>2026-04-12T09:18:53.999Z</time></trkpt><trkpt lat="45.95249777505168" lon="11.717617576379252"><ele>348.75</ele><time>2026-04-12T09:18:54.999Z</time></trkpt><trkpt lat="45.95255014828433" lon="11.717447598785546"><ele>330.5</ele><time>2026-04-12T09:18:55.999Z</time></trkpt><trkpt lat="45.9525831571984" lon="11.717259554419384"><ele>312.25</ele><time>2026-04-12T09:18:56.999Z</time></trkpt><trkpt lat="45.95262737474675" lon="11.717048184955974"><ele>294.0</ele><time>2026-04-12T09:18:57.999Z</time></trkpt><trkpt lat="45.952654750781186" lon="11.716809573422118"><ele>294.0</ele><time>2026-04-12T09:18:58.999Z</time></trkpt><trkpt lat="45.952675986514166" lon="11.716610492540218"><ele>294.0</ele><time>2026-04-12T09:18:59.999Z</time></trkpt><trkpt lat="45.952687657181194" lon="11.716307540200951"><ele>294.0</ele><time>2026-04-12T09:19:00.999Z</time></trkpt><trkpt lat="45.95268721219768" lon="11.71601663799303"><ele>299.0</ele><time>2026-04-12T09:19:01.999Z</time></trkpt><trkpt lat="45.95269297811204" lon="11.715754963340032"><ele>304.0</ele><time>2026-04-12T09:19:02.999Z</time></trkpt><trkpt lat="45.95270198293656" lon="11.715506334763102"><ele>309.0</ele><time>2026-04-12T09:19:03.999Z</time></trkpt><trkpt lat="45.95271457064019" lon="11.715260889930942"><ele>318.6666666666667</ele><time>2026-04-12T09:19:04.999Z</time></trkpt><trkpt lat="45.95275587694295" lon="11.71502789938585"><ele>328.33333333333337</ele><time>2026-04-12T09:19:05.999Z</time></trkpt><trkpt lat="45.952814839191255" lon="11.714816905900443"><ele>338.0</ele><time>2026-04-12T09:19:06.999Z</time></trkpt><trkpt lat="45.95285785102265" lon="11.71460821263536"><ele>336.6666666666667</ele><time>2026-04-12T09:19:07.999Z</time></trkpt><trkpt lat="45.95288391282445" lon="11.714398777018145"><ele>335.3333333333333</ele><time>2026-04-12T09:19:08.999Z</time></trkpt><trkpt lat="45.95286608160001" lon="11.714140465636607"><ele>334.0</ele><time>2026-04-12T09:19:09.999Z</time></trkpt><trkpt lat="45.952816306280106" lon="11.713883394869686"><ele>334.0</ele><time>2026-04-12T09:19:10.999Z</time></trkpt><trkpt lat="45.95276243026899" lon="11.713660802995228"><ele>334.0</ele><time>2026-04-12T09:19:11.999Z</time></trkpt><trkpt lat="45.952714788398374" lon="11.713443627093428"><ele>334.0</ele><time>2026-04-12T09:19:12.999Z</time></trkpt><trkpt lat="45.952671663040796" lon="11.713227463605202"><ele>329.25</ele><time>2026-04-12T09:19:13.999Z</time></trkpt><trkpt lat="45.95265788965179" lon="11.71302964315767"><ele>324.5</ele><time>2026-04-12T09:19:14.999Z</time></trkpt><trkpt lat="45.95265312302839" lon="11.712832815184553"><ele>319.75</ele><time>2026-04-12T09:19:15.999Z</time></trkpt><trkpt lat="45.95271897243444" lon="11.712659849840486"><ele>315.0</ele><time>2026-04-12T09:19:16.999Z</time></trkpt><trkpt lat="45.95279633203026" lon="11.712456761019247"><ele>315.0</ele><time>2026-04-12T09:19:17.998Z</time></trkpt><trkpt lat="45.95288846221195" lon="11.712253901432236"><ele>315.0</ele><time>2026-04-12T09:19:18.998Z</time></trkpt><trkpt lat="45.952985745363094" lon="11.71204846281484"><ele>315.0</ele><time>2026-04-12T09:19:19.998Z</time></trkpt><trkpt lat="45.95308725058002" lon="11.711845022305335"><ele>318.3333333333333</ele><time>2026-04-12T09:19:20.998Z</time></trkpt><trkpt lat="45.95313313754064" lon="11.71160382125028"><ele>321.66666666666663</ele><time>2026-04-12T09:19:21.998Z</time></trkpt><trkpt lat="45.95316943753766" lon="11.711339108317029"><ele>325.0</ele><time>2026-04-12T09:19:22.998Z</time></trkpt><trkpt lat="45.95319927147637" lon="11.711064189659943"><ele>332.0</ele><time>2026-04-12T09:19:23.998Z</time></trkpt><trkpt lat="45.95323174120808" lon="11.710788203286986"><ele>339.0</ele><time>2026-04-12T09:19:24.998Z</time></trkpt><trkpt lat="45.95329923334994" lon="11.710551002675384"><ele>346.0</ele><time>2026-04-12T09:19:25.998Z</time></trkpt><trkpt lat="45.953383140617774" lon="11.710307432353826"><ele>324.66666666666663</ele><time>2026-04-12T09:19:26.998Z</time></trkpt><trkpt lat="45.95344054970218" lon="11.710034556275167"><ele>303.3333333333333</ele><time>2026-04-12T09:19:27.998Z</time></trkpt><trkpt lat="45.95348105825411" lon="11.709772231806253"><ele>282.0</ele><time>2026-04-12T09:19:28.998Z</time></trkpt><trkpt lat="45.95349535651085" lon="11.709522275725067"><ele>288.5</ele><time>2026-04-12T09:19:29.998Z</time></trkpt><trkpt lat="45.95351952935956" lon="11.709300594228152"><ele>295.0</ele><time>2026-04-12T09:19:30.998Z</time></trkpt><trkpt lat="45.9535749179089" lon="11.709102157439311"><ele>301.5</ele><time>2026-04-12T09:19:31.998Z</time></trkpt><trkpt lat="45.95365149370921" lon="11.708945791030187"><ele>308.0</ele><time>2026-04-12T09:19:32.998Z</time></trkpt><trkpt lat="45.9537473307529" lon="11.708803389441025"><ele>308.0</ele><time>2026-04-12T09:19:33.998Z</time></trkpt><trkpt lat="45.95382340695535" lon="11.708659584197942"><ele>308.0</ele><time>2026-04-12T09:19:34.998Z</time></trkpt><trkpt lat="45.9538871240589" lon="11.708554312914046"><ele>308.0</ele><time>2026-04-12T09:19:35.998Z</time></trkpt><trkpt lat="45.953942856893455" lon="11.708460593114399"><ele>308.0</ele><time>2026-04-12T09:19:36.998Z</time></trkpt><trkpt lat="45.953985309534055" lon="11.708386953668507"><ele>308.0</ele><time>2026-04-12T09:19:37.998Z</time></trkpt><trkpt lat="45.95405471318054" lon="11.708293117468589"><ele>308.0</ele><time>2026-04-12T09:19:40.998Z</time></trkpt><trkpt lat="45.95407582123695" lon="11.708443311976163"><ele>308.0</ele><time>2026-04-12T09:19:42.998Z</time></trkpt><trkpt lat="45.953993944251344" lon="11.708527339489171"><ele>308.0</ele><time>2026-04-12T09:19:43.998Z</time></trkpt><trkpt lat="45.953923515603556" lon="11.708640707981845"><ele>308.0</ele><time>2026-04-12T09:19:44.998Z</time></trkpt><trkpt lat="45.9538597956429" lon="11.708714101335646"><ele>308.0</ele><time>2026-04-12T09:19:45.998Z</time></trkpt><trkpt lat="45.95381706297569" lon="11.70879251224099"><ele>308.0</ele><time>2026-04-12T09:19:46.998Z</time></trkpt><trkpt lat="45.953777209555476" lon="11.708872429175795"><ele>308.0</ele><time>2026-04-12T09:19:48Z</time></trkpt><trkpt lat="45.953725815748136" lon="11.708962051604416"><ele>308.0</ele><time>2026-04-12T09:19:49Z</time></trkpt><trkpt lat="45.95368350530181" lon="11.709051858636224"><ele>308.0</ele><time>2026-04-12T09:19:50Z</time></trkpt><trkpt lat="45.95364333146622" lon="11.709144909844685"><ele>308.0</ele><time>2026-04-12T09:19:51Z</time></trkpt><trkpt lat="45.95360118389189" lon="11.709244284284997"><ele>308.0</ele><time>2026-04-12T09:19:52Z</time></trkpt><trkpt lat="45.953564222397965" lon="11.709361352585576"><ele>302.8</ele><time>2026-04-12T09:19:53Z</time></trkpt><trkpt lat="45.95353729820853" lon="11.709494266294175"><ele>297.6</ele><time>2026-04-12T09:19:54Z</time></trkpt><trkpt lat="45.953518965263875" lon="11.709623672084904"><ele>292.4</ele><time>2026-04-12T09:19:55Z</time></trkpt><trkpt lat="45.95350864452362" lon="11.709754793132706"><ele>287.2</ele><time>2026-04-12T09:19:56Z</time></trkpt><trkpt lat="45.95350536053483" lon="11.70988111558701"><ele>282.0</ele><time>2026-04-12T09:19:57Z</time></trkpt><trkpt lat="45.95349444342227" lon="11.710003111922326"><ele>282.0</ele><time>2026-04-12T09:19:58Z</time></trkpt><trkpt lat="45.95347695859739" lon="11.71012165065155"><ele>282.0</ele><time>2026-04-12T09:19:59Z</time></trkpt><trkpt lat="45.953453587047626" lon="11.710239739606926"><ele>282.0</ele><time>2026-04-12T09:20:00Z</time></trkpt><trkpt lat="45.95344038084919" lon="11.710354465309962"><ele>282.0</ele><time>2026-04-12T09:20:01Z</time></trkpt><trkpt lat="45.953431807438214" lon="11.71045736074688"><ele>282.0</ele><time>2026-04-12T09:20:02Z</time></trkpt><trkpt lat="45.9534065903525" lon="11.710562587655575"><ele>282.0</ele><time>2026-04-12T09:20:03Z</time></trkpt><trkpt lat="45.95340573255546" lon="11.710663138701747"><ele>279.6666666666667</ele><time>2026-04-12T09:20:04Z</time></trkpt><trkpt lat="45.95340339367785" lon="11.710760870784377"><ele>277.3333333333333</ele><time>2026-04-12T09:20:05Z</time></trkpt><trkpt lat="45.95339941743324" lon="11.710860828454004"><ele>275.0</ele><time>2026-04-12T09:20:06Z</time></trkpt><trkpt lat="45.95339797979503" lon="11.71097232440062"><ele>272.66666666666663</ele><time>2026-04-12T09:20:07Z</time></trkpt><trkpt lat="45.95340810336484" lon="11.711093483124703"><ele>270.3333333333333</ele><time>2026-04-12T09:20:08Z</time></trkpt><trkpt lat="45.953388208676635" lon="11.711214367167656"><ele>268.0</ele><time>2026-04-12T09:20:09Z</time></trkpt><trkpt lat="45.95338804185561" lon="11.711317617246166"><ele>266.14285714285717</ele><time>2026-04-12T09:20:10Z</time></trkpt><trkpt lat="45.95337666079373" lon="11.71142144604919"><ele>264.2857142857143</ele><time>2026-04-12T09:20:11Z</time></trkpt><trkpt lat="45.95336802709486" lon="11.7115326106679"><ele>262.42857142857144</ele><time>2026-04-12T09:20:12Z</time></trkpt><trkpt lat="45.95333802459325" lon="11.711632473530031"><ele>260.57142857142856</ele><time>2026-04-12T09:20:13Z</time></trkpt><trkpt lat="45.95330767303977" lon="11.711726460749015"><ele>258.7142857142857</ele><time>2026-04-12T09:20:14Z</time></trkpt><trkpt lat="45.953275065087446" lon="11.711810648285601"><ele>256.8571428571429</ele><time>2026-04-12T09:20:15Z</time></trkpt><trkpt lat="45.95323302543456" lon="11.711900465464396"><ele>255.0</ele><time>2026-04-12T09:20:16Z</time></trkpt><trkpt lat="45.953198369104854" lon="11.711996399229719"><ele>265.0</ele><time>2026-04-12T09:20:17Z</time></trkpt><trkpt lat="45.95316385333317" lon="11.712073956748107"><ele>275.0</ele><time>2026-04-12T09:20:18Z</time></trkpt><trkpt lat="45.9531444410312" lon="11.712174267473772"><ele>285.0</ele><time>2026-04-12T09:20:19Z</time></trkpt><trkpt lat="45.953131440993005" lon="11.712292072266365"><ele>295.0</ele><time>2026-04-12T09:20:20Z</time></trkpt><trkpt lat="45.95310197082966" lon="11.712399123647135"><ele>305.0</ele><time>2026-04-12T09:20:21Z</time></trkpt><trkpt lat="45.95311346831164" lon="11.712541640756198"><ele>315.0</ele><time>2026-04-12T09:20:22Z</time></trkpt><trkpt lat="45.95311553735571" lon="11.712684028155685"><ele>313.6</ele><time>2026-04-12T09:20:23Z</time></trkpt><trkpt lat="45.95310375254705" lon="11.712857777385812"><ele>312.2</ele><time>2026-04-12T09:20:24Z</time></trkpt><trkpt lat="45.953092611009986" lon="11.713016022228311"><ele>310.8</ele><time>2026-04-12T09:20:25Z</time></trkpt><trkpt lat="45.95310068516023" lon="11.713157248735058"><ele>309.4</ele><time>2026-04-12T09:20:26Z</time></trkpt><trkpt lat="45.953084612474264" lon="11.713290632835212"><ele>308.0</ele><time>2026-04-12T09:20:27Z</time></trkpt><trkpt lat="45.95307047952081" lon="11.713390761955683"><ele>308.0</ele><time>2026-04-12T09:20:28Z</time></trkpt><trkpt lat="45.9530774555262" lon="11.713507077979033"><ele>308.0</ele><time>2026-04-12T09:20:29Z</time></trkpt><trkpt lat="45.953144353217226" lon="11.713562001024904"><ele>308.0</ele><time>2026-04-12T09:20:30.999Z</time></trkpt><trkpt lat="45.95324668643094" lon="11.713511300586196"><ele>308.0</ele><time>2026-04-12T09:20:31.999Z</time></trkpt><trkpt lat="45.95324326676775" lon="11.713325944253777"><ele>308.0</ele><time>2026-04-12T09:20:32.999Z</time></trkpt><trkpt lat="45.95324972945729" lon="11.713201143058692"><ele>308.0</ele><time>2026-04-12T09:20:33.999Z</time></trkpt><trkpt lat="45.95325675033533" lon="11.713074254465942"><ele>308.0</ele><time>2026-04-12T09:20:34.999Z</time></trkpt><trkpt lat="45.95326455774968" lon="11.7129333195383"><ele>308.0</ele><time>2026-04-12T09:20:35.999Z</time></trkpt><trkpt lat="45.95326846330497" lon="11.71278318680539"><ele>308.0</ele><time>2026-04-12T09:20:36.999Z</time></trkpt><trkpt lat="45.95326944523859" lon="11.712617647151898"><ele>308.0</ele><time>2026-04-12T09:20:37.999Z</time></trkpt><trkpt lat="45.953291229633784" lon="11.712457656275125"><ele>309.75</ele><time>2026-04-12T09:20:38.999Z</time></trkpt><trkpt lat="45.95335393581997" lon="11.712292718237274"><ele>311.5</ele><time>2026-04-12T09:20:39.999Z</time></trkpt><trkpt lat="45.953441898438996" lon="11.712132996266403"><ele>313.25</ele><time>2026-04-12T09:20:40.999Z</time></trkpt><trkpt lat="45.95353462934965" lon="11.711992758928039"><ele>315.0</ele><time>2026-04-12T09:20:41.999Z</time></trkpt><trkpt lat="45.95362650640186" lon="11.711876276836417"><ele>300.0</ele><time>2026-04-12T09:20:42.999Z</time></trkpt><trkpt lat="45.953693169806904" lon="11.71172863129505"><ele>285.0</ele><time>2026-04-12T09:20:43.999Z</time></trkpt><trkpt lat="45.95373490051632" lon="11.71155876608643"><ele>270.0</ele><time>2026-04-12T09:20:44.999Z</time></trkpt><trkpt lat="45.953740827871336" lon="11.711349648393242"><ele>255.0</ele><time>2026-04-12T09:20:45.999Z</time></trkpt><trkpt lat="45.953741131459104" lon="11.711135357368104"><ele>258.25</ele><time>2026-04-12T09:20:46.999Z</time></trkpt><trkpt lat="45.953736797592605" lon="11.710941945583377"><ele>261.5</ele><time>2026-04-12T09:20:47.999Z</time></trkpt><trkpt lat="45.95377121859693" lon="11.710753982798979"><ele>264.75</ele><time>2026-04-12T09:20:48.999Z</time></trkpt><trkpt lat="45.953839665072955" lon="11.710575124070742"><ele>268.0</ele><time>2026-04-12T09:20:49.999Z</time></trkpt><trkpt lat="45.95389659476483" lon="11.710385980155571"><ele>271.5</ele><time>2026-04-12T09:20:50.999Z</time></trkpt><trkpt lat="45.95397017192661" lon="11.710200741018697"><ele>275.0</ele><time>2026-04-12T09:20:51.999Z</time></trkpt><trkpt lat="45.95404477779238" lon="11.710018502952934"><ele>278.5</ele><time>2026-04-12T09:20:52.999Z</time></trkpt><trkpt lat="45.95411521991622" lon="11.709852287970728"><ele>282.0</ele><time>2026-04-12T09:20:53.999Z</time></trkpt><trkpt lat="45.954184485173286" lon="11.709694614171283"><ele>276.5</ele><time>2026-04-12T09:20:54.999Z</time></trkpt><trkpt lat="45.95423978424904" lon="11.709539946562641"><ele>271.0</ele><time>2026-04-12T09:20:55.999Z</time></trkpt><trkpt lat="45.95432472521353" lon="11.70941531424175"><ele>265.5</ele><time>2026-04-12T09:20:56.999Z</time></trkpt><trkpt lat="45.95441027203175" lon="11.709274757047778"><ele>260.0</ele><time>2026-04-12T09:20:57.999Z</time></trkpt><trkpt lat="45.95448297602683" lon="11.709137756986555"><ele>260.0</ele><time>2026-04-12T09:20:58.999Z</time></trkpt><trkpt lat="45.95454164090473" lon="11.708994678830436"><ele>260.0</ele><time>2026-04-12T09:20:59.999Z</time></trkpt><trkpt lat="45.95461241714308" lon="11.708857129906365"><ele>260.0</ele><time>2026-04-12T09:21:00.999Z</time></trkpt><trkpt lat="45.95466437508608" lon="11.708721604436052"><ele>260.0</ele><time>2026-04-12T09:21:01.999Z</time></trkpt><trkpt lat="45.954718523592135" lon="11.708620531716644"><ele>260.0</ele><time>2026-04-12T09:21:02.999Z</time></trkpt><trkpt lat="45.95476196432623" lon="11.708536594277659"><ele>260.0</ele><time>2026-04-12T09:21:03.999Z</time></trkpt><trkpt lat="45.954797991022964" lon="11.708451459494771"><ele>260.0</ele><time>2026-04-12T09:21:04.999Z</time></trkpt><trkpt lat="45.95485363668473" lon="11.708362381039265"><ele>260.0</ele><time>2026-04-12T09:21:06.999Z</time></trkpt><trkpt lat="45.95490484795564" lon="11.70830870313248"><ele>260.0</ele><time>2026-04-12T09:21:08.999Z</time></trkpt><trkpt lat="45.95494657029612" lon="11.708424479661902"><ele>260.0</ele><time>2026-04-12T09:21:10.999Z</time></trkpt><trkpt lat="45.95491495471201" lon="11.708516952399469"><ele>260.0</ele><time>2026-04-12T09:21:11.999Z</time></trkpt><trkpt lat="45.95485001866229" lon="11.708614870774264"><ele>260.0</ele><time>2026-04-12T09:21:12.999Z</time></trkpt><trkpt lat="45.95478402590088" lon="11.708728720486032"><ele>260.0</ele><time>2026-04-12T09:21:13.999Z</time></trkpt><trkpt lat="45.95474089927653" lon="11.708855579951326"><ele>260.0</ele><time>2026-04-12T09:21:14.999Z</time></trkpt><trkpt lat="45.954696859854906" lon="11.70897603487274"><ele>260.0</ele><time>2026-04-12T09:21:15.999Z</time></trkpt><trkpt lat="45.95463898631751" lon="11.709084304873233"><ele>260.0</ele><time>2026-04-12T09:21:16.999Z</time></trkpt><trkpt lat="45.954595827843924" lon="11.709208739378814"><ele>260.0</ele><time>2026-04-12T09:21:17.999Z</time></trkpt><trkpt lat="45.954547139824" lon="11.709324243278182"><ele>260.0</ele><time>2026-04-12T09:21:18.999Z</time></trkpt><trkpt lat="45.95450532307834" lon="11.709445774154284"><ele>260.0</ele><time>2026-04-12T09:21:19.999Z</time></trkpt><trkpt lat="45.9544755658527" lon="11.709565081832062"><ele>260.0</ele><time>2026-04-12T09:21:20.999Z</time></trkpt><trkpt lat="45.95445167853611" lon="11.709704002315254"><ele>260.0</ele><time>2026-04-12T09:21:21.999Z</time></trkpt><trkpt lat="45.95442443156947" lon="11.709826263276733"><ele>256.8</ele><time>2026-04-12T09:21:22.998Z</time></trkpt><trkpt lat="45.95438610102319" lon="11.709944776704939"><ele>253.6</ele><time>2026-04-12T09:21:23.998Z</time></trkpt><trkpt lat="45.9543519324383" lon="11.710072303374698"><ele>250.39999999999998</ele><time>2026-04-12T09:21:24.998Z</time></trkpt><trkpt lat="45.95432400706385" lon="11.71020658343668"><ele>247.2</ele><time>2026-04-12T09:21:25.998Z</time></trkpt><trkpt lat="45.954297940771454" lon="11.710337092750747"><ele>244.0</ele><time>2026-04-12T09:21:26.998Z</time></trkpt><trkpt lat="45.95427642106228" lon="11.710470393684469"><ele>245.83333333333331</ele><time>2026-04-12T09:21:27.998Z</time></trkpt><trkpt lat="45.954253139136306" lon="11.710591241075157"><ele>247.66666666666666</ele><time>2026-04-12T09:21:28.998Z</time></trkpt><trkpt lat="45.95422769438678" lon="11.710701249691207"><ele>249.5</ele><time>2026-04-12T09:21:29.998Z</time></trkpt><trkpt lat="45.95419669121042" lon="11.710809408984986"><ele>251.33333333333331</ele><time>2026-04-12T09:21:30.998Z</time></trkpt><trkpt lat="45.95415410312401" lon="11.710909686492624"><ele>253.16666666666666</ele><time>2026-04-12T09:21:31.998Z</time></trkpt><trkpt lat="45.95412551076606" lon="11.711007275968784"><ele>255.0</ele><time>2026-04-12T09:21:32.998Z</time></trkpt><trkpt lat="45.954105281179835" lon="11.711107183531487"><ele>255.0</ele><time>2026-04-12T09:21:33.998Z</time></trkpt><trkpt lat="45.954077451936456" lon="11.711245942790777"><ele>255.0</ele><time>2026-04-12T09:21:35.998Z</time></trkpt><trkpt lat="45.95413525894242" lon="11.711350865356295"><ele>255.0</ele><time>2026-04-12T09:21:37.998Z</time></trkpt><trkpt lat="45.95422965650168" lon="11.711301024210336"><ele>255.0</ele><time>2026-04-12T09:21:38.998Z</time></trkpt><trkpt lat="45.95426258726712" lon="11.711141259845487"><ele>255.0</ele><time>2026-04-12T09:21:39.998Z</time></trkpt><trkpt lat="45.9542973181611" lon="11.711030114788372"><ele>251.0</ele><time>2026-04-12T09:21:40.998Z</time></trkpt><trkpt lat="45.954324277593706" lon="11.710930267049552"><ele>247.00000000000003</ele><time>2026-04-12T09:21:41.998Z</time></trkpt><trkpt lat="45.954356465263885" lon="11.71083447621906"><ele>243.0</ele><time>2026-04-12T09:21:42.998Z</time></trkpt><trkpt lat="45.95440911854489" lon="11.710733541272935"><ele>239.0</ele><time>2026-04-12T09:21:43.998Z</time></trkpt><trkpt lat="45.95445819953391" lon="11.710657478170518"><ele>235.00000000000003</ele><time>2026-04-12T09:21:44.998Z</time></trkpt><trkpt lat="45.954490536539225" lon="11.71056315494668"><ele>231.0</ele><time>2026-04-12T09:21:45.998Z</time></trkpt><trkpt lat="45.9545216431976" lon="11.710483045904292"><ele>227.0</ele><time>2026-04-12T09:21:46.998Z</time></trkpt><trkpt lat="45.95455328072402" lon="11.710399132937628"><ele>227.0</ele><time>2026-04-12T09:21:47.998Z</time></trkpt><trkpt lat="45.95458630456125" lon="11.710314235727227"><ele>227.00000000000003</ele><time>2026-04-12T09:21:48.998Z</time></trkpt><trkpt lat="45.95461950997859" lon="11.710218027163652"><ele>227.0</ele><time>2026-04-12T09:21:49.998Z</time></trkpt><trkpt lat="45.954649893047346" lon="11.710138541996724"><ele>227.0</ele><time>2026-04-12T09:21:50.998Z</time></trkpt><trkpt lat="45.954689308807716" lon="11.710050421163523"><ele>227.00000000000003</ele><time>2026-04-12T09:21:51.998Z</time></trkpt><trkpt lat="45.95472392140724" lon="11.70996317367306"><ele>227.0</ele><time>2026-04-12T09:21:52.998Z</time></trkpt><trkpt lat="45.95476200377812" lon="11.709885981581195"><ele>227.0</ele><time>2026-04-12T09:21:54Z</time></trkpt><trkpt lat="45.954807976741144" lon="11.70980103194642"><ele>228.00000000000003</ele><time>2026-04-12T09:21:55Z</time></trkpt><trkpt lat="45.95485754434925" lon="11.709718612615536"><ele>229.0</ele><time>2026-04-12T09:21:56Z</time></trkpt><trkpt lat="45.954903422682065" lon="11.709626998376201"><ele>230.0</ele><time>2026-04-12T09:21:57Z</time></trkpt><trkpt lat="45.95494517307324" lon="11.709533188661677"><ele>231.0</ele><time>2026-04-12T09:21:58Z</time></trkpt><trkpt lat="45.95500083034218" lon="11.709459439257587"><ele>232.00000000000003</ele><time>2026-04-12T09:21:59Z</time></trkpt><trkpt lat="45.9550499889759" lon="11.709373252246086"><ele>233.0</ele><time>2026-04-12T09:22:00Z</time></trkpt><trkpt lat="45.95510329983834" lon="11.70928875481497"><ele>233.0</ele><time>2026-04-12T09:22:01Z</time></trkpt><trkpt lat="45.9551509404194" lon="11.709193445988511"><ele>233.0</ele><time>2026-04-12T09:22:02Z</time></trkpt><trkpt lat="45.95521692142235" lon="11.709109401675153"><ele>233.0</ele><time>2026-04-12T09:22:03Z</time></trkpt><trkpt lat="45.95529330111573" lon="11.709026093334689"><ele>233.0</ele><time>2026-04-12T09:22:04Z</time></trkpt><trkpt lat="45.95537122750528" lon="11.708936516258298"><ele>233.0</ele><time>2026-04-12T09:22:05Z</time></trkpt><trkpt lat="45.955451028652526" lon="11.708849195184865"><ele>233.0</ele><time>2026-04-12T09:22:06Z</time></trkpt><trkpt lat="45.9555326261281" lon="11.708768405574462"><ele>233.0</ele><time>2026-04-12T09:22:07Z</time></trkpt><trkpt lat="45.95561470442571" lon="11.708698260589873"><ele>233.0</ele><time>2026-04-12T09:22:08Z</time></trkpt><trkpt lat="45.95569397506032" lon="11.708623673913447"><ele>233.0</ele><time>2026-04-12T09:22:09Z</time></trkpt><trkpt lat="45.955781761212485" lon="11.708544879119248"><ele>233.0</ele><time>2026-04-12T09:22:10Z</time></trkpt><trkpt lat="45.95588284434737" lon="11.708462573743223"><ele>232.0</ele><time>2026-04-12T09:22:11Z</time></trkpt><trkpt lat="45.95597950392226" lon="11.708378151305935"><ele>231.0</ele><time>2026-04-12T09:22:12Z</time></trkpt><trkpt lat="45.95609742233653" lon="11.70831496567241"><ele>230.0</ele><time>2026-04-12T09:22:13Z</time></trkpt><trkpt lat="45.95621562300842" lon="11.708243638112926"><ele>229.0</ele><time>2026-04-12T09:22:14Z</time></trkpt><trkpt lat="45.95633154486535" lon="11.708183516214994"><ele>229.0</ele><time>2026-04-12T09:22:15Z</time></trkpt><trkpt lat="45.95644926577673" lon="11.708126423852207"><ele>229.0</ele><time>2026-04-12T09:22:16Z</time></trkpt><trkpt lat="45.95656737604129" lon="11.708075646693521"><ele>229.0</ele><time>2026-04-12T09:22:17Z</time></trkpt><trkpt lat="45.95669031521544" lon="11.708007764109102"><ele>229.0</ele><time>2026-04-12T09:22:18Z</time></trkpt><trkpt lat="45.95681535157183" lon="11.707939336873974"><ele>230.75</ele><time>2026-04-12T09:22:19Z</time></trkpt><trkpt lat="45.95693691017633" lon="11.70787618798456"><ele>232.5</ele><time>2026-04-12T09:22:20Z</time></trkpt><trkpt lat="45.95705102080689" lon="11.707805970480981"><ele>234.25</ele><time>2026-04-12T09:22:21Z</time></trkpt><trkpt lat="45.95715975957825" lon="11.707744054934398"><ele>236.0</ele><time>2026-04-12T09:22:22Z</time></trkpt><trkpt lat="45.95727040725178" lon="11.707685576823039"><ele>236.0</ele><time>2026-04-12T09:22:23Z</time></trkpt><trkpt lat="45.95739694379979" lon="11.70763961426894"><ele>236.0</ele><time>2026-04-12T09:22:24Z</time></trkpt><trkpt lat="45.957526390385226" lon="11.707591182255266"><ele>236.0</ele><time>2026-04-12T09:22:25Z</time></trkpt><trkpt lat="45.95765445744347" lon="11.707523354010748"><ele>236.0</ele><time>2026-04-12T09:22:26Z</time></trkpt><trkpt lat="45.957785436760176" lon="11.70743988637589"><ele>231.25</ele><time>2026-04-12T09:22:27Z</time></trkpt><trkpt lat="45.95790759463355" lon="11.707330178524865"><ele>226.5</ele><time>2026-04-12T09:22:28Z</time></trkpt><trkpt lat="45.95802626026797" lon="11.707224683465453"><ele>221.75</ele><time>2026-04-12T09:22:29Z</time></trkpt><trkpt lat="45.958130594646" lon="11.707113021320286"><ele>217.0</ele><time>2026-04-12T09:22:30Z</time></trkpt><trkpt lat="45.95823711590807" lon="11.707011601058399"><ele>217.0</ele><time>2026-04-12T09:22:31Z</time></trkpt><trkpt lat="45.958341709969666" lon="11.70691479641231"><ele>217.0</ele><time>2026-04-12T09:22:32Z</time></trkpt><trkpt lat="45.95844400281674" lon="11.706824810998006"><ele>217.0</ele><time>2026-04-12T09:22:33Z</time></trkpt><trkpt lat="45.95853474460399" lon="11.706748828388411"><ele>217.0</ele><time>2026-04-12T09:22:34Z</time></trkpt><trkpt lat="45.95861537118448" lon="11.706681135941416"><ele>217.0</ele><time>2026-04-12T09:22:35Z</time></trkpt><trkpt lat="45.958705937683746" lon="11.706630371433285"><ele>218.8</ele><time>2026-04-12T09:22:36Z</time></trkpt><trkpt lat="45.95879718251424" lon="11.706594442080869"><ele>220.6</ele><time>2026-04-12T09:22:36.999Z</time></trkpt><trkpt lat="45.95889119475474" lon="11.706562341015443"><ele>222.40000000000003</ele><time>2026-04-12T09:22:37.999Z</time></trkpt><trkpt lat="45.958994909123746" lon="11.706551765716368"><ele>224.20000000000002</ele><time>2026-04-12T09:22:38.999Z</time></trkpt><trkpt lat="45.95909051518289" lon="11.706549821792628"><ele>226.0</ele><time>2026-04-12T09:22:39.999Z</time></trkpt><trkpt lat="45.95919155701241" lon="11.706572274459907"><ele>226.20000000000002</ele><time>2026-04-12T09:22:40.999Z</time></trkpt><trkpt lat="45.959293159723025" lon="11.706605503830202"><ele>226.40000000000003</ele><time>2026-04-12T09:22:41.999Z</time></trkpt><trkpt lat="45.959394468093336" lon="11.706636152363918"><ele>226.6</ele><time>2026-04-12T09:22:42.999Z</time></trkpt><trkpt lat="45.95948894649815" lon="11.706651289447423"><ele>226.8</ele><time>2026-04-12T09:22:43.999Z</time></trkpt><trkpt lat="45.959589850820876" lon="11.706656465666144"><ele>227.0</ele><time>2026-04-12T09:22:44.999Z</time></trkpt><trkpt lat="45.95970058370134" lon="11.706650322071818"><ele>227.0</ele><time>2026-04-12T09:22:45.999Z</time></trkpt><trkpt lat="45.95981078749719" lon="11.706641251612858"><ele>227.0</ele><time>2026-04-12T09:22:46.999Z</time></trkpt><trkpt lat="45.95992297212925" lon="11.70662187220226"><ele>227.0</ele><time>2026-04-12T09:22:47.999Z</time></trkpt><trkpt lat="45.960035929945846" lon="11.706603332459213"><ele>227.0</ele><time>2026-04-12T09:22:48.999Z</time></trkpt><trkpt lat="45.960149611523434" lon="11.706581831764415"><ele>224.2</ele><time>2026-04-12T09:22:49.999Z</time></trkpt><trkpt lat="45.960269131235826" lon="11.7065641588884"><ele>221.39999999999998</ele><time>2026-04-12T09:22:50.999Z</time></trkpt><trkpt lat="45.960386531139505" lon="11.706570090943409"><ele>218.60000000000002</ele><time>2026-04-12T09:22:51.999Z</time></trkpt><trkpt lat="45.960494766659124" lon="11.706600827825353"><ele>215.8</ele><time>2026-04-12T09:22:52.999Z</time></trkpt><trkpt lat="45.96058687087894" lon="11.70663690529306"><ele>213.0</ele><time>2026-04-12T09:22:53.999Z</time></trkpt><trkpt lat="45.96066787537994" lon="11.706673200314242"><ele>213.0</ele><time>2026-04-12T09:22:54.999Z</time></trkpt><trkpt lat="45.9607319595079" lon="11.706706211331767"><ele>213.0</ele><time>2026-04-12T09:22:55.999Z</time></trkpt><trkpt lat="45.960813935155656" lon="11.706765122478338"><ele>213.0</ele><time>2026-04-12T09:22:57.999Z</time></trkpt><trkpt lat="45.96087150968366" lon="11.706836019800788"><ele>213.0</ele><time>2026-04-12T09:23:00.999Z</time></trkpt><trkpt lat="45.96093394881017" lon="11.706971706954157"><ele>213.0</ele><time>2026-04-12T09:23:03.999Z</time></trkpt><trkpt lat="45.960941173660096" lon="11.707064137439627"><ele>213.0</ele><time>2026-04-12T09:23:04.999Z</time></trkpt><trkpt lat="45.96093722678132" lon="11.707168742024113"><ele>213.2</ele><time>2026-04-12T09:23:05.999Z</time></trkpt><trkpt lat="45.960909209776005" lon="11.707265815835346"><ele>213.4</ele><time>2026-04-12T09:23:06.999Z</time></trkpt><trkpt lat="45.960870636954056" lon="11.70736106440166"><ele>213.59999999999997</ele><time>2026-04-12T09:23:07.999Z</time></trkpt><trkpt lat="45.960799321008096" lon="11.707450761594334"><ele>213.79999999999998</ele><time>2026-04-12T09:23:08.999Z</time></trkpt><trkpt lat="45.960701355691626" lon="11.707536176531812"><ele>214.0</ele><time>2026-04-12T09:23:09.999Z</time></trkpt><trkpt lat="45.960580396558484" lon="11.707641786833433"><ele>214.0</ele><time>2026-04-12T09:23:10.999Z</time></trkpt><trkpt lat="45.96046241715946" lon="11.707758083366796"><ele>214.0</ele><time>2026-04-12T09:23:11.999Z</time></trkpt><trkpt lat="45.96033150585096" lon="11.707880774986604"><ele>214.0</ele><time>2026-04-12T09:23:12.999Z</time></trkpt><trkpt lat="45.96019542991669" lon="11.70801045728867"><ele>214.0</ele><time>2026-04-12T09:23:13.999Z</time></trkpt><trkpt lat="45.9600671478251" lon="11.708132293739755"><ele>214.0</ele><time>2026-04-12T09:23:14.999Z</time></trkpt><trkpt lat="45.959947095451" lon="11.708254706384663"><ele>214.0</ele><time>2026-04-12T09:23:15.999Z</time></trkpt><trkpt lat="45.95982514488953" lon="11.708380865026788"><ele>214.66666666666666</ele><time>2026-04-12T09:23:16.999Z</time></trkpt><trkpt lat="45.95970236822713" lon="11.708507263337648"><ele>215.33333333333331</ele><time>2026-04-12T09:23:17.999Z</time></trkpt><trkpt lat="45.95957599228248" lon="11.708643037548205"><ele>216.0</ele><time>2026-04-12T09:23:18.999Z</time></trkpt><trkpt lat="45.95944297533962" lon="11.708784308581352"><ele>216.0</ele><time>2026-04-12T09:23:19.999Z</time></trkpt><trkpt lat="45.95930690380959" lon="11.708933222809952"><ele>216.0</ele><time>2026-04-12T09:23:20.999Z</time></trkpt><trkpt lat="45.95917137811137" lon="11.709075983427109"><ele>216.0</ele><time>2026-04-12T09:23:21.999Z</time></trkpt><trkpt lat="45.95903656673837" lon="11.709217730712549"><ele>216.0</ele><time>2026-04-12T09:23:22.999Z</time></trkpt><trkpt lat="45.9588893799894" lon="11.709361052769413"><ele>216.0</ele><time>2026-04-12T09:23:23.999Z</time></trkpt><trkpt lat="45.958738639506194" lon="11.7095019979946"><ele>216.0</ele><time>2026-04-12T09:23:24.999Z</time></trkpt><trkpt lat="45.95858523777885" lon="11.709652510868578"><ele>215.66666666666669</ele><time>2026-04-12T09:23:25.999Z</time></trkpt><trkpt lat="45.95843500034525" lon="11.709799035257689"><ele>215.33333333333334</ele><time>2026-04-12T09:23:26.999Z</time></trkpt><trkpt lat="45.95829598256538" lon="11.709930922226738"><ele>215.0</ele><time>2026-04-12T09:23:27.999Z</time></trkpt><trkpt lat="45.958163160513465" lon="11.71005420779772"><ele>215.0</ele><time>2026-04-12T09:23:28.999Z</time></trkpt><trkpt lat="45.95802623226813" lon="11.71018140977646"><ele>215.0</ele><time>2026-04-12T09:23:29.999Z</time></trkpt><trkpt lat="45.95788611819139" lon="11.710305177492979"><ele>215.0</ele><time>2026-04-12T09:23:30.999Z</time></trkpt><trkpt lat="45.957746131099974" lon="11.71043601586019"><ele>214.66666666666669</ele><time>2026-04-12T09:23:31.998Z</time></trkpt><trkpt lat="45.957592566190485" lon="11.710577789057464"><ele>214.33333333333331</ele><time>2026-04-12T09:23:32.998Z</time></trkpt><trkpt lat="45.95743430771507" lon="11.710718207235827"><ele>214.0</ele><time>2026-04-12T09:23:33.998Z</time></trkpt><trkpt lat="45.95727011244763" lon="11.710866742491396"><ele>214.0</ele><time>2026-04-12T09:23:34.998Z</time></trkpt><trkpt lat="45.957105244580134" lon="11.711023853070081"><ele>214.0</ele><time>2026-04-12T09:23:35.998Z</time></trkpt><trkpt lat="45.95693332359736" lon="11.711189577334775"><ele>214.0</ele><time>2026-04-12T09:23:36.998Z</time></trkpt><trkpt lat="45.956766091423276" lon="11.711353521762174"><ele>214.33333333333331</ele><time>2026-04-12T09:23:37.998Z</time></trkpt><trkpt lat="45.95660321741578" lon="11.711532229912226"><ele>214.66666666666669</ele><time>2026-04-12T09:23:38.998Z</time></trkpt><trkpt lat="45.95644450006859" lon="11.711714422687066"><ele>215.0</ele><time>2026-04-12T09:23:39.998Z</time></trkpt><trkpt lat="45.956290775669515" lon="11.711903739890674"><ele>215.33333333333334</ele><time>2026-04-12T09:23:40.998Z</time></trkpt><trkpt lat="45.95613880471528" lon="11.712102619481955"><ele>215.66666666666669</ele><time>2026-04-12T09:23:41.998Z</time></trkpt><trkpt lat="45.955993705775434" lon="11.71229947244896"><ele>216.0</ele><time>2026-04-12T09:23:42.998Z</time></trkpt><trkpt lat="45.955852953602786" lon="11.712497702673938"><ele>216.0</ele><time>2026-04-12T09:23:43.998Z</time></trkpt><trkpt lat="45.95571507982007" lon="11.712688731546852"><ele>216.0</ele><time>2026-04-12T09:23:44.998Z</time></trkpt><trkpt lat="45.955578961913176" lon="11.712878642538808"><ele>216.0</ele><time>2026-04-12T09:23:45.998Z</time></trkpt><trkpt lat="45.95544491905964" lon="11.713072274587295"><ele>223.66666666666669</ele><time>2026-04-12T09:23:46.998Z</time></trkpt><trkpt lat="45.95531182504944" lon="11.713274155014732"><ele>231.33333333333334</ele><time>2026-04-12T09:23:47.998Z</time></trkpt><trkpt lat="45.95518801146442" lon="11.71348565630719"><ele>239.0</ele><time>2026-04-12T09:23:48.998Z</time></trkpt><trkpt lat="45.95507557031287" lon="11.713710109433578"><ele>235.0</ele><time>2026-04-12T09:23:49.998Z</time></trkpt><trkpt lat="45.95497479160344" lon="11.71394434335379"><ele>231.0</ele><time>2026-04-12T09:23:50.998Z</time></trkpt><trkpt lat="45.95488568269765" lon="11.714188784474267"><ele>227.0</ele><time>2026-04-12T09:23:51.998Z</time></trkpt><trkpt lat="45.95480662062337" lon="11.714441845370336"><ele>227.0</ele><time>2026-04-12T09:23:52.998Z</time></trkpt><trkpt lat="45.95474121254341" lon="11.714701344472545"><ele>227.0</ele><time>2026-04-12T09:23:53.998Z</time></trkpt><trkpt lat="45.9546876783252" lon="11.714968957077389"><ele>227.0</ele><time>2026-04-12T09:23:54.998Z</time></trkpt><trkpt lat="45.95464297152185" lon="11.715238544626551"><ele>225.66666666666669</ele><time>2026-04-12T09:23:55.998Z</time></trkpt><trkpt lat="45.954605368539816" lon="11.71551582947523"><ele>224.33333333333331</ele><time>2026-04-12T09:23:56.998Z</time></trkpt><trkpt lat="45.95457655088122" lon="11.715798260835221"><ele>223.0</ele><time>2026-04-12T09:23:57.998Z</time></trkpt><trkpt lat="45.9545480245323" lon="11.716085508460273"><ele>223.0</ele><time>2026-04-12T09:23:58.998Z</time></trkpt><trkpt lat="45.9545233003981" lon="11.71637868225557"><ele>223.0</ele><time>2026-04-12T09:24:00Z</time></trkpt><trkpt lat="45.954503153774915" lon="11.7166790269239"><ele>223.0</ele><time>2026-04-12T09:24:01Z</time></trkpt><trkpt lat="45.954480109024765" lon="11.716988860064884"><ele>226.33333333333331</ele><time>2026-04-12T09:24:02Z</time></trkpt><trkpt lat="45.95445611126529" lon="11.717305409234424"><ele>229.66666666666669</ele><time>2026-04-12T09:24:03Z</time></trkpt><trkpt lat="45.95442994576714" lon="11.717616519474872"><ele>233.0</ele><time>2026-04-12T09:24:04Z</time></trkpt><trkpt lat="45.95439587285215" lon="11.71793352924545"><ele>243.0</ele><time>2026-04-12T09:24:05Z</time></trkpt><trkpt lat="45.9543465987291" lon="11.71824744660402"><ele>253.0</ele><time>2026-04-12T09:24:06Z</time></trkpt><trkpt lat="45.954279157885374" lon="11.718561560991333"><ele>232.0</ele><time>2026-04-12T09:24:07Z</time></trkpt><trkpt lat="45.954200391843" lon="11.718875743112898"><ele>211.0</ele><time>2026-04-12T09:24:08Z</time></trkpt><trkpt lat="45.95410996228188" lon="11.719180675703724"><ele>216.0</ele><time>2026-04-12T09:24:09Z</time></trkpt><trkpt lat="45.95401003123531" lon="11.719473899226418"><ele>221.0</ele><time>2026-04-12T09:24:10Z</time></trkpt><trkpt lat="45.953894837216026" lon="11.719761461685872"><ele>221.0</ele><time>2026-04-12T09:24:11Z</time></trkpt><trkpt lat="45.953768256846644" lon="11.720036307578116"><ele>221.0</ele><time>2026-04-12T09:24:12Z</time></trkpt><trkpt lat="45.953633312313094" lon="11.72030160768333"><ele>219.5</ele><time>2026-04-12T09:24:13Z</time></trkpt><trkpt lat="45.95348984558518" lon="11.720559549184628"><ele>218.0</ele><time>2026-04-12T09:24:14Z</time></trkpt><trkpt lat="45.95334159166739" lon="11.72080599224996"><ele>218.0</ele><time>2026-04-12T09:24:15Z</time></trkpt><trkpt lat="45.9531916541667" lon="11.72103764491892"><ele>218.0</ele><time>2026-04-12T09:24:16Z</time></trkpt><trkpt lat="45.953058858105365" lon="11.721265115607446"><ele>218.0</ele><time>2026-04-12T09:24:17Z</time></trkpt><trkpt lat="45.95292939861123" lon="11.721471132885707"><ele>219.0</ele><time>2026-04-12T09:24:18Z</time></trkpt><trkpt lat="45.952807191810074" lon="11.721669265511801"><ele>220.0</ele><time>2026-04-12T09:24:19Z</time></trkpt><trkpt lat="45.95268945983204" lon="11.721864821900969"><ele>221.0</ele><time>2026-04-12T09:24:20Z</time></trkpt><trkpt lat="45.95257375605923" lon="11.7220482991001"><ele>222.0</ele><time>2026-04-12T09:24:21Z</time></trkpt><trkpt lat="45.95245957630366" lon="11.722225283620078"><ele>223.0</ele><time>2026-04-12T09:24:22Z</time></trkpt><trkpt lat="45.95234610051676" lon="11.722412695068318"><ele>224.0</ele><time>2026-04-12T09:24:23Z</time></trkpt><trkpt lat="45.95223438864127" lon="11.722593615723902"><ele>252.66666666666669</ele><time>2026-04-12T09:24:24Z</time></trkpt><trkpt lat="45.952128498507136" lon="11.722770618909657"><ele>281.3333333333333</ele><time>2026-04-12T09:24:25Z</time></trkpt><trkpt lat="45.952029970597614" lon="11.722934235364416"><ele>310.0</ele><time>2026-04-12T09:24:26Z</time></trkpt><trkpt lat="45.95193701057914" lon="11.723085776331892"><ele>310.0</ele><time>2026-04-12T09:24:27Z</time></trkpt><trkpt lat="45.95184237215908" lon="11.723245361641023"><ele>310.0</ele><time>2026-04-12T09:24:28Z</time></trkpt><trkpt lat="45.951745554210206" lon="11.723409817409358"><ele>310.0</ele><time>2026-04-12T09:24:29Z</time></trkpt><trkpt lat="45.951635983288476" lon="11.723569718219156"><ele>323.0</ele><time>2026-04-12T09:24:30Z</time></trkpt><trkpt lat="45.95152050374474" lon="11.72372125134559"><ele>336.0</ele><time>2026-04-12T09:24:31Z</time></trkpt><trkpt lat="45.95137685150806" lon="11.723819508139858"><ele>349.0</ele><time>2026-04-12T09:24:32Z</time></trkpt><trkpt lat="45.95122080786196" lon="11.723897898344502"><ele>349.0</ele><time>2026-04-12T09:24:33Z</time></trkpt><trkpt lat="45.95107744554622" lon="11.723972828264737"><ele>349.0</ele><time>2026-04-12T09:24:34Z</time></trkpt><trkpt lat="45.950936990647236" lon="11.724035243591114"><ele>349.0</ele><time>2026-04-12T09:24:35Z</time></trkpt><trkpt lat="45.950800046271404" lon="11.72410709274431"><ele>349.0</ele><time>2026-04-12T09:24:36Z</time></trkpt><trkpt lat="45.9506596549627" lon="11.724156253822116"><ele>323.3333333333333</ele><time>2026-04-12T09:24:37Z</time></trkpt><trkpt lat="45.950519310451604" lon="11.724178950560123"><ele>297.6666666666667</ele><time>2026-04-12T09:24:38Z</time></trkpt><trkpt lat="45.950370262387516" lon="11.724255931571205"><ele>272.0</ele><time>2026-04-12T09:24:39Z</time></trkpt><trkpt lat="45.950210555226455" lon="11.72426266763368"><ele>284.33333333333337</ele><time>2026-04-12T09:24:40Z</time></trkpt><trkpt lat="45.95002662302104" lon="11.724150199653268"><ele>296.6666666666667</ele><time>2026-04-12T09:24:41Z</time></trkpt><trkpt lat="45.9498829958598" lon="11.723951233387703"><ele>309.0</ele><time>2026-04-12T09:24:42Z</time></trkpt><trkpt lat="45.95001293282586" lon="11.724323744528679"><ele>309.0</ele><time>2026-04-12T09:24:42.999Z</time></trkpt><trkpt lat="45.94994159109316" lon="11.72423428876449"><ele>309.0</ele><time>2026-04-12T09:24:43.999Z</time></trkpt><trkpt lat="45.94989815426492" lon="11.724101354290232"><ele>309.0</ele><time>2026-04-12T09:24:44.999Z</time></trkpt><trkpt lat="45.94987209106779" lon="11.723944521953458"><ele>309.0</ele><time>2026-04-12T09:24:45.999Z</time></trkpt><trkpt lat="45.94986854321581" lon="11.72376410750202"><ele>309.0</ele><time>2026-04-12T09:24:46.999Z</time></trkpt><trkpt lat="45.94991551127619" lon="11.723559155562771"><ele>309.0</ele><time>2026-04-12T09:24:47.999Z</time></trkpt><trkpt lat="45.94993132359775" lon="11.723360138030229"><ele>309.0</ele><time>2026-04-12T09:24:48.999Z</time></trkpt><trkpt lat="45.94994783285493" lon="11.723178679569095"><ele>309.0</ele><time>2026-04-12T09:24:49.999Z</time></trkpt><trkpt lat="45.94996648993909" lon="11.722993378303523"><ele>309.0</ele><time>2026-04-12T09:24:51.018Z</time></trkpt><trkpt lat="45.94998484264881" lon="11.722811100104614"><ele>318.0</ele><time>2026-04-12T09:24:52.02Z</time></trkpt><trkpt lat="45.95000317501897" lon="11.72262902392208"><ele>327.0</ele><time>2026-04-12T09:24:53.019Z</time></trkpt><trkpt lat="45.95002148700338" lon="11.722447150211028"><ele>336.0</ele><time>2026-04-12T09:24:54.019Z</time></trkpt><trkpt lat="45.950023178718276" lon="11.722261600984387"><ele>345.0</ele><time>2026-04-12T09:24:55.018Z</time></trkpt><trkpt lat="45.95096385811508" lon="11.720035013494497"><ele>218.0</ele><time>2026-04-12T09:24:58.53Z</time></trkpt><trkpt lat="45.953137516086876" lon="11.72038008460004"><ele>218.0</ele><time>2026-04-12T09:25:16.999Z</time></trkpt><trkpt lat="45.95329073349772" lon="11.720547215377291"><ele>218.0</ele><time>2026-04-12T09:25:17.999Z</time></trkpt><trkpt lat="45.95345049475942" lon="11.720731626266376"><ele>218.0</ele><time>2026-04-12T09:25:18.999Z</time></trkpt><trkpt lat="45.95359549041064" lon="11.720952876713447"><ele>239.33333333333334</ele><time>2026-04-12T09:25:19.999Z</time></trkpt><trkpt lat="45.95371256348011" lon="11.721149810676625"><ele>260.6666666666667</ele><time>2026-04-12T09:25:20.999Z</time></trkpt><trkpt lat="45.95383347697261" lon="11.721378845851858"><ele>282.0</ele><time>2026-04-12T09:25:21.999Z</time></trkpt><trkpt lat="45.95393938498142" lon="11.721612893063512"><ele>282.0</ele><time>2026-04-12T09:25:22.999Z</time></trkpt><trkpt lat="45.954037701953716" lon="11.721863498397536"><ele>282.0</ele><time>2026-04-12T09:25:23.999Z</time></trkpt><trkpt lat="45.95412985061251" lon="11.722129233215178"><ele>282.0</ele><time>2026-04-12T09:25:25.018Z</time></trkpt><trkpt lat="45.954220278802545" lon="11.722387197777644"><ele>309.3333333333333</ele><time>2026-04-12T09:25:26.019Z</time></trkpt><trkpt lat="45.95431106127864" lon="11.722639314788655"><ele>336.66666666666663</ele><time>2026-04-12T09:25:27.019Z</time></trkpt><trkpt lat="45.954396984115554" lon="11.722892645334381"><ele>364.0</ele><time>2026-04-12T09:25:28.019Z</time></trkpt><trkpt lat="45.954485983867585" lon="11.723151370071689"><ele>481.0</ele><time>2026-04-12T09:25:29.019Z</time></trkpt><trkpt lat="45.95562642863343" lon="11.725327565194837"><ele>519.0</ele><time>2026-04-12T09:25:32.529Z</time></trkpt><trkpt lat="45.955921474813806" lon="11.725973972167763"><ele>528.5</ele><time>2026-04-12T09:25:33.527Z</time></trkpt><trkpt lat="45.9560099" lon="11.7261677"><ele>538.0</ele><time>2026-04-12T09:25:34.529Z</time></trkpt><trkpt lat="45.96903595932594" lon="11.754625620025235"><ele>454.6666666666667</ele><time>2026-04-12T09:27:25.996Z</time></trkpt><trkpt lat="45.969160039859695" lon="11.754899718405326"><ele>371.33333333333337</ele><time>2026-04-12T09:27:26.996Z</time></trkpt><trkpt lat="45.96927840873914" lon="11.755135790094895"><ele>288.0</ele><time>2026-04-12T09:27:27.996Z</time></trkpt><trkpt lat="45.96939337583755" lon="11.755385163481964"><ele>286.6666666666667</ele><time>2026-04-12T09:27:28.996Z</time></trkpt><trkpt lat="45.969499726172735" lon="11.75561702886246"><ele>285.33333333333337</ele><time>2026-04-12T09:27:29.996Z</time></trkpt><trkpt lat="45.96960327564282" lon="11.75585448088266"><ele>284.0</ele><time>2026-04-12T09:27:30.996Z</time></trkpt><trkpt lat="45.96970835753074" lon="11.756094432445533"><ele>284.0</ele><time>2026-04-12T09:27:31.996Z</time></trkpt><trkpt lat="45.96982006107264" lon="11.7563397153535"><ele>284.0</ele><time>2026-04-12T09:27:32.996Z</time></trkpt><trkpt lat="45.96993400218557" lon="11.756586681402844"><ele>284.0</ele><time>2026-04-12T09:27:33.996Z</time></trkpt><trkpt lat="45.97004845599797" lon="11.756825053742746"><ele>284.6666666666667</ele><time>2026-04-12T09:27:34.996Z</time></trkpt><trkpt lat="45.97016867096784" lon="11.757053407256674"><ele>285.3333333333333</ele><time>2026-04-12T09:27:36Z</time></trkpt><trkpt lat="45.97029835924295" lon="11.75727698624305"><ele>286.0</ele><time>2026-04-12T09:27:37Z</time></trkpt><trkpt lat="45.97042641024043" lon="11.757493794089028"><ele>286.0</ele><time>2026-04-12T09:27:38Z</time></trkpt><trkpt lat="45.970585757753746" lon="11.757701371808357"><ele>286.0</ele><time>2026-04-12T09:27:39Z</time></trkpt><trkpt lat="45.97074310191371" lon="11.757895973232824"><ele>286.0</ele><time>2026-04-12T09:27:40Z</time></trkpt><trkpt lat="45.97091071539396" lon="11.758074153935658"><ele>287.3333333333333</ele><time>2026-04-12T09:27:41Z</time></trkpt><trkpt lat="45.9710903279089" lon="11.75823542183016"><ele>288.6666666666667</ele><time>2026-04-12T09:27:42Z</time></trkpt><trkpt lat="45.97127813999367" lon="11.758375401186532"><ele>290.0</ele><time>2026-04-12T09:27:43Z</time></trkpt><trkpt lat="45.97147429112987" lon="11.75849367428678"><ele>292.0</ele><time>2026-04-12T09:27:44Z</time></trkpt><trkpt lat="45.97167198369926" lon="11.758598774457125"><ele>294.0</ele><time>2026-04-12T09:27:45Z</time></trkpt><trkpt lat="45.97187238870947" lon="11.75869433015675"><ele>296.0</ele><time>2026-04-12T09:27:46Z</time></trkpt><trkpt lat="45.97208093449181" lon="11.7587707169354"><ele>296.0</ele><time>2026-04-12T09:27:47Z</time></trkpt><trkpt lat="45.97229648217968" lon="11.75882710535647"><ele>296.0</ele><time>2026-04-12T09:27:48Z</time></trkpt><trkpt lat="45.972518530896096" lon="11.758870312661811"><ele>296.0</ele><time>2026-04-12T09:27:49Z</time></trkpt><trkpt lat="45.97273948129373" lon="11.75890357259063"><ele>295.6666666666667</ele><time>2026-04-12T09:27:50Z</time></trkpt><trkpt lat="45.97296004698943" lon="11.758929074023776"><ele>295.3333333333333</ele><time>2026-04-12T09:27:51Z</time></trkpt><trkpt lat="45.973186632894965" lon="11.75895419446148"><ele>295.0</ele><time>2026-04-12T09:27:52Z</time></trkpt><trkpt lat="45.97341014256115" lon="11.7589851869542"><ele>297.5</ele><time>2026-04-12T09:27:53Z</time></trkpt><trkpt lat="45.97363539684629" lon="11.759012996208124"><ele>300.0</ele><time>2026-04-12T09:27:54Z</time></trkpt><trkpt lat="45.973863460330755" lon="11.759044583968405"><ele>300.0</ele><time>2026-04-12T09:27:55Z</time></trkpt><trkpt lat="45.974094721416996" lon="11.759081335272471"><ele>300.0</ele><time>2026-04-12T09:27:56Z</time></trkpt><trkpt lat="45.974322188099705" lon="11.759109640863402"><ele>297.0</ele><time>2026-04-12T09:27:57Z</time></trkpt><trkpt lat="45.97455623218902" lon="11.759149610275665"><ele>294.0</ele><time>2026-04-12T09:27:58Z</time></trkpt><trkpt lat="45.974792207483254" lon="11.759189240745407"><ele>293.0</ele><time>2026-04-12T09:27:59Z</time></trkpt><trkpt lat="45.975024775886205" lon="11.759222642536473"><ele>292.0</ele><time>2026-04-12T09:28:00Z</time></trkpt><trkpt lat="45.97526661575094" lon="11.759249225409029"><ele>292.0</ele><time>2026-04-12T09:28:01Z</time></trkpt><trkpt lat="45.975500315653576" lon="11.759276480253162"><ele>292.0</ele><time>2026-04-12T09:28:02Z</time></trkpt><trkpt lat="45.97571997569375" lon="11.759319106011267"><ele>292.0</ele><time>2026-04-12T09:28:03Z</time></trkpt><trkpt lat="45.97593672435238" lon="11.759367084955509"><ele>292.0</ele><time>2026-04-12T09:28:04Z</time></trkpt><trkpt lat="45.97616195673482" lon="11.759391322502061"><ele>292.0</ele><time>2026-04-12T09:28:05Z</time></trkpt><trkpt lat="45.97639562135261" lon="11.759424169051961"><ele>296.0</ele><time>2026-04-12T09:28:06Z</time></trkpt><trkpt lat="45.97661311951261" lon="11.759456259669662"><ele>300.0</ele><time>2026-04-12T09:28:07Z</time></trkpt><trkpt lat="45.97684239945524" lon="11.75949526375292"><ele>304.0</ele><time>2026-04-12T09:28:08Z</time></trkpt><trkpt lat="45.97706962692559" lon="11.759568397181551"><ele>304.0</ele><time>2026-04-12T09:28:09Z</time></trkpt><trkpt lat="45.97729950206544" lon="11.759609687776102"><ele>304.0</ele><time>2026-04-12T09:28:10Z</time></trkpt><trkpt lat="45.97752340872379" lon="11.75968755327153"><ele>301.3333333333333</ele><time>2026-04-12T09:28:11Z</time></trkpt><trkpt lat="45.97773041169397" lon="11.759781985882302"><ele>298.6666666666667</ele><time>2026-04-12T09:28:12Z</time></trkpt><trkpt lat="45.977926044323404" lon="11.759888547895551"><ele>296.0</ele><time>2026-04-12T09:28:13Z</time></trkpt><trkpt lat="45.97810485848348" lon="11.760002867799935"><ele>296.0</ele><time>2026-04-12T09:28:14Z</time></trkpt><trkpt lat="45.97828190388289" lon="11.760129082560272"><ele>296.0</ele><time>2026-04-12T09:28:15Z</time></trkpt><trkpt lat="45.978453552764" lon="11.760263219640358"><ele>296.0</ele><time>2026-04-12T09:28:15.999Z</time></trkpt><trkpt lat="45.97860383656675" lon="11.760434323004269"><ele>297.33333333333337</ele><time>2026-04-12T09:28:16.999Z</time></trkpt><trkpt lat="45.97874109785896" lon="11.7605867298543"><ele>298.6666666666667</ele><time>2026-04-12T09:28:17.999Z</time></trkpt><trkpt lat="45.97887549597923" lon="11.760716179646133"><ele>300.0</ele><time>2026-04-12T09:28:18.999Z</time></trkpt><trkpt lat="45.978992727664306" lon="11.760876282508168"><ele>300.6666666666667</ele><time>2026-04-12T09:28:19.999Z</time></trkpt><trkpt lat="45.97910497897585" lon="11.761046339032214"><ele>301.33333333333337</ele><time>2026-04-12T09:28:20.999Z</time></trkpt><trkpt lat="45.97921341268649" lon="11.76122939881944"><ele>302.0</ele><time>2026-04-12T09:28:21.999Z</time></trkpt><trkpt lat="45.97931930104013" lon="11.761428447052577"><ele>302.0</ele><time>2026-04-12T09:28:22.999Z</time></trkpt><trkpt lat="45.9794224312882" lon="11.761639860186877"><ele>302.0</ele><time>2026-04-12T09:28:23.999Z</time></trkpt><trkpt lat="45.97952186063575" lon="11.761853660385201"><ele>302.0</ele><time>2026-04-12T09:28:24.999Z</time></trkpt><trkpt lat="45.97961249966845" lon="11.762072601284085"><ele>302.6666666666667</ele><time>2026-04-12T09:28:25.999Z</time></trkpt><trkpt lat="45.97969089258917" lon="11.762298081767794"><ele>303.3333333333333</ele><time>2026-04-12T09:28:26.999Z</time></trkpt><trkpt lat="45.97976208048937" lon="11.762524135262016"><ele>304.0</ele><time>2026-04-12T09:28:27.999Z</time></trkpt><trkpt lat="45.97982726131165" lon="11.762757349871206"><ele>305.0</ele><time>2026-04-12T09:28:28.999Z</time></trkpt><trkpt lat="45.979880042855406" lon="11.763001343505149"><ele>306.0</ele><time>2026-04-12T09:28:29.999Z</time></trkpt><trkpt lat="45.97992851480165" lon="11.763250811959686"><ele>307.0</ele><time>2026-04-12T09:28:30.999Z</time></trkpt><trkpt lat="45.979967837822734" lon="11.763494447638159"><ele>308.3333333333333</ele><time>2026-04-12T09:28:31.999Z</time></trkpt><trkpt lat="45.98000199360775" lon="11.76374994892489"><ele>309.6666666666667</ele><time>2026-04-12T09:28:32.999Z</time></trkpt><trkpt lat="45.98002336428843" lon="11.764012221974074"><ele>311.0</ele><time>2026-04-12T09:28:33.999Z</time></trkpt><trkpt lat="45.98003798482229" lon="11.764289440575073"><ele>312.33333333333337</ele><time>2026-04-12T09:28:34.999Z</time></trkpt><trkpt lat="45.980049962557096" lon="11.764565484793993"><ele>313.6666666666667</ele><time>2026-04-12T09:28:35.999Z</time></trkpt><trkpt lat="45.98006027604361" lon="11.76485029143448"><ele>315.0</ele><time>2026-04-12T09:28:36.999Z</time></trkpt><trkpt lat="45.98007431976898" lon="11.76513367869545"><ele>315.3333333333333</ele><time>2026-04-12T09:28:37.999Z</time></trkpt><trkpt lat="45.98008714014962" lon="11.765413614512473"><ele>315.66666666666663</ele><time>2026-04-12T09:28:38.999Z</time></trkpt><trkpt lat="45.980100274762506" lon="11.765700510352579"><ele>316.0</ele><time>2026-04-12T09:28:40.021Z</time></trkpt><trkpt lat="45.980113406592444" lon="11.765979530251611"><ele>315.0</ele><time>2026-04-12T09:28:41.02Z</time></trkpt><trkpt lat="45.98012616162115" lon="11.766259051163182"><ele>314.0</ele><time>2026-04-12T09:28:42.017Z</time></trkpt><trkpt lat="45.980141267964136" lon="11.76653437369654"><ele>313.0</ele><time>2026-04-12T09:28:43.019Z</time></trkpt><trkpt lat="45.98015363995911" lon="11.766813545544679"><ele>312.66666666666663</ele><time>2026-04-12T09:28:44.02Z</time></trkpt><trkpt lat="45.98016302827183" lon="11.767093998227207"><ele>312.3333333333333</ele><time>2026-04-12T09:28:45.022Z</time></trkpt><trkpt lat="45.980175437963304" lon="11.767363501253906"><ele>312.0</ele><time>2026-04-12T09:28:45.999Z</time></trkpt><trkpt lat="45.98016802004142" lon="11.767623743426045"><ele>311.3333333333333</ele><time>2026-04-12T09:28:46.999Z</time></trkpt><trkpt lat="45.98017419031824" lon="11.767915133773748"><ele>310.66666666666663</ele><time>2026-04-12T09:28:47.999Z</time></trkpt><trkpt lat="45.98018727331218" lon="11.76821570280618"><ele>310.0</ele><time>2026-04-12T09:28:48.999Z</time></trkpt><trkpt lat="45.980203176429086" lon="11.76849592383396"><ele>308.3333333333333</ele><time>2026-04-12T09:28:49.999Z</time></trkpt><trkpt lat="45.98021496095393" lon="11.768773886874694"><ele>306.6666666666667</ele><time>2026-04-12T09:28:50.999Z</time></trkpt><trkpt lat="45.9802241093421" lon="11.769070999061375"><ele>305.0</ele><time>2026-04-12T09:28:51.999Z</time></trkpt><trkpt lat="45.980235606780454" lon="11.769367340498345"><ele>303.0</ele><time>2026-04-12T09:28:52.999Z</time></trkpt><trkpt lat="45.980247232569624" lon="11.769663824049674"><ele>301.0</ele><time>2026-04-12T09:28:53.999Z</time></trkpt><trkpt lat="45.98025265324781" lon="11.769967432985448"><ele>299.0</ele><time>2026-04-12T09:28:54.999Z</time></trkpt><trkpt lat="45.98026175136018" lon="11.770281753740527"><ele>296.0</ele><time>2026-04-12T09:28:55.999Z</time></trkpt><trkpt lat="45.98027058835248" lon="11.770590997761571"><ele>293.0</ele><time>2026-04-12T09:28:56.999Z</time></trkpt><trkpt lat="45.98026980076095" lon="11.770900646029233"><ele>290.0</ele><time>2026-04-12T09:28:57.999Z</time></trkpt><trkpt lat="45.98025385722718" lon="11.771208269841818"><ele>288.6666666666667</ele><time>2026-04-12T09:28:58.999Z</time></trkpt><trkpt lat="45.980226992214185" lon="11.771527055025922"><ele>287.3333333333333</ele><time>2026-04-12T09:28:59.999Z</time></trkpt><trkpt lat="45.98019128754365" lon="11.771840222795909"><ele>286.0</ele><time>2026-04-12T09:29:00.999Z</time></trkpt><trkpt lat="45.98014889602137" lon="11.772150807006216"><ele>285.0</ele><time>2026-04-12T09:29:01.999Z</time></trkpt><trkpt lat="45.98011984837376" lon="11.772464674165303"><ele>284.0</ele><time>2026-04-12T09:29:02.999Z</time></trkpt><trkpt lat="45.980089728122586" lon="11.772783794801526"><ele>283.0</ele><time>2026-04-12T09:29:03.999Z</time></trkpt><trkpt lat="45.980070468370876" lon="11.773108282892032"><ele>280.3333333333333</ele><time>2026-04-12T09:29:04.999Z</time></trkpt><trkpt lat="45.98006688925783" lon="11.773427609316014"><ele>277.6666666666667</ele><time>2026-04-12T09:29:05.999Z</time></trkpt><trkpt lat="45.98006798563612" lon="11.773754238590476"><ele>275.0</ele><time>2026-04-12T09:29:06.999Z</time></trkpt><trkpt lat="45.98008184089966" lon="11.774071413177394"><ele>274.0</ele><time>2026-04-12T09:29:07.999Z</time></trkpt><trkpt lat="45.98011091997971" lon="11.774399895690646"><ele>273.0</ele><time>2026-04-12T09:29:08.999Z</time></trkpt><trkpt lat="45.98015456476284" lon="11.774720262098317"><ele>273.0</ele><time>2026-04-12T09:29:09.998Z</time></trkpt><trkpt lat="45.98021271330153" lon="11.775026503933177"><ele>273.0</ele><time>2026-04-12T09:29:10.998Z</time></trkpt><trkpt lat="45.98029052651462" lon="11.775349559924912"><ele>273.0</ele><time>2026-04-12T09:29:11.998Z</time></trkpt><trkpt lat="45.98039415884239" lon="11.775686157003705"><ele>273.0</ele><time>2026-04-12T09:29:12.998Z</time></trkpt><trkpt lat="45.98049804053322" lon="11.775995629759354"><ele>271.5</ele><time>2026-04-12T09:29:13.998Z</time></trkpt><trkpt lat="45.98062005535435" lon="11.776322347490476"><ele>270.0</ele><time>2026-04-12T09:29:14.998Z</time></trkpt><trkpt lat="45.98074993711095" lon="11.776636412280762"><ele>288.0</ele><time>2026-04-12T09:29:15.998Z</time></trkpt><trkpt lat="45.98088003078642" lon="11.77694760938298"><ele>306.0</ele><time>2026-04-12T09:29:16.998Z</time></trkpt><trkpt lat="45.98100217578009" lon="11.777237664864899"><ele>306.0</ele><time>2026-04-12T09:29:17.998Z</time></trkpt><trkpt lat="45.98111444693085" lon="11.777502392889113"><ele>306.0</ele><time>2026-04-12T09:29:18.998Z</time></trkpt><trkpt lat="45.98122476246592" lon="11.7777691890116"><ele>306.0</ele><time>2026-04-12T09:29:19.998Z</time></trkpt><trkpt lat="45.98132945040465" lon="11.778034177900363"><ele>308.0</ele><time>2026-04-12T09:29:20.998Z</time></trkpt><trkpt lat="45.98143192578624" lon="11.778297959063627"><ele>310.0</ele><time>2026-04-12T09:29:21.998Z</time></trkpt><trkpt lat="45.98153085185386" lon="11.778568775470854"><ele>312.0</ele><time>2026-04-12T09:29:23.015Z</time></trkpt><trkpt lat="45.98162789839011" lon="11.778836549833601"><ele>329.3333333333333</ele><time>2026-04-12T09:29:24.018Z</time></trkpt><trkpt lat="45.98172697238924" lon="11.779099529318678"><ele>346.66666666666663</ele><time>2026-04-12T09:29:25.018Z</time></trkpt><trkpt lat="45.98182300606464" lon="11.779360695257378"><ele>364.0</ele><time>2026-04-12T09:29:26.019Z</time></trkpt><trkpt lat="45.98191687464843" lon="11.779622004701537"><ele>269.0</ele><time>2026-04-12T09:29:27.019Z</time></trkpt><trkpt lat="45.98252769563904" lon="11.782088410120254"><ele>269.0</ele><time>2026-04-12T09:29:34.998Z</time></trkpt><trkpt lat="45.98260384515718" lon="11.782405924944506"><ele>269.0</ele><time>2026-04-12T09:29:35.998Z</time></trkpt><trkpt lat="45.982678244661045" lon="11.782719694019956"><ele>269.0</ele><time>2026-04-12T09:29:36.998Z</time></trkpt><trkpt lat="45.98278425049766" lon="11.783015237436276"><ele>269.0</ele><time>2026-04-12T09:29:37.998Z</time></trkpt><trkpt lat="45.982899674086745" lon="11.783300599638482"><ele>270.0</ele><time>2026-04-12T09:29:38.998Z</time></trkpt><trkpt lat="45.9830256884399" lon="11.783581044529916"><ele>271.0</ele><time>2026-04-12T09:29:39.998Z</time></trkpt><trkpt lat="45.98316605951546" lon="11.78384896515881"><ele>271.0</ele><time>2026-04-12T09:29:40.998Z</time></trkpt><trkpt lat="45.98332000527741" lon="11.784103732122032"><ele>271.0</ele><time>2026-04-12T09:29:42Z</time></trkpt><trkpt lat="45.98348541382558" lon="11.784339977858584"><ele>270.0</ele><time>2026-04-12T09:29:43Z</time></trkpt><trkpt lat="45.9836594486864" lon="11.784567707891405"><ele>269.0</ele><time>2026-04-12T09:29:44Z</time></trkpt><trkpt lat="45.983844436002975" lon="11.784782045741332"><ele>269.0</ele><time>2026-04-12T09:29:45Z</time></trkpt><trkpt lat="45.984040510407105" lon="11.784969030908655"><ele>269.0</ele><time>2026-04-12T09:29:46Z</time></trkpt><trkpt lat="45.98423836862467" lon="11.78513640271743"><ele>269.5</ele><time>2026-04-12T09:29:47Z</time></trkpt><trkpt lat="45.984444866980006" lon="11.785290750229219"><ele>270.0</ele><time>2026-04-12T09:29:48Z</time></trkpt><trkpt lat="45.98465221094664" lon="11.785430615181992"><ele>270.0</ele><time>2026-04-12T09:29:49Z</time></trkpt><trkpt lat="45.98486172058754" lon="11.785557923940813"><ele>270.0</ele><time>2026-04-12T09:29:50Z</time></trkpt><trkpt lat="45.985069532059576" lon="11.78568068304767"><ele>270.0</ele><time>2026-04-12T09:29:51Z</time></trkpt><trkpt lat="45.98527444316927" lon="11.785810181197311"><ele>270.0</ele><time>2026-04-12T09:29:52Z</time></trkpt><trkpt lat="45.98547424848484" lon="11.785943126491649"><ele>270.0</ele><time>2026-04-12T09:29:53Z</time></trkpt><trkpt lat="45.98567571163851" lon="11.786079191709646"><ele>271.0</ele><time>2026-04-12T09:29:54Z</time></trkpt><trkpt lat="45.98587081791326" lon="11.786209736122862"><ele>272.0</ele><time>2026-04-12T09:29:55Z</time></trkpt><trkpt lat="45.98607087259209" lon="11.786331332836706"><ele>273.0</ele><time>2026-04-12T09:29:56Z</time></trkpt><trkpt lat="45.986269395773974" lon="11.786457547083783"><ele>273.0</ele><time>2026-04-12T09:29:57Z</time></trkpt><trkpt lat="45.98646482177344" lon="11.786584197277447"><ele>273.0</ele><time>2026-04-12T09:29:58Z</time></trkpt><trkpt lat="45.98666540479404" lon="11.786714157674693"><ele>273.0</ele><time>2026-04-12T09:29:59Z</time></trkpt><trkpt lat="45.98686254730432" lon="11.786836587862137"><ele>274.3333333333333</ele><time>2026-04-12T09:30:00Z</time></trkpt><trkpt lat="45.987059784927666" lon="11.786961575868526"><ele>275.66666666666663</ele><time>2026-04-12T09:30:01Z</time></trkpt><trkpt lat="45.98725851111913" lon="11.787084803542363"><ele>277.0</ele><time>2026-04-12T09:30:02Z</time></trkpt><trkpt lat="45.98745329093264" lon="11.787207595657641"><ele>277.66666666666663</ele><time>2026-04-12T09:30:03Z</time></trkpt><trkpt lat="45.98764848995532" lon="11.787331652562616"><ele>278.3333333333333</ele><time>2026-04-12T09:30:04Z</time></trkpt><trkpt lat="45.98784923247663" lon="11.787462542471314"><ele>279.0</ele><time>2026-04-12T09:30:05Z</time></trkpt><trkpt lat="45.98804722369932" lon="11.78759184428341"><ele>280.0</ele><time>2026-04-12T09:30:06Z</time></trkpt><trkpt lat="45.98825417770406" lon="11.787715584258132"><ele>281.0</ele><time>2026-04-12T09:30:07Z</time></trkpt><trkpt lat="45.98845702834036" lon="11.787841778018795"><ele>282.0</ele><time>2026-04-12T09:30:08Z</time></trkpt><trkpt lat="45.98866489877027" lon="11.78796876076397"><ele>282.0</ele><time>2026-04-12T09:30:09Z</time></trkpt><trkpt lat="45.98886761827739" lon="11.78810252094969"><ele>282.0</ele><time>2026-04-12T09:30:10Z</time></trkpt><trkpt lat="45.98906676553682" lon="11.788249958106094"><ele>282.0</ele><time>2026-04-12T09:30:11Z</time></trkpt><trkpt lat="45.98926605065447" lon="11.788398565342126"><ele>286.0</ele><time>2026-04-12T09:30:12Z</time></trkpt><trkpt lat="45.989466452223674" lon="11.788562046610433"><ele>290.0</ele><time>2026-04-12T09:30:13Z</time></trkpt><trkpt lat="45.98965992237279" lon="11.788741415340034"><ele>290.0</ele><time>2026-04-12T09:30:14Z</time></trkpt><trkpt lat="45.98984108830799" lon="11.788948192021413"><ele>290.0</ele><time>2026-04-12T09:30:15Z</time></trkpt><trkpt lat="45.990009862248684" lon="11.789179489453698"><ele>290.5</ele><time>2026-04-12T09:30:16Z</time></trkpt><trkpt lat="45.99017484422465" lon="11.789416015272597"><ele>291.0</ele><time>2026-04-12T09:30:17Z</time></trkpt><trkpt lat="45.990343429999285" lon="11.789663469347303"><ele>291.0</ele><time>2026-04-12T09:30:18Z</time></trkpt><trkpt lat="45.99051046320956" lon="11.789914609856746"><ele>291.0</ele><time>2026-04-12T09:30:19Z</time></trkpt><trkpt lat="45.990682006175504" lon="11.790165337821882"><ele>288.0</ele><time>2026-04-12T09:30:20Z</time></trkpt><trkpt lat="45.99086613682369" lon="11.79041165435813"><ele>285.0</ele><time>2026-04-12T09:30:21Z</time></trkpt><trkpt lat="45.99106391899713" lon="11.79064886934913"><ele>285.0</ele><time>2026-04-12T09:30:22Z</time></trkpt><trkpt lat="45.99128703186867" lon="11.790884689122041"><ele>285.0</ele><time>2026-04-12T09:30:22.999Z</time></trkpt><trkpt lat="45.99152308268887" lon="11.791117195256971"><ele>283.5</ele><time>2026-04-12T09:30:23.999Z</time></trkpt><trkpt lat="45.99177352779119" lon="11.79135160037385"><ele>282.0</ele><time>2026-04-12T09:30:24.999Z</time></trkpt><trkpt lat="45.99202540436307" lon="11.791577922007296"><ele>282.0</ele><time>2026-04-12T09:30:25.999Z</time></trkpt><trkpt lat="45.99226960778106" lon="11.791802799052991"><ele>282.0</ele><time>2026-04-12T09:30:26.999Z</time></trkpt><trkpt lat="45.99251225730858" lon="11.792041041120756"><ele>280.5</ele><time>2026-04-12T09:30:27.999Z</time></trkpt><trkpt lat="45.992749780972424" lon="11.79230082319717"><ele>279.0</ele><time>2026-04-12T09:30:28.999Z</time></trkpt><trkpt lat="45.99297372375194" lon="11.792592454510949"><ele>280.0</ele><time>2026-04-12T09:30:29.999Z</time></trkpt><trkpt lat="45.99318075300595" lon="11.792925697791276"><ele>281.0</ele><time>2026-04-12T09:30:30.999Z</time></trkpt><trkpt lat="45.99337406141081" lon="11.793293188422924"><ele>281.5</ele><time>2026-04-12T09:30:31.999Z</time></trkpt><trkpt lat="45.99356399044869" lon="11.793686203827836"><ele>282.0</ele><time>2026-04-12T09:30:32.999Z</time></trkpt><trkpt lat="45.993748628252035" lon="11.794096501667164"><ele>285.0</ele><time>2026-04-12T09:30:33.999Z</time></trkpt><trkpt lat="45.99393964048951" lon="11.794528202033739"><ele>288.0</ele><time>2026-04-12T09:30:34.999Z</time></trkpt><trkpt lat="45.99413181941044" lon="11.794966753207007"><ele>285.5</ele><time>2026-04-12T09:30:35.999Z</time></trkpt><trkpt lat="45.99432245454257" lon="11.795399941802398"><ele>283.0</ele><time>2026-04-12T09:30:36.999Z</time></trkpt><trkpt lat="45.99450006155685" lon="11.795661755049474"><ele>283.0</ele><time>2026-04-12T09:30:37.999Z</time></trkpt><trkpt lat="45.994676817530724" lon="11.795977640533005"><ele>283.0</ele><time>2026-04-12T09:30:38.999Z</time></trkpt><trkpt lat="45.994843218677595" lon="11.79627226924858"><ele>284.5</ele><time>2026-04-12T09:30:39.999Z</time></trkpt><trkpt lat="45.99500546206427" lon="11.796557668751232"><ele>286.0</ele><time>2026-04-12T09:30:40.999Z</time></trkpt><trkpt lat="45.9951644601997" lon="11.79682681021321"><ele>287.0</ele><time>2026-04-12T09:30:41.999Z</time></trkpt><trkpt lat="45.995325440531175" lon="11.797089347462421"><ele>288.0</ele><time>2026-04-12T09:30:42.999Z</time></trkpt><trkpt lat="45.995468933741776" lon="11.797357044204785"><ele>288.0</ele><time>2026-04-12T09:30:43.999Z</time></trkpt><trkpt lat="45.99563689970724" lon="11.79758948947045"><ele>288.0</ele><time>2026-04-12T09:30:44.999Z</time></trkpt><trkpt lat="45.995790829775295" lon="11.797839550910492"><ele>287.0</ele><time>2026-04-12T09:30:45.999Z</time></trkpt><trkpt lat="45.99594450243297" lon="11.798084577127417"><ele>286.0</ele><time>2026-04-12T09:30:46.999Z</time></trkpt><trkpt lat="45.99609977157834" lon="11.798330121296"><ele>288.5</ele><time>2026-04-12T09:30:47.999Z</time></trkpt><trkpt lat="45.99625102031234" lon="11.798573475322224"><ele>291.0</ele><time>2026-04-12T09:30:48.999Z</time></trkpt><trkpt lat="45.99640006893657" lon="11.798813919592845"><ele>291.0</ele><time>2026-04-12T09:30:49.999Z</time></trkpt><trkpt lat="45.99654775592946" lon="11.799046111992306"><ele>291.0</ele><time>2026-04-12T09:30:50.999Z</time></trkpt><trkpt lat="45.99669464391227" lon="11.799271076525804"><ele>291.0</ele><time>2026-04-12T09:30:51.999Z</time></trkpt><trkpt lat="45.996833042249996" lon="11.799503894102884"><ele>292.6666666666667</ele><time>2026-04-12T09:30:52.999Z</time></trkpt><trkpt lat="45.99696611133297" lon="11.799724393828825"><ele>294.33333333333337</ele><time>2026-04-12T09:30:53.999Z</time></trkpt><trkpt lat="45.99710573291467" lon="11.799944180864475"><ele>296.0</ele><time>2026-04-12T09:30:54.999Z</time></trkpt><trkpt lat="45.997248698679584" lon="11.800165730866663"><ele>294.0</ele><time>2026-04-12T09:30:55.999Z</time></trkpt><trkpt lat="45.9973943049582" lon="11.800398629579552"><ele>292.0</ele><time>2026-04-12T09:30:56.999Z</time></trkpt><trkpt lat="45.99754122114158" lon="11.800626603636733"><ele>290.0</ele><time>2026-04-12T09:30:57.999Z</time></trkpt><trkpt lat="45.997694237341214" lon="11.800870258582073"><ele>292.5</ele><time>2026-04-12T09:30:58.999Z</time></trkpt><trkpt lat="45.997844089382696" lon="11.801110496919879"><ele>295.0</ele><time>2026-04-12T09:30:59.999Z</time></trkpt><trkpt lat="45.99799748666717" lon="11.801361361098012"><ele>295.0</ele><time>2026-04-12T09:31:00.999Z</time></trkpt><trkpt lat="45.998147261525446" lon="11.801604975760057"><ele>295.0</ele><time>2026-04-12T09:31:01.999Z</time></trkpt><trkpt lat="45.99830195312968" lon="11.801856579875718"><ele>295.0</ele><time>2026-04-12T09:31:02.999Z</time></trkpt><trkpt lat="45.99845717073094" lon="11.802104065143565"><ele>295.0</ele><time>2026-04-12T09:31:03.999Z</time></trkpt><trkpt lat="45.99861903020795" lon="11.802355200701731"><ele>295.0</ele><time>2026-04-12T09:31:04.999Z</time></trkpt><trkpt lat="45.99878179327429" lon="11.802604637925176"><ele>295.0</ele><time>2026-04-12T09:31:05.999Z</time></trkpt><trkpt lat="45.99895122449623" lon="11.802846338172037"><ele>293.0</ele><time>2026-04-12T09:31:06.999Z</time></trkpt><trkpt lat="45.99912441934897" lon="11.803075144360719"><ele>291.0</ele><time>2026-04-12T09:31:07.999Z</time></trkpt><trkpt lat="45.99929962193423" lon="11.803308125887826"><ele>296.0</ele><time>2026-04-12T09:31:08.999Z</time></trkpt><trkpt lat="45.99947283273942" lon="11.803534036679702"><ele>301.0</ele><time>2026-04-12T09:31:09.999Z</time></trkpt><trkpt lat="45.99964600312762" lon="11.803767995668004"><ele>301.0</ele><time>2026-04-12T09:31:10.999Z</time></trkpt><trkpt lat="45.99981810934194" lon="11.80400278368743"><ele>301.0</ele><time>2026-04-12T09:31:11.999Z</time></trkpt><trkpt lat="45.999990182652425" lon="11.804232001071986"><ele>304.0</ele><time>2026-04-12T09:31:12.999Z</time></trkpt><trkpt lat="46.00015929711452" lon="11.804454870762592"><ele>307.0</ele><time>2026-04-12T09:31:13.999Z</time></trkpt><trkpt lat="46.00033014678665" lon="11.80467974630059"><ele>307.0</ele><time>2026-04-12T09:31:14.999Z</time></trkpt><trkpt lat="46.0004956605848" lon="11.804911065774135"><ele>307.0</ele><time>2026-04-12T09:31:15.999Z</time></trkpt><trkpt lat="46.000649348223874" lon="11.805153544993654"><ele>310.0</ele><time>2026-04-12T09:31:16.998Z</time></trkpt><trkpt lat="46.00079088996539" lon="11.805409368370155"><ele>313.0</ele><time>2026-04-12T09:31:17.998Z</time></trkpt><trkpt lat="46.00092228438466" lon="11.805673046223408"><ele>307.0</ele><time>2026-04-12T09:31:18.998Z</time></trkpt><trkpt lat="46.00104246459618" lon="11.805944146735513"><ele>301.0</ele><time>2026-04-12T09:31:19.998Z</time></trkpt><trkpt lat="46.00115302228659" lon="11.80622408207626"><ele>295.0</ele><time>2026-04-12T09:31:20.998Z</time></trkpt><trkpt lat="46.00124553347254" lon="11.806487703015897"><ele>294.66666666666663</ele><time>2026-04-12T09:31:21.998Z</time></trkpt><trkpt lat="46.00132578932847" lon="11.8067501424458"><ele>294.3333333333333</ele><time>2026-04-12T09:31:22.998Z</time></trkpt><trkpt lat="46.001394428605515" lon="11.807017419107709"><ele>294.0</ele><time>2026-04-12T09:31:23.998Z</time></trkpt><trkpt lat="46.00145360164556" lon="11.807274161769262"><ele>293.6666666666667</ele><time>2026-04-12T09:31:24.998Z</time></trkpt><trkpt lat="46.001501274605005" lon="11.807538252049197"><ele>293.33333333333337</ele><time>2026-04-12T09:31:25.998Z</time></trkpt><trkpt lat="46.001543969761485" lon="11.807802004900825"><ele>293.0</ele><time>2026-04-12T09:31:26.998Z</time></trkpt><trkpt lat="46.0015782815467" lon="11.8080694636025"><ele>293.0</ele><time>2026-04-12T09:31:27.998Z</time></trkpt><trkpt lat="46.00160168154996" lon="11.808326360543687"><ele>293.0</ele><time>2026-04-12T09:31:28.998Z</time></trkpt><trkpt lat="46.00161779496815" lon="11.808583525115433"><ele>293.0</ele><time>2026-04-12T09:31:29.998Z</time></trkpt><trkpt lat="46.00163588863162" lon="11.808841158862709"><ele>293.0</ele><time>2026-04-12T09:31:30.998Z</time></trkpt><trkpt lat="46.001655605884594" lon="11.80910880518373"><ele>293.0</ele><time>2026-04-12T09:31:31.998Z</time></trkpt><trkpt lat="46.001675725830616" lon="11.80937624125414"><ele>293.0</ele><time>2026-04-12T09:31:32.998Z</time></trkpt><trkpt lat="46.00169447396671" lon="11.809641350708784"><ele>293.0</ele><time>2026-04-12T09:31:33.998Z</time></trkpt><trkpt lat="46.00171445418649" lon="11.809897699002924"><ele>293.0</ele><time>2026-04-12T09:31:34.998Z</time></trkpt><trkpt lat="46.00173153083545" lon="11.810142326888753"><ele>293.0</ele><time>2026-04-12T09:31:35.998Z</time></trkpt><trkpt lat="46.00175382058929" lon="11.810375408052195"><ele>293.0</ele><time>2026-04-12T09:31:36.998Z</time></trkpt><trkpt lat="46.001774796672365" lon="11.810599241997494"><ele>293.0</ele><time>2026-04-12T09:31:37.998Z</time></trkpt><trkpt lat="46.00178966442789" lon="11.810829024107726"><ele>293.0</ele><time>2026-04-12T09:31:38.998Z</time></trkpt><trkpt lat="46.00179780825822" lon="11.81108154463315"><ele>292.6666666666667</ele><time>2026-04-12T09:31:39.998Z</time></trkpt><trkpt lat="46.00181120591113" lon="11.811356255856417"><ele>292.3333333333333</ele><time>2026-04-12T09:31:40.998Z</time></trkpt><trkpt lat="46.001829261223655" lon="11.811648029618045"><ele>292.0</ele><time>2026-04-12T09:31:41.998Z</time></trkpt><trkpt lat="46.00184757684211" lon="11.811940819691806"><ele>292.66666666666663</ele><time>2026-04-12T09:31:42.998Z</time></trkpt><trkpt lat="46.00185769895641" lon="11.812218071837911"><ele>293.3333333333333</ele><time>2026-04-12T09:31:43.998Z</time></trkpt><trkpt lat="46.0018676012059" lon="11.812473831342787"><ele>294.0</ele><time>2026-04-12T09:31:44.998Z</time></trkpt><trkpt lat="46.00188552186815" lon="11.812716001609218"><ele>295.3333333333333</ele><time>2026-04-12T09:31:45.998Z</time></trkpt><trkpt lat="46.001905154784524" lon="11.812961016752185"><ele>296.66666666666663</ele><time>2026-04-12T09:31:46.998Z</time></trkpt><trkpt lat="46.00190845085816" lon="11.813213000035283"><ele>298.0</ele><time>2026-04-12T09:31:48Z</time></trkpt><trkpt lat="46.001907500747684" lon="11.813466916843376"><ele>298.0</ele><time>2026-04-12T09:31:49Z</time></trkpt><trkpt lat="46.00191240591579" lon="11.81372574978572"><ele>298.0</ele><time>2026-04-12T09:31:50Z</time></trkpt><trkpt lat="46.001919312788296" lon="11.813987496538676"><ele>298.0</ele><time>2026-04-12T09:31:51Z</time></trkpt><trkpt lat="46.00192628032364" lon="11.814254382458525"><ele>298.3333333333333</ele><time>2026-04-12T09:31:52Z</time></trkpt><trkpt lat="46.00193111960135" lon="11.81452620451738"><ele>298.6666666666667</ele><time>2026-04-12T09:31:53Z</time></trkpt><trkpt lat="46.00193240063601" lon="11.814798127098022"><ele>299.0</ele><time>2026-04-12T09:31:54Z</time></trkpt><trkpt lat="46.001934621403294" lon="11.815073823227337"><ele>299.33333333333337</ele><time>2026-04-12T09:31:55Z</time></trkpt><trkpt lat="46.001941210719394" lon="11.815351117046989"><ele>299.6666666666667</ele><time>2026-04-12T09:31:56Z</time></trkpt><trkpt lat="46.00195191709287" lon="11.81563068153417"><ele>300.0</ele><time>2026-04-12T09:31:57Z</time></trkpt><trkpt lat="46.00195611252583" lon="11.8159192677964"><ele>301.0</ele><time>2026-04-12T09:31:58Z</time></trkpt><trkpt lat="46.001949984719005" lon="11.81620410357793"><ele>302.0</ele><time>2026-04-12T09:31:59Z</time></trkpt><trkpt lat="46.001948790577075" lon="11.81649480269541"><ele>303.0</ele><time>2026-04-12T09:32:00Z</time></trkpt><trkpt lat="46.001963022790434" lon="11.816794413512156"><ele>303.0</ele><time>2026-04-12T09:32:01Z</time></trkpt><trkpt lat="46.00197196352459" lon="11.817098135481098"><ele>303.0</ele><time>2026-04-12T09:32:02Z</time></trkpt><trkpt lat="46.0019737900795" lon="11.817399557959876"><ele>303.0</ele><time>2026-04-12T09:32:03Z</time></trkpt><trkpt lat="46.0019771882833" lon="11.817698524758972"><ele>303.0</ele><time>2026-04-12T09:32:04Z</time></trkpt><trkpt lat="46.0019806566634" lon="11.817994091859013"><ele>303.0</ele><time>2026-04-12T09:32:05Z</time></trkpt><trkpt lat="46.00198672051961" lon="11.818280110715895"><ele>303.0</ele><time>2026-04-12T09:32:06Z</time></trkpt><trkpt lat="46.00199379312334" lon="11.818563092758858"><ele>303.6666666666667</ele><time>2026-04-12T09:32:07Z</time></trkpt><trkpt lat="46.001999331389435" lon="11.818849569493596"><ele>304.33333333333337</ele><time>2026-04-12T09:32:08Z</time></trkpt><trkpt lat="46.00199862519582" lon="11.81913899515123"><ele>305.0</ele><time>2026-04-12T09:32:09Z</time></trkpt><trkpt lat="46.00199834919217" lon="11.819430151598553"><ele>305.0</ele><time>2026-04-12T09:32:10Z</time></trkpt><trkpt lat="46.0020001216522" lon="11.81972750505567"><ele>305.0</ele><time>2026-04-12T09:32:11Z</time></trkpt><trkpt lat="46.00200376871104" lon="11.82002325213833"><ele>305.0</ele><time>2026-04-12T09:32:12Z</time></trkpt><trkpt lat="46.00201039709191" lon="11.820319157611706"><ele>305.33333333333337</ele><time>2026-04-12T09:32:13Z</time></trkpt><trkpt lat="46.00201805102891" lon="11.82061013509414"><ele>305.6666666666667</ele><time>2026-04-12T09:32:14Z</time></trkpt><trkpt lat="46.00202374131796" lon="11.820891722574324"><ele>306.0</ele><time>2026-04-12T09:32:15Z</time></trkpt><trkpt lat="46.00202965007564" lon="11.821170930481626"><ele>306.6666666666667</ele><time>2026-04-12T09:32:16Z</time></trkpt><trkpt lat="46.00203000828892" lon="11.821444292067907"><ele>307.33333333333337</ele><time>2026-04-12T09:32:17Z</time></trkpt><trkpt lat="46.002031791093344" lon="11.821715693725864"><ele>308.0</ele><time>2026-04-12T09:32:18Z</time></trkpt><trkpt lat="46.00203302959557" lon="11.82198615156278"><ele>308.33333333333337</ele><time>2026-04-12T09:32:19Z</time></trkpt><trkpt lat="46.00203686308393" lon="11.822258029312028"><ele>308.6666666666667</ele><time>2026-04-12T09:32:20Z</time></trkpt><trkpt lat="46.00204141879075" lon="11.822532649221328"><ele>309.0</ele><time>2026-04-12T09:32:21Z</time></trkpt><trkpt lat="46.002047891483286" lon="11.822810158057143"><ele>308.3333333333333</ele><time>2026-04-12T09:32:22Z</time></trkpt><trkpt lat="46.00205306310903" lon="11.82309286522313"><ele>307.66666666666663</ele><time>2026-04-12T09:32:23Z</time></trkpt><trkpt lat="46.002054373003844" lon="11.823377406087591"><ele>307.0</ele><time>2026-04-12T09:32:24Z</time></trkpt><trkpt lat="46.002056337459344" lon="11.823661683031682"><ele>308.3333333333333</ele><time>2026-04-12T09:32:25Z</time></trkpt><trkpt lat="46.002060750054525" lon="11.823946220521025"><ele>309.6666666666667</ele><time>2026-04-12T09:32:25.999Z</time></trkpt><trkpt lat="46.00206741322761" lon="11.824233226239734"><ele>311.0</ele><time>2026-04-12T09:32:26.999Z</time></trkpt><trkpt lat="46.00207103206093" lon="11.824520561088692"><ele>311.6666666666667</ele><time>2026-04-12T09:32:27.999Z</time></trkpt><trkpt lat="46.002074925467355" lon="11.82480907374086"><ele>312.3333333333333</ele><time>2026-04-12T09:32:28.999Z</time></trkpt><trkpt lat="46.00208146027102" lon="11.825098811067217"><ele>313.0</ele><time>2026-04-12T09:32:29.999Z</time></trkpt><trkpt lat="46.002087966440236" lon="11.825385324991911"><ele>313.3333333333333</ele><time>2026-04-12T09:32:30.999Z</time></trkpt><trkpt lat="46.00209226946832" lon="11.825663821809327"><ele>313.6666666666667</ele><time>2026-04-12T09:32:31.999Z</time></trkpt><trkpt lat="46.00209140328628" lon="11.825942603597243"><ele>314.0</ele><time>2026-04-12T09:32:32.999Z</time></trkpt><trkpt lat="46.00209645644033" lon="11.826220721326335"><ele>314.33333333333337</ele><time>2026-04-12T09:32:33.999Z</time></trkpt><trkpt lat="46.002098249278085" lon="11.826501235235353"><ele>314.6666666666667</ele><time>2026-04-12T09:32:34.999Z</time></trkpt><trkpt lat="46.00210142714056" lon="11.826782615021969"><ele>315.0</ele><time>2026-04-12T09:32:35.999Z</time></trkpt><trkpt lat="46.00210769086455" lon="11.82706648997139"><ele>315.0</ele><time>2026-04-12T09:32:36.999Z</time></trkpt><trkpt lat="46.00211167108504" lon="11.827355930983469"><ele>315.0</ele><time>2026-04-12T09:32:37.999Z</time></trkpt><trkpt lat="46.002116568429685" lon="11.827647242371388"><ele>315.0</ele><time>2026-04-12T09:32:38.999Z</time></trkpt><trkpt lat="46.00212013564719" lon="11.827938999939397"><ele>314.6666666666667</ele><time>2026-04-12T09:32:39.999Z</time></trkpt><trkpt lat="46.00212379589887" lon="11.828230011080313"><ele>314.33333333333337</ele><time>2026-04-12T09:32:40.999Z</time></trkpt><trkpt lat="46.002126615453484" lon="11.828520899337843"><ele>314.0</ele><time>2026-04-12T09:32:41.999Z</time></trkpt><trkpt lat="46.00213130669229" lon="11.82881517783338"><ele>314.0</ele><time>2026-04-12T09:32:42.999Z</time></trkpt><trkpt lat="46.00213581474756" lon="11.82910658431867"><ele>314.0</ele><time>2026-04-12T09:32:43.999Z</time></trkpt><trkpt lat="46.002141427038595" lon="11.829403540348691"><ele>314.0</ele><time>2026-04-12T09:32:44.999Z</time></trkpt><trkpt lat="46.00214490589725" lon="11.829704145890565"><ele>314.6666666666667</ele><time>2026-04-12T09:32:45.999Z</time></trkpt><trkpt lat="46.00214872189228" lon="11.830012114939601"><ele>315.3333333333333</ele><time>2026-04-12T09:32:46.999Z</time></trkpt><trkpt lat="46.002156375714925" lon="11.83032178393763"><ele>316.0</ele><time>2026-04-12T09:32:47.999Z</time></trkpt><trkpt lat="46.0021622015681" lon="11.83063304614639"><ele>316.3333333333333</ele><time>2026-04-12T09:32:48.999Z</time></trkpt><trkpt lat="46.00216468585501" lon="11.830944470190198"><ele>316.6666666666667</ele><time>2026-04-12T09:32:49.999Z</time></trkpt><trkpt lat="46.00217188239851" lon="11.831247673337229"><ele>317.0</ele><time>2026-04-12T09:32:50.999Z</time></trkpt><trkpt lat="46.002176819598" lon="11.831553590872044"><ele>317.33333333333337</ele><time>2026-04-12T09:32:51.999Z</time></trkpt><trkpt lat="46.00218333671747" lon="11.831856936213768"><ele>317.6666666666667</ele><time>2026-04-12T09:32:52.999Z</time></trkpt><trkpt lat="46.00218640013093" lon="11.832152748435098"><ele>318.0</ele><time>2026-04-12T09:32:53.999Z</time></trkpt><trkpt lat="46.00219171267824" lon="11.832439736232882"><ele>318.0</ele><time>2026-04-12T09:32:54.999Z</time></trkpt><trkpt lat="46.00219674228407" lon="11.832727176716713"><ele>318.0</ele><time>2026-04-12T09:32:55.999Z</time></trkpt><trkpt lat="46.002199040262234" lon="11.833007496870264"><ele>318.0</ele><time>2026-04-12T09:32:56.999Z</time></trkpt><trkpt lat="46.00220339326164" lon="11.833267425121909"><ele>318.0</ele><time>2026-04-12T09:32:57.999Z</time></trkpt><trkpt lat="46.00220701568112" lon="11.833518437360924"><ele>318.0</ele><time>2026-04-12T09:32:58.999Z</time></trkpt><trkpt lat="46.002213172969775" lon="11.833755121664439"><ele>318.0</ele><time>2026-04-12T09:32:59.999Z</time></trkpt><trkpt lat="46.00222212993778" lon="11.83397359913703"><ele>318.0</ele><time>2026-04-12T09:33:00.999Z</time></trkpt><trkpt lat="46.00222674985845" lon="11.834166922331505"><ele>318.0</ele><time>2026-04-12T09:33:01.999Z</time></trkpt><trkpt lat="46.00223071921157" lon="11.834345189819079"><ele>318.0</ele><time>2026-04-12T09:33:02.999Z</time></trkpt><trkpt lat="46.00222926002115" lon="11.834516841967577"><ele>318.0</ele><time>2026-04-12T09:33:03.999Z</time></trkpt><trkpt lat="46.002225700460926" lon="11.83467877699506"><ele>318.0</ele><time>2026-04-12T09:33:04.999Z</time></trkpt><trkpt lat="46.00221939660773" lon="11.834830566492244"><ele>318.0</ele><time>2026-04-12T09:33:05.999Z</time></trkpt><trkpt lat="46.00221457712631" lon="11.83497365428049"><ele>318.0</ele><time>2026-04-12T09:33:06.999Z</time></trkpt><trkpt lat="46.00220655591448" lon="11.835122289984172"><ele>318.0</ele><time>2026-04-12T09:33:07.999Z</time></trkpt><trkpt lat="46.00219807786523" lon="11.835270320225922"><ele>318.0</ele><time>2026-04-12T09:33:08.999Z</time></trkpt><trkpt lat="46.00219424865792" lon="11.83541931193751"><ele>318.1666666666667</ele><time>2026-04-12T09:33:09.999Z</time></trkpt><trkpt lat="46.00219047718524" lon="11.835568236247301"><ele>318.3333333333333</ele><time>2026-04-12T09:33:10.999Z</time></trkpt><trkpt lat="46.00218353007564" lon="11.835703399040067"><ele>318.5</ele><time>2026-04-12T09:33:11.999Z</time></trkpt><trkpt lat="46.00217656267299" lon="11.83583034969211"><ele>318.66666666666663</ele><time>2026-04-12T09:33:12.999Z</time></trkpt><trkpt lat="46.00216933222848" lon="11.835947261914129"><ele>318.8333333333333</ele><time>2026-04-12T09:33:13.999Z</time></trkpt><trkpt lat="46.00216000597888" lon="11.836053975111458"><ele>319.0</ele><time>2026-04-12T09:33:14.999Z</time></trkpt><trkpt lat="46.002143990211444" lon="11.836173067929447"><ele>319.0</ele><time>2026-04-12T09:33:15.999Z</time></trkpt><trkpt lat="46.00211107483637" lon="11.836294167823297"><ele>319.0</ele><time>2026-04-12T09:33:16.999Z</time></trkpt><trkpt lat="46.00208489980804" lon="11.836421461620445"><ele>319.0</ele><time>2026-04-12T09:33:17.998Z</time></trkpt><trkpt lat="46.002081982424556" lon="11.836566525323125"><ele>319.0</ele><time>2026-04-12T09:33:18.998Z</time></trkpt><trkpt lat="46.002095544639246" lon="11.836709327381847"><ele>319.0</ele><time>2026-04-12T09:33:19.998Z</time></trkpt><trkpt lat="46.002125583647775" lon="11.836833083940062"><ele>319.0</ele><time>2026-04-12T09:33:20.998Z</time></trkpt><trkpt lat="46.002203498838966" lon="11.836920952980787"><ele>319.0</ele><time>2026-04-12T09:33:21.998Z</time></trkpt><trkpt lat="46.002297109973036" lon="11.836971750034943"><ele>319.0</ele><time>2026-04-12T09:33:22.998Z</time></trkpt><trkpt lat="46.002392175136364" lon="11.83696892636521"><ele>319.0</ele><time>2026-04-12T09:33:23.998Z</time></trkpt><trkpt lat="46.002484512737375" lon="11.836952269796676"><ele>319.0</ele><time>2026-04-12T09:33:24.998Z</time></trkpt><trkpt lat="46.00257231119421" lon="11.83694650540744"><ele>319.0</ele><time>2026-04-12T09:33:25.998Z</time></trkpt><trkpt lat="46.002657990143945" lon="11.836996544423"><ele>319.0</ele><time>2026-04-12T09:33:26.998Z</time></trkpt><trkpt lat="46.002740471269874" lon="11.837084853680098"><ele>319.0</ele><time>2026-04-12T09:33:27.998Z</time></trkpt><trkpt lat="46.002808526219745" lon="11.837186644870814"><ele>319.0</ele><time>2026-04-12T09:33:28.998Z</time></trkpt><trkpt lat="46.002862502905316" lon="11.837307950795058"><ele>319.0</ele><time>2026-04-12T09:33:29.998Z</time></trkpt><trkpt lat="46.00290922847391" lon="11.837430227966436"><ele>319.0</ele><time>2026-04-12T09:33:30.998Z</time></trkpt><trkpt lat="46.00295264712527" lon="11.837539275597619"><ele>319.0</ele><time>2026-04-12T09:33:31.998Z</time></trkpt><trkpt lat="46.00299534336388" lon="11.837647365555865"><ele>319.0</ele><time>2026-04-12T09:33:32.998Z</time></trkpt><trkpt lat="46.00304111757977" lon="11.837759392775665"><ele>319.0</ele><time>2026-04-12T09:33:33.998Z</time></trkpt><trkpt lat="46.00308370002159" lon="11.83786827381789"><ele>319.0</ele><time>2026-04-12T09:33:34.998Z</time></trkpt><trkpt lat="46.0031236576809" lon="11.837977436914894"><ele>319.0</ele><time>2026-04-12T09:33:35.998Z</time></trkpt><trkpt lat="46.003170915828555" lon="11.838088806239051"><ele>319.0</ele><time>2026-04-12T09:33:36.998Z</time></trkpt><trkpt lat="46.00321699503226" lon="11.838194483525635"><ele>319.0</ele><time>2026-04-12T09:33:37.998Z</time></trkpt><trkpt lat="46.00325631320438" lon="11.838293991512568"><ele>319.0</ele><time>2026-04-12T09:33:38.998Z</time></trkpt><trkpt lat="46.00329228431274" lon="11.83838194205963"><ele>319.0</ele><time>2026-04-12T09:33:39.998Z</time></trkpt><trkpt lat="46.00332605863171" lon="11.838461755620607"><ele>319.0</ele><time>2026-04-12T09:33:40.998Z</time></trkpt><trkpt lat="46.0033903013026" lon="11.838610483377224"><ele>319.0</ele><time>2026-04-12T09:33:42.998Z</time></trkpt><trkpt lat="46.00342926962819" lon="11.838688550531177"><ele>319.0</ele><time>2026-04-12T09:33:43.998Z</time></trkpt><trkpt lat="46.00349970541589" lon="11.838818175148234"><ele>319.0</ele><time>2026-04-12T09:33:45.998Z</time></trkpt><trkpt lat="46.003529296979686" lon="11.83891420558734"><ele>319.0</ele><time>2026-04-12T09:33:47.998Z</time></trkpt><trkpt lat="46.0035515695104" lon="11.839034041586217"><ele>319.0</ele><time>2026-04-12T09:33:50.998Z</time></trkpt><trkpt lat="46.00351870629448" lon="11.839135193960503"><ele>319.0</ele><time>2026-04-12T09:33:55Z</time></trkpt><trkpt lat="46.003523710401055" lon="11.839255665408679"><ele>319.0</ele><time>2026-04-12T09:35:51.998Z</time></trkpt><trkpt lat="46.00361128826982" lon="11.839340312116397"><ele>319.5</ele><time>2026-04-12T09:35:53.998Z</time></trkpt><trkpt lat="46.00365860502223" lon="11.83944362741693"><ele>320.0</ele><time>2026-04-12T09:35:55.998Z</time></trkpt><trkpt lat="46.00363483276812" lon="11.839568389223835"><ele>320.5</ele><time>2026-04-12T09:35:57.998Z</time></trkpt><trkpt lat="46.003627961513445" lon="11.83968725233798"><ele>321.0</ele><time>2026-04-12T09:36:00Z</time></trkpt><trkpt lat="46.00360819653183" lon="11.839797656398503"><ele>321.5</ele><time>2026-04-12T09:36:02Z</time></trkpt><trkpt lat="46.0035822880438" lon="11.839892242431741"><ele>322.0</ele><time>2026-04-12T09:36:04Z</time></trkpt><trkpt lat="46.003555839586234" lon="11.839981747884101"><ele>322.0</ele><time>2026-04-12T09:36:06Z</time></trkpt><trkpt lat="46.003520380641696" lon="11.840086339412814"><ele>322.0</ele><time>2026-04-12T09:36:08Z</time></trkpt><trkpt lat="46.00349237939312" lon="11.840190248701424"><ele>322.0</ele><time>2026-04-12T09:36:10Z</time></trkpt><trkpt lat="46.00346170678339" lon="11.840306311109915"><ele>322.0</ele><time>2026-04-12T09:36:12Z</time></trkpt><trkpt lat="46.00342064302111" lon="11.840431336934472"><ele>322.0</ele><time>2026-04-12T09:36:14Z</time></trkpt><trkpt lat="46.00337562908409" lon="11.840567066653271"><ele>322.0</ele><time>2026-04-12T09:36:16Z</time></trkpt><trkpt lat="46.00332838058634" lon="11.840716369362017"><ele>321.8333333333333</ele><time>2026-04-12T09:36:18Z</time></trkpt><trkpt lat="46.003275389303134" lon="11.840886735661371"><ele>321.66666666666663</ele><time>2026-04-12T09:36:20Z</time></trkpt><trkpt lat="46.00324785192296" lon="11.840983569434497"><ele>321.5</ele><time>2026-04-12T09:36:21Z</time></trkpt><trkpt lat="46.00321827982923" lon="11.841083525585779"><ele>321.3333333333333</ele><time>2026-04-12T09:36:22Z</time></trkpt><trkpt lat="46.003192429522656" lon="11.841188283610052"><ele>321.1666666666667</ele><time>2026-04-12T09:36:23Z</time></trkpt><trkpt lat="46.00316281345199" lon="11.841294829247884"><ele>321.0</ele><time>2026-04-12T09:36:24Z</time></trkpt><trkpt lat="46.003130325017786" lon="11.841396161011012"><ele>320.99999999999994</ele><time>2026-04-12T09:36:25Z</time></trkpt><trkpt lat="46.00309915038844" lon="11.84149319757708"><ele>321.0</ele><time>2026-04-12T09:36:26Z</time></trkpt><trkpt lat="46.00306996699867" lon="11.841585839009937"><ele>321.0</ele><time>2026-04-12T09:36:27Z</time></trkpt><trkpt lat="46.00304676200524" lon="11.84167754043857"><ele>321.0</ele><time>2026-04-12T09:36:28Z</time></trkpt><trkpt lat="46.00302872755169" lon="11.841772439767267"><ele>321.0</ele><time>2026-04-12T09:36:29Z</time></trkpt><trkpt lat="46.00301348215706" lon="11.841873738731563"><ele>320.99999999999994</ele><time>2026-04-12T09:36:30Z</time></trkpt><trkpt lat="46.00299943940118" lon="11.841974946641432"><ele>321.0</ele><time>2026-04-12T09:36:31Z</time></trkpt><trkpt lat="46.00298855334386" lon="11.842070945295118"><ele>321.1428571428571</ele><time>2026-04-12T09:36:32Z</time></trkpt><trkpt lat="46.00297952354504" lon="11.8421627155539"><ele>321.2857142857143</ele><time>2026-04-12T09:36:33Z</time></trkpt><trkpt lat="46.00297223498314" lon="11.842256901759619"><ele>321.42857142857144</ele><time>2026-04-12T09:36:34Z</time></trkpt><trkpt lat="46.00296903814615" lon="11.842355688479579"><ele>321.57142857142856</ele><time>2026-04-12T09:36:35Z</time></trkpt><trkpt lat="46.00296792509678" lon="11.842460641901951"><ele>321.7142857142857</ele><time>2026-04-12T09:36:36Z</time></trkpt><trkpt lat="46.00296981973085" lon="11.842571587263262"><ele>321.85714285714283</ele><time>2026-04-12T09:36:37Z</time></trkpt><trkpt lat="46.002978426013804" lon="11.842689992026331"><ele>322.0</ele><time>2026-04-12T09:36:38Z</time></trkpt><trkpt lat="46.00298577677928" lon="11.84281126941432"><ele>322.0</ele><time>2026-04-12T09:36:39Z</time></trkpt><trkpt lat="46.002995358095795" lon="11.84293629789748"><ele>322.0</ele><time>2026-04-12T09:36:39.999Z</time></trkpt><trkpt lat="46.00300444063245" lon="11.843064360030414"><ele>322.0</ele><time>2026-04-12T09:36:40.999Z</time></trkpt><trkpt lat="46.00301530910308" lon="11.843186256332826"><ele>322.0</ele><time>2026-04-12T09:36:41.999Z</time></trkpt><trkpt lat="46.00302685506413" lon="11.843307716651761"><ele>322.0</ele><time>2026-04-12T09:36:42.999Z</time></trkpt><trkpt lat="46.003038813947" lon="11.843434401327851"><ele>322.0</ele><time>2026-04-12T09:36:43.999Z</time></trkpt><trkpt lat="46.00305764043704" lon="11.843565233137452"><ele>321.6</ele><time>2026-04-12T09:36:44.999Z</time></trkpt><trkpt lat="46.00308112193931" lon="11.843701097551524"><ele>321.20000000000005</ele><time>2026-04-12T09:36:45.999Z</time></trkpt><trkpt lat="46.00310346837383" lon="11.843847825592652"><ele>320.8</ele><time>2026-04-12T09:36:46.999Z</time></trkpt><trkpt lat="46.00313203431852" lon="11.844005028406395"><ele>320.4</ele><time>2026-04-12T09:36:47.999Z</time></trkpt><trkpt lat="46.00316968973753" lon="11.844171446225527"><ele>320.0</ele><time>2026-04-12T09:36:48.999Z</time></trkpt><trkpt lat="46.00320848659624" lon="11.844322733500181"><ele>320.25</ele><time>2026-04-12T09:36:49.999Z</time></trkpt><trkpt lat="46.0032524786096" lon="11.844487017999718"><ele>320.5</ele><time>2026-04-12T09:36:50.999Z</time></trkpt><trkpt lat="46.00330223203718" lon="11.844657772719609"><ele>320.75</ele><time>2026-04-12T09:36:51.999Z</time></trkpt><trkpt lat="46.00336040085671" lon="11.844836078209712"><ele>321.0</ele><time>2026-04-12T09:36:52.999Z</time></trkpt><trkpt lat="46.00342280277327" lon="11.845017329549052"><ele>319.3333333333333</ele><time>2026-04-12T09:36:53.999Z</time></trkpt><trkpt lat="46.00349146406317" lon="11.845210006924356"><ele>317.66666666666663</ele><time>2026-04-12T09:36:54.999Z</time></trkpt><trkpt lat="46.00357178502512" lon="11.845411478184293"><ele>316.0</ele><time>2026-04-12T09:36:55.999Z</time></trkpt><trkpt lat="46.00365714889161" lon="11.845615733082989"><ele>316.0</ele><time>2026-04-12T09:36:56.999Z</time></trkpt><trkpt lat="46.003749043891936" lon="11.845821875299405"><ele>316.0</ele><time>2026-04-12T09:36:57.999Z</time></trkpt><trkpt lat="46.0038471489897" lon="11.846026933574414"><ele>316.0</ele><time>2026-04-12T09:36:58.999Z</time></trkpt><trkpt lat="46.00394567655619" lon="11.846231267649236"><ele>315.3333333333333</ele><time>2026-04-12T09:36:59.999Z</time></trkpt><trkpt lat="46.004046611741096" lon="11.846437785522639"><ele>314.6666666666667</ele><time>2026-04-12T09:37:00.999Z</time></trkpt><trkpt lat="46.00413579876863" lon="11.846648018436206"><ele>314.0</ele><time>2026-04-12T09:37:01.999Z</time></trkpt><trkpt lat="46.00421975464459" lon="11.846844223081817"><ele>314.0</ele><time>2026-04-12T09:37:02.999Z</time></trkpt><trkpt lat="46.00429942904766" lon="11.84702485865978"><ele>314.0</ele><time>2026-04-12T09:37:03.999Z</time></trkpt><trkpt lat="46.004377845649756" lon="11.847194590604998"><ele>314.0</ele><time>2026-04-12T09:37:04.999Z</time></trkpt><trkpt lat="46.00445951472709" lon="11.847359071035246"><ele>314.0</ele><time>2026-04-12T09:37:05.999Z</time></trkpt><trkpt lat="46.00454269918042" lon="11.847523195263586"><ele>313.25</ele><time>2026-04-12T09:37:06.999Z</time></trkpt><trkpt lat="46.004632209941875" lon="11.847686956910017"><ele>312.5</ele><time>2026-04-12T09:37:07.999Z</time></trkpt><trkpt lat="46.00472516362132" lon="11.847850496127116"><ele>311.75</ele><time>2026-04-12T09:37:08.999Z</time></trkpt><trkpt lat="46.004824394563684" lon="11.848013591621232"><ele>311.0</ele><time>2026-04-12T09:37:09.999Z</time></trkpt><trkpt lat="46.004925034503486" lon="11.848185513610773"><ele>311.0</ele><time>2026-04-12T09:37:10.999Z</time></trkpt><trkpt lat="46.005026918929836" lon="11.848364644907447"><ele>311.0</ele><time>2026-04-12T09:37:11.999Z</time></trkpt><trkpt lat="46.00512954662931" lon="11.848548418868921"><ele>311.0</ele><time>2026-04-12T09:37:12.999Z</time></trkpt><trkpt lat="46.00523031048635" lon="11.848740956689973"><ele>311.0</ele><time>2026-04-12T09:37:13.999Z</time></trkpt><trkpt lat="46.00532939345143" lon="11.848937298319424"><ele>311.0</ele><time>2026-04-12T09:37:14.999Z</time></trkpt><trkpt lat="46.00542934083345" lon="11.849143044958122"><ele>311.0</ele><time>2026-04-12T09:37:15.999Z</time></trkpt><trkpt lat="46.00552944616363" lon="11.849349942066198"><ele>311.0</ele><time>2026-04-12T09:37:16.999Z</time></trkpt><trkpt lat="46.00562688874422" lon="11.849577551468123"><ele>311.0</ele><time>2026-04-12T09:37:17.999Z</time></trkpt><trkpt lat="46.00571372970491" lon="11.849808794917047"><ele>311.0</ele><time>2026-04-12T09:37:18.999Z</time></trkpt><trkpt lat="46.00578369965794" lon="11.850028078169048"><ele>311.0</ele><time>2026-04-12T09:37:19.999Z</time></trkpt><trkpt lat="46.00585212629309" lon="11.850233170082888"><ele>311.0</ele><time>2026-04-12T09:37:20.999Z</time></trkpt><trkpt lat="46.005921013245434" lon="11.850430979556615"><ele>311.0</ele><time>2026-04-12T09:37:21.999Z</time></trkpt><trkpt lat="46.00599021793862" lon="11.850626933261687"><ele>311.0</ele><time>2026-04-12T09:37:22.999Z</time></trkpt><trkpt lat="46.006060355304896" lon="11.850832715183351"><ele>311.0</ele><time>2026-04-12T09:37:23.999Z</time></trkpt><trkpt lat="46.006127669082815" lon="11.85103434560165"><ele>311.0</ele><time>2026-04-12T09:37:24.999Z</time></trkpt><trkpt lat="46.006193953932986" lon="11.851240435134537"><ele>310.6666666666667</ele><time>2026-04-12T09:37:25.999Z</time></trkpt><trkpt lat="46.006261888914565" lon="11.85143394693936"><ele>310.3333333333333</ele><time>2026-04-12T09:37:26.999Z</time></trkpt><trkpt lat="46.00633257305319" lon="11.8516283835659"><ele>310.0</ele><time>2026-04-12T09:37:27.999Z</time></trkpt><trkpt lat="46.00639995563939" lon="11.85182820004399"><ele>309.0</ele><time>2026-04-12T09:37:28.999Z</time></trkpt><trkpt lat="46.00646901054624" lon="11.852019915150848"><ele>308.0</ele><time>2026-04-12T09:37:29.999Z</time></trkpt><trkpt lat="46.00653873421125" lon="11.852219846579985"><ele>307.0</ele><time>2026-04-12T09:37:30.999Z</time></trkpt><trkpt lat="46.00660329225863" lon="11.852425658254745"><ele>306.75</ele><time>2026-04-12T09:37:31.999Z</time></trkpt><trkpt lat="46.0066660213946" lon="11.852620868735848"><ele>306.5</ele><time>2026-04-12T09:37:32.998Z</time></trkpt><trkpt lat="46.00672849768408" lon="11.852815065891244"><ele>306.25</ele><time>2026-04-12T09:37:33.998Z</time></trkpt><trkpt lat="46.006792363503436" lon="11.85300184466625"><ele>306.0</ele><time>2026-04-12T09:37:34.998Z</time></trkpt><trkpt lat="46.00686397116653" lon="11.85318914268619"><ele>306.0</ele><time>2026-04-12T09:37:35.998Z</time></trkpt><trkpt lat="46.00693334026881" lon="11.853385781695808"><ele>306.0</ele><time>2026-04-12T09:37:36.998Z</time></trkpt><trkpt lat="46.007001684354805" lon="11.853582803237988"><ele>306.0</ele><time>2026-04-12T09:37:37.998Z</time></trkpt><trkpt lat="46.00706339634166" lon="11.853773697469844"><ele>306.0</ele><time>2026-04-12T09:37:38.998Z</time></trkpt><trkpt lat="46.007128387454635" lon="11.853964778815214"><ele>306.0</ele><time>2026-04-12T09:37:39.998Z</time></trkpt><trkpt lat="46.00719576486819" lon="11.854155050625215"><ele>306.0</ele><time>2026-04-12T09:37:40.998Z</time></trkpt><trkpt lat="46.007262233606504" lon="11.854347462462455"><ele>306.0</ele><time>2026-04-12T09:37:41.998Z</time></trkpt><trkpt lat="46.00732968772715" lon="11.854542631684241"><ele>305.3333333333333</ele><time>2026-04-12T09:37:42.998Z</time></trkpt><trkpt lat="46.007398658922256" lon="11.854734535152664"><ele>304.66666666666663</ele><time>2026-04-12T09:37:43.998Z</time></trkpt><trkpt lat="46.007466469332684" lon="11.854931802969693"><ele>304.0</ele><time>2026-04-12T09:37:44.998Z</time></trkpt><trkpt lat="46.00753654445152" lon="11.85512901512277"><ele>303.66666666666663</ele><time>2026-04-12T09:37:45.998Z</time></trkpt><trkpt lat="46.007604717609865" lon="11.855330870249189"><ele>303.3333333333333</ele><time>2026-04-12T09:37:46.998Z</time></trkpt><trkpt lat="46.0076729027636" lon="11.855531682673938"><ele>303.0</ele><time>2026-04-12T09:37:47.998Z</time></trkpt><trkpt lat="46.007742949110266" lon="11.855736733525658"><ele>303.0</ele><time>2026-04-12T09:37:48.998Z</time></trkpt><trkpt lat="46.00781558282182" lon="11.855946463382713"><ele>303.0</ele><time>2026-04-12T09:37:49.998Z</time></trkpt><trkpt lat="46.00788729406952" lon="11.856155291113973"><ele>303.0</ele><time>2026-04-12T09:37:50.998Z</time></trkpt><trkpt lat="46.00796303777888" lon="11.856362223036102"><ele>302.3333333333333</ele><time>2026-04-12T09:37:51.998Z</time></trkpt><trkpt lat="46.008040181236815" lon="11.856577757222832"><ele>301.66666666666663</ele><time>2026-04-12T09:37:52.998Z</time></trkpt><trkpt lat="46.00811268782689" lon="11.856793976755291"><ele>301.0</ele><time>2026-04-12T09:37:53.998Z</time></trkpt><trkpt lat="46.008185492346534" lon="11.85701793769581"><ele>300.3333333333333</ele><time>2026-04-12T09:37:54.998Z</time></trkpt><trkpt lat="46.008260684184656" lon="11.857237497300982"><ele>299.6666666666667</ele><time>2026-04-12T09:37:55.998Z</time></trkpt><trkpt lat="46.008338134388794" lon="11.857464626141336"><ele>299.0</ele><time>2026-04-12T09:37:56.998Z</time></trkpt><trkpt lat="46.0084235210092" lon="11.857699946006505"><ele>299.0</ele><time>2026-04-12T09:37:57.998Z</time></trkpt><trkpt lat="46.008504858419656" lon="11.857922734770485"><ele>299.0</ele><time>2026-04-12T09:37:58.998Z</time></trkpt><trkpt lat="46.00857883979176" lon="11.858138511121766"><ele>299.0</ele><time>2026-04-12T09:37:59.998Z</time></trkpt><trkpt lat="46.008652862015055" lon="11.858363651393256"><ele>298.0</ele><time>2026-04-12T09:38:00.998Z</time></trkpt><trkpt lat="46.008727978220634" lon="11.858584395429922"><ele>297.0</ele><time>2026-04-12T09:38:01.998Z</time></trkpt><trkpt lat="46.00880393218362" lon="11.858808171814479"><ele>296.0</ele><time>2026-04-12T09:38:02.998Z</time></trkpt><trkpt lat="46.00887986887365" lon="11.859037363152185"><ele>296.0</ele><time>2026-04-12T09:38:03.998Z</time></trkpt><trkpt lat="46.00895682497451" lon="11.859265157721195"><ele>296.0</ele><time>2026-04-12T09:38:04.998Z</time></trkpt><trkpt lat="46.009034581453584" lon="11.859495755906211"><ele>296.0</ele><time>2026-04-12T09:38:06Z</time></trkpt><trkpt lat="46.00910912942547" lon="11.859717127062247"><ele>295.6666666666667</ele><time>2026-04-12T09:38:07Z</time></trkpt><trkpt lat="46.00918721916158" lon="11.859936067153681"><ele>295.3333333333333</ele><time>2026-04-12T09:38:08Z</time></trkpt><trkpt lat="46.009259016811875" lon="11.860156631497013"><ele>295.0</ele><time>2026-04-12T09:38:09Z</time></trkpt><trkpt lat="46.00933509994302" lon="11.86038300989828"><ele>294.66666666666663</ele><time>2026-04-12T09:38:10Z</time></trkpt><trkpt lat="46.00941193082953" lon="11.860594296212382"><ele>294.3333333333333</ele><time>2026-04-12T09:38:11Z</time></trkpt><trkpt lat="46.0094877668172" lon="11.860806404663371"><ele>294.0</ele><time>2026-04-12T09:38:12Z</time></trkpt><trkpt lat="46.00956082566968" lon="11.861022660350631"><ele>293.0</ele><time>2026-04-12T09:38:13Z</time></trkpt><trkpt lat="46.00963370281636" lon="11.861235906158367"><ele>292.0</ele><time>2026-04-12T09:38:14Z</time></trkpt><trkpt lat="46.00970765561981" lon="11.861450926986171"><ele>291.0</ele><time>2026-04-12T09:38:15Z</time></trkpt><trkpt lat="46.00978100502528" lon="11.861667622160862"><ele>291.0</ele><time>2026-04-12T09:38:16Z</time></trkpt><trkpt lat="46.0098477119908" lon="11.861891051390376"><ele>291.0</ele><time>2026-04-12T09:38:17Z</time></trkpt><trkpt lat="46.00992518294178" lon="11.862104465549942"><ele>291.0</ele><time>2026-04-12T09:38:18Z</time></trkpt><trkpt lat="46.01000357578138" lon="11.86232354326066"><ele>291.0</ele><time>2026-04-12T09:38:19Z</time></trkpt><trkpt lat="46.01007928727206" lon="11.862540242929548"><ele>291.0</ele><time>2026-04-12T09:38:20Z</time></trkpt><trkpt lat="46.010158758720365" lon="11.862763285853186"><ele>291.0</ele><time>2026-04-12T09:38:21Z</time></trkpt><trkpt lat="46.01023404629279" lon="11.862988069465585"><ele>291.0</ele><time>2026-04-12T09:38:22Z</time></trkpt><trkpt lat="46.010309829372545" lon="11.863217123292129"><ele>291.0</ele><time>2026-04-12T09:38:23Z</time></trkpt><trkpt lat="46.01038982090531" lon="11.86345082424496"><ele>291.0</ele><time>2026-04-12T09:38:24Z</time></trkpt><trkpt lat="46.01046871858803" lon="11.86368618858392"><ele>291.3333333333333</ele><time>2026-04-12T09:38:25Z</time></trkpt><trkpt lat="46.01055159751156" lon="11.863918935627161"><ele>291.66666666666663</ele><time>2026-04-12T09:38:26Z</time></trkpt><trkpt lat="46.010630473605985" lon="11.864149954003326"><ele>292.0</ele><time>2026-04-12T09:38:27Z</time></trkpt><trkpt lat="46.01070590154021" lon="11.864363975852525"><ele>291.0</ele><time>2026-04-12T09:38:28Z</time></trkpt><trkpt lat="46.01077645804111" lon="11.86457025372204"><ele>290.0</ele><time>2026-04-12T09:38:29Z</time></trkpt><trkpt lat="46.010844663418794" lon="11.864768695086738"><ele>289.0</ele><time>2026-04-12T09:38:30Z</time></trkpt><trkpt lat="46.01091226019998" lon="11.864970258734838"><ele>288.3333333333333</ele><time>2026-04-12T09:38:31Z</time></trkpt><trkpt lat="46.010981176982085" lon="11.865170033657984"><ele>287.6666666666667</ele><time>2026-04-12T09:38:32Z</time></trkpt><trkpt lat="46.011050694673195" lon="11.865374211716496"><ele>287.0</ele><time>2026-04-12T09:38:33Z</time></trkpt><trkpt lat="46.011122094740614" lon="11.865580339120209"><ele>287.0</ele><time>2026-04-12T09:38:34Z</time></trkpt><trkpt lat="46.01119404544434" lon="11.865789351119433"><ele>287.0</ele><time>2026-04-12T09:38:35Z</time></trkpt><trkpt lat="46.011268348552015" lon="11.866004039765427"><ele>287.0</ele><time>2026-04-12T09:38:36Z</time></trkpt><trkpt lat="46.01134040964676" lon="11.866211220422318"><ele>286.6666666666667</ele><time>2026-04-12T09:38:37Z</time></trkpt><trkpt lat="46.01141305497086" lon="11.866418894258796"><ele>286.3333333333333</ele><time>2026-04-12T09:38:38Z</time></trkpt><trkpt lat="46.0114863552232" lon="11.866629466366884"><ele>286.0</ele><time>2026-04-12T09:38:39Z</time></trkpt><trkpt lat="46.011563915977156" lon="11.866818147113259"><ele>286.0</ele><time>2026-04-12T09:38:40Z</time></trkpt><trkpt lat="46.01163434649769" lon="11.867055905431094"><ele>286.0</ele><time>2026-04-12T09:38:41Z</time></trkpt><trkpt lat="46.01170683306937" lon="11.867264467825395"><ele>286.0</ele><time>2026-04-12T09:38:42Z</time></trkpt><trkpt lat="46.01178213162118" lon="11.86746528880927"><ele>286.0</ele><time>2026-04-12T09:38:43Z</time></trkpt><trkpt lat="46.01185584527841" lon="11.867682763301824"><ele>286.0</ele><time>2026-04-12T09:38:44Z</time></trkpt><trkpt lat="46.01192962258082" lon="11.867894738914677"><ele>286.0</ele><time>2026-04-12T09:38:45Z</time></trkpt><trkpt lat="46.01200002482598" lon="11.868101384540203"><ele>286.0</ele><time>2026-04-12T09:38:45.999Z</time></trkpt><trkpt lat="46.01206998553007" lon="11.86831110203913"><ele>286.0</ele><time>2026-04-12T09:38:46.999Z</time></trkpt><trkpt lat="46.012141637575645" lon="11.868525260194103"><ele>286.0</ele><time>2026-04-12T09:38:47.999Z</time></trkpt><trkpt lat="46.01221389515146" lon="11.868732411285796"><ele>285.0</ele><time>2026-04-12T09:38:48.999Z</time></trkpt><trkpt lat="46.01228761132826" lon="11.86893804422677"><ele>284.0</ele><time>2026-04-12T09:38:49.999Z</time></trkpt><trkpt lat="46.0123579700557" lon="11.86914573334345"><ele>283.0</ele><time>2026-04-12T09:38:50.999Z</time></trkpt><trkpt lat="46.01242550984882" lon="11.869345460829031"><ele>283.0</ele><time>2026-04-12T09:38:51.999Z</time></trkpt><trkpt lat="46.01249472923801" lon="11.869544851435808"><ele>283.0</ele><time>2026-04-12T09:38:52.999Z</time></trkpt><trkpt lat="46.012563530154786" lon="11.869741257337193"><ele>283.0</ele><time>2026-04-12T09:38:53.999Z</time></trkpt><trkpt lat="46.01263187676345" lon="11.869931418513"><ele>283.0</ele><time>2026-04-12T09:38:54.999Z</time></trkpt><trkpt lat="46.012695081998864" lon="11.870108510169944"><ele>283.0</ele><time>2026-04-12T09:38:55.999Z</time></trkpt><trkpt lat="46.01275277149162" lon="11.870279093121315"><ele>283.0</ele><time>2026-04-12T09:38:56.999Z</time></trkpt><trkpt lat="46.012808749051054" lon="11.870451548667493"><ele>283.0</ele><time>2026-04-12T09:38:57.999Z</time></trkpt><trkpt lat="46.01286572962469" lon="11.870618112555926"><ele>283.0</ele><time>2026-04-12T09:38:58.999Z</time></trkpt><trkpt lat="46.01292315964563" lon="11.870783929089194"><ele>283.0</ele><time>2026-04-12T09:38:59.999Z</time></trkpt><trkpt lat="46.012982073477545" lon="11.87095320383778"><ele>283.0</ele><time>2026-04-12T09:39:00.999Z</time></trkpt><trkpt lat="46.01304315059373" lon="11.871129735054431"><ele>283.0</ele><time>2026-04-12T09:39:01.999Z</time></trkpt><trkpt lat="46.013109233359415" lon="11.871306146936979"><ele>282.75</ele><time>2026-04-12T09:39:02.999Z</time></trkpt><trkpt lat="46.01317051932974" lon="11.871488521863"><ele>282.5</ele><time>2026-04-12T09:39:03.999Z</time></trkpt><trkpt lat="46.01323374357974" lon="11.871675579449251"><ele>282.25</ele><time>2026-04-12T09:39:04.999Z</time></trkpt><trkpt lat="46.01330149606037" lon="11.871859991346868"><ele>282.0</ele><time>2026-04-12T09:39:05.999Z</time></trkpt><trkpt lat="46.013365964070985" lon="11.872045203160594"><ele>281.75</ele><time>2026-04-12T09:39:06.999Z</time></trkpt><trkpt lat="46.01342479583501" lon="11.872219938391092"><ele>281.5</ele><time>2026-04-12T09:39:07.999Z</time></trkpt><trkpt lat="46.013483484374596" lon="11.872386188207157"><ele>281.25</ele><time>2026-04-12T09:39:08.999Z</time></trkpt><trkpt lat="46.01353853471082" lon="11.872542439459608"><ele>281.0</ele><time>2026-04-12T09:39:09.999Z</time></trkpt><trkpt lat="46.0135967580229" lon="11.87269429857968"><ele>281.0</ele><time>2026-04-12T09:39:10.999Z</time></trkpt><trkpt lat="46.013648185409146" lon="11.87285817858568"><ele>281.0</ele><time>2026-04-12T09:39:11.999Z</time></trkpt><trkpt lat="46.01370658129564" lon="11.873024163183725"><ele>281.0</ele><time>2026-04-12T09:39:12.999Z</time></trkpt><trkpt lat="46.01376505111197" lon="11.873191968069161"><ele>281.0</ele><time>2026-04-12T09:39:13.999Z</time></trkpt><trkpt lat="46.013821175098975" lon="11.873363883147137"><ele>280.5</ele><time>2026-04-12T09:39:14.999Z</time></trkpt><trkpt lat="46.01387612400018" lon="11.873532482447882"><ele>280.0</ele><time>2026-04-12T09:39:15.999Z</time></trkpt><trkpt lat="46.013934867447105" lon="11.873702064027652"><ele>279.5</ele><time>2026-04-12T09:39:16.999Z</time></trkpt><trkpt lat="46.01398687028954" lon="11.873864195451578"><ele>279.0</ele><time>2026-04-12T09:39:17.999Z</time></trkpt><trkpt lat="46.01404123629886" lon="11.874017422064739"><ele>279.0</ele><time>2026-04-12T09:39:18.999Z</time></trkpt><trkpt lat="46.01409056395066" lon="11.874164971453588"><ele>279.0</ele><time>2026-04-12T09:39:19.999Z</time></trkpt><trkpt lat="46.01413347112871" lon="11.87430547190067"><ele>279.0</ele><time>2026-04-12T09:39:20.999Z</time></trkpt><trkpt lat="46.01417733803269" lon="11.874436431427918"><ele>279.0</ele><time>2026-04-12T09:39:21.999Z</time></trkpt><trkpt lat="46.01422153709602" lon="11.874563465508414"><ele>279.0</ele><time>2026-04-12T09:39:22.999Z</time></trkpt><trkpt lat="46.014266309504244" lon="11.874687625047216"><ele>279.0</ele><time>2026-04-12T09:39:23.999Z</time></trkpt><trkpt lat="46.0143055782766" lon="11.87480234164585"><ele>279.0</ele><time>2026-04-12T09:39:24.999Z</time></trkpt><trkpt lat="46.01434801345248" lon="11.874921559472384"><ele>279.0</ele><time>2026-04-12T09:39:25.999Z</time></trkpt><trkpt lat="46.01438862754888" lon="11.875043778696606"><ele>279.0</ele><time>2026-04-12T09:39:26.999Z</time></trkpt><trkpt lat="46.01443966011587" lon="11.875170246304664"><ele>279.0</ele><time>2026-04-12T09:39:27.999Z</time></trkpt><trkpt lat="46.01448610190006" lon="11.875303055767723"><ele>278.75</ele><time>2026-04-12T09:39:28.999Z</time></trkpt><trkpt lat="46.014533240908655" lon="11.875443112886533"><ele>278.5</ele><time>2026-04-12T09:39:29.999Z</time></trkpt><trkpt lat="46.01458069655596" lon="11.875589002746198"><ele>278.25</ele><time>2026-04-12T09:39:30.999Z</time></trkpt><trkpt lat="46.014634563314594" lon="11.87573803384738"><ele>278.0</ele><time>2026-04-12T09:39:31.999Z</time></trkpt><trkpt lat="46.01468786438601" lon="11.875894646332346"><ele>277.5</ele><time>2026-04-12T09:39:32.999Z</time></trkpt><trkpt lat="46.01473965095476" lon="11.8760554113066"><ele>277.0</ele><time>2026-04-12T09:39:33.999Z</time></trkpt><trkpt lat="46.01480063799654" lon="11.876212019624543"><ele>276.5</ele><time>2026-04-12T09:39:34.999Z</time></trkpt><trkpt lat="46.01485895593636" lon="11.876373436894267"><ele>276.0</ele><time>2026-04-12T09:39:35.999Z</time></trkpt><trkpt lat="46.014906880985286" lon="11.876528638264942"><ele>276.0</ele><time>2026-04-12T09:39:36.999Z</time></trkpt><trkpt lat="46.0149618117042" lon="11.876687711293831"><ele>276.0</ele><time>2026-04-12T09:39:37.999Z</time></trkpt><trkpt lat="46.01501082082283" lon="11.876845126069655"><ele>276.0</ele><time>2026-04-12T09:39:38.998Z</time></trkpt><trkpt lat="46.01506944655447" lon="11.877004387012228"><ele>276.0</ele><time>2026-04-12T09:39:39.998Z</time></trkpt><trkpt lat="46.01512723636441" lon="11.877168491987298"><ele>275.75</ele><time>2026-04-12T09:39:40.998Z</time></trkpt><trkpt lat="46.01518769010134" lon="11.877331001837396"><ele>275.5</ele><time>2026-04-12T09:39:41.998Z</time></trkpt><trkpt lat="46.015245067596545" lon="11.87749480696218"><ele>275.25</ele><time>2026-04-12T09:39:42.998Z</time></trkpt><trkpt lat="46.01530319864899" lon="11.87766631649043"><ele>275.0</ele><time>2026-04-12T09:39:43.998Z</time></trkpt><trkpt lat="46.015359935234905" lon="11.877842346799854"><ele>275.0</ele><time>2026-04-12T09:39:44.998Z</time></trkpt><trkpt lat="46.0154191906753" lon="11.878018576016933"><ele>275.0</ele><time>2026-04-12T09:39:45.998Z</time></trkpt><trkpt lat="46.01548192675657" lon="11.87820053058479"><ele>275.0</ele><time>2026-04-12T09:39:46.998Z</time></trkpt><trkpt lat="46.01554422612455" lon="11.87837805873695"><ele>275.0</ele><time>2026-04-12T09:39:47.998Z</time></trkpt><trkpt lat="46.01560284646094" lon="11.878551184307232"><ele>275.25</ele><time>2026-04-12T09:39:48.998Z</time></trkpt><trkpt lat="46.01566243131882" lon="11.878724456610685"><ele>275.5</ele><time>2026-04-12T09:39:49.998Z</time></trkpt><trkpt lat="46.01572307565121" lon="11.878899542038546"><ele>275.75</ele><time>2026-04-12T09:39:50.998Z</time></trkpt><trkpt lat="46.01578634968673" lon="11.879080965157357"><ele>276.0</ele><time>2026-04-12T09:39:51.998Z</time></trkpt><trkpt lat="46.015848451624635" lon="11.879265998219832"><ele>275.5</ele><time>2026-04-12T09:39:52.998Z</time></trkpt><trkpt lat="46.01591269766586" lon="11.87945740375543"><ele>275.0</ele><time>2026-04-12T09:39:53.998Z</time></trkpt><trkpt lat="46.01597655733579" lon="11.879650388669237"><ele>274.5</ele><time>2026-04-12T09:39:54.998Z</time></trkpt><trkpt lat="46.0160425883157" lon="11.87983891290434"><ele>274.0</ele><time>2026-04-12T09:39:55.998Z</time></trkpt><trkpt lat="46.01610726086578" lon="11.880026521853873"><ele>273.25</ele><time>2026-04-12T09:39:56.998Z</time></trkpt><trkpt lat="46.01617223809319" lon="11.880216691313263"><ele>272.5</ele><time>2026-04-12T09:39:57.998Z</time></trkpt><trkpt lat="46.01623626261974" lon="11.880404802213336"><ele>271.75</ele><time>2026-04-12T09:39:58.998Z</time></trkpt><trkpt lat="46.01629933233518" lon="11.880590238057641"><ele>271.0</ele><time>2026-04-12T09:39:59.998Z</time></trkpt><trkpt lat="46.01636132917335" lon="11.880770978346707"><ele>270.5</ele><time>2026-04-12T09:40:00.998Z</time></trkpt><trkpt lat="46.016422457207376" lon="11.88094706369896"><ele>270.0</ele><time>2026-04-12T09:40:01.998Z</time></trkpt><trkpt lat="46.016481923908515" lon="11.881120253865063"><ele>269.5</ele><time>2026-04-12T09:40:02.998Z</time></trkpt><trkpt lat="46.0165431195745" lon="11.881290974488502"><ele>269.0</ele><time>2026-04-12T09:40:03.998Z</time></trkpt><trkpt lat="46.01660232743859" lon="11.881463770993598"><ele>269.25</ele><time>2026-04-12T09:40:04.998Z</time></trkpt><trkpt lat="46.016662042877286" lon="11.8816362887309"><ele>269.5</ele><time>2026-04-12T09:40:05.998Z</time></trkpt><trkpt lat="46.01672125260348" lon="11.881811237570629"><ele>269.75</ele><time>2026-04-12T09:40:06.998Z</time></trkpt><trkpt lat="46.01678447457747" lon="11.88198881700305"><ele>270.0</ele><time>2026-04-12T09:40:07.998Z</time></trkpt><trkpt lat="46.01684790880985" lon="11.882170366542718"><ele>270.25</ele><time>2026-04-12T09:40:08.998Z</time></trkpt><trkpt lat="46.01691081302876" lon="11.882359760822068"><ele>270.5</ele><time>2026-04-12T09:40:09.998Z</time></trkpt><trkpt lat="46.016971028551254" lon="11.882549311390333"><ele>270.75</ele><time>2026-04-12T09:40:10.998Z</time></trkpt><trkpt lat="46.01703492230342" lon="11.882741015834927"><ele>271.0</ele><time>2026-04-12T09:40:12Z</time></trkpt><trkpt lat="46.01710195012426" lon="11.88293361026167"><ele>271.0</ele><time>2026-04-12T09:40:13Z</time></trkpt><trkpt lat="46.017169901349064" lon="11.883125802304496"><ele>271.0</ele><time>2026-04-12T09:40:14Z</time></trkpt><trkpt lat="46.017237876797736" lon="11.883322771961621"><ele>271.0</ele><time>2026-04-12T09:40:15Z</time></trkpt><trkpt lat="46.017302057353135" lon="11.88351195132029"><ele>271.0</ele><time>2026-04-12T09:40:16Z</time></trkpt><trkpt lat="46.017364282180594" lon="11.883692518794236"><ele>271.0</ele><time>2026-04-12T09:40:17Z</time></trkpt><trkpt lat="46.01742529973776" lon="11.883874798247575"><ele>271.0</ele><time>2026-04-12T09:40:18Z</time></trkpt><trkpt lat="46.017487157879025" lon="11.884061515590906"><ele>271.0</ele><time>2026-04-12T09:40:19Z</time></trkpt><trkpt lat="46.01755158948446" lon="11.884250296097845"><ele>271.0</ele><time>2026-04-12T09:40:20Z</time></trkpt><trkpt lat="46.01762080722627" lon="11.884440935227593"><ele>270.0</ele><time>2026-04-12T09:40:21Z</time></trkpt><trkpt lat="46.017687538123816" lon="11.884630779691912"><ele>269.0</ele><time>2026-04-12T09:40:22Z</time></trkpt><trkpt lat="46.01775078190694" lon="11.88481270314059"><ele>268.0</ele><time>2026-04-12T09:40:23Z</time></trkpt><trkpt lat="46.01781471558963" lon="11.884990313810292"><ele>267.0</ele><time>2026-04-12T09:40:24Z</time></trkpt><trkpt lat="46.017874540990626" lon="11.885151171569923"><ele>266.75</ele><time>2026-04-12T09:40:25Z</time></trkpt><trkpt lat="46.01792724987933" lon="11.88530576736542"><ele>266.5</ele><time>2026-04-12T09:40:26Z</time></trkpt><trkpt lat="46.01798703291693" lon="11.885459593886731"><ele>266.25</ele><time>2026-04-12T09:40:27Z</time></trkpt><trkpt lat="46.01804010410205" lon="11.885625787710508"><ele>266.0</ele><time>2026-04-12T09:40:28Z</time></trkpt><trkpt lat="46.0180985499075" lon="11.885795590516732"><ele>266.25</ele><time>2026-04-12T09:40:29Z</time></trkpt><trkpt lat="46.018160305293925" lon="11.88597185509136"><ele>266.5</ele><time>2026-04-12T09:40:30Z</time></trkpt><trkpt lat="46.018223324630284" lon="11.886132492562428"><ele>266.75</ele><time>2026-04-12T09:40:31Z</time></trkpt><trkpt lat="46.01827345395234" lon="11.886283674441337"><ele>267.0</ele><time>2026-04-12T09:40:32Z</time></trkpt><trkpt lat="46.018324146873084" lon="11.886414021677668"><ele>267.0</ele><time>2026-04-12T09:40:33Z</time></trkpt><trkpt lat="46.01837188924575" lon="11.88654060629034"><ele>267.0</ele><time>2026-04-12T09:40:34Z</time></trkpt><trkpt lat="46.01840808104261" lon="11.886663557726436"><ele>267.0</ele><time>2026-04-12T09:40:35Z</time></trkpt><trkpt lat="46.01843455908492" lon="11.886795195631768"><ele>267.0</ele><time>2026-04-12T09:40:36Z</time></trkpt><trkpt lat="46.01846281451205" lon="11.886934489484755"><ele>267.0</ele><time>2026-04-12T09:40:37Z</time></trkpt><trkpt lat="46.018489294519526" lon="11.887078561022745"><ele>267.0</ele><time>2026-04-12T09:40:38Z</time></trkpt><trkpt lat="46.01851035610909" lon="11.88722539521205"><ele>267.0</ele><time>2026-04-12T09:40:39Z</time></trkpt><trkpt lat="46.018513890282485" lon="11.887359683743322"><ele>267.0</ele><time>2026-04-12T09:40:40Z</time></trkpt><trkpt lat="46.0185078637125" lon="11.887483643010643"><ele>267.0</ele><time>2026-04-12T09:40:41Z</time></trkpt><trkpt lat="46.01848328802594" lon="11.887580753570823"><ele>267.0</ele><time>2026-04-12T09:40:42Z</time></trkpt><trkpt lat="46.01842559007781" lon="11.887706207363648"><ele>267.0</ele><time>2026-04-12T09:40:44Z</time></trkpt><trkpt lat="46.01840111755082" lon="11.887792286029109"><ele>267.0</ele><time>2026-04-12T09:40:47Z</time></trkpt><trkpt lat="46.01837409759313" lon="11.887900541754695"><ele>267.0</ele><time>2026-04-12T09:40:49Z</time></trkpt><trkpt lat="46.0183333042987" lon="11.888035018995714"><ele>267.0</ele><time>2026-04-12T09:40:51Z</time></trkpt><trkpt lat="46.018313925814496" lon="11.88813497090936"><ele>267.0</ele><time>2026-04-12T09:40:51.999Z</time></trkpt><trkpt lat="46.01830841324264" lon="11.8882265343987"><ele>267.0</ele><time>2026-04-12T09:40:52.999Z</time></trkpt><trkpt lat="46.018342058701094" lon="11.888334236865811"><ele>267.0</ele><time>2026-04-12T09:40:53.999Z</time></trkpt><trkpt lat="46.01840827658078" lon="11.888392455750113"><ele>267.0</ele><time>2026-04-12T09:40:54.999Z</time></trkpt><trkpt lat="46.018479265336644" lon="11.888420354539077"><ele>267.0</ele><time>2026-04-12T09:40:55.999Z</time></trkpt><trkpt lat="46.01854262698312" lon="11.888434044313977"><ele>267.0</ele><time>2026-04-12T09:40:56.999Z</time></trkpt><trkpt lat="46.018642892837136" lon="11.888509666340145"><ele>267.0</ele><time>2026-04-12T09:40:58.999Z</time></trkpt><trkpt lat="46.018684449169335" lon="11.888579129004722"><ele>267.0</ele><time>2026-04-12T09:40:59.999Z</time></trkpt><trkpt lat="46.01870837832757" lon="11.888684216568226"><ele>267.8</ele><time>2026-04-12T09:41:00.999Z</time></trkpt><trkpt lat="46.0187121306409" lon="11.888801722349552"><ele>268.6</ele><time>2026-04-12T09:41:01.999Z</time></trkpt><trkpt lat="46.01871542179271" lon="11.888934077276208"><ele>269.40000000000003</ele><time>2026-04-12T09:41:02.999Z</time></trkpt><trkpt lat="46.01872623275995" lon="11.889076947299682"><ele>270.2</ele><time>2026-04-12T09:41:03.999Z</time></trkpt><trkpt lat="46.01874057895495" lon="11.889221082257452"><ele>271.0</ele><time>2026-04-12T09:41:04.999Z</time></trkpt><trkpt lat="46.01875641123622" lon="11.889360613762722"><ele>271.0</ele><time>2026-04-12T09:41:05.999Z</time></trkpt><trkpt lat="46.018771345852166" lon="11.889502148984198"><ele>271.0</ele><time>2026-04-12T09:41:06.999Z</time></trkpt><trkpt lat="46.0187899908657" lon="11.889654584604688"><ele>271.0</ele><time>2026-04-12T09:41:07.999Z</time></trkpt><trkpt lat="46.01880667984519" lon="11.889803609634187"><ele>271.0</ele><time>2026-04-12T09:41:08.999Z</time></trkpt><trkpt lat="46.01882226556528" lon="11.88996944500133"><ele>271.0</ele><time>2026-04-12T09:41:09.999Z</time></trkpt><trkpt lat="46.01883584399476" lon="11.89013149432649"><ele>271.0</ele><time>2026-04-12T09:41:10.999Z</time></trkpt><trkpt lat="46.01884280266027" lon="11.890276387073959"><ele>271.0</ele><time>2026-04-12T09:41:11.999Z</time></trkpt><trkpt lat="46.01885499932046" lon="11.890424836042149"><ele>271.0</ele><time>2026-04-12T09:41:12.999Z</time></trkpt><trkpt lat="46.01886844883523" lon="11.890556936580033"><ele>271.0</ele><time>2026-04-12T09:41:13.999Z</time></trkpt><trkpt lat="46.01887760428818" lon="11.890664466266571"><ele>271.0</ele><time>2026-04-12T09:41:14.999Z</time></trkpt><trkpt lat="46.01889585844391" lon="11.890778608333958"><ele>271.0</ele><time>2026-04-12T09:41:16.999Z</time></trkpt><trkpt lat="46.01890605203261" lon="11.89087206298562"><ele>271.0</ele><time>2026-04-12T09:41:18.999Z</time></trkpt><trkpt lat="46.01892397386613" lon="11.890960502633785"><ele>271.0</ele><time>2026-04-12T09:41:20.999Z</time></trkpt><trkpt lat="46.01894091229552" lon="11.89108784512219"><ele>271.0</ele><time>2026-04-12T09:41:23.999Z</time></trkpt><trkpt lat="46.018954147753774" lon="11.89122912095047"><ele>271.0</ele><time>2026-04-12T09:41:25.999Z</time></trkpt><trkpt lat="46.01895722636941" lon="11.891402939922322"><ele>271.0</ele><time>2026-04-12T09:41:27.999Z</time></trkpt><trkpt lat="46.01896771411232" lon="11.891511980287502"><ele>271.16666666666663</ele><time>2026-04-12T09:41:28.999Z</time></trkpt><trkpt lat="46.018979857568084" lon="11.891638235043692"><ele>271.3333333333333</ele><time>2026-04-12T09:41:29.999Z</time></trkpt><trkpt lat="46.01899188182776" lon="11.891763250399409"><ele>271.5</ele><time>2026-04-12T09:41:30.999Z</time></trkpt><trkpt lat="46.019001878670906" lon="11.891867185737"><ele>271.6666666666667</ele><time>2026-04-12T09:41:31.999Z</time></trkpt><trkpt lat="46.019010929943036" lon="11.891958112253352"><ele>271.83333333333337</ele><time>2026-04-12T09:41:32.999Z</time></trkpt><trkpt lat="46.019020752617905" lon="11.892057284214484"><ele>272.0</ele><time>2026-04-12T09:41:34.999Z</time></trkpt><trkpt lat="46.019032481304606" lon="11.89216964892474"><ele>272.0</ele><time>2026-04-12T09:41:41.999Z</time></trkpt><trkpt lat="46.01904780206055" lon="11.892314600359452"><ele>272.0</ele><time>2026-04-12T09:41:43.999Z</time></trkpt><trkpt lat="46.01905837527416" lon="11.892404952789633"><ele>272.0</ele><time>2026-04-12T09:41:44.998Z</time></trkpt><trkpt lat="46.01907924883548" lon="11.892568779421717"><ele>272.0</ele><time>2026-04-12T09:41:46.998Z</time></trkpt><trkpt lat="46.01909529897238" lon="11.892670276894872"><ele>272.0</ele><time>2026-04-12T09:41:48.998Z</time></trkpt><trkpt lat="46.01911746086785" lon="11.892807318148078"><ele>272.1666666666667</ele><time>2026-04-12T09:41:56.998Z</time></trkpt><trkpt lat="46.01913429097553" lon="11.892920452410062"><ele>272.33333333333337</ele><time>2026-04-12T09:41:59.998Z</time></trkpt><trkpt lat="46.019148502483674" lon="11.893031792428749"><ele>272.5</ele><time>2026-04-12T09:42:03.998Z</time></trkpt><trkpt lat="46.01915874086911" lon="11.89312140811609"><ele>272.6666666666667</ele><time>2026-04-12T09:42:05.998Z</time></trkpt><trkpt lat="46.01917354851896" lon="11.893251018187167"><ele>272.8333333333333</ele><time>2026-04-12T09:42:07.998Z</time></trkpt><trkpt lat="46.019193027098645" lon="11.893408527820048"><ele>273.0</ele><time>2026-04-12T09:42:09.998Z</time></trkpt><trkpt lat="46.01921620848084" lon="11.893568081428546"><ele>273.0</ele><time>2026-04-12T09:42:11.998Z</time></trkpt><trkpt lat="46.01924883807998" lon="11.893706654810781"><ele>273.0</ele><time>2026-04-12T09:42:13.998Z</time></trkpt><trkpt lat="46.01925384930772" lon="11.89381908587386"><ele>273.0</ele><time>2026-04-12T09:42:15.998Z</time></trkpt><trkpt lat="46.01927199038035" lon="11.893936907388493"><ele>273.0</ele><time>2026-04-12T09:42:18Z</time></trkpt><trkpt lat="46.0192924408698" lon="11.894068208512312"><ele>273.0</ele><time>2026-04-12T09:42:21Z</time></trkpt><trkpt lat="46.019307326402355" lon="11.89416329175575"><ele>273.0</ele><time>2026-04-12T09:42:23Z</time></trkpt><trkpt lat="46.01932452795696" lon="11.894273168889573"><ele>273.0</ele><time>2026-04-12T09:42:26Z</time></trkpt><trkpt lat="46.01934136067965" lon="11.89438068865731"><ele>273.0</ele><time>2026-04-12T09:42:29Z</time></trkpt><trkpt lat="46.019391918645624" lon="11.894454224849145"><ele>273.0</ele><time>2026-04-12T09:42:31Z</time></trkpt><trkpt lat="46.019450542515564" lon="11.894529287376436"><ele>273.0</ele><time>2026-04-12T09:42:33Z</time></trkpt><trkpt lat="46.01937456195015" lon="11.894593546682735"><ele>273.0</ele><time>2026-04-12T09:42:34Z</time></trkpt><trkpt lat="46.01938913992159" lon="11.894686901909164"><ele>273.0</ele><time>2026-04-12T09:42:37Z</time></trkpt><trkpt lat="46.01955795925598" lon="11.894642481807987"><ele>273.0</ele><time>2026-04-12T09:42:38Z</time></trkpt><trkpt lat="46.0193843812896" lon="11.894656428103207"><ele>273.0</ele><time>2026-04-12T09:44:00.998Z</time></trkpt><trkpt lat="46.01956202951797" lon="11.894591897985462"><ele>273.0</ele><time>2026-04-12T09:46:05.998Z</time></trkpt><trkpt lat="46.01938322472954" lon="11.894649021880603"><ele>273.0</ele><time>2026-04-12T09:46:09.998Z</time></trkpt><trkpt lat="46.01955123706082" lon="11.894602809108704"><ele>273.0</ele><time>2026-04-12T09:51:36.999Z</time></trkpt><trkpt lat="46.01949064005915" lon="11.894640954676804"><ele>273.0</ele><time>2026-04-12T10:05:10.998Z</time></trkpt><trkpt lat="46.019453336916726" lon="11.894563406574639"><ele>273.0</ele><time>2026-04-12T10:05:36Z</time></trkpt><trkpt lat="46.01954007145524" lon="11.894585986779868"><ele>273.0</ele><time>2026-04-12T10:06:06.999Z</time></trkpt><trkpt lat="46.019614135157155" lon="11.894556592725051"><ele>273.0</ele><time>2026-04-12T10:06:35.999Z</time></trkpt><trkpt lat="46.01967174835032" lon="11.89451820550418"><ele>273.0</ele><time>2026-04-12T10:06:41.999Z</time></trkpt><trkpt lat="46.01972461007387" lon="11.894578033366189"><ele>273.0</ele><time>2026-04-12T10:06:47.999Z</time></trkpt><trkpt lat="46.01964715298887" lon="11.894486726647123"><ele>273.0</ele><time>2026-04-12T10:09:58Z</time></trkpt><trkpt lat="46.019580999260334" lon="11.894527281698789"><ele>273.0</ele><time>2026-04-12T10:10:14Z</time></trkpt><trkpt lat="46.019643630035375" lon="11.894505305010801"><ele>273.0</ele><time>2026-04-12T10:11:38.998Z</time></trkpt><trkpt lat="46.01956371398889" lon="11.894575890758448"><ele>273.0</ele><time>2026-04-12T10:12:20Z</time></trkpt><trkpt lat="46.019618975919016" lon="11.894523053223683"><ele>273.0</ele><time>2026-04-12T10:12:24Z</time></trkpt><trkpt lat="46.01968610852735" lon="11.894497899440951"><ele>273.0</ele><time>2026-04-12T10:12:31Z</time></trkpt><trkpt lat="46.019729089503194" lon="11.894582913054753"><ele>273.0</ele><time>2026-04-12T10:12:35.999Z</time></trkpt><trkpt lat="46.019688185873314" lon="11.894511185444355"><ele>273.0</ele><time>2026-04-12T10:14:09Z</time></trkpt><trkpt lat="46.019624395605256" lon="11.894497032319595"><ele>273.0</ele><time>2026-04-12T10:14:22Z</time></trkpt><trkpt lat="46.01956215196881" lon="11.8945426911363"><ele>273.0</ele><time>2026-04-12T10:14:30Z</time></trkpt><trkpt lat="46.01962535989574" lon="11.894515799920082"><ele>273.0</ele><time>2026-04-12T10:22:26Z</time></trkpt><trkpt lat="46.01968135089849" lon="11.894445100427268"><ele>273.0</ele><time>2026-04-12T10:22:28Z</time></trkpt><trkpt lat="46.01967917491264" lon="11.894350193341374"><ele>273.0</ele><time>2026-04-12T10:22:32Z</time></trkpt><trkpt lat="46.019614597999" lon="11.894340673524393"><ele>273.0</ele><time>2026-04-12T10:22:34Z</time></trkpt><trkpt lat="46.01954690088329" lon="11.894416669810095"><ele>273.0</ele><time>2026-04-12T10:22:50.999Z</time></trkpt><trkpt lat="46.0194800834645" lon="11.894497667427695"><ele>273.0</ele><time>2026-04-12T10:23:39.999Z</time></trkpt><trkpt lat="46.01941845913485" lon="11.89456542821319"><ele>273.0</ele><time>2026-04-12T10:23:44.999Z</time></trkpt><trkpt lat="46.01939919011213" lon="11.894657739622085"><ele>273.0</ele><time>2026-04-12T10:23:46.999Z</time></trkpt><trkpt lat="46.0194082172189" lon="11.894765357181019"><ele>273.0</ele><time>2026-04-12T10:23:48.999Z</time></trkpt><trkpt lat="46.01943121551447" lon="11.894873330861097"><ele>273.0</ele><time>2026-04-12T10:23:50.999Z</time></trkpt><trkpt lat="46.019446117537875" lon="11.894987114746229"><ele>273.0</ele><time>2026-04-12T10:23:52.999Z</time></trkpt><trkpt lat="46.01944859293075" lon="11.895117909773477"><ele>273.0</ele><time>2026-04-12T10:23:54.999Z</time></trkpt><trkpt lat="46.01943282646938" lon="11.89527422233246"><ele>273.2</ele><time>2026-04-12T10:23:56.999Z</time></trkpt><trkpt lat="46.01941952285746" lon="11.895446795501808"><ele>273.4</ele><time>2026-04-12T10:23:58.999Z</time></trkpt><trkpt lat="46.01945763982255" lon="11.895612878520623"><ele>273.59999999999997</ele><time>2026-04-12T10:24:00.999Z</time></trkpt><trkpt lat="46.01956482290415" lon="11.895712113346631"><ele>273.8</ele><time>2026-04-12T10:24:02.999Z</time></trkpt><trkpt lat="46.01963092268977" lon="11.895741308303872"><ele>274.0</ele><time>2026-04-12T10:24:03.999Z</time></trkpt><trkpt lat="46.01969713361581" lon="11.89577706842568"><ele>274.00000000000006</ele><time>2026-04-12T10:24:04.999Z</time></trkpt><trkpt lat="46.01975421357953" lon="11.895835688049209"><ele>274.0</ele><time>2026-04-12T10:24:05.999Z</time></trkpt><trkpt lat="46.01980512016074" lon="11.89591632250687"><ele>274.0</ele><time>2026-04-12T10:24:06.999Z</time></trkpt><trkpt lat="46.019842385633815" lon="11.896011065765489"><ele>274.0</ele><time>2026-04-12T10:24:07.999Z</time></trkpt><trkpt lat="46.0198734946427" lon="11.896107533770888"><ele>274.0</ele><time>2026-04-12T10:24:08.999Z</time></trkpt><trkpt lat="46.019901287714426" lon="11.896198882121437"><ele>274.00000000000006</ele><time>2026-04-12T10:24:09.999Z</time></trkpt><trkpt lat="46.019929561120705" lon="11.89629177380207"><ele>274.0</ele><time>2026-04-12T10:24:10.999Z</time></trkpt><trkpt lat="46.01995814848269" lon="11.896381597956632"><ele>274.14285714285717</ele><time>2026-04-12T10:24:11.999Z</time></trkpt><trkpt lat="46.019987006286726" lon="11.89647468644473"><ele>274.2857142857143</ele><time>2026-04-12T10:24:12.999Z</time></trkpt><trkpt lat="46.02001373519248" lon="11.896559715292227"><ele>274.42857142857144</ele><time>2026-04-12T10:24:13.999Z</time></trkpt><trkpt lat="46.02003718500052" lon="11.8966445054909"><ele>274.57142857142856</ele><time>2026-04-12T10:24:14.999Z</time></trkpt><trkpt lat="46.02006296204619" lon="11.896733307569844"><ele>274.7142857142857</ele><time>2026-04-12T10:24:15.998Z</time></trkpt><trkpt lat="46.02008990256648" lon="11.896822674469567"><ele>274.8571428571429</ele><time>2026-04-12T10:24:17Z</time></trkpt><trkpt lat="46.02012120105194" lon="11.896914256554059"><ele>275.0</ele><time>2026-04-12T10:24:18Z</time></trkpt><trkpt lat="46.02015243400072" lon="11.897015424689025"><ele>275.0</ele><time>2026-04-12T10:24:19Z</time></trkpt><trkpt lat="46.02018371610694" lon="11.897124823804988"><ele>275.0</ele><time>2026-04-12T10:24:20Z</time></trkpt><trkpt lat="46.02021740089549" lon="11.897238823907545"><ele>275.0</ele><time>2026-04-12T10:24:21Z</time></trkpt><trkpt lat="46.02024906957355" lon="11.897351913884815"><ele>275.0</ele><time>2026-04-12T10:24:22Z</time></trkpt><trkpt lat="46.020282273718536" lon="11.89747540399331"><ele>275.0</ele><time>2026-04-12T10:24:23Z</time></trkpt><trkpt lat="46.020316309143055" lon="11.897605534434472"><ele>275.0</ele><time>2026-04-12T10:24:24Z</time></trkpt><trkpt lat="46.02034842218782" lon="11.897736756401537"><ele>274.6666666666667</ele><time>2026-04-12T10:24:25Z</time></trkpt><trkpt lat="46.02037783490145" lon="11.89786070411975"><ele>274.33333333333337</ele><time>2026-04-12T10:24:26Z</time></trkpt><trkpt lat="46.02040359203261" lon="11.897976339963826"><ele>274.0</ele><time>2026-04-12T10:24:27Z</time></trkpt><trkpt lat="46.020426146060124" lon="11.898084326908545"><ele>273.6666666666667</ele><time>2026-04-12T10:24:28Z</time></trkpt><trkpt lat="46.02044495520218" lon="11.898186060653117"><ele>273.3333333333333</ele><time>2026-04-12T10:24:29Z</time></trkpt><trkpt lat="46.02046388492032" lon="11.898296861818274"><ele>273.0</ele><time>2026-04-12T10:24:30Z</time></trkpt><trkpt lat="46.02048226053779" lon="11.898402782841119"><ele>272.8333333333333</ele><time>2026-04-12T10:24:31Z</time></trkpt><trkpt lat="46.0204994713469" lon="11.898510858303863"><ele>272.6666666666667</ele><time>2026-04-12T10:24:32Z</time></trkpt><trkpt lat="46.02051702836872" lon="11.898618900182608"><ele>272.5</ele><time>2026-04-12T10:24:33Z</time></trkpt><trkpt lat="46.020533568878285" lon="11.89872465566223"><ele>272.33333333333337</ele><time>2026-04-12T10:24:34Z</time></trkpt><trkpt lat="46.020549693931976" lon="11.898818382355113"><ele>272.1666666666667</ele><time>2026-04-12T10:24:35Z</time></trkpt><trkpt lat="46.02057585633989" lon="11.898981958361244"><ele>272.0</ele><time>2026-04-12T10:24:37Z</time></trkpt><trkpt lat="46.020600807505254" lon="11.899125051688824"><ele>272.33333333333337</ele><time>2026-04-12T10:24:39Z</time></trkpt><trkpt lat="46.02062510377146" lon="11.899274172176693"><ele>272.6666666666667</ele><time>2026-04-12T10:24:41Z</time></trkpt><trkpt lat="46.02064371946117" lon="11.899400272374345"><ele>273.0</ele><time>2026-04-12T10:24:43Z</time></trkpt><trkpt lat="46.020655939117454" lon="11.899496970672047"><ele>273.3333333333333</ele><time>2026-04-12T10:24:45Z</time></trkpt><trkpt lat="46.02066356240054" lon="11.899588374056602"><ele>273.66666666666663</ele><time>2026-04-12T10:24:47Z</time></trkpt><trkpt lat="46.02066711416858" lon="11.899721540101947"><ele>274.0</ele><time>2026-04-12T10:24:49Z</time></trkpt><trkpt lat="46.020697730500295" lon="11.89988281584094"><ele>274.0</ele><time>2026-04-12T10:24:51Z</time></trkpt><trkpt lat="46.02073096401726" lon="11.899966560916159"><ele>274.0</ele><time>2026-04-12T10:24:52Z</time></trkpt><trkpt lat="46.02076250139536" lon="11.900053646599092"><ele>274.0</ele><time>2026-04-12T10:24:53Z</time></trkpt><trkpt lat="46.02078843661819" lon="11.900153487659741"><ele>274.0</ele><time>2026-04-12T10:24:54Z</time></trkpt><trkpt lat="46.02081580246722" lon="11.900264913057446"><ele>274.0</ele><time>2026-04-12T10:24:55Z</time></trkpt><trkpt lat="46.02084751566246" lon="11.900379329400197"><ele>274.0</ele><time>2026-04-12T10:24:56Z</time></trkpt><trkpt lat="46.02088038312881" lon="11.900485000703299"><ele>274.0</ele><time>2026-04-12T10:24:57Z</time></trkpt><trkpt lat="46.02091424222909" lon="11.900586572657701"><ele>274.0</ele><time>2026-04-12T10:24:58Z</time></trkpt><trkpt lat="46.02095379734625" lon="11.900701380486353"><ele>274.0</ele><time>2026-04-12T10:24:59Z</time></trkpt><trkpt lat="46.021004637025484" lon="11.900824574422609"><ele>274.0</ele><time>2026-04-12T10:25:00Z</time></trkpt><trkpt lat="46.021059909507244" lon="11.900951833088547"><ele>274.0</ele><time>2026-04-12T10:25:01Z</time></trkpt><trkpt lat="46.02111338359986" lon="11.90108476467526"><ele>274.0</ele><time>2026-04-12T10:25:02Z</time></trkpt><trkpt lat="46.02116447411902" lon="11.901215799819566"><ele>274.0</ele><time>2026-04-12T10:25:03Z</time></trkpt><trkpt lat="46.021212164183154" lon="11.901350753764415"><ele>274.0</ele><time>2026-04-12T10:25:04Z</time></trkpt><trkpt lat="46.021258987256346" lon="11.901484553225274"><ele>274.0</ele><time>2026-04-12T10:25:05Z</time></trkpt><trkpt lat="46.02130010072381" lon="11.901621732548938"><ele>274.0</ele><time>2026-04-12T10:25:06Z</time></trkpt><trkpt lat="46.02133217058589" lon="11.901764437053156"><ele>273.8</ele><time>2026-04-12T10:25:07Z</time></trkpt><trkpt lat="46.02135524862628" lon="11.901913321751785"><ele>273.59999999999997</ele><time>2026-04-12T10:25:08Z</time></trkpt><trkpt lat="46.02136938690459" lon="11.902063882681276"><ele>273.4</ele><time>2026-04-12T10:25:09Z</time></trkpt><trkpt lat="46.02137939342494" lon="11.902215266989597"><ele>273.2</ele><time>2026-04-12T10:25:10Z</time></trkpt><trkpt lat="46.02139070074896" lon="11.902363810758422"><ele>273.0</ele><time>2026-04-12T10:25:11Z</time></trkpt><trkpt lat="46.02139936188049" lon="11.902502219340477"><ele>272.8333333333333</ele><time>2026-04-12T10:25:12Z</time></trkpt><trkpt lat="46.02140650739918" lon="11.902624795242359"><ele>272.6666666666667</ele><time>2026-04-12T10:25:13Z</time></trkpt><trkpt lat="46.021412840719385" lon="11.902737489370232"><ele>272.5</ele><time>2026-04-12T10:25:14Z</time></trkpt><trkpt lat="46.02141617544736" lon="11.902842081714741"><ele>272.33333333333337</ele><time>2026-04-12T10:25:14.999Z</time></trkpt><trkpt lat="46.02142255620705" lon="11.902943530407958"><ele>272.1666666666667</ele><time>2026-04-12T10:25:15.999Z</time></trkpt><trkpt lat="46.02142730061583" lon="11.903056410159932"><ele>272.0</ele><time>2026-04-12T10:25:16.999Z</time></trkpt><trkpt lat="46.02143356721933" lon="11.903172685823707"><ele>271.99999999999994</ele><time>2026-04-12T10:25:17.999Z</time></trkpt><trkpt lat="46.02143983557497" lon="11.903280623724946"><ele>272.0</ele><time>2026-04-12T10:25:18.999Z</time></trkpt><trkpt lat="46.02144486158303" lon="11.903379248893746"><ele>272.0</ele><time>2026-04-12T10:25:19.999Z</time></trkpt><trkpt lat="46.0214494932807" lon="11.903479796354045"><ele>272.0</ele><time>2026-04-12T10:25:20.999Z</time></trkpt><trkpt lat="46.02145079591783" lon="11.903577081833557"><ele>272.0</ele><time>2026-04-12T10:25:21.999Z</time></trkpt><trkpt lat="46.0214513583499" lon="11.90367236011979"><ele>271.99999999999994</ele><time>2026-04-12T10:25:22.999Z</time></trkpt><trkpt lat="46.021449406774984" lon="11.903768705283492"><ele>272.0</ele><time>2026-04-12T10:25:23.999Z</time></trkpt><trkpt lat="46.02145127945184" lon="11.903932654612849"><ele>272.0</ele><time>2026-04-12T10:25:25.999Z</time></trkpt><trkpt lat="46.021458489897235" lon="11.904076101249483"><ele>272.0</ele><time>2026-04-12T10:25:27.999Z</time></trkpt><trkpt lat="46.021472434691034" lon="11.90423735367618"><ele>272.0</ele><time>2026-04-12T10:25:29.999Z</time></trkpt><trkpt lat="46.02147884270598" lon="11.904333753643172"><ele>272.0</ele><time>2026-04-12T10:25:30.999Z</time></trkpt><trkpt lat="46.02149003876395" lon="11.904434031493095"><ele>272.0</ele><time>2026-04-12T10:25:31.999Z</time></trkpt><trkpt lat="46.02149950536614" lon="11.904544652049802"><ele>272.0</ele><time>2026-04-12T10:25:32.999Z</time></trkpt><trkpt lat="46.02151000463947" lon="11.904662211233191"><ele>272.1666666666667</ele><time>2026-04-12T10:25:33.999Z</time></trkpt><trkpt lat="46.02151191857159" lon="11.90476722670211"><ele>272.33333333333337</ele><time>2026-04-12T10:25:34.999Z</time></trkpt><trkpt lat="46.021512420569856" lon="11.904859879771397"><ele>272.5</ele><time>2026-04-12T10:25:35.999Z</time></trkpt><trkpt lat="46.021501780358996" lon="11.905027163713749"><ele>272.6666666666667</ele><time>2026-04-12T10:25:37.999Z</time></trkpt><trkpt lat="46.021506888119305" lon="11.905168597712311"><ele>272.8333333333333</ele><time>2026-04-12T10:25:39.999Z</time></trkpt><trkpt lat="46.021589742592035" lon="11.905233222756396"><ele>273.0</ele><time>2026-04-12T10:25:41.999Z</time></trkpt><trkpt lat="46.02167037118255" lon="11.905125466982751"><ele>273.0</ele><time>2026-04-12T10:25:43.999Z</time></trkpt><trkpt lat="46.02161199768449" lon="11.904937386221059"><ele>273.0</ele><time>2026-04-12T10:25:45.999Z</time></trkpt><trkpt lat="46.02156583531347" lon="11.904829407058505"><ele>273.0</ele><time>2026-04-12T10:25:46.999Z</time></trkpt><trkpt lat="46.02154627433815" lon="11.904687332495255"><ele>273.0</ele><time>2026-04-12T10:25:47.999Z</time></trkpt><trkpt lat="46.02154097130472" lon="11.904546218737664"><ele>273.0</ele><time>2026-04-12T10:25:48.999Z</time></trkpt><trkpt lat="46.021538859406405" lon="11.904395856500694"><ele>272.8</ele><time>2026-04-12T10:25:49.999Z</time></trkpt><trkpt lat="46.021532163723876" lon="11.904245766678907"><ele>272.6</ele><time>2026-04-12T10:25:50.999Z</time></trkpt><trkpt lat="46.02152651790476" lon="11.904095848434663"><ele>272.4</ele><time>2026-04-12T10:25:51.999Z</time></trkpt><trkpt lat="46.02151863146045" lon="11.903956639750035"><ele>272.2</ele><time>2026-04-12T10:25:52.999Z</time></trkpt><trkpt lat="46.02151029186823" lon="11.903827524990032"><ele>272.0</ele><time>2026-04-12T10:25:53.999Z</time></trkpt><trkpt lat="46.021502231985004" lon="11.903704043687938"><ele>272.0</ele><time>2026-04-12T10:25:54.999Z</time></trkpt><trkpt lat="46.021493984494" lon="11.903576965137884"><ele>272.0</ele><time>2026-04-12T10:25:55.999Z</time></trkpt><trkpt lat="46.021486864107345" lon="11.903451724149042"><ele>272.0</ele><time>2026-04-12T10:25:56.999Z</time></trkpt><trkpt lat="46.02147859605068" lon="11.903329377579595"><ele>272.0</ele><time>2026-04-12T10:25:57.999Z</time></trkpt><trkpt lat="46.02147313203995" lon="11.903202582033305"><ele>272.0</ele><time>2026-04-12T10:25:58.999Z</time></trkpt><trkpt lat="46.021467375404406" lon="11.903073802631662"><ele>272.0</ele><time>2026-04-12T10:25:59.999Z</time></trkpt><trkpt lat="46.021459564019395" lon="11.902943242131869"><ele>272.0</ele><time>2026-04-12T10:26:00.999Z</time></trkpt><trkpt lat="46.021451273194934" lon="11.902813181659091"><ele>272.0</ele><time>2026-04-12T10:26:01.999Z</time></trkpt><trkpt lat="46.021443112542435" lon="11.902673719469199"><ele>272.0</ele><time>2026-04-12T10:26:02.999Z</time></trkpt><trkpt lat="46.021434613620514" lon="11.902532011672388"><ele>272.0</ele><time>2026-04-12T10:26:03.999Z</time></trkpt><trkpt lat="46.02142870155219" lon="11.902390887561364"><ele>272.0</ele><time>2026-04-12T10:26:04.999Z</time></trkpt><trkpt lat="46.021422964592865" lon="11.902250137919141"><ele>272.2</ele><time>2026-04-12T10:26:05.999Z</time></trkpt><trkpt lat="46.02141499507686" lon="11.902113383868043"><ele>272.4</ele><time>2026-04-12T10:26:06.999Z</time></trkpt><trkpt lat="46.02140402516829" lon="11.901978505391817"><ele>272.6</ele><time>2026-04-12T10:26:07.999Z</time></trkpt><trkpt lat="46.02138535907201" lon="11.901843450517347"><ele>272.8</ele><time>2026-04-12T10:26:08.999Z</time></trkpt><trkpt lat="46.021357812137225" lon="11.901705234095948"><ele>273.0</ele><time>2026-04-12T10:26:09.999Z</time></trkpt><trkpt lat="46.02132418457487" lon="11.901558207885994"><ele>273.2</ele><time>2026-04-12T10:26:10.999Z</time></trkpt><trkpt lat="46.0212804679343" lon="11.9014109104309"><ele>273.4</ele><time>2026-04-12T10:26:11.999Z</time></trkpt><trkpt lat="46.021229411832095" lon="11.90127150833731"><ele>273.59999999999997</ele><time>2026-04-12T10:26:12.999Z</time></trkpt><trkpt lat="46.02118169852911" lon="11.901133720856098"><ele>273.8</ele><time>2026-04-12T10:26:13.999Z</time></trkpt><trkpt lat="46.02112607400827" lon="11.90099992206517"><ele>274.0</ele><time>2026-04-12T10:26:14.999Z</time></trkpt><trkpt lat="46.02106830420656" lon="11.900871260806886"><ele>274.0</ele><time>2026-04-12T10:26:15.999Z</time></trkpt><trkpt lat="46.0210195275899" lon="11.900738961701416"><ele>274.0</ele><time>2026-04-12T10:26:16.999Z</time></trkpt><trkpt lat="46.02097292300296" lon="11.90060874096264"><ele>274.0</ele><time>2026-04-12T10:26:17.999Z</time></trkpt><trkpt lat="46.02093267691716" lon="11.900482457026937"><ele>274.0</ele><time>2026-04-12T10:26:18.999Z</time></trkpt><trkpt lat="46.020897625623746" lon="11.900364004662197"><ele>274.0</ele><time>2026-04-12T10:26:19.999Z</time></trkpt><trkpt lat="46.02086864241693" lon="11.900268081060474"><ele>274.0</ele><time>2026-04-12T10:26:20.999Z</time></trkpt><trkpt lat="46.02084010576065" lon="11.900149925822912"><ele>274.0</ele><time>2026-04-12T10:26:23Z</time></trkpt><trkpt lat="46.02083079441197" lon="11.900055587970643"><ele>274.0</ele><time>2026-04-12T10:26:25Z</time></trkpt><trkpt lat="46.02084865777522" lon="11.899938737370164"><ele>274.0</ele><time>2026-04-12T10:26:27Z</time></trkpt><trkpt lat="46.02091568697663" lon="11.899787313249977"><ele>274.0</ele><time>2026-04-12T10:26:29Z</time></trkpt><trkpt lat="46.021011143586605" lon="11.899745671252617"><ele>274.2</ele><time>2026-04-12T10:26:30Z</time></trkpt><trkpt lat="46.02109017730371" lon="11.899676538144767"><ele>274.4</ele><time>2026-04-12T10:26:31Z</time></trkpt><trkpt lat="46.02117088498217" lon="11.899601864311203"><ele>274.6</ele><time>2026-04-12T10:26:32Z</time></trkpt><trkpt lat="46.02125879981815" lon="11.899517850606447"><ele>274.8</ele><time>2026-04-12T10:26:33Z</time></trkpt><trkpt lat="46.02134979647172" lon="11.899422893326689"><ele>275.0</ele><time>2026-04-12T10:26:34Z</time></trkpt><trkpt lat="46.0214476741991" lon="11.899330672668194"><ele>275.25</ele><time>2026-04-12T10:26:35Z</time></trkpt><trkpt lat="46.02155032834513" lon="11.899238597845056"><ele>275.5</ele><time>2026-04-12T10:26:36Z</time></trkpt><trkpt lat="46.02165461162506" lon="11.899141277648175"><ele>275.75</ele><time>2026-04-12T10:26:37Z</time></trkpt><trkpt lat="46.02176413058939" lon="11.899040415838328"><ele>276.0</ele><time>2026-04-12T10:26:38Z</time></trkpt><trkpt lat="46.02187496926905" lon="11.8989398843143"><ele>277.0</ele><time>2026-04-12T10:26:39Z</time></trkpt><trkpt lat="46.02198831746612" lon="11.898833695417807"><ele>278.0</ele><time>2026-04-12T10:26:40Z</time></trkpt><trkpt lat="46.02210527052408" lon="11.898722610652444"><ele>279.0</ele><time>2026-04-12T10:26:41Z</time></trkpt><trkpt lat="46.022222232895864" lon="11.898612614225932"><ele>280.0</ele><time>2026-04-12T10:26:42Z</time></trkpt><trkpt lat="46.02233860024972" lon="11.898499860878376"><ele>280.0</ele><time>2026-04-12T10:26:43Z</time></trkpt><trkpt lat="46.02245764262555" lon="11.898390729231922"><ele>280.0</ele><time>2026-04-12T10:26:44Z</time></trkpt><trkpt lat="46.022581149803955" lon="11.898281965580745"><ele>280.0</ele><time>2026-04-12T10:26:45Z</time></trkpt><trkpt lat="46.022704582110116" lon="11.898175912438358"><ele>280.0</ele><time>2026-04-12T10:26:46Z</time></trkpt><trkpt lat="46.02282532149642" lon="11.898071588823894"><ele>280.75</ele><time>2026-04-12T10:26:47Z</time></trkpt><trkpt lat="46.022938803415116" lon="11.897959098596846"><ele>281.5</ele><time>2026-04-12T10:26:48Z</time></trkpt><trkpt lat="46.023044632052176" lon="11.897850124413992"><ele>282.25</ele><time>2026-04-12T10:26:49Z</time></trkpt><trkpt lat="46.02315468824461" lon="11.897747574904882"><ele>283.0</ele><time>2026-04-12T10:26:50Z</time></trkpt><trkpt lat="46.023265287981474" lon="11.897642118437457"><ele>283.0</ele><time>2026-04-12T10:26:51Z</time></trkpt><trkpt lat="46.02337773613256" lon="11.89753864125515"><ele>283.0</ele><time>2026-04-12T10:26:52Z</time></trkpt><trkpt lat="46.02348974889159" lon="11.89743671351574"><ele>283.0</ele><time>2026-04-12T10:26:53Z</time></trkpt><trkpt lat="46.02359992232768" lon="11.897329867063425"><ele>283.0</ele><time>2026-04-12T10:26:54Z</time></trkpt><trkpt lat="46.02371180479254" lon="11.897227358269875"><ele>283.0</ele><time>2026-04-12T10:26:55Z</time></trkpt><trkpt lat="46.02382792714117" lon="11.89713028032309"><ele>283.0</ele><time>2026-04-12T10:26:56Z</time></trkpt><trkpt lat="46.02394377326719" lon="11.897037960951025"><ele>283.0</ele><time>2026-04-12T10:26:57Z</time></trkpt><trkpt lat="46.02406026490969" lon="11.896953611315242"><ele>283.0</ele><time>2026-04-12T10:26:58Z</time></trkpt><trkpt lat="46.02417429500034" lon="11.896872878482812"><ele>283.75</ele><time>2026-04-12T10:26:59Z</time></trkpt><trkpt lat="46.02429154768176" lon="11.896788018718473"><ele>284.5</ele><time>2026-04-12T10:27:00Z</time></trkpt><trkpt lat="46.024407318441924" lon="11.896711536157074"><ele>285.25</ele><time>2026-04-12T10:27:01Z</time></trkpt><trkpt lat="46.02451378341118" lon="11.896631794643557"><ele>286.0</ele><time>2026-04-12T10:27:02Z</time></trkpt><trkpt lat="46.02461822297445" lon="11.896566765933766"><ele>286.0</ele><time>2026-04-12T10:27:03Z</time></trkpt><trkpt lat="46.024728463946765" lon="11.89652513510186"><ele>286.0</ele><time>2026-04-12T10:27:04Z</time></trkpt><trkpt lat="46.02484243243423" lon="11.896493270319747"><ele>286.0</ele><time>2026-04-12T10:27:05Z</time></trkpt><trkpt lat="46.024954796708315" lon="11.89644577858697"><ele>286.0</ele><time>2026-04-12T10:27:06Z</time></trkpt><trkpt lat="46.02506889360368" lon="11.896384449057036"><ele>286.0</ele><time>2026-04-12T10:27:07Z</time></trkpt><trkpt lat="46.025186611731606" lon="11.896294556930542"><ele>286.0</ele><time>2026-04-12T10:27:08Z</time></trkpt><trkpt lat="46.02529877902849" lon="11.896181764851045"><ele>286.0</ele><time>2026-04-12T10:27:09Z</time></trkpt><trkpt lat="46.02540356863708" lon="11.89606430871435"><ele>286.0</ele><time>2026-04-12T10:27:10Z</time></trkpt><trkpt lat="46.0254978808811" lon="11.89594265632369"><ele>286.25</ele><time>2026-04-12T10:27:11Z</time></trkpt><trkpt lat="46.02559470493726" lon="11.895831794718923"><ele>286.5</ele><time>2026-04-12T10:27:12Z</time></trkpt><trkpt lat="46.025693702851044" lon="11.89573121166047"><ele>286.75</ele><time>2026-04-12T10:27:13Z</time></trkpt><trkpt lat="46.0257944265288" lon="11.895635025095126"><ele>287.0</ele><time>2026-04-12T10:27:14Z</time></trkpt><trkpt lat="46.02590274621779" lon="11.89554238927668"><ele>287.5</ele><time>2026-04-12T10:27:15Z</time></trkpt><trkpt lat="46.0260184256125" lon="11.895461786184264"><ele>288.0</ele><time>2026-04-12T10:27:16Z</time></trkpt><trkpt lat="46.02613085601919" lon="11.895382783631895"><ele>288.5</ele><time>2026-04-12T10:27:17Z</time></trkpt><trkpt lat="46.0262462225072" lon="11.895312951722897"><ele>289.0</ele><time>2026-04-12T10:27:18Z</time></trkpt><trkpt lat="46.02636335249435" lon="11.895229707537787"><ele>289.0</ele><time>2026-04-12T10:27:19Z</time></trkpt><trkpt lat="46.02646921552468" lon="11.895149445785913"><ele>289.0</ele><time>2026-04-12T10:27:20Z</time></trkpt><trkpt lat="46.02658170222692" lon="11.895075313920767"><ele>289.0</ele><time>2026-04-12T10:27:21Z</time></trkpt><trkpt lat="46.0266895133829" lon="11.894997350018738"><ele>289.0</ele><time>2026-04-12T10:27:22Z</time></trkpt><trkpt lat="46.02680009054445" lon="11.894914426041789"><ele>289.75</ele><time>2026-04-12T10:27:23Z</time></trkpt><trkpt lat="46.02690639415048" lon="11.894839833452313"><ele>290.5</ele><time>2026-04-12T10:27:23.999Z</time></trkpt><trkpt lat="46.02701924215069" lon="11.89476317730322"><ele>291.25</ele><time>2026-04-12T10:27:24.999Z</time></trkpt><trkpt lat="46.027127468750535" lon="11.89468465530372"><ele>292.0</ele><time>2026-04-12T10:27:25.999Z</time></trkpt><trkpt lat="46.02723478240038" lon="11.894603076509531"><ele>292.0</ele><time>2026-04-12T10:27:26.999Z</time></trkpt><trkpt lat="46.02734499186294" lon="11.894520916966753"><ele>292.0</ele><time>2026-04-12T10:27:27.999Z</time></trkpt><trkpt lat="46.02745075643856" lon="11.894437408330305"><ele>292.0</ele><time>2026-04-12T10:27:28.999Z</time></trkpt><trkpt lat="46.027554414109964" lon="11.894371900101348"><ele>292.0</ele><time>2026-04-12T10:27:29.999Z</time></trkpt><trkpt lat="46.027642321620206" lon="11.894297548459802"><ele>293.0</ele><time>2026-04-12T10:27:30.999Z</time></trkpt><trkpt lat="46.02774528048347" lon="11.894228632402658"><ele>294.0</ele><time>2026-04-12T10:27:31.999Z</time></trkpt><trkpt lat="46.0278438959491" lon="11.894161968706236"><ele>295.0</ele><time>2026-04-12T10:27:32.999Z</time></trkpt><trkpt lat="46.02795521783987" lon="11.894092765151552"><ele>296.0</ele><time>2026-04-12T10:27:33.999Z</time></trkpt><trkpt lat="46.028068025635456" lon="11.894009726001421"><ele>296.0</ele><time>2026-04-12T10:27:34.999Z</time></trkpt><trkpt lat="46.02817878798105" lon="11.893931845210547"><ele>296.0</ele><time>2026-04-12T10:27:35.999Z</time></trkpt><trkpt lat="46.028287479714784" lon="11.89385216824319"><ele>296.0</ele><time>2026-04-12T10:27:36.999Z</time></trkpt><trkpt lat="46.02840114760638" lon="11.893774228244355"><ele>296.0</ele><time>2026-04-12T10:27:37.999Z</time></trkpt><trkpt lat="46.02851455422973" lon="11.893696125733271"><ele>296.25</ele><time>2026-04-12T10:27:38.999Z</time></trkpt><trkpt lat="46.02862479894735" lon="11.893612567227423"><ele>296.5</ele><time>2026-04-12T10:27:39.999Z</time></trkpt><trkpt lat="46.02873701699896" lon="11.893538730243721"><ele>296.75</ele><time>2026-04-12T10:27:40.999Z</time></trkpt><trkpt lat="46.028847570200575" lon="11.893456525754877"><ele>297.0</ele><time>2026-04-12T10:27:41.999Z</time></trkpt><trkpt lat="46.02895679744775" lon="11.89337250044725"><ele>296.5</ele><time>2026-04-12T10:27:42.999Z</time></trkpt><trkpt lat="46.029065044489116" lon="11.89329387842978"><ele>296.0</ele><time>2026-04-12T10:27:43.999Z</time></trkpt><trkpt lat="46.02916250033468" lon="11.89320144855205"><ele>295.5</ele><time>2026-04-12T10:27:44.999Z</time></trkpt><trkpt lat="46.02926276477786" lon="11.893100298848271"><ele>295.0</ele><time>2026-04-12T10:27:45.999Z</time></trkpt><trkpt lat="46.02934922186321" lon="11.892966833253032"><ele>296.0</ele><time>2026-04-12T10:27:46.999Z</time></trkpt><trkpt lat="46.02943078513106" lon="11.892829505960574"><ele>297.0</ele><time>2026-04-12T10:27:47.999Z</time></trkpt><trkpt lat="46.029506626088484" lon="11.892688105584869"><ele>298.0</ele><time>2026-04-12T10:27:48.999Z</time></trkpt><trkpt lat="46.029578923530806" lon="11.89253645724844"><ele>299.0</ele><time>2026-04-12T10:27:49.999Z</time></trkpt><trkpt lat="46.02964887792118" lon="11.892374449372735"><ele>299.0</ele><time>2026-04-12T10:27:50.999Z</time></trkpt><trkpt lat="46.02970524464388" lon="11.89220406596248"><ele>299.0</ele><time>2026-04-12T10:27:51.999Z</time></trkpt><trkpt lat="46.02976314945135" lon="11.892037068735277"><ele>299.0</ele><time>2026-04-12T10:27:52.999Z</time></trkpt><trkpt lat="46.02982510644736" lon="11.891865684618777"><ele>299.0</ele><time>2026-04-12T10:27:53.999Z</time></trkpt><trkpt lat="46.029885393463104" lon="11.891691612083568"><ele>299.5</ele><time>2026-04-12T10:27:54.999Z</time></trkpt><trkpt lat="46.02994562928088" lon="11.891519956490802"><ele>300.0</ele><time>2026-04-12T10:27:55.999Z</time></trkpt><trkpt lat="46.03000487325967" lon="11.891352873563493"><ele>300.5</ele><time>2026-04-12T10:27:56.999Z</time></trkpt><trkpt lat="46.03006876843458" lon="11.89119494718189"><ele>301.0</ele><time>2026-04-12T10:27:57.999Z</time></trkpt><trkpt lat="46.03014150991172" lon="11.891032816220354"><ele>302.75</ele><time>2026-04-12T10:27:58.999Z</time></trkpt><trkpt lat="46.03021939388151" lon="11.890880215249252"><ele>304.5</ele><time>2026-04-12T10:27:59.999Z</time></trkpt><trkpt lat="46.030295993511665" lon="11.89073436384278"><ele>306.25</ele><time>2026-04-12T10:28:00.999Z</time></trkpt><trkpt lat="46.03037319053911" lon="11.890595532968135"><ele>308.0</ele><time>2026-04-12T10:28:01.999Z</time></trkpt><trkpt lat="46.03045628980365" lon="11.89045996021518"><ele>308.0</ele><time>2026-04-12T10:28:02.999Z</time></trkpt><trkpt lat="46.03054401482293" lon="11.890328416797889"><ele>308.0</ele><time>2026-04-12T10:28:03.999Z</time></trkpt><trkpt lat="46.03063153708736" lon="11.890198487627442"><ele>308.0</ele><time>2026-04-12T10:28:04.999Z</time></trkpt><trkpt lat="46.03072150018967" lon="11.890065076997486"><ele>308.0</ele><time>2026-04-12T10:28:05.999Z</time></trkpt><trkpt lat="46.03081371755037" lon="11.889935646569898"><ele>308.0</ele><time>2026-04-12T10:28:06.999Z</time></trkpt><trkpt lat="46.03089978982258" lon="11.88980608403831"><ele>308.0</ele><time>2026-04-12T10:28:07.999Z</time></trkpt><trkpt lat="46.0309947809895" lon="11.889671824135783"><ele>308.0</ele><time>2026-04-12T10:28:08.999Z</time></trkpt><trkpt lat="46.03108547266126" lon="11.88954457052233"><ele>308.0</ele><time>2026-04-12T10:28:09.999Z</time></trkpt><trkpt lat="46.031172734345375" lon="11.889416976631026"><ele>308.0</ele><time>2026-04-12T10:28:10.999Z</time></trkpt><trkpt lat="46.03126664921105" lon="11.889290737314234"><ele>308.0</ele><time>2026-04-12T10:28:11.999Z</time></trkpt><trkpt lat="46.031359041941" lon="11.889166665461234"><ele>308.0</ele><time>2026-04-12T10:28:12.999Z</time></trkpt><trkpt lat="46.03144886399149" lon="11.889037473213202"><ele>308.0</ele><time>2026-04-12T10:28:13.999Z</time></trkpt><trkpt lat="46.03153934024186" lon="11.888910980039679"><ele>308.75</ele><time>2026-04-12T10:28:14.999Z</time></trkpt><trkpt lat="46.03162948691694" lon="11.88878067988136"><ele>309.5</ele><time>2026-04-12T10:28:15.999Z</time></trkpt><trkpt lat="46.03171817487449" lon="11.888656366657047"><ele>310.25</ele><time>2026-04-12T10:28:16.999Z</time></trkpt><trkpt lat="46.031809803648905" lon="11.88852961062019"><ele>311.0</ele><time>2026-04-12T10:28:17.999Z</time></trkpt><trkpt lat="46.03190138969935" lon="11.888401468119367"><ele>312.0</ele><time>2026-04-12T10:28:18.999Z</time></trkpt><trkpt lat="46.03199338616123" lon="11.88827077537142"><ele>313.0</ele><time>2026-04-12T10:28:19.999Z</time></trkpt><trkpt lat="46.03207638605967" lon="11.888136375045994"><ele>314.0</ele><time>2026-04-12T10:28:20.999Z</time></trkpt><trkpt lat="46.03217448240564" lon="11.887997281455174"><ele>315.0</ele><time>2026-04-12T10:28:21.999Z</time></trkpt><trkpt lat="46.03226774795942" lon="11.887863092580236"><ele>315.0</ele><time>2026-04-12T10:28:22.999Z</time></trkpt><trkpt lat="46.03236632930397" lon="11.887722094778521"><ele>315.0</ele><time>2026-04-12T10:28:23.999Z</time></trkpt><trkpt lat="46.03246563345816" lon="11.88757965401073"><ele>315.0</ele><time>2026-04-12T10:28:24.999Z</time></trkpt><trkpt lat="46.032563256594194" lon="11.887426374596988"><ele>315.0</ele><time>2026-04-12T10:28:25.999Z</time></trkpt><trkpt lat="46.03267010626269" lon="11.887276977810576"><ele>316.3333333333333</ele><time>2026-04-12T10:28:26.999Z</time></trkpt><trkpt lat="46.03277722130954" lon="11.887126409336867"><ele>317.66666666666663</ele><time>2026-04-12T10:28:27.999Z</time></trkpt><trkpt lat="46.032880741583384" lon="11.886969773526786"><ele>319.0</ele><time>2026-04-12T10:28:29Z</time></trkpt><trkpt lat="46.03299040563297" lon="11.886812886945624"><ele>320.0</ele><time>2026-04-12T10:28:30Z</time></trkpt><trkpt lat="46.03309597623689" lon="11.88665497975981"><ele>321.0</ele><time>2026-04-12T10:28:31Z</time></trkpt><trkpt lat="46.03320482499844" lon="11.886501248320904"><ele>322.0</ele><time>2026-04-12T10:28:32Z</time></trkpt><trkpt lat="46.033311947632335" lon="11.88634677896424"><ele>322.0</ele><time>2026-04-12T10:28:33Z</time></trkpt><trkpt lat="46.033416507454085" lon="11.886188966012282"><ele>322.0</ele><time>2026-04-12T10:28:34Z</time></trkpt><trkpt lat="46.03352832051574" lon="11.886056225098638"><ele>322.0</ele><time>2026-04-12T10:28:35Z</time></trkpt><trkpt lat="46.03363022814317" lon="11.88590909974699"><ele>322.0</ele><time>2026-04-12T10:28:36Z</time></trkpt><trkpt lat="46.03372856352574" lon="11.88576713165702"><ele>322.5</ele><time>2026-04-12T10:28:37Z</time></trkpt><trkpt lat="46.03382692244184" lon="11.88562512959262"><ele>323.0</ele><time>2026-04-12T10:28:38Z</time></trkpt><trkpt lat="46.033917388373965" lon="11.885494878656193"><ele>323.5</ele><time>2026-04-12T10:28:39Z</time></trkpt><trkpt lat="46.03399926276254" lon="11.88537858838847"><ele>324.0</ele><time>2026-04-12T10:28:40Z</time></trkpt><trkpt lat="46.03407527531751" lon="11.885270623905667"><ele>323.8333333333333</ele><time>2026-04-12T10:28:41Z</time></trkpt><trkpt lat="46.03414456541385" lon="11.885172207748045"><ele>323.6666666666667</ele><time>2026-04-12T10:28:42Z</time></trkpt><trkpt lat="46.03420872872412" lon="11.885081073327548"><ele>323.5</ele><time>2026-04-12T10:28:43Z</time></trkpt><trkpt lat="46.03426887639473" lon="11.8849946851463"><ele>323.33333333333337</ele><time>2026-04-12T10:28:44Z</time></trkpt><trkpt lat="46.03431484957699" lon="11.884894773729652"><ele>323.1666666666667</ele><time>2026-04-12T10:28:45Z</time></trkpt><trkpt lat="46.0343806030384" lon="11.884832380626861"><ele>323.0</ele><time>2026-04-12T10:28:46Z</time></trkpt><trkpt lat="46.0344334524734" lon="11.884755606712584"><ele>323.33333333333337</ele><time>2026-04-12T10:28:47Z</time></trkpt><trkpt lat="46.03448494508414" lon="11.884680803788983"><ele>323.6666666666667</ele><time>2026-04-12T10:28:48Z</time></trkpt><trkpt lat="46.034537355315294" lon="11.884604667833688"><ele>324.0</ele><time>2026-04-12T10:28:49Z</time></trkpt><trkpt lat="46.03459082058169" lon="11.88452725018503"><ele>324.3333333333333</ele><time>2026-04-12T10:28:50Z</time></trkpt><trkpt lat="46.03464792597898" lon="11.884444921930974"><ele>324.66666666666663</ele><time>2026-04-12T10:28:51Z</time></trkpt><trkpt lat="46.03469564497457" lon="11.884349966527237"><ele>325.0</ele><time>2026-04-12T10:28:52Z</time></trkpt><trkpt lat="46.03475621392818" lon="11.88426735324531"><ele>325.3333333333333</ele><time>2026-04-12T10:28:53Z</time></trkpt><trkpt lat="46.034814202076184" lon="11.88418811659115"><ele>325.66666666666663</ele><time>2026-04-12T10:28:54Z</time></trkpt><trkpt lat="46.034864314698424" lon="11.884115122126861"><ele>326.0</ele><time>2026-04-12T10:28:55Z</time></trkpt><trkpt lat="46.03494333761763" lon="11.884006390896603"><ele>326.3333333333333</ele><time>2026-04-12T10:28:57Z</time></trkpt><trkpt lat="46.03500350928135" lon="11.883931306467082"><ele>326.6666666666667</ele><time>2026-04-12T10:28:59Z</time></trkpt><trkpt lat="46.03506536596834" lon="11.883859587808539"><ele>327.0</ele><time>2026-04-12T10:29:03Z</time></trkpt><trkpt lat="46.035121714259425" lon="11.883818434979503"><ele>327.0</ele><time>2026-04-12T10:29:23Z</time></trkpt><trkpt lat="46.035157612520685" lon="11.883737908776224"><ele>327.0</ele><time>2026-04-12T10:29:41.999Z</time></trkpt><trkpt lat="46.03507833218405" lon="11.883841076840184"><ele>327.0</ele><time>2026-04-12T10:29:45.999Z</time></trkpt><trkpt lat="46.03494560727027" lon="11.88394890899863"><ele>327.0</ele><time>2026-04-12T10:29:46.999Z</time></trkpt><trkpt lat="46.034871180879115" lon="11.884032457178858"><ele>327.0</ele><time>2026-04-12T10:29:47.999Z</time></trkpt><trkpt lat="46.03482658143398" lon="11.884099303614807"><ele>326.6</ele><time>2026-04-12T10:29:48.999Z</time></trkpt><trkpt lat="46.03474420677906" lon="11.884205056757452"><ele>326.20000000000005</ele><time>2026-04-12T10:29:50.999Z</time></trkpt><trkpt lat="46.03469445057841" lon="11.884321848870707"><ele>325.8</ele><time>2026-04-12T10:29:52.999Z</time></trkpt><trkpt lat="46.03469900543197" lon="11.884456951199098"><ele>325.4</ele><time>2026-04-12T10:29:54.999Z</time></trkpt><trkpt lat="46.03476812311531" lon="11.884566763856906"><ele>325.0</ele><time>2026-04-12T10:29:56.999Z</time></trkpt><trkpt lat="46.03483270780594" lon="11.884662402237582"><ele>325.0</ele><time>2026-04-12T10:29:58.999Z</time></trkpt><trkpt lat="46.034888910905394" lon="11.88473766456101"><ele>325.0</ele><time>2026-04-12T10:30:00.999Z</time></trkpt><trkpt lat="46.034935600935064" lon="11.884818682350444"><ele>325.0</ele><time>2026-04-12T10:30:03.999Z</time></trkpt><trkpt lat="46.03504071301914" lon="11.884734631365891"><ele>325.0</ele><time>2026-04-12T10:30:04.999Z</time></trkpt><trkpt lat="46.03508944084419" lon="11.88466190576741"><ele>325.0</ele><time>2026-04-12T10:30:06.999Z</time></trkpt><trkpt lat="46.03515340042549" lon="11.884578620224753"><ele>325.0</ele><time>2026-04-12T10:30:09.999Z</time></trkpt><trkpt lat="46.03521280064309" lon="11.884513851592725"><ele>324.66666666666663</ele><time>2026-04-12T10:30:12.999Z</time></trkpt><trkpt lat="46.035270242998045" lon="11.884447900783739"><ele>324.3333333333333</ele><time>2026-04-12T10:30:16.999Z</time></trkpt><trkpt lat="46.035326446231615" lon="11.88449826118322"><ele>324.0</ele><time>2026-04-12T10:30:21.999Z</time></trkpt><trkpt lat="46.03534788702052" lon="11.884404295788855"><ele>323.6666666666667</ele><time>2026-04-12T10:30:25.999Z</time></trkpt><trkpt lat="46.03541320888634" lon="11.884328803817867"><ele>323.33333333333337</ele><time>2026-04-12T10:30:28.999Z</time></trkpt><trkpt lat="46.035498699533235" lon="11.884366137319585"><ele>323.0</ele><time>2026-04-12T10:30:30.999Z</time></trkpt><trkpt lat="46.03556434093097" lon="11.884288205543085"><ele>323.33333333333337</ele><time>2026-04-12T10:30:35Z</time></trkpt><trkpt lat="46.035630228518805" lon="11.884210672322578"><ele>323.6666666666667</ele><time>2026-04-12T10:30:38Z</time></trkpt><trkpt lat="46.03568698567019" lon="11.884127850534062"><ele>324.0</ele><time>2026-04-12T10:30:41Z</time></trkpt><trkpt lat="46.03574193316675" lon="11.884041397496283"><ele>324.3333333333333</ele><time>2026-04-12T10:30:44Z</time></trkpt><trkpt lat="46.0357479997479" lon="11.88388773115135"><ele>324.66666666666663</ele><time>2026-04-12T10:30:47Z</time></trkpt><trkpt lat="46.035800954653446" lon="11.883814725685701"><ele>325.0</ele><time>2026-04-12T10:30:50Z</time></trkpt><trkpt lat="46.03596731369268" lon="11.88381352012138"><ele>325.0</ele><time>2026-04-12T10:30:52Z</time></trkpt><trkpt lat="46.036034675796664" lon="11.883862061927045"><ele>325.0</ele><time>2026-04-12T10:30:54Z</time></trkpt><trkpt lat="46.035999993886236" lon="11.884051372809935"><ele>325.0</ele><time>2026-04-12T10:30:55Z</time></trkpt><trkpt lat="46.036047331915256" lon="11.88413085818934"><ele>325.0</ele><time>2026-04-12T10:30:58Z</time></trkpt><trkpt lat="46.03602869983997" lon="11.884227607505988"><ele>325.0</ele><time>2026-04-12T10:31:01Z</time></trkpt><trkpt lat="46.03610474505261" lon="11.884261520480269"><ele>325.0</ele><time>2026-04-12T10:31:26Z</time></trkpt><trkpt lat="46.03614806394932" lon="11.884336308061163"><ele>325.0</ele><time>2026-04-12T10:31:29Z</time></trkpt><trkpt lat="46.0361980309455" lon="11.884415378560849"><ele>325.0</ele><time>2026-04-12T10:31:33.999Z</time></trkpt><trkpt lat="46.03618861904645" lon="11.884308498033079"><ele>325.0</ele><time>2026-04-12T10:37:19Z</time></trkpt><trkpt lat="46.0361407638306" lon="11.884235695407469"><ele>325.0</ele><time>2026-04-12T10:37:26Z</time></trkpt><trkpt lat="46.03608895689232" lon="11.884165697155595"><ele>325.0</ele><time>2026-04-12T10:37:33Z</time></trkpt><trkpt lat="46.03603523632627" lon="11.884098048516543"><ele>325.0</ele><time>2026-04-12T10:37:40Z</time></trkpt><trkpt lat="46.03598289284939" lon="11.884026284259136"><ele>325.0</ele><time>2026-04-12T10:37:46.999Z</time></trkpt><trkpt lat="46.0359231496877" lon="11.88396639736042"><ele>325.0</ele><time>2026-04-12T10:37:53.999Z</time></trkpt><trkpt lat="46.03585673549734" lon="11.883972408627553"><ele>325.0</ele><time>2026-04-12T10:38:00.999Z</time></trkpt><trkpt lat="46.035787296629266" lon="11.883992644207673"><ele>325.0</ele><time>2026-04-12T10:38:07.999Z</time></trkpt><trkpt lat="46.03573979077716" lon="11.883927038420888"><ele>325.0</ele><time>2026-04-12T10:38:15.999Z</time></trkpt><trkpt lat="46.035708435274344" lon="11.8838334219862"><ele>325.0</ele><time>2026-04-12T10:38:23.999Z</time></trkpt><trkpt lat="46.03568088093825" lon="11.883746394889178"><ele>325.0</ele><time>2026-04-12T10:38:30.999Z</time></trkpt><trkpt lat="46.035634606605875" lon="11.883671848369323"><ele>325.0</ele><time>2026-04-12T10:38:38.999Z</time></trkpt><trkpt lat="46.03559837004028" lon="11.88359066988314"><ele>325.3333333333333</ele><time>2026-04-12T10:38:46.999Z</time></trkpt><trkpt lat="46.03555013535094" lon="11.883529491415295"><ele>325.66666666666663</ele><time>2026-04-12T10:38:53.999Z</time></trkpt><trkpt lat="46.03552333581736" lon="11.883432400882697"><ele>326.0</ele><time>2026-04-12T10:39:05Z</time></trkpt><trkpt lat="46.03548545255148" lon="11.883352431029731"><ele>326.3333333333333</ele><time>2026-04-12T10:39:12Z</time></trkpt><trkpt lat="46.03547344498228" lon="11.883254754186336"><ele>326.6666666666667</ele><time>2026-04-12T10:39:31Z</time></trkpt><trkpt lat="46.0354048423238" lon="11.883260475567802"><ele>327.0</ele><time>2026-04-12T10:39:46Z</time></trkpt><trkpt lat="46.03533841357796" lon="11.883428173929342"><ele>327.0</ele><time>2026-04-12T10:41:00.02Z</time></trkpt><trkpt lat="46.03527277545429" lon="11.883387484900487"><ele>327.0</ele><time>2026-04-12T10:41:17.018Z</time></trkpt><trkpt lat="46.035209574102936" lon="11.883406580760694"><ele>327.0</ele><time>2026-04-12T10:41:36Z</time></trkpt><trkpt lat="46.035184001715585" lon="11.883527319739615"><ele>327.0</ele><time>2026-04-12T10:57:21.999Z</time></trkpt><trkpt lat="46.03516662903307" lon="11.883347421201865"><ele>327.0</ele><time>2026-04-12T10:57:45.999Z</time></trkpt><trkpt lat="46.03519324950466" lon="11.883440715933977"><ele>327.0</ele><time>2026-04-12T10:58:56Z</time></trkpt><trkpt lat="46.03518116293229" lon="11.883536080486888"><ele>327.0</ele><time>2026-04-12T10:59:01Z</time></trkpt><trkpt lat="46.03513856756933" lon="11.88337278071081"><ele>327.0</ele><time>2026-04-12T11:39:30.999Z</time></trkpt><trkpt lat="46.035197053652674" lon="11.883421426054326"><ele>327.0</ele><time>2026-04-12T11:40:14.998Z</time></trkpt><trkpt lat="46.03513371449373" lon="11.883397295282773"><ele>327.0</ele><time>2026-04-12T12:01:54Z</time></trkpt><trkpt lat="46.03507950633312" lon="11.883645021745684"><ele>327.0</ele><time>2026-04-12T12:02:04Z</time></trkpt><trkpt lat="46.03511870960223" lon="11.88371663498085"><ele>327.0</ele><time>2026-04-12T12:02:13.999Z</time></trkpt><trkpt lat="46.035180319900235" lon="11.883566829016605"><ele>327.0</ele><time>2026-04-12T12:02:41.999Z</time></trkpt><trkpt lat="46.03510967959478" lon="11.883548257513445"><ele>327.0</ele><time>2026-04-12T12:03:28Z</time></trkpt><trkpt lat="46.03518415647909" lon="11.88356413405417"><ele>327.0</ele><time>2026-04-12T12:03:53Z</time></trkpt><trkpt lat="46.035186557688476" lon="11.883441946967956"><ele>327.0</ele><time>2026-04-12T12:03:57Z</time></trkpt><trkpt lat="46.03524078262966" lon="11.883387723411559"><ele>327.0</ele><time>2026-04-12T12:04:02Z</time></trkpt><trkpt lat="46.03527771324624" lon="11.883299099253296"><ele>327.0</ele><time>2026-04-12T12:04:11.019Z</time></trkpt><trkpt lat="46.03534796695246" lon="11.883347902594519"><ele>327.0</ele><time>2026-04-12T12:04:53.999Z</time></trkpt><trkpt lat="46.03535868469891" lon="11.88346247211318"><ele>327.0</ele><time>2026-04-12T12:05:43.019Z</time></trkpt><trkpt lat="46.03536638588383" lon="11.883356152801992"><ele>327.0</ele><time>2026-04-12T12:05:46.021Z</time></trkpt><trkpt lat="46.035409855139484" lon="11.883280015868493"><ele>327.0</ele><time>2026-04-12T12:05:56Z</time></trkpt><trkpt lat="46.03547282487634" lon="11.883274102452239"><ele>327.0</ele><time>2026-04-12T12:06:00Z</time></trkpt><trkpt lat="46.03549943558588" lon="11.883369222782498"><ele>327.0</ele><time>2026-04-12T12:06:19Z</time></trkpt><trkpt lat="46.035530332466784" lon="11.883451111193095"><ele>327.0</ele><time>2026-04-12T12:06:32Z</time></trkpt><trkpt lat="46.03554382202189" lon="11.883558062032511"><ele>327.0</ele><time>2026-04-12T12:06:41.999Z</time></trkpt><trkpt lat="46.03559465928291" lon="11.883629045295635"><ele>327.0</ele><time>2026-04-12T12:06:48.999Z</time></trkpt><trkpt lat="46.0356390010308" lon="11.88370476720542"><ele>327.0</ele><time>2026-04-12T12:06:56.999Z</time></trkpt><trkpt lat="46.035673947624694" lon="11.883781272551952"><ele>327.0</ele><time>2026-04-12T12:07:06.999Z</time></trkpt><trkpt lat="46.0356991504131" lon="11.883877981495251"><ele>327.0</ele><time>2026-04-12T12:07:15.999Z</time></trkpt><trkpt lat="46.03576243932079" lon="11.883900890906872"><ele>327.0</ele><time>2026-04-12T12:07:24.999Z</time></trkpt><trkpt lat="46.035792887166664" lon="11.883981509072164"><ele>326.7142857142857</ele><time>2026-04-12T12:07:30.999Z</time></trkpt><trkpt lat="46.03583769304425" lon="11.884062952343989"><ele>326.42857142857144</ele><time>2026-04-12T12:07:36.998Z</time></trkpt><trkpt lat="46.035874799023915" lon="11.884144622960466"><ele>326.1428571428571</ele><time>2026-04-12T12:07:41.998Z</time></trkpt><trkpt lat="46.035927496879054" lon="11.88419748143166"><ele>325.8571428571429</ele><time>2026-04-12T12:07:46.998Z</time></trkpt><trkpt lat="46.035978085484736" lon="11.884259498165276"><ele>325.5714285714286</ele><time>2026-04-12T12:07:52.998Z</time></trkpt><trkpt lat="46.03603172595439" lon="11.884204471715954"><ele>325.2857142857143</ele><time>2026-04-12T12:07:59Z</time></trkpt><trkpt lat="46.03610591182924" lon="11.884216550546803"><ele>325.0</ele><time>2026-04-12T12:08:27Z</time></trkpt><trkpt lat="46.03617037596537" lon="11.884241742695853"><ele>325.0</ele><time>2026-04-12T12:08:34Z</time></trkpt><trkpt lat="46.03622523428015" lon="11.884306200647941"><ele>325.0</ele><time>2026-04-12T12:08:39Z</time></trkpt><trkpt lat="46.03628370759049" lon="11.884348052405214"><ele>325.0</ele><time>2026-04-12T12:08:44.999Z</time></trkpt><trkpt lat="46.036225656740264" lon="11.88427227350768"><ele>325.0</ele><time>2026-04-12T12:13:52.999Z</time></trkpt><trkpt lat="46.036138311656394" lon="11.884165102519283"><ele>325.0</ele><time>2026-04-12T12:13:54.998Z</time></trkpt><trkpt lat="46.03605451042132" lon="11.884057013026395"><ele>325.0</ele><time>2026-04-12T12:13:56.998Z</time></trkpt><trkpt lat="46.03598246436647" lon="11.88397368049935"><ele>325.0</ele><time>2026-04-12T12:13:58.998Z</time></trkpt><trkpt lat="46.035910355578075" lon="11.883920477555984"><ele>325.0</ele><time>2026-04-12T12:14:00.998Z</time></trkpt><trkpt lat="46.035831909075426" lon="11.88395791254094"><ele>325.0</ele><time>2026-04-12T12:14:02.998Z</time></trkpt><trkpt lat="46.035771139783506" lon="11.884031250440183"><ele>325.0</ele><time>2026-04-12T12:14:04.998Z</time></trkpt><trkpt lat="46.03572624815598" lon="11.884097868447192"><ele>325.0</ele><time>2026-04-12T12:14:06.998Z</time></trkpt><trkpt lat="46.03567883020247" lon="11.884158555112426"><ele>325.0</ele><time>2026-04-12T12:14:08.998Z</time></trkpt><trkpt lat="46.03560800774371" lon="11.88424112147138"><ele>324.7142857142857</ele><time>2026-04-12T12:14:11.998Z</time></trkpt><trkpt lat="46.03555561499164" lon="11.884315827434513"><ele>324.42857142857144</ele><time>2026-04-12T12:14:14.998Z</time></trkpt><trkpt lat="46.03549460649275" lon="11.884384545118047"><ele>324.14285714285717</ele><time>2026-04-12T12:14:19Z</time></trkpt><trkpt lat="46.03543169352342" lon="11.884434922438988"><ele>323.8571428571429</ele><time>2026-04-12T12:14:23Z</time></trkpt><trkpt lat="46.035363594223384" lon="11.884428332895677"><ele>323.57142857142856</ele><time>2026-04-12T12:14:33Z</time></trkpt><trkpt lat="46.035282267821906" lon="11.884434136565073"><ele>323.28571428571433</ele><time>2026-04-12T12:14:36Z</time></trkpt><trkpt lat="46.03521999696382" lon="11.884478930848685"><ele>323.0</ele><time>2026-04-12T12:14:39Z</time></trkpt><trkpt lat="46.035165200099904" lon="11.884542259836453"><ele>323.0</ele><time>2026-04-12T12:14:43Z</time></trkpt><trkpt lat="46.03510494732502" lon="11.884610181701326"><ele>323.0</ele><time>2026-04-12T12:14:47Z</time></trkpt><trkpt lat="46.03505804401103" lon="11.884672299212728"><ele>323.0</ele><time>2026-04-12T12:14:51Z</time></trkpt><trkpt lat="46.03498666038464" lon="11.884703012151322"><ele>323.0</ele><time>2026-04-12T12:15:14.999Z</time></trkpt><trkpt lat="46.03489762210239" lon="11.884681840749321"><ele>323.0</ele><time>2026-04-12T12:15:17.999Z</time></trkpt><trkpt lat="46.034823459515664" lon="11.884597877591883"><ele>323.0</ele><time>2026-04-12T12:15:20.999Z</time></trkpt><trkpt lat="46.0347681864879" lon="11.884510485237003"><ele>323.4</ele><time>2026-04-12T12:15:23.999Z</time></trkpt><trkpt lat="46.03471814035935" lon="11.884440054219619"><ele>323.79999999999995</ele><time>2026-04-12T12:15:26.999Z</time></trkpt><trkpt lat="46.03465734137228" lon="11.884411021134769"><ele>324.2</ele><time>2026-04-12T12:15:42.999Z</time></trkpt><trkpt lat="46.034535969575984" lon="11.884524414665094"><ele>324.6</ele><time>2026-04-12T12:15:44.999Z</time></trkpt><trkpt lat="46.03447366384478" lon="11.884612001064268"><ele>325.0</ele><time>2026-04-12T12:15:45.999Z</time></trkpt><trkpt lat="46.03441190246931" lon="11.884705097827313"><ele>325.0</ele><time>2026-04-12T12:15:46.999Z</time></trkpt><trkpt lat="46.03434460351708" lon="11.884799420253222"><ele>325.0</ele><time>2026-04-12T12:15:47.999Z</time></trkpt><trkpt lat="46.034281343574136" lon="11.884895878929605"><ele>325.0</ele><time>2026-04-12T12:15:48.999Z</time></trkpt><trkpt lat="46.03421373529868" lon="11.884989000179171"><ele>325.0</ele><time>2026-04-12T12:15:49.999Z</time></trkpt><trkpt lat="46.03413917885685" lon="11.885092512874856"><ele>325.0</ele><time>2026-04-12T12:15:50.999Z</time></trkpt><trkpt lat="46.034070369559075" lon="11.885190540479783"><ele>324.8</ele><time>2026-04-12T12:15:51.999Z</time></trkpt><trkpt lat="46.033999995693925" lon="11.885289649486362"><ele>324.6</ele><time>2026-04-12T12:15:52.999Z</time></trkpt><trkpt lat="46.0339317546783" lon="11.885391029185877"><ele>324.4</ele><time>2026-04-12T12:15:53.999Z</time></trkpt><trkpt lat="46.0338634704144" lon="11.885488370727295"><ele>324.2</ele><time>2026-04-12T12:15:54.999Z</time></trkpt><trkpt lat="46.03379958099598" lon="11.885582949658302"><ele>324.0</ele><time>2026-04-12T12:15:55.999Z</time></trkpt><trkpt lat="46.033734816483125" lon="11.885678475231305"><ele>324.0</ele><time>2026-04-12T12:15:56.999Z</time></trkpt><trkpt lat="46.03367065761645" lon="11.885772371804014"><ele>324.0</ele><time>2026-04-12T12:15:57.999Z</time></trkpt><trkpt lat="46.03360571096913" lon="11.885861223482154"><ele>324.0</ele><time>2026-04-12T12:15:58.999Z</time></trkpt><trkpt lat="46.03353819923969" lon="11.88595836258323"><ele>324.0</ele><time>2026-04-12T12:15:59.999Z</time></trkpt><trkpt lat="46.03347232347519" lon="11.886052597299127"><ele>324.0</ele><time>2026-04-12T12:16:00.998Z</time></trkpt><trkpt lat="46.03340383329242" lon="11.886148064544567"><ele>323.6</ele><time>2026-04-12T12:16:01.998Z</time></trkpt><trkpt lat="46.03333834591592" lon="11.886239456595755"><ele>323.2</ele><time>2026-04-12T12:16:02.998Z</time></trkpt><trkpt lat="46.03327514712552" lon="11.886332729310704"><ele>322.8</ele><time>2026-04-12T12:16:03.998Z</time></trkpt><trkpt lat="46.03320602869873" lon="11.88642941098021"><ele>322.40000000000003</ele><time>2026-04-12T12:16:04.998Z</time></trkpt><trkpt lat="46.03313538815719" lon="11.886527264308738"><ele>322.0</ele><time>2026-04-12T12:16:05.998Z</time></trkpt><trkpt lat="46.0330627657724" lon="11.886625211337089"><ele>322.0</ele><time>2026-04-12T12:16:06.998Z</time></trkpt><trkpt lat="46.03299059970705" lon="11.886723541461468"><ele>322.0</ele><time>2026-04-12T12:16:07.998Z</time></trkpt><trkpt lat="46.03291985528248" lon="11.886828260083654"><ele>322.0</ele><time>2026-04-12T12:16:08.998Z</time></trkpt><trkpt lat="46.03285023394993" lon="11.88693389009817"><ele>322.0</ele><time>2026-04-12T12:16:09.998Z</time></trkpt><trkpt lat="46.0327848612094" lon="11.887029793179504"><ele>322.0</ele><time>2026-04-12T12:16:10.998Z</time></trkpt><trkpt lat="46.032718311493575" lon="11.887129586663164"><ele>321.40000000000003</ele><time>2026-04-12T12:16:11.998Z</time></trkpt><trkpt lat="46.032649383011425" lon="11.887225570432472"><ele>320.8</ele><time>2026-04-12T12:16:12.998Z</time></trkpt><trkpt lat="46.03258033868886" lon="11.887318962370019"><ele>320.2</ele><time>2026-04-12T12:16:13.998Z</time></trkpt><trkpt lat="46.03251370618381" lon="11.887414762991398"><ele>319.6</ele><time>2026-04-12T12:16:14.998Z</time></trkpt><trkpt lat="46.03244500016279" lon="11.887511545674537"><ele>319.0</ele><time>2026-04-12T12:16:15.998Z</time></trkpt><trkpt lat="46.032375811375566" lon="11.887606156567179"><ele>318.2</ele><time>2026-04-12T12:16:16.998Z</time></trkpt><trkpt lat="46.032309005692774" lon="11.887706856581115"><ele>317.4</ele><time>2026-04-12T12:16:17.998Z</time></trkpt><trkpt lat="46.0322363877975" lon="11.88780539180748"><ele>316.6</ele><time>2026-04-12T12:16:18.998Z</time></trkpt><trkpt lat="46.032169353128786" lon="11.887907132568609"><ele>315.8</ele><time>2026-04-12T12:16:19.998Z</time></trkpt><trkpt lat="46.0320973775177" lon="11.888003765668904"><ele>315.0</ele><time>2026-04-12T12:16:20.998Z</time></trkpt><trkpt lat="46.032027408945" lon="11.888108187933277"><ele>315.0</ele><time>2026-04-12T12:16:21.998Z</time></trkpt><trkpt lat="46.03195387788518" lon="11.888212522217074"><ele>315.0</ele><time>2026-04-12T12:16:23Z</time></trkpt><trkpt lat="46.03188147918167" lon="11.888316648840744"><ele>315.0</ele><time>2026-04-12T12:16:24Z</time></trkpt><trkpt lat="46.03181098131576" lon="11.888416351553591"><ele>315.0</ele><time>2026-04-12T12:16:25Z</time></trkpt><trkpt lat="46.03174041558223" lon="11.888517325053837"><ele>315.0</ele><time>2026-04-12T12:16:26Z</time></trkpt><trkpt lat="46.03167140829195" lon="11.888613477933397"><ele>314.3333333333333</ele><time>2026-04-12T12:16:27Z</time></trkpt><trkpt lat="46.03161118010341" lon="11.888714657947746"><ele>313.6666666666667</ele><time>2026-04-12T12:16:28Z</time></trkpt><trkpt lat="46.031556167634484" lon="11.888801503095523"><ele>313.0</ele><time>2026-04-12T12:16:29Z</time></trkpt><trkpt lat="46.031498708638054" lon="11.888881603782298"><ele>312.33333333333337</ele><time>2026-04-12T12:16:30Z</time></trkpt><trkpt lat="46.031436543660746" lon="11.888968621163738"><ele>311.6666666666667</ele><time>2026-04-12T12:16:31Z</time></trkpt><trkpt lat="46.031368862158544" lon="11.889073067008296"><ele>311.0</ele><time>2026-04-12T12:16:32Z</time></trkpt><trkpt lat="46.031295877843256" lon="11.889184158900086"><ele>310.25</ele><time>2026-04-12T12:16:33Z</time></trkpt><trkpt lat="46.03121282909349" lon="11.889296933354588"><ele>309.5</ele><time>2026-04-12T12:16:34Z</time></trkpt><trkpt lat="46.03112644979314" lon="11.889420582447297"><ele>308.75</ele><time>2026-04-12T12:16:35Z</time></trkpt><trkpt lat="46.03104276395688" lon="11.889541392696199"><ele>308.0</ele><time>2026-04-12T12:16:36Z</time></trkpt><trkpt lat="46.03096786556273" lon="11.88965837330705"><ele>308.0</ele><time>2026-04-12T12:16:37Z</time></trkpt><trkpt lat="46.03088836155926" lon="11.889762058957329"><ele>308.0</ele><time>2026-04-12T12:16:38Z</time></trkpt><trkpt lat="46.0308066644938" lon="11.889879498461907"><ele>308.0</ele><time>2026-04-12T12:16:39Z</time></trkpt><trkpt lat="46.03073085405717" lon="11.889990811228781"><ele>308.0</ele><time>2026-04-12T12:16:40Z</time></trkpt><trkpt lat="46.030651033016284" lon="11.89010867468843"><ele>308.0</ele><time>2026-04-12T12:16:41Z</time></trkpt><trkpt lat="46.030570754885886" lon="11.89022631240475"><ele>308.0</ele><time>2026-04-12T12:16:42Z</time></trkpt><trkpt lat="46.03049127476013" lon="11.890348888710468"><ele>308.0</ele><time>2026-04-12T12:16:43Z</time></trkpt><trkpt lat="46.030411420826056" lon="11.890478879050375"><ele>308.0</ele><time>2026-04-12T12:16:44Z</time></trkpt><trkpt lat="46.03033559378529" lon="11.89061155525581"><ele>308.0</ele><time>2026-04-12T12:16:45Z</time></trkpt><trkpt lat="46.03026051043646" lon="11.890745223955834"><ele>308.0</ele><time>2026-04-12T12:16:46Z</time></trkpt><trkpt lat="46.030188812806166" lon="11.89088186577493"><ele>308.0</ele><time>2026-04-12T12:16:47Z</time></trkpt><trkpt lat="46.03012306182603" lon="11.891023636355609"><ele>308.0</ele><time>2026-04-12T12:16:48Z</time></trkpt><trkpt lat="46.03006174750585" lon="11.891162196055298"><ele>308.0</ele><time>2026-04-12T12:16:49Z</time></trkpt><trkpt lat="46.030002134811674" lon="11.891301299417947"><ele>306.6</ele><time>2026-04-12T12:16:50Z</time></trkpt><trkpt lat="46.0299481286439" lon="11.891438534345053"><ele>305.20000000000005</ele><time>2026-04-12T12:16:51Z</time></trkpt><trkpt lat="46.029894883459725" lon="11.891575746773137"><ele>303.8</ele><time>2026-04-12T12:16:52Z</time></trkpt><trkpt lat="46.02984537142761" lon="11.891718771344141"><ele>302.40000000000003</ele><time>2026-04-12T12:16:53Z</time></trkpt><trkpt lat="46.02979660836057" lon="11.89185535210664"><ele>301.0</ele><time>2026-04-12T12:16:54Z</time></trkpt><trkpt lat="46.02974681850966" lon="11.89199161734871"><ele>300.6</ele><time>2026-04-12T12:16:55Z</time></trkpt><trkpt lat="46.029696356179514" lon="11.892130200025811"><ele>300.20000000000005</ele><time>2026-04-12T12:16:56Z</time></trkpt><trkpt lat="46.02964652966653" lon="11.892268659690433"><ele>299.79999999999995</ele><time>2026-04-12T12:16:57Z</time></trkpt><trkpt lat="46.029600949592755" lon="11.892406516824241"><ele>299.4</ele><time>2026-04-12T12:16:58Z</time></trkpt><trkpt lat="46.02954981997442" lon="11.892521243173007"><ele>299.0</ele><time>2026-04-12T12:16:59Z</time></trkpt><trkpt lat="46.029491971582004" lon="11.892638489800566"><ele>299.0</ele><time>2026-04-12T12:17:00Z</time></trkpt><trkpt lat="46.02943936649511" lon="11.892759741673828"><ele>299.0</ele><time>2026-04-12T12:17:01Z</time></trkpt><trkpt lat="46.02937168911944" lon="11.892869861389645"><ele>299.0</ele><time>2026-04-12T12:17:02Z</time></trkpt><trkpt lat="46.02930099200922" lon="11.89297668827071"><ele>299.0</ele><time>2026-04-12T12:17:03Z</time></trkpt><trkpt lat="46.02921891003738" lon="11.893082174283963"><ele>299.0</ele><time>2026-04-12T12:17:04Z</time></trkpt><trkpt lat="46.02913746804168" lon="11.893172131589246"><ele>298.59999999999997</ele><time>2026-04-12T12:17:05Z</time></trkpt><trkpt lat="46.029056046341196" lon="11.893249677377849"><ele>298.2</ele><time>2026-04-12T12:17:06Z</time></trkpt><trkpt lat="46.02896860548651" lon="11.893323706593689"><ele>297.79999999999995</ele><time>2026-04-12T12:17:07Z</time></trkpt><trkpt lat="46.028878142315726" lon="11.893398672622142"><ele>297.4</ele><time>2026-04-12T12:17:07.999Z</time></trkpt><trkpt lat="46.028784905424004" lon="11.893467270620945"><ele>297.0</ele><time>2026-04-12T12:17:08.999Z</time></trkpt><trkpt lat="46.0286874937795" lon="11.893538874532373"><ele>297.0</ele><time>2026-04-12T12:17:09.999Z</time></trkpt><trkpt lat="46.02859011907186" lon="11.893605264373546"><ele>297.0</ele><time>2026-04-12T12:17:10.999Z</time></trkpt><trkpt lat="46.028488366053885" lon="11.893674746346054"><ele>297.0</ele><time>2026-04-12T12:17:11.999Z</time></trkpt><trkpt lat="46.028391893724326" lon="11.893743033504249"><ele>297.0</ele><time>2026-04-12T12:17:12.999Z</time></trkpt><trkpt lat="46.028296921567645" lon="11.893811673835065"><ele>297.0</ele><time>2026-04-12T12:17:13.999Z</time></trkpt><trkpt lat="46.02819748865461" lon="11.893879696141385"><ele>296.8</ele><time>2026-04-12T12:17:14.999Z</time></trkpt><trkpt lat="46.02810488926425" lon="11.893946605558332"><ele>296.6</ele><time>2026-04-12T12:17:15.999Z</time></trkpt><trkpt lat="46.02801474198694" lon="11.894011446669621"><ele>296.40000000000003</ele><time>2026-04-12T12:17:16.999Z</time></trkpt><trkpt lat="46.02792561264806" lon="11.894075508783123"><ele>296.2</ele><time>2026-04-12T12:17:17.999Z</time></trkpt><trkpt lat="46.027843201539646" lon="11.894136120123719"><ele>296.0</ele><time>2026-04-12T12:17:18.999Z</time></trkpt><trkpt lat="46.027760965221226" lon="11.894191940670067"><ele>296.0</ele><time>2026-04-12T12:17:19.999Z</time></trkpt><trkpt lat="46.0276809438203" lon="11.894247078381772"><ele>296.0</ele><time>2026-04-12T12:17:20.999Z</time></trkpt><trkpt lat="46.02759909774462" lon="11.894304229686817"><ele>296.0</ele><time>2026-04-12T12:17:21.999Z</time></trkpt><trkpt lat="46.02751458369061" lon="11.894364749080578"><ele>296.0</ele><time>2026-04-12T12:17:22.999Z</time></trkpt><trkpt lat="46.027427278873866" lon="11.894424443150992"><ele>296.0</ele><time>2026-04-12T12:17:23.999Z</time></trkpt><trkpt lat="46.027334629353476" lon="11.894488527109512"><ele>295.2</ele><time>2026-04-12T12:17:24.999Z</time></trkpt><trkpt lat="46.02725139887742" lon="11.894550010007816"><ele>294.40000000000003</ele><time>2026-04-12T12:17:25.999Z</time></trkpt><trkpt lat="46.02717178870436" lon="11.894598016642664"><ele>293.6</ele><time>2026-04-12T12:17:26.999Z</time></trkpt><trkpt lat="46.02709196095596" lon="11.89466080587893"><ele>292.8</ele><time>2026-04-12T12:17:27.999Z</time></trkpt><trkpt lat="46.027009333366884" lon="11.89472098356443"><ele>292.0</ele><time>2026-04-12T12:17:28.999Z</time></trkpt><trkpt lat="46.02691039006425" lon="11.894783792637638"><ele>292.0</ele><time>2026-04-12T12:17:29.999Z</time></trkpt><trkpt lat="46.02681779070149" lon="11.894845210486944"><ele>292.0</ele><time>2026-04-12T12:17:30.999Z</time></trkpt><trkpt lat="46.026728629889966" lon="11.894898583508327"><ele>292.0</ele><time>2026-04-12T12:17:31.999Z</time></trkpt><trkpt lat="46.02663925399763" lon="11.894965760407878"><ele>292.0</ele><time>2026-04-12T12:17:32.999Z</time></trkpt><trkpt lat="46.02655050165252" lon="11.895030894210255"><ele>292.0</ele><time>2026-04-12T12:17:33.999Z</time></trkpt><trkpt lat="46.026461443570014" lon="11.895090769138593"><ele>291.4</ele><time>2026-04-12T12:17:34.999Z</time></trkpt><trkpt lat="46.02636482032521" lon="11.895156390921976"><ele>290.79999999999995</ele><time>2026-04-12T12:17:35.999Z</time></trkpt><trkpt lat="46.026280720407215" lon="11.895226001977887"><ele>290.2</ele><time>2026-04-12T12:17:36.999Z</time></trkpt><trkpt lat="46.026194705517106" lon="11.895289428572221"><ele>289.59999999999997</ele><time>2026-04-12T12:17:37.999Z</time></trkpt><trkpt lat="46.02610995144858" lon="11.89534541517879"><ele>289.0</ele><time>2026-04-12T12:17:38.999Z</time></trkpt><trkpt lat="46.02602272040338" lon="11.895401667983375"><ele>289.0</ele><time>2026-04-12T12:17:39.999Z</time></trkpt><trkpt lat="46.025944492741324" lon="11.895454809075634"><ele>289.0</ele><time>2026-04-12T12:17:40.999Z</time></trkpt><trkpt lat="46.025876694473695" lon="11.89549863452468"><ele>289.0</ele><time>2026-04-12T12:17:41.999Z</time></trkpt><trkpt lat="46.02582139707936" lon="11.895555073381194"><ele>289.0</ele><time>2026-04-12T12:17:42.999Z</time></trkpt><trkpt lat="46.02575483225236" lon="11.895600358271535"><ele>289.0</ele><time>2026-04-12T12:17:44.999Z</time></trkpt><trkpt lat="46.02569619929933" lon="11.895655056141113"><ele>289.0</ele><time>2026-04-12T12:17:47.999Z</time></trkpt><trkpt lat="46.025628853074394" lon="11.89569346734113"><ele>289.0</ele><time>2026-04-12T12:18:01.999Z</time></trkpt><trkpt lat="46.02556966551105" lon="11.89577291166523"><ele>288.66666666666663</ele><time>2026-04-12T12:18:03.999Z</time></trkpt><trkpt lat="46.025515768914296" lon="11.895834720423755"><ele>288.3333333333333</ele><time>2026-04-12T12:18:04.999Z</time></trkpt><trkpt lat="46.02545975084418" lon="11.895903620541878"><ele>288.0</ele><time>2026-04-12T12:18:05.999Z</time></trkpt><trkpt lat="46.02539803189959" lon="11.8959767622665"><ele>287.6666666666667</ele><time>2026-04-12T12:18:06.998Z</time></trkpt><trkpt lat="46.025329329541876" lon="11.896059071617037"><ele>287.33333333333337</ele><time>2026-04-12T12:18:07.998Z</time></trkpt><trkpt lat="46.025257064305954" lon="11.896142078083086"><ele>287.0</ele><time>2026-04-12T12:18:08.998Z</time></trkpt><trkpt lat="46.02517751947775" lon="11.896224417624344"><ele>287.0</ele><time>2026-04-12T12:18:09.998Z</time></trkpt><trkpt lat="46.02509171303678" lon="11.896294053721387"><ele>287.0</ele><time>2026-04-12T12:18:10.998Z</time></trkpt><trkpt lat="46.02500685601015" lon="11.896347343503338"><ele>287.0</ele><time>2026-04-12T12:18:11.998Z</time></trkpt><trkpt lat="46.02491966375956" lon="11.896393351650966"><ele>287.0</ele><time>2026-04-12T12:18:12.998Z</time></trkpt><trkpt lat="46.02482869853076" lon="11.896431037528075"><ele>287.0</ele><time>2026-04-12T12:18:13.998Z</time></trkpt><trkpt lat="46.024737150526825" lon="11.89646682476113"><ele>287.0</ele><time>2026-04-12T12:18:14.998Z</time></trkpt><trkpt lat="46.02464560613603" lon="11.89649844065218"><ele>287.0</ele><time>2026-04-12T12:18:15.998Z</time></trkpt><trkpt lat="46.02455931791529" lon="11.896540668462068"><ele>287.0</ele><time>2026-04-12T12:18:16.998Z</time></trkpt><trkpt lat="46.02447907586291" lon="11.896606117613256"><ele>287.0</ele><time>2026-04-12T12:18:17.998Z</time></trkpt><trkpt lat="46.02438957705921" lon="11.896678642217424"><ele>287.0</ele><time>2026-04-12T12:18:18.998Z</time></trkpt><trkpt lat="46.02429718763652" lon="11.896744668164283"><ele>286.75</ele><time>2026-04-12T12:18:19.998Z</time></trkpt><trkpt lat="46.02419311721879" lon="11.89680568241769"><ele>286.5</ele><time>2026-04-12T12:18:20.998Z</time></trkpt><trkpt lat="46.024081305727385" lon="11.896885549953574"><ele>286.25</ele><time>2026-04-12T12:18:21.998Z</time></trkpt><trkpt lat="46.02396929618753" lon="11.896965144018047"><ele>286.0</ele><time>2026-04-12T12:18:22.998Z</time></trkpt><trkpt lat="46.02386590193203" lon="11.897049718050283"><ele>285.25</ele><time>2026-04-12T12:18:23.998Z</time></trkpt><trkpt lat="46.02375610494794" lon="11.897124270563127"><ele>284.5</ele><time>2026-04-12T12:18:24.998Z</time></trkpt><trkpt lat="46.02364509583796" lon="11.897220513296809"><ele>283.75</ele><time>2026-04-12T12:18:25.998Z</time></trkpt><trkpt lat="46.02353809301679" lon="11.897325615842307"><ele>283.0</ele><time>2026-04-12T12:18:26.998Z</time></trkpt><trkpt lat="46.02342773268087" lon="11.897431614928607"><ele>283.0</ele><time>2026-04-12T12:18:27.998Z</time></trkpt><trkpt lat="46.02331646782952" lon="11.897542788590517"><ele>283.0</ele><time>2026-04-12T12:18:29Z</time></trkpt><trkpt lat="46.02319770766019" lon="11.897651945052877"><ele>283.0</ele><time>2026-04-12T12:18:30Z</time></trkpt><trkpt lat="46.02307770832074" lon="11.897766315527479"><ele>283.0</ele><time>2026-04-12T12:18:31Z</time></trkpt><trkpt lat="46.02296381258379" lon="11.89787450012497"><ele>283.0</ele><time>2026-04-12T12:18:32Z</time></trkpt><trkpt lat="46.022849855990685" lon="11.897981042482037"><ele>283.0</ele><time>2026-04-12T12:18:33Z</time></trkpt><trkpt lat="46.022738343491014" lon="11.898083262622201"><ele>283.0</ele><time>2026-04-12T12:18:34Z</time></trkpt><trkpt lat="46.02262194299106" lon="11.89818983201093"><ele>283.0</ele><time>2026-04-12T12:18:35Z</time></trkpt><trkpt lat="46.02250919035797" lon="11.89828040948598"><ele>282.25</ele><time>2026-04-12T12:18:36Z</time></trkpt><trkpt lat="46.022397746082355" lon="11.898391278799922"><ele>281.5</ele><time>2026-04-12T12:18:37Z</time></trkpt><trkpt lat="46.02229614950252" lon="11.898486249510723"><ele>280.75</ele><time>2026-04-12T12:18:38Z</time></trkpt><trkpt lat="46.02219796606418" lon="11.898569879405892"><ele>280.0</ele><time>2026-04-12T12:18:39Z</time></trkpt><trkpt lat="46.02211088671621" lon="11.898657190354617"><ele>280.0</ele><time>2026-04-12T12:18:40Z</time></trkpt><trkpt lat="46.02202370899573" lon="11.898742157204966"><ele>280.0</ele><time>2026-04-12T12:18:41Z</time></trkpt><trkpt lat="46.02193574357886" lon="11.898821308403084"><ele>280.0</ele><time>2026-04-12T12:18:42Z</time></trkpt><trkpt lat="46.02185120947044" lon="11.898898516494556"><ele>280.0</ele><time>2026-04-12T12:18:43Z</time></trkpt><trkpt lat="46.02177313779823" lon="11.898981646332055"><ele>280.0</ele><time>2026-04-12T12:18:44Z</time></trkpt><trkpt lat="46.021691369772014" lon="11.899058721629888"><ele>279.3333333333333</ele><time>2026-04-12T12:18:45Z</time></trkpt><trkpt lat="46.02160746707983" lon="11.899133300485447"><ele>278.66666666666663</ele><time>2026-04-12T12:18:46Z</time></trkpt><trkpt lat="46.02152576411125" lon="11.899203254453054"><ele>278.0</ele><time>2026-04-12T12:18:47Z</time></trkpt><trkpt lat="46.021461170871035" lon="11.899273354669168"><ele>277.3333333333333</ele><time>2026-04-12T12:18:48Z</time></trkpt><trkpt lat="46.0214017729374" lon="11.899323587458044"><ele>276.6666666666667</ele><time>2026-04-12T12:18:49Z</time></trkpt><trkpt lat="46.021326720764556" lon="11.899401751269735"><ele>276.0</ele><time>2026-04-12T12:18:51Z</time></trkpt><trkpt lat="46.02126578056114" lon="11.899454725735453"><ele>275.8333333333333</ele><time>2026-04-12T12:18:53Z</time></trkpt><trkpt lat="46.02121007748069" lon="11.899505304981849"><ele>275.6666666666667</ele><time>2026-04-12T12:18:56Z</time></trkpt><trkpt lat="46.02113557168771" lon="11.899560289310719"><ele>275.5</ele><time>2026-04-12T12:19:00Z</time></trkpt><trkpt lat="46.02105977764661" lon="11.8996053427373"><ele>275.33333333333337</ele><time>2026-04-12T12:19:03Z</time></trkpt><trkpt lat="46.0209878136252" lon="11.899657760273035"><ele>275.1666666666667</ele><time>2026-04-12T12:19:06Z</time></trkpt><trkpt lat="46.02088838329518" lon="11.89968311587111"><ele>275.0</ele><time>2026-04-12T12:19:09Z</time></trkpt><trkpt lat="46.02077585710024" lon="11.899663038159188"><ele>274.8</ele><time>2026-04-12T12:19:11Z</time></trkpt><trkpt lat="46.02067686397216" lon="11.899754139029653"><ele>274.6</ele><time>2026-04-12T12:19:12.999Z</time></trkpt><trkpt lat="46.02068046376021" lon="11.89991523002225"><ele>274.4</ele><time>2026-04-12T12:19:14.999Z</time></trkpt><trkpt lat="46.02073547842661" lon="11.900005212755357"><ele>274.2</ele><time>2026-04-12T12:19:15.999Z</time></trkpt><trkpt lat="46.02078241363442" lon="11.900127942674336"><ele>274.0</ele><time>2026-04-12T12:19:16.999Z</time></trkpt><trkpt lat="46.02081854668548" lon="11.900290071987271"><ele>274.0</ele><time>2026-04-12T12:19:17.999Z</time></trkpt><trkpt lat="46.02086617719051" lon="11.900469258921696"><ele>274.0</ele><time>2026-04-12T12:19:18.999Z</time></trkpt><trkpt lat="46.02092580244074" lon="11.900625303954623"><ele>274.0</ele><time>2026-04-12T12:19:19.999Z</time></trkpt><trkpt lat="46.02099208949679" lon="11.900782290090081"><ele>274.0</ele><time>2026-04-12T12:19:20.999Z</time></trkpt><trkpt lat="46.02105402291215" lon="11.900940518064683"><ele>274.0</ele><time>2026-04-12T12:19:21.999Z</time></trkpt><trkpt lat="46.02111580055229" lon="11.901100780286034"><ele>274.0</ele><time>2026-04-12T12:19:22.999Z</time></trkpt><trkpt lat="46.02118196478143" lon="11.901260291778806"><ele>274.0</ele><time>2026-04-12T12:19:23.999Z</time></trkpt><trkpt lat="46.02124104554095" lon="11.901430839661032"><ele>274.0</ele><time>2026-04-12T12:19:24.999Z</time></trkpt><trkpt lat="46.02129541144847" lon="11.901598713468033"><ele>273.75</ele><time>2026-04-12T12:19:25.999Z</time></trkpt><trkpt lat="46.021335938142734" lon="11.901769208781875"><ele>273.5</ele><time>2026-04-12T12:19:26.999Z</time></trkpt><trkpt lat="46.02135910345058" lon="11.901939746036412"><ele>273.25</ele><time>2026-04-12T12:19:27.999Z</time></trkpt><trkpt lat="46.02137361659029" lon="11.902113083022318"><ele>273.0</ele><time>2026-04-12T12:19:28.999Z</time></trkpt><trkpt lat="46.02138286553225" lon="11.902290531037295"><ele>273.0</ele><time>2026-04-12T12:19:29.999Z</time></trkpt><trkpt lat="46.021389309188145" lon="11.902454354377568"><ele>273.0</ele><time>2026-04-12T12:19:30.999Z</time></trkpt><trkpt lat="46.02139724734425" lon="11.902614077791576"><ele>273.0</ele><time>2026-04-12T12:19:31.999Z</time></trkpt><trkpt lat="46.02140756631583" lon="11.902772308181873"><ele>273.0</ele><time>2026-04-12T12:19:32.999Z</time></trkpt><trkpt lat="46.021417747038754" lon="11.902928750980298"><ele>273.0</ele><time>2026-04-12T12:19:33.999Z</time></trkpt><trkpt lat="46.02142725111649" lon="11.903093012923573"><ele>272.75</ele><time>2026-04-12T12:19:34.999Z</time></trkpt><trkpt lat="46.021436427939456" lon="11.903272151389261"><ele>272.5</ele><time>2026-04-12T12:19:35.999Z</time></trkpt><trkpt lat="46.02144142252959" lon="11.903436113455715"><ele>272.25</ele><time>2026-04-12T12:19:36.999Z</time></trkpt><trkpt lat="46.021450113909026" lon="11.903596304750582"><ele>272.0</ele><time>2026-04-12T12:19:37.999Z</time></trkpt><trkpt lat="46.02145748611789" lon="11.903757790490069"><ele>272.0</ele><time>2026-04-12T12:19:38.999Z</time></trkpt><trkpt lat="46.021465909946585" lon="11.903923847566595"><ele>272.0</ele><time>2026-04-12T12:19:39.999Z</time></trkpt><trkpt lat="46.021478747784975" lon="11.904087338329148"><ele>272.0</ele><time>2026-04-12T12:19:40.999Z</time></trkpt><trkpt lat="46.02148685909651" lon="11.90425219909315"><ele>272.0</ele><time>2026-04-12T12:19:41.999Z</time></trkpt><trkpt lat="46.021485279404" lon="11.904405157366345"><ele>272.2</ele><time>2026-04-12T12:19:42.999Z</time></trkpt><trkpt lat="46.02149660352049" lon="11.904538521910192"><ele>272.4</ele><time>2026-04-12T12:19:43.999Z</time></trkpt><trkpt lat="46.02150075243715" lon="11.90465360458894"><ele>272.6</ele><time>2026-04-12T12:19:44.999Z</time></trkpt><trkpt lat="46.02150588616038" lon="11.904763314749486"><ele>272.8</ele><time>2026-04-12T12:19:45.999Z</time></trkpt><trkpt lat="46.0215003163862" lon="11.904935522179994"><ele>273.0</ele><time>2026-04-12T12:19:47.999Z</time></trkpt><trkpt lat="46.02148897170559" lon="11.90508927764634"><ele>273.2</ele><time>2026-04-12T12:19:49.999Z</time></trkpt><trkpt lat="46.0215135735684" lon="11.905293320910188"><ele>273.4</ele><time>2026-04-12T12:19:51.999Z</time></trkpt><trkpt lat="46.021529875283186" lon="11.905421137963014"><ele>273.59999999999997</ele><time>2026-04-12T12:19:52.999Z</time></trkpt><trkpt lat="46.02154055108513" lon="11.905557966859442"><ele>273.8</ele><time>2026-04-12T12:19:53.999Z</time></trkpt><trkpt lat="46.02156876168618" lon="11.905686846701116"><ele>274.0</ele><time>2026-04-12T12:19:54.999Z</time></trkpt><trkpt lat="46.02155452774015" lon="11.905845804967948"><ele>273.75</ele><time>2026-04-12T12:19:55.999Z</time></trkpt><trkpt lat="46.021564972652136" lon="11.90600070709367"><ele>273.5</ele><time>2026-04-12T12:19:56.999Z</time></trkpt><trkpt lat="46.021576137450516" lon="11.90615836694554"><ele>273.25</ele><time>2026-04-12T12:19:57.999Z</time></trkpt><trkpt lat="46.021589461363774" lon="11.906324132270267"><ele>273.0</ele><time>2026-04-12T12:19:58.999Z</time></trkpt><trkpt lat="46.02161149583517" lon="11.906496565663547"><ele>273.0</ele><time>2026-04-12T12:19:59.999Z</time></trkpt><trkpt lat="46.021635301066716" lon="11.90666801103899"><ele>273.0</ele><time>2026-04-12T12:20:00.999Z</time></trkpt><trkpt lat="46.02165839777856" lon="11.906835846422242"><ele>273.0</ele><time>2026-04-12T12:20:01.999Z</time></trkpt><trkpt lat="46.021676627922744" lon="11.906988573203934"><ele>273.0</ele><time>2026-04-12T12:20:02.999Z</time></trkpt><trkpt lat="46.02169704667743" lon="11.907123456473006"><ele>273.0</ele><time>2026-04-12T12:20:03.999Z</time></trkpt><trkpt lat="46.02172602257342" lon="11.90724619257473"><ele>273.0</ele><time>2026-04-12T12:20:04.999Z</time></trkpt><trkpt lat="46.02175192373199" lon="11.90735211490328"><ele>273.0</ele><time>2026-04-12T12:20:05.999Z</time></trkpt><trkpt lat="46.021767958661385" lon="11.907446320444071"><ele>273.0</ele><time>2026-04-12T12:20:06.999Z</time></trkpt><trkpt lat="46.02178343434826" lon="11.90757494918418"><ele>273.0</ele><time>2026-04-12T12:20:08.999Z</time></trkpt><trkpt lat="46.02181283808644" lon="11.907661210934519"><ele>273.0</ele><time>2026-04-12T12:20:11.998Z</time></trkpt><trkpt lat="46.02194792943814" lon="11.907579633337663"><ele>273.0</ele><time>2026-04-12T12:20:12.998Z</time></trkpt><trkpt lat="46.02202367455511" lon="11.907523277824593"><ele>273.0</ele><time>2026-04-12T12:20:15.998Z</time></trkpt><trkpt lat="46.021996996365125" lon="11.907668573958487"><ele>273.0</ele><time>2026-04-12T12:20:19.998Z</time></trkpt><trkpt lat="46.02195540830301" lon="11.907568512998639"><ele>273.0</ele><time>2026-04-12T12:20:20.998Z</time></trkpt><trkpt lat="46.021954710306225" lon="11.907667326750028"><ele>273.0</ele><time>2026-04-12T12:59:53.999Z</time></trkpt><trkpt lat="46.022029952931014" lon="11.907677589362809"><ele>273.0</ele><time>2026-04-12T12:59:57.999Z</time></trkpt><trkpt lat="46.022029185724826" lon="11.907570543610344"><ele>273.0</ele><time>2026-04-12T12:59:59.999Z</time></trkpt><trkpt lat="46.02193162179011" lon="11.907508311473133"><ele>272.8</ele><time>2026-04-12T13:00:01.999Z</time></trkpt><trkpt lat="46.02185885401938" lon="11.90750725793483"><ele>272.6</ele><time>2026-04-12T13:00:04.999Z</time></trkpt><trkpt lat="46.021786809516804" lon="11.90739169559704"><ele>272.4</ele><time>2026-04-12T13:00:10.999Z</time></trkpt><trkpt lat="46.02176811888009" lon="11.907260128051671"><ele>272.2</ele><time>2026-04-12T13:00:11.999Z</time></trkpt><trkpt lat="46.02174391473178" lon="11.907128414701068"><ele>272.0</ele><time>2026-04-12T13:00:12.999Z</time></trkpt><trkpt lat="46.0217143970584" lon="11.90697202022187"><ele>272.0</ele><time>2026-04-12T13:00:13.999Z</time></trkpt><trkpt lat="46.021686281224575" lon="11.906799795619788"><ele>272.0</ele><time>2026-04-12T13:00:14.999Z</time></trkpt><trkpt lat="46.021661363834" lon="11.906622497931648"><ele>272.0</ele><time>2026-04-12T13:00:15.999Z</time></trkpt><trkpt lat="46.02163777637251" lon="11.906467223449852"><ele>272.0</ele><time>2026-04-12T13:00:16.999Z</time></trkpt><trkpt lat="46.02162401970838" lon="11.906316776655094"><ele>272.2</ele><time>2026-04-12T13:00:17.999Z</time></trkpt><trkpt lat="46.02161089368015" lon="11.906188425601242"><ele>272.4</ele><time>2026-04-12T13:00:18.999Z</time></trkpt><trkpt lat="46.021602346839586" lon="11.906074836180577"><ele>272.6</ele><time>2026-04-12T13:00:19.999Z</time></trkpt><trkpt lat="46.02160372938089" lon="11.905975990861483"><ele>272.8</ele><time>2026-04-12T13:00:20.999Z</time></trkpt><trkpt lat="46.021593272369884" lon="11.905824402094495"><ele>273.0</ele><time>2026-04-12T13:00:22.999Z</time></trkpt><trkpt lat="46.02143172792884" lon="11.905747822809014"><ele>273.0</ele><time>2026-04-12T13:00:28Z</time></trkpt><trkpt lat="46.02141463558313" lon="11.905924895854186"><ele>273.0</ele><time>2026-04-12T13:00:32Z</time></trkpt><trkpt lat="46.02139342625272" lon="11.905780114896114"><ele>273.0</ele><time>2026-04-12T13:02:21.999Z</time></trkpt><trkpt lat="46.02142038563545" lon="11.905943753258912"><ele>273.0</ele><time>2026-04-12T13:03:13Z</time></trkpt><trkpt lat="46.021452194889086" lon="11.906031463154678"><ele>273.0</ele><time>2026-04-12T13:04:18.999Z</time></trkpt><trkpt lat="46.02143051475731" lon="11.90611998761478"><ele>273.0</ele><time>2026-04-12T13:06:03.999Z</time></trkpt><trkpt lat="46.02142284872543" lon="11.906233352952757"><ele>273.0</ele><time>2026-04-12T13:06:08.999Z</time></trkpt><trkpt lat="46.021488282122014" lon="11.90629585942759"><ele>273.0</ele><time>2026-04-12T13:06:10.999Z</time></trkpt><trkpt lat="46.02155270455234" lon="11.906361536752799"><ele>273.0</ele><time>2026-04-12T13:06:13.999Z</time></trkpt><trkpt lat="46.02161378415447" lon="11.906469492437072"><ele>273.0</ele><time>2026-04-12T13:06:16.999Z</time></trkpt><trkpt lat="46.021624004849535" lon="11.906573901766775"><ele>273.0</ele><time>2026-04-12T13:06:17.999Z</time></trkpt><trkpt lat="46.02163254845351" lon="11.906703568909847"><ele>272.8</ele><time>2026-04-12T13:06:18.999Z</time></trkpt><trkpt lat="46.02164902504516" lon="11.906832997666488"><ele>272.6</ele><time>2026-04-12T13:06:19.999Z</time></trkpt><trkpt lat="46.02167504230319" lon="11.906968785365398"><ele>272.4</ele><time>2026-04-12T13:06:20.999Z</time></trkpt><trkpt lat="46.02170014273391" lon="11.907105951296971"><ele>272.2</ele><time>2026-04-12T13:06:21.999Z</time></trkpt><trkpt lat="46.0217251197217" lon="11.907234017895528"><ele>272.0</ele><time>2026-04-12T13:06:22.999Z</time></trkpt><trkpt lat="46.021749486130204" lon="11.907344978476548"><ele>272.0</ele><time>2026-04-12T13:06:23.999Z</time></trkpt><trkpt lat="46.02176688447314" lon="11.907442622798904"><ele>272.0</ele><time>2026-04-12T13:06:24.999Z</time></trkpt><trkpt lat="46.021787804215734" lon="11.90759679845729"><ele>272.0</ele><time>2026-04-12T13:06:26.999Z</time></trkpt><trkpt lat="46.02193627443386" lon="11.907565794635461"><ele>272.0</ele><time>2026-04-12T13:06:30.999Z</time></trkpt><trkpt lat="46.02200841196868" lon="11.907530702484529"><ele>272.0</ele><time>2026-04-12T13:06:33.999Z</time></trkpt><trkpt lat="46.02156560648884" lon="11.906674900436919"><ele>272.5</ele><time>2026-04-12T13:14:21.999Z</time></trkpt><trkpt lat="46.02145037388341" lon="11.906391320233586"><ele>273.0</ele><time>2026-04-12T13:14:22.999Z</time></trkpt><trkpt lat="46.02197434527191" lon="11.907664235709637"><ele>273.0</ele><time>2026-04-12T13:14:48.999Z</time></trkpt><trkpt lat="46.0220253316502" lon="11.907722057380282"><ele>273.0</ele><time>2026-04-12T13:27:46Z</time></trkpt><trkpt lat="46.02207557165071" lon="11.907646237876426"><ele>273.0</ele><time>2026-04-12T13:27:49Z</time></trkpt><trkpt lat="46.022087651871374" lon="11.90751795601081"><ele>273.0</ele><time>2026-04-12T13:27:53Z</time></trkpt><trkpt lat="46.02199507287244" lon="11.907496312285797"><ele>273.0</ele><time>2026-04-12T13:27:55Z</time></trkpt><trkpt lat="46.021922279023" lon="11.907536113726138"><ele>273.0</ele><time>2026-04-12T13:27:57Z</time></trkpt><trkpt lat="46.02185125931707" lon="11.907507568382973"><ele>272.8</ele><time>2026-04-12T13:27:59Z</time></trkpt><trkpt lat="46.021812161625554" lon="11.907435265269156"><ele>272.6</ele><time>2026-04-12T13:28:00Z</time></trkpt><trkpt lat="46.021778213146575" lon="11.907278492987496"><ele>272.4</ele><time>2026-04-12T13:28:01Z</time></trkpt><trkpt lat="46.02175775711057" lon="11.907092961194596"><ele>272.2</ele><time>2026-04-12T13:28:02Z</time></trkpt><trkpt lat="46.021730856269045" lon="11.90690354218419"><ele>272.0</ele><time>2026-04-12T13:28:03Z</time></trkpt><trkpt lat="46.021698874239476" lon="11.906717630049407"><ele>272.25</ele><time>2026-04-12T13:28:04Z</time></trkpt><trkpt lat="46.021668490385224" lon="11.906522126729474"><ele>272.5</ele><time>2026-04-12T13:28:05Z</time></trkpt><trkpt lat="46.02164644406186" lon="11.906331400919333"><ele>272.75</ele><time>2026-04-12T13:28:06Z</time></trkpt><trkpt lat="46.02163009603788" lon="11.906153193686631"><ele>273.0</ele><time>2026-04-12T13:28:07Z</time></trkpt><trkpt lat="46.02161814168561" lon="11.905978850947115"><ele>273.2</ele><time>2026-04-12T13:28:08Z</time></trkpt><trkpt lat="46.021607444522914" lon="11.905824314849161"><ele>273.4</ele><time>2026-04-12T13:28:09Z</time></trkpt><trkpt lat="46.021600979889506" lon="11.905678211722785"><ele>273.59999999999997</ele><time>2026-04-12T13:28:10Z</time></trkpt><trkpt lat="46.02159420803164" lon="11.905532738243863"><ele>273.8</ele><time>2026-04-12T13:28:11Z</time></trkpt><trkpt lat="46.021594661558154" lon="11.90540432046465"><ele>274.0</ele><time>2026-04-12T13:28:12Z</time></trkpt><trkpt lat="46.02161710796676" lon="11.905283688073418"><ele>274.0</ele><time>2026-04-12T13:28:13Z</time></trkpt><trkpt lat="46.021647912506374" lon="11.905180383568643"><ele>274.0</ele><time>2026-04-12T13:28:14Z</time></trkpt><trkpt lat="46.02165795316433" lon="11.905058503760484"><ele>274.0</ele><time>2026-04-12T13:28:15Z</time></trkpt><trkpt lat="46.02162085969335" lon="11.904929414149438"><ele>274.0</ele><time>2026-04-12T13:28:16Z</time></trkpt><trkpt lat="46.02155743652762" lon="11.904781659994484"><ele>274.0</ele><time>2026-04-12T13:28:17Z</time></trkpt><trkpt lat="46.02153036545247" lon="11.904607092037088"><ele>273.75</ele><time>2026-04-12T13:28:18Z</time></trkpt><trkpt lat="46.021528698062596" lon="11.904418364129741"><ele>273.5</ele><time>2026-04-12T13:28:19Z</time></trkpt><trkpt lat="46.021524575369774" lon="11.904238755300616"><ele>273.25</ele><time>2026-04-12T13:28:20Z</time></trkpt><trkpt lat="46.021516153332314" lon="11.904062958165317"><ele>273.0</ele><time>2026-04-12T13:28:21Z</time></trkpt><trkpt lat="46.02150944229071" lon="11.903886083782705"><ele>272.75</ele><time>2026-04-12T13:28:22Z</time></trkpt><trkpt lat="46.02149793072903" lon="11.903704617186852"><ele>272.5</ele><time>2026-04-12T13:28:23Z</time></trkpt><trkpt lat="46.02148603043887" lon="11.90351566515095"><ele>272.25</ele><time>2026-04-12T13:28:24Z</time></trkpt><trkpt lat="46.0214786656524" lon="11.903328510822973"><ele>272.0</ele><time>2026-04-12T13:28:25Z</time></trkpt><trkpt lat="46.0214726391254" lon="11.903152899915352"><ele>272.0</ele><time>2026-04-12T13:28:26Z</time></trkpt><trkpt lat="46.02146543241734" lon="11.90298115601578"><ele>272.0</ele><time>2026-04-12T13:28:27Z</time></trkpt><trkpt lat="46.02145037119487" lon="11.902798516638418"><ele>272.0</ele><time>2026-04-12T13:28:28Z</time></trkpt><trkpt lat="46.0214444210106" lon="11.902607433023503"><ele>272.0</ele><time>2026-04-12T13:28:29Z</time></trkpt><trkpt lat="46.02143683768065" lon="11.902423412190181"><ele>272.25</ele><time>2026-04-12T13:28:30Z</time></trkpt><trkpt lat="46.021430748385946" lon="11.90223005219128"><ele>272.5</ele><time>2026-04-12T13:28:31Z</time></trkpt><trkpt lat="46.021419085852656" lon="11.902044616066675"><ele>272.75</ele><time>2026-04-12T13:28:32Z</time></trkpt><trkpt lat="46.02140035220404" lon="11.901866334481225"><ele>273.0</ele><time>2026-04-12T13:28:33Z</time></trkpt><trkpt lat="46.021371065714376" lon="11.901687364053023"><ele>273.25</ele><time>2026-04-12T13:28:34Z</time></trkpt><trkpt lat="46.021323217230034" lon="11.901513529377345"><ele>273.5</ele><time>2026-04-12T13:28:35Z</time></trkpt><trkpt lat="46.02126972433645" lon="11.90134524792605"><ele>273.75</ele><time>2026-04-12T13:28:35.999Z</time></trkpt><trkpt lat="46.02121606140725" lon="11.901179160459064"><ele>274.0</ele><time>2026-04-12T13:28:36.999Z</time></trkpt><trkpt lat="46.021155275795635" lon="11.901035992300196"><ele>274.0</ele><time>2026-04-12T13:28:37.999Z</time></trkpt><trkpt lat="46.02109723411322" lon="11.900891957984973"><ele>274.0</ele><time>2026-04-12T13:28:38.999Z</time></trkpt><trkpt lat="46.02104042600278" lon="11.900741391787017"><ele>274.0</ele><time>2026-04-12T13:28:39.999Z</time></trkpt><trkpt lat="46.02098582301067" lon="11.900587816181242"><ele>274.0</ele><time>2026-04-12T13:28:40.999Z</time></trkpt><trkpt lat="46.02093643461102" lon="11.900441273529673"><ele>274.0</ele><time>2026-04-12T13:28:41.999Z</time></trkpt><trkpt lat="46.02090339402648" lon="11.900308004952137"><ele>274.0</ele><time>2026-04-12T13:28:42.999Z</time></trkpt><trkpt lat="46.02086714999831" lon="11.900192559593174"><ele>274.0</ele><time>2026-04-12T13:28:43.999Z</time></trkpt><trkpt lat="46.020851409498775" lon="11.90008505244835"><ele>274.0</ele><time>2026-04-12T13:28:44.999Z</time></trkpt><trkpt lat="46.020850777589494" lon="11.899985886975424"><ele>274.0</ele><time>2026-04-12T13:28:45.999Z</time></trkpt><trkpt lat="46.0208535595423" lon="11.899879222052483"><ele>274.0</ele><time>2026-04-12T13:28:46.999Z</time></trkpt><trkpt lat="46.0208472894961" lon="11.899768432590855"><ele>274.0</ele><time>2026-04-12T13:28:47.999Z</time></trkpt><trkpt lat="46.020814900892255" lon="11.899679544155699"><ele>274.0</ele><time>2026-04-12T13:28:48.999Z</time></trkpt><trkpt lat="46.02077022162913" lon="11.899568953838259"><ele>274.0</ele><time>2026-04-12T13:28:49.999Z</time></trkpt><trkpt lat="46.020704428588346" lon="11.899447163372905"><ele>274.0</ele><time>2026-04-12T13:28:50.999Z</time></trkpt><trkpt lat="46.02066402285863" lon="11.89928457938194"><ele>274.0</ele><time>2026-04-12T13:28:51.999Z</time></trkpt><trkpt lat="46.020643612062145" lon="11.899093021830046"><ele>273.75</ele><time>2026-04-12T13:28:52.999Z</time></trkpt><trkpt lat="46.020620387011604" lon="11.898894617808423"><ele>273.5</ele><time>2026-04-12T13:28:53.999Z</time></trkpt><trkpt lat="46.02058810450487" lon="11.898692282649412"><ele>273.25</ele><time>2026-04-12T13:28:54.999Z</time></trkpt><trkpt lat="46.02054874831972" lon="11.898484359803398"><ele>273.0</ele><time>2026-04-12T13:28:55.999Z</time></trkpt><trkpt lat="46.02050992996224" lon="11.898268703238145"><ele>273.0</ele><time>2026-04-12T13:28:56.999Z</time></trkpt><trkpt lat="46.02047434134526" lon="11.898052789280799"><ele>273.0</ele><time>2026-04-12T13:28:57.999Z</time></trkpt><trkpt lat="46.020432386901405" lon="11.897839802952342"><ele>273.0</ele><time>2026-04-12T13:28:58.999Z</time></trkpt><trkpt lat="46.020383693402366" lon="11.897631474721672"><ele>273.5</ele><time>2026-04-12T13:28:59.999Z</time></trkpt><trkpt lat="46.020326807464635" lon="11.897428381314592"><ele>274.0</ele><time>2026-04-12T13:29:00.999Z</time></trkpt><trkpt lat="46.020268298664284" lon="11.897230269356903"><ele>274.5</ele><time>2026-04-12T13:29:01.999Z</time></trkpt><trkpt lat="46.020211918954494" lon="11.897041731247588"><ele>275.0</ele><time>2026-04-12T13:29:02.999Z</time></trkpt><trkpt lat="46.020162886365455" lon="11.896863388117698"><ele>274.75</ele><time>2026-04-12T13:29:03.999Z</time></trkpt><trkpt lat="46.02010825173237" lon="11.896683510300837"><ele>274.5</ele><time>2026-04-12T13:29:04.999Z</time></trkpt><trkpt lat="46.020050418566505" lon="11.896507981615686"><ele>274.25</ele><time>2026-04-12T13:29:05.999Z</time></trkpt><trkpt lat="46.02000166119431" lon="11.896337168108918"><ele>274.0</ele><time>2026-04-12T13:29:06.999Z</time></trkpt><trkpt lat="46.01995483015959" lon="11.896179227087138"><ele>274.0</ele><time>2026-04-12T13:29:07.999Z</time></trkpt><trkpt lat="46.01990703109672" lon="11.896038017150683"><ele>274.0</ele><time>2026-04-12T13:29:08.999Z</time></trkpt><trkpt lat="46.01986765680999" lon="11.895913953714919"><ele>274.0</ele><time>2026-04-12T13:29:09.999Z</time></trkpt><trkpt lat="46.01982710492758" lon="11.895818375268403"><ele>274.0</ele><time>2026-04-12T13:29:10.999Z</time></trkpt><trkpt lat="46.019779461913195" lon="11.895716498895151"><ele>274.0</ele><time>2026-04-12T13:29:12.999Z</time></trkpt><trkpt lat="46.01974072865141" lon="11.8956213906847"><ele>274.0</ele><time>2026-04-12T13:29:14.999Z</time></trkpt><trkpt lat="46.019710229908114" lon="11.895443141372036"><ele>274.0</ele><time>2026-04-12T13:29:16.999Z</time></trkpt><trkpt lat="46.01968011039586" lon="11.89535136132257"><ele>274.0</ele><time>2026-04-12T13:29:17.999Z</time></trkpt><trkpt lat="46.0196369751129" lon="11.895257783117485"><ele>274.0</ele><time>2026-04-12T13:29:18.999Z</time></trkpt><trkpt lat="46.01958977132637" lon="11.895152933394918"><ele>274.0</ele><time>2026-04-12T13:29:19.999Z</time></trkpt><trkpt lat="46.01954380942957" lon="11.895042730969655"><ele>274.0</ele><time>2026-04-12T13:29:20.999Z</time></trkpt><trkpt lat="46.01950417821022" lon="11.894924852630114"><ele>274.0</ele><time>2026-04-12T13:29:21.999Z</time></trkpt><trkpt lat="46.019475233331384" lon="11.894792177118747"><ele>273.8333333333333</ele><time>2026-04-12T13:29:22.999Z</time></trkpt><trkpt lat="46.01944819184122" lon="11.8946589001969"><ele>273.66666666666663</ele><time>2026-04-12T13:29:23.999Z</time></trkpt><trkpt lat="46.01942849103686" lon="11.89452867478595"><ele>273.5</ele><time>2026-04-12T13:29:24.999Z</time></trkpt><trkpt lat="46.01940920959727" lon="11.894411137531163"><ele>273.3333333333333</ele><time>2026-04-12T13:29:25.999Z</time></trkpt><trkpt lat="46.019387810601515" lon="11.894295235700037"><ele>273.1666666666667</ele><time>2026-04-12T13:29:26.999Z</time></trkpt><trkpt lat="46.01936839446975" lon="11.894188006882603"><ele>273.0</ele><time>2026-04-12T13:29:27.999Z</time></trkpt><trkpt lat="46.01935185083686" lon="11.894090023318142"><ele>273.0</ele><time>2026-04-12T13:29:28.999Z</time></trkpt><trkpt lat="46.01932346376182" lon="11.893924307420052"><ele>273.0</ele><time>2026-04-12T13:29:30.999Z</time></trkpt><trkpt lat="46.01929934060915" lon="11.893751690811003"><ele>273.0</ele><time>2026-04-12T13:29:32.999Z</time></trkpt><trkpt lat="46.01928512720282" lon="11.893654995222741"><ele>273.0</ele><time>2026-04-12T13:29:33.999Z</time></trkpt><trkpt lat="46.01927203456315" lon="11.893566023489427"><ele>273.0</ele><time>2026-04-12T13:29:34.999Z</time></trkpt><trkpt lat="46.019261532811576" lon="11.893475003568335"><ele>273.0</ele><time>2026-04-12T13:29:35.999Z</time></trkpt><trkpt lat="46.01925001375464" lon="11.893375875723711"><ele>273.14285714285717</ele><time>2026-04-12T13:29:36.999Z</time></trkpt><trkpt lat="46.0192381126334" lon="11.893283195184592"><ele>273.2857142857143</ele><time>2026-04-12T13:29:37.999Z</time></trkpt><trkpt lat="46.019226700596285" lon="11.89318588262683"><ele>273.42857142857144</ele><time>2026-04-12T13:29:38.999Z</time></trkpt><trkpt lat="46.01921859709425" lon="11.893088424411419"><ele>273.57142857142856</ele><time>2026-04-12T13:29:39.999Z</time></trkpt><trkpt lat="46.01920634558239" lon="11.892983565771113"><ele>273.7142857142857</ele><time>2026-04-12T13:29:40.999Z</time></trkpt><trkpt lat="46.019189775712235" lon="11.892867490280278"><ele>273.8571428571429</ele><time>2026-04-12T13:29:41.999Z</time></trkpt><trkpt lat="46.0191742530865" lon="11.892748226450598"><ele>274.0</ele><time>2026-04-12T13:29:42.999Z</time></trkpt><trkpt lat="46.01915613950276" lon="11.89262193751934"><ele>273.59999999999997</ele><time>2026-04-12T13:29:43.999Z</time></trkpt><trkpt lat="46.019138544645" lon="11.892485764819591"><ele>273.2</ele><time>2026-04-12T13:29:44.999Z</time></trkpt><trkpt lat="46.01911886179257" lon="11.892339556150876"><ele>272.79999999999995</ele><time>2026-04-12T13:29:45.999Z</time></trkpt><trkpt lat="46.019100144559296" lon="11.89218767778159"><ele>272.4</ele><time>2026-04-12T13:29:46.999Z</time></trkpt><trkpt lat="46.019080550592584" lon="11.892027473694444"><ele>272.0</ele><time>2026-04-12T13:29:47.999Z</time></trkpt><trkpt lat="46.019061673337305" lon="11.89185981565916"><ele>272.0</ele><time>2026-04-12T13:29:48.999Z</time></trkpt><trkpt lat="46.019046052153314" lon="11.891700957871153"><ele>272.0</ele><time>2026-04-12T13:29:49.999Z</time></trkpt><trkpt lat="46.01902520541481" lon="11.891542217311656"><ele>272.0</ele><time>2026-04-12T13:29:51Z</time></trkpt><trkpt lat="46.019009732242466" lon="11.891379168041135"><ele>272.0</ele><time>2026-04-12T13:29:52Z</time></trkpt><trkpt lat="46.01899239400594" lon="11.891212413140744"><ele>272.0</ele><time>2026-04-12T13:29:53Z</time></trkpt><trkpt lat="46.01897523270407" lon="11.891038162816143"><ele>272.0</ele><time>2026-04-12T13:29:54Z</time></trkpt><trkpt lat="46.01895852594474" lon="11.890854651380232"><ele>272.0</ele><time>2026-04-12T13:29:55Z</time></trkpt><trkpt lat="46.018941764163536" lon="11.890669860726991"><ele>272.0</ele><time>2026-04-12T13:29:56Z</time></trkpt><trkpt lat="46.018925303876145" lon="11.890487783837418"><ele>271.75</ele><time>2026-04-12T13:29:57Z</time></trkpt><trkpt lat="46.01890954119571" lon="11.890312497234294"><ele>271.5</ele><time>2026-04-12T13:29:58Z</time></trkpt><trkpt lat="46.01889239355665" lon="11.890137655787157"><ele>271.25</ele><time>2026-04-12T13:29:59Z</time></trkpt><trkpt lat="46.01887578485172" lon="11.88996274027024"><ele>271.0</ele><time>2026-04-12T13:30:00Z</time></trkpt><trkpt lat="46.01885984647883" lon="11.88978830505154"><ele>271.0</ele><time>2026-04-12T13:30:01Z</time></trkpt><trkpt lat="46.01884005399981" lon="11.889620095252738"><ele>271.0</ele><time>2026-04-12T13:30:02Z</time></trkpt><trkpt lat="46.01882608967027" lon="11.889457292291791"><ele>271.0</ele><time>2026-04-12T13:30:03Z</time></trkpt><trkpt lat="46.01881515419508" lon="11.889307622453392"><ele>271.0</ele><time>2026-04-12T13:30:04Z</time></trkpt><trkpt lat="46.018800050227775" lon="11.889164102108255"><ele>271.0</ele><time>2026-04-12T13:30:05Z</time></trkpt><trkpt lat="46.0187856206122" lon="11.88901323163016"><ele>271.0</ele><time>2026-04-12T13:30:06Z</time></trkpt><trkpt lat="46.018770288139955" lon="11.888860337926246"><ele>271.0</ele><time>2026-04-12T13:30:07Z</time></trkpt><trkpt lat="46.01875435231685" lon="11.888733992373194"><ele>271.0</ele><time>2026-04-12T13:30:08Z</time></trkpt><trkpt lat="46.01873998749445" lon="11.888631169936003"><ele>271.0</ele><time>2026-04-12T13:30:09Z</time></trkpt><trkpt lat="46.018714208389696" lon="11.888498652199456"><ele>271.0</ele><time>2026-04-12T13:30:11Z</time></trkpt><trkpt lat="46.01868185952432" lon="11.88841992380098"><ele>271.0</ele><time>2026-04-12T13:30:13Z</time></trkpt><trkpt lat="46.018637945117874" lon="11.888329298327681"><ele>270.42857142857144</ele><time>2026-04-12T13:30:15Z</time></trkpt><trkpt lat="46.01859960469642" lon="11.88819268201929"><ele>269.8571428571429</ele><time>2026-04-12T13:30:17Z</time></trkpt><trkpt lat="46.01857759644691" lon="11.88810551162126"><ele>269.28571428571433</ele><time>2026-04-12T13:30:18Z</time></trkpt><trkpt lat="46.01853339849114" lon="11.88803859256478"><ele>268.7142857142857</ele><time>2026-04-12T13:30:19Z</time></trkpt><trkpt lat="46.018472733708876" lon="11.887998254554505"><ele>268.14285714285717</ele><time>2026-04-12T13:30:20Z</time></trkpt><trkpt lat="46.01840106607043" lon="11.88800611198693"><ele>267.5714285714286</ele><time>2026-04-12T13:30:21Z</time></trkpt><trkpt lat="46.01833433044546" lon="11.888065821426457"><ele>267.0</ele><time>2026-04-12T13:30:22Z</time></trkpt><trkpt lat="46.01827113378431" lon="11.888166084828216"><ele>267.0</ele><time>2026-04-12T13:30:23Z</time></trkpt><trkpt lat="46.01820195976001" lon="11.888252989473887"><ele>267.0</ele><time>2026-04-12T13:30:24Z</time></trkpt><trkpt lat="46.01809868873783" lon="11.888334880453222"><ele>267.0</ele><time>2026-04-12T13:30:25Z</time></trkpt><trkpt lat="46.01798278438835" lon="11.888397383948927"><ele>267.0</ele><time>2026-04-12T13:30:26Z</time></trkpt><trkpt lat="46.01786254928832" lon="11.888443916191498"><ele>267.5</ele><time>2026-04-12T13:30:27Z</time></trkpt><trkpt lat="46.017729556796134" lon="11.888496085815168"><ele>268.0</ele><time>2026-04-12T13:30:28Z</time></trkpt><trkpt lat="46.01759206922203" lon="11.888554269291888"><ele>268.5</ele><time>2026-04-12T13:30:29Z</time></trkpt><trkpt lat="46.01744719955468" lon="11.888615039426202"><ele>269.0</ele><time>2026-04-12T13:30:30Z</time></trkpt><trkpt lat="46.01729745092416" lon="11.888676191434696"><ele>269.0</ele><time>2026-04-12T13:30:31Z</time></trkpt><trkpt lat="46.017144802406825" lon="11.888740610463113"><ele>269.0</ele><time>2026-04-12T13:30:32Z</time></trkpt><trkpt lat="46.016985778434126" lon="11.888810786243836"><ele>269.0</ele><time>2026-04-12T13:30:33Z</time></trkpt><trkpt lat="46.0168260976709" lon="11.888886836811375"><ele>269.0</ele><time>2026-04-12T13:30:34Z</time></trkpt><trkpt lat="46.01667226277416" lon="11.888952843301194"><ele>269.0</ele><time>2026-04-12T13:30:35Z</time></trkpt><trkpt lat="46.01652136217978" lon="11.889014185293789"><ele>269.0</ele><time>2026-04-12T13:30:36Z</time></trkpt><trkpt lat="46.01638180705315" lon="11.889073033545431"><ele>267.75</ele><time>2026-04-12T13:30:37Z</time></trkpt><trkpt lat="46.01624940269481" lon="11.889135049356927"><ele>266.5</ele><time>2026-04-12T13:30:38Z</time></trkpt><trkpt lat="46.016124614442745" lon="11.889198033238078"><ele>265.25</ele><time>2026-04-12T13:30:39Z</time></trkpt><trkpt lat="46.01599740651265" lon="11.889272503372913"><ele>264.0</ele><time>2026-04-12T13:30:40Z</time></trkpt><trkpt lat="46.01587160661878" lon="11.88934210432878"><ele>264.5</ele><time>2026-04-12T13:30:40.999Z</time></trkpt><trkpt lat="46.01574030993871" lon="11.889412238667507"><ele>265.0</ele><time>2026-04-12T13:30:41.999Z</time></trkpt><trkpt lat="46.01560820873168" lon="11.889482360581743"><ele>265.5</ele><time>2026-04-12T13:30:42.999Z</time></trkpt><trkpt lat="46.01547835580525" lon="11.88954729189799"><ele>266.0</ele><time>2026-04-12T13:30:43.999Z</time></trkpt><trkpt lat="46.01535511106553" lon="11.889611128960432"><ele>266.0</ele><time>2026-04-12T13:30:44.999Z</time></trkpt><trkpt lat="46.01523012265201" lon="11.889680990621281"><ele>266.0</ele><time>2026-04-12T13:30:45.999Z</time></trkpt><trkpt lat="46.0151007256792" lon="11.889747491909883"><ele>266.0</ele><time>2026-04-12T13:30:46.999Z</time></trkpt><trkpt lat="46.01498442506858" lon="11.88980918038796"><ele>266.0</ele><time>2026-04-12T13:30:47.999Z</time></trkpt><trkpt lat="46.014886842059184" lon="11.889866811760466"><ele>266.1666666666667</ele><time>2026-04-12T13:30:48.999Z</time></trkpt><trkpt lat="46.014789466506436" lon="11.889913308260661"><ele>266.33333333333337</ele><time>2026-04-12T13:30:49.999Z</time></trkpt><trkpt lat="46.01470904279925" lon="11.889955352874768"><ele>266.5</ele><time>2026-04-12T13:30:50.999Z</time></trkpt><trkpt lat="46.01463819743607" lon="11.889983622975661"><ele>266.6666666666667</ele><time>2026-04-12T13:30:51.999Z</time></trkpt><trkpt lat="46.01453811107624" lon="11.890035825941535"><ele>266.8333333333333</ele><time>2026-04-12T13:30:53.999Z</time></trkpt><trkpt lat="46.01446732130503" lon="11.890069239414377"><ele>267.0</ele><time>2026-04-12T13:30:56.999Z</time></trkpt><trkpt lat="46.01440064486353" lon="11.890107680631278"><ele>267.0</ele><time>2026-04-12T13:30:58.999Z</time></trkpt><trkpt lat="46.01427802610751" lon="11.890177528202914"><ele>267.0</ele><time>2026-04-12T13:31:00.999Z</time></trkpt><trkpt lat="46.014198432318345" lon="11.890220368653624"><ele>267.0</ele><time>2026-04-12T13:31:01.999Z</time></trkpt><trkpt lat="46.014122598554216" lon="11.890263104876414"><ele>267.0</ele><time>2026-04-12T13:31:02.999Z</time></trkpt><trkpt lat="46.014041684441324" lon="11.8903103120758"><ele>267.0</ele><time>2026-04-12T13:31:03.999Z</time></trkpt><trkpt lat="46.01395753601168" lon="11.890356480985416"><ele>267.0</ele><time>2026-04-12T13:31:04.999Z</time></trkpt><trkpt lat="46.013889797547364" lon="11.890392909197148"><ele>267.0</ele><time>2026-04-12T13:31:05.999Z</time></trkpt><trkpt lat="46.013827281934525" lon="11.890427120667342"><ele>267.0</ele><time>2026-04-12T13:31:06.999Z</time></trkpt><trkpt lat="46.013728921641665" lon="11.89047576495145"><ele>267.0</ele><time>2026-04-12T13:31:08.999Z</time></trkpt><trkpt lat="46.01365166857629" lon="11.890532030452839"><ele>267.0</ele><time>2026-04-12T13:31:10.999Z</time></trkpt><trkpt lat="46.01356606993987" lon="11.890438433668164"><ele>267.0</ele><time>2026-04-12T13:31:11.999Z</time></trkpt><trkpt lat="46.01353770168089" lon="11.890305247642537"><ele>267.0</ele><time>2026-04-12T13:31:12.999Z</time></trkpt><trkpt lat="46.01350301859353" lon="11.89017430018293"><ele>267.0</ele><time>2026-04-12T13:31:13.999Z</time></trkpt><trkpt lat="46.01344847933675" lon="11.890017828210457"><ele>267.0</ele><time>2026-04-12T13:31:14.999Z</time></trkpt><trkpt lat="46.013405350257365" lon="11.889850015160613"><ele>267.0</ele><time>2026-04-12T13:31:15.999Z</time></trkpt><trkpt lat="46.013359388161945" lon="11.889680996562177"><ele>267.0</ele><time>2026-04-12T13:31:16.999Z</time></trkpt><trkpt lat="46.0133121612404" lon="11.889510187555521"><ele>267.0</ele><time>2026-04-12T13:31:17.999Z</time></trkpt><trkpt lat="46.01326337932082" lon="11.88932812159572"><ele>267.0</ele><time>2026-04-12T13:31:18.999Z</time></trkpt><trkpt lat="46.01321329111281" lon="11.889134528972939"><ele>267.0</ele><time>2026-04-12T13:31:19.999Z</time></trkpt><trkpt lat="46.01316159853137" lon="11.88893473538367"><ele>267.3333333333333</ele><time>2026-04-12T13:31:20.999Z</time></trkpt><trkpt lat="46.01310823334444" lon="11.888728477168547"><ele>267.66666666666663</ele><time>2026-04-12T13:31:21.999Z</time></trkpt><trkpt lat="46.013054679895376" lon="11.88852520796328"><ele>268.0</ele><time>2026-04-12T13:31:22.999Z</time></trkpt><trkpt lat="46.01300042461131" lon="11.8883206133994"><ele>268.0</ele><time>2026-04-12T13:31:23.999Z</time></trkpt><trkpt lat="46.01294774326033" lon="11.88811719590833"><ele>268.0</ele><time>2026-04-12T13:31:24.999Z</time></trkpt><trkpt lat="46.012895065672375" lon="11.887913398337613"><ele>268.0</ele><time>2026-04-12T13:31:25.999Z</time></trkpt><trkpt lat="46.01284120185268" lon="11.887705011431333"><ele>268.0</ele><time>2026-04-12T13:31:26.999Z</time></trkpt><trkpt lat="46.01278603050911" lon="11.887491566079115"><ele>268.0</ele><time>2026-04-12T13:31:27.999Z</time></trkpt><trkpt lat="46.01273141438435" lon="11.8872802688594"><ele>268.0</ele><time>2026-04-12T13:31:28.999Z</time></trkpt><trkpt lat="46.012677675669465" lon="11.887073058758277"><ele>268.0</ele><time>2026-04-12T13:31:29.999Z</time></trkpt><trkpt lat="46.012624538301495" lon="11.886868574307794"><ele>268.0</ele><time>2026-04-12T13:31:30.999Z</time></trkpt><trkpt lat="46.01257238271388" lon="11.886667867857076"><ele>268.0</ele><time>2026-04-12T13:31:31.999Z</time></trkpt><trkpt lat="46.01252115341262" lon="11.88647072587096"><ele>268.0</ele><time>2026-04-12T13:31:32.999Z</time></trkpt><trkpt lat="46.012470370839104" lon="11.886275297394647"><ele>268.5</ele><time>2026-04-12T13:31:33.999Z</time></trkpt><trkpt lat="46.012420416271574" lon="11.886084166106784"><ele>269.0</ele><time>2026-04-12T13:31:34.999Z</time></trkpt><trkpt lat="46.01237140833531" lon="11.885896361694922"><ele>269.5</ele><time>2026-04-12T13:31:35.999Z</time></trkpt><trkpt lat="46.01232333510637" lon="11.885710688179955"><ele>270.0</ele><time>2026-04-12T13:31:36.999Z</time></trkpt><trkpt lat="46.01227642515938" lon="11.88552928200866"><ele>270.25</ele><time>2026-04-12T13:31:37.999Z</time></trkpt><trkpt lat="46.012232211270586" lon="11.88535830133099"><ele>270.5</ele><time>2026-04-12T13:31:38.999Z</time></trkpt><trkpt lat="46.012191359177585" lon="11.88520125253313"><ele>270.75</ele><time>2026-04-12T13:31:39.999Z</time></trkpt><trkpt lat="46.01215405639819" lon="11.885055659965856"><ele>271.0</ele><time>2026-04-12T13:31:40.999Z</time></trkpt><trkpt lat="46.01211940481132" lon="11.884921477460448"><ele>271.0</ele><time>2026-04-12T13:31:41.999Z</time></trkpt><trkpt lat="46.01211555901634" lon="11.884794887635048"><ele>271.0</ele><time>2026-04-12T13:31:42.999Z</time></trkpt><trkpt lat="46.012098703174374" lon="11.88470557506811"><ele>271.0</ele><time>2026-04-12T13:31:43.999Z</time></trkpt><trkpt lat="46.01210354738077" lon="11.884537397468645"><ele>271.0</ele><time>2026-04-12T13:31:45.999Z</time></trkpt><trkpt lat="46.01212191000491" lon="11.884447927438082"><ele>271.0</ele><time>2026-04-12T13:31:46.999Z</time></trkpt><trkpt lat="46.01213952921103" lon="11.884345780379661"><ele>271.0</ele><time>2026-04-12T13:31:47.999Z</time></trkpt><trkpt lat="46.01213804141111" lon="11.884234733754075"><ele>271.0</ele><time>2026-04-12T13:31:48.999Z</time></trkpt><trkpt lat="46.012102558368575" lon="11.884144121349422"><ele>271.0</ele><time>2026-04-12T13:31:49.999Z</time></trkpt><trkpt lat="46.01203989168501" lon="11.884090761903481"><ele>271.0</ele><time>2026-04-12T13:31:50.999Z</time></trkpt><trkpt lat="46.01196853782856" lon="11.884086248224744"><ele>271.0</ele><time>2026-04-12T13:31:51.999Z</time></trkpt><trkpt lat="46.011897590347516" lon="11.884093779619775"><ele>271.0</ele><time>2026-04-12T13:31:52.999Z</time></trkpt><trkpt lat="46.01182443883019" lon="11.88409463688435"><ele>271.0</ele><time>2026-04-12T13:31:53.999Z</time></trkpt><trkpt lat="46.01174557942026" lon="11.88408127337937"><ele>271.0</ele><time>2026-04-12T13:31:54.999Z</time></trkpt><trkpt lat="46.011661978704474" lon="11.88402379905882"><ele>271.2</ele><time>2026-04-12T13:31:55.999Z</time></trkpt><trkpt lat="46.01157892575877" lon="11.88394769226244"><ele>271.40000000000003</ele><time>2026-04-12T13:31:57Z</time></trkpt><trkpt lat="46.011488563525525" lon="11.883880457051982"><ele>271.6</ele><time>2026-04-12T13:31:58Z</time></trkpt><trkpt lat="46.01139515429933" lon="11.883856216737584"><ele>271.8</ele><time>2026-04-12T13:31:59Z</time></trkpt><trkpt lat="46.01130316200121" lon="11.883864801714521"><ele>272.0</ele><time>2026-04-12T13:32:00Z</time></trkpt><trkpt lat="46.01120564879943" lon="11.883897813192128"><ele>272.0</ele><time>2026-04-12T13:32:01Z</time></trkpt><trkpt lat="46.011110319100816" lon="11.883961234486293"><ele>272.0</ele><time>2026-04-12T13:32:02Z</time></trkpt><trkpt lat="46.0110215963863" lon="11.88406231516827"><ele>272.0</ele><time>2026-04-12T13:32:03Z</time></trkpt><trkpt lat="46.01094122873604" lon="11.884192482303336"><ele>272.0</ele><time>2026-04-12T13:32:04Z</time></trkpt><trkpt lat="46.01085918929657" lon="11.884325252098296"><ele>272.0</ele><time>2026-04-12T13:32:05Z</time></trkpt><trkpt lat="46.010782202834974" lon="11.884450665891634"><ele>272.0</ele><time>2026-04-12T13:32:06Z</time></trkpt><trkpt lat="46.01070425303505" lon="11.88457596265868"><ele>272.0</ele><time>2026-04-12T13:32:07Z</time></trkpt><trkpt lat="46.01062193378627" lon="11.884700214432389"><ele>272.0</ele><time>2026-04-12T13:32:08Z</time></trkpt><trkpt lat="46.010533478947224" lon="11.88481948219713"><ele>272.0</ele><time>2026-04-12T13:32:09Z</time></trkpt><trkpt lat="46.01044157287245" lon="11.884937324244698"><ele>272.0</ele><time>2026-04-12T13:32:10Z</time></trkpt><trkpt lat="46.01035405759811" lon="11.885045357699976"><ele>272.0</ele><time>2026-04-12T13:32:11Z</time></trkpt><trkpt lat="46.010275744717525" lon="11.885141320116494"><ele>272.0</ele><time>2026-04-12T13:32:12Z</time></trkpt><trkpt lat="46.01019829291804" lon="11.885216262400895"><ele>272.0</ele><time>2026-04-12T13:32:13Z</time></trkpt><trkpt lat="46.01013496044203" lon="11.885297782841599"><ele>272.0</ele><time>2026-04-12T13:32:14Z</time></trkpt><trkpt lat="46.01006134261396" lon="11.88535879232001"><ele>272.0</ele><time>2026-04-12T13:32:15Z</time></trkpt><trkpt lat="46.00998966363085" lon="11.885421700361706"><ele>272.0</ele><time>2026-04-12T13:32:16Z</time></trkpt><trkpt lat="46.00988159935866" lon="11.885379370699246"><ele>272.0</ele><time>2026-04-12T13:32:17Z</time></trkpt><trkpt lat="46.009798675021294" lon="11.885321730182621"><ele>272.0</ele><time>2026-04-12T13:32:18Z</time></trkpt><trkpt lat="46.009725632715245" lon="11.885224192126998"><ele>272.0</ele><time>2026-04-12T13:32:19Z</time></trkpt><trkpt lat="46.00966430453013" lon="11.885100255708045"><ele>272.0</ele><time>2026-04-12T13:32:20Z</time></trkpt><trkpt lat="46.0096264881212" lon="11.884942475552997"><ele>272.0</ele><time>2026-04-12T13:32:21Z</time></trkpt><trkpt lat="46.0095961525962" lon="11.884752004505742"><ele>272.0</ele><time>2026-04-12T13:32:22Z</time></trkpt><trkpt lat="46.00955064112031" lon="11.884555036740442"><ele>272.33333333333337</ele><time>2026-04-12T13:32:23Z</time></trkpt><trkpt lat="46.00949547276404" lon="11.88434489621294"><ele>272.6666666666667</ele><time>2026-04-12T13:32:24Z</time></trkpt><trkpt lat="46.00942459200752" lon="11.884124043964595"><ele>273.0</ele><time>2026-04-12T13:32:25Z</time></trkpt><trkpt lat="46.009382239168396" lon="11.883907112457383"><ele>272.6666666666667</ele><time>2026-04-12T13:32:26Z</time></trkpt><trkpt lat="46.009305277706915" lon="11.8837010719305"><ele>272.33333333333337</ele><time>2026-04-12T13:32:27Z</time></trkpt><trkpt lat="46.00925413296595" lon="11.883471956654407"><ele>272.0</ele><time>2026-04-12T13:32:28Z</time></trkpt><trkpt lat="46.00918065316442" lon="11.883253815595875"><ele>272.25</ele><time>2026-04-12T13:32:29Z</time></trkpt><trkpt lat="46.00911281922201" lon="11.88304429094894"><ele>272.5</ele><time>2026-04-12T13:32:30Z</time></trkpt><trkpt lat="46.009043217438375" lon="11.882890978954164"><ele>272.75</ele><time>2026-04-12T13:32:31Z</time></trkpt><trkpt lat="46.008982737346415" lon="11.882777937056813"><ele>273.0</ele><time>2026-04-12T13:32:32Z</time></trkpt><trkpt lat="46.008994586017835" lon="11.882605105574717"><ele>273.2857142857143</ele><time>2026-04-12T13:32:33Z</time></trkpt><trkpt lat="46.008968458144615" lon="11.882506260068547"><ele>273.57142857142856</ele><time>2026-04-12T13:32:34Z</time></trkpt><trkpt lat="46.00893203307215" lon="11.882386904084585"><ele>273.8571428571429</ele><time>2026-04-12T13:32:36Z</time></trkpt><trkpt lat="46.00890453424093" lon="11.882301607523267"><ele>274.1428571428571</ele><time>2026-04-12T13:34:08Z</time></trkpt><trkpt lat="46.00888089546803" lon="11.882205612496467"><ele>274.42857142857144</ele><time>2026-04-12T13:40:39Z</time></trkpt><trkpt lat="46.0088448192159" lon="11.882114881867832"><ele>274.7142857142857</ele><time>2026-04-12T13:40:43Z</time></trkpt><trkpt lat="46.008812141125006" lon="11.88201638028096"><ele>275.0</ele><time>2026-04-12T13:40:45Z</time></trkpt><trkpt lat="46.008760194999404" lon="11.881885840623706"><ele>275.0</ele><time>2026-04-12T13:40:48Z</time></trkpt><trkpt lat="46.00872417307124" lon="11.881793431326896"><ele>275.0</ele><time>2026-04-12T13:40:49Z</time></trkpt><trkpt lat="46.00868564487849" lon="11.881688260740539"><ele>275.0</ele><time>2026-04-12T13:40:50Z</time></trkpt><trkpt lat="46.00864970802592" lon="11.881582757715062"><ele>275.0</ele><time>2026-04-12T13:40:51Z</time></trkpt><trkpt lat="46.00860308218926" lon="11.881449278991283"><ele>275.0</ele><time>2026-04-12T13:40:52Z</time></trkpt><trkpt lat="46.00855938328822" lon="11.881299469086137"><ele>275.0</ele><time>2026-04-12T13:40:53Z</time></trkpt><trkpt lat="46.00851085777793" lon="11.881142537099933"><ele>275.0</ele><time>2026-04-12T13:40:54Z</time></trkpt><trkpt lat="46.00845470521167" lon="11.880972500298144"><ele>275.0</ele><time>2026-04-12T13:40:55Z</time></trkpt><trkpt lat="46.008399192181436" lon="11.880776371010034"><ele>275.0</ele><time>2026-04-12T13:40:56Z</time></trkpt><trkpt lat="46.00833295565563" lon="11.880578167372503"><ele>274.6666666666667</ele><time>2026-04-12T13:40:57Z</time></trkpt><trkpt lat="46.008272241856496" lon="11.880379878179815"><ele>274.3333333333333</ele><time>2026-04-12T13:40:58Z</time></trkpt><trkpt lat="46.00821399715444" lon="11.880175919828513"><ele>274.0</ele><time>2026-04-12T13:40:59Z</time></trkpt><trkpt lat="46.0081527009855" lon="11.879969841851143"><ele>274.66666666666663</ele><time>2026-04-12T13:41:00Z</time></trkpt><trkpt lat="46.008085017686625" lon="11.879762427684499"><ele>275.3333333333333</ele><time>2026-04-12T13:41:01Z</time></trkpt><trkpt lat="46.008014626992114" lon="11.879541477757225"><ele>276.0</ele><time>2026-04-12T13:41:02Z</time></trkpt><trkpt lat="46.0079457582026" lon="11.879301386126633"><ele>276.3333333333333</ele><time>2026-04-12T13:41:03Z</time></trkpt><trkpt lat="46.00787286713521" lon="11.879060282874201"><ele>276.66666666666663</ele><time>2026-04-12T13:41:04Z</time></trkpt><trkpt lat="46.00779547560011" lon="11.878806834142535"><ele>277.0</ele><time>2026-04-12T13:41:05Z</time></trkpt><trkpt lat="46.00771591565894" lon="11.878553618884512"><ele>277.66666666666663</ele><time>2026-04-12T13:41:06Z</time></trkpt><trkpt lat="46.00763413416024" lon="11.878289977090532"><ele>278.3333333333333</ele><time>2026-04-12T13:41:07Z</time></trkpt><trkpt lat="46.00757097790394" lon="11.878005994419077"><ele>279.0</ele><time>2026-04-12T13:41:08Z</time></trkpt><trkpt lat="46.00750928942373" lon="11.877728610851069"><ele>279.3333333333333</ele><time>2026-04-12T13:41:09Z</time></trkpt><trkpt lat="46.00745335501238" lon="11.877440656868096"><ele>279.66666666666663</ele><time>2026-04-12T13:41:10Z</time></trkpt><trkpt lat="46.00740463962795" lon="11.877146579195319"><ele>280.0</ele><time>2026-04-12T13:41:11Z</time></trkpt><trkpt lat="46.00736883158615" lon="11.876852195915784"><ele>281.3333333333333</ele><time>2026-04-12T13:41:12Z</time></trkpt><trkpt lat="46.007338522591645" lon="11.876545997041665"><ele>282.6666666666667</ele><time>2026-04-12T13:41:13Z</time></trkpt><trkpt lat="46.00732216246724" lon="11.87624071325565"><ele>284.0</ele><time>2026-04-12T13:41:14Z</time></trkpt><trkpt lat="46.00731151422719" lon="11.875935641793806"><ele>284.6666666666667</ele><time>2026-04-12T13:41:15Z</time></trkpt><trkpt lat="46.00731162562655" lon="11.875625147454933"><ele>285.3333333333333</ele><time>2026-04-12T13:41:16Z</time></trkpt><trkpt lat="46.00732243455432" lon="11.8753193754097"><ele>286.0</ele><time>2026-04-12T13:41:17Z</time></trkpt><trkpt lat="46.00733201018277" lon="11.875007971029781"><ele>286.0</ele><time>2026-04-12T13:41:18Z</time></trkpt><trkpt lat="46.00733999247922" lon="11.874692543882743"><ele>286.0</ele><time>2026-04-12T13:41:19Z</time></trkpt><trkpt lat="46.00734222092436" lon="11.87437061813623"><ele>286.0</ele><time>2026-04-12T13:41:20Z</time></trkpt><trkpt lat="46.007342124050346" lon="11.874045543342296"><ele>285.0</ele><time>2026-04-12T13:41:21Z</time></trkpt><trkpt lat="46.007335592799784" lon="11.873721229702948"><ele>284.0</ele><time>2026-04-12T13:41:21.999Z</time></trkpt><trkpt lat="46.00731438209353" lon="11.873391560124446"><ele>284.0</ele><time>2026-04-12T13:41:22.999Z</time></trkpt><trkpt lat="46.007282801725495" lon="11.873068645278844"><ele>284.0</ele><time>2026-04-12T13:41:23.999Z</time></trkpt><trkpt lat="46.00724235912931" lon="11.872751835294311"><ele>284.6666666666667</ele><time>2026-04-12T13:41:24.999Z</time></trkpt><trkpt lat="46.0071870382233" lon="11.872457088532343"><ele>285.3333333333333</ele><time>2026-04-12T13:41:25.999Z</time></trkpt><trkpt lat="46.007132661983434" lon="11.872153358375332"><ele>286.0</ele><time>2026-04-12T13:41:26.999Z</time></trkpt><trkpt lat="46.007073946861986" lon="11.87186502321169"><ele>286.66666666666663</ele><time>2026-04-12T13:41:27.999Z</time></trkpt><trkpt lat="46.0069975407034" lon="11.871578186120393"><ele>287.3333333333333</ele><time>2026-04-12T13:41:28.999Z</time></trkpt><trkpt lat="46.006923484247466" lon="11.871292012814045"><ele>288.0</ele><time>2026-04-12T13:41:29.999Z</time></trkpt><trkpt lat="46.00685494814147" lon="11.870999497048679"><ele>288.3333333333333</ele><time>2026-04-12T13:41:30.999Z</time></trkpt><trkpt lat="46.006781100219015" lon="11.870710605078502"><ele>288.66666666666663</ele><time>2026-04-12T13:41:31.999Z</time></trkpt><trkpt lat="46.00671191529062" lon="11.870424573383083"><ele>289.0</ele><time>2026-04-12T13:41:32.999Z</time></trkpt><trkpt lat="46.00663905762621" lon="11.870129873654006"><ele>290.3333333333333</ele><time>2026-04-12T13:41:33.999Z</time></trkpt><trkpt lat="46.00656665679798" lon="11.869831900203446"><ele>291.6666666666667</ele><time>2026-04-12T13:41:34.999Z</time></trkpt><trkpt lat="46.00649472755191" lon="11.869531667847655"><ele>293.0</ele><time>2026-04-12T13:41:35.999Z</time></trkpt><trkpt lat="46.00642687478715" lon="11.869223950784518"><ele>293.33333333333337</ele><time>2026-04-12T13:41:36.999Z</time></trkpt><trkpt lat="46.00636048873081" lon="11.86891598810584"><ele>293.6666666666667</ele><time>2026-04-12T13:41:37.999Z</time></trkpt><trkpt lat="46.00629174750053" lon="11.868610427620107"><ele>294.0</ele><time>2026-04-12T13:41:38.999Z</time></trkpt><trkpt lat="46.00622289794982" lon="11.868300616088227"><ele>294.0</ele><time>2026-04-12T13:41:39.999Z</time></trkpt><trkpt lat="46.00615264355776" lon="11.867979508551416"><ele>294.0</ele><time>2026-04-12T13:41:40.999Z</time></trkpt><trkpt lat="46.00608670393519" lon="11.867655348583185"><ele>294.0</ele><time>2026-04-12T13:41:41.999Z</time></trkpt><trkpt lat="46.00601540277988" lon="11.867335871765698"><ele>294.0</ele><time>2026-04-12T13:41:42.999Z</time></trkpt><trkpt lat="46.00594924538976" lon="11.86701402182543"><ele>293.5</ele><time>2026-04-12T13:41:43.999Z</time></trkpt><trkpt lat="46.00588084440208" lon="11.866697114166252"><ele>293.0</ele><time>2026-04-12T13:41:44.999Z</time></trkpt><trkpt lat="46.005811974805226" lon="11.866375632836636"><ele>295.0</ele><time>2026-04-12T13:41:45.999Z</time></trkpt><trkpt lat="46.005747999593524" lon="11.8660545637564"><ele>297.0</ele><time>2026-04-12T13:41:46.999Z</time></trkpt><trkpt lat="46.00568130564234" lon="11.865732642230737"><ele>298.5</ele><time>2026-04-12T13:41:47.999Z</time></trkpt><trkpt lat="46.005611334429794" lon="11.865410307955496"><ele>300.0</ele><time>2026-04-12T13:41:48.999Z</time></trkpt><trkpt lat="46.00554686027514" lon="11.865082136513811"><ele>300.0</ele><time>2026-04-12T13:41:49.999Z</time></trkpt><trkpt lat="46.005477560090185" lon="11.864749665051823"><ele>300.0</ele><time>2026-04-12T13:41:50.999Z</time></trkpt><trkpt lat="46.00541200408511" lon="11.864418961726443"><ele>301.5</ele><time>2026-04-12T13:41:51.999Z</time></trkpt><trkpt lat="46.00534650299817" lon="11.864086460860548"><ele>303.0</ele><time>2026-04-12T13:41:52.999Z</time></trkpt><trkpt lat="46.00527404714494" lon="11.86375885885373"><ele>303.0</ele><time>2026-04-12T13:41:53.999Z</time></trkpt><trkpt lat="46.00520579014468" lon="11.863436409436224"><ele>303.0</ele><time>2026-04-12T13:41:54.999Z</time></trkpt><trkpt lat="46.00513879348507" lon="11.863111811146911"><ele>303.0</ele><time>2026-04-12T13:41:55.999Z</time></trkpt><trkpt lat="46.00507167367787" lon="11.86279015438232"><ele>303.0</ele><time>2026-04-12T13:41:56.999Z</time></trkpt><trkpt lat="46.005005415867885" lon="11.862463475681658"><ele>304.0</ele><time>2026-04-12T13:41:57.999Z</time></trkpt><trkpt lat="46.00493370464185" lon="11.862142768676565"><ele>305.0</ele><time>2026-04-12T13:41:58.999Z</time></trkpt><trkpt lat="46.00487071858825" lon="11.86182615992342"><ele>303.5</ele><time>2026-04-12T13:41:59.999Z</time></trkpt><trkpt lat="46.004799598079195" lon="11.861512486862711"><ele>302.0</ele><time>2026-04-12T13:42:00.999Z</time></trkpt><trkpt lat="46.004734299401115" lon="11.86119045367863"><ele>302.5</ele><time>2026-04-12T13:42:01.999Z</time></trkpt><trkpt lat="46.00466955995484" lon="11.860873670136685"><ele>303.0</ele><time>2026-04-12T13:42:02.999Z</time></trkpt><trkpt lat="46.004606828780986" lon="11.860566034518936"><ele>303.0</ele><time>2026-04-12T13:42:03.999Z</time></trkpt><trkpt lat="46.004538887965595" lon="11.860258520591579"><ele>303.0</ele><time>2026-04-12T13:42:04.999Z</time></trkpt><trkpt lat="46.00447854694054" lon="11.859942107602741"><ele>303.3333333333333</ele><time>2026-04-12T13:42:05.999Z</time></trkpt><trkpt lat="46.00441315312312" lon="11.859643919326043"><ele>303.66666666666663</ele><time>2026-04-12T13:42:06.999Z</time></trkpt><trkpt lat="46.00435052521662" lon="11.859334909106234"><ele>304.0</ele><time>2026-04-12T13:42:07.999Z</time></trkpt><trkpt lat="46.0042870842297" lon="11.859033657305849"><ele>304.0</ele><time>2026-04-12T13:42:08.999Z</time></trkpt><trkpt lat="46.004219063065925" lon="11.858742258537294"><ele>304.0</ele><time>2026-04-12T13:42:09.999Z</time></trkpt><trkpt lat="46.00415772538154" lon="11.85844418078124"><ele>304.0</ele><time>2026-04-12T13:42:10.999Z</time></trkpt><trkpt lat="46.00409205074635" lon="11.858151080880505"><ele>304.0</ele><time>2026-04-12T13:42:11.999Z</time></trkpt><trkpt lat="46.00402869711715" lon="11.857866508310881"><ele>304.0</ele><time>2026-04-12T13:42:12.999Z</time></trkpt><trkpt lat="46.00396676780328" lon="11.857580094837429"><ele>304.0</ele><time>2026-04-12T13:42:13.999Z</time></trkpt><trkpt lat="46.0038984624024" lon="11.857298972029856"><ele>304.0</ele><time>2026-04-12T13:42:14.999Z</time></trkpt><trkpt lat="46.00383253893954" lon="11.857019587896293"><ele>304.0</ele><time>2026-04-12T13:42:15.999Z</time></trkpt><trkpt lat="46.003767077368835" lon="11.85672975937843"><ele>304.0</ele><time>2026-04-12T13:42:16.999Z</time></trkpt><trkpt lat="46.003695892102996" lon="11.856465086698552"><ele>304.0</ele><time>2026-04-12T13:42:17.999Z</time></trkpt><trkpt lat="46.00363538083994" lon="11.85617876982544"><ele>304.0</ele><time>2026-04-12T13:42:18.999Z</time></trkpt><trkpt lat="46.00356932754926" lon="11.855896572849751"><ele>304.0</ele><time>2026-04-12T13:42:19.999Z</time></trkpt><trkpt lat="46.003502729967835" lon="11.855619773610352"><ele>304.0</ele><time>2026-04-12T13:42:20.999Z</time></trkpt><trkpt lat="46.003429437348586" lon="11.855345608767328"><ele>304.0</ele><time>2026-04-12T13:42:21.999Z</time></trkpt><trkpt lat="46.00336380694218" lon="11.855064625225706"><ele>304.0</ele><time>2026-04-12T13:42:22.999Z</time></trkpt><trkpt lat="46.00329946744391" lon="11.854774439201735"><ele>304.0</ele><time>2026-04-12T13:42:23.999Z</time></trkpt><trkpt lat="46.00322923888046" lon="11.854480825283591"><ele>304.0</ele><time>2026-04-12T13:42:24.999Z</time></trkpt><trkpt lat="46.00315396320241" lon="11.854188946263783"><ele>304.0</ele><time>2026-04-12T13:42:25.999Z</time></trkpt><trkpt lat="46.00308174967934" lon="11.85388579940199"><ele>304.5</ele><time>2026-04-12T13:42:27Z</time></trkpt><trkpt lat="46.0030080156642" lon="11.853576890621087"><ele>305.0</ele><time>2026-04-12T13:42:28Z</time></trkpt><trkpt lat="46.00293559823589" lon="11.85327213832201"><ele>305.0</ele><time>2026-04-12T13:42:29Z</time></trkpt><trkpt lat="46.002860410688854" lon="11.852964170318955"><ele>305.0</ele><time>2026-04-12T13:42:30Z</time></trkpt><trkpt lat="46.002785027285874" lon="11.852666295696068"><ele>305.0</ele><time>2026-04-12T13:42:31Z</time></trkpt><trkpt lat="46.002710494833764" lon="11.85235312949369"><ele>306.0</ele><time>2026-04-12T13:42:32Z</time></trkpt><trkpt lat="46.002634366640535" lon="11.852045409034298"><ele>307.0</ele><time>2026-04-12T13:42:33Z</time></trkpt><trkpt lat="46.002555849462745" lon="11.851735487175926"><ele>308.0</ele><time>2026-04-12T13:42:34Z</time></trkpt><trkpt lat="46.00248507066645" lon="11.851418807589312"><ele>309.0</ele><time>2026-04-12T13:42:35Z</time></trkpt><trkpt lat="46.002408316362285" lon="11.851103396799969"><ele>310.5</ele><time>2026-04-12T13:42:36Z</time></trkpt><trkpt lat="46.002334419318665" lon="11.850790017942522"><ele>312.0</ele><time>2026-04-12T13:42:37Z</time></trkpt><trkpt lat="46.002257082049695" lon="11.850469970838626"><ele>312.0</ele><time>2026-04-12T13:42:38Z</time></trkpt><trkpt lat="46.00217944985353" lon="11.850157184600718"><ele>312.0</ele><time>2026-04-12T13:42:39Z</time></trkpt><trkpt lat="46.002104696527034" lon="11.849841453159462"><ele>312.0</ele><time>2026-04-12T13:42:40Z</time></trkpt><trkpt lat="46.00202897792364" lon="11.849527486443462"><ele>312.0</ele><time>2026-04-12T13:42:41Z</time></trkpt><trkpt lat="46.00195162379653" lon="11.849216091845"><ele>312.0</ele><time>2026-04-12T13:42:42Z</time></trkpt><trkpt lat="46.00187658746609" lon="11.848901620735981"><ele>312.0</ele><time>2026-04-12T13:42:43Z</time></trkpt><trkpt lat="46.00180396649406" lon="11.848588493250766"><ele>313.5</ele><time>2026-04-12T13:42:44Z</time></trkpt><trkpt lat="46.00172623809414" lon="11.848275827259505"><ele>315.0</ele><time>2026-04-12T13:42:45Z</time></trkpt><trkpt lat="46.001650142153736" lon="11.847965652123781"><ele>317.0</ele><time>2026-04-12T13:42:46Z</time></trkpt><trkpt lat="46.001572612779576" lon="11.847657740014231"><ele>319.0</ele><time>2026-04-12T13:42:47Z</time></trkpt><trkpt lat="46.00149630621126" lon="11.84734772878291"><ele>319.5</ele><time>2026-04-12T13:42:48Z</time></trkpt><trkpt lat="46.00142252036892" lon="11.847037468054936"><ele>320.0</ele><time>2026-04-12T13:42:49Z</time></trkpt><trkpt lat="46.00135150351864" lon="11.846726042407752"><ele>318.5</ele><time>2026-04-12T13:42:50Z</time></trkpt><trkpt lat="46.00128273786708" lon="11.846411929712389"><ele>317.0</ele><time>2026-04-12T13:42:51Z</time></trkpt><trkpt lat="46.001218773961334" lon="11.846100439928623"><ele>319.0</ele><time>2026-04-12T13:42:52Z</time></trkpt><trkpt lat="46.00116230401859" lon="11.845783827444066"><ele>321.0</ele><time>2026-04-12T13:42:53Z</time></trkpt><trkpt lat="46.00111001734514" lon="11.84545664493132"><ele>322.0</ele><time>2026-04-12T13:42:54Z</time></trkpt><trkpt lat="46.00106507470966" lon="11.845116346756368"><ele>323.0</ele><time>2026-04-12T13:42:55Z</time></trkpt><trkpt lat="46.001023112989955" lon="11.84477671241523"><ele>323.0</ele><time>2026-04-12T13:42:56Z</time></trkpt><trkpt lat="46.00098519346445" lon="11.844434904668491"><ele>323.0</ele><time>2026-04-12T13:42:57Z</time></trkpt><trkpt lat="46.00096283062448" lon="11.844076306698"><ele>322.0</ele><time>2026-04-12T13:42:58Z</time></trkpt><trkpt lat="46.00094722327689" lon="11.843713775779413"><ele>321.0</ele><time>2026-04-12T13:42:59Z</time></trkpt><trkpt lat="46.00094054601982" lon="11.843347172899286"><ele>321.0</ele><time>2026-04-12T13:43:00Z</time></trkpt><trkpt lat="46.00093914651429" lon="11.84298038571925"><ele>321.0</ele><time>2026-04-12T13:43:01Z</time></trkpt><trkpt lat="46.00094381174025" lon="11.842616920274303"><ele>321.0</ele><time>2026-04-12T13:43:02Z</time></trkpt><trkpt lat="46.000966454946514" lon="11.842249676089802"><ele>321.0</ele><time>2026-04-12T13:43:03Z</time></trkpt><trkpt lat="46.000996730362324" lon="11.841889478545438"><ele>321.5</ele><time>2026-04-12T13:43:04Z</time></trkpt><trkpt lat="46.001038090663066" lon="11.841528187026592"><ele>322.0</ele><time>2026-04-12T13:43:05Z</time></trkpt><trkpt lat="46.00108762525539" lon="11.841164274760096"><ele>321.5</ele><time>2026-04-12T13:43:06Z</time></trkpt><trkpt lat="46.00114674550302" lon="11.840803465231073"><ele>321.0</ele><time>2026-04-12T13:43:07Z</time></trkpt><trkpt lat="46.001212539792036" lon="11.840443871417413"><ele>321.5</ele><time>2026-04-12T13:43:08Z</time></trkpt><trkpt lat="46.00128832810034" lon="11.840087989163113"><ele>322.0</ele><time>2026-04-12T13:43:09Z</time></trkpt><trkpt lat="46.001368798498014" lon="11.839737582691194"><ele>322.0</ele><time>2026-04-12T13:43:10Z</time></trkpt><trkpt lat="46.00145285177446" lon="11.839410481173024"><ele>322.0</ele><time>2026-04-12T13:43:11Z</time></trkpt><trkpt lat="46.001536525230286" lon="11.839109213281043"><ele>322.3333333333333</ele><time>2026-04-12T13:43:12Z</time></trkpt><trkpt lat="46.00162007983043" lon="11.838821006879344"><ele>322.6666666666667</ele><time>2026-04-12T13:43:13Z</time></trkpt><trkpt lat="46.00169391055718" lon="11.838549473367156"><ele>323.0</ele><time>2026-04-12T13:43:14Z</time></trkpt><trkpt lat="46.00177051874363" lon="11.83829185740496"><ele>322.33333333333337</ele><time>2026-04-12T13:43:15Z</time></trkpt><trkpt lat="46.00184160739613" lon="11.83805675295796"><ele>321.6666666666667</ele><time>2026-04-12T13:43:16Z</time></trkpt><trkpt lat="46.00191631628697" lon="11.837828406896293"><ele>321.0</ele><time>2026-04-12T13:43:17Z</time></trkpt><trkpt lat="46.00199066007894" lon="11.837614841531698"><ele>320.75</ele><time>2026-04-12T13:43:18Z</time></trkpt><trkpt lat="46.00206070640214" lon="11.837425686923304"><ele>320.5</ele><time>2026-04-12T13:43:19Z</time></trkpt><trkpt lat="46.00212133215644" lon="11.837263666046352"><ele>320.25</ele><time>2026-04-12T13:43:20Z</time></trkpt><trkpt lat="46.00218747676285" lon="11.837124057973428"><ele>320.0</ele><time>2026-04-12T13:43:21Z</time></trkpt><trkpt lat="46.00227383774293" lon="11.837017471851917"><ele>320.0</ele><time>2026-04-12T13:43:22Z</time></trkpt><trkpt lat="46.00237438348142" lon="11.836962220238922"><ele>320.0</ele><time>2026-04-12T13:43:23Z</time></trkpt><trkpt lat="46.0024696615456" lon="11.83691438473255"><ele>320.0</ele><time>2026-04-12T13:43:24Z</time></trkpt><trkpt lat="46.002546568555466" lon="11.836805549255162"><ele>320.0</ele><time>2026-04-12T13:43:24.999Z</time></trkpt><trkpt lat="46.00258371175234" lon="11.836664680971715"><ele>320.0</ele><time>2026-04-12T13:43:25.999Z</time></trkpt><trkpt lat="46.00256496826566" lon="11.836486429320807"><ele>320.0</ele><time>2026-04-12T13:43:26.999Z</time></trkpt><trkpt lat="46.00251350116598" lon="11.83629900006376"><ele>320.0</ele><time>2026-04-12T13:43:27.999Z</time></trkpt><trkpt lat="46.00243087818479" lon="11.836088645732469"><ele>320.0</ele><time>2026-04-12T13:43:28.999Z</time></trkpt><trkpt lat="46.00237542515518" lon="11.835854164709163"><ele>320.0</ele><time>2026-04-12T13:43:29.999Z</time></trkpt><trkpt lat="46.00233820917584" lon="11.835591003125074"><ele>320.0</ele><time>2026-04-12T13:43:30.999Z</time></trkpt><trkpt lat="46.00231108011707" lon="11.835318706937663"><ele>320.0</ele><time>2026-04-12T13:43:31.999Z</time></trkpt><trkpt lat="46.002294921225236" lon="11.835034165701472"><ele>319.33333333333337</ele><time>2026-04-12T13:43:32.999Z</time></trkpt><trkpt lat="46.002287066468035" lon="11.834737217711464"><ele>318.6666666666667</ele><time>2026-04-12T13:43:33.999Z</time></trkpt><trkpt lat="46.00227613212219" lon="11.834438505252919"><ele>318.0</ele><time>2026-04-12T13:43:34.999Z</time></trkpt><trkpt lat="46.00227209800708" lon="11.834127859520052"><ele>318.0</ele><time>2026-04-12T13:43:35.999Z</time></trkpt><trkpt lat="46.002271881182324" lon="11.833812647396059"><ele>318.0</ele><time>2026-04-12T13:43:36.999Z</time></trkpt><trkpt lat="46.00226830866722" lon="11.833499091051802"><ele>318.0</ele><time>2026-04-12T13:43:37.999Z</time></trkpt><trkpt lat="46.00225846057929" lon="11.83321102998256"><ele>318.0</ele><time>2026-04-12T13:43:38.999Z</time></trkpt><trkpt lat="46.002254544157246" lon="11.832944395086262"><ele>318.0</ele><time>2026-04-12T13:43:39.999Z</time></trkpt><trkpt lat="46.00225274399039" lon="11.832696633681058"><ele>318.0</ele><time>2026-04-12T13:43:40.999Z</time></trkpt><trkpt lat="46.00225723574094" lon="11.832467512818281"><ele>318.0</ele><time>2026-04-12T13:43:41.999Z</time></trkpt><trkpt lat="46.002251314451655" lon="11.832250675361765"><ele>318.0</ele><time>2026-04-12T13:43:42.999Z</time></trkpt><trkpt lat="46.00224533881142" lon="11.832038726791204"><ele>318.0</ele><time>2026-04-12T13:43:43.999Z</time></trkpt><trkpt lat="46.00223893493741" lon="11.831820764830967"><ele>317.6666666666667</ele><time>2026-04-12T13:43:44.999Z</time></trkpt><trkpt lat="46.002234879752976" lon="11.831588628415188"><ele>317.33333333333337</ele><time>2026-04-12T13:43:45.999Z</time></trkpt><trkpt lat="46.002232818783035" lon="11.831344716355963"><ele>317.0</ele><time>2026-04-12T13:43:46.999Z</time></trkpt><trkpt lat="46.00222101928688" lon="11.831081486741164"><ele>317.33333333333337</ele><time>2026-04-12T13:43:47.999Z</time></trkpt><trkpt lat="46.00220615553815" lon="11.83078810303797"><ele>317.6666666666667</ele><time>2026-04-12T13:43:48.999Z</time></trkpt><trkpt lat="46.002199585094715" lon="11.830481974570246"><ele>318.0</ele><time>2026-04-12T13:43:49.999Z</time></trkpt><trkpt lat="46.00219448509538" lon="11.83016596009299"><ele>317.0</ele><time>2026-04-12T13:43:50.999Z</time></trkpt><trkpt lat="46.002195534677945" lon="11.82984247334124"><ele>316.0</ele><time>2026-04-12T13:43:51.999Z</time></trkpt><trkpt lat="46.0021897081856" lon="11.829503959781187"><ele>315.0</ele><time>2026-04-12T13:43:52.999Z</time></trkpt><trkpt lat="46.00218272983941" lon="11.829151720611005"><ele>314.0</ele><time>2026-04-12T13:43:53.999Z</time></trkpt><trkpt lat="46.002179539893206" lon="11.828787692778306"><ele>314.0</ele><time>2026-04-12T13:43:54.999Z</time></trkpt><trkpt lat="46.00218748668728" lon="11.828420991439234"><ele>314.0</ele><time>2026-04-12T13:43:55.999Z</time></trkpt><trkpt lat="46.00220165704467" lon="11.828041716479982"><ele>314.0</ele><time>2026-04-12T13:43:56.999Z</time></trkpt><trkpt lat="46.00222121114284" lon="11.827661591200533"><ele>314.0</ele><time>2026-04-12T13:43:57.999Z</time></trkpt><trkpt lat="46.002168001883966" lon="11.8272899217122"><ele>314.5</ele><time>2026-04-12T13:43:58.999Z</time></trkpt><trkpt lat="46.00216041298897" lon="11.826897206507438"><ele>315.0</ele><time>2026-04-12T13:43:59.999Z</time></trkpt><trkpt lat="46.002152453201084" lon="11.82650531825294"><ele>315.5</ele><time>2026-04-12T13:44:00.999Z</time></trkpt><trkpt lat="46.00214624502013" lon="11.826113099644163"><ele>316.0</ele><time>2026-04-12T13:44:01.999Z</time></trkpt><trkpt lat="46.0021392132333" lon="11.825720706132095"><ele>315.0</ele><time>2026-04-12T13:44:02.999Z</time></trkpt><trkpt lat="46.00213188183545" lon="11.825331847077308"><ele>314.0</ele><time>2026-04-12T13:44:03.999Z</time></trkpt><trkpt lat="46.00212863735422" lon="11.824943246519698"><ele>313.5</ele><time>2026-04-12T13:44:04.999Z</time></trkpt><trkpt lat="46.00212525520812" lon="11.824552892182105"><ele>313.0</ele><time>2026-04-12T13:44:05.999Z</time></trkpt><trkpt lat="46.00211808924605" lon="11.82415976517165"><ele>312.0</ele><time>2026-04-12T13:44:06.999Z</time></trkpt><trkpt lat="46.00211130106903" lon="11.823772654198311"><ele>311.0</ele><time>2026-04-12T13:44:07.999Z</time></trkpt><trkpt lat="46.0021056349503" lon="11.823388455119478"><ele>310.0</ele><time>2026-04-12T13:44:08.999Z</time></trkpt><trkpt lat="46.002098589820385" lon="11.82300260749443"><ele>309.0</ele><time>2026-04-12T13:44:09.999Z</time></trkpt><trkpt lat="46.002091969058" lon="11.82262646004266"><ele>309.0</ele><time>2026-04-12T13:44:10.999Z</time></trkpt><trkpt lat="46.0020860783778" lon="11.822250970901761"><ele>309.0</ele><time>2026-04-12T13:44:11.999Z</time></trkpt><trkpt lat="46.00207828718184" lon="11.821874063236658"><ele>308.5</ele><time>2026-04-12T13:44:12.999Z</time></trkpt><trkpt lat="46.00207438111786" lon="11.821498008227872"><ele>308.0</ele><time>2026-04-12T13:44:13.999Z</time></trkpt><trkpt lat="46.00206903667663" lon="11.82112557254257"><ele>307.0</ele><time>2026-04-12T13:44:14.999Z</time></trkpt><trkpt lat="46.00206546021994" lon="11.820757852957739"><ele>306.0</ele><time>2026-04-12T13:44:15.999Z</time></trkpt><trkpt lat="46.00206071016321" lon="11.820394155529906"><ele>305.5</ele><time>2026-04-12T13:44:16.999Z</time></trkpt><trkpt lat="46.00205627779068" lon="11.820030776312922"><ele>305.0</ele><time>2026-04-12T13:44:17.999Z</time></trkpt><trkpt lat="46.00205163320106" lon="11.819665828512985"><ele>305.0</ele><time>2026-04-12T13:44:18.999Z</time></trkpt><trkpt lat="46.00204600718894" lon="11.819296228993851"><ele>305.0</ele><time>2026-04-12T13:44:19.999Z</time></trkpt><trkpt lat="46.00203650868896" lon="11.818925088396192"><ele>305.0</ele><time>2026-04-12T13:44:20.999Z</time></trkpt><trkpt lat="46.00203342709204" lon="11.81855696958764"><ele>305.0</ele><time>2026-04-12T13:44:21.999Z</time></trkpt><trkpt lat="46.002029185214866" lon="11.818182522287442"><ele>304.0</ele><time>2026-04-12T13:44:22.999Z</time></trkpt><trkpt lat="46.002023778442805" lon="11.817810743152771"><ele>303.0</ele><time>2026-04-12T13:44:23.999Z</time></trkpt><trkpt lat="46.00201605148307" lon="11.817437469034024"><ele>303.0</ele><time>2026-04-12T13:44:24.999Z</time></trkpt><trkpt lat="46.00200815072912" lon="11.817069485513267"><ele>303.0</ele><time>2026-04-12T13:44:25.999Z</time></trkpt><trkpt lat="46.002001159552606" lon="11.816697758321768"><ele>303.0</ele><time>2026-04-12T13:44:26.999Z</time></trkpt><trkpt lat="46.00199679997784" lon="11.816325739348303"><ele>303.0</ele><time>2026-04-12T13:44:27.999Z</time></trkpt><trkpt lat="46.00199408690813" lon="11.815955623855958"><ele>301.5</ele><time>2026-04-12T13:44:28.999Z</time></trkpt><trkpt lat="46.00198857273693" lon="11.815587451963747"><ele>300.0</ele><time>2026-04-12T13:44:29.999Z</time></trkpt><trkpt lat="46.00198367560547" lon="11.815232154932504"><ele>299.5</ele><time>2026-04-12T13:44:30.999Z</time></trkpt><trkpt lat="46.00197844476641" lon="11.814870963956988"><ele>299.0</ele><time>2026-04-12T13:44:31.999Z</time></trkpt><trkpt lat="46.00197192530568" lon="11.814509500086217"><ele>298.5</ele><time>2026-04-12T13:44:33Z</time></trkpt><trkpt lat="46.001965954505756" lon="11.81414416837756"><ele>298.0</ele><time>2026-04-12T13:44:34Z</time></trkpt><trkpt lat="46.00196409045413" lon="11.813792712659817"><ele>298.0</ele><time>2026-04-12T13:44:35Z</time></trkpt><trkpt lat="46.00195639522914" lon="11.81346545429238"><ele>298.0</ele><time>2026-04-12T13:44:36Z</time></trkpt><trkpt lat="46.00196206663668" lon="11.813165291531389"><ele>298.0</ele><time>2026-04-12T13:44:37Z</time></trkpt><trkpt lat="46.00195549903643" lon="11.812857112593079"><ele>296.66666666666663</ele><time>2026-04-12T13:44:38Z</time></trkpt><trkpt lat="46.00194368660193" lon="11.812568392823852"><ele>295.3333333333333</ele><time>2026-04-12T13:44:39Z</time></trkpt><trkpt lat="46.00193109298479" lon="11.81227601507546"><ele>294.0</ele><time>2026-04-12T13:44:40Z</time></trkpt><trkpt lat="46.00190787894828" lon="11.811966019462439"><ele>293.3333333333333</ele><time>2026-04-12T13:44:41Z</time></trkpt><trkpt lat="46.001884131068394" lon="11.811666552887095"><ele>292.66666666666663</ele><time>2026-04-12T13:44:42Z</time></trkpt><trkpt lat="46.001860882609265" lon="11.811369519767151"><ele>292.0</ele><time>2026-04-12T13:44:43Z</time></trkpt><trkpt lat="46.00184364247432" lon="11.811073488825862"><ele>292.3333333333333</ele><time>2026-04-12T13:44:44Z</time></trkpt><trkpt lat="46.00183027483725" lon="11.810777130079133"><ele>292.6666666666667</ele><time>2026-04-12T13:44:45Z</time></trkpt><trkpt lat="46.00180915779829" lon="11.81047850695294"><ele>293.0</ele><time>2026-04-12T13:44:46Z</time></trkpt><trkpt lat="46.00178611029062" lon="11.810186964004249"><ele>293.0</ele><time>2026-04-12T13:44:47Z</time></trkpt><trkpt lat="46.001764051101496" lon="11.809900453671066"><ele>293.0</ele><time>2026-04-12T13:44:48Z</time></trkpt><trkpt lat="46.001740590717475" lon="11.809607622738293"><ele>293.0</ele><time>2026-04-12T13:44:49Z</time></trkpt><trkpt lat="46.00171599419105" lon="11.809317417056112"><ele>293.0</ele><time>2026-04-12T13:44:50Z</time></trkpt><trkpt lat="46.001693662734745" lon="11.809018878280368"><ele>293.0</ele><time>2026-04-12T13:44:51Z</time></trkpt><trkpt lat="46.001669581430264" lon="11.808709310800973"><ele>293.0</ele><time>2026-04-12T13:44:52Z</time></trkpt><trkpt lat="46.00165102763482" lon="11.808405448156048"><ele>293.0</ele><time>2026-04-12T13:44:53Z</time></trkpt><trkpt lat="46.00163183235861" lon="11.808088146422245"><ele>293.0</ele><time>2026-04-12T13:44:54Z</time></trkpt><trkpt lat="46.00159290405922" lon="11.807754818306185"><ele>292.5</ele><time>2026-04-12T13:44:55Z</time></trkpt><trkpt lat="46.001527681051115" lon="11.80742743959282"><ele>292.0</ele><time>2026-04-12T13:44:56Z</time></trkpt><trkpt lat="46.001452143113205" lon="11.807094087669533"><ele>293.0</ele><time>2026-04-12T13:44:57Z</time></trkpt><trkpt lat="46.00137762569813" lon="11.806773723159461"><ele>294.0</ele><time>2026-04-12T13:44:58Z</time></trkpt><trkpt lat="46.001286628848895" lon="11.80646181707933"><ele>294.0</ele><time>2026-04-12T13:44:59Z</time></trkpt><trkpt lat="46.001180790521026" lon="11.806152768924944"><ele>294.0</ele><time>2026-04-12T13:45:00Z</time></trkpt><trkpt lat="46.00105850442259" lon="11.805863135428678"><ele>294.5</ele><time>2026-04-12T13:45:01Z</time></trkpt><trkpt lat="46.00092646604977" lon="11.805570580102623"><ele>295.0</ele><time>2026-04-12T13:45:02Z</time></trkpt><trkpt lat="46.00079247110919" lon="11.805287011700493"><ele>301.0</ele><time>2026-04-12T13:45:03Z</time></trkpt><trkpt lat="46.000642611119936" lon="11.805031977208145"><ele>307.0</ele><time>2026-04-12T13:45:04Z</time></trkpt><trkpt lat="46.00048256399697" lon="11.80479000560906"><ele>307.0</ele><time>2026-04-12T13:45:05Z</time></trkpt><trkpt lat="46.0003111293372" lon="11.80456826584667"><ele>307.0</ele><time>2026-04-12T13:45:06Z</time></trkpt><trkpt lat="46.000136180219755" lon="11.804349622228328"><ele>304.0</ele><time>2026-04-12T13:45:07Z</time></trkpt><trkpt lat="45.99996612227117" lon="11.80412317177147"><ele>301.0</ele><time>2026-04-12T13:45:08Z</time></trkpt><trkpt lat="45.9998015057692" lon="11.803896607899677"><ele>301.0</ele><time>2026-04-12T13:45:09Z</time></trkpt><trkpt lat="45.99963744561313" lon="11.803675977315804"><ele>301.0</ele><time>2026-04-12T13:45:10Z</time></trkpt><trkpt lat="45.99947605249533" lon="11.803454916562753"><ele>301.0</ele><time>2026-04-12T13:45:11Z</time></trkpt><trkpt lat="45.99931259328753" lon="11.803242399183562"><ele>305.5</ele><time>2026-04-12T13:45:12Z</time></trkpt><trkpt lat="45.999144797737095" lon="11.80302598587726"><ele>310.0</ele><time>2026-04-12T13:45:13Z</time></trkpt><trkpt lat="45.998982041159096" lon="11.802803692675328"><ele>305.0</ele><time>2026-04-12T13:45:14Z</time></trkpt><trkpt lat="45.998824436884" lon="11.802582791063339"><ele>300.0</ele><time>2026-04-12T13:45:15Z</time></trkpt><trkpt lat="45.99866890350198" lon="11.802355933130652"><ele>295.0</ele><time>2026-04-12T13:45:16Z</time></trkpt><trkpt lat="45.998511709828875" lon="11.802115111305731"><ele>295.0</ele><time>2026-04-12T13:45:17Z</time></trkpt><trkpt lat="45.99835975824096" lon="11.801872748925428"><ele>295.0</ele><time>2026-04-12T13:45:18Z</time></trkpt><trkpt lat="45.998209299076535" lon="11.80162670745611"><ele>295.0</ele><time>2026-04-12T13:45:19Z</time></trkpt><trkpt lat="45.99805513347882" lon="11.80137604117229"><ele>295.0</ele><time>2026-04-12T13:45:20Z</time></trkpt><trkpt lat="45.99790121401419" lon="11.80112500841669"><ele>292.5</ele><time>2026-04-12T13:45:21Z</time></trkpt><trkpt lat="45.99774283715811" lon="11.800873880677452"><ele>290.0</ele><time>2026-04-12T13:45:22Z</time></trkpt><trkpt lat="45.99758336869563" lon="11.800624445864928"><ele>293.0</ele><time>2026-04-12T13:45:23Z</time></trkpt><trkpt lat="45.9974269630555" lon="11.800368130265793"><ele>296.0</ele><time>2026-04-12T13:45:24Z</time></trkpt><trkpt lat="45.99726830154088" lon="11.800118127921927"><ele>296.0</ele><time>2026-04-12T13:45:25Z</time></trkpt><trkpt lat="45.99711166965129" lon="11.799860801419735"><ele>296.0</ele><time>2026-04-12T13:45:26Z</time></trkpt><trkpt lat="45.99695221745033" lon="11.799608696334715"><ele>296.0</ele><time>2026-04-12T13:45:27Z</time></trkpt><trkpt lat="45.996788221535404" lon="11.799354876023953"><ele>296.0</ele><time>2026-04-12T13:45:27.999Z</time></trkpt><trkpt lat="45.996630768454565" lon="11.799100523317076"><ele>293.5</ele><time>2026-04-12T13:45:28.999Z</time></trkpt><trkpt lat="45.996469070102805" lon="11.798842688784182"><ele>291.0</ele><time>2026-04-12T13:45:29.999Z</time></trkpt><trkpt lat="45.996320291831154" lon="11.798593744884586"><ele>289.3333333333333</ele><time>2026-04-12T13:45:30.999Z</time></trkpt><trkpt lat="45.99616882098608" lon="11.79835912324093"><ele>287.66666666666663</ele><time>2026-04-12T13:45:31.999Z</time></trkpt><trkpt lat="45.99602650593572" lon="11.798130849299895"><ele>286.0</ele><time>2026-04-12T13:45:32.999Z</time></trkpt><trkpt lat="45.99588263700561" lon="11.797900938704736"><ele>287.0</ele><time>2026-04-12T13:45:33.999Z</time></trkpt><trkpt lat="45.995731125219" lon="11.797662645681939"><ele>288.0</ele><time>2026-04-12T13:45:34.999Z</time></trkpt><trkpt lat="45.995578890521394" lon="11.797420836381951"><ele>288.0</ele><time>2026-04-12T13:45:35.999Z</time></trkpt><trkpt lat="45.99542851636342" lon="11.797174739833768"><ele>288.0</ele><time>2026-04-12T13:45:36.999Z</time></trkpt><trkpt lat="45.995275872183555" lon="11.79692423910906"><ele>287.5</ele><time>2026-04-12T13:45:37.999Z</time></trkpt><trkpt lat="45.99512527100501" lon="11.796674914895757"><ele>287.0</ele><time>2026-04-12T13:45:38.999Z</time></trkpt><trkpt lat="45.99497694948473" lon="11.796426868133187"><ele>287.0</ele><time>2026-04-12T13:45:39.999Z</time></trkpt><trkpt lat="45.994830500675356" lon="11.796174621946207"><ele>287.0</ele><time>2026-04-12T13:45:40.999Z</time></trkpt><trkpt lat="45.99469412318385" lon="11.79591860627601"><ele>285.6666666666667</ele><time>2026-04-12T13:45:41.999Z</time></trkpt><trkpt lat="45.994558966393164" lon="11.795660645200744"><ele>284.3333333333333</ele><time>2026-04-12T13:45:42.999Z</time></trkpt><trkpt lat="45.99443068051309" lon="11.795403408257545"><ele>283.0</ele><time>2026-04-12T13:45:43.999Z</time></trkpt><trkpt lat="45.99430535867857" lon="11.795154706458412"><ele>282.0</ele><time>2026-04-12T13:45:44.999Z</time></trkpt><trkpt lat="45.99418356133611" lon="11.79490234241313"><ele>281.0</ele><time>2026-04-12T13:45:45.999Z</time></trkpt><trkpt lat="45.994064807193894" lon="11.79465744764006"><ele>280.0</ele><time>2026-04-12T13:45:46.999Z</time></trkpt><trkpt lat="45.993946191827995" lon="11.794406763430592"><ele>280.66666666666663</ele><time>2026-04-12T13:45:47.999Z</time></trkpt><trkpt lat="45.9938331773499" lon="11.794163894883582"><ele>281.3333333333333</ele><time>2026-04-12T13:45:48.999Z</time></trkpt><trkpt lat="45.99371635649845" lon="11.793915219838869"><ele>282.0</ele><time>2026-04-12T13:45:49.999Z</time></trkpt><trkpt lat="45.9935972491972" lon="11.793671959011798"><ele>281.6666666666667</ele><time>2026-04-12T13:45:50.999Z</time></trkpt><trkpt lat="45.99348423309773" lon="11.793428553367225"><ele>281.33333333333337</ele><time>2026-04-12T13:45:51.999Z</time></trkpt><trkpt lat="45.993362895695185" lon="11.793187137565033"><ele>281.0</ele><time>2026-04-12T13:45:52.999Z</time></trkpt><trkpt lat="45.9932405111264" lon="11.79294749288654"><ele>280.33333333333337</ele><time>2026-04-12T13:45:53.999Z</time></trkpt><trkpt lat="45.99310387892647" lon="11.79271557732496"><ele>279.6666666666667</ele><time>2026-04-12T13:45:54.999Z</time></trkpt><trkpt lat="45.99295804575002" lon="11.79249374485852"><ele>279.0</ele><time>2026-04-12T13:45:55.999Z</time></trkpt><trkpt lat="45.992802873171016" lon="11.792295973911747"><ele>279.0</ele><time>2026-04-12T13:45:56.999Z</time></trkpt><trkpt lat="45.99263357634245" lon="11.792106482693425"><ele>279.0</ele><time>2026-04-12T13:45:57.999Z</time></trkpt><trkpt lat="45.9924489268532" lon="11.791934687583678"><ele>279.0</ele><time>2026-04-12T13:45:58.999Z</time></trkpt><trkpt lat="45.99226770846298" lon="11.791767077025103"><ele>280.0</ele><time>2026-04-12T13:45:59.999Z</time></trkpt><trkpt lat="45.99208696055391" lon="11.79161089979111"><ele>281.0</ele><time>2026-04-12T13:46:00.999Z</time></trkpt><trkpt lat="45.99190464007952" lon="11.791443764384745"><ele>282.0</ele><time>2026-04-12T13:46:01.999Z</time></trkpt><trkpt lat="45.99172372489486" lon="11.791273525447204"><ele>283.0</ele><time>2026-04-12T13:46:02.999Z</time></trkpt><trkpt lat="45.99155185987342" lon="11.791102484557754"><ele>284.0</ele><time>2026-04-12T13:46:03.999Z</time></trkpt><trkpt lat="45.99138668609797" lon="11.790930148052778"><ele>285.0</ele><time>2026-04-12T13:46:04.999Z</time></trkpt><trkpt lat="45.9912302215007" lon="11.790757311449962"><ele>285.0</ele><time>2026-04-12T13:46:05.999Z</time></trkpt><trkpt lat="45.99108576803409" lon="11.790589843051231"><ele>285.0</ele><time>2026-04-12T13:46:06.999Z</time></trkpt><trkpt lat="45.990940210889065" lon="11.790406646089826"><ele>285.0</ele><time>2026-04-12T13:46:07.999Z</time></trkpt><trkpt lat="45.99079367755679" lon="11.790219749463917"><ele>287.0</ele><time>2026-04-12T13:46:08.999Z</time></trkpt><trkpt lat="45.990649411712916" lon="11.790027692122234"><ele>289.0</ele><time>2026-04-12T13:46:09.999Z</time></trkpt><trkpt lat="45.990505583350014" lon="11.789828982996662"><ele>291.0</ele><time>2026-04-12T13:46:10.999Z</time></trkpt><trkpt lat="45.990360253392346" lon="11.789622136373737"><ele>291.0</ele><time>2026-04-12T13:46:11.999Z</time></trkpt><trkpt lat="45.99022213157104" lon="11.789416293886518"><ele>291.0</ele><time>2026-04-12T13:46:12.999Z</time></trkpt><trkpt lat="45.99008439410822" lon="11.78922136500409"><ele>291.0</ele><time>2026-04-12T13:46:13.999Z</time></trkpt><trkpt lat="45.989945430669465" lon="11.789031614291195"><ele>290.6666666666667</ele><time>2026-04-12T13:46:14.999Z</time></trkpt><trkpt lat="45.98980689783886" lon="11.788848767321614"><ele>290.33333333333337</ele><time>2026-04-12T13:46:15.999Z</time></trkpt><trkpt lat="45.98965786140474" lon="11.788679106200513"><ele>290.0</ele><time>2026-04-12T13:46:16.999Z</time></trkpt><trkpt lat="45.98950506531657" lon="11.788529880555798"><ele>287.6666666666667</ele><time>2026-04-12T13:46:17.999Z</time></trkpt><trkpt lat="45.98934256273686" lon="11.788401108819444"><ele>285.3333333333333</ele><time>2026-04-12T13:46:18.999Z</time></trkpt><trkpt lat="45.98917573250065" lon="11.788285354628536"><ele>283.0</ele><time>2026-04-12T13:46:19.999Z</time></trkpt><trkpt lat="45.98900023017469" lon="11.788173286138525"><ele>282.66666666666663</ele><time>2026-04-12T13:46:20.999Z</time></trkpt><trkpt lat="45.98883339967472" lon="11.78806189807606"><ele>282.3333333333333</ele><time>2026-04-12T13:46:21.999Z</time></trkpt><trkpt lat="45.98866082176985" lon="11.787944185707383"><ele>282.0</ele><time>2026-04-12T13:46:22.999Z</time></trkpt><trkpt lat="45.98850082811233" lon="11.78783699771403"><ele>282.0</ele><time>2026-04-12T13:46:23.999Z</time></trkpt><trkpt lat="45.98834859983748" lon="11.787734212189855"><ele>282.0</ele><time>2026-04-12T13:46:24.999Z</time></trkpt><trkpt lat="45.98820941253567" lon="11.787637336341424"><ele>282.0</ele><time>2026-04-12T13:46:25.999Z</time></trkpt><trkpt lat="45.988082401031136" lon="11.7875504187351"><ele>281.25</ele><time>2026-04-12T13:46:26.999Z</time></trkpt><trkpt lat="45.98796805922865" lon="11.78746976986846"><ele>280.5</ele><time>2026-04-12T13:46:27.999Z</time></trkpt><trkpt lat="45.98785770081086" lon="11.787394538856027"><ele>279.75</ele><time>2026-04-12T13:46:28.999Z</time></trkpt><trkpt lat="45.987751255028094" lon="11.787325955707598"><ele>279.0</ele><time>2026-04-12T13:46:29.999Z</time></trkpt><trkpt lat="45.98764840044129" lon="11.78726151388055"><ele>279.0</ele><time>2026-04-12T13:46:30.999Z</time></trkpt><trkpt lat="45.98753226377015" lon="11.78719575857279"><ele>279.0</ele><time>2026-04-12T13:46:31.999Z</time></trkpt><trkpt lat="45.98741691557821" lon="11.78712606944676"><ele>279.0</ele><time>2026-04-12T13:46:32.999Z</time></trkpt><trkpt lat="45.98730116533157" lon="11.787053654273484"><ele>279.0</ele><time>2026-04-12T13:46:33.999Z</time></trkpt><trkpt lat="45.987175883067685" lon="11.78697294978258"><ele>278.5</ele><time>2026-04-12T13:46:34.999Z</time></trkpt><trkpt lat="45.98706063941597" lon="11.786901678654518"><ele>278.0</ele><time>2026-04-12T13:46:35.999Z</time></trkpt><trkpt lat="45.9869426607391" lon="11.786827430352497"><ele>277.5</ele><time>2026-04-12T13:46:36.999Z</time></trkpt><trkpt lat="45.98682459291263" lon="11.786753780438138"><ele>277.0</ele><time>2026-04-12T13:46:37.999Z</time></trkpt><trkpt lat="45.98670739000846" lon="11.786674260709324"><ele>276.0</ele><time>2026-04-12T13:46:39Z</time></trkpt><trkpt lat="45.98658997845741" lon="11.786602262525845"><ele>275.0</ele><time>2026-04-12T13:46:40Z</time></trkpt><trkpt lat="45.986481875827515" lon="11.786533415131197"><ele>274.0</ele><time>2026-04-12T13:46:41Z</time></trkpt><trkpt lat="45.986369083671406" lon="11.786461151560797"><ele>273.0</ele><time>2026-04-12T13:46:42Z</time></trkpt><trkpt lat="45.9862609947232" lon="11.78639409703797"><ele>273.0</ele><time>2026-04-12T13:46:43Z</time></trkpt><trkpt lat="45.986151910537906" lon="11.786322242613371"><ele>273.0</ele><time>2026-04-12T13:46:44Z</time></trkpt><trkpt lat="45.98604103593071" lon="11.786251993737775"><ele>273.0</ele><time>2026-04-12T13:46:45Z</time></trkpt><trkpt lat="45.9859348722956" lon="11.78618578215967"><ele>273.0</ele><time>2026-04-12T13:46:46Z</time></trkpt><trkpt lat="45.98582254173825" lon="11.786116557859406"><ele>272.25</ele><time>2026-04-12T13:46:47Z</time></trkpt><trkpt lat="45.98571059110745" lon="11.786044371472016"><ele>271.5</ele><time>2026-04-12T13:46:48Z</time></trkpt><trkpt lat="45.98559429757855" lon="11.7859705242091"><ele>270.75</ele><time>2026-04-12T13:46:49Z</time></trkpt><trkpt lat="45.98547422436858" lon="11.785893904713399"><ele>270.0</ele><time>2026-04-12T13:46:50Z</time></trkpt><trkpt lat="45.985352520792276" lon="11.785819457682583"><ele>270.0</ele><time>2026-04-12T13:46:51Z</time></trkpt><trkpt lat="45.98523907893215" lon="11.78574781846619"><ele>270.0</ele><time>2026-04-12T13:46:52Z</time></trkpt><trkpt lat="45.985128652885294" lon="11.785676261282028"><ele>270.0</ele><time>2026-04-12T13:46:53Z</time></trkpt><trkpt lat="45.98501470083904" lon="11.785603382657373"><ele>270.0</ele><time>2026-04-12T13:46:54Z</time></trkpt><trkpt lat="45.984886626186324" lon="11.785520437872854"><ele>270.0</ele><time>2026-04-12T13:46:55Z</time></trkpt><trkpt lat="45.984747328562676" lon="11.785433054609028"><ele>270.0</ele><time>2026-04-12T13:46:56Z</time></trkpt><trkpt lat="45.98460448622836" lon="11.785342253327821"><ele>270.0</ele><time>2026-04-12T13:46:57Z</time></trkpt><trkpt lat="45.98446780562454" lon="11.785242288164177"><ele>269.6666666666667</ele><time>2026-04-12T13:46:58Z</time></trkpt><trkpt lat="45.98433990391748" lon="11.785147335481888"><ele>269.33333333333337</ele><time>2026-04-12T13:46:59Z</time></trkpt><trkpt lat="45.98421184706568" lon="11.785045931315596"><ele>269.0</ele><time>2026-04-12T13:47:00Z</time></trkpt><trkpt lat="45.98406874531007" lon="11.784928943083736"><ele>269.0</ele><time>2026-04-12T13:47:01Z</time></trkpt><trkpt lat="45.983926021851154" lon="11.784785456810852"><ele>269.0</ele><time>2026-04-12T13:47:02Z</time></trkpt><trkpt lat="45.98377414164171" lon="11.784618086458226"><ele>269.0</ele><time>2026-04-12T13:47:03Z</time></trkpt><trkpt lat="45.98362721482358" lon="11.784442810763851"><ele>269.0</ele><time>2026-04-12T13:47:04Z</time></trkpt><trkpt lat="45.983479710550505" lon="11.784248387600904"><ele>269.0</ele><time>2026-04-12T13:47:05Z</time></trkpt><trkpt lat="45.98333712420666" lon="11.784034087492538"><ele>269.0</ele><time>2026-04-12T13:47:06Z</time></trkpt><trkpt lat="45.983202093915274" lon="11.78380613182982"><ele>269.0</ele><time>2026-04-12T13:47:07Z</time></trkpt><trkpt lat="45.98307031467724" lon="11.783572973624217"><ele>269.0</ele><time>2026-04-12T13:47:08Z</time></trkpt><trkpt lat="45.98295952948969" lon="11.783320390921057"><ele>269.0</ele><time>2026-04-12T13:47:09Z</time></trkpt><trkpt lat="45.982850666979786" lon="11.783047428980035"><ele>269.0</ele><time>2026-04-12T13:47:10Z</time></trkpt><trkpt lat="45.98275459856367" lon="11.782769625096556"><ele>269.0</ele><time>2026-04-12T13:47:11Z</time></trkpt><trkpt lat="45.982669110546546" lon="11.782484860512264"><ele>269.0</ele><time>2026-04-12T13:47:12Z</time></trkpt><trkpt lat="45.98258994803048" lon="11.782190908851875"><ele>268.33333333333337</ele><time>2026-04-12T13:47:13Z</time></trkpt><trkpt lat="45.982514333928684" lon="11.781893426843844"><ele>267.6666666666667</ele><time>2026-04-12T13:47:14Z</time></trkpt><trkpt lat="45.98244108771559" lon="11.781599127474276"><ele>267.0</ele><time>2026-04-12T13:47:15Z</time></trkpt><trkpt lat="45.982368479601845" lon="11.781300691463022"><ele>288.6666666666667</ele><time>2026-04-12T13:47:16Z</time></trkpt><trkpt lat="45.98229743440874" lon="11.78100867863914"><ele>310.33333333333337</ele><time>2026-04-12T13:47:17Z</time></trkpt><trkpt lat="45.982226277002404" lon="11.780716204810318"><ele>332.0</ele><time>2026-04-12T13:47:18Z</time></trkpt><trkpt lat="45.982154145304285" lon="11.780419726750967"><ele>342.6666666666667</ele><time>2026-04-12T13:47:19.013Z</time></trkpt><trkpt lat="45.982078929203176" lon="11.780128510226884"><ele>353.3333333333333</ele><time>2026-04-12T13:47:20.017Z</time></trkpt><trkpt lat="45.9819858091555" lon="11.779847278543917"><ele>364.0</ele><time>2026-04-12T13:47:21.013Z</time></trkpt><trkpt lat="45.98191337393421" lon="11.77955443183018"><ele>367.66666666666663</ele><time>2026-04-12T13:47:22.019Z</time></trkpt><trkpt lat="45.98184088357165" lon="11.779262256983984"><ele>371.3333333333333</ele><time>2026-04-12T13:47:23.019Z</time></trkpt><trkpt lat="45.98176770654975" lon="11.778969355264264"><ele>375.0</ele><time>2026-04-12T13:47:24.018Z</time></trkpt><trkpt lat="45.98101920452526" lon="11.777181476365566"><ele>340.5</ele><time>2026-04-12T13:47:30Z</time></trkpt><trkpt lat="45.980904952482" lon="11.776896279368936"><ele>306.0</ele><time>2026-04-12T13:47:31Z</time></trkpt><trkpt lat="45.980787268088314" lon="11.776608450477026"><ele>288.0</ele><time>2026-04-12T13:47:32Z</time></trkpt><trkpt lat="45.98066366299763" lon="11.776334177176027"><ele>270.0</ele><time>2026-04-12T13:47:33Z</time></trkpt><trkpt lat="45.980550471594206" lon="11.776058342336244"><ele>271.0</ele><time>2026-04-12T13:47:34Z</time></trkpt><trkpt lat="45.980445261227445" lon="11.775774357745751"><ele>272.0</ele><time>2026-04-12T13:47:34.999Z</time></trkpt><trkpt lat="45.98034692753397" lon="11.77548614769046"><ele>273.0</ele><time>2026-04-12T13:47:35.999Z</time></trkpt><trkpt lat="45.980265864710645" lon="11.77517565941023"><ele>273.0</ele><time>2026-04-12T13:47:36.999Z</time></trkpt><trkpt lat="45.98019805565778" lon="11.774864221802046"><ele>273.0</ele><time>2026-04-12T13:47:37.999Z</time></trkpt><trkpt lat="45.98014677275119" lon="11.774542388808385"><ele>273.0</ele><time>2026-04-12T13:47:38.999Z</time></trkpt><trkpt lat="45.98011470848576" lon="11.774209877916759"><ele>273.0</ele><time>2026-04-12T13:47:39.999Z</time></trkpt><trkpt lat="45.980100112661724" lon="11.773873015065789"><ele>273.0</ele><time>2026-04-12T13:47:40.999Z</time></trkpt><trkpt lat="45.980092679481515" lon="11.773539893470362"><ele>273.0</ele><time>2026-04-12T13:47:41.999Z</time></trkpt><trkpt lat="45.98009892442925" lon="11.773205718487976"><ele>274.0</ele><time>2026-04-12T13:47:42.999Z</time></trkpt><trkpt lat="45.980115569297865" lon="11.772870940255858"><ele>275.0</ele><time>2026-04-12T13:47:43.999Z</time></trkpt><trkpt lat="45.980140302200795" lon="11.77254028189521"><ele>279.0</ele><time>2026-04-12T13:47:44.999Z</time></trkpt><trkpt lat="45.98017888607741" lon="11.772204406621016"><ele>283.0</ele><time>2026-04-12T13:47:45.999Z</time></trkpt><trkpt lat="45.98022348017126" lon="11.771874957962238"><ele>284.5</ele><time>2026-04-12T13:47:46.999Z</time></trkpt><trkpt lat="45.98026452547348" lon="11.771540700654242"><ele>286.0</ele><time>2026-04-12T13:47:47.999Z</time></trkpt><trkpt lat="45.980297370502946" lon="11.771223052374548"><ele>287.3333333333333</ele><time>2026-04-12T13:47:48.999Z</time></trkpt><trkpt lat="45.980310062284296" lon="11.77090379062349"><ele>288.6666666666667</ele><time>2026-04-12T13:47:49.999Z</time></trkpt><trkpt lat="45.980312536122234" lon="11.770593969746253"><ele>290.0</ele><time>2026-04-12T13:47:50.999Z</time></trkpt><trkpt lat="45.98030028473988" lon="11.770314792168902"><ele>293.0</ele><time>2026-04-12T13:47:51.999Z</time></trkpt><trkpt lat="45.98028193042818" lon="11.770028052815169"><ele>296.0</ele><time>2026-04-12T13:47:52.999Z</time></trkpt><trkpt lat="45.98026273133648" lon="11.769739265988466"><ele>299.0</ele><time>2026-04-12T13:47:53.999Z</time></trkpt><trkpt lat="45.980251321822415" lon="11.76945758183869"><ele>301.0</ele><time>2026-04-12T13:47:54.999Z</time></trkpt><trkpt lat="45.98024804740104" lon="11.769181155799346"><ele>303.0</ele><time>2026-04-12T13:47:55.999Z</time></trkpt><trkpt lat="45.98024255779744" lon="11.76891250783883"><ele>305.0</ele><time>2026-04-12T13:47:56.999Z</time></trkpt><trkpt lat="45.9802357591686" lon="11.768662960466395"><ele>306.6666666666667</ele><time>2026-04-12T13:47:57.999Z</time></trkpt><trkpt lat="45.980229402615684" lon="11.768430137183303"><ele>308.3333333333333</ele><time>2026-04-12T13:47:58.999Z</time></trkpt><trkpt lat="45.980222026534456" lon="11.768197144531012"><ele>310.0</ele><time>2026-04-12T13:47:59.999Z</time></trkpt><trkpt lat="45.98021304785642" lon="11.767961399546342"><ele>310.0</ele><time>2026-04-12T13:48:00.999Z</time></trkpt><trkpt lat="45.98020461777774" lon="11.767723872024863"><ele>310.0</ele><time>2026-04-12T13:48:01.999Z</time></trkpt><trkpt lat="45.98019449570427" lon="11.767494967995864"><ele>310.0</ele><time>2026-04-12T13:48:02.999Z</time></trkpt><trkpt lat="45.98019000915316" lon="11.76727366485999"><ele>310.66666666666663</ele><time>2026-04-12T13:48:03.999Z</time></trkpt><trkpt lat="45.98018516593542" lon="11.767053797912073"><ele>311.3333333333333</ele><time>2026-04-12T13:48:04.999Z</time></trkpt><trkpt lat="45.980178238992316" lon="11.766827132127986"><ele>312.0</ele><time>2026-04-12T13:48:05.999Z</time></trkpt><trkpt lat="45.980171548598165" lon="11.766606717736503"><ele>312.3333333333333</ele><time>2026-04-12T13:48:06.999Z</time></trkpt><trkpt lat="45.98016496353921" lon="11.766386330675616"><ele>312.66666666666663</ele><time>2026-04-12T13:48:07.999Z</time></trkpt><trkpt lat="45.980159730346905" lon="11.766169361480415"><ele>313.0</ele><time>2026-04-12T13:48:08.999Z</time></trkpt><trkpt lat="45.98015420529888" lon="11.765948335381978"><ele>314.0</ele><time>2026-04-12T13:48:10.019Z</time></trkpt><trkpt lat="45.98014949958848" lon="11.765729734138596"><ele>315.0</ele><time>2026-04-12T13:48:11.019Z</time></trkpt><trkpt lat="45.98014601683937" lon="11.765508339649049"><ele>316.0</ele><time>2026-04-12T13:48:12.02Z</time></trkpt><trkpt lat="45.98014412306843" lon="11.765289110382996"><ele>315.0</ele><time>2026-04-12T13:48:13.019Z</time></trkpt><trkpt lat="45.98007749770393" lon="11.764453137304415"><ele>313.6666666666667</ele><time>2026-04-12T13:48:15.999Z</time></trkpt><trkpt lat="45.98006903970057" lon="11.764206194397323"><ele>312.33333333333337</ele><time>2026-04-12T13:48:16.999Z</time></trkpt><trkpt lat="45.980049762189594" lon="11.763888417934046"><ele>311.0</ele><time>2026-04-12T13:48:17.999Z</time></trkpt><trkpt lat="45.98002852097936" lon="11.763634310517448"><ele>309.6666666666667</ele><time>2026-04-12T13:48:18.999Z</time></trkpt><trkpt lat="45.97999380569067" lon="11.763382115256869"><ele>308.3333333333333</ele><time>2026-04-12T13:48:19.999Z</time></trkpt><trkpt lat="45.97994640108376" lon="11.76313713686634"><ele>307.0</ele><time>2026-04-12T13:48:20.999Z</time></trkpt><trkpt lat="45.9798997939918" lon="11.762899698043274"><ele>306.0</ele><time>2026-04-12T13:48:21.999Z</time></trkpt><trkpt lat="45.979860973795155" lon="11.762660585197215"><ele>305.0</ele><time>2026-04-12T13:48:22.999Z</time></trkpt><trkpt lat="45.9797854862668" lon="11.762441048328121"><ele>304.0</ele><time>2026-04-12T13:48:23.999Z</time></trkpt><trkpt lat="45.97972960362148" lon="11.762212938819312"><ele>304.0</ele><time>2026-04-12T13:48:24.999Z</time></trkpt><trkpt lat="45.979632986722464" lon="11.762010680312482"><ele>304.0</ele><time>2026-04-12T13:48:25.999Z</time></trkpt><trkpt lat="45.979546597686955" lon="11.76180843284369"><ele>304.0</ele><time>2026-04-12T13:48:26.999Z</time></trkpt><trkpt lat="45.97945379351651" lon="11.761600784540839"><ele>303.3333333333333</ele><time>2026-04-12T13:48:27.999Z</time></trkpt><trkpt lat="45.97935253112135" lon="11.7614056505328"><ele>302.6666666666667</ele><time>2026-04-12T13:48:28.999Z</time></trkpt><trkpt lat="45.97924106575632" lon="11.761209058467365"><ele>302.0</ele><time>2026-04-12T13:48:29.999Z</time></trkpt><trkpt lat="45.97911807809008" lon="11.761020123898723"><ele>301.33333333333337</ele><time>2026-04-12T13:48:30.999Z</time></trkpt><trkpt lat="45.978987914964485" lon="11.76082555453841"><ele>300.6666666666667</ele><time>2026-04-12T13:48:31.999Z</time></trkpt><trkpt lat="45.97885070599074" lon="11.760649326517054"><ele>300.0</ele><time>2026-04-12T13:48:32.999Z</time></trkpt><trkpt lat="45.97870345426377" lon="11.760478076925267"><ele>300.0</ele><time>2026-04-12T13:48:33.999Z</time></trkpt><trkpt lat="45.978549615788125" lon="11.760322082535973"><ele>300.0</ele><time>2026-04-12T13:48:34.999Z</time></trkpt><trkpt lat="45.97839194353726" lon="11.7601870425014"><ele>300.0</ele><time>2026-04-12T13:48:35.999Z</time></trkpt><trkpt lat="45.97822892761809" lon="11.760063376629716"><ele>298.6666666666667</ele><time>2026-04-12T13:48:36.999Z</time></trkpt><trkpt lat="45.978065752007055" lon="11.759943818665164"><ele>297.33333333333337</ele><time>2026-04-12T13:48:37.999Z</time></trkpt><trkpt lat="45.97789412699789" lon="11.75983619967588"><ele>296.0</ele><time>2026-04-12T13:48:38.999Z</time></trkpt><trkpt lat="45.97771562859354" lon="11.759744845780569"><ele>296.0</ele><time>2026-04-12T13:48:39.999Z</time></trkpt><trkpt lat="45.97753472904884" lon="11.75967089479469"><ele>296.0</ele><time>2026-04-12T13:48:40.999Z</time></trkpt><trkpt lat="45.97734639095531" lon="11.759605758457923"><ele>296.0</ele><time>2026-04-12T13:48:41.999Z</time></trkpt><trkpt lat="45.97716168543103" lon="11.759549813172313"><ele>298.6666666666667</ele><time>2026-04-12T13:48:42.999Z</time></trkpt><trkpt lat="45.97696925850082" lon="11.759506624139282"><ele>301.3333333333333</ele><time>2026-04-12T13:48:43.999Z</time></trkpt><trkpt lat="45.976775804458896" lon="11.75946616561109"><ele>304.0</ele><time>2026-04-12T13:48:45Z</time></trkpt><trkpt lat="45.976573816747326" lon="11.759427639815778"><ele>307.66666666666663</ele><time>2026-04-12T13:48:46Z</time></trkpt><trkpt lat="45.97637659118024" lon="11.759389064556705"><ele>311.3333333333333</ele><time>2026-04-12T13:48:47Z</time></trkpt><trkpt lat="45.97617635004271" lon="11.759355376916506"><ele>315.0</ele><time>2026-04-12T13:48:48Z</time></trkpt><trkpt lat="45.97597058314688" lon="11.759325892959819"><ele>307.3333333333333</ele><time>2026-04-12T13:48:49Z</time></trkpt><trkpt lat="45.97576552703039" lon="11.759299798295693"><ele>299.66666666666663</ele><time>2026-04-12T13:48:50Z</time></trkpt><trkpt lat="45.97555234692295" lon="11.75926555383887"><ele>292.0</ele><time>2026-04-12T13:48:51Z</time></trkpt><trkpt lat="45.975341634010995" lon="11.759232685218088"><ele>292.0</ele><time>2026-04-12T13:48:52Z</time></trkpt><trkpt lat="45.97511963514246" lon="11.75920511191749"><ele>292.0</ele><time>2026-04-12T13:48:53Z</time></trkpt><trkpt lat="45.97490059346973" lon="11.759168640060409"><ele>292.0</ele><time>2026-04-12T13:48:54Z</time></trkpt><trkpt lat="45.97467234457119" lon="11.759136179267083"><ele>292.66666666666663</ele><time>2026-04-12T13:48:55Z</time></trkpt><trkpt lat="45.97445476169157" lon="11.759105125678985"><ele>293.3333333333333</ele><time>2026-04-12T13:48:56Z</time></trkpt><trkpt lat="45.974234239718186" lon="11.75907419984872"><ele>294.0</ele><time>2026-04-12T13:48:57Z</time></trkpt><trkpt lat="45.97401038155037" lon="11.759039350320904"><ele>297.0</ele><time>2026-04-12T13:48:58Z</time></trkpt><trkpt lat="45.973785275187225" lon="11.75900515907639"><ele>300.0</ele><time>2026-04-12T13:48:59Z</time></trkpt><trkpt lat="45.97354743768349" lon="11.75897004560314"><ele>297.5</ele><time>2026-04-12T13:49:00Z</time></trkpt><trkpt lat="45.97329051946539" lon="11.758939781134808"><ele>295.0</ele><time>2026-04-12T13:49:01Z</time></trkpt><trkpt lat="45.973034635274104" lon="11.758881884190854"><ele>295.0</ele><time>2026-04-12T13:49:02Z</time></trkpt><trkpt lat="45.97278657657016" lon="11.758874329462746"><ele>295.0</ele><time>2026-04-12T13:49:03Z</time></trkpt><trkpt lat="45.97256386432664" lon="11.758835026377668"><ele>295.3333333333333</ele><time>2026-04-12T13:49:04Z</time></trkpt><trkpt lat="45.97234824017262" lon="11.758796042555877"><ele>295.6666666666667</ele><time>2026-04-12T13:49:05Z</time></trkpt><trkpt lat="45.97213186797801" lon="11.758741709328756"><ele>296.0</ele><time>2026-04-12T13:49:06Z</time></trkpt><trkpt lat="45.97191196496022" lon="11.758670060359554"><ele>296.0</ele><time>2026-04-12T13:49:07Z</time></trkpt><trkpt lat="45.971693747543405" lon="11.758569616318393"><ele>296.0</ele><time>2026-04-12T13:49:08Z</time></trkpt><trkpt lat="45.971479916106496" lon="11.758444710418095"><ele>293.0</ele><time>2026-04-12T13:49:09Z</time></trkpt><trkpt lat="45.9712665014934" lon="11.75829613546163"><ele>290.0</ele><time>2026-04-12T13:49:10Z</time></trkpt><trkpt lat="45.97106227995075" lon="11.758128206152092"><ele>290.0</ele><time>2026-04-12T13:49:11Z</time></trkpt><trkpt lat="45.97086530637946" lon="11.757946007687355"><ele>290.0</ele><time>2026-04-12T13:49:12Z</time></trkpt><trkpt lat="45.97067604589266" lon="11.757745465568105"><ele>288.6666666666667</ele><time>2026-04-12T13:49:13Z</time></trkpt><trkpt lat="45.97050824237546" lon="11.75753752263686"><ele>287.3333333333333</ele><time>2026-04-12T13:49:14Z</time></trkpt><trkpt lat="45.97035974616093" lon="11.757314106077176"><ele>286.0</ele><time>2026-04-12T13:49:15Z</time></trkpt><trkpt lat="45.97022326188792" lon="11.757064694253348"><ele>285.0</ele><time>2026-04-12T13:49:16Z</time></trkpt><trkpt lat="45.97008529002066" lon="11.756809608862168"><ele>284.0</ele><time>2026-04-12T13:49:17Z</time></trkpt><trkpt lat="45.96995580996981" lon="11.756538843429285"><ele>284.0</ele><time>2026-04-12T13:49:18Z</time></trkpt><trkpt lat="45.96983263816052" lon="11.756259291620493"><ele>284.0</ele><time>2026-04-12T13:49:19Z</time></trkpt><trkpt lat="45.96970597610845" lon="11.755975264716694"><ele>284.0</ele><time>2026-04-12T13:49:20Z</time></trkpt><trkpt lat="45.96957731166863" lon="11.755691508847404"><ele>284.0</ele><time>2026-04-12T13:49:21Z</time></trkpt><trkpt lat="45.969449576753405" lon="11.755412629703782"><ele>284.6666666666667</ele><time>2026-04-12T13:49:22Z</time></trkpt><trkpt lat="45.96932812442374" lon="11.755143917372612"><ele>285.3333333333333</ele><time>2026-04-12T13:49:23Z</time></trkpt><trkpt lat="45.969203901430696" lon="11.754874157560575"><ele>286.0</ele><time>2026-04-12T13:49:24Z</time></trkpt><trkpt lat="45.96908776910944" lon="11.754627081906648"><ele>286.66666666666663</ele><time>2026-04-12T13:49:25Z</time></trkpt><trkpt lat="45.9689778147716" lon="11.754381849203755"><ele>287.3333333333333</ele><time>2026-04-12T13:49:26Z</time></trkpt><trkpt lat="45.96886390740838" lon="11.754150662794498"><ele>288.0</ele><time>2026-04-12T13:49:27Z</time></trkpt><trkpt lat="45.96875601801607" lon="11.753920218731304"><ele>293.3333333333333</ele><time>2026-04-12T13:49:28Z</time></trkpt><trkpt lat="45.96865210481049" lon="11.753702186323974"><ele>298.66666666666663</ele><time>2026-04-12T13:49:29Z</time></trkpt><trkpt lat="45.968549349950415" lon="11.753490712752212"><ele>304.0</ele><time>2026-04-12T13:49:30Z</time></trkpt><trkpt lat="45.96844772751594" lon="11.7532794731523"><ele>318.0</ele><time>2026-04-12T13:49:31.019Z</time></trkpt><trkpt lat="45.968360160597484" lon="11.753055456401842"><ele>332.0</ele><time>2026-04-12T13:49:32.02Z</time></trkpt><trkpt lat="45.968261192272735" lon="11.752839871477324"><ele>346.0</ele><time>2026-04-12T13:49:33.02Z</time></trkpt><trkpt lat="45.96816207677149" lon="11.752623966260646"><ele>370.0</ele><time>2026-04-12T13:49:34.021Z</time></trkpt><trkpt lat="45.96806794609361" lon="11.752418919360037"><ele>394.0</ele><time>2026-04-12T13:49:35.018Z</time></trkpt><trkpt lat="45.96708662935848" lon="11.750319007969606"><ele>471.0</ele><time>2026-04-12T13:49:38.283Z</time></trkpt><trkpt lat="45.96679058786037" lon="11.749671730167078"><ele>509.0</ele><time>2026-04-12T13:49:39.283Z</time></trkpt><trkpt lat="45.96649454131553" lon="11.749024441330153"><ele>509.0</ele><time>2026-04-12T13:49:40.283Z</time></trkpt><trkpt lat="45.9664245" lon="11.7488713"><ele>509.0</ele><time>2026-04-12T13:49:41.283Z</time></trkpt><trkpt lat="45.95374289411878" lon="11.72075951290789"><ele>455.0</ele><time>2026-04-12T13:52:14.997Z</time></trkpt><trkpt lat="45.95378721108296" lon="11.720653817726763"><ele>401.0</ele><time>2026-04-12T13:52:15.997Z</time></trkpt><trkpt lat="45.953805388771954" lon="11.720494461977754"><ele>347.0</ele><time>2026-04-12T13:52:16.997Z</time></trkpt><trkpt lat="45.953843387726934" lon="11.720332058772321"><ele>293.0</ele><time>2026-04-12T13:52:17.997Z</time></trkpt><trkpt lat="45.95389306088149" lon="11.720174279315945"><ele>239.0</ele><time>2026-04-12T13:52:18.997Z</time></trkpt><trkpt lat="45.953963003810486" lon="11.720028693894715"><ele>234.5</ele><time>2026-04-12T13:52:19.997Z</time></trkpt><trkpt lat="45.95402688252906" lon="11.719876946211516"><ele>230.0</ele><time>2026-04-12T13:52:21Z</time></trkpt><trkpt lat="45.95408523974597" lon="11.719727106050202"><ele>225.5</ele><time>2026-04-12T13:52:22Z</time></trkpt><trkpt lat="45.95413954034074" lon="11.71958891516934"><ele>221.0</ele><time>2026-04-12T13:52:23Z</time></trkpt><trkpt lat="45.95419196841377" lon="11.719455015878715"><ele>230.60000000000002</ele><time>2026-04-12T13:52:24Z</time></trkpt><trkpt lat="45.95423581575499" lon="11.719324767437223"><ele>240.20000000000002</ele><time>2026-04-12T13:52:25Z</time></trkpt><trkpt lat="45.954277180510346" lon="11.719198613564764"><ele>249.79999999999998</ele><time>2026-04-12T13:52:26Z</time></trkpt><trkpt lat="45.954315544967535" lon="11.719080900264721"><ele>259.4</ele><time>2026-04-12T13:52:27Z</time></trkpt><trkpt lat="45.95434077445432" lon="11.718959044943162"><ele>269.0</ele><time>2026-04-12T13:52:28Z</time></trkpt><trkpt lat="45.954357805763934" lon="11.71884452266775"><ele>269.0</ele><time>2026-04-12T13:52:29Z</time></trkpt><trkpt lat="45.95436851494533" lon="11.718736139918285"><ele>269.0</ele><time>2026-04-12T13:52:30Z</time></trkpt><trkpt lat="45.954379020912455" lon="11.718610719669444"><ele>269.0</ele><time>2026-04-12T13:52:31Z</time></trkpt><trkpt lat="45.954409199869794" lon="11.718420289319436"><ele>269.0</ele><time>2026-04-12T13:52:32Z</time></trkpt><trkpt lat="45.95443598888952" lon="11.718181481830122"><ele>265.0</ele><time>2026-04-12T13:52:33Z</time></trkpt><trkpt lat="45.954468572561225" lon="11.717961395518342"><ele>261.0</ele><time>2026-04-12T13:52:34Z</time></trkpt><trkpt lat="45.95450028537567" lon="11.717754765433261"><ele>257.0</ele><time>2026-04-12T13:52:35Z</time></trkpt><trkpt lat="45.95452849803174" lon="11.717549087661933"><ele>253.0</ele><time>2026-04-12T13:52:36Z</time></trkpt><trkpt lat="45.95454256149762" lon="11.717334480552825"><ele>246.33333333333331</ele><time>2026-04-12T13:52:37Z</time></trkpt><trkpt lat="45.95455236230902" lon="11.717105670249415"><ele>239.66666666666669</ele><time>2026-04-12T13:52:38Z</time></trkpt><trkpt lat="45.95457184060717" lon="11.716864345763577"><ele>233.0</ele><time>2026-04-12T13:52:39Z</time></trkpt><trkpt lat="45.9545821587422" lon="11.716602847242367"><ele>229.66666666666669</ele><time>2026-04-12T13:52:40Z</time></trkpt><trkpt lat="45.95461148879988" lon="11.716333432552023"><ele>226.33333333333331</ele><time>2026-04-12T13:52:41Z</time></trkpt><trkpt lat="45.95463393777387" lon="11.716051249826556"><ele>223.0</ele><time>2026-04-12T13:52:42Z</time></trkpt><trkpt lat="45.954662240595795" lon="11.71576177740443"><ele>222.0</ele><time>2026-04-12T13:52:43Z</time></trkpt><trkpt lat="45.95469635157979" lon="11.715452310231482"><ele>221.0</ele><time>2026-04-12T13:52:44Z</time></trkpt><trkpt lat="45.95474210865132" lon="11.715147402673816"><ele>220.0</ele><time>2026-04-12T13:52:45Z</time></trkpt><trkpt lat="45.954800308289045" lon="11.714858513419362"><ele>219.66666666666666</ele><time>2026-04-12T13:52:46Z</time></trkpt><trkpt lat="45.954874772233595" lon="11.714583617366985"><ele>219.33333333333331</ele><time>2026-04-12T13:52:47Z</time></trkpt><trkpt lat="45.95495619903687" lon="11.714315891471935"><ele>219.0</ele><time>2026-04-12T13:52:48Z</time></trkpt><trkpt lat="45.95504887199721" lon="11.714044814860173"><ele>225.66666666666669</ele><time>2026-04-12T13:52:49Z</time></trkpt><trkpt lat="45.955160654721354" lon="11.713787345945148"><ele>232.33333333333334</ele><time>2026-04-12T13:52:50Z</time></trkpt><trkpt lat="45.95527874966026" lon="11.71353929268743"><ele>239.0</ele><time>2026-04-12T13:52:51Z</time></trkpt><trkpt lat="45.95541637870189" lon="11.713303568190122"><ele>239.0</ele><time>2026-04-12T13:52:52Z</time></trkpt><trkpt lat="45.9555735663812" lon="11.713080521730294"><ele>239.0</ele><time>2026-04-12T13:52:53Z</time></trkpt><trkpt lat="45.95573672203776" lon="11.712854100194905"><ele>239.0</ele><time>2026-04-12T13:52:54Z</time></trkpt><trkpt lat="45.95590940306334" lon="11.712625949165622"><ele>243.0</ele><time>2026-04-12T13:52:55Z</time></trkpt><trkpt lat="45.95607407419855" lon="11.712389553311596"><ele>247.0</ele><time>2026-04-12T13:52:56Z</time></trkpt><trkpt lat="45.95624428323602" lon="11.712150141933176"><ele>247.0</ele><time>2026-04-12T13:52:57Z</time></trkpt><trkpt lat="45.95642467100213" lon="11.711915244858105"><ele>247.0</ele><time>2026-04-12T13:52:58Z</time></trkpt><trkpt lat="45.95660580409833" lon="11.711694071353078"><ele>246.0</ele><time>2026-04-12T13:52:59Z</time></trkpt><trkpt lat="45.95678876105584" lon="11.711487127959998"><ele>245.0</ele><time>2026-04-12T13:53:00Z</time></trkpt><trkpt lat="45.95697869958907" lon="11.711297839935389"><ele>245.0</ele><time>2026-04-12T13:53:01Z</time></trkpt><trkpt lat="45.957182951577664" lon="11.711119384537938"><ele>245.0</ele><time>2026-04-12T13:53:02Z</time></trkpt><trkpt lat="45.957385716680484" lon="11.71094816159555"><ele>240.0</ele><time>2026-04-12T13:53:03Z</time></trkpt><trkpt lat="45.9575773916911" lon="11.710779801578616"><ele>235.0</ele><time>2026-04-12T13:53:04Z</time></trkpt><trkpt lat="45.95776938909406" lon="11.710607303154667"><ele>235.0</ele><time>2026-04-12T13:53:05Z</time></trkpt><trkpt lat="45.95795459432788" lon="11.710426223212515"><ele>235.0</ele><time>2026-04-12T13:53:06Z</time></trkpt><trkpt lat="45.958139629206464" lon="11.710240550662245"><ele>230.5</ele><time>2026-04-12T13:53:07Z</time></trkpt><trkpt lat="45.95833016706962" lon="11.710054726160067"><ele>226.0</ele><time>2026-04-12T13:53:08Z</time></trkpt><trkpt lat="45.95852422906561" lon="11.709871810682007"><ele>226.0</ele><time>2026-04-12T13:53:09Z</time></trkpt><trkpt lat="45.95871913295817" lon="11.709691947798017"><ele>226.0</ele><time>2026-04-12T13:53:10Z</time></trkpt><trkpt lat="45.95890891493604" lon="11.709519705063652"><ele>225.33333333333331</ele><time>2026-04-12T13:53:11Z</time></trkpt><trkpt lat="45.95909503239568" lon="11.709350213102562"><ele>224.66666666666669</ele><time>2026-04-12T13:53:12Z</time></trkpt><trkpt lat="45.95927513089786" lon="11.709179987726348"><ele>224.0</ele><time>2026-04-12T13:53:13Z</time></trkpt><trkpt lat="45.95945422806735" lon="11.709005709644856"><ele>224.0</ele><time>2026-04-12T13:53:14Z</time></trkpt><trkpt lat="45.95964208076374" lon="11.708817888964912"><ele>224.0</ele><time>2026-04-12T13:53:15Z</time></trkpt><trkpt lat="45.95984009167825" lon="11.708620085951242"><ele>219.0</ele><time>2026-04-12T13:53:16Z</time></trkpt><trkpt lat="45.96005639057789" lon="11.708401355401566"><ele>214.0</ele><time>2026-04-12T13:53:17Z</time></trkpt><trkpt lat="45.960288627632366" lon="11.708168121506509"><ele>214.0</ele><time>2026-04-12T13:53:17.999Z</time></trkpt><trkpt lat="45.9605195945647" lon="11.707948083585604"><ele>214.0</ele><time>2026-04-12T13:53:18.999Z</time></trkpt><trkpt lat="45.96073860721599" lon="11.707727989845635"><ele>216.0</ele><time>2026-04-12T13:53:19.999Z</time></trkpt><trkpt lat="45.96095358084517" lon="11.707495411438137"><ele>218.0</ele><time>2026-04-12T13:53:20.999Z</time></trkpt><trkpt lat="45.96121142052693" lon="11.70735384126675"><ele>218.0</ele><time>2026-04-12T13:53:21.999Z</time></trkpt><trkpt lat="45.96143000399952" lon="11.707156146087309"><ele>218.0</ele><time>2026-04-12T13:53:22.999Z</time></trkpt><trkpt lat="45.96163320409613" lon="11.70697181988301"><ele>216.0</ele><time>2026-04-12T13:53:23.999Z</time></trkpt><trkpt lat="45.961841471222115" lon="11.70680132907298"><ele>214.0</ele><time>2026-04-12T13:53:24.999Z</time></trkpt><trkpt lat="45.96202579941858" lon="11.706579005777442"><ele>214.0</ele><time>2026-04-12T13:53:25.999Z</time></trkpt><trkpt lat="45.96220358776124" lon="11.706367374708067"><ele>214.0</ele><time>2026-04-12T13:53:26.999Z</time></trkpt><trkpt lat="45.962374303469296" lon="11.706148271911664"><ele>214.5</ele><time>2026-04-12T13:53:27.999Z</time></trkpt><trkpt lat="45.96253784455772" lon="11.70591396838784"><ele>215.0</ele><time>2026-04-12T13:53:28.999Z</time></trkpt><trkpt lat="45.96268942427801" lon="11.705662187841474"><ele>215.0</ele><time>2026-04-12T13:53:29.999Z</time></trkpt><trkpt lat="45.96282637662371" lon="11.705401663893303"><ele>215.0</ele><time>2026-04-12T13:53:30.999Z</time></trkpt><trkpt lat="45.962954908457185" lon="11.705133297149793"><ele>214.5</ele><time>2026-04-12T13:53:31.999Z</time></trkpt><trkpt lat="45.96307508652954" lon="11.704855905229627"><ele>214.0</ele><time>2026-04-12T13:53:32.999Z</time></trkpt><trkpt lat="45.96319145104869" lon="11.704569538222147"><ele>214.0</ele><time>2026-04-12T13:53:33.999Z</time></trkpt><trkpt lat="45.96329636677889" lon="11.70427480420338"><ele>214.0</ele><time>2026-04-12T13:53:34.999Z</time></trkpt><trkpt lat="45.96339419490437" lon="11.703975447668954"><ele>214.0</ele><time>2026-04-12T13:53:35.999Z</time></trkpt><trkpt lat="45.96348429465555" lon="11.703670732110195"><ele>214.0</ele><time>2026-04-12T13:53:36.999Z</time></trkpt><trkpt lat="45.963559903266514" lon="11.703369106066184"><ele>214.0</ele><time>2026-04-12T13:53:37.999Z</time></trkpt><trkpt lat="45.96363229853769" lon="11.703065162856538"><ele>214.0</ele><time>2026-04-12T13:53:38.999Z</time></trkpt><trkpt lat="45.963712541237925" lon="11.702756979659162"><ele>214.0</ele><time>2026-04-12T13:53:39.999Z</time></trkpt><trkpt lat="45.963791911425275" lon="11.702454307402915"><ele>214.0</ele><time>2026-04-12T13:53:40.999Z</time></trkpt><trkpt lat="45.96387378545255" lon="11.70215558801991"><ele>214.0</ele><time>2026-04-12T13:53:41.999Z</time></trkpt><trkpt lat="45.96395013762309" lon="11.701850800484888"><ele>215.0</ele><time>2026-04-12T13:53:42.999Z</time></trkpt><trkpt lat="45.964019400150534" lon="11.70154121635322"><ele>216.0</ele><time>2026-04-12T13:53:43.999Z</time></trkpt><trkpt lat="45.96407025762293" lon="11.701222460586125"><ele>215.5</ele><time>2026-04-12T13:53:44.999Z</time></trkpt><trkpt lat="45.96410895322666" lon="11.700899616889123"><ele>215.0</ele><time>2026-04-12T13:53:45.999Z</time></trkpt><trkpt lat="45.96413665589482" lon="11.700572978358553"><ele>214.5</ele><time>2026-04-12T13:53:46.999Z</time></trkpt><trkpt lat="45.96414860742861" lon="11.70024244383436"><ele>214.0</ele><time>2026-04-12T13:53:47.999Z</time></trkpt><trkpt lat="45.96411635841756" lon="11.69991728951937"><ele>214.0</ele><time>2026-04-12T13:53:48.999Z</time></trkpt><trkpt lat="45.96411551951694" lon="11.699605932926456"><ele>214.0</ele><time>2026-04-12T13:53:49.999Z</time></trkpt><trkpt lat="45.96409753252432" lon="11.699292651931547"><ele>214.0</ele><time>2026-04-12T13:53:50.999Z</time></trkpt><trkpt lat="45.96407054349734" lon="11.698973039916975"><ele>214.0</ele><time>2026-04-12T13:53:51.999Z</time></trkpt><trkpt lat="45.96402734923043" lon="11.698665466150853"><ele>214.0</ele><time>2026-04-12T13:53:52.999Z</time></trkpt><trkpt lat="45.96397118341551" lon="11.698348976850252"><ele>214.0</ele><time>2026-04-12T13:53:53.999Z</time></trkpt><trkpt lat="45.96390954922739" lon="11.698036516507619"><ele>214.5</ele><time>2026-04-12T13:53:54.999Z</time></trkpt><trkpt lat="45.9638438624065" lon="11.697719659558004"><ele>215.0</ele><time>2026-04-12T13:53:55.999Z</time></trkpt><trkpt lat="45.9637834487962" lon="11.69739695820136"><ele>215.0</ele><time>2026-04-12T13:53:56.999Z</time></trkpt><trkpt lat="45.96371792668719" lon="11.697069066192924"><ele>215.0</ele><time>2026-04-12T13:53:57.999Z</time></trkpt><trkpt lat="45.96365672516248" lon="11.69674434391198"><ele>215.5</ele><time>2026-04-12T13:53:58.999Z</time></trkpt><trkpt lat="45.96360062912276" lon="11.696409641789128"><ele>216.0</ele><time>2026-04-12T13:53:59.999Z</time></trkpt><trkpt lat="45.963550256896426" lon="11.696077928812539"><ele>216.5</ele><time>2026-04-12T13:54:00.999Z</time></trkpt><trkpt lat="45.96350731021797" lon="11.695751600559616"><ele>217.0</ele><time>2026-04-12T13:54:01.999Z</time></trkpt><trkpt lat="45.96347044093897" lon="11.695418119964744"><ele>219.0</ele><time>2026-04-12T13:54:02.999Z</time></trkpt><trkpt lat="45.96345170194054" lon="11.695080937799709"><ele>221.0</ele><time>2026-04-12T13:54:03.999Z</time></trkpt><trkpt lat="45.96344495401421" lon="11.694742904508427"><ele>219.5</ele><time>2026-04-12T13:54:04.999Z</time></trkpt><trkpt lat="45.96345789452452" lon="11.69439466325399"><ele>218.0</ele><time>2026-04-12T13:54:05.999Z</time></trkpt><trkpt lat="45.96347692845948" lon="11.694055969902603"><ele>218.0</ele><time>2026-04-12T13:54:06.999Z</time></trkpt><trkpt lat="45.963513801042275" lon="11.69371591142213"><ele>218.0</ele><time>2026-04-12T13:54:07.999Z</time></trkpt><trkpt lat="45.963562164329915" lon="11.693376402318917"><ele>218.0</ele><time>2026-04-12T13:54:08.999Z</time></trkpt><trkpt lat="45.96362195271377" lon="11.693047900257335"><ele>218.0</ele><time>2026-04-12T13:54:09.999Z</time></trkpt><trkpt lat="45.9636870877653" lon="11.6927223817616"><ele>217.0</ele><time>2026-04-12T13:54:10.999Z</time></trkpt><trkpt lat="45.963768492173635" lon="11.692406575718849"><ele>216.0</ele><time>2026-04-12T13:54:11.999Z</time></trkpt><trkpt lat="45.96385994250742" lon="11.692097896587935"><ele>215.5</ele><time>2026-04-12T13:54:12.999Z</time></trkpt><trkpt lat="45.96396093073756" lon="11.69180522729024"><ele>215.0</ele><time>2026-04-12T13:54:13.999Z</time></trkpt><trkpt lat="45.96407305570119" lon="11.69151757621607"><ele>215.0</ele><time>2026-04-12T13:54:14.999Z</time></trkpt><trkpt lat="45.964194533734975" lon="11.691241624419856"><ele>215.0</ele><time>2026-04-12T13:54:15.999Z</time></trkpt><trkpt lat="45.96432109426104" lon="11.690978370066109"><ele>217.5</ele><time>2026-04-12T13:54:16.999Z</time></trkpt><trkpt lat="45.964458154369375" lon="11.690718196172245"><ele>220.0</ele><time>2026-04-12T13:54:17.999Z</time></trkpt><trkpt lat="45.964604520737886" lon="11.690460321049743"><ele>219.5</ele><time>2026-04-12T13:54:18.999Z</time></trkpt><trkpt lat="45.96474609963587" lon="11.690200683844715"><ele>219.0</ele><time>2026-04-12T13:54:19.999Z</time></trkpt><trkpt lat="45.964887624599406" lon="11.689936593346841"><ele>219.0</ele><time>2026-04-12T13:54:20.999Z</time></trkpt><trkpt lat="45.96502234637268" lon="11.689672643858803"><ele>219.0</ele><time>2026-04-12T13:54:21.999Z</time></trkpt><trkpt lat="45.96516328822514" lon="11.689409306102624"><ele>218.5</ele><time>2026-04-12T13:54:22.999Z</time></trkpt><trkpt lat="45.965301617567164" lon="11.689146755947338"><ele>218.0</ele><time>2026-04-12T13:54:23.999Z</time></trkpt><trkpt lat="45.965439767478685" lon="11.688886320602176"><ele>218.0</ele><time>2026-04-12T13:54:24.999Z</time></trkpt><trkpt lat="45.965580023640044" lon="11.68862686538164"><ele>218.0</ele><time>2026-04-12T13:54:25.999Z</time></trkpt><trkpt lat="45.96571554768461" lon="11.688372776816566"><ele>217.66666666666669</ele><time>2026-04-12T13:54:27Z</time></trkpt><trkpt lat="45.96584983317859" lon="11.688124497662654"><ele>217.33333333333331</ele><time>2026-04-12T13:54:28Z</time></trkpt><trkpt lat="45.96598882478454" lon="11.687886820100113"><ele>217.0</ele><time>2026-04-12T13:54:29Z</time></trkpt><trkpt lat="45.96613421862259" lon="11.687659746872733"><ele>218.0</ele><time>2026-04-12T13:54:30Z</time></trkpt><trkpt lat="45.96628450237752" lon="11.687449185511058"><ele>219.0</ele><time>2026-04-12T13:54:31Z</time></trkpt><trkpt lat="45.96644800752008" lon="11.687250342173973"><ele>220.0</ele><time>2026-04-12T13:54:32Z</time></trkpt><trkpt lat="45.96660744393639" lon="11.687060474543888"><ele>219.66666666666666</ele><time>2026-04-12T13:54:33Z</time></trkpt><trkpt lat="45.96678218364038" lon="11.686866819545944"><ele>219.33333333333331</ele><time>2026-04-12T13:54:34Z</time></trkpt><trkpt lat="45.96696102835616" lon="11.686681450216895"><ele>219.0</ele><time>2026-04-12T13:54:35Z</time></trkpt><trkpt lat="45.967147267358975" lon="11.686504472560992"><ele>219.0</ele><time>2026-04-12T13:54:36Z</time></trkpt><trkpt lat="45.96735030888331" lon="11.686334950023122"><ele>219.0</ele><time>2026-04-12T13:54:37Z</time></trkpt><trkpt lat="45.96755620667655" lon="11.68616755296436"><ele>221.0</ele><time>2026-04-12T13:54:38Z</time></trkpt><trkpt lat="45.967769499301305" lon="11.686007354567167"><ele>223.0</ele><time>2026-04-12T13:54:39Z</time></trkpt><trkpt lat="45.96797782190415" lon="11.685834174020513"><ele>223.0</ele><time>2026-04-12T13:54:40Z</time></trkpt><trkpt lat="45.968177504553466" lon="11.685666058173068"><ele>223.0</ele><time>2026-04-12T13:54:41Z</time></trkpt><trkpt lat="45.968376546010575" lon="11.685499660019982"><ele>222.66666666666666</ele><time>2026-04-12T13:54:42Z</time></trkpt><trkpt lat="45.96856677527408" lon="11.685346200027006"><ele>222.33333333333331</ele><time>2026-04-12T13:54:43Z</time></trkpt><trkpt lat="45.96875649225472" lon="11.685225780313377"><ele>222.0</ele><time>2026-04-12T13:54:44Z</time></trkpt><trkpt lat="45.9689614840872" lon="11.685107833238487"><ele>221.66666666666669</ele><time>2026-04-12T13:54:45Z</time></trkpt><trkpt lat="45.96916656103478" lon="11.685006093298243"><ele>221.33333333333334</ele><time>2026-04-12T13:54:46Z</time></trkpt><trkpt lat="45.969382996839805" lon="11.684915000143032"><ele>221.0</ele><time>2026-04-12T13:54:47Z</time></trkpt><trkpt lat="45.969607579246095" lon="11.684824691692123"><ele>221.0</ele><time>2026-04-12T13:54:48Z</time></trkpt><trkpt lat="45.96983285619759" lon="11.684745004488361"><ele>221.0</ele><time>2026-04-12T13:54:49Z</time></trkpt><trkpt lat="45.97007064470464" lon="11.684674336253243"><ele>221.0</ele><time>2026-04-12T13:54:50Z</time></trkpt><trkpt lat="45.970304681267535" lon="11.68459667135647"><ele>221.0</ele><time>2026-04-12T13:54:51Z</time></trkpt><trkpt lat="45.97053965159651" lon="11.684511136806332"><ele>221.0</ele><time>2026-04-12T13:54:52Z</time></trkpt><trkpt lat="45.97077765565142" lon="11.684415255054702"><ele>221.0</ele><time>2026-04-12T13:54:53Z</time></trkpt><trkpt lat="45.97101010587994" lon="11.684302340449861"><ele>221.0</ele><time>2026-04-12T13:54:54Z</time></trkpt><trkpt lat="45.97124715515806" lon="11.684173829605427"><ele>221.0</ele><time>2026-04-12T13:54:55Z</time></trkpt><trkpt lat="45.97147353073368" lon="11.68402667075559"><ele>222.0</ele><time>2026-04-12T13:54:56Z</time></trkpt><trkpt lat="45.97170044445057" lon="11.68387073566408"><ele>223.0</ele><time>2026-04-12T13:54:57Z</time></trkpt><trkpt lat="45.971926637281626" lon="11.683710336715732"><ele>221.0</ele><time>2026-04-12T13:54:58Z</time></trkpt><trkpt lat="45.97215442903396" lon="11.683553484329606"><ele>219.0</ele><time>2026-04-12T13:54:59Z</time></trkpt><trkpt lat="45.97238500689631" lon="11.683402955313653"><ele>221.5</ele><time>2026-04-12T13:55:00Z</time></trkpt><trkpt lat="45.97261486651915" lon="11.683251150622239"><ele>224.0</ele><time>2026-04-12T13:55:01Z</time></trkpt><trkpt lat="45.972843412475434" lon="11.68309301019433"><ele>224.0</ele><time>2026-04-12T13:55:02Z</time></trkpt><trkpt lat="45.97306837905425" lon="11.682934874559415"><ele>224.0</ele><time>2026-04-12T13:55:03Z</time></trkpt><trkpt lat="45.97329643081569" lon="11.682779056799372"><ele>224.0</ele><time>2026-04-12T13:55:04Z</time></trkpt><trkpt lat="45.9735219058162" lon="11.68262098100326"><ele>224.0</ele><time>2026-04-12T13:55:05Z</time></trkpt><trkpt lat="45.973744020995326" lon="11.682468383064379"><ele>224.0</ele><time>2026-04-12T13:55:06Z</time></trkpt><trkpt lat="45.97395540939301" lon="11.68232199705658"><ele>224.0</ele><time>2026-04-12T13:55:07Z</time></trkpt><trkpt lat="45.9741464640117" lon="11.682186043415976"><ele>224.0</ele><time>2026-04-12T13:55:08Z</time></trkpt><trkpt lat="45.97433520771925" lon="11.68205451799842"><ele>224.0</ele><time>2026-04-12T13:55:09Z</time></trkpt><trkpt lat="45.974523671977714" lon="11.681916145348893"><ele>224.0</ele><time>2026-04-12T13:55:10Z</time></trkpt><trkpt lat="45.97472619753942" lon="11.681793428988271"><ele>224.0</ele><time>2026-04-12T13:55:11Z</time></trkpt><trkpt lat="45.97489549411205" lon="11.681668452300942"><ele>225.0</ele><time>2026-04-12T13:55:12Z</time></trkpt><trkpt lat="45.97507910062961" lon="11.68154923387404"><ele>226.0</ele><time>2026-04-12T13:55:13Z</time></trkpt><trkpt lat="45.97527043082154" lon="11.681401141520395"><ele>227.0</ele><time>2026-04-12T13:55:14Z</time></trkpt><trkpt lat="45.9754560965557" lon="11.681251756956156"><ele>226.66666666666669</ele><time>2026-04-12T13:55:15Z</time></trkpt><trkpt lat="45.97563808410076" lon="11.681096341463196"><ele>226.33333333333331</ele><time>2026-04-12T13:55:16Z</time></trkpt><trkpt lat="45.975817614335995" lon="11.68093081445648"><ele>226.0</ele><time>2026-04-12T13:55:17Z</time></trkpt><trkpt lat="45.975988947878704" lon="11.68075316050988"><ele>225.33333333333331</ele><time>2026-04-12T13:55:18Z</time></trkpt><trkpt lat="45.97615872956756" lon="11.680565224861358"><ele>224.66666666666669</ele><time>2026-04-12T13:55:19Z</time></trkpt><trkpt lat="45.97632981068269" lon="11.68037551920913"><ele>224.0</ele><time>2026-04-12T13:55:19.999Z</time></trkpt><trkpt lat="45.976509775569276" lon="11.680181682368119"><ele>224.0</ele><time>2026-04-12T13:55:20.999Z</time></trkpt><trkpt lat="45.97668441459067" lon="11.679990101086426"><ele>224.0</ele><time>2026-04-12T13:55:21.999Z</time></trkpt><trkpt lat="45.97686904767466" lon="11.679791581393122"><ele>224.0</ele><time>2026-04-12T13:55:22.999Z</time></trkpt><trkpt lat="45.977060135166866" lon="11.679596908883552"><ele>224.0</ele><time>2026-04-12T13:55:23.999Z</time></trkpt><trkpt lat="45.9772538350592" lon="11.679405514733563"><ele>224.0</ele><time>2026-04-12T13:55:24.999Z</time></trkpt><trkpt lat="45.977457653735186" lon="11.679225680739046"><ele>224.0</ele><time>2026-04-12T13:55:25.999Z</time></trkpt><trkpt lat="45.977667352313055" lon="11.679066350114883"><ele>225.5</ele><time>2026-04-12T13:55:26.999Z</time></trkpt><trkpt lat="45.9778850276029" lon="11.678915906467424"><ele>227.0</ele><time>2026-04-12T13:55:27.999Z</time></trkpt><trkpt lat="45.9781096181284" lon="11.678776285477257"><ele>227.0</ele><time>2026-04-12T13:55:28.999Z</time></trkpt><trkpt lat="45.97834759923613" lon="11.678648586949471"><ele>227.0</ele><time>2026-04-12T13:55:29.999Z</time></trkpt><trkpt lat="45.9785778656966" lon="11.678539992512304"><ele>228.0</ele><time>2026-04-12T13:55:30.999Z</time></trkpt><trkpt lat="45.97881699124049" lon="11.678442698560826"><ele>229.0</ele><time>2026-04-12T13:55:31.999Z</time></trkpt><trkpt lat="45.97906839749691" lon="11.678354007147004"><ele>232.5</ele><time>2026-04-12T13:55:32.999Z</time></trkpt><trkpt lat="45.97931162751037" lon="11.678263374399238"><ele>236.0</ele><time>2026-04-12T13:55:33.999Z</time></trkpt><trkpt lat="45.979553333145965" lon="11.678167170846645"><ele>236.0</ele><time>2026-04-12T13:55:34.999Z</time></trkpt><trkpt lat="45.9797920749795" lon="11.678067511563034"><ele>236.0</ele><time>2026-04-12T13:55:35.999Z</time></trkpt><trkpt lat="45.98002234529941" lon="11.677966776490495"><ele>239.0</ele><time>2026-04-12T13:55:36.999Z</time></trkpt><trkpt lat="45.980256846214544" lon="11.677871397893707"><ele>242.0</ele><time>2026-04-12T13:55:37.999Z</time></trkpt><trkpt lat="45.980484290542485" lon="11.677776897136855"><ele>241.0</ele><time>2026-04-12T13:55:38.999Z</time></trkpt><trkpt lat="45.9807165184652" lon="11.677682694076221"><ele>240.0</ele><time>2026-04-12T13:55:39.999Z</time></trkpt><trkpt lat="45.980952311291546" lon="11.67759249728861"><ele>240.0</ele><time>2026-04-12T13:55:40.999Z</time></trkpt><trkpt lat="45.98118395768465" lon="11.677503469336308"><ele>240.0</ele><time>2026-04-12T13:55:41.999Z</time></trkpt><trkpt lat="45.98142440659063" lon="11.677415823949506"><ele>240.0</ele><time>2026-04-12T13:55:42.999Z</time></trkpt><trkpt lat="45.98165659287664" lon="11.67732658062663"><ele>240.0</ele><time>2026-04-12T13:55:43.999Z</time></trkpt><trkpt lat="45.981891541851226" lon="11.677236997631224"><ele>243.0</ele><time>2026-04-12T13:55:44.999Z</time></trkpt><trkpt lat="45.98212939094786" lon="11.677141835325298"><ele>246.0</ele><time>2026-04-12T13:55:45.999Z</time></trkpt><trkpt lat="45.98236389202641" lon="11.677041513081122"><ele>246.0</ele><time>2026-04-12T13:55:46.999Z</time></trkpt><trkpt lat="45.98260152945049" lon="11.676945059897877"><ele>246.0</ele><time>2026-04-12T13:55:47.999Z</time></trkpt><trkpt lat="45.98283912531922" lon="11.676854009366696"><ele>246.0</ele><time>2026-04-12T13:55:48.999Z</time></trkpt><trkpt lat="45.983076391976084" lon="11.676757726747715"><ele>246.0</ele><time>2026-04-12T13:55:49.999Z</time></trkpt><trkpt lat="45.983311284635164" lon="11.67665454181971"><ele>251.5</ele><time>2026-04-12T13:55:50.999Z</time></trkpt><trkpt lat="45.98354312818474" lon="11.676545903023454"><ele>257.0</ele><time>2026-04-12T13:55:51.999Z</time></trkpt><trkpt lat="45.983769999984546" lon="11.676425342354054"><ele>257.0</ele><time>2026-04-12T13:55:52.999Z</time></trkpt><trkpt lat="45.98399220670534" lon="11.676289834698634"><ele>257.0</ele><time>2026-04-12T13:55:53.999Z</time></trkpt><trkpt lat="45.98421647975913" lon="11.676146624704433"><ele>252.0</ele><time>2026-04-12T13:55:54.999Z</time></trkpt><trkpt lat="45.98444185914064" lon="11.675996786098823"><ele>247.0</ele><time>2026-04-12T13:55:55.999Z</time></trkpt><trkpt lat="45.98465927001809" lon="11.675837472154315"><ele>247.0</ele><time>2026-04-12T13:55:56.999Z</time></trkpt><trkpt lat="45.98487513017573" lon="11.675668861000604"><ele>247.0</ele><time>2026-04-12T13:55:57.999Z</time></trkpt><trkpt lat="45.985089615080526" lon="11.675497923010287"><ele>248.0</ele><time>2026-04-12T13:55:58.999Z</time></trkpt><trkpt lat="45.98530515678918" lon="11.675304075393205"><ele>249.0</ele><time>2026-04-12T13:55:59.999Z</time></trkpt><trkpt lat="45.98551333239296" lon="11.67511560999099"><ele>244.0</ele><time>2026-04-12T13:56:00.999Z</time></trkpt><trkpt lat="45.98572368939625" lon="11.674906621599497"><ele>239.0</ele><time>2026-04-12T13:56:01.999Z</time></trkpt><trkpt lat="45.9859220261707" lon="11.674696262464128"><ele>239.0</ele><time>2026-04-12T13:56:02.999Z</time></trkpt><trkpt lat="45.98612520054535" lon="11.67448272438453"><ele>239.0</ele><time>2026-04-12T13:56:03.999Z</time></trkpt><trkpt lat="45.98632721219285" lon="11.674264540932327"><ele>237.0</ele><time>2026-04-12T13:56:04.999Z</time></trkpt><trkpt lat="45.98652569006653" lon="11.67405383314208"><ele>235.0</ele><time>2026-04-12T13:56:05.999Z</time></trkpt><trkpt lat="45.98672456257106" lon="11.673840046085736"><ele>235.0</ele><time>2026-04-12T13:56:06.999Z</time></trkpt><trkpt lat="45.986923008013186" lon="11.673627909890847"><ele>235.0</ele><time>2026-04-12T13:56:07.999Z</time></trkpt><trkpt lat="45.98711317140978" lon="11.673428210572748"><ele>231.0</ele><time>2026-04-12T13:56:08.999Z</time></trkpt><trkpt lat="45.9873022338078" lon="11.673227467173005"><ele>227.0</ele><time>2026-04-12T13:56:09.999Z</time></trkpt><trkpt lat="45.98748487969457" lon="11.673025801980332"><ele>227.5</ele><time>2026-04-12T13:56:10.999Z</time></trkpt><trkpt lat="45.98767137577397" lon="11.672822817926445"><ele>228.0</ele><time>2026-04-12T13:56:11.999Z</time></trkpt><trkpt lat="45.98786206891346" lon="11.672613729217613"><ele>228.0</ele><time>2026-04-12T13:56:12.999Z</time></trkpt><trkpt lat="45.988057359413894" lon="11.672403684061068"><ele>228.0</ele><time>2026-04-12T13:56:13.999Z</time></trkpt><trkpt lat="45.98825125828602" lon="11.672198404496468"><ele>228.0</ele><time>2026-04-12T13:56:14.999Z</time></trkpt><trkpt lat="45.98845207949509" lon="11.671994926241409"><ele>228.0</ele><time>2026-04-12T13:56:15.999Z</time></trkpt><trkpt lat="45.98865969791774" lon="11.671795578320365"><ele>228.0</ele><time>2026-04-12T13:56:16.999Z</time></trkpt><trkpt lat="45.98886964259146" lon="11.671599339134328"><ele>228.0</ele><time>2026-04-12T13:56:17.999Z</time></trkpt><trkpt lat="45.989080222538" lon="11.671411502090939"><ele>229.0</ele><time>2026-04-12T13:56:18.999Z</time></trkpt><trkpt lat="45.98928466212818" lon="11.671225125717019"><ele>230.0</ele><time>2026-04-12T13:56:19.999Z</time></trkpt><trkpt lat="45.98948431683892" lon="11.671034620620398"><ele>230.0</ele><time>2026-04-12T13:56:20.999Z</time></trkpt><trkpt lat="45.98967808628368" lon="11.670849209449328"><ele>230.0</ele><time>2026-04-12T13:56:21.999Z</time></trkpt><trkpt lat="45.989874639478685" lon="11.670662128845745"><ele>230.0</ele><time>2026-04-12T13:56:22.999Z</time></trkpt><trkpt lat="45.99007249419064" lon="11.670481269688851"><ele>230.0</ele><time>2026-04-12T13:56:23.999Z</time></trkpt><trkpt lat="45.990269440500406" lon="11.670294986003285"><ele>230.0</ele><time>2026-04-12T13:56:24.999Z</time></trkpt><trkpt lat="45.99046766300367" lon="11.670102877496255"><ele>230.0</ele><time>2026-04-12T13:56:25.999Z</time></trkpt><trkpt lat="45.99066886879974" lon="11.66991639854603"><ele>230.5</ele><time>2026-04-12T13:56:26.999Z</time></trkpt><trkpt lat="45.99086941023374" lon="11.669731018570408"><ele>231.0</ele><time>2026-04-12T13:56:27.999Z</time></trkpt><trkpt lat="45.9910685201716" lon="11.669543778475214"><ele>230.5</ele><time>2026-04-12T13:56:28.998Z</time></trkpt><trkpt lat="45.9912694302884" lon="11.66936077949714"><ele>230.0</ele><time>2026-04-12T13:56:29.998Z</time></trkpt><trkpt lat="45.991469498039244" lon="11.669176891930368"><ele>230.0</ele><time>2026-04-12T13:56:30.998Z</time></trkpt><trkpt lat="45.991666809519394" lon="11.668994106497067"><ele>230.0</ele><time>2026-04-12T13:56:31.998Z</time></trkpt><trkpt lat="45.99186717783886" lon="11.668810648206058"><ele>230.0</ele><time>2026-04-12T13:56:33Z</time></trkpt><trkpt lat="45.99206983720787" lon="11.668633812761161"><ele>230.0</ele><time>2026-04-12T13:56:34Z</time></trkpt><trkpt lat="45.99227121445093" lon="11.668460495950402"><ele>230.5</ele><time>2026-04-12T13:56:35Z</time></trkpt><trkpt lat="45.9924835187758" lon="11.668292985937171"><ele>231.0</ele><time>2026-04-12T13:56:36Z</time></trkpt><trkpt lat="45.992700935834044" lon="11.66812847022857"><ele>232.0</ele><time>2026-04-12T13:56:37Z</time></trkpt><trkpt lat="45.992922222197066" lon="11.667969152322646"><ele>233.0</ele><time>2026-04-12T13:56:38Z</time></trkpt><trkpt lat="45.993142952921275" lon="11.667810918680408"><ele>232.0</ele><time>2026-04-12T13:56:39Z</time></trkpt><trkpt lat="45.993366775111504" lon="11.667654681388441"><ele>231.0</ele><time>2026-04-12T13:56:40Z</time></trkpt><trkpt lat="45.99359481164466" lon="11.667504755570208"><ele>231.0</ele><time>2026-04-12T13:56:41Z</time></trkpt><trkpt lat="45.99383278670355" lon="11.667359964750828"><ele>231.0</ele><time>2026-04-12T13:56:42Z</time></trkpt><trkpt lat="45.994065497834825" lon="11.66722078207646"><ele>231.5</ele><time>2026-04-12T13:56:43Z</time></trkpt><trkpt lat="45.9943014811411" lon="11.667089695588393"><ele>232.0</ele><time>2026-04-12T13:56:44Z</time></trkpt><trkpt lat="45.994544211328034" lon="11.666965496740998"><ele>232.5</ele><time>2026-04-12T13:56:45Z</time></trkpt><trkpt lat="45.99479144847314" lon="11.666849062257436"><ele>233.0</ele><time>2026-04-12T13:56:46Z</time></trkpt><trkpt lat="45.99503322417713" lon="11.666731728921635"><ele>233.0</ele><time>2026-04-12T13:56:47Z</time></trkpt><trkpt lat="45.99527876872594" lon="11.666623957734545"><ele>233.0</ele><time>2026-04-12T13:56:48Z</time></trkpt><trkpt lat="45.99551627226705" lon="11.666523388593816"><ele>233.0</ele><time>2026-04-12T13:56:49Z</time></trkpt><trkpt lat="45.99575211132452" lon="11.6664283209279"><ele>233.0</ele><time>2026-04-12T13:56:50Z</time></trkpt><trkpt lat="45.99598468248756" lon="11.666338107448587"><ele>233.0</ele><time>2026-04-12T13:56:51Z</time></trkpt><trkpt lat="45.99621392258478" lon="11.666247951217922"><ele>233.0</ele><time>2026-04-12T13:56:52Z</time></trkpt><trkpt lat="45.99644043376547" lon="11.666161687238654"><ele>233.0</ele><time>2026-04-12T13:56:53Z</time></trkpt><trkpt lat="45.99665360381335" lon="11.666068600281056"><ele>233.0</ele><time>2026-04-12T13:56:54Z</time></trkpt><trkpt lat="45.99687115748231" lon="11.665979098924616"><ele>233.0</ele><time>2026-04-12T13:56:55Z</time></trkpt><trkpt lat="45.997094138080946" lon="11.66589585611703"><ele>233.0</ele><time>2026-04-12T13:56:56Z</time></trkpt><trkpt lat="45.99731450047233" lon="11.665810350574654"><ele>233.0</ele><time>2026-04-12T13:56:57Z</time></trkpt><trkpt lat="45.997534258282606" lon="11.665724273410994"><ele>233.0</ele><time>2026-04-12T13:56:58Z</time></trkpt><trkpt lat="45.99775340036092" lon="11.665636997800554"><ele>233.0</ele><time>2026-04-12T13:56:59Z</time></trkpt><trkpt lat="45.9979754609714" lon="11.665549439945842"><ele>233.0</ele><time>2026-04-12T13:57:00Z</time></trkpt><trkpt lat="45.99819719879994" lon="11.66546060706162"><ele>233.0</ele><time>2026-04-12T13:57:01Z</time></trkpt><trkpt lat="45.99841848672916" lon="11.665370551247927"><ele>233.0</ele><time>2026-04-12T13:57:02Z</time></trkpt><trkpt lat="45.99864393218831" lon="11.665289491330215"><ele>233.0</ele><time>2026-04-12T13:57:03Z</time></trkpt><trkpt lat="45.99886746561586" lon="11.665203596148178"><ele>233.0</ele><time>2026-04-12T13:57:04Z</time></trkpt><trkpt lat="45.99909260102657" lon="11.665114875174869"><ele>233.0</ele><time>2026-04-12T13:57:05Z</time></trkpt><trkpt lat="45.9993176155138" lon="11.665023466650798"><ele>233.0</ele><time>2026-04-12T13:57:06Z</time></trkpt><trkpt lat="45.99954777297338" lon="11.664931899831373"><ele>233.0</ele><time>2026-04-12T13:57:07Z</time></trkpt><trkpt lat="45.9997772325222" lon="11.664837582319302"><ele>233.0</ele><time>2026-04-12T13:57:08Z</time></trkpt><trkpt lat="46.000010800120094" lon="11.664733352122958"><ele>233.0</ele><time>2026-04-12T13:57:09Z</time></trkpt><trkpt lat="46.00024708663992" lon="11.664609139731272"><ele>233.0</ele><time>2026-04-12T13:57:10Z</time></trkpt><trkpt lat="46.00047888886217" lon="11.664467697603607"><ele>233.0</ele><time>2026-04-12T13:57:11Z</time></trkpt><trkpt lat="46.00070183083962" lon="11.664307776349464"><ele>235.0</ele><time>2026-04-12T13:57:12Z</time></trkpt><trkpt lat="46.000920764845795" lon="11.664132207971774"><ele>237.0</ele><time>2026-04-12T13:57:13Z</time></trkpt><trkpt lat="46.00113317445693" lon="11.663945593823822"><ele>237.0</ele><time>2026-04-12T13:57:14Z</time></trkpt><trkpt lat="46.00133952657856" lon="11.663748377886561"><ele>237.0</ele><time>2026-04-12T13:57:15Z</time></trkpt><trkpt lat="46.00154062883573" lon="11.663536408405191"><ele>238.0</ele><time>2026-04-12T13:57:16Z</time></trkpt><trkpt lat="46.0017318684446" lon="11.663307633308314"><ele>239.0</ele><time>2026-04-12T13:57:17Z</time></trkpt><trkpt lat="46.00191564721188" lon="11.663063949724634"><ele>239.0</ele><time>2026-04-12T13:57:18Z</time></trkpt><trkpt lat="46.00209130034513" lon="11.66281166640902"><ele>239.0</ele><time>2026-04-12T13:57:19Z</time></trkpt><trkpt lat="46.00226443582416" lon="11.662546985265228"><ele>239.0</ele><time>2026-04-12T13:57:20Z</time></trkpt><trkpt lat="46.002432116057726" lon="11.662272666025352"><ele>239.0</ele><time>2026-04-12T13:57:21Z</time></trkpt><trkpt lat="46.00258823722983" lon="11.661990688662234"><ele>238.0</ele><time>2026-04-12T13:57:21.999Z</time></trkpt><trkpt lat="46.00273026854978" lon="11.661694294998297"><ele>237.0</ele><time>2026-04-12T13:57:22.999Z</time></trkpt><trkpt lat="46.00286376441762" lon="11.661384694395698"><ele>237.0</ele><time>2026-04-12T13:57:23.999Z</time></trkpt><trkpt lat="46.002985748508706" lon="11.661065797836768"><ele>237.0</ele><time>2026-04-12T13:57:24.999Z</time></trkpt><trkpt lat="46.00309977894228" lon="11.660739968804858"><ele>237.0</ele><time>2026-04-12T13:57:25.999Z</time></trkpt><trkpt lat="46.0032059514223" lon="11.660406641369638"><ele>237.0</ele><time>2026-04-12T13:57:26.999Z</time></trkpt><trkpt lat="46.003305494225145" lon="11.660069801173888"><ele>237.0</ele><time>2026-04-12T13:57:27.999Z</time></trkpt><trkpt lat="46.003392228315626" lon="11.659728910956316"><ele>237.0</ele><time>2026-04-12T13:57:28.999Z</time></trkpt><trkpt lat="46.003479211602276" lon="11.65938065232885"><ele>238.0</ele><time>2026-04-12T13:57:29.999Z</time></trkpt><trkpt lat="46.003561961562376" lon="11.659028222425707"><ele>239.0</ele><time>2026-04-12T13:57:30.999Z</time></trkpt><trkpt lat="46.00364728834756" lon="11.658680424129976"><ele>239.5</ele><time>2026-04-12T13:57:31.999Z</time></trkpt><trkpt lat="46.003736587436144" lon="11.658334695420358"><ele>240.0</ele><time>2026-04-12T13:57:32.999Z</time></trkpt><trkpt lat="46.003825567784254" lon="11.657998838685748"><ele>238.5</ele><time>2026-04-12T13:57:33.999Z</time></trkpt><trkpt lat="46.00390354042278" lon="11.657680751286687"><ele>237.0</ele><time>2026-04-12T13:57:34.999Z</time></trkpt><trkpt lat="46.00398819190859" lon="11.657359345219627"><ele>237.0</ele><time>2026-04-12T13:57:35.999Z</time></trkpt><trkpt lat="46.004070301926774" lon="11.657038183855184"><ele>237.0</ele><time>2026-04-12T13:57:36.999Z</time></trkpt><trkpt lat="46.004145892906884" lon="11.65672364973108"><ele>237.5</ele><time>2026-04-12T13:57:37.999Z</time></trkpt><trkpt lat="46.004225509401856" lon="11.656403365900735"><ele>238.0</ele><time>2026-04-12T13:57:38.999Z</time></trkpt><trkpt lat="46.00430187592774" lon="11.656085454789206"><ele>238.0</ele><time>2026-04-12T13:57:39.999Z</time></trkpt><trkpt lat="46.004381203196665" lon="11.655766339047256"><ele>238.0</ele><time>2026-04-12T13:57:40.999Z</time></trkpt><trkpt lat="46.004456445930984" lon="11.655448092926946"><ele>238.0</ele><time>2026-04-12T13:57:41.999Z</time></trkpt><trkpt lat="46.00453667244341" lon="11.655128360120523"><ele>238.0</ele><time>2026-04-12T13:57:42.999Z</time></trkpt><trkpt lat="46.0046163453996" lon="11.65480843731284"><ele>238.0</ele><time>2026-04-12T13:57:43.999Z</time></trkpt><trkpt lat="46.00469692613299" lon="11.654486990465209"><ele>238.0</ele><time>2026-04-12T13:57:44.999Z</time></trkpt><trkpt lat="46.00477839453336" lon="11.654158213771748"><ele>238.0</ele><time>2026-04-12T13:57:45.999Z</time></trkpt><trkpt lat="46.00485675146995" lon="11.653831777185438"><ele>238.0</ele><time>2026-04-12T13:57:46.999Z</time></trkpt><trkpt lat="46.00493633901345" lon="11.653507145022727"><ele>238.5</ele><time>2026-04-12T13:57:47.999Z</time></trkpt><trkpt lat="46.00502170686278" lon="11.65318015294279"><ele>239.0</ele><time>2026-04-12T13:57:48.999Z</time></trkpt><trkpt lat="46.005105407275224" lon="11.652851596192999"><ele>239.0</ele><time>2026-04-12T13:57:49.999Z</time></trkpt><trkpt lat="46.005193412866284" lon="11.652519771730478"><ele>239.0</ele><time>2026-04-12T13:57:50.999Z</time></trkpt><trkpt lat="46.0052845583813" lon="11.652192179357705"><ele>239.0</ele><time>2026-04-12T13:57:51.999Z</time></trkpt><trkpt lat="46.00538062063891" lon="11.651866730593438"><ele>239.0</ele><time>2026-04-12T13:57:52.999Z</time></trkpt><trkpt lat="46.005485303453426" lon="11.651556003827759"><ele>239.0</ele><time>2026-04-12T13:57:53.999Z</time></trkpt><trkpt lat="46.00560710923756" lon="11.651253358284638"><ele>239.0</ele><time>2026-04-12T13:57:54.999Z</time></trkpt><trkpt lat="46.0057442893953" lon="11.650967167853619"><ele>238.5</ele><time>2026-04-12T13:57:55.999Z</time></trkpt><trkpt lat="46.00589412717861" lon="11.650688595563492"><ele>238.0</ele><time>2026-04-12T13:57:56.999Z</time></trkpt><trkpt lat="46.00605420643225" lon="11.650425690806847"><ele>237.5</ele><time>2026-04-12T13:57:57.999Z</time></trkpt><trkpt lat="46.006221579746615" lon="11.65017606698017"><ele>237.0</ele><time>2026-04-12T13:57:58.999Z</time></trkpt><trkpt lat="46.00639937839943" lon="11.649931599817442"><ele>237.0</ele><time>2026-04-12T13:57:59.999Z</time></trkpt><trkpt lat="46.00658109365279" lon="11.64969247120902"><ele>237.0</ele><time>2026-04-12T13:58:00.999Z</time></trkpt><trkpt lat="46.006765294246186" lon="11.649445097519136"><ele>238.5</ele><time>2026-04-12T13:58:01.999Z</time></trkpt><trkpt lat="46.00694865557117" lon="11.64919304069265"><ele>240.0</ele><time>2026-04-12T13:58:02.999Z</time></trkpt><trkpt lat="46.007132081699346" lon="11.648941277646667"><ele>240.0</ele><time>2026-04-12T13:58:03.999Z</time></trkpt><trkpt lat="46.007321105024246" lon="11.648686707003817"><ele>240.0</ele><time>2026-04-12T13:58:04.999Z</time></trkpt><trkpt lat="46.00750869936229" lon="11.648430401918176"><ele>240.5</ele><time>2026-04-12T13:58:05.999Z</time></trkpt><trkpt lat="46.0076897901463" lon="11.64818009441449"><ele>241.0</ele><time>2026-04-12T13:58:06.999Z</time></trkpt><trkpt lat="46.00787593647261" lon="11.647929616526667"><ele>241.0</ele><time>2026-04-12T13:58:07.999Z</time></trkpt><trkpt lat="46.00806192552344" lon="11.647681763347242"><ele>241.0</ele><time>2026-04-12T13:58:08.999Z</time></trkpt><trkpt lat="46.00824682958701" lon="11.647434027968387"><ele>241.0</ele><time>2026-04-12T13:58:09.999Z</time></trkpt><trkpt lat="46.00843295341816" lon="11.647190573264623"><ele>241.0</ele><time>2026-04-12T13:58:10.999Z</time></trkpt><trkpt lat="46.00861383316303" lon="11.646949157998556"><ele>241.0</ele><time>2026-04-12T13:58:11.999Z</time></trkpt><trkpt lat="46.00878873294971" lon="11.64670767228974"><ele>241.0</ele><time>2026-04-12T13:58:12.999Z</time></trkpt><trkpt lat="46.00896630265745" lon="11.64646095392002"><ele>241.0</ele><time>2026-04-12T13:58:13.999Z</time></trkpt><trkpt lat="46.00913843609835" lon="11.646230122143468"><ele>241.0</ele><time>2026-04-12T13:58:14.999Z</time></trkpt><trkpt lat="46.00930835435456" lon="11.64600154859368"><ele>240.5</ele><time>2026-04-12T13:58:15.999Z</time></trkpt><trkpt lat="46.00947963792152" lon="11.64577332154424"><ele>240.0</ele><time>2026-04-12T13:58:16.999Z</time></trkpt><trkpt lat="46.009648371863726" lon="11.645547585969002"><ele>240.0</ele><time>2026-04-12T13:58:17.999Z</time></trkpt><trkpt lat="46.009815661831325" lon="11.645321448242079"><ele>240.0</ele><time>2026-04-12T13:58:18.999Z</time></trkpt><trkpt lat="46.00998603444471" lon="11.645092389688324"><ele>241.0</ele><time>2026-04-12T13:58:19.999Z</time></trkpt><trkpt lat="46.010152488366195" lon="11.64486261336651"><ele>242.0</ele><time>2026-04-12T13:58:20.999Z</time></trkpt><trkpt lat="46.01031307825885" lon="11.644621915768411"><ele>241.5</ele><time>2026-04-12T13:58:21.999Z</time></trkpt><trkpt lat="46.01046359289758" lon="11.644371384202731"><ele>241.0</ele><time>2026-04-12T13:58:22.999Z</time></trkpt><trkpt lat="46.01061390080047" lon="11.644110488789682"><ele>241.0</ele><time>2026-04-12T13:58:23.999Z</time></trkpt><trkpt lat="46.010752007683834" lon="11.643832067633543"><ele>241.0</ele><time>2026-04-12T13:58:24.999Z</time></trkpt><trkpt lat="46.01088705209844" lon="11.643545495414324"><ele>243.5</ele><time>2026-04-12T13:58:25.999Z</time></trkpt><trkpt lat="46.01101582557755" lon="11.643263500028755"><ele>246.0</ele><time>2026-04-12T13:58:26.999Z</time></trkpt><trkpt lat="46.01113768305712" lon="11.642964646924021"><ele>245.5</ele><time>2026-04-12T13:58:27.999Z</time></trkpt><trkpt lat="46.01125488853368" lon="11.64265814680317"><ele>245.0</ele><time>2026-04-12T13:58:28.999Z</time></trkpt><trkpt lat="46.01136773786778" lon="11.642339346246116"><ele>245.0</ele><time>2026-04-12T13:58:29.998Z</time></trkpt><trkpt lat="46.01147255166284" lon="11.642021909398549"><ele>245.0</ele><time>2026-04-12T13:58:30.998Z</time></trkpt><trkpt lat="46.01156870078564" lon="11.641692100714648"><ele>246.0</ele><time>2026-04-12T13:58:31.998Z</time></trkpt><trkpt lat="46.01165790723021" lon="11.64135814063718"><ele>247.0</ele><time>2026-04-12T13:58:32.998Z</time></trkpt><trkpt lat="46.01173671461971" lon="11.641015467456224"><ele>247.5</ele><time>2026-04-12T13:58:33.998Z</time></trkpt><trkpt lat="46.01180478050712" lon="11.640663188714905"><ele>248.0</ele><time>2026-04-12T13:58:34.998Z</time></trkpt><trkpt lat="46.01186475104383" lon="11.640303485528303"><ele>249.0</ele><time>2026-04-12T13:58:35.998Z</time></trkpt><trkpt lat="46.01191810916054" lon="11.63993798909095"><ele>250.0</ele><time>2026-04-12T13:58:36.998Z</time></trkpt><trkpt lat="46.01196297779118" lon="11.639562139564802"><ele>250.0</ele><time>2026-04-12T13:58:37.998Z</time></trkpt><trkpt lat="46.01200246338998" lon="11.63918532907009"><ele>250.0</ele><time>2026-04-12T13:58:39Z</time></trkpt><trkpt lat="46.01203097252783" lon="11.63881417506113"><ele>250.0</ele><time>2026-04-12T13:58:40Z</time></trkpt><trkpt lat="46.01205009236088" lon="11.638438297994632"><ele>250.0</ele><time>2026-04-12T13:58:41Z</time></trkpt><trkpt lat="46.01206574880665" lon="11.638070740014918"><ele>250.0</ele><time>2026-04-12T13:58:42Z</time></trkpt><trkpt lat="46.01208267181731" lon="11.637714720891852"><ele>250.0</ele><time>2026-04-12T13:58:43Z</time></trkpt><trkpt lat="46.0121027394269" lon="11.637355453842313"><ele>250.0</ele><time>2026-04-12T13:58:44Z</time></trkpt><trkpt lat="46.01212103864683" lon="11.63699709487505"><ele>250.0</ele><time>2026-04-12T13:58:45Z</time></trkpt><trkpt lat="46.01214031766083" lon="11.636639905008993"><ele>250.0</ele><time>2026-04-12T13:58:46Z</time></trkpt><trkpt lat="46.01216535797498" lon="11.63629208335859"><ele>250.0</ele><time>2026-04-12T13:58:47Z</time></trkpt><trkpt lat="46.012180450395356" lon="11.635937835055602"><ele>250.0</ele><time>2026-04-12T13:58:48Z</time></trkpt><trkpt lat="46.012196871219686" lon="11.635584527378764"><ele>250.0</ele><time>2026-04-12T13:58:49Z</time></trkpt><trkpt lat="46.01221342419561" lon="11.635232431944615"><ele>250.0</ele><time>2026-04-12T13:58:50Z</time></trkpt><trkpt lat="46.012231743448936" lon="11.634883281605974"><ele>250.0</ele><time>2026-04-12T13:58:51Z</time></trkpt><trkpt lat="46.01225028917655" lon="11.634530600837575"><ele>249.0</ele><time>2026-04-12T13:58:52Z</time></trkpt><trkpt lat="46.01226890265221" lon="11.634178241989721"><ele>248.0</ele><time>2026-04-12T13:58:53Z</time></trkpt><trkpt lat="46.012287292539014" lon="11.633822166866503"><ele>248.5</ele><time>2026-04-12T13:58:54Z</time></trkpt><trkpt lat="46.012302435241494" lon="11.63347026378312"><ele>249.0</ele><time>2026-04-12T13:58:55Z</time></trkpt><trkpt lat="46.01232603233228" lon="11.633111166413634"><ele>249.5</ele><time>2026-04-12T13:58:56Z</time></trkpt><trkpt lat="46.01234355239657" lon="11.632751375688988"><ele>250.0</ele><time>2026-04-12T13:58:57Z</time></trkpt><trkpt lat="46.01236625819494" lon="11.632399157327354"><ele>250.0</ele><time>2026-04-12T13:58:58Z</time></trkpt><trkpt lat="46.01238504756399" lon="11.632039978430614"><ele>250.0</ele><time>2026-04-12T13:58:59Z</time></trkpt><trkpt lat="46.01241477538086" lon="11.631676881774448"><ele>250.0</ele><time>2026-04-12T13:59:00Z</time></trkpt><trkpt lat="46.01246138151922" lon="11.631305324165874"><ele>250.0</ele><time>2026-04-12T13:59:01Z</time></trkpt><trkpt lat="46.01251747050575" lon="11.630932917395276"><ele>249.5</ele><time>2026-04-12T13:59:02Z</time></trkpt><trkpt lat="46.012583530053966" lon="11.630545271207257"><ele>249.0</ele><time>2026-04-12T13:59:03Z</time></trkpt><trkpt lat="46.012646208732" lon="11.630156034629502"><ele>249.0</ele><time>2026-04-12T13:59:04Z</time></trkpt><trkpt lat="46.012713014662744" lon="11.629772280576372"><ele>249.0</ele><time>2026-04-12T13:59:05Z</time></trkpt><trkpt lat="46.01277364104071" lon="11.629382844621148"><ele>249.0</ele><time>2026-04-12T13:59:06Z</time></trkpt><trkpt lat="46.012835456590906" lon="11.629009066124459"><ele>249.0</ele><time>2026-04-12T13:59:07Z</time></trkpt><trkpt lat="46.012895300662116" lon="11.628658733383356"><ele>250.0</ele><time>2026-04-12T13:59:08Z</time></trkpt><trkpt lat="46.012952264468744" lon="11.628316814797333"><ele>251.0</ele><time>2026-04-12T13:59:09Z</time></trkpt><trkpt lat="46.013003544691955" lon="11.627985667916533"><ele>251.5</ele><time>2026-04-12T13:59:10Z</time></trkpt><trkpt lat="46.013057986668755" lon="11.62765676950976"><ele>252.0</ele><time>2026-04-12T13:59:11Z</time></trkpt><trkpt lat="46.013109759007754" lon="11.627325909740073"><ele>252.0</ele><time>2026-04-12T13:59:12Z</time></trkpt><trkpt lat="46.01316493918045" lon="11.626995266185988"><ele>252.0</ele><time>2026-04-12T13:59:13Z</time></trkpt><trkpt lat="46.01322166311508" lon="11.626654459632059"><ele>252.0</ele><time>2026-04-12T13:59:14Z</time></trkpt><trkpt lat="46.013277056151104" lon="11.62631080747545"><ele>252.0</ele><time>2026-04-12T13:59:15Z</time></trkpt><trkpt lat="46.01333568180515" lon="11.625969136274104"><ele>251.5</ele><time>2026-04-12T13:59:16Z</time></trkpt><trkpt lat="46.013393271418614" lon="11.625631474632321"><ele>251.0</ele><time>2026-04-12T13:59:17Z</time></trkpt><trkpt lat="46.01344928053399" lon="11.625288187646591"><ele>251.0</ele><time>2026-04-12T13:59:18Z</time></trkpt><trkpt lat="46.01350756777884" lon="11.624945448978613"><ele>251.0</ele><time>2026-04-12T13:59:19Z</time></trkpt><trkpt lat="46.01356389899712" lon="11.624610070776026"><ele>250.0</ele><time>2026-04-12T13:59:20Z</time></trkpt><trkpt lat="46.01362037853447" lon="11.624284978683422"><ele>249.0</ele><time>2026-04-12T13:59:21Z</time></trkpt><trkpt lat="46.01366733240738" lon="11.623982526365566"><ele>248.0</ele><time>2026-04-12T13:59:22Z</time></trkpt><trkpt lat="46.01371750153721" lon="11.623686700792904"><ele>249.33333333333334</ele><time>2026-04-12T13:59:23Z</time></trkpt><trkpt lat="46.013765001396834" lon="11.623404083739423"><ele>250.66666666666669</ele><time>2026-04-12T13:59:24Z</time></trkpt><trkpt lat="46.01381177730964" lon="11.62312973436962"><ele>252.0</ele><time>2026-04-12T13:59:25Z</time></trkpt><trkpt lat="46.01385594729806" lon="11.622859915261794"><ele>252.0</ele><time>2026-04-12T13:59:26Z</time></trkpt><trkpt lat="46.013902712578485" lon="11.622582176444938"><ele>252.0</ele><time>2026-04-12T13:59:26.999Z</time></trkpt><trkpt lat="46.013948757626125" lon="11.622303166040174"><ele>252.0</ele><time>2026-04-12T13:59:27.999Z</time></trkpt><trkpt lat="46.01399462763569" lon="11.622017737226876"><ele>252.0</ele><time>2026-04-12T13:59:28.999Z</time></trkpt><trkpt lat="46.0140391376781" lon="11.62173072322491"><ele>252.0</ele><time>2026-04-12T13:59:29.999Z</time></trkpt><trkpt lat="46.01408754476933" lon="11.621443787285626"><ele>252.0</ele><time>2026-04-12T13:59:30.999Z</time></trkpt><trkpt lat="46.014134382405445" lon="11.621152756654709"><ele>252.0</ele><time>2026-04-12T13:59:31.999Z</time></trkpt><trkpt lat="46.014183555315036" lon="11.620865574754813"><ele>252.0</ele><time>2026-04-12T13:59:32.999Z</time></trkpt><trkpt lat="46.01423534629838" lon="11.620567473764197"><ele>252.0</ele><time>2026-04-12T13:59:33.999Z</time></trkpt><trkpt lat="46.01428689781929" lon="11.620268386809135"><ele>252.33333333333331</ele><time>2026-04-12T13:59:34.999Z</time></trkpt><trkpt lat="46.01433681236553" lon="11.619970006302015"><ele>252.66666666666666</ele><time>2026-04-12T13:59:35.999Z</time></trkpt><trkpt lat="46.014385167189566" lon="11.619669559101377"><ele>253.0</ele><time>2026-04-12T13:59:36.999Z</time></trkpt><trkpt lat="46.01443456713552" lon="11.619365386695465"><ele>253.0</ele><time>2026-04-12T13:59:37.999Z</time></trkpt><trkpt lat="46.014482586014175" lon="11.61906235497863"><ele>253.0</ele><time>2026-04-12T13:59:38.999Z</time></trkpt><trkpt lat="46.01453199913542" lon="11.618750666911552"><ele>253.0</ele><time>2026-04-12T13:59:39.999Z</time></trkpt><trkpt lat="46.01458168649344" lon="11.61843455813821"><ele>253.0</ele><time>2026-04-12T13:59:40.999Z</time></trkpt><trkpt lat="46.01462870604229" lon="11.618098863127665"><ele>253.0</ele><time>2026-04-12T13:59:41.999Z</time></trkpt><trkpt lat="46.01467524894502" lon="11.61775046513603"><ele>254.5</ele><time>2026-04-12T13:59:42.999Z</time></trkpt><trkpt lat="46.01473016079281" lon="11.617385608094608"><ele>256.0</ele><time>2026-04-12T13:59:43.999Z</time></trkpt><trkpt lat="46.01479294919012" lon="11.617008114953862"><ele>255.5</ele><time>2026-04-12T13:59:44.999Z</time></trkpt><trkpt lat="46.01485962588223" lon="11.616628502548668"><ele>255.0</ele><time>2026-04-12T13:59:45.999Z</time></trkpt><trkpt lat="46.01492569121078" lon="11.61623158854083"><ele>254.0</ele><time>2026-04-12T13:59:46.999Z</time></trkpt><trkpt lat="46.01499088338985" lon="11.615852562351867"><ele>253.0</ele><time>2026-04-12T13:59:47.999Z</time></trkpt><trkpt lat="46.0150457972164" lon="11.61550188595046"><ele>253.66666666666666</ele><time>2026-04-12T13:59:48.999Z</time></trkpt><trkpt lat="46.01510369679589" lon="11.61517803806939"><ele>254.33333333333331</ele><time>2026-04-12T13:59:49.999Z</time></trkpt><trkpt lat="46.015165741864834" lon="11.614880774739607"><ele>255.0</ele><time>2026-04-12T13:59:50.999Z</time></trkpt><trkpt lat="46.0152324321855" lon="11.614599790018033"><ele>255.33333333333331</ele><time>2026-04-12T13:59:51.999Z</time></trkpt><trkpt lat="46.01530520101595" lon="11.614333854539682"><ele>255.66666666666666</ele><time>2026-04-12T13:59:52.999Z</time></trkpt><trkpt lat="46.015385403213465" lon="11.614074190214987"><ele>256.0</ele><time>2026-04-12T13:59:53.999Z</time></trkpt><trkpt lat="46.015469562646125" lon="11.613814065957424"><ele>257.0</ele><time>2026-04-12T13:59:54.999Z</time></trkpt><trkpt lat="46.015561709230916" lon="11.613558434944775"><ele>258.0</ele><time>2026-04-12T13:59:55.999Z</time></trkpt><trkpt lat="46.01565637090612" lon="11.613303497818384"><ele>259.0</ele><time>2026-04-12T13:59:56.999Z</time></trkpt><trkpt lat="46.01575636535167" lon="11.613047706928588"><ele>259.0</ele><time>2026-04-12T13:59:57.999Z</time></trkpt><trkpt lat="46.015863562552155" lon="11.612791477565052"><ele>259.0</ele><time>2026-04-12T13:59:58.999Z</time></trkpt><trkpt lat="46.01597731098332" lon="11.612534820863733"><ele>259.0</ele><time>2026-04-12T13:59:59.999Z</time></trkpt><trkpt lat="46.01609940456402" lon="11.612280954946867"><ele>259.0</ele><time>2026-04-12T14:00:00.999Z</time></trkpt><trkpt lat="46.01623151499419" lon="11.612029808507073"><ele>259.0</ele><time>2026-04-12T14:00:01.999Z</time></trkpt><trkpt lat="46.01637014525792" lon="11.611782287163566"><ele>259.0</ele><time>2026-04-12T14:00:02.999Z</time></trkpt><trkpt lat="46.01651636288825" lon="11.6115302932619"><ele>258.5</ele><time>2026-04-12T14:00:03.999Z</time></trkpt><trkpt lat="46.01666869365834" lon="11.611286529624737"><ele>258.0</ele><time>2026-04-12T14:00:04.999Z</time></trkpt><trkpt lat="46.016835194890156" lon="11.61104873199391"><ele>258.0</ele><time>2026-04-12T14:00:05.999Z</time></trkpt><trkpt lat="46.017000876030366" lon="11.610818105438373"><ele>258.0</ele><time>2026-04-12T14:00:06.999Z</time></trkpt><trkpt lat="46.017173342140815" lon="11.610595057368574"><ele>258.0</ele><time>2026-04-12T14:00:07.999Z</time></trkpt><trkpt lat="46.01734430550279" lon="11.610382015579015"><ele>258.0</ele><time>2026-04-12T14:00:08.999Z</time></trkpt><trkpt lat="46.017513941581726" lon="11.610169065769872"><ele>259.0</ele><time>2026-04-12T14:00:09.999Z</time></trkpt><trkpt lat="46.01768209420601" lon="11.609956926241704"><ele>260.0</ele><time>2026-04-12T14:00:10.999Z</time></trkpt><trkpt lat="46.017843980795966" lon="11.609737280322717"><ele>261.0</ele><time>2026-04-12T14:00:11.999Z</time></trkpt><trkpt lat="46.018010308979356" lon="11.609528730934128"><ele>260.6666666666667</ele><time>2026-04-12T14:00:12.999Z</time></trkpt><trkpt lat="46.018173380023526" lon="11.609325830981222"><ele>260.33333333333337</ele><time>2026-04-12T14:00:13.999Z</time></trkpt><trkpt lat="46.0183249834999" lon="11.609132379909742"><ele>260.0</ele><time>2026-04-12T14:00:14.999Z</time></trkpt><trkpt lat="46.01847383120592" lon="11.608943139910481"><ele>260.0</ele><time>2026-04-12T14:00:15.999Z</time></trkpt><trkpt lat="46.018614770029444" lon="11.608761592748728"><ele>260.0</ele><time>2026-04-12T14:00:16.999Z</time></trkpt><trkpt lat="46.01874531848342" lon="11.608582753496833"><ele>260.0</ele><time>2026-04-12T14:00:17.999Z</time></trkpt><trkpt lat="46.018876069224575" lon="11.608411077240211"><ele>260.0</ele><time>2026-04-12T14:00:18.999Z</time></trkpt><trkpt lat="46.01899785945054" lon="11.608238253889128"><ele>260.0</ele><time>2026-04-12T14:00:19.999Z</time></trkpt><trkpt lat="46.019128137050565" lon="11.608069077226038"><ele>260.0</ele><time>2026-04-12T14:00:20.999Z</time></trkpt><trkpt lat="46.019255683852435" lon="11.607882606887337"><ele>260.0</ele><time>2026-04-12T14:00:21.999Z</time></trkpt><trkpt lat="46.01936864294409" lon="11.607672877154485"><ele>260.0</ele><time>2026-04-12T14:00:22.999Z</time></trkpt><trkpt lat="46.019475750897705" lon="11.60744188248271"><ele>260.0</ele><time>2026-04-12T14:00:23.999Z</time></trkpt><trkpt lat="46.01957666093359" lon="11.607185942744161"><ele>259.33333333333337</ele><time>2026-04-12T14:00:24.999Z</time></trkpt><trkpt lat="46.01967958476191" lon="11.606901106681919"><ele>258.6666666666667</ele><time>2026-04-12T14:00:25.999Z</time></trkpt><trkpt lat="46.019751624458415" lon="11.60662825593253"><ele>258.0</ele><time>2026-04-12T14:00:26.999Z</time></trkpt><trkpt lat="46.019824126530494" lon="11.60635368890297"><ele>258.6666666666667</ele><time>2026-04-12T14:00:27.999Z</time></trkpt><trkpt lat="46.01989369844533" lon="11.60608805400224"><ele>259.33333333333337</ele><time>2026-04-12T14:00:28.999Z</time></trkpt><trkpt lat="46.01995885985175" lon="11.605822164901847"><ele>260.0</ele><time>2026-04-12T14:00:29.999Z</time></trkpt><trkpt lat="46.020022669370974" lon="11.605570572203812"><ele>263.33333333333337</ele><time>2026-04-12T14:00:30.999Z</time></trkpt><trkpt lat="46.02009323534535" lon="11.605321744020001"><ele>266.6666666666667</ele><time>2026-04-12T14:00:31.999Z</time></trkpt><trkpt lat="46.02017666653415" lon="11.605069495052664"><ele>270.0</ele><time>2026-04-12T14:00:32.999Z</time></trkpt><trkpt lat="46.02025714630488" lon="11.604805148673513"><ele>270.0</ele><time>2026-04-12T14:00:33.999Z</time></trkpt><trkpt lat="46.02033898889688" lon="11.604527457857081"><ele>270.0</ele><time>2026-04-12T14:00:34.999Z</time></trkpt><trkpt lat="46.02041782243184" lon="11.604233602492092"><ele>270.0</ele><time>2026-04-12T14:00:35.998Z</time></trkpt><trkpt lat="46.02049256148414" lon="11.603928181450794"><ele>267.0</ele><time>2026-04-12T14:00:36.998Z</time></trkpt><trkpt lat="46.02057292087707" lon="11.603594570841762"><ele>264.0</ele><time>2026-04-12T14:00:37.998Z</time></trkpt><trkpt lat="46.02065672207498" lon="11.603231651459081"><ele>264.0</ele><time>2026-04-12T14:00:38.998Z</time></trkpt><trkpt lat="46.02074999721339" lon="11.60285418634597"><ele>264.0</ele><time>2026-04-12T14:00:39.998Z</time></trkpt><trkpt lat="46.020842074001244" lon="11.602484640310891"><ele>267.0</ele><time>2026-04-12T14:00:40.998Z</time></trkpt><trkpt lat="46.02093319815901" lon="11.602128591530198"><ele>270.0</ele><time>2026-04-12T14:00:41.998Z</time></trkpt><trkpt lat="46.021021637855405" lon="11.601796127989417"><ele>270.0</ele><time>2026-04-12T14:00:42.998Z</time></trkpt><trkpt lat="46.02110527078148" lon="11.60148256379658"><ele>270.0</ele><time>2026-04-12T14:00:43.998Z</time></trkpt><trkpt lat="46.02119225603514" lon="11.601188619063171"><ele>270.0</ele><time>2026-04-12T14:00:45Z</time></trkpt><trkpt lat="46.02127595497364" lon="11.600903423182721"><ele>270.0</ele><time>2026-04-12T14:00:46Z</time></trkpt><trkpt lat="46.021364316499444" lon="11.600636185929918"><ele>270.0</ele><time>2026-04-12T14:00:47Z</time></trkpt><trkpt lat="46.0214535499173" lon="11.60037141292874"><ele>270.0</ele><time>2026-04-12T14:00:48Z</time></trkpt><trkpt lat="46.02154504110344" lon="11.600092185313768"><ele>270.0</ele><time>2026-04-12T14:00:49Z</time></trkpt><trkpt lat="46.02163746481886" lon="11.59981243244997"><ele>270.0</ele><time>2026-04-12T14:00:50Z</time></trkpt><trkpt lat="46.02172711605125" lon="11.59954697985995"><ele>267.6666666666667</ele><time>2026-04-12T14:00:51Z</time></trkpt><trkpt lat="46.021814610110034" lon="11.599276196886954"><ele>265.33333333333337</ele><time>2026-04-12T14:00:52Z</time></trkpt><trkpt lat="46.021903568789085" lon="11.599007971365461"><ele>263.0</ele><time>2026-04-12T14:00:53Z</time></trkpt><trkpt lat="46.02199174602575" lon="11.598743281326188"><ele>264.6666666666667</ele><time>2026-04-12T14:00:54Z</time></trkpt><trkpt lat="46.022080744997645" lon="11.598481112817115"><ele>266.3333333333333</ele><time>2026-04-12T14:00:55Z</time></trkpt><trkpt lat="46.022166453521834" lon="11.598212341470905"><ele>268.0</ele><time>2026-04-12T14:00:56Z</time></trkpt><trkpt lat="46.02225482143876" lon="11.597944720687694"><ele>268.3333333333333</ele><time>2026-04-12T14:00:57Z</time></trkpt><trkpt lat="46.02234459022261" lon="11.597677943764728"><ele>268.6666666666667</ele><time>2026-04-12T14:00:58Z</time></trkpt><trkpt lat="46.02242844389677" lon="11.597408899316784"><ele>269.0</ele><time>2026-04-12T14:00:59Z</time></trkpt><trkpt lat="46.022514276736246" lon="11.59713395918574"><ele>266.6666666666667</ele><time>2026-04-12T14:01:00Z</time></trkpt><trkpt lat="46.02260309402418" lon="11.596866724648951"><ele>264.3333333333333</ele><time>2026-04-12T14:01:01Z</time></trkpt><trkpt lat="46.0226887634479" lon="11.596600049981955"><ele>262.0</ele><time>2026-04-12T14:01:02Z</time></trkpt><trkpt lat="46.022778112141886" lon="11.596336309594365"><ele>263.3333333333333</ele><time>2026-04-12T14:01:03Z</time></trkpt><trkpt lat="46.02286416188597" lon="11.596075624132592"><ele>264.6666666666667</ele><time>2026-04-12T14:01:04Z</time></trkpt><trkpt lat="46.02295057355159" lon="11.59580822375625"><ele>266.0</ele><time>2026-04-12T14:01:05Z</time></trkpt><trkpt lat="46.02303343523168" lon="11.595540449256015"><ele>268.0</ele><time>2026-04-12T14:01:06Z</time></trkpt><trkpt lat="46.02312255777578" lon="11.595277184294222"><ele>270.0</ele><time>2026-04-12T14:01:07Z</time></trkpt><trkpt lat="46.02320808450017" lon="11.595015398815198"><ele>272.0</ele><time>2026-04-12T14:01:08Z</time></trkpt><trkpt lat="46.02330554778637" lon="11.594758602875642"><ele>271.6666666666667</ele><time>2026-04-12T14:01:09Z</time></trkpt><trkpt lat="46.02341079394554" lon="11.5945092839737"><ele>271.3333333333333</ele><time>2026-04-12T14:01:10Z</time></trkpt><trkpt lat="46.023521920239915" lon="11.594252350008588"><ele>271.0</ele><time>2026-04-12T14:01:11Z</time></trkpt><trkpt lat="46.023636090031665" lon="11.594005923824025"><ele>270.66666666666663</ele><time>2026-04-12T14:01:12Z</time></trkpt><trkpt lat="46.023752250865186" lon="11.593756990800186"><ele>270.3333333333333</ele><time>2026-04-12T14:01:13Z</time></trkpt><trkpt lat="46.02387669122051" lon="11.593502760061352"><ele>270.0</ele><time>2026-04-12T14:01:14Z</time></trkpt><trkpt lat="46.024008686182" lon="11.593243552171796"><ele>270.0</ele><time>2026-04-12T14:01:15Z</time></trkpt><trkpt lat="46.02414375529868" lon="11.592985987748936"><ele>270.0</ele><time>2026-04-12T14:01:16Z</time></trkpt><trkpt lat="46.02428591946268" lon="11.59273120060587"><ele>270.0</ele><time>2026-04-12T14:01:17Z</time></trkpt><trkpt lat="46.024427132471445" lon="11.592465454938688"><ele>270.0</ele><time>2026-04-12T14:01:18Z</time></trkpt><trkpt lat="46.024568723654646" lon="11.59219251355211"><ele>269.0</ele><time>2026-04-12T14:01:19Z</time></trkpt><trkpt lat="46.02471524701649" lon="11.591919067310432"><ele>268.0</ele><time>2026-04-12T14:01:20Z</time></trkpt><trkpt lat="46.02486011970361" lon="11.591641221822066"><ele>269.0</ele><time>2026-04-12T14:01:21Z</time></trkpt><trkpt lat="46.02500532569807" lon="11.591360599093957"><ele>270.0</ele><time>2026-04-12T14:01:22Z</time></trkpt><trkpt lat="46.0251566486274" lon="11.591080187843703"><ele>270.5</ele><time>2026-04-12T14:01:23Z</time></trkpt><trkpt lat="46.0253100755211" lon="11.59079477896868"><ele>271.0</ele><time>2026-04-12T14:01:24Z</time></trkpt><trkpt lat="46.025463003848046" lon="11.590507765051237"><ele>271.5</ele><time>2026-04-12T14:01:25Z</time></trkpt><trkpt lat="46.02561659218379" lon="11.590218353105897"><ele>272.0</ele><time>2026-04-12T14:01:26Z</time></trkpt><trkpt lat="46.02576850414739" lon="11.589933990291907"><ele>272.0</ele><time>2026-04-12T14:01:27Z</time></trkpt><trkpt lat="46.025915864748264" lon="11.589652678469603"><ele>272.0</ele><time>2026-04-12T14:01:28Z</time></trkpt><trkpt lat="46.026062654236384" lon="11.589375705948507"><ele>272.0</ele><time>2026-04-12T14:01:29Z</time></trkpt><trkpt lat="46.02620656838847" lon="11.589099128173663"><ele>272.0</ele><time>2026-04-12T14:01:30Z</time></trkpt><trkpt lat="46.02635030707047" lon="11.588827263492984"><ele>273.0</ele><time>2026-04-12T14:01:31Z</time></trkpt><trkpt lat="46.02648928244744" lon="11.588564443013311"><ele>274.0</ele><time>2026-04-12T14:01:32Z</time></trkpt><trkpt lat="46.026630194130746" lon="11.588308726416715"><ele>273.3333333333333</ele><time>2026-04-12T14:01:33Z</time></trkpt><trkpt lat="46.026768426193705" lon="11.588053229217465"><ele>272.6666666666667</ele><time>2026-04-12T14:01:33.999Z</time></trkpt><trkpt lat="46.02690667438998" lon="11.587799006116065"><ele>272.0</ele><time>2026-04-12T14:01:34.999Z</time></trkpt><trkpt lat="46.02704093147466" lon="11.587545469961643"><ele>272.0</ele><time>2026-04-12T14:01:35.999Z</time></trkpt><trkpt lat="46.02717249715164" lon="11.587292899340115"><ele>272.0</ele><time>2026-04-12T14:01:36.999Z</time></trkpt><trkpt lat="46.027303087252754" lon="11.587039506611912"><ele>272.0</ele><time>2026-04-12T14:01:37.999Z</time></trkpt><trkpt lat="46.0274363989636" lon="11.58679215852058"><ele>272.33333333333337</ele><time>2026-04-12T14:01:38.999Z</time></trkpt><trkpt lat="46.02756631602211" lon="11.586542565993353"><ele>272.6666666666667</ele><time>2026-04-12T14:01:39.999Z</time></trkpt><trkpt lat="46.02770006249216" lon="11.586296439173863"><ele>273.0</ele><time>2026-04-12T14:01:40.999Z</time></trkpt><trkpt lat="46.027833958105575" lon="11.586051994834417"><ele>273.0</ele><time>2026-04-12T14:01:41.999Z</time></trkpt><trkpt lat="46.02796923586558" lon="11.585803890594976"><ele>273.0</ele><time>2026-04-12T14:01:42.999Z</time></trkpt><trkpt lat="46.028104573315154" lon="11.585546157881636"><ele>273.0</ele><time>2026-04-12T14:01:43.999Z</time></trkpt><trkpt lat="46.02824121736631" lon="11.585288150667967"><ele>276.0</ele><time>2026-04-12T14:01:44.999Z</time></trkpt><trkpt lat="46.02837692852435" lon="11.585024996495495"><ele>279.0</ele><time>2026-04-12T14:01:45.999Z</time></trkpt><trkpt lat="46.02852126732941" lon="11.584764897224654"><ele>278.5</ele><time>2026-04-12T14:01:46.999Z</time></trkpt><trkpt lat="46.028661787535285" lon="11.584499339729753"><ele>278.0</ele><time>2026-04-12T14:01:47.999Z</time></trkpt><trkpt lat="46.02880502294026" lon="11.584231482587596"><ele>278.0</ele><time>2026-04-12T14:01:48.999Z</time></trkpt><trkpt lat="46.028949656078105" lon="11.583960013293598"><ele>278.0</ele><time>2026-04-12T14:01:49.999Z</time></trkpt><trkpt lat="46.029093308576904" lon="11.583686101660605"><ele>280.5</ele><time>2026-04-12T14:01:50.999Z</time></trkpt><trkpt lat="46.029239389876345" lon="11.583407566649264"><ele>283.0</ele><time>2026-04-12T14:01:51.999Z</time></trkpt><trkpt lat="46.02938474937515" lon="11.583123655069404"><ele>281.0</ele><time>2026-04-12T14:01:52.999Z</time></trkpt><trkpt lat="46.02952576714019" lon="11.58283141314816"><ele>279.0</ele><time>2026-04-12T14:01:53.999Z</time></trkpt><trkpt lat="46.02965967515796" lon="11.582530950139247"><ele>279.0</ele><time>2026-04-12T14:01:54.999Z</time></trkpt><trkpt lat="46.029791058511016" lon="11.582227307888031"><ele>279.0</ele><time>2026-04-12T14:01:55.999Z</time></trkpt><trkpt lat="46.029918633881266" lon="11.581916775789523"><ele>280.0</ele><time>2026-04-12T14:01:56.999Z</time></trkpt><trkpt lat="46.03004106853488" lon="11.581600008501123"><ele>281.0</ele><time>2026-04-12T14:01:57.999Z</time></trkpt><trkpt lat="46.03015008008748" lon="11.581279087789238"><ele>280.5</ele><time>2026-04-12T14:01:58.999Z</time></trkpt><trkpt lat="46.03025175080097" lon="11.580956544291935"><ele>280.0</ele><time>2026-04-12T14:01:59.999Z</time></trkpt><trkpt lat="46.03034809587322" lon="11.58063351122409"><ele>279.0</ele><time>2026-04-12T14:02:00.999Z</time></trkpt><trkpt lat="46.03043972169513" lon="11.580310198431084"><ele>278.0</ele><time>2026-04-12T14:02:01.999Z</time></trkpt><trkpt lat="46.03052718534736" lon="11.579985381192325"><ele>278.0</ele><time>2026-04-12T14:02:02.999Z</time></trkpt><trkpt lat="46.03061232462513" lon="11.579659077938489"><ele>278.0</ele><time>2026-04-12T14:02:03.999Z</time></trkpt><trkpt lat="46.030696970675514" lon="11.579332747683766"><ele>277.5</ele><time>2026-04-12T14:02:04.999Z</time></trkpt><trkpt lat="46.03078127812353" lon="11.57900518916244"><ele>277.0</ele><time>2026-04-12T14:02:05.999Z</time></trkpt><trkpt lat="46.03086589702223" lon="11.578678408265208"><ele>278.0</ele><time>2026-04-12T14:02:06.999Z</time></trkpt><trkpt lat="46.030949945208" lon="11.578351688001483"><ele>279.0</ele><time>2026-04-12T14:02:07.999Z</time></trkpt><trkpt lat="46.03103391917032" lon="11.578022525993195"><ele>279.5</ele><time>2026-04-12T14:02:08.999Z</time></trkpt><trkpt lat="46.03111760283928" lon="11.57769101939574"><ele>280.0</ele><time>2026-04-12T14:02:09.999Z</time></trkpt><trkpt lat="46.03120191626103" lon="11.57735911964028"><ele>280.0</ele><time>2026-04-12T14:02:10.999Z</time></trkpt><trkpt lat="46.03128607252944" lon="11.577022800993664"><ele>280.0</ele><time>2026-04-12T14:02:11.999Z</time></trkpt><trkpt lat="46.03136645503722" lon="11.576687157935089"><ele>280.0</ele><time>2026-04-12T14:02:12.999Z</time></trkpt><trkpt lat="46.031450041844394" lon="11.576354823844246"><ele>280.0</ele><time>2026-04-12T14:02:13.999Z</time></trkpt><trkpt lat="46.03153349084268" lon="11.576021437351718"><ele>281.0</ele><time>2026-04-12T14:02:14.999Z</time></trkpt><trkpt lat="46.031618232112336" lon="11.575689526462245"><ele>282.0</ele><time>2026-04-12T14:02:15.999Z</time></trkpt><trkpt lat="46.03170247622104" lon="11.575360582104606"><ele>282.5</ele><time>2026-04-12T14:02:16.999Z</time></trkpt><trkpt lat="46.03178427114645" lon="11.57503283013997"><ele>283.0</ele><time>2026-04-12T14:02:17.999Z</time></trkpt><trkpt lat="46.03186489616391" lon="11.574706170514652"><ele>283.5</ele><time>2026-04-12T14:02:18.999Z</time></trkpt><trkpt lat="46.031946794249635" lon="11.574377223971373"><ele>284.0</ele><time>2026-04-12T14:02:19.999Z</time></trkpt><trkpt lat="46.032028905579125" lon="11.574053506433955"><ele>284.0</ele><time>2026-04-12T14:02:20.999Z</time></trkpt><trkpt lat="46.03211136827495" lon="11.573730866716906"><ele>284.0</ele><time>2026-04-12T14:02:21.999Z</time></trkpt><trkpt lat="46.03219362606078" lon="11.573407510710146"><ele>284.5</ele><time>2026-04-12T14:02:22.999Z</time></trkpt><trkpt lat="46.03227641569341" lon="11.573084717347056"><ele>285.0</ele><time>2026-04-12T14:02:23.999Z</time></trkpt><trkpt lat="46.03236069373252" lon="11.572753645927092"><ele>285.0</ele><time>2026-04-12T14:02:24.999Z</time></trkpt><trkpt lat="46.03244385814656" lon="11.57242251773091"><ele>285.0</ele><time>2026-04-12T14:02:25.999Z</time></trkpt><trkpt lat="46.0325293075787" lon="11.572092634273202"><ele>285.0</ele><time>2026-04-12T14:02:26.999Z</time></trkpt><trkpt lat="46.03261266963827" lon="11.571765173414914"><ele>285.0</ele><time>2026-04-12T14:02:27.999Z</time></trkpt><trkpt lat="46.032695254078874" lon="11.571433646395404"><ele>285.0</ele><time>2026-04-12T14:02:28.999Z</time></trkpt><trkpt lat="46.03277755269336" lon="11.571107392880062"><ele>285.0</ele><time>2026-04-12T14:02:29.999Z</time></trkpt><trkpt lat="46.03286134518723" lon="11.570792662869083"><ele>285.0</ele><time>2026-04-12T14:02:30.999Z</time></trkpt><trkpt lat="46.032929959398125" lon="11.5704894305149"><ele>285.0</ele><time>2026-04-12T14:02:31.999Z</time></trkpt><trkpt lat="46.03300704465401" lon="11.570180404803391"><ele>285.0</ele><time>2026-04-12T14:02:32.999Z</time></trkpt><trkpt lat="46.03307886106131" lon="11.569879259277075"><ele>285.0</ele><time>2026-04-12T14:02:33.999Z</time></trkpt><trkpt lat="46.033153024348096" lon="11.569585435802384"><ele>285.0</ele><time>2026-04-12T14:02:34.999Z</time></trkpt><trkpt lat="46.03322684663572" lon="11.569302689498135"><ele>285.0</ele><time>2026-04-12T14:02:35.999Z</time></trkpt><trkpt lat="46.0332983433634" lon="11.569028221693639"><ele>285.6666666666667</ele><time>2026-04-12T14:02:36.999Z</time></trkpt><trkpt lat="46.03336816887728" lon="11.568762688234177"><ele>286.33333333333337</ele><time>2026-04-12T14:02:37.999Z</time></trkpt><trkpt lat="46.033432862140565" lon="11.568489799766457"><ele>287.0</ele><time>2026-04-12T14:02:38.999Z</time></trkpt><trkpt lat="46.033498817709166" lon="11.56821620191825"><ele>287.0</ele><time>2026-04-12T14:02:39.999Z</time></trkpt><trkpt lat="46.033561915266425" lon="11.567953474630583"><ele>287.0</ele><time>2026-04-12T14:02:40.999Z</time></trkpt><trkpt lat="46.033625923870936" lon="11.567696011855269"><ele>287.0</ele><time>2026-04-12T14:02:41.998Z</time></trkpt><trkpt lat="46.03369058474656" lon="11.567438062933672"><ele>287.0</ele><time>2026-04-12T14:02:42.998Z</time></trkpt><trkpt lat="46.03375482889412" lon="11.567183496427495"><ele>287.0</ele><time>2026-04-12T14:02:43.998Z</time></trkpt><trkpt lat="46.03382033633331" lon="11.566924553527874"><ele>287.0</ele><time>2026-04-12T14:02:44.998Z</time></trkpt><trkpt lat="46.03388849765611" lon="11.566671603256141"><ele>287.33333333333337</ele><time>2026-04-12T14:02:45.998Z</time></trkpt><trkpt lat="46.033961475669315" lon="11.56642230517788"><ele>287.6666666666667</ele><time>2026-04-12T14:02:46.998Z</time></trkpt><trkpt lat="46.03403992537619" lon="11.566175866136344"><ele>288.0</ele><time>2026-04-12T14:02:47.998Z</time></trkpt><trkpt lat="46.034122140799106" lon="11.565931436408233"><ele>288.0</ele><time>2026-04-12T14:02:48.998Z</time></trkpt><trkpt lat="46.03420018840986" lon="11.565679917527357"><ele>288.0</ele><time>2026-04-12T14:02:49.998Z</time></trkpt><trkpt lat="46.03428414136321" lon="11.565423277217404"><ele>288.0</ele><time>2026-04-12T14:02:51Z</time></trkpt><trkpt lat="46.034376982314285" lon="11.565163402731551"><ele>288.0</ele><time>2026-04-12T14:02:52Z</time></trkpt><trkpt lat="46.03447558576715" lon="11.564903161368083"><ele>288.0</ele><time>2026-04-12T14:02:53Z</time></trkpt><trkpt lat="46.034579636111424" lon="11.564647739577332"><ele>288.0</ele><time>2026-04-12T14:02:54Z</time></trkpt><trkpt lat="46.03468021914973" lon="11.56439451672108"><ele>288.6666666666667</ele><time>2026-04-12T14:02:55Z</time></trkpt><trkpt lat="46.03477678806332" lon="11.56414319098139"><ele>289.33333333333337</ele><time>2026-04-12T14:02:56Z</time></trkpt><trkpt lat="46.03487266296629" lon="11.563889357748806"><ele>290.0</ele><time>2026-04-12T14:02:57Z</time></trkpt><trkpt lat="46.034970725055274" lon="11.563635190868714"><ele>289.6666666666667</ele><time>2026-04-12T14:02:58Z</time></trkpt><trkpt lat="46.035071655411606" lon="11.563380667438045"><ele>289.3333333333333</ele><time>2026-04-12T14:02:59Z</time></trkpt><trkpt lat="46.03517451210859" lon="11.563119711782178"><ele>289.0</ele><time>2026-04-12T14:03:00Z</time></trkpt><trkpt lat="46.035279263375294" lon="11.562856254793688"><ele>289.66666666666663</ele><time>2026-04-12T14:03:01Z</time></trkpt><trkpt lat="46.035384920805335" lon="11.562592419618717"><ele>290.3333333333333</ele><time>2026-04-12T14:03:02Z</time></trkpt><trkpt lat="46.0354891676919" lon="11.562332197358963"><ele>291.0</ele><time>2026-04-12T14:03:03Z</time></trkpt><trkpt lat="46.035592709968526" lon="11.562070645558496"><ele>291.0</ele><time>2026-04-12T14:03:04Z</time></trkpt><trkpt lat="46.03569766440649" lon="11.561805972597435"><ele>291.0</ele><time>2026-04-12T14:03:05Z</time></trkpt><trkpt lat="46.0358004340307" lon="11.56153750494783"><ele>291.0</ele><time>2026-04-12T14:03:06Z</time></trkpt><trkpt lat="46.035904898362034" lon="11.561269636736464"><ele>292.0</ele><time>2026-04-12T14:03:07Z</time></trkpt><trkpt lat="46.03600829666608" lon="11.560997367258203"><ele>293.0</ele><time>2026-04-12T14:03:08Z</time></trkpt><trkpt lat="46.036113841047154" lon="11.560721394962798"><ele>294.0</ele><time>2026-04-12T14:03:09Z</time></trkpt><trkpt lat="46.036221281757406" lon="11.560447528279239"><ele>294.3333333333333</ele><time>2026-04-12T14:03:10Z</time></trkpt><trkpt lat="46.036330256638806" lon="11.560171465589104"><ele>294.66666666666663</ele><time>2026-04-12T14:03:11Z</time></trkpt><trkpt lat="46.03643970608086" lon="11.559898174269842"><ele>295.0</ele><time>2026-04-12T14:03:12Z</time></trkpt><trkpt lat="46.03654991540045" lon="11.559622870279085"><ele>297.3333333333333</ele><time>2026-04-12T14:03:13Z</time></trkpt><trkpt lat="46.03665691305972" lon="11.559342701183297"><ele>299.6666666666667</ele><time>2026-04-12T14:03:14Z</time></trkpt><trkpt lat="46.03676320563267" lon="11.55907323674441"><ele>302.0</ele><time>2026-04-12T14:03:15Z</time></trkpt><trkpt lat="46.03686349030012" lon="11.558815859496788"><ele>301.0</ele><time>2026-04-12T14:03:16Z</time></trkpt><trkpt lat="46.036958204879554" lon="11.558565259869376"><ele>300.0</ele><time>2026-04-12T14:03:17Z</time></trkpt><trkpt lat="46.03705308088894" lon="11.558320330084218"><ele>299.0</ele><time>2026-04-12T14:03:18Z</time></trkpt><trkpt lat="46.037149436220794" lon="11.55807612858787"><ele>298.6666666666667</ele><time>2026-04-12T14:03:19Z</time></trkpt><trkpt lat="46.03724818310391" lon="11.557827804219196"><ele>298.3333333333333</ele><time>2026-04-12T14:03:20Z</time></trkpt><trkpt lat="46.037348858481366" lon="11.557575959690276"><ele>298.0</ele><time>2026-04-12T14:03:21Z</time></trkpt><trkpt lat="46.0374480852037" lon="11.557318788013038"><ele>298.66666666666663</ele><time>2026-04-12T14:03:22Z</time></trkpt><trkpt lat="46.03754805083754" lon="11.557061808650536"><ele>299.3333333333333</ele><time>2026-04-12T14:03:23Z</time></trkpt><trkpt lat="46.037649954242674" lon="11.556805589531049"><ele>300.0</ele><time>2026-04-12T14:03:24Z</time></trkpt><trkpt lat="46.03775341219329" lon="11.556546493090094"><ele>300.0</ele><time>2026-04-12T14:03:25Z</time></trkpt><trkpt lat="46.03785740432024" lon="11.556287052304794"><ele>300.0</ele><time>2026-04-12T14:03:26Z</time></trkpt><trkpt lat="46.03796253274802" lon="11.556023698528142"><ele>300.0</ele><time>2026-04-12T14:03:27Z</time></trkpt><trkpt lat="46.03806896799725" lon="11.555755697400553"><ele>299.6666666666667</ele><time>2026-04-12T14:03:28Z</time></trkpt><trkpt lat="46.03817681066332" lon="11.555483080100496"><ele>299.33333333333337</ele><time>2026-04-12T14:03:29Z</time></trkpt><trkpt lat="46.038287713341276" lon="11.555207170930805"><ele>299.0</ele><time>2026-04-12T14:03:30Z</time></trkpt><trkpt lat="46.03840433694159" lon="11.554926147669708"><ele>299.5</ele><time>2026-04-12T14:03:31Z</time></trkpt><trkpt lat="46.03852107371458" lon="11.554635021640518"><ele>300.0</ele><time>2026-04-12T14:03:32Z</time></trkpt><trkpt lat="46.038638551128656" lon="11.554336834139846"><ele>300.0</ele><time>2026-04-12T14:03:33Z</time></trkpt><trkpt lat="46.038755531418055" lon="11.554033255216812"><ele>300.0</ele><time>2026-04-12T14:03:34Z</time></trkpt><trkpt lat="46.03887675988251" lon="11.553727893661485"><ele>300.0</ele><time>2026-04-12T14:03:35Z</time></trkpt><trkpt lat="46.03899736279588" lon="11.553421377760666"><ele>300.0</ele><time>2026-04-12T14:03:36Z</time></trkpt><trkpt lat="46.03911634202825" lon="11.553126089805"><ele>300.6666666666667</ele><time>2026-04-12T14:03:37Z</time></trkpt><trkpt lat="46.039225894149396" lon="11.552845778087585"><ele>301.33333333333337</ele><time>2026-04-12T14:03:38Z</time></trkpt><trkpt lat="46.03932918551733" lon="11.552579482115258"><ele>302.0</ele><time>2026-04-12T14:03:39Z</time></trkpt><trkpt lat="46.0394291972357" lon="11.552322410918004"><ele>302.0</ele><time>2026-04-12T14:03:40Z</time></trkpt><trkpt lat="46.03953417273163" lon="11.55206226927652"><ele>302.0</ele><time>2026-04-12T14:03:40.999Z</time></trkpt><trkpt lat="46.039639798934246" lon="11.551798252959323"><ele>302.0</ele><time>2026-04-12T14:03:41.999Z</time></trkpt><trkpt lat="46.039745197027734" lon="11.551527201664618"><ele>302.0</ele><time>2026-04-12T14:03:42.999Z</time></trkpt><trkpt lat="46.03985192893086" lon="11.551250773081977"><ele>302.0</ele><time>2026-04-12T14:03:43.999Z</time></trkpt><trkpt lat="46.03996132573327" lon="11.550967424373509"><ele>302.0</ele><time>2026-04-12T14:03:44.999Z</time></trkpt><trkpt lat="46.04007468341178" lon="11.550679451457585"><ele>302.0</ele><time>2026-04-12T14:03:45.999Z</time></trkpt><trkpt lat="46.04018772847436" lon="11.550387702138622"><ele>302.0</ele><time>2026-04-12T14:03:46.999Z</time></trkpt><trkpt lat="46.04030412505699" lon="11.550089449438921"><ele>302.0</ele><time>2026-04-12T14:03:47.999Z</time></trkpt><trkpt lat="46.040420568580736" lon="11.549792521678848"><ele>302.0</ele><time>2026-04-12T14:03:48.999Z</time></trkpt><trkpt lat="46.04053713042431" lon="11.549496277840388"><ele>302.0</ele><time>2026-04-12T14:03:49.999Z</time></trkpt><trkpt lat="46.0406535430849" lon="11.54920061852097"><ele>302.0</ele><time>2026-04-12T14:03:50.999Z</time></trkpt><trkpt lat="46.04077103812771" lon="11.548903379277254"><ele>303.5</ele><time>2026-04-12T14:03:51.999Z</time></trkpt><trkpt lat="46.040889247267636" lon="11.548609207975048"><ele>305.0</ele><time>2026-04-12T14:03:52.999Z</time></trkpt><trkpt lat="46.041006177843435" lon="11.548313227949004"><ele>305.0</ele><time>2026-04-12T14:03:53.999Z</time></trkpt><trkpt lat="46.04112174865189" lon="11.548015101855606"><ele>305.0</ele><time>2026-04-12T14:03:54.999Z</time></trkpt><trkpt lat="46.04123664570205" lon="11.547716093121231"><ele>304.5</ele><time>2026-04-12T14:03:55.999Z</time></trkpt><trkpt lat="46.04135321497283" lon="11.547416980621342"><ele>304.0</ele><time>2026-04-12T14:03:56.999Z</time></trkpt><trkpt lat="46.041470208933994" lon="11.547117603048225"><ele>304.5</ele><time>2026-04-12T14:03:57.999Z</time></trkpt><trkpt lat="46.04158804092263" lon="11.546818793821608"><ele>305.0</ele><time>2026-04-12T14:03:58.999Z</time></trkpt><trkpt lat="46.041703460957514" lon="11.546521478598414"><ele>305.0</ele><time>2026-04-12T14:03:59.999Z</time></trkpt><trkpt lat="46.04182053714522" lon="11.546226609088453"><ele>305.0</ele><time>2026-04-12T14:04:00.999Z</time></trkpt><trkpt lat="46.04193714509274" lon="11.545930705398987"><ele>305.0</ele><time>2026-04-12T14:04:01.999Z</time></trkpt><trkpt lat="46.04205474354735" lon="11.54563512302461"><ele>305.0</ele><time>2026-04-12T14:04:02.999Z</time></trkpt><trkpt lat="46.042171731089184" lon="11.545339589140964"><ele>305.5</ele><time>2026-04-12T14:04:03.999Z</time></trkpt><trkpt lat="46.04229009642118" lon="11.54504278087868"><ele>306.0</ele><time>2026-04-12T14:04:04.999Z</time></trkpt><trkpt lat="46.04240613216473" lon="11.544741932639507"><ele>307.0</ele><time>2026-04-12T14:04:05.999Z</time></trkpt><trkpt lat="46.04252314331778" lon="11.54444178824807"><ele>308.0</ele><time>2026-04-12T14:04:06.999Z</time></trkpt><trkpt lat="46.04263948161395" lon="11.544140483352422"><ele>308.0</ele><time>2026-04-12T14:04:07.999Z</time></trkpt><trkpt lat="46.04275742909445" lon="11.543838060159828"><ele>308.0</ele><time>2026-04-12T14:04:08.999Z</time></trkpt><trkpt lat="46.04287584148665" lon="11.543537642023537"><ele>308.0</ele><time>2026-04-12T14:04:09.999Z</time></trkpt><trkpt lat="46.042996906118354" lon="11.543235915526068"><ele>308.0</ele><time>2026-04-12T14:04:10.999Z</time></trkpt><trkpt lat="46.04311984149441" lon="11.542932474928167"><ele>308.5</ele><time>2026-04-12T14:04:11.999Z</time></trkpt><trkpt lat="46.04324364337119" lon="11.542628772068626"><ele>309.0</ele><time>2026-04-12T14:04:12.999Z</time></trkpt><trkpt lat="46.04336729110996" lon="11.54232070089725"><ele>309.5</ele><time>2026-04-12T14:04:13.999Z</time></trkpt><trkpt lat="46.04348981755961" lon="11.542008185348594"><ele>310.0</ele><time>2026-04-12T14:04:14.999Z</time></trkpt><trkpt lat="46.04361374346317" lon="11.54169538915224"><ele>310.0</ele><time>2026-04-12T14:04:15.999Z</time></trkpt><trkpt lat="46.04373709076009" lon="11.541379676576273"><ele>310.0</ele><time>2026-04-12T14:04:16.999Z</time></trkpt><trkpt lat="46.043860543734894" lon="11.541063614361601"><ele>310.0</ele><time>2026-04-12T14:04:17.999Z</time></trkpt><trkpt lat="46.04398272969" lon="11.540747861233292"><ele>310.0</ele><time>2026-04-12T14:04:18.999Z</time></trkpt><trkpt lat="46.04410660827021" lon="11.5404341024758"><ele>310.0</ele><time>2026-04-12T14:04:19.999Z</time></trkpt><trkpt lat="46.04423192520013" lon="11.540117782892487"><ele>310.0</ele><time>2026-04-12T14:04:20.999Z</time></trkpt><trkpt lat="46.04435614610466" lon="11.539803808083738"><ele>310.5</ele><time>2026-04-12T14:04:21.999Z</time></trkpt><trkpt lat="46.044480141746455" lon="11.539490739781039"><ele>311.0</ele><time>2026-04-12T14:04:22.999Z</time></trkpt><trkpt lat="46.04460178935684" lon="11.539179416176705"><ele>311.0</ele><time>2026-04-12T14:04:23.999Z</time></trkpt><trkpt lat="46.0447261325689" lon="11.538865217973177"><ele>311.0</ele><time>2026-04-12T14:04:24.999Z</time></trkpt><trkpt lat="46.04484943432316" lon="11.538553907402239"><ele>312.0</ele><time>2026-04-12T14:04:25.999Z</time></trkpt><trkpt lat="46.044974911593954" lon="11.538237379130607"><ele>313.0</ele><time>2026-04-12T14:04:26.999Z</time></trkpt><trkpt lat="46.045098591503425" lon="11.537925007520617"><ele>314.0</ele><time>2026-04-12T14:04:27.999Z</time></trkpt><trkpt lat="46.04522161270286" lon="11.537612711194441"><ele>315.0</ele><time>2026-04-12T14:04:28.999Z</time></trkpt><trkpt lat="46.04534346125639" lon="11.537302022790103"><ele>315.0</ele><time>2026-04-12T14:04:29.999Z</time></trkpt><trkpt lat="46.045465670185564" lon="11.536992458787495"><ele>315.0</ele><time>2026-04-12T14:04:30.999Z</time></trkpt><trkpt lat="46.04558425517872" lon="11.53668345853732"><ele>315.0</ele><time>2026-04-12T14:04:31.999Z</time></trkpt><trkpt lat="46.04570054360851" lon="11.5363873644043"><ele>315.0</ele><time>2026-04-12T14:04:32.999Z</time></trkpt><trkpt lat="46.04581432106776" lon="11.536098354258922"><ele>317.0</ele><time>2026-04-12T14:04:33.999Z</time></trkpt><trkpt lat="46.045930105089134" lon="11.53580885348756"><ele>319.0</ele><time>2026-04-12T14:04:34.999Z</time></trkpt><trkpt lat="46.046045030897815" lon="11.535517817083358"><ele>319.0</ele><time>2026-04-12T14:04:35.999Z</time></trkpt><trkpt lat="46.04615839369949" lon="11.535227839666549"><ele>319.0</ele><time>2026-04-12T14:04:36.999Z</time></trkpt><trkpt lat="46.046271290593744" lon="11.534935034034534"><ele>319.0</ele><time>2026-04-12T14:04:37.999Z</time></trkpt><trkpt lat="46.04638627681333" lon="11.534642842869271"><ele>319.0</ele><time>2026-04-12T14:04:38.999Z</time></trkpt><trkpt lat="46.04650191381069" lon="11.534349189224761"><ele>319.0</ele><time>2026-04-12T14:04:39.999Z</time></trkpt><trkpt lat="46.04661572256401" lon="11.534055290022001"><ele>319.0</ele><time>2026-04-12T14:04:40.999Z</time></trkpt><trkpt lat="46.046727326420665" lon="11.53376672843469"><ele>320.3333333333333</ele><time>2026-04-12T14:04:41.999Z</time></trkpt><trkpt lat="46.04683894742107" lon="11.533481605274474"><ele>321.6666666666667</ele><time>2026-04-12T14:04:42.999Z</time></trkpt><trkpt lat="46.046948970237935" lon="11.533203642597261"><ele>323.0</ele><time>2026-04-12T14:04:43.999Z</time></trkpt><trkpt lat="46.047056084469524" lon="11.532932714542689"><ele>323.0</ele><time>2026-04-12T14:04:44.999Z</time></trkpt><trkpt lat="46.04716026806877" lon="11.53266316047392"><ele>323.0</ele><time>2026-04-12T14:04:45.999Z</time></trkpt><trkpt lat="46.04726175102482" lon="11.532392992159977"><ele>323.0</ele><time>2026-04-12T14:04:46.999Z</time></trkpt><trkpt lat="46.047366691589986" lon="11.532122847493037"><ele>325.6666666666667</ele><time>2026-04-12T14:04:47.999Z</time></trkpt><trkpt lat="46.04747071757427" lon="11.531854565538156"><ele>328.3333333333333</ele><time>2026-04-12T14:04:48.998Z</time></trkpt><trkpt lat="46.047574851248" lon="11.53158390926837"><ele>331.0</ele><time>2026-04-12T14:04:49.998Z</time></trkpt><trkpt lat="46.04768102830278" lon="11.531306623689169"><ele>330.0</ele><time>2026-04-12T14:04:50.998Z</time></trkpt><trkpt lat="46.04778563491535" lon="11.531022664499467"><ele>329.0</ele><time>2026-04-12T14:04:51.998Z</time></trkpt><trkpt lat="46.047882348922236" lon="11.530726216215475"><ele>329.0</ele><time>2026-04-12T14:04:52.998Z</time></trkpt><trkpt lat="46.04797379769449" lon="11.530428939646399"><ele>329.0</ele><time>2026-04-12T14:04:53.998Z</time></trkpt><trkpt lat="46.04806038359643" lon="11.53013079038833"><ele>329.0</ele><time>2026-04-12T14:04:54.998Z</time></trkpt><trkpt lat="46.048141555741786" lon="11.529834517051436"><ele>329.0</ele><time>2026-04-12T14:04:55.998Z</time></trkpt><trkpt lat="46.04821940931383" lon="11.529538935582929"><ele>329.0</ele><time>2026-04-12T14:04:57Z</time></trkpt><trkpt lat="46.048294483698626" lon="11.529242657754839"><ele>330.6666666666667</ele><time>2026-04-12T14:04:58Z</time></trkpt><trkpt lat="46.04836497426312" lon="11.52894813268757"><ele>332.3333333333333</ele><time>2026-04-12T14:04:59Z</time></trkpt><trkpt lat="46.04843284769593" lon="11.52864380170386"><ele>334.0</ele><time>2026-04-12T14:05:00Z</time></trkpt><trkpt lat="46.048499880247064" lon="11.528336722898064"><ele>334.0</ele><time>2026-04-12T14:05:01Z</time></trkpt><trkpt lat="46.04856633344689" lon="11.528040462207594"><ele>334.0</ele><time>2026-04-12T14:05:02Z</time></trkpt><trkpt lat="46.04863012023548" lon="11.527759129178266"><ele>334.0</ele><time>2026-04-12T14:05:03Z</time></trkpt><trkpt lat="46.04869085682613" lon="11.527492361058723"><ele>334.0</ele><time>2026-04-12T14:05:04Z</time></trkpt><trkpt lat="46.048748143689565" lon="11.52723789789228"><ele>334.0</ele><time>2026-04-12T14:05:05Z</time></trkpt><trkpt lat="46.048804405490756" lon="11.526974690431842"><ele>334.0</ele><time>2026-04-12T14:05:06Z</time></trkpt><trkpt lat="46.04886586346659" lon="11.526704672507615"><ele>334.3333333333333</ele><time>2026-04-12T14:05:07Z</time></trkpt><trkpt lat="46.04892757902981" lon="11.526430591561727"><ele>334.6666666666667</ele><time>2026-04-12T14:05:08Z</time></trkpt><trkpt lat="46.04898852947165" lon="11.526154504636395"><ele>335.0</ele><time>2026-04-12T14:05:09Z</time></trkpt><trkpt lat="46.04904975312557" lon="11.525868980839995"><ele>336.33333333333337</ele><time>2026-04-12T14:05:10Z</time></trkpt><trkpt lat="46.049110027420426" lon="11.525582839495781"><ele>337.6666666666667</ele><time>2026-04-12T14:05:11Z</time></trkpt><trkpt lat="46.04917374601153" lon="11.525289741452394"><ele>339.0</ele><time>2026-04-12T14:05:12Z</time></trkpt><trkpt lat="46.04924473020502" lon="11.524993572378202"><ele>340.0</ele><time>2026-04-12T14:05:13Z</time></trkpt><trkpt lat="46.049313358154606" lon="11.524704376003902"><ele>341.0</ele><time>2026-04-12T14:05:14Z</time></trkpt><trkpt lat="46.0493774369317" lon="11.524414279501396"><ele>342.0</ele><time>2026-04-12T14:05:15Z</time></trkpt><trkpt lat="46.04944017258056" lon="11.524125609684276"><ele>343.0</ele><time>2026-04-12T14:05:16Z</time></trkpt><trkpt lat="46.0494994699065" lon="11.523837679268876"><ele>344.0</ele><time>2026-04-12T14:05:17Z</time></trkpt><trkpt lat="46.04956074781331" lon="11.52354744366748"><ele>345.0</ele><time>2026-04-12T14:05:18Z</time></trkpt><trkpt lat="46.049624414622905" lon="11.523259222849637"><ele>345.0</ele><time>2026-04-12T14:05:19Z</time></trkpt><trkpt lat="46.04968824540799" lon="11.522974012540729"><ele>345.0</ele><time>2026-04-12T14:05:20Z</time></trkpt><trkpt lat="46.049749938107034" lon="11.522704370620186"><ele>345.0</ele><time>2026-04-12T14:05:21Z</time></trkpt><trkpt lat="46.0498065788456" lon="11.52244662539246"><ele>345.3333333333333</ele><time>2026-04-12T14:05:22Z</time></trkpt><trkpt lat="46.04985887536932" lon="11.522204033398335"><ele>345.66666666666663</ele><time>2026-04-12T14:05:23Z</time></trkpt><trkpt lat="46.04990550001053" lon="11.521980536004492"><ele>346.0</ele><time>2026-04-12T14:05:24Z</time></trkpt><trkpt lat="46.04995098374678" lon="11.521769156672095"><ele>347.0</ele><time>2026-04-12T14:05:25Z</time></trkpt><trkpt lat="46.04999363618231" lon="11.521571480869394"><ele>348.0</ele><time>2026-04-12T14:05:26Z</time></trkpt><trkpt lat="46.05003464916792" lon="11.52138219597713"><ele>349.0</ele><time>2026-04-12T14:05:27Z</time></trkpt><trkpt lat="46.05007726437133" lon="11.52118699008165"><ele>350.0</ele><time>2026-04-12T14:05:28Z</time></trkpt><trkpt lat="46.05012334834285" lon="11.520985358819033"><ele>350.33333333333337</ele><time>2026-04-12T14:05:29Z</time></trkpt><trkpt lat="46.05017028115513" lon="11.520782517891252"><ele>350.6666666666667</ele><time>2026-04-12T14:05:30Z</time></trkpt><trkpt lat="46.0502169931854" lon="11.520573595767884"><ele>351.0</ele><time>2026-04-12T14:05:31Z</time></trkpt><trkpt lat="46.05026166301074" lon="11.520364362370607"><ele>351.0</ele><time>2026-04-12T14:05:32Z</time></trkpt><trkpt lat="46.05030493141744" lon="11.520158772097878"><ele>351.0</ele><time>2026-04-12T14:05:33Z</time></trkpt><trkpt lat="46.0503494146876" lon="11.519945279600485"><ele>351.0</ele><time>2026-04-12T14:05:34Z</time></trkpt><trkpt lat="46.05039435745098" lon="11.519723614498535"><ele>350.6666666666667</ele><time>2026-04-12T14:05:35Z</time></trkpt><trkpt lat="46.05044248194834" lon="11.519508111071845"><ele>350.33333333333337</ele><time>2026-04-12T14:05:36Z</time></trkpt><trkpt lat="46.05049027764673" lon="11.51929547174598"><ele>350.0</ele><time>2026-04-12T14:05:37Z</time></trkpt><trkpt lat="46.050538995119915" lon="11.519085672250705"><ele>350.0</ele><time>2026-04-12T14:05:38Z</time></trkpt><trkpt lat="46.05058796166719" lon="11.518871456725066"><ele>350.0</ele><time>2026-04-12T14:05:39Z</time></trkpt><trkpt lat="46.05063677600924" lon="11.518654564624041"><ele>350.0</ele><time>2026-04-12T14:05:40Z</time></trkpt><trkpt lat="46.05068410080331" lon="11.51844150940215"><ele>349.33333333333337</ele><time>2026-04-12T14:05:41Z</time></trkpt><trkpt lat="46.05072872278472" lon="11.51823370036502"><ele>348.6666666666667</ele><time>2026-04-12T14:05:42Z</time></trkpt><trkpt lat="46.050773242384835" lon="11.518028602258576"><ele>348.0</ele><time>2026-04-12T14:05:43Z</time></trkpt><trkpt lat="46.050816002419126" lon="11.51782186903087"><ele>349.3333333333333</ele><time>2026-04-12T14:05:44Z</time></trkpt><trkpt lat="46.05086095787574" lon="11.517609546973336"><ele>350.66666666666663</ele><time>2026-04-12T14:05:45Z</time></trkpt><trkpt lat="46.05090901858027" lon="11.517392896714448"><ele>352.0</ele><time>2026-04-12T14:05:46Z</time></trkpt><trkpt lat="46.05095700586082" lon="11.517174236139182"><ele>350.66666666666663</ele><time>2026-04-12T14:05:46.999Z</time></trkpt><trkpt lat="46.05100249296983" lon="11.516965909915541"><ele>349.3333333333333</ele><time>2026-04-12T14:05:47.999Z</time></trkpt><trkpt lat="46.051048414071424" lon="11.516758542369931"><ele>348.0</ele><time>2026-04-12T14:05:48.999Z</time></trkpt><trkpt lat="46.05109530875947" lon="11.516546625609582"><ele>348.0</ele><time>2026-04-12T14:05:49.999Z</time></trkpt><trkpt lat="46.051141291564655" lon="11.516332893050244"><ele>348.0</ele><time>2026-04-12T14:05:50.999Z</time></trkpt><trkpt lat="46.051187976770414" lon="11.51612123589595"><ele>348.0</ele><time>2026-04-12T14:05:51.999Z</time></trkpt><trkpt lat="46.05123570820356" lon="11.515912656380907"><ele>347.3333333333333</ele><time>2026-04-12T14:05:52.999Z</time></trkpt><trkpt lat="46.051284002673846" lon="11.515704005320533"><ele>346.66666666666663</ele><time>2026-04-12T14:05:53.999Z</time></trkpt><trkpt lat="46.05133129498291" lon="11.515496186656103"><ele>346.0</ele><time>2026-04-12T14:05:54.999Z</time></trkpt><trkpt lat="46.051376026994014" lon="11.515292263636457"><ele>346.0</ele><time>2026-04-12T14:05:55.999Z</time></trkpt><trkpt lat="46.05142068511576" lon="11.515091037837852"><ele>346.0</ele><time>2026-04-12T14:05:56.999Z</time></trkpt><trkpt lat="46.051462984303384" lon="11.514894847009671"><ele>346.0</ele><time>2026-04-12T14:05:57.999Z</time></trkpt><trkpt lat="46.05150614666688" lon="11.51469613678112"><ele>346.0</ele><time>2026-04-12T14:05:58.999Z</time></trkpt><trkpt lat="46.051549454400785" lon="11.514495377391473"><ele>346.25</ele><time>2026-04-12T14:05:59.999Z</time></trkpt><trkpt lat="46.05159389278646" lon="11.51429350866822"><ele>346.5</ele><time>2026-04-12T14:06:00.999Z</time></trkpt><trkpt lat="46.05164002708999" lon="11.514087814252015"><ele>346.75</ele><time>2026-04-12T14:06:01.999Z</time></trkpt><trkpt lat="46.051687352275685" lon="11.51388083267948"><ele>347.0</ele><time>2026-04-12T14:06:02.999Z</time></trkpt><trkpt lat="46.05173531213602" lon="11.513669020205555"><ele>347.6666666666667</ele><time>2026-04-12T14:06:03.999Z</time></trkpt><trkpt lat="46.05178251968909" lon="11.513446818246353"><ele>348.3333333333333</ele><time>2026-04-12T14:06:04.999Z</time></trkpt><trkpt lat="46.051833510088" lon="11.513218629497954"><ele>349.0</ele><time>2026-04-12T14:06:05.999Z</time></trkpt><trkpt lat="46.05188191903718" lon="11.512996484143647"><ele>349.0</ele><time>2026-04-12T14:06:06.999Z</time></trkpt><trkpt lat="46.05192976415752" lon="11.512782263421203"><ele>349.0</ele><time>2026-04-12T14:06:07.999Z</time></trkpt><trkpt lat="46.051978552298415" lon="11.512566397478171"><ele>349.0</ele><time>2026-04-12T14:06:08.999Z</time></trkpt><trkpt lat="46.052027320036544" lon="11.512345247834961"><ele>349.0</ele><time>2026-04-12T14:06:09.999Z</time></trkpt><trkpt lat="46.05207321631563" lon="11.512112321525839"><ele>349.0</ele><time>2026-04-12T14:06:10.999Z</time></trkpt><trkpt lat="46.052114886333044" lon="11.511869808888017"><ele>349.0</ele><time>2026-04-12T14:06:11.999Z</time></trkpt><trkpt lat="46.052148884718015" lon="11.511627968649627"><ele>349.0</ele><time>2026-04-12T14:06:12.999Z</time></trkpt><trkpt lat="46.05217885846166" lon="11.511389943406881"><ele>349.0</ele><time>2026-04-12T14:06:13.999Z</time></trkpt><trkpt lat="46.05220464394123" lon="11.511147342787405"><ele>349.0</ele><time>2026-04-12T14:06:14.999Z</time></trkpt><trkpt lat="46.05222508716174" lon="11.510904516142695"><ele>348.3333333333333</ele><time>2026-04-12T14:06:15.999Z</time></trkpt><trkpt lat="46.05223901479238" lon="11.510657740004252"><ele>347.6666666666667</ele><time>2026-04-12T14:06:16.999Z</time></trkpt><trkpt lat="46.052237564295915" lon="11.510407898879778"><ele>347.0</ele><time>2026-04-12T14:06:17.999Z</time></trkpt><trkpt lat="46.05221833740391" lon="11.51015037950026"><ele>347.0</ele><time>2026-04-12T14:06:18.999Z</time></trkpt><trkpt lat="46.052182185083225" lon="11.509888877124999"><ele>347.0</ele><time>2026-04-12T14:06:19.999Z</time></trkpt><trkpt lat="46.05213190024945" lon="11.50962365864815"><ele>347.0</ele><time>2026-04-12T14:06:20.999Z</time></trkpt><trkpt lat="46.05208148069985" lon="11.509347230585913"><ele>347.6666666666667</ele><time>2026-04-12T14:06:21.999Z</time></trkpt><trkpt lat="46.052023222275814" lon="11.509061514570298"><ele>348.3333333333333</ele><time>2026-04-12T14:06:22.999Z</time></trkpt><trkpt lat="46.0519635685312" lon="11.508751359921366"><ele>349.0</ele><time>2026-04-12T14:06:23.999Z</time></trkpt><trkpt lat="46.051897150824914" lon="11.508417610224953"><ele>349.5</ele><time>2026-04-12T14:06:24.999Z</time></trkpt><trkpt lat="46.05182456877554" lon="11.508064310468841"><ele>350.0</ele><time>2026-04-12T14:06:25.999Z</time></trkpt><trkpt lat="46.05175072601097" lon="11.507694873255865"><ele>350.0</ele><time>2026-04-12T14:06:26.999Z</time></trkpt><trkpt lat="46.05167775118752" lon="11.50732951158996"><ele>350.0</ele><time>2026-04-12T14:06:27.999Z</time></trkpt><trkpt lat="46.05160324381459" lon="11.50696066071135"><ele>349.0</ele><time>2026-04-12T14:06:28.999Z</time></trkpt><trkpt lat="46.05152460008516" lon="11.50659557563167"><ele>348.0</ele><time>2026-04-12T14:06:29.999Z</time></trkpt><trkpt lat="46.05144735516446" lon="11.506226437421631"><ele>347.5</ele><time>2026-04-12T14:06:30.999Z</time></trkpt><trkpt lat="46.0513709269998" lon="11.505849909389154"><ele>347.0</ele><time>2026-04-12T14:06:31.999Z</time></trkpt><trkpt lat="46.051293061743685" lon="11.50547583732132"><ele>346.5</ele><time>2026-04-12T14:06:32.999Z</time></trkpt><trkpt lat="46.051217259066725" lon="11.505097680159794"><ele>346.0</ele><time>2026-04-12T14:06:33.999Z</time></trkpt><trkpt lat="46.05114239415562" lon="11.504714135685267"><ele>346.0</ele><time>2026-04-12T14:06:34.999Z</time></trkpt><trkpt lat="46.051063649159495" lon="11.504331838418763"><ele>346.0</ele><time>2026-04-12T14:06:35.999Z</time></trkpt><trkpt lat="46.05098601189666" lon="11.503949404038574"><ele>346.5</ele><time>2026-04-12T14:06:36.999Z</time></trkpt><trkpt lat="46.05091227925662" lon="11.503579047174318"><ele>347.0</ele><time>2026-04-12T14:06:37.999Z</time></trkpt><trkpt lat="46.05084684448362" lon="11.503228934546184"><ele>346.0</ele><time>2026-04-12T14:06:38.999Z</time></trkpt><trkpt lat="46.050779475002976" lon="11.502871329307064"><ele>345.0</ele><time>2026-04-12T14:06:39.999Z</time></trkpt><trkpt lat="46.05071455148676" lon="11.50251690364424"><ele>345.0</ele><time>2026-04-12T14:06:40.999Z</time></trkpt><trkpt lat="46.05065344623219" lon="11.502161943061626"><ele>345.0</ele><time>2026-04-12T14:06:41.999Z</time></trkpt><trkpt lat="46.05059865247787" lon="11.501806572746213"><ele>345.0</ele><time>2026-04-12T14:06:42.999Z</time></trkpt><trkpt lat="46.05054678863545" lon="11.50145357345275"><ele>345.0</ele><time>2026-04-12T14:06:43.999Z</time></trkpt><trkpt lat="46.050523859701954" lon="11.501131148181438"><ele>345.0</ele><time>2026-04-12T14:06:44.999Z</time></trkpt><trkpt lat="46.05050082798914" lon="11.500812588471721"><ele>345.0</ele><time>2026-04-12T14:06:45.999Z</time></trkpt><trkpt lat="46.050483472378836" lon="11.50049262201397"><ele>345.0</ele><time>2026-04-12T14:06:46.999Z</time></trkpt><trkpt lat="46.05047729958666" lon="11.500160955554756"><ele>345.0</ele><time>2026-04-12T14:06:47.999Z</time></trkpt><trkpt lat="46.05047897750546" lon="11.499833158944096"><ele>345.0</ele><time>2026-04-12T14:06:48.999Z</time></trkpt><trkpt lat="46.05048749476917" lon="11.499501493174245"><ele>344.5</ele><time>2026-04-12T14:06:49.999Z</time></trkpt><trkpt lat="46.05050372088309" lon="11.499159732957688"><ele>344.0</ele><time>2026-04-12T14:06:50.999Z</time></trkpt><trkpt lat="46.05052906107084" lon="11.498791578639187"><ele>344.5</ele><time>2026-04-12T14:06:51.999Z</time></trkpt><trkpt lat="46.050556815375664" lon="11.498401346086707"><ele>345.0</ele><time>2026-04-12T14:06:52.998Z</time></trkpt><trkpt lat="46.05059693909093" lon="11.497983371174042"><ele>345.5</ele><time>2026-04-12T14:06:53.998Z</time></trkpt><trkpt lat="46.05063912739014" lon="11.497566771039422"><ele>346.0</ele><time>2026-04-12T14:06:54.998Z</time></trkpt><trkpt lat="46.05067611905905" lon="11.497148810409785"><ele>347.0</ele><time>2026-04-12T14:06:55.998Z</time></trkpt><trkpt lat="46.05071090369019" lon="11.496725473433374"><ele>348.0</ele><time>2026-04-12T14:06:56.998Z</time></trkpt><trkpt lat="46.050746419617276" lon="11.49629865610035"><ele>349.5</ele><time>2026-04-12T14:06:57.998Z</time></trkpt><trkpt lat="46.05077331934197" lon="11.495879128114696"><ele>351.0</ele><time>2026-04-12T14:06:58.998Z</time></trkpt><trkpt lat="46.050798829069116" lon="11.495484548333287"><ele>351.0</ele><time>2026-04-12T14:06:59.998Z</time></trkpt><trkpt lat="46.05082876380941" lon="11.495096652416688"><ele>351.0</ele><time>2026-04-12T14:07:00.998Z</time></trkpt><trkpt lat="46.05085973251078" lon="11.494704669436977"><ele>350.5</ele><time>2026-04-12T14:07:01.998Z</time></trkpt><trkpt lat="46.05089003500151" lon="11.494320837260362"><ele>350.0</ele><time>2026-04-12T14:07:03Z</time></trkpt><trkpt lat="46.050923983826095" lon="11.493942932370823"><ele>351.0</ele><time>2026-04-12T14:07:04Z</time></trkpt><trkpt lat="46.05095527845085" lon="11.493567500146112"><ele>352.0</ele><time>2026-04-12T14:07:05Z</time></trkpt><trkpt lat="46.05098652856" lon="11.493194917639395"><ele>351.5</ele><time>2026-04-12T14:07:06Z</time></trkpt><trkpt lat="46.05101650754969" lon="11.492828167179338"><ele>351.0</ele><time>2026-04-12T14:07:07Z</time></trkpt><trkpt lat="46.05104963921329" lon="11.492459196850755"><ele>351.0</ele><time>2026-04-12T14:07:08Z</time></trkpt><trkpt lat="46.051085411268694" lon="11.492094580960687"><ele>351.0</ele><time>2026-04-12T14:07:09Z</time></trkpt><trkpt lat="46.051115063551464" lon="11.49173264497952"><ele>350.5</ele><time>2026-04-12T14:07:10Z</time></trkpt><trkpt lat="46.051148215583694" lon="11.491380088261847"><ele>350.0</ele><time>2026-04-12T14:07:11Z</time></trkpt><trkpt lat="46.051176963619575" lon="11.491033824933524"><ele>351.0</ele><time>2026-04-12T14:07:12Z</time></trkpt><trkpt lat="46.05120856688883" lon="11.490698118893079"><ele>352.0</ele><time>2026-04-12T14:07:13Z</time></trkpt><trkpt lat="46.05124047679713" lon="11.490356633906243"><ele>352.5</ele><time>2026-04-12T14:07:14Z</time></trkpt><trkpt lat="46.051271662759675" lon="11.490016188849532"><ele>353.0</ele><time>2026-04-12T14:07:15Z</time></trkpt><trkpt lat="46.05130351115317" lon="11.489681644960829"><ele>353.0</ele><time>2026-04-12T14:07:16Z</time></trkpt><trkpt lat="46.05133476007745" lon="11.489354942027513"><ele>353.0</ele><time>2026-04-12T14:07:17Z</time></trkpt><trkpt lat="46.05135806869628" lon="11.489023686881534"><ele>353.0</ele><time>2026-04-12T14:07:18Z</time></trkpt><trkpt lat="46.05136863999894" lon="11.488692273165485"><ele>353.0</ele><time>2026-04-12T14:07:19Z</time></trkpt><trkpt lat="46.0513691025886" lon="11.488374002719741"><ele>353.0</ele><time>2026-04-12T14:07:20Z</time></trkpt><trkpt lat="46.05136035691134" lon="11.48805461913182"><ele>353.0</ele><time>2026-04-12T14:07:21Z</time></trkpt><trkpt lat="46.0513462727935" lon="11.48773316459468"><ele>353.0</ele><time>2026-04-12T14:07:22Z</time></trkpt><trkpt lat="46.05132871686023" lon="11.487410851414781"><ele>353.33333333333337</ele><time>2026-04-12T14:07:23Z</time></trkpt><trkpt lat="46.051307382964495" lon="11.48709122391513"><ele>353.6666666666667</ele><time>2026-04-12T14:07:24Z</time></trkpt><trkpt lat="46.051282661632" lon="11.486771820501582"><ele>354.0</ele><time>2026-04-12T14:07:25Z</time></trkpt><trkpt lat="46.051259179664285" lon="11.48645334656012"><ele>355.0</ele><time>2026-04-12T14:07:26Z</time></trkpt><trkpt lat="46.0512369554937" lon="11.48613394561035"><ele>356.0</ele><time>2026-04-12T14:07:27Z</time></trkpt><trkpt lat="46.05121231067483" lon="11.48581591396954"><ele>357.0</ele><time>2026-04-12T14:07:28Z</time></trkpt><trkpt lat="46.051189824283206" lon="11.485494762630955"><ele>358.0</ele><time>2026-04-12T14:07:29Z</time></trkpt><trkpt lat="46.0511654170838" lon="11.485175524870634"><ele>359.0</ele><time>2026-04-12T14:07:30Z</time></trkpt><trkpt lat="46.05114133737706" lon="11.484852403462819"><ele>360.0</ele><time>2026-04-12T14:07:31Z</time></trkpt><trkpt lat="46.0511179198354" lon="11.484529745198447"><ele>360.0</ele><time>2026-04-12T14:07:32Z</time></trkpt><trkpt lat="46.051094630956094" lon="11.484207278855237"><ele>360.0</ele><time>2026-04-12T14:07:33Z</time></trkpt><trkpt lat="46.05106895568978" lon="11.483881177190977"><ele>359.5</ele><time>2026-04-12T14:07:34Z</time></trkpt><trkpt lat="46.05104492452071" lon="11.48355344446876"><ele>359.0</ele><time>2026-04-12T14:07:35Z</time></trkpt><trkpt lat="46.05101824056249" lon="11.483218101303986"><ele>360.5</ele><time>2026-04-12T14:07:36Z</time></trkpt><trkpt lat="46.05099219751337" lon="11.482885593258231"><ele>362.0</ele><time>2026-04-12T14:07:37Z</time></trkpt><trkpt lat="46.050964014197774" lon="11.482545067735975"><ele>362.0</ele><time>2026-04-12T14:07:38Z</time></trkpt><trkpt lat="46.05093573721488" lon="11.482201526789531"><ele>362.0</ele><time>2026-04-12T14:07:39Z</time></trkpt><trkpt lat="46.05090280786551" lon="11.481849543719047"><ele>362.5</ele><time>2026-04-12T14:07:40Z</time></trkpt><trkpt lat="46.05085002808145" lon="11.481488715865416"><ele>363.0</ele><time>2026-04-12T14:07:41Z</time></trkpt><trkpt lat="46.05079665628524" lon="11.481126735261945"><ele>363.0</ele><time>2026-04-12T14:07:42Z</time></trkpt><trkpt lat="46.05073768910792" lon="11.480770240027814"><ele>363.0</ele><time>2026-04-12T14:07:43Z</time></trkpt><trkpt lat="46.050674200479094" lon="11.480422663034444"><ele>363.0</ele><time>2026-04-12T14:07:44Z</time></trkpt><trkpt lat="46.05060245048098" lon="11.480079949246802"><ele>363.0</ele><time>2026-04-12T14:07:45Z</time></trkpt><trkpt lat="46.05052384143424" lon="11.47974480377261"><ele>364.0</ele><time>2026-04-12T14:07:46Z</time></trkpt><trkpt lat="46.05043677325459" lon="11.479417269604857"><ele>365.0</ele><time>2026-04-12T14:07:47Z</time></trkpt><trkpt lat="46.05034006000911" lon="11.479088125164967"><ele>366.0</ele><time>2026-04-12T14:07:48Z</time></trkpt><trkpt lat="46.05024153171115" lon="11.478766220685419"><ele>367.0</ele><time>2026-04-12T14:07:49Z</time></trkpt><trkpt lat="46.05013161050676" lon="11.478446949042207"><ele>367.0</ele><time>2026-04-12T14:07:50Z</time></trkpt><trkpt lat="46.05002814918204" lon="11.478144929490167"><ele>367.0</ele><time>2026-04-12T14:07:50.999Z</time></trkpt><trkpt lat="46.04992235499437" lon="11.477853590912405"><ele>369.3333333333333</ele><time>2026-04-12T14:07:51.999Z</time></trkpt><trkpt lat="46.04981399215496" lon="11.47757391213648"><ele>371.6666666666667</ele><time>2026-04-12T14:07:52.999Z</time></trkpt><trkpt lat="46.04970290683293" lon="11.477300043102636"><ele>374.0</ele><time>2026-04-12T14:07:53.999Z</time></trkpt><trkpt lat="46.04959316316602" lon="11.477033278139546"><ele>374.0</ele><time>2026-04-12T14:07:54.999Z</time></trkpt><trkpt lat="46.04948274828424" lon="11.476761121529925"><ele>374.0</ele><time>2026-04-12T14:07:55.999Z</time></trkpt><trkpt lat="46.049368181800105" lon="11.476486752326396"><ele>374.0</ele><time>2026-04-12T14:07:56.999Z</time></trkpt><trkpt lat="46.04925786826034" lon="11.476209400064931"><ele>374.5</ele><time>2026-04-12T14:07:57.999Z</time></trkpt><trkpt lat="46.04914203722048" lon="11.475915937692935"><ele>375.0</ele><time>2026-04-12T14:07:58.999Z</time></trkpt><trkpt lat="46.049025341960764" lon="11.475629784428474"><ele>379.0</ele><time>2026-04-12T14:07:59.999Z</time></trkpt><trkpt lat="46.04890843973269" lon="11.475336674276527"><ele>383.0</ele><time>2026-04-12T14:08:00.999Z</time></trkpt><trkpt lat="46.04878947354461" lon="11.475032718445838"><ele>383.0</ele><time>2026-04-12T14:08:01.999Z</time></trkpt><trkpt lat="46.04867053966911" lon="11.474726681766372"><ele>383.0</ele><time>2026-04-12T14:08:02.999Z</time></trkpt><trkpt lat="46.04854423294278" lon="11.474417828751015"><ele>382.5</ele><time>2026-04-12T14:08:03.999Z</time></trkpt><trkpt lat="46.04842541594481" lon="11.474115583217865"><ele>382.0</ele><time>2026-04-12T14:08:04.999Z</time></trkpt><trkpt lat="46.04830305918358" lon="11.473815479105816"><ele>388.0</ele><time>2026-04-12T14:08:05.999Z</time></trkpt><trkpt lat="46.04818199298212" lon="11.47351205238654"><ele>394.0</ele><time>2026-04-12T14:08:06.999Z</time></trkpt><trkpt lat="46.04806678403874" lon="11.473215083100992"><ele>393.0</ele><time>2026-04-12T14:08:07.999Z</time></trkpt><trkpt lat="46.04794936039276" lon="11.472919699276979"><ele>392.0</ele><time>2026-04-12T14:08:08.999Z</time></trkpt><trkpt lat="46.04782962379764" lon="11.472625223338033"><ele>392.0</ele><time>2026-04-12T14:08:09.999Z</time></trkpt><trkpt lat="46.047709143509024" lon="11.472331046133457"><ele>392.0</ele><time>2026-04-12T14:08:10.999Z</time></trkpt><trkpt lat="46.0475925605013" lon="11.47203515690757"><ele>391.5</ele><time>2026-04-12T14:08:11.999Z</time></trkpt><trkpt lat="46.04747712763996" lon="11.471743964203377"><ele>391.0</ele><time>2026-04-12T14:08:12.999Z</time></trkpt><trkpt lat="46.047365880349105" lon="11.471454918039022"><ele>395.5</ele><time>2026-04-12T14:08:13.999Z</time></trkpt><trkpt lat="46.04724868248594" lon="11.471160128637244"><ele>400.0</ele><time>2026-04-12T14:08:14.999Z</time></trkpt><trkpt lat="46.04713547066531" lon="11.470873303989503"><ele>400.0</ele><time>2026-04-12T14:08:15.999Z</time></trkpt><trkpt lat="46.047020466324135" lon="11.470589817863795"><ele>400.0</ele><time>2026-04-12T14:08:16.999Z</time></trkpt><trkpt lat="46.046905660487646" lon="11.470307281528932"><ele>400.0</ele><time>2026-04-12T14:08:17.999Z</time></trkpt><trkpt lat="46.04679159964248" lon="11.47002404801037"><ele>400.0</ele><time>2026-04-12T14:08:18.999Z</time></trkpt><trkpt lat="46.04668191713201" lon="11.469740087825716"><ele>404.5</ele><time>2026-04-12T14:08:19.999Z</time></trkpt><trkpt lat="46.046565620051126" lon="11.4694573519751"><ele>409.0</ele><time>2026-04-12T14:08:20.999Z</time></trkpt><trkpt lat="46.04645267566529" lon="11.469172641003588"><ele>409.0</ele><time>2026-04-12T14:08:21.999Z</time></trkpt><trkpt lat="46.04633941223066" lon="11.468880595318913"><ele>409.0</ele><time>2026-04-12T14:08:22.999Z</time></trkpt><trkpt lat="46.04622724761141" lon="11.468592387055848"><ele>408.0</ele><time>2026-04-12T14:08:23.999Z</time></trkpt><trkpt lat="46.04611618018732" lon="11.468306906408321"><ele>407.0</ele><time>2026-04-12T14:08:24.999Z</time></trkpt><trkpt lat="46.04600265896487" lon="11.468023107882157"><ele>406.0</ele><time>2026-04-12T14:08:25.999Z</time></trkpt><trkpt lat="46.04589091823576" lon="11.467736654480865"><ele>405.0</ele><time>2026-04-12T14:08:26.999Z</time></trkpt><trkpt lat="46.045776899874696" lon="11.467450095790833"><ele>407.0</ele><time>2026-04-12T14:08:27.999Z</time></trkpt><trkpt lat="46.04566503611579" lon="11.467165492404899"><ele>409.0</ele><time>2026-04-12T14:08:28.999Z</time></trkpt><trkpt lat="46.04555616973045" lon="11.46687178738283"><ele>409.0</ele><time>2026-04-12T14:08:29.999Z</time></trkpt><trkpt lat="46.04546061372396" lon="11.466565824848663"><ele>409.0</ele><time>2026-04-12T14:08:30.999Z</time></trkpt><trkpt lat="46.045374760583954" lon="11.466247778665004"><ele>409.0</ele><time>2026-04-12T14:08:31.999Z</time></trkpt><trkpt lat="46.045300501900364" lon="11.465927832860176"><ele>409.0</ele><time>2026-04-12T14:08:32.999Z</time></trkpt><trkpt lat="46.0452481672205" lon="11.465611671804943"><ele>409.0</ele><time>2026-04-12T14:08:33.999Z</time></trkpt><trkpt lat="46.04520309772922" lon="11.465287142971002"><ele>409.0</ele><time>2026-04-12T14:08:34.999Z</time></trkpt><trkpt lat="46.04516740222094" lon="11.464964611761417"><ele>409.0</ele><time>2026-04-12T14:08:35.999Z</time></trkpt><trkpt lat="46.04513788745536" lon="11.464637047981766"><ele>409.0</ele><time>2026-04-12T14:08:36.999Z</time></trkpt><trkpt lat="46.04511685130162" lon="11.464312077582994"><ele>408.6666666666667</ele><time>2026-04-12T14:08:37.999Z</time></trkpt><trkpt lat="46.045105444207245" lon="11.463987906182165"><ele>408.33333333333337</ele><time>2026-04-12T14:08:38.999Z</time></trkpt><trkpt lat="46.04510237882562" lon="11.46366650804211"><ele>408.0</ele><time>2026-04-12T14:08:39.999Z</time></trkpt><trkpt lat="46.045112166949764" lon="11.463363191462406"><ele>409.0</ele><time>2026-04-12T14:08:40.999Z</time></trkpt><trkpt lat="46.045145611205406" lon="11.46307342403907"><ele>410.0</ele><time>2026-04-12T14:08:41.999Z</time></trkpt><trkpt lat="46.04518702222642" lon="11.462791046401097"><ele>411.0</ele><time>2026-04-12T14:08:42.999Z</time></trkpt><trkpt lat="46.04522786119229" lon="11.462503461538354"><ele>412.66666666666663</ele><time>2026-04-12T14:08:44.019Z</time></trkpt><trkpt lat="46.045266471634974" lon="11.46221791960078"><ele>414.3333333333333</ele><time>2026-04-12T14:08:45.018Z</time></trkpt><trkpt lat="46.045304021033274" lon="11.461932080674522"><ele>416.0</ele><time>2026-04-12T14:08:46.019Z</time></trkpt><trkpt lat="46.04534238269046" lon="11.461649199633845"><ele>417.0</ele><time>2026-04-12T14:08:47.018Z</time></trkpt><trkpt lat="46.04538119971982" lon="11.461364952673168"><ele>418.0</ele><time>2026-04-12T14:08:48.019Z</time></trkpt><trkpt lat="46.045583579732146" lon="11.459038294862452"><ele>432.0</ele><time>2026-04-12T14:08:54.999Z</time></trkpt><trkpt lat="46.04562042124362" lon="11.458709471466884"><ele>446.0</ele><time>2026-04-12T14:08:55.999Z</time></trkpt><trkpt lat="46.04566058849626" lon="11.458370260732654"><ele>446.0</ele><time>2026-04-12T14:08:56.998Z</time></trkpt><trkpt lat="46.04569642113674" lon="11.458041522234"><ele>446.0</ele><time>2026-04-12T14:08:57.998Z</time></trkpt><trkpt lat="46.04573388824335" lon="11.457709598648469"><ele>453.3333333333333</ele><time>2026-04-12T14:08:58.998Z</time></trkpt><trkpt lat="46.0457690798335" lon="11.457382675966608"><ele>460.66666666666663</ele><time>2026-04-12T14:08:59.998Z</time></trkpt><trkpt lat="46.04579504476089" lon="11.457069362354142"><ele>468.0</ele><time>2026-04-12T14:09:00.998Z</time></trkpt><trkpt lat="46.04581919711825" lon="11.456741927375402"><ele>453.5</ele><time>2026-04-12T14:09:01.998Z</time></trkpt><trkpt lat="46.045836368439886" lon="11.456414189296824"><ele>439.0</ele><time>2026-04-12T14:09:02.998Z</time></trkpt><trkpt lat="46.04585391230682" lon="11.456083677772781"><ele>439.0</ele><time>2026-04-12T14:09:03.998Z</time></trkpt><trkpt lat="46.045871214702814" lon="11.455751787354556"><ele>439.0</ele><time>2026-04-12T14:09:04.998Z</time></trkpt><trkpt lat="46.04588960079877" lon="11.45541264267231"><ele>453.0</ele><time>2026-04-12T14:09:06.015Z</time></trkpt><trkpt lat="46.045908325977656" lon="11.45507560265005"><ele>467.0</ele><time>2026-04-12T14:09:07.018Z</time></trkpt><trkpt lat="46.04593005311885" lon="11.45473899840488"><ele>468.0</ele><time>2026-04-12T14:09:08.02Z</time></trkpt><trkpt lat="46.04596133117182" lon="11.454399175300262"><ele>469.0</ele><time>2026-04-12T14:09:09.019Z</time></trkpt><trkpt lat="46.0459897255385" lon="11.45406225955134"><ele>422.0</ele><time>2026-04-12T14:09:10.016Z</time></trkpt><trkpt lat="46.046697157478" lon="11.449584765370423"><ele>422.0</ele><time>2026-04-12T14:09:23.998Z</time></trkpt><trkpt lat="46.04674564459003" lon="11.449274673183576"><ele>422.0</ele><time>2026-04-12T14:09:24.998Z</time></trkpt><trkpt lat="46.04678511876883" lon="11.448949691427456"><ele>422.66666666666663</ele><time>2026-04-12T14:09:25.998Z</time></trkpt><trkpt lat="46.04681702439761" lon="11.448653516477576"><ele>423.33333333333337</ele><time>2026-04-12T14:09:27Z</time></trkpt><trkpt lat="46.046855211535615" lon="11.448338894638182"><ele>424.0</ele><time>2026-04-12T14:09:28Z</time></trkpt><trkpt lat="46.046885624962655" lon="11.448014044769337"><ele>426.0</ele><time>2026-04-12T14:09:29Z</time></trkpt><trkpt lat="46.04690273458396" lon="11.447694206728446"><ele>428.0</ele><time>2026-04-12T14:09:30Z</time></trkpt><trkpt lat="46.046914902937836" lon="11.447359627451457"><ele>427.0</ele><time>2026-04-12T14:09:31Z</time></trkpt><trkpt lat="46.046932419761795" lon="11.4470345142068"><ele>426.0</ele><time>2026-04-12T14:09:32Z</time></trkpt><trkpt lat="46.04694981843847" lon="11.446696540558932"><ele>426.0</ele><time>2026-04-12T14:09:33Z</time></trkpt><trkpt lat="46.04693843824181" lon="11.446357285843343"><ele>426.0</ele><time>2026-04-12T14:09:34Z</time></trkpt><trkpt lat="46.0469136091694" lon="11.44603750906006"><ele>426.0</ele><time>2026-04-12T14:09:35Z</time></trkpt><trkpt lat="46.04688560718392" lon="11.445700930016981"><ele>426.0</ele><time>2026-04-12T14:09:36Z</time></trkpt><trkpt lat="46.04685558466246" lon="11.445361297795497"><ele>426.5</ele><time>2026-04-12T14:09:37Z</time></trkpt><trkpt lat="46.04682253334134" lon="11.445023744286349"><ele>427.0</ele><time>2026-04-12T14:09:38Z</time></trkpt><trkpt lat="46.046788361343765" lon="11.444685659289688"><ele>426.5</ele><time>2026-04-12T14:09:39Z</time></trkpt><trkpt lat="46.04675495999783" lon="11.444343540570266"><ele>426.0</ele><time>2026-04-12T14:09:40Z</time></trkpt><trkpt lat="46.04672148023297" lon="11.443996447661286"><ele>425.5</ele><time>2026-04-12T14:09:41Z</time></trkpt><trkpt lat="46.046686418058684" lon="11.44364909900272"><ele>425.0</ele><time>2026-04-12T14:09:42Z</time></trkpt><trkpt lat="46.046651454448494" lon="11.44330720573786"><ele>431.0</ele><time>2026-04-12T14:09:43Z</time></trkpt><trkpt lat="46.04661432295489" lon="11.442967606390932"><ele>437.0</ele><time>2026-04-12T14:09:44Z</time></trkpt><trkpt lat="46.04658159725966" lon="11.442622773627498"><ele>437.0</ele><time>2026-04-12T14:09:45Z</time></trkpt><trkpt lat="46.04654573012956" lon="11.442274904016577"><ele>437.0</ele><time>2026-04-12T14:09:46Z</time></trkpt><trkpt lat="46.04650633364692" lon="11.441925280328038"><ele>434.5</ele><time>2026-04-12T14:09:47Z</time></trkpt><trkpt lat="46.04647154802103" lon="11.441575092627968"><ele>432.0</ele><time>2026-04-12T14:09:48Z</time></trkpt><trkpt lat="46.04643091243794" lon="11.441226673984609"><ele>429.0</ele><time>2026-04-12T14:09:49Z</time></trkpt><trkpt lat="46.04639296422642" lon="11.440875291986131"><ele>426.0</ele><time>2026-04-12T14:09:50Z</time></trkpt><trkpt lat="46.04635642100528" lon="11.440518727644468"><ele>425.0</ele><time>2026-04-12T14:09:51Z</time></trkpt><trkpt lat="46.04632301717194" lon="11.44015617579799"><ele>424.0</ele><time>2026-04-12T14:09:52Z</time></trkpt><trkpt lat="46.046285630928246" lon="11.439790361346509"><ele>421.0</ele><time>2026-04-12T14:09:53Z</time></trkpt><trkpt lat="46.046250504321804" lon="11.439410465357195"><ele>418.0</ele><time>2026-04-12T14:09:54Z</time></trkpt><trkpt lat="46.046216293773945" lon="11.439042354872937"><ele>415.5</ele><time>2026-04-12T14:09:55Z</time></trkpt><trkpt lat="46.04617604783657" lon="11.438665899347255"><ele>413.0</ele><time>2026-04-12T14:09:56Z</time></trkpt><trkpt lat="46.04613668795128" lon="11.438278237680375"><ele>410.5</ele><time>2026-04-12T14:09:57Z</time></trkpt><trkpt lat="46.0461014722633" lon="11.43790875622661"><ele>408.0</ele><time>2026-04-12T14:09:58Z</time></trkpt><trkpt lat="46.046064634686616" lon="11.437531437581052"><ele>408.0</ele><time>2026-04-12T14:09:59Z</time></trkpt><trkpt lat="46.046047010926316" lon="11.437154414139098"><ele>408.0</ele><time>2026-04-12T14:10:00Z</time></trkpt><trkpt lat="46.04602504750988" lon="11.436783153650905"><ele>405.0</ele><time>2026-04-12T14:10:01Z</time></trkpt><trkpt lat="46.04602362746872" lon="11.436412372592425"><ele>402.0</ele><time>2026-04-12T14:10:02Z</time></trkpt><trkpt lat="46.046020457650904" lon="11.436055387415934"><ele>401.5</ele><time>2026-04-12T14:10:03Z</time></trkpt><trkpt lat="46.046031547976376" lon="11.435712543937742"><ele>401.0</ele><time>2026-04-12T14:10:04Z</time></trkpt><trkpt lat="46.0460491958777" lon="11.435369602697712"><ele>400.0</ele><time>2026-04-12T14:10:05Z</time></trkpt><trkpt lat="46.046069672870935" lon="11.43503885256052"><ele>399.0</ele><time>2026-04-12T14:10:06Z</time></trkpt><trkpt lat="46.04610147925463" lon="11.43470183605394"><ele>397.0</ele><time>2026-04-12T14:10:07Z</time></trkpt><trkpt lat="46.04613764868081" lon="11.434362619567386"><ele>395.0</ele><time>2026-04-12T14:10:08Z</time></trkpt><trkpt lat="46.04618246943255" lon="11.43402182984497"><ele>395.5</ele><time>2026-04-12T14:10:09Z</time></trkpt><trkpt lat="46.0462248042281" lon="11.433666009412464"><ele>396.0</ele><time>2026-04-12T14:10:10Z</time></trkpt><trkpt lat="46.046269911001" lon="11.43331188013571"><ele>396.5</ele><time>2026-04-12T14:10:11Z</time></trkpt><trkpt lat="46.04631772269366" lon="11.432962774529363"><ele>397.0</ele><time>2026-04-12T14:10:12Z</time></trkpt><trkpt lat="46.04636299214432" lon="11.43262222351404"><ele>397.0</ele><time>2026-04-12T14:10:13Z</time></trkpt><trkpt lat="46.04640854679774" lon="11.432291850426946"><ele>397.0</ele><time>2026-04-12T14:10:13.999Z</time></trkpt><trkpt lat="46.04644753692224" lon="11.431966627769071"><ele>397.0</ele><time>2026-04-12T14:10:14.999Z</time></trkpt><trkpt lat="46.04648760160882" lon="11.431645249121363"><ele>397.0</ele><time>2026-04-12T14:10:15.999Z</time></trkpt><trkpt lat="46.04652722530769" lon="11.431331723688418"><ele>397.0</ele><time>2026-04-12T14:10:16.999Z</time></trkpt><trkpt lat="46.046564885738306" lon="11.431021187146282"><ele>395.6666666666667</ele><time>2026-04-12T14:10:17.999Z</time></trkpt><trkpt lat="46.04660466686046" lon="11.430701562815187"><ele>394.33333333333337</ele><time>2026-04-12T14:10:18.999Z</time></trkpt><trkpt lat="46.04663854434902" lon="11.430387265957961"><ele>393.0</ele><time>2026-04-12T14:10:19.999Z</time></trkpt><trkpt lat="46.04666650894156" lon="11.430073051004529"><ele>393.0</ele><time>2026-04-12T14:10:20.999Z</time></trkpt><trkpt lat="46.04668192007516" lon="11.429752056516461"><ele>393.0</ele><time>2026-04-12T14:10:21.999Z</time></trkpt><trkpt lat="46.046684259799704" lon="11.429427566914761"><ele>393.0</ele><time>2026-04-12T14:10:22.999Z</time></trkpt><trkpt lat="46.04667944722825" lon="11.429098616962078"><ele>393.5</ele><time>2026-04-12T14:10:23.999Z</time></trkpt><trkpt lat="46.04667147013809" lon="11.428762306950967"><ele>394.0</ele><time>2026-04-12T14:10:24.999Z</time></trkpt><trkpt lat="46.04664671819104" lon="11.428418248663908"><ele>394.0</ele><time>2026-04-12T14:10:25.999Z</time></trkpt><trkpt lat="46.0466104220244" lon="11.42807634579884"><ele>394.0</ele><time>2026-04-12T14:10:26.999Z</time></trkpt><trkpt lat="46.046567711512026" lon="11.427728252731788"><ele>394.5</ele><time>2026-04-12T14:10:27.999Z</time></trkpt><trkpt lat="46.04650824232977" lon="11.427388501924053"><ele>395.0</ele><time>2026-04-12T14:10:28.999Z</time></trkpt><trkpt lat="46.04644193757712" lon="11.427051424547578"><ele>395.0</ele><time>2026-04-12T14:10:29.999Z</time></trkpt><trkpt lat="46.046361601080456" lon="11.42671526908148"><ele>395.0</ele><time>2026-04-12T14:10:30.999Z</time></trkpt><trkpt lat="46.04626615275029" lon="11.426387710212264"><ele>396.5</ele><time>2026-04-12T14:10:31.999Z</time></trkpt><trkpt lat="46.04616254419346" lon="11.426060654926301"><ele>398.0</ele><time>2026-04-12T14:10:32.999Z</time></trkpt><trkpt lat="46.04605055566886" lon="11.42573599573532"><ele>398.0</ele><time>2026-04-12T14:10:33.999Z</time></trkpt><trkpt lat="46.04592662809099" lon="11.42542186583992"><ele>398.0</ele><time>2026-04-12T14:10:34.999Z</time></trkpt><trkpt lat="46.04580269546582" lon="11.425125169053517"><ele>397.5</ele><time>2026-04-12T14:10:35.999Z</time></trkpt><trkpt lat="46.04565930970787" lon="11.424837955688837"><ele>397.0</ele><time>2026-04-12T14:10:36.999Z</time></trkpt><trkpt lat="46.045525946245604" lon="11.424572243591834"><ele>398.5</ele><time>2026-04-12T14:10:37.999Z</time></trkpt><trkpt lat="46.04538363047818" lon="11.424303463056724"><ele>400.0</ele><time>2026-04-12T14:10:38.999Z</time></trkpt><trkpt lat="46.04524456453756" lon="11.42403645023863"><ele>400.0</ele><time>2026-04-12T14:10:39.999Z</time></trkpt><trkpt lat="46.045102684667725" lon="11.42376759740944"><ele>400.0</ele><time>2026-04-12T14:10:40.999Z</time></trkpt><trkpt lat="46.04495958390381" lon="11.423501640048825"><ele>399.5</ele><time>2026-04-12T14:10:41.999Z</time></trkpt><trkpt lat="46.04482026042662" lon="11.423231231714588"><ele>399.0</ele><time>2026-04-12T14:10:42.999Z</time></trkpt><trkpt lat="46.044675967564615" lon="11.42296287154789"><ele>400.5</ele><time>2026-04-12T14:10:43.999Z</time></trkpt><trkpt lat="46.04452564378787" lon="11.42268804293832"><ele>402.0</ele><time>2026-04-12T14:10:44.999Z</time></trkpt><trkpt lat="46.04438731319028" lon="11.422412821382412"><ele>402.5</ele><time>2026-04-12T14:10:45.999Z</time></trkpt><trkpt lat="46.044242443551916" lon="11.422138487664443"><ele>403.0</ele><time>2026-04-12T14:10:46.999Z</time></trkpt><trkpt lat="46.04409235056811" lon="11.421853067948936"><ele>403.0</ele><time>2026-04-12T14:10:47.999Z</time></trkpt><trkpt lat="46.04394794149574" lon="11.421577871057194"><ele>403.0</ele><time>2026-04-12T14:10:48.999Z</time></trkpt><trkpt lat="46.04380177462357" lon="11.421292043054189"><ele>403.0</ele><time>2026-04-12T14:10:49.999Z</time></trkpt><trkpt lat="46.04365783821443" lon="11.421011814362053"><ele>403.0</ele><time>2026-04-12T14:10:50.999Z</time></trkpt><trkpt lat="46.04350078674996" lon="11.420741968307004"><ele>403.5</ele><time>2026-04-12T14:10:51.999Z</time></trkpt><trkpt lat="46.0433588986577" lon="11.420464031309734"><ele>404.0</ele><time>2026-04-12T14:10:52.999Z</time></trkpt><trkpt lat="46.0432168151024" lon="11.420188112185086"><ele>404.0</ele><time>2026-04-12T14:10:53.999Z</time></trkpt><trkpt lat="46.043074227479124" lon="11.419920499996891"><ele>404.0</ele><time>2026-04-12T14:10:54.999Z</time></trkpt><trkpt lat="46.04292535626846" lon="11.419640422385832"><ele>405.5</ele><time>2026-04-12T14:10:55.999Z</time></trkpt><trkpt lat="46.04277658995831" lon="11.419375815273881"><ele>407.0</ele><time>2026-04-12T14:10:56.999Z</time></trkpt><trkpt lat="46.04263522827738" lon="11.419112205559385"><ele>407.0</ele><time>2026-04-12T14:10:57.999Z</time></trkpt><trkpt lat="46.042498684753205" lon="11.418844516078222"><ele>407.0</ele><time>2026-04-12T14:10:58.999Z</time></trkpt><trkpt lat="46.04235053294705" lon="11.418575665262379"><ele>408.5</ele><time>2026-04-12T14:10:59.999Z</time></trkpt><trkpt lat="46.04220844840177" lon="11.418306018935565"><ele>410.0</ele><time>2026-04-12T14:11:00.999Z</time></trkpt><trkpt lat="46.04206903430037" lon="11.418041599241405"><ele>410.0</ele><time>2026-04-12T14:11:01.999Z</time></trkpt><trkpt lat="46.041912424030336" lon="11.417775907017086"><ele>410.0</ele><time>2026-04-12T14:11:02.999Z</time></trkpt><trkpt lat="46.04176114583818" lon="11.41750330132226"><ele>411.0</ele><time>2026-04-12T14:11:03.999Z</time></trkpt><trkpt lat="46.04160174481375" lon="11.417222584615613"><ele>412.0</ele><time>2026-04-12T14:11:04.999Z</time></trkpt><trkpt lat="46.04146613301991" lon="11.416920423786497"><ele>412.0</ele><time>2026-04-12T14:11:05.999Z</time></trkpt><trkpt lat="46.0413578989087" lon="11.416597552143584"><ele>412.0</ele><time>2026-04-12T14:11:06.999Z</time></trkpt><trkpt lat="46.04125176115869" lon="11.416241971511942"><ele>411.5</ele><time>2026-04-12T14:11:07.999Z</time></trkpt><trkpt lat="46.041146907983446" lon="11.415885676616053"><ele>411.0</ele><time>2026-04-12T14:11:08.999Z</time></trkpt><trkpt lat="46.04103153329311" lon="11.415534680959698"><ele>412.0</ele><time>2026-04-12T14:11:09.999Z</time></trkpt><trkpt lat="46.040924839161704" lon="11.415182916779363"><ele>413.0</ele><time>2026-04-12T14:11:10.999Z</time></trkpt><trkpt lat="46.040821816483515" lon="11.41483139542577"><ele>414.0</ele><time>2026-04-12T14:11:11.999Z</time></trkpt><trkpt lat="46.04070535260966" lon="11.414491504255059"><ele>415.0</ele><time>2026-04-12T14:11:12.999Z</time></trkpt><trkpt lat="46.04059758252135" lon="11.41416231700489"><ele>415.0</ele><time>2026-04-12T14:11:13.999Z</time></trkpt><trkpt lat="46.04049550282384" lon="11.413847543428155"><ele>415.0</ele><time>2026-04-12T14:11:14.999Z</time></trkpt><trkpt lat="46.04039568640983" lon="11.413547496733052"><ele>414.33333333333337</ele><time>2026-04-12T14:11:15.999Z</time></trkpt><trkpt lat="46.04030399340828" lon="11.413261168585331"><ele>413.66666666666663</ele><time>2026-04-12T14:11:16.999Z</time></trkpt><trkpt lat="46.04021710841728" lon="11.412986720279234"><ele>413.0</ele><time>2026-04-12T14:11:17.999Z</time></trkpt><trkpt lat="46.04013526013703" lon="11.412697468817937"><ele>413.0</ele><time>2026-04-12T14:11:18.998Z</time></trkpt><trkpt lat="46.040057156471185" lon="11.412391059413782"><ele>413.0</ele><time>2026-04-12T14:11:19.998Z</time></trkpt><trkpt lat="46.03999606282127" lon="11.412078871707447"><ele>418.0</ele><time>2026-04-12T14:11:20.998Z</time></trkpt><trkpt lat="46.0399338673178" lon="11.411756759161594"><ele>423.0</ele><time>2026-04-12T14:11:21.998Z</time></trkpt><trkpt lat="46.03988133423886" lon="11.411423999380206"><ele>419.5</ele><time>2026-04-12T14:11:22.998Z</time></trkpt><trkpt lat="46.0398350658584" lon="11.411094573922941"><ele>416.0</ele><time>2026-04-12T14:11:23.998Z</time></trkpt><trkpt lat="46.039797701003955" lon="11.410755248976988"><ele>415.5</ele><time>2026-04-12T14:11:24.998Z</time></trkpt><trkpt lat="46.039766235477394" lon="11.410418312967781"><ele>415.0</ele><time>2026-04-12T14:11:25.998Z</time></trkpt><trkpt lat="46.039745068533904" lon="11.410078618276131"><ele>415.0</ele><time>2026-04-12T14:11:26.998Z</time></trkpt><trkpt lat="46.039727016857185" lon="11.409742447347334"><ele>415.0</ele><time>2026-04-12T14:11:27.998Z</time></trkpt><trkpt lat="46.03970971473802" lon="11.40940768793282"><ele>414.0</ele><time>2026-04-12T14:11:28.998Z</time></trkpt><trkpt lat="46.039687869926645" lon="11.409071430277146"><ele>413.0</ele><time>2026-04-12T14:11:29.998Z</time></trkpt><trkpt lat="46.03966369863131" lon="11.408735068585141"><ele>412.5</ele><time>2026-04-12T14:11:30.998Z</time></trkpt><trkpt lat="46.03964150006731" lon="11.408397216148963"><ele>412.0</ele><time>2026-04-12T14:11:31.998Z</time></trkpt><trkpt lat="46.03961541606272" lon="11.408054782843841"><ele>413.5</ele><time>2026-04-12T14:11:33Z</time></trkpt><trkpt lat="46.03959482108154" lon="11.40771757962146"><ele>415.0</ele><time>2026-04-12T14:11:34Z</time></trkpt><trkpt lat="46.03957501078618" lon="11.407368261477382"><ele>414.0</ele><time>2026-04-12T14:11:35Z</time></trkpt><trkpt lat="46.039552706901716" lon="11.407024755516542"><ele>413.0</ele><time>2026-04-12T14:11:36Z</time></trkpt><trkpt lat="46.03952936007978" lon="11.40667781339901"><ele>413.0</ele><time>2026-04-12T14:11:37Z</time></trkpt><trkpt lat="46.03950432041526" lon="11.406332821364712"><ele>413.0</ele><time>2026-04-12T14:11:38Z</time></trkpt><trkpt lat="46.039477401043214" lon="11.4059861106426"><ele>413.0</ele><time>2026-04-12T14:11:39Z</time></trkpt><trkpt lat="46.03945413225513" lon="11.405639434741973"><ele>413.0</ele><time>2026-04-12T14:11:40Z</time></trkpt><trkpt lat="46.039433009302236" lon="11.405290027851008"><ele>414.5</ele><time>2026-04-12T14:11:41Z</time></trkpt><trkpt lat="46.0394059155355" lon="11.404940262804255"><ele>416.0</ele><time>2026-04-12T14:11:42Z</time></trkpt><trkpt lat="46.03937735854117" lon="11.404590082059377"><ele>416.5</ele><time>2026-04-12T14:11:43Z</time></trkpt><trkpt lat="46.0393354664539" lon="11.404238540015603"><ele>417.0</ele><time>2026-04-12T14:11:44Z</time></trkpt><trkpt lat="46.03927346754518" lon="11.403890241558129"><ele>416.0</ele><time>2026-04-12T14:11:45Z</time></trkpt><trkpt lat="46.03920089394491" lon="11.403540156795705"><ele>415.0</ele><time>2026-04-12T14:11:46Z</time></trkpt><trkpt lat="46.03911815353585" lon="11.403195109900764"><ele>415.0</ele><time>2026-04-12T14:11:47Z</time></trkpt><trkpt lat="46.039027390397656" lon="11.402856141488805"><ele>415.0</ele><time>2026-04-12T14:11:48Z</time></trkpt><trkpt lat="46.038922991690065" lon="11.402529175150816"><ele>415.0</ele><time>2026-04-12T14:11:49Z</time></trkpt><trkpt lat="46.03881646884726" lon="11.402206065325231"><ele>415.0</ele><time>2026-04-12T14:11:50Z</time></trkpt><trkpt lat="46.03869109589949" lon="11.401900744902374"><ele>417.0</ele><time>2026-04-12T14:11:51Z</time></trkpt><trkpt lat="46.03855167871478" lon="11.401599161702736"><ele>419.0</ele><time>2026-04-12T14:11:52Z</time></trkpt><trkpt lat="46.03839996094101" lon="11.401307534539415"><ele>418.0</ele><time>2026-04-12T14:11:53Z</time></trkpt><trkpt lat="46.038249080333294" lon="11.401033549291293"><ele>417.0</ele><time>2026-04-12T14:11:54Z</time></trkpt><trkpt lat="46.03809775692592" lon="11.400776168227088"><ele>417.0</ele><time>2026-04-12T14:11:55Z</time></trkpt><trkpt lat="46.03794391108341" lon="11.400525521439677"><ele>417.0</ele><time>2026-04-12T14:11:56Z</time></trkpt><trkpt lat="46.03778253110877" lon="11.400279428094034"><ele>416.5</ele><time>2026-04-12T14:11:57Z</time></trkpt><trkpt lat="46.03762023964841" lon="11.400023971058127"><ele>416.0</ele><time>2026-04-12T14:11:58Z</time></trkpt><trkpt lat="46.03745411229388" lon="11.399760659447184"><ele>417.0</ele><time>2026-04-12T14:11:59Z</time></trkpt><trkpt lat="46.03728760470219" lon="11.3994925779331"><ele>418.0</ele><time>2026-04-12T14:12:00Z</time></trkpt><trkpt lat="46.03712009342769" lon="11.399216870354207"><ele>418.0</ele><time>2026-04-12T14:12:01Z</time></trkpt><trkpt lat="46.03694838311645" lon="11.398935254675784"><ele>418.0</ele><time>2026-04-12T14:12:02Z</time></trkpt><trkpt lat="46.036778391417116" lon="11.39864809813738"><ele>417.0</ele><time>2026-04-12T14:12:03Z</time></trkpt><trkpt lat="46.03660600974052" lon="11.398359454131956"><ele>416.0</ele><time>2026-04-12T14:12:04Z</time></trkpt><trkpt lat="46.0364387198305" lon="11.398085736899535"><ele>416.0</ele><time>2026-04-12T14:12:05Z</time></trkpt><trkpt lat="46.03628476743473" lon="11.397823796250009"><ele>416.0</ele><time>2026-04-12T14:12:06Z</time></trkpt><trkpt lat="46.036130028692355" lon="11.3975691992824"><ele>416.0</ele><time>2026-04-12T14:12:07Z</time></trkpt><trkpt lat="46.035979773168776" lon="11.397317068583996"><ele>416.0</ele><time>2026-04-12T14:12:08Z</time></trkpt><trkpt lat="46.0358129195188" lon="11.3970614110866"><ele>415.0</ele><time>2026-04-12T14:12:09Z</time></trkpt><trkpt lat="46.03564893666062" lon="11.396793507845302"><ele>414.0</ele><time>2026-04-12T14:12:10Z</time></trkpt><trkpt lat="46.03548083010072" lon="11.396527050830793"><ele>415.0</ele><time>2026-04-12T14:12:11Z</time></trkpt><trkpt lat="46.03531464960777" lon="11.396263841966823"><ele>416.0</ele><time>2026-04-12T14:12:12Z</time></trkpt><trkpt lat="46.03515038161286" lon="11.39600675555328"><ele>416.0</ele><time>2026-04-12T14:12:13Z</time></trkpt><trkpt lat="46.034985056967614" lon="11.395765262433715"><ele>416.0</ele><time>2026-04-12T14:12:14Z</time></trkpt><trkpt lat="46.03481548143582" lon="11.395539054424118"><ele>416.3333333333333</ele><time>2026-04-12T14:12:15Z</time></trkpt><trkpt lat="46.03464973452021" lon="11.395320300186532"><ele>416.66666666666663</ele><time>2026-04-12T14:12:16Z</time></trkpt><trkpt lat="46.03448373455755" lon="11.395105134450892"><ele>417.0</ele><time>2026-04-12T14:12:17Z</time></trkpt><trkpt lat="46.03430488995962" lon="11.394885551047942"><ele>418.5</ele><time>2026-04-12T14:12:18Z</time></trkpt><trkpt lat="46.03414068578996" lon="11.394652155460491"><ele>420.0</ele><time>2026-04-12T14:12:18.999Z</time></trkpt><trkpt lat="46.03397862829001" lon="11.394425064801027"><ele>420.0</ele><time>2026-04-12T14:12:19.999Z</time></trkpt><trkpt lat="46.0338151294131" lon="11.39418308055519"><ele>420.0</ele><time>2026-04-12T14:12:20.999Z</time></trkpt><trkpt lat="46.033645849830364" lon="11.393956591512545"><ele>421.0</ele><time>2026-04-12T14:12:21.999Z</time></trkpt><trkpt lat="46.033476486507894" lon="11.393730671985102"><ele>422.0</ele><time>2026-04-12T14:12:22.999Z</time></trkpt><trkpt lat="46.03330520614896" lon="11.393511402624382"><ele>422.5</ele><time>2026-04-12T14:12:23.999Z</time></trkpt><trkpt lat="46.033131577072275" lon="11.393295974127124"><ele>423.0</ele><time>2026-04-12T14:12:24.999Z</time></trkpt><trkpt lat="46.03295147663182" lon="11.393080337597949"><ele>422.5</ele><time>2026-04-12T14:12:25.999Z</time></trkpt><trkpt lat="46.032774289530096" lon="11.39287009780042"><ele>422.0</ele><time>2026-04-12T14:12:26.999Z</time></trkpt><trkpt lat="46.03258860634324" lon="11.392661795709312"><ele>423.5</ele><time>2026-04-12T14:12:27.999Z</time></trkpt><trkpt lat="46.03239952875493" lon="11.392455874658273"><ele>425.0</ele><time>2026-04-12T14:12:28.999Z</time></trkpt><trkpt lat="46.03221777637279" lon="11.392247821489166"><ele>422.5</ele><time>2026-04-12T14:12:29.999Z</time></trkpt><trkpt lat="46.03203305598414" lon="11.39203720334369"><ele>420.0</ele><time>2026-04-12T14:12:30.999Z</time></trkpt><trkpt lat="46.03184487256835" lon="11.391832736653525"><ele>420.0</ele><time>2026-04-12T14:12:31.999Z</time></trkpt><trkpt lat="46.03165652479175" lon="11.3916275508276"><ele>420.0</ele><time>2026-04-12T14:12:32.999Z</time></trkpt><trkpt lat="46.0314657767659" lon="11.391424855625722"><ele>421.0</ele><time>2026-04-12T14:12:33.999Z</time></trkpt><trkpt lat="46.031276426697126" lon="11.39122228595235"><ele>422.0</ele><time>2026-04-12T14:12:34.999Z</time></trkpt><trkpt lat="46.03108835966699" lon="11.391023081499615"><ele>422.0</ele><time>2026-04-12T14:12:35.999Z</time></trkpt><trkpt lat="46.03090032244669" lon="11.390822724755708"><ele>422.0</ele><time>2026-04-12T14:12:36.999Z</time></trkpt><trkpt lat="46.03071372212749" lon="11.390618983624572"><ele>422.0</ele><time>2026-04-12T14:12:37.999Z</time></trkpt><trkpt lat="46.03052645007601" lon="11.390421051455512"><ele>422.0</ele><time>2026-04-12T14:12:38.999Z</time></trkpt><trkpt lat="46.03034114207608" lon="11.390228193908658"><ele>422.0</ele><time>2026-04-12T14:12:39.999Z</time></trkpt><trkpt lat="46.03017476298225" lon="11.39004209281147"><ele>422.0</ele><time>2026-04-12T14:12:40.999Z</time></trkpt><trkpt lat="46.030013167130505" lon="11.389845479596811"><ele>422.0</ele><time>2026-04-12T14:12:41.999Z</time></trkpt><trkpt lat="46.02985906276397" lon="11.38962909389881"><ele>422.66666666666663</ele><time>2026-04-12T14:12:42.999Z</time></trkpt><trkpt lat="46.02972178538417" lon="11.389386492920867"><ele>423.33333333333337</ele><time>2026-04-12T14:12:43.999Z</time></trkpt><trkpt lat="46.02960078684841" lon="11.389119685025202"><ele>424.0</ele><time>2026-04-12T14:12:44.999Z</time></trkpt><trkpt lat="46.029498833170024" lon="11.388830856100512"><ele>424.0</ele><time>2026-04-12T14:12:45.999Z</time></trkpt><trkpt lat="46.029402821933694" lon="11.388530607111205"><ele>424.0</ele><time>2026-04-12T14:12:46.999Z</time></trkpt><trkpt lat="46.02929052685863" lon="11.388254431266192"><ele>422.5</ele><time>2026-04-12T14:12:47.999Z</time></trkpt><trkpt lat="46.029224721620416" lon="11.387930419912298"><ele>421.0</ele><time>2026-04-12T14:12:48.999Z</time></trkpt><trkpt lat="46.02917014499507" lon="11.38759248068765"><ele>421.0</ele><time>2026-04-12T14:12:49.999Z</time></trkpt><trkpt lat="46.029143103192276" lon="11.38724888388285"><ele>421.0</ele><time>2026-04-12T14:12:50.999Z</time></trkpt><trkpt lat="46.02914386000001" lon="11.386905400967995"><ele>421.5</ele><time>2026-04-12T14:12:51.999Z</time></trkpt><trkpt lat="46.029167496148276" lon="11.38655695982401"><ele>422.0</ele><time>2026-04-12T14:12:52.999Z</time></trkpt><trkpt lat="46.02920570056444" lon="11.386216400396036"><ele>422.0</ele><time>2026-04-12T14:12:53.999Z</time></trkpt><trkpt lat="46.02925294883259" lon="11.385878127613909"><ele>422.0</ele><time>2026-04-12T14:12:54.999Z</time></trkpt><trkpt lat="46.02929679698141" lon="11.385533746809598"><ele>422.5</ele><time>2026-04-12T14:12:55.999Z</time></trkpt><trkpt lat="46.0293315012281" lon="11.385195382831066"><ele>423.0</ele><time>2026-04-12T14:12:56.999Z</time></trkpt><trkpt lat="46.02935675899416" lon="11.384853551392673"><ele>423.5</ele><time>2026-04-12T14:12:57.999Z</time></trkpt><trkpt lat="46.029372148346916" lon="11.384504786183417"><ele>424.0</ele><time>2026-04-12T14:12:58.999Z</time></trkpt><trkpt lat="46.02937183209779" lon="11.38415151065933"><ele>423.5</ele><time>2026-04-12T14:12:59.999Z</time></trkpt><trkpt lat="46.02935680139785" lon="11.383801473067258"><ele>423.0</ele><time>2026-04-12T14:13:00.999Z</time></trkpt><trkpt lat="46.02932703365195" lon="11.383452037044758"><ele>423.0</ele><time>2026-04-12T14:13:01.999Z</time></trkpt><trkpt lat="46.02929533349954" lon="11.383104456145151"><ele>423.0</ele><time>2026-04-12T14:13:02.999Z</time></trkpt><trkpt lat="46.02926661063698" lon="11.382760364773862"><ele>424.0</ele><time>2026-04-12T14:13:03.999Z</time></trkpt><trkpt lat="46.029244968426944" lon="11.382411218311345"><ele>425.0</ele><time>2026-04-12T14:13:04.999Z</time></trkpt><trkpt lat="46.02921951663731" lon="11.382059146050516"><ele>426.0</ele><time>2026-04-12T14:13:05.999Z</time></trkpt><trkpt lat="46.029193053049056" lon="11.381699770194011"><ele>427.0</ele><time>2026-04-12T14:13:06.999Z</time></trkpt><trkpt lat="46.029159159459944" lon="11.381343246955261"><ele>424.5</ele><time>2026-04-12T14:13:07.999Z</time></trkpt><trkpt lat="46.02912926746982" lon="11.38098559577724"><ele>422.0</ele><time>2026-04-12T14:13:08.999Z</time></trkpt><trkpt lat="46.02910131344056" lon="11.380625593645409"><ele>422.0</ele><time>2026-04-12T14:13:09.999Z</time></trkpt><trkpt lat="46.02907111987945" lon="11.380265662079522"><ele>422.0</ele><time>2026-04-12T14:13:10.999Z</time></trkpt><trkpt lat="46.029048022867045" lon="11.37991556528347"><ele>421.5</ele><time>2026-04-12T14:13:11.999Z</time></trkpt><trkpt lat="46.029024613767305" lon="11.379576479735896"><ele>421.0</ele><time>2026-04-12T14:13:12.999Z</time></trkpt><trkpt lat="46.028996325605064" lon="11.379240703063191"><ele>421.0</ele><time>2026-04-12T14:13:13.999Z</time></trkpt><trkpt lat="46.02896580208964" lon="11.37891458153575"><ele>421.0</ele><time>2026-04-12T14:13:14.999Z</time></trkpt><trkpt lat="46.02893739738835" lon="11.378602346985662"><ele>421.0</ele><time>2026-04-12T14:13:15.999Z</time></trkpt><trkpt lat="46.02890771748632" lon="11.378279690315413"><ele>423.0</ele><time>2026-04-12T14:13:16.999Z</time></trkpt><trkpt lat="46.02886225347106" lon="11.377963765801013"><ele>425.0</ele><time>2026-04-12T14:13:17.999Z</time></trkpt><trkpt lat="46.028793605589804" lon="11.377646835462988"><ele>425.0</ele><time>2026-04-12T14:13:18.999Z</time></trkpt><trkpt lat="46.02871754609188" lon="11.377331093627976"><ele>425.0</ele><time>2026-04-12T14:13:19.999Z</time></trkpt><trkpt lat="46.02862607927681" lon="11.377020781967296"><ele>425.0</ele><time>2026-04-12T14:13:20.999Z</time></trkpt><trkpt lat="46.028525357026446" lon="11.37670971882687"><ele>425.0</ele><time>2026-04-12T14:13:21.999Z</time></trkpt><trkpt lat="46.02841410477287" lon="11.376403765866439"><ele>426.0</ele><time>2026-04-12T14:13:22.999Z</time></trkpt><trkpt lat="46.02828998917464" lon="11.37610341090742"><ele>427.0</ele><time>2026-04-12T14:13:23.998Z</time></trkpt><trkpt lat="46.02815751644081" lon="11.37581063114798"><ele>427.0</ele><time>2026-04-12T14:13:24.998Z</time></trkpt><trkpt lat="46.02800882537884" lon="11.375531248282694"><ele>427.0</ele><time>2026-04-12T14:13:25.998Z</time></trkpt><trkpt lat="46.027842375846625" lon="11.37526520771478"><ele>427.5</ele><time>2026-04-12T14:13:26.998Z</time></trkpt><trkpt lat="46.02767318490534" lon="11.375012471326778"><ele>428.0</ele><time>2026-04-12T14:13:27.998Z</time></trkpt><trkpt lat="46.027495648914076" lon="11.374766613444752"><ele>427.5</ele><time>2026-04-12T14:13:28.998Z</time></trkpt><trkpt lat="46.02731616826487" lon="11.374533059893917"><ele>427.0</ele><time>2026-04-12T14:13:29.998Z</time></trkpt><trkpt lat="46.0271207235266" lon="11.374314803921758"><ele>427.0</ele><time>2026-04-12T14:13:30.998Z</time></trkpt><trkpt lat="46.02692896680801" lon="11.374121630547203"><ele>427.0</ele><time>2026-04-12T14:13:31.998Z</time></trkpt><trkpt lat="46.026742342870364" lon="11.373960762004788"><ele>430.0</ele><time>2026-04-12T14:13:32.998Z</time></trkpt><trkpt lat="46.02655441267211" lon="11.373796413596873"><ele>433.0</ele><time>2026-04-12T14:13:33.998Z</time></trkpt><trkpt lat="46.02634451621357" lon="11.373638673297172"><ele>433.0</ele><time>2026-04-12T14:13:34.998Z</time></trkpt><trkpt lat="46.02615981175076" lon="11.373482117837984"><ele>433.0</ele><time>2026-04-12T14:13:35.998Z</time></trkpt><trkpt lat="46.02596183596193" lon="11.373323645627607"><ele>433.0</ele><time>2026-04-12T14:13:36.998Z</time></trkpt><trkpt lat="46.02577520691133" lon="11.373145437090379"><ele>435.0</ele><time>2026-04-12T14:13:37.998Z</time></trkpt><trkpt lat="46.02557396483472" lon="11.37297773949425"><ele>437.0</ele><time>2026-04-12T14:13:39Z</time></trkpt><trkpt lat="46.025374450936276" lon="11.3728112983919"><ele>437.0</ele><time>2026-04-12T14:13:40Z</time></trkpt><trkpt lat="46.025172620893755" lon="11.37264081829465"><ele>437.0</ele><time>2026-04-12T14:13:41Z</time></trkpt><trkpt lat="46.024963495220085" lon="11.372455387660363"><ele>437.0</ele><time>2026-04-12T14:13:42Z</time></trkpt><trkpt lat="46.02475348683562" lon="11.37226902728343"><ele>437.0</ele><time>2026-04-12T14:13:43Z</time></trkpt><trkpt lat="46.024543764825175" lon="11.372097771546056"><ele>439.5</ele><time>2026-04-12T14:13:44Z</time></trkpt><trkpt lat="46.0243355230144" lon="11.371925486386347"><ele>442.0</ele><time>2026-04-12T14:13:45Z</time></trkpt><trkpt lat="46.024134205973276" lon="11.371757066445806"><ele>442.0</ele><time>2026-04-12T14:13:46Z</time></trkpt><trkpt lat="46.023940571946945" lon="11.371590428403552"><ele>442.0</ele><time>2026-04-12T14:13:47Z</time></trkpt><trkpt lat="46.023742449759034" lon="11.371423788988922"><ele>443.33333333333337</ele><time>2026-04-12T14:13:48Z</time></trkpt><trkpt lat="46.02354855831437" lon="11.371261371250265"><ele>444.66666666666663</ele><time>2026-04-12T14:13:49Z</time></trkpt><trkpt lat="46.02335849588868" lon="11.371104517310032"><ele>446.0</ele><time>2026-04-12T14:13:50Z</time></trkpt><trkpt lat="46.02317145080375" lon="11.370943394236955"><ele>446.0</ele><time>2026-04-12T14:13:51Z</time></trkpt><trkpt lat="46.02297918206923" lon="11.37078302023326"><ele>446.0</ele><time>2026-04-12T14:13:52Z</time></trkpt><trkpt lat="46.02279308236577" lon="11.370613282036164"><ele>446.0</ele><time>2026-04-12T14:13:53Z</time></trkpt><trkpt lat="46.022612933492084" lon="11.370436958760736"><ele>446.66666666666663</ele><time>2026-04-12T14:13:54Z</time></trkpt><trkpt lat="46.02243971539527" lon="11.370242402477087"><ele>447.33333333333337</ele><time>2026-04-12T14:13:55Z</time></trkpt><trkpt lat="46.02227236977671" lon="11.370025400512445"><ele>448.0</ele><time>2026-04-12T14:13:56Z</time></trkpt><trkpt lat="46.02211296576414" lon="11.369805003764629"><ele>448.5</ele><time>2026-04-12T14:13:57Z</time></trkpt><trkpt lat="46.02195020013462" lon="11.369567193494287"><ele>449.0</ele><time>2026-04-12T14:13:58Z</time></trkpt><trkpt lat="46.02180026893292" lon="11.369309854349622"><ele>449.0</ele><time>2026-04-12T14:13:59Z</time></trkpt><trkpt lat="46.02166498959865" lon="11.369046328516973"><ele>449.0</ele><time>2026-04-12T14:14:00Z</time></trkpt><trkpt lat="46.02153280467876" lon="11.368771589531109"><ele>449.0</ele><time>2026-04-12T14:14:01Z</time></trkpt><trkpt lat="46.02141862584225" lon="11.36849665027027"><ele>449.0</ele><time>2026-04-12T14:14:02Z</time></trkpt><trkpt lat="46.021317321811836" lon="11.368213052322961"><ele>449.0</ele><time>2026-04-12T14:14:03Z</time></trkpt><trkpt lat="46.02121867311687" lon="11.367921967610409"><ele>449.0</ele><time>2026-04-12T14:14:04Z</time></trkpt><trkpt lat="46.021123650828635" lon="11.3676244157632"><ele>449.0</ele><time>2026-04-12T14:14:05Z</time></trkpt><trkpt lat="46.0210315673779" lon="11.367315114940162"><ele>451.0</ele><time>2026-04-12T14:14:06Z</time></trkpt><trkpt lat="46.02094060637222" lon="11.36700185828707"><ele>453.0</ele><time>2026-04-12T14:14:07Z</time></trkpt><trkpt lat="46.0208474207788" lon="11.366695002077421"><ele>450.0</ele><time>2026-04-12T14:14:08Z</time></trkpt><trkpt lat="46.0207487029671" lon="11.366377632392735"><ele>447.0</ele><time>2026-04-12T14:14:09Z</time></trkpt><trkpt lat="46.02064658195054" lon="11.366062478517607"><ele>447.0</ele><time>2026-04-12T14:14:10Z</time></trkpt><trkpt lat="46.02054938258144" lon="11.365730027223183"><ele>447.0</ele><time>2026-04-12T14:14:11Z</time></trkpt><trkpt lat="46.02045353839201" lon="11.365390186104953"><ele>449.0</ele><time>2026-04-12T14:14:12Z</time></trkpt><trkpt lat="46.02035963699713" lon="11.365042643068838"><ele>451.0</ele><time>2026-04-12T14:14:13Z</time></trkpt><trkpt lat="46.02026170967523" lon="11.364701847561463"><ele>452.0</ele><time>2026-04-12T14:14:14Z</time></trkpt><trkpt lat="46.02016514339445" lon="11.364362153635415"><ele>453.0</ele><time>2026-04-12T14:14:15Z</time></trkpt><trkpt lat="46.02006801636057" lon="11.364024464585968"><ele>449.5</ele><time>2026-04-12T14:14:16Z</time></trkpt><trkpt lat="46.01997331689724" lon="11.36368064161705"><ele>446.0</ele><time>2026-04-12T14:14:17Z</time></trkpt><trkpt lat="46.01987844323887" lon="11.363347021486067"><ele>446.5</ele><time>2026-04-12T14:14:18Z</time></trkpt><trkpt lat="46.019792339148715" lon="11.36301258795052"><ele>447.0</ele><time>2026-04-12T14:14:19Z</time></trkpt><trkpt lat="46.01971855608815" lon="11.362687593950993"><ele>447.0</ele><time>2026-04-12T14:14:20Z</time></trkpt><trkpt lat="46.0196600865874" lon="11.36237243245069"><ele>447.0</ele><time>2026-04-12T14:14:21Z</time></trkpt><trkpt lat="46.01960915253866" lon="11.362052973234782"><ele>448.0</ele><time>2026-04-12T14:14:22Z</time></trkpt><trkpt lat="46.01956164023526" lon="11.361731747725242"><ele>449.0</ele><time>2026-04-12T14:14:23Z</time></trkpt><trkpt lat="46.01951345890699" lon="11.361405284628034"><ele>451.0</ele><time>2026-04-12T14:14:24Z</time></trkpt><trkpt lat="46.01947021604388" lon="11.361075591224967"><ele>453.0</ele><time>2026-04-12T14:14:25Z</time></trkpt><trkpt lat="46.0194317376666" lon="11.360740854962142"><ele>454.5</ele><time>2026-04-12T14:14:26Z</time></trkpt><trkpt lat="46.01939933016843" lon="11.360406281035141"><ele>456.0</ele><time>2026-04-12T14:14:26.999Z</time></trkpt><trkpt lat="46.019373652208266" lon="11.360087830326485"><ele>456.0</ele><time>2026-04-12T14:14:27.999Z</time></trkpt><trkpt lat="46.01933599810661" lon="11.359780939490207"><ele>456.0</ele><time>2026-04-12T14:14:28.999Z</time></trkpt><trkpt lat="46.01930705283935" lon="11.359496124110434"><ele>456.0</ele><time>2026-04-12T14:14:29.999Z</time></trkpt><trkpt lat="46.01927195819968" lon="11.35919235622291"><ele>455.33333333333337</ele><time>2026-04-12T14:14:30.999Z</time></trkpt><trkpt lat="46.019240898617596" lon="11.358895382051578"><ele>454.6666666666667</ele><time>2026-04-12T14:14:31.999Z</time></trkpt><trkpt lat="46.01920326790232" lon="11.358578693061164"><ele>454.0</ele><time>2026-04-12T14:14:32.999Z</time></trkpt><trkpt lat="46.019171706284986" lon="11.358244682266214"><ele>447.0</ele><time>2026-04-12T14:14:33.999Z</time></trkpt><trkpt lat="46.01914458915666" lon="11.35789202661419"><ele>440.0</ele><time>2026-04-12T14:14:34.999Z</time></trkpt><trkpt lat="46.01909648022499" lon="11.35755378662085"><ele>440.0</ele><time>2026-04-12T14:14:35.999Z</time></trkpt><trkpt lat="46.01905784844327" lon="11.357207913454324"><ele>440.0</ele><time>2026-04-12T14:14:36.999Z</time></trkpt><trkpt lat="46.01901474952577" lon="11.356856775907076"><ele>440.5</ele><time>2026-04-12T14:14:37.999Z</time></trkpt><trkpt lat="46.01899051017239" lon="11.356513166139091"><ele>441.0</ele><time>2026-04-12T14:14:38.999Z</time></trkpt><trkpt lat="46.01894870830179" lon="11.356179999859403"><ele>443.0</ele><time>2026-04-12T14:14:39.999Z</time></trkpt><trkpt lat="46.01891432988841" lon="11.355851104610698"><ele>445.0</ele><time>2026-04-12T14:14:40.999Z</time></trkpt><trkpt lat="46.018871900574226" lon="11.355507640064761"><ele>445.5</ele><time>2026-04-12T14:14:41.999Z</time></trkpt><trkpt lat="46.01883203720096" lon="11.355166015991186"><ele>446.0</ele><time>2026-04-12T14:14:42.999Z</time></trkpt><trkpt lat="46.01878681021359" lon="11.354822987290358"><ele>446.5</ele><time>2026-04-12T14:14:43.999Z</time></trkpt><trkpt lat="46.018744037328254" lon="11.354487218657725"><ele>447.0</ele><time>2026-04-12T14:14:44.999Z</time></trkpt><trkpt lat="46.01869703141394" lon="11.354148030198788"><ele>447.0</ele><time>2026-04-12T14:14:45.999Z</time></trkpt><trkpt lat="46.018656534033" lon="11.353805970495785"><ele>447.0</ele><time>2026-04-12T14:14:46.999Z</time></trkpt><trkpt lat="46.01860594848858" lon="11.353444705290576"><ele>447.0</ele><time>2026-04-12T14:14:47.999Z</time></trkpt><trkpt lat="46.018560967464154" lon="11.353095983387897"><ele>447.0</ele><time>2026-04-12T14:14:48.999Z</time></trkpt><trkpt lat="46.01851804101069" lon="11.352742247420307"><ele>447.0</ele><time>2026-04-12T14:14:49.999Z</time></trkpt><trkpt lat="46.018452874414706" lon="11.352416536847825"><ele>447.0</ele><time>2026-04-12T14:14:50.999Z</time></trkpt><trkpt lat="46.01841918117678" lon="11.352090125980205"><ele>447.33333333333337</ele><time>2026-04-12T14:14:51.999Z</time></trkpt><trkpt lat="46.018373735910096" lon="11.351769484420117"><ele>447.6666666666667</ele><time>2026-04-12T14:14:52.999Z</time></trkpt><trkpt lat="46.018332383923145" lon="11.351455551258198"><ele>448.0</ele><time>2026-04-12T14:14:53.999Z</time></trkpt><trkpt lat="46.01829164574234" lon="11.351135608469912"><ele>445.6666666666667</ele><time>2026-04-12T14:14:54.999Z</time></trkpt><trkpt lat="46.01825070977975" lon="11.35084426356703"><ele>443.33333333333337</ele><time>2026-04-12T14:14:55.999Z</time></trkpt><trkpt lat="46.01821248035448" lon="11.35053143197718"><ele>441.0</ele><time>2026-04-12T14:14:56.999Z</time></trkpt><trkpt lat="46.01817336671906" lon="11.350227280944432"><ele>441.0</ele><time>2026-04-12T14:14:57.999Z</time></trkpt><trkpt lat="46.01813281634767" lon="11.349915617480123"><ele>441.0</ele><time>2026-04-12T14:14:58.999Z</time></trkpt><trkpt lat="46.01809496002679" lon="11.349602586764282"><ele>441.0</ele><time>2026-04-12T14:14:59.999Z</time></trkpt><trkpt lat="46.018064692198585" lon="11.349299802186056"><ele>440.66666666666663</ele><time>2026-04-12T14:15:00.999Z</time></trkpt><trkpt lat="46.01802580818179" lon="11.34901421955813"><ele>440.3333333333333</ele><time>2026-04-12T14:15:01.999Z</time></trkpt><trkpt lat="46.0179897189507" lon="11.348735656659711"><ele>440.0</ele><time>2026-04-12T14:15:02.999Z</time></trkpt><trkpt lat="46.017961493578646" lon="11.348466607893938"><ele>439.66666666666663</ele><time>2026-04-12T14:15:03.999Z</time></trkpt><trkpt lat="46.01792768596664" lon="11.348214636662622"><ele>439.33333333333337</ele><time>2026-04-12T14:15:04.999Z</time></trkpt><trkpt lat="46.01789397602248" lon="11.347963121139024"><ele>439.0</ele><time>2026-04-12T14:15:05.999Z</time></trkpt><trkpt lat="46.01786086831081" lon="11.347696971637996"><ele>438.6666666666667</ele><time>2026-04-12T14:15:06.999Z</time></trkpt><trkpt lat="46.017827366905465" lon="11.347417714368017"><ele>438.33333333333337</ele><time>2026-04-12T14:15:07.999Z</time></trkpt><trkpt lat="46.01779349232643" lon="11.347133746311863"><ele>438.0</ele><time>2026-04-12T14:15:08.999Z</time></trkpt><trkpt lat="46.01775672418149" lon="11.346843083991907"><ele>438.0</ele><time>2026-04-12T14:15:09.999Z</time></trkpt><trkpt lat="46.01771149826069" lon="11.346545872204045"><ele>438.0</ele><time>2026-04-12T14:15:10.999Z</time></trkpt><trkpt lat="46.01766982230168" lon="11.346242587267728"><ele>438.0</ele><time>2026-04-12T14:15:11.999Z</time></trkpt><trkpt lat="46.01762626532946" lon="11.345930613048653"><ele>437.33333333333337</ele><time>2026-04-12T14:15:12.999Z</time></trkpt><trkpt lat="46.01758238265025" lon="11.345615963548408"><ele>436.6666666666667</ele><time>2026-04-12T14:15:13.999Z</time></trkpt><trkpt lat="46.01754358495851" lon="11.345298846938817"><ele>436.0</ele><time>2026-04-12T14:15:14.999Z</time></trkpt><trkpt lat="46.017507356660424" lon="11.344992196459971"><ele>433.6666666666667</ele><time>2026-04-12T14:15:15.999Z</time></trkpt><trkpt lat="46.017475549232714" lon="11.344696505702142"><ele>431.33333333333337</ele><time>2026-04-12T14:15:16.999Z</time></trkpt><trkpt lat="46.017439572000576" lon="11.34440984509503"><ele>429.0</ele><time>2026-04-12T14:15:17.999Z</time></trkpt><trkpt lat="46.017404161203665" lon="11.344113851124675"><ele>429.0</ele><time>2026-04-12T14:15:18.999Z</time></trkpt><trkpt lat="46.01736822467073" lon="11.343820699001505"><ele>429.0</ele><time>2026-04-12T14:15:19.999Z</time></trkpt><trkpt lat="46.0173246640307" lon="11.343528097284375"><ele>429.0</ele><time>2026-04-12T14:15:20.999Z</time></trkpt><trkpt lat="46.01728895842943" lon="11.343229879754542"><ele>430.0</ele><time>2026-04-12T14:15:21.999Z</time></trkpt><trkpt lat="46.01725169021871" lon="11.342940743595925"><ele>431.0</ele><time>2026-04-12T14:15:22.999Z</time></trkpt><trkpt lat="46.01721524045944" lon="11.342645426388305"><ele>432.0</ele><time>2026-04-12T14:15:23.999Z</time></trkpt><trkpt lat="46.017175541340656" lon="11.34235029646746"><ele>432.66666666666663</ele><time>2026-04-12T14:15:24.999Z</time></trkpt><trkpt lat="46.01713727206941" lon="11.342050858394733"><ele>433.3333333333333</ele><time>2026-04-12T14:15:25.999Z</time></trkpt><trkpt lat="46.017098327492356" lon="11.341745905170455"><ele>434.0</ele><time>2026-04-12T14:15:26.999Z</time></trkpt><trkpt lat="46.017058277529614" lon="11.341438597205133"><ele>436.3333333333333</ele><time>2026-04-12T14:15:27.999Z</time></trkpt><trkpt lat="46.01701648969194" lon="11.34112392516797"><ele>438.66666666666663</ele><time>2026-04-12T14:15:28.999Z</time></trkpt><trkpt lat="46.01697649596921" lon="11.340807178344498"><ele>441.0</ele><time>2026-04-12T14:15:29.999Z</time></trkpt><trkpt lat="46.01692645857163" lon="11.340494257251844"><ele>442.33333333333337</ele><time>2026-04-12T14:15:30.999Z</time></trkpt><trkpt lat="46.01686892026397" lon="11.340183562754033"><ele>443.6666666666667</ele><time>2026-04-12T14:15:31.998Z</time></trkpt><trkpt lat="46.01680363626218" lon="11.3398758597709"><ele>445.0</ele><time>2026-04-12T14:15:32.998Z</time></trkpt><trkpt lat="46.016735260413455" lon="11.339566935672146"><ele>445.6666666666667</ele><time>2026-04-12T14:15:33.998Z</time></trkpt><trkpt lat="46.01665911554859" lon="11.339263459389924"><ele>446.33333333333337</ele><time>2026-04-12T14:15:34.998Z</time></trkpt><trkpt lat="46.01658119117618" lon="11.33896139599077"><ele>447.0</ele><time>2026-04-12T14:15:35.998Z</time></trkpt><trkpt lat="46.016502115170724" lon="11.338662320818372"><ele>447.33333333333337</ele><time>2026-04-12T14:15:36.998Z</time></trkpt><trkpt lat="46.016417973257845" lon="11.33836482820991"><ele>447.6666666666667</ele><time>2026-04-12T14:15:37.998Z</time></trkpt><trkpt lat="46.01632316153591" lon="11.338071863359982"><ele>448.0</ele><time>2026-04-12T14:15:38.998Z</time></trkpt><trkpt lat="46.016228115299555" lon="11.337777918424145"><ele>446.5</ele><time>2026-04-12T14:15:39.998Z</time></trkpt><trkpt lat="46.016121773493104" lon="11.337485893400716"><ele>445.0</ele><time>2026-04-12T14:15:40.998Z</time></trkpt><trkpt lat="46.016011092804916" lon="11.337191035172033"><ele>443.5</ele><time>2026-04-12T14:15:41.998Z</time></trkpt><trkpt lat="46.01589662778886" lon="11.336897620428266"><ele>442.0</ele><time>2026-04-12T14:15:42.998Z</time></trkpt><trkpt lat="46.01578396468292" lon="11.336599404955967"><ele>436.0</ele><time>2026-04-12T14:15:43.998Z</time></trkpt><trkpt lat="46.015667595626255" lon="11.336299402138387"><ele>430.0</ele><time>2026-04-12T14:15:45Z</time></trkpt><trkpt lat="46.015549198841335" lon="11.33599614824021"><ele>430.0</ele><time>2026-04-12T14:15:46Z</time></trkpt><trkpt lat="46.01543309288818" lon="11.335707843011036"><ele>430.0</ele><time>2026-04-12T14:15:47Z</time></trkpt><trkpt lat="46.015322065782705" lon="11.335425987880246"><ele>430.33333333333337</ele><time>2026-04-12T14:15:48Z</time></trkpt><trkpt lat="46.01521062399972" lon="11.335142765850659"><ele>430.66666666666663</ele><time>2026-04-12T14:15:49Z</time></trkpt><trkpt lat="46.015103075040955" lon="11.334869924683593"><ele>431.0</ele><time>2026-04-12T14:15:50Z</time></trkpt><trkpt lat="46.01499533079008" lon="11.334600938709448"><ele>431.0</ele><time>2026-04-12T14:15:51Z</time></trkpt><trkpt lat="46.01488530768083" lon="11.334327678928187"><ele>431.0</ele><time>2026-04-12T14:15:52Z</time></trkpt><trkpt lat="46.01478106504094" lon="11.33404631679941"><ele>431.0</ele><time>2026-04-12T14:15:53Z</time></trkpt><trkpt lat="46.01467408958515" lon="11.333757948083136"><ele>431.0</ele><time>2026-04-12T14:15:54Z</time></trkpt><trkpt lat="46.01456648552154" lon="11.333465833472033"><ele>431.0</ele><time>2026-04-12T14:15:55Z</time></trkpt><trkpt lat="46.01445219626121" lon="11.33317118809114"><ele>430.5</ele><time>2026-04-12T14:15:56Z</time></trkpt><trkpt lat="46.014335209283075" lon="11.332876748641592"><ele>430.0</ele><time>2026-04-12T14:15:57Z</time></trkpt><trkpt lat="46.01421630445802" lon="11.332575774978725"><ele>429.0</ele><time>2026-04-12T14:15:58Z</time></trkpt><trkpt lat="46.014081852520384" lon="11.332276642428743"><ele>428.0</ele><time>2026-04-12T14:15:59Z</time></trkpt><trkpt lat="46.01396200205829" lon="11.331970954333668"><ele>428.0</ele><time>2026-04-12T14:16:00Z</time></trkpt><trkpt lat="46.01384553916915" lon="11.331668017588287"><ele>428.0</ele><time>2026-04-12T14:16:01Z</time></trkpt><trkpt lat="46.01373272367108" lon="11.331371859089508"><ele>428.0</ele><time>2026-04-12T14:16:02Z</time></trkpt><trkpt lat="46.01362292992614" lon="11.331082480660417"><ele>428.0</ele><time>2026-04-12T14:16:03Z</time></trkpt><trkpt lat="46.01351204710247" lon="11.330793680261324"><ele>428.0</ele><time>2026-04-12T14:16:04Z</time></trkpt><trkpt lat="46.013400675072916" lon="11.330508077655052"><ele>428.0</ele><time>2026-04-12T14:16:05Z</time></trkpt><trkpt lat="46.013291557357064" lon="11.330224691665306"><ele>428.0</ele><time>2026-04-12T14:16:06Z</time></trkpt><trkpt lat="46.01317635991444" lon="11.329940859477853"><ele>428.0</ele><time>2026-04-12T14:16:07Z</time></trkpt><trkpt lat="46.01306153365234" lon="11.329663793024983"><ele>429.5</ele><time>2026-04-12T14:16:08Z</time></trkpt><trkpt lat="46.01295889397937" lon="11.329375918336341"><ele>431.0</ele><time>2026-04-12T14:16:09Z</time></trkpt><trkpt lat="46.01283872285192" lon="11.329100360298373"><ele>431.5</ele><time>2026-04-12T14:16:10Z</time></trkpt><trkpt lat="46.01269414288078" lon="11.328849121811565"><ele>432.0</ele><time>2026-04-12T14:16:11Z</time></trkpt><trkpt lat="46.01256069766456" lon="11.328584578006701"><ele>430.5</ele><time>2026-04-12T14:16:12Z</time></trkpt><trkpt lat="46.01241876305911" lon="11.328327681038516"><ele>429.0</ele><time>2026-04-12T14:16:13Z</time></trkpt><trkpt lat="46.012265393969706" lon="11.32807609698219"><ele>431.0</ele><time>2026-04-12T14:16:14Z</time></trkpt><trkpt lat="46.012100216282185" lon="11.327830216311623"><ele>433.0</ele><time>2026-04-12T14:16:15Z</time></trkpt><trkpt lat="46.01199254190506" lon="11.327500584572746"><ele>433.0</ele><time>2026-04-12T14:16:16Z</time></trkpt><trkpt lat="46.01183035486742" lon="11.327254709024054"><ele>433.0</ele><time>2026-04-12T14:16:17Z</time></trkpt><trkpt lat="46.011666609873146" lon="11.32702060967941"><ele>433.0</ele><time>2026-04-12T14:16:18Z</time></trkpt><trkpt lat="46.01139360986525" lon="11.326947582462498"><ele>433.0</ele><time>2026-04-12T14:16:19Z</time></trkpt><trkpt lat="46.011208005845766" lon="11.32675310973822"><ele>433.0</ele><time>2026-04-12T14:16:20Z</time></trkpt><trkpt lat="46.011023597637404" lon="11.326569598500319"><ele>433.0</ele><time>2026-04-12T14:16:21Z</time></trkpt><trkpt lat="46.0108331399797" lon="11.32639760844713"><ele>433.0</ele><time>2026-04-12T14:16:22Z</time></trkpt><trkpt lat="46.01063557616086" lon="11.326240277496204"><ele>435.0</ele><time>2026-04-12T14:16:23Z</time></trkpt><trkpt lat="46.01042801269067" lon="11.326100451760531"><ele>437.0</ele><time>2026-04-12T14:16:24Z</time></trkpt><trkpt lat="46.01022972428138" lon="11.32595775086923"><ele>437.0</ele><time>2026-04-12T14:16:25Z</time></trkpt><trkpt lat="46.01003312486675" lon="11.325814227605237"><ele>437.0</ele><time>2026-04-12T14:16:26Z</time></trkpt><trkpt lat="46.00983685869177" lon="11.325665360312273"><ele>437.0</ele><time>2026-04-12T14:16:27Z</time></trkpt><trkpt lat="46.00965216987262" lon="11.325504833080663"><ele>436.3333333333333</ele><time>2026-04-12T14:16:28Z</time></trkpt><trkpt lat="46.009475430435764" lon="11.325328869026238"><ele>435.66666666666663</ele><time>2026-04-12T14:16:29Z</time></trkpt><trkpt lat="46.009301314217836" lon="11.32515658169686"><ele>435.0</ele><time>2026-04-12T14:16:30Z</time></trkpt><trkpt lat="46.00913579338845" lon="11.324984269977971"><ele>435.33333333333337</ele><time>2026-04-12T14:16:31Z</time></trkpt><trkpt lat="46.00896096332714" lon="11.324793410464633"><ele>435.6666666666667</ele><time>2026-04-12T14:16:32Z</time></trkpt><trkpt lat="46.00879644031693" lon="11.324598005622816"><ele>436.0</ele><time>2026-04-12T14:16:32.999Z</time></trkpt><trkpt lat="46.00863602791939" lon="11.324389916474779"><ele>436.0</ele><time>2026-04-12T14:16:33.999Z</time></trkpt><trkpt lat="46.00847513583673" lon="11.3241704671344"><ele>436.0</ele><time>2026-04-12T14:16:34.999Z</time></trkpt><trkpt lat="46.00830945644161" lon="11.323939571348777"><ele>436.0</ele><time>2026-04-12T14:16:35.999Z</time></trkpt><trkpt lat="46.0081521535551" lon="11.323705185426064"><ele>436.0</ele><time>2026-04-12T14:16:36.999Z</time></trkpt><trkpt lat="46.00799898856787" lon="11.323457177643446"><ele>436.0</ele><time>2026-04-12T14:16:37.999Z</time></trkpt><trkpt lat="46.00784529603666" lon="11.32319243885691"><ele>436.0</ele><time>2026-04-12T14:16:38.999Z</time></trkpt><trkpt lat="46.00769766510823" lon="11.322923904463027"><ele>436.5</ele><time>2026-04-12T14:16:39.999Z</time></trkpt><trkpt lat="46.007559676384886" lon="11.322647826126339"><ele>437.0</ele><time>2026-04-12T14:16:40.999Z</time></trkpt><trkpt lat="46.00742832814866" lon="11.322374456356505"><ele>438.5</ele><time>2026-04-12T14:16:41.999Z</time></trkpt><trkpt lat="46.007307564330056" lon="11.322096614161657"><ele>440.0</ele><time>2026-04-12T14:16:42.999Z</time></trkpt><trkpt lat="46.00718839538333" lon="11.32182418204004"><ele>440.0</ele><time>2026-04-12T14:16:43.999Z</time></trkpt><trkpt lat="46.00707059628828" lon="11.321556121522672"><ele>440.0</ele><time>2026-04-12T14:16:44.999Z</time></trkpt><trkpt lat="46.006952721392175" lon="11.3212921962577"><ele>440.0</ele><time>2026-04-12T14:16:45.999Z</time></trkpt><trkpt lat="46.00683984483089" lon="11.321028659121115"><ele>440.0</ele><time>2026-04-12T14:16:46.999Z</time></trkpt><trkpt lat="46.0067223813744" lon="11.320767019811047"><ele>440.0</ele><time>2026-04-12T14:16:47.999Z</time></trkpt><trkpt lat="46.006609686476715" lon="11.320509358944207"><ele>440.0</ele><time>2026-04-12T14:16:48.999Z</time></trkpt><trkpt lat="46.006494666767736" lon="11.320234644300076"><ele>440.0</ele><time>2026-04-12T14:16:49.999Z</time></trkpt><trkpt lat="46.00637852695169" lon="11.319962370061353"><ele>440.0</ele><time>2026-04-12T14:16:50.999Z</time></trkpt><trkpt lat="46.00626447546156" lon="11.319691063231716"><ele>440.0</ele><time>2026-04-12T14:16:51.999Z</time></trkpt><trkpt lat="46.00614383160585" lon="11.319420338422342"><ele>440.3333333333333</ele><time>2026-04-12T14:16:52.999Z</time></trkpt><trkpt lat="46.00602024645259" lon="11.319149652568287"><ele>440.66666666666663</ele><time>2026-04-12T14:16:53.999Z</time></trkpt><trkpt lat="46.005909287664764" lon="11.318873585288797"><ele>441.0</ele><time>2026-04-12T14:16:54.999Z</time></trkpt><trkpt lat="46.00579074665944" lon="11.318604946896928"><ele>441.0</ele><time>2026-04-12T14:16:55.999Z</time></trkpt><trkpt lat="46.005675105192346" lon="11.318333114404426"><ele>441.0</ele><time>2026-04-12T14:16:56.999Z</time></trkpt><trkpt lat="46.00556401712204" lon="11.318057392891077"><ele>441.0</ele><time>2026-04-12T14:16:57.999Z</time></trkpt><trkpt lat="46.00545225058472" lon="11.317779132989015"><ele>441.0</ele><time>2026-04-12T14:16:58.999Z</time></trkpt><trkpt lat="46.005351509869" lon="11.31749570488064"><ele>441.0</ele><time>2026-04-12T14:16:59.999Z</time></trkpt><trkpt lat="46.00525192058333" lon="11.317214205452462"><ele>441.0</ele><time>2026-04-12T14:17:00.999Z</time></trkpt><trkpt lat="46.00514939051918" lon="11.316928167783042"><ele>441.0</ele><time>2026-04-12T14:17:01.999Z</time></trkpt><trkpt lat="46.00504644344121" lon="11.316636268999797"><ele>441.0</ele><time>2026-04-12T14:17:02.999Z</time></trkpt><trkpt lat="46.00495352119752" lon="11.316341466316457"><ele>440.33333333333337</ele><time>2026-04-12T14:17:03.999Z</time></trkpt><trkpt lat="46.00486859381643" lon="11.316046035338177"><ele>439.6666666666667</ele><time>2026-04-12T14:17:04.999Z</time></trkpt><trkpt lat="46.004782988223035" lon="11.315743264511033"><ele>439.0</ele><time>2026-04-12T14:17:05.999Z</time></trkpt><trkpt lat="46.00469915460515" lon="11.31543641607722"><ele>439.0</ele><time>2026-04-12T14:17:06.999Z</time></trkpt><trkpt lat="46.00461924010124" lon="11.315123537338346"><ele>439.0</ele><time>2026-04-12T14:17:07.999Z</time></trkpt><trkpt lat="46.0045426555624" lon="11.314807131702782"><ele>440.0</ele><time>2026-04-12T14:17:08.999Z</time></trkpt><trkpt lat="46.00447000758068" lon="11.314478874851085"><ele>441.0</ele><time>2026-04-12T14:17:09.999Z</time></trkpt><trkpt lat="46.004401924010864" lon="11.314146124040697"><ele>441.5</ele><time>2026-04-12T14:17:10.999Z</time></trkpt><trkpt lat="46.00433451159628" lon="11.313809932800769"><ele>442.0</ele><time>2026-04-12T14:17:11.999Z</time></trkpt><trkpt lat="46.00427092925872" lon="11.31347932580219"><ele>442.0</ele><time>2026-04-12T14:17:12.999Z</time></trkpt><trkpt lat="46.004213958749695" lon="11.313148180463967"><ele>442.0</ele><time>2026-04-12T14:17:13.999Z</time></trkpt><trkpt lat="46.00415895599223" lon="11.312809904318962"><ele>441.0</ele><time>2026-04-12T14:17:14.999Z</time></trkpt><trkpt lat="46.004111365494055" lon="11.312475329512091"><ele>440.0</ele><time>2026-04-12T14:17:15.999Z</time></trkpt><trkpt lat="46.004063850846606" lon="11.312140207247936"><ele>440.0</ele><time>2026-04-12T14:17:16.999Z</time></trkpt><trkpt lat="46.00402369942992" lon="11.311804337183071"><ele>440.0</ele><time>2026-04-12T14:17:17.999Z</time></trkpt><trkpt lat="46.00399177318465" lon="11.311464749614327"><ele>441.5</ele><time>2026-04-12T14:17:18.999Z</time></trkpt><trkpt lat="46.00396322752935" lon="11.311130661355186"><ele>443.0</ele><time>2026-04-12T14:17:19.999Z</time></trkpt><trkpt lat="46.00393876819506" lon="11.31079895555119"><ele>442.0</ele><time>2026-04-12T14:17:20.999Z</time></trkpt><trkpt lat="46.00391958207838" lon="11.31046910771427"><ele>441.0</ele><time>2026-04-12T14:17:21.999Z</time></trkpt><trkpt lat="46.00390132258389" lon="11.31014374743519"><ele>441.0</ele><time>2026-04-12T14:17:22.999Z</time></trkpt><trkpt lat="46.00389036347108" lon="11.309814850570385"><ele>441.0</ele><time>2026-04-12T14:17:23.999Z</time></trkpt><trkpt lat="46.00388066946573" lon="11.309486478761114"><ele>441.0</ele><time>2026-04-12T14:17:24.999Z</time></trkpt><trkpt lat="46.00387730738695" lon="11.309154929816591"><ele>441.0</ele><time>2026-04-12T14:17:25.999Z</time></trkpt><trkpt lat="46.003876549613814" lon="11.308823087925918"><ele>440.0</ele><time>2026-04-12T14:17:26.999Z</time></trkpt><trkpt lat="46.00388105536201" lon="11.308487927698712"><ele>439.0</ele><time>2026-04-12T14:17:27.999Z</time></trkpt><trkpt lat="46.003885560760935" lon="11.308151668771266"><ele>438.0</ele><time>2026-04-12T14:17:28.999Z</time></trkpt><trkpt lat="46.003895871707215" lon="11.307811248209712"><ele>437.0</ele><time>2026-04-12T14:17:29.999Z</time></trkpt><trkpt lat="46.00390402453799" lon="11.307469067345904"><ele>437.5</ele><time>2026-04-12T14:17:30.999Z</time></trkpt><trkpt lat="46.00391523869017" lon="11.307125074476842"><ele>438.0</ele><time>2026-04-12T14:17:31.999Z</time></trkpt><trkpt lat="46.003922621139544" lon="11.306782052573332"><ele>438.0</ele><time>2026-04-12T14:17:32.999Z</time></trkpt><trkpt lat="46.00393371292392" lon="11.306441626558753"><ele>438.0</ele><time>2026-04-12T14:17:33.999Z</time></trkpt><trkpt lat="46.00394489620794" lon="11.306104610817915"><ele>438.5</ele><time>2026-04-12T14:17:34.999Z</time></trkpt><trkpt lat="46.00395335898877" lon="11.305775403579533"><ele>439.0</ele><time>2026-04-12T14:17:35.998Z</time></trkpt><trkpt lat="46.003967791464405" lon="11.305454158832006"><ele>438.6666666666667</ele><time>2026-04-12T14:17:36.998Z</time></trkpt><trkpt lat="46.00397848042221" lon="11.305136065477418"><ele>438.33333333333337</ele><time>2026-04-12T14:17:37.998Z</time></trkpt><trkpt lat="46.00398684356799" lon="11.304820896555636"><ele>438.0</ele><time>2026-04-12T14:17:38.998Z</time></trkpt><trkpt lat="46.00399958378249" lon="11.304507235811084"><ele>438.0</ele><time>2026-04-12T14:17:39.998Z</time></trkpt><trkpt lat="46.00400769979111" lon="11.304194338924738"><ele>438.0</ele><time>2026-04-12T14:17:40.998Z</time></trkpt><trkpt lat="46.00401562131523" lon="11.303885660311831"><ele>438.0</ele><time>2026-04-12T14:17:41.998Z</time></trkpt><trkpt lat="46.00402352584574" lon="11.303574371592722"><ele>437.66666666666663</ele><time>2026-04-12T14:17:42.998Z</time></trkpt><trkpt lat="46.00403062051274" lon="11.303270092139009"><ele>437.3333333333333</ele><time>2026-04-12T14:17:43.998Z</time></trkpt><trkpt lat="46.00404348225171" lon="11.302969252647074"><ele>437.0</ele><time>2026-04-12T14:17:44.998Z</time></trkpt><trkpt lat="46.004050439251046" lon="11.302675556790247"><ele>437.0</ele><time>2026-04-12T14:17:45.998Z</time></trkpt><trkpt lat="46.00405447803794" lon="11.302382483250643"><ele>437.0</ele><time>2026-04-12T14:17:46.998Z</time></trkpt><trkpt lat="46.00405729371958" lon="11.30208612453281"><ele>437.0</ele><time>2026-04-12T14:17:47.998Z</time></trkpt><trkpt lat="46.0040626373865" lon="11.30178536355886"><ele>437.3333333333333</ele><time>2026-04-12T14:17:48.998Z</time></trkpt><trkpt lat="46.00406276468272" lon="11.301495091915065"><ele>437.66666666666663</ele><time>2026-04-12T14:17:49.998Z</time></trkpt><trkpt lat="46.00405687905272" lon="11.30120680305757"><ele>438.0</ele><time>2026-04-12T14:17:51Z</time></trkpt><trkpt lat="46.004044258273126" lon="11.300919284983928"><ele>438.0</ele><time>2026-04-12T14:17:52Z</time></trkpt><trkpt lat="46.00402551023291" lon="11.300636543390686"><ele>438.0</ele><time>2026-04-12T14:17:53Z</time></trkpt><trkpt lat="46.00400190304139" lon="11.300353743188586"><ele>438.0</ele><time>2026-04-12T14:17:54Z</time></trkpt><trkpt lat="46.00397462192829" lon="11.300076844103115"><ele>437.66666666666663</ele><time>2026-04-12T14:17:55Z</time></trkpt><trkpt lat="46.00394134406857" lon="11.299791725708491"><ele>437.3333333333333</ele><time>2026-04-12T14:17:56Z</time></trkpt><trkpt lat="46.00391648297361" lon="11.299494877274551"><ele>437.0</ele><time>2026-04-12T14:17:57Z</time></trkpt><trkpt lat="46.00387523108785" lon="11.299199397194004"><ele>436.66666666666663</ele><time>2026-04-12T14:17:58Z</time></trkpt><trkpt lat="46.0038280880435" lon="11.29890250972118"><ele>436.33333333333337</ele><time>2026-04-12T14:17:59Z</time></trkpt><trkpt lat="46.003778741290404" lon="11.298607300520041"><ele>436.0</ele><time>2026-04-12T14:18:00Z</time></trkpt><trkpt lat="46.00371849032315" lon="11.298322744047077"><ele>437.0</ele><time>2026-04-12T14:18:01Z</time></trkpt><trkpt lat="46.003660089272074" lon="11.298031253064753"><ele>438.0</ele><time>2026-04-12T14:18:02Z</time></trkpt><trkpt lat="46.0036001021472" lon="11.297754727765689"><ele>439.0</ele><time>2026-04-12T14:18:03Z</time></trkpt><trkpt lat="46.00354500481425" lon="11.29748293873874"><ele>438.6666666666667</ele><time>2026-04-12T14:18:04Z</time></trkpt><trkpt lat="46.00347984317339" lon="11.297221265108789"><ele>438.33333333333337</ele><time>2026-04-12T14:18:05Z</time></trkpt><trkpt lat="46.00342662501379" lon="11.296957151013666"><ele>438.0</ele><time>2026-04-12T14:18:06Z</time></trkpt><trkpt lat="46.003364256259" lon="11.296694169985964"><ele>439.0</ele><time>2026-04-12T14:18:07Z</time></trkpt><trkpt lat="46.00331219046293" lon="11.296419286482244"><ele>440.0</ele><time>2026-04-12T14:18:08Z</time></trkpt><trkpt lat="46.003259317728194" lon="11.296152576865722"><ele>441.0</ele><time>2026-04-12T14:18:09Z</time></trkpt><trkpt lat="46.00320320643005" lon="11.29589859933145"><ele>441.0</ele><time>2026-04-12T14:18:10Z</time></trkpt><trkpt lat="46.0031535175901" lon="11.295650496940784"><ele>441.0</ele><time>2026-04-12T14:18:11Z</time></trkpt><trkpt lat="46.003105316421596" lon="11.295406533454786"><ele>441.0</ele><time>2026-04-12T14:18:12Z</time></trkpt><trkpt lat="46.003058328785436" lon="11.295151177162243"><ele>441.33333333333337</ele><time>2026-04-12T14:18:13Z</time></trkpt><trkpt lat="46.003019673163514" lon="11.294896607567397"><ele>441.6666666666667</ele><time>2026-04-12T14:18:14Z</time></trkpt><trkpt lat="46.00299234504939" lon="11.294631866821842"><ele>442.0</ele><time>2026-04-12T14:18:15Z</time></trkpt><trkpt lat="46.00296435661739" lon="11.294370863386325"><ele>441.33333333333337</ele><time>2026-04-12T14:18:16Z</time></trkpt><trkpt lat="46.00293367817436" lon="11.294110761006088"><ele>440.66666666666663</ele><time>2026-04-12T14:18:17Z</time></trkpt><trkpt lat="46.00290796978177" lon="11.293844344214001"><ele>440.0</ele><time>2026-04-12T14:18:18Z</time></trkpt><trkpt lat="46.00288901247318" lon="11.29358651228518"><ele>440.0</ele><time>2026-04-12T14:18:19Z</time></trkpt><trkpt lat="46.00287111094324" lon="11.293332001898312"><ele>440.0</ele><time>2026-04-12T14:18:20Z</time></trkpt><trkpt lat="46.00285407326274" lon="11.293081158275616"><ele>440.0</ele><time>2026-04-12T14:18:21Z</time></trkpt><trkpt lat="46.00283932224022" lon="11.292836302482435"><ele>440.0</ele><time>2026-04-12T14:18:22Z</time></trkpt><trkpt lat="46.00282813345471" lon="11.292585325767735"><ele>440.0</ele><time>2026-04-12T14:18:23Z</time></trkpt><trkpt lat="46.00281259872494" lon="11.292343036121554"><ele>440.0</ele><time>2026-04-12T14:18:24Z</time></trkpt><trkpt lat="46.002796199139716" lon="11.292097798143658"><ele>440.3333333333333</ele><time>2026-04-12T14:18:25Z</time></trkpt><trkpt lat="46.00278118533723" lon="11.29185352504522"><ele>440.66666666666663</ele><time>2026-04-12T14:18:26Z</time></trkpt><trkpt lat="46.002766373667235" lon="11.291614510532781"><ele>441.0</ele><time>2026-04-12T14:18:27Z</time></trkpt><trkpt lat="46.002753625360654" lon="11.291388741757284"><ele>441.66666666666663</ele><time>2026-04-12T14:18:28Z</time></trkpt><trkpt lat="46.002741026758244" lon="11.291162701323994"><ele>442.3333333333333</ele><time>2026-04-12T14:18:29Z</time></trkpt><trkpt lat="46.00272852898335" lon="11.29093569991608"><ele>443.0</ele><time>2026-04-12T14:18:30Z</time></trkpt><trkpt lat="46.0027176363389" lon="11.290710755750423"><ele>443.66666666666663</ele><time>2026-04-12T14:18:31Z</time></trkpt><trkpt lat="46.00270566091828" lon="11.290482660735792"><ele>444.33333333333337</ele><time>2026-04-12T14:18:32Z</time></trkpt><trkpt lat="46.002688532026646" lon="11.290250733670057"><ele>445.0</ele><time>2026-04-12T14:18:33Z</time></trkpt><trkpt lat="46.002673818106004" lon="11.290013443210174"><ele>445.0</ele><time>2026-04-12T14:18:34Z</time></trkpt><trkpt lat="46.00265818504646" lon="11.289768866577516"><ele>445.0</ele><time>2026-04-12T14:18:35Z</time></trkpt><trkpt lat="46.00264232522841" lon="11.289520081884469"><ele>445.0</ele><time>2026-04-12T14:18:36Z</time></trkpt><trkpt lat="46.002626554379" lon="11.289259758260924"><ele>445.33333333333337</ele><time>2026-04-12T14:18:37Z</time></trkpt><trkpt lat="46.002611178146225" lon="11.288990792885471"><ele>445.66666666666663</ele><time>2026-04-12T14:18:37.999Z</time></trkpt><trkpt lat="46.002595241285704" lon="11.288719896468738"><ele>446.0</ele><time>2026-04-12T14:18:38.999Z</time></trkpt><trkpt lat="46.00257869236455" lon="11.288441125217686"><ele>446.0</ele><time>2026-04-12T14:18:39.999Z</time></trkpt><trkpt lat="46.002566233706496" lon="11.288161343260471"><ele>446.0</ele><time>2026-04-12T14:18:40.999Z</time></trkpt><trkpt lat="46.00255152851452" lon="11.287887187002665"><ele>446.0</ele><time>2026-04-12T14:18:41.999Z</time></trkpt><trkpt lat="46.002534698245135" lon="11.287619847928806"><ele>446.3333333333333</ele><time>2026-04-12T14:18:42.999Z</time></trkpt><trkpt lat="46.00251983813836" lon="11.287358920362774"><ele>446.66666666666663</ele><time>2026-04-12T14:18:43.999Z</time></trkpt><trkpt lat="46.00250791572131" lon="11.287109383044502"><ele>447.0</ele><time>2026-04-12T14:18:44.999Z</time></trkpt><trkpt lat="46.00248941812745" lon="11.286896542166996"><ele>447.20000000000005</ele><time>2026-04-12T14:18:45.999Z</time></trkpt><trkpt lat="46.00247560611914" lon="11.286719482064141"><ele>447.40000000000003</ele><time>2026-04-12T14:18:46.999Z</time></trkpt><trkpt lat="46.002469556816195" lon="11.286575620327653"><ele>447.59999999999997</ele><time>2026-04-12T14:18:47.999Z</time></trkpt><trkpt lat="46.0024773362937" lon="11.286455230566524"><ele>447.79999999999995</ele><time>2026-04-12T14:18:48.999Z</time></trkpt><trkpt lat="46.00249675922759" lon="11.286342237358086"><ele>448.0</ele><time>2026-04-12T14:18:49.999Z</time></trkpt><trkpt lat="46.00255903556633" lon="11.286256672113899"><ele>448.00000000000006</ele><time>2026-04-12T14:18:50.999Z</time></trkpt><trkpt lat="46.00264026114165" lon="11.286224434681955"><ele>448.0</ele><time>2026-04-12T14:18:51.999Z</time></trkpt><trkpt lat="46.002720903449685" lon="11.286243992402582"><ele>448.0</ele><time>2026-04-12T14:18:52.999Z</time></trkpt><trkpt lat="46.00279149451296" lon="11.286314211406692"><ele>448.0</ele><time>2026-04-12T14:18:53.999Z</time></trkpt><trkpt lat="46.00284919450697" lon="11.286419013373827"><ele>448.00000000000006</ele><time>2026-04-12T14:18:54.999Z</time></trkpt><trkpt lat="46.002871121771456" lon="11.28654787900505"><ele>448.0</ele><time>2026-04-12T14:18:55.999Z</time></trkpt><trkpt lat="46.00286560347303" lon="11.286680542254086"><ele>447.83333333333337</ele><time>2026-04-12T14:18:56.999Z</time></trkpt><trkpt lat="46.00285283071349" lon="11.286800926955449"><ele>447.6666666666667</ele><time>2026-04-12T14:18:57.999Z</time></trkpt><trkpt lat="46.00283139860638" lon="11.286892337259532"><ele>447.5</ele><time>2026-04-12T14:18:58.999Z</time></trkpt><trkpt lat="46.00278533244353" lon="11.286965243352853"><ele>447.33333333333337</ele><time>2026-04-12T14:18:59.999Z</time></trkpt><trkpt lat="46.002682012177" lon="11.287012081187413"><ele>447.1666666666667</ele><time>2026-04-12T14:19:01.999Z</time></trkpt><trkpt lat="46.002583294538205" lon="11.286945899599951"><ele>447.0</ele><time>2026-04-12T14:19:03.999Z</time></trkpt><trkpt lat="46.002521572567254" lon="11.28684973722294"><ele>447.25</ele><time>2026-04-12T14:19:04.999Z</time></trkpt><trkpt lat="46.00244764288329" lon="11.286736819879566"><ele>447.5</ele><time>2026-04-12T14:19:05.999Z</time></trkpt><trkpt lat="46.00234439019177" lon="11.286581919032667"><ele>447.75</ele><time>2026-04-12T14:19:06.999Z</time></trkpt><trkpt lat="46.002265029520906" lon="11.286389285341112"><ele>448.0</ele><time>2026-04-12T14:19:07.999Z</time></trkpt><trkpt lat="46.002178719964945" lon="11.28620824797483"><ele>448.0</ele><time>2026-04-12T14:19:08.999Z</time></trkpt><trkpt lat="46.00209236787022" lon="11.286018186044245"><ele>448.0</ele><time>2026-04-12T14:19:09.999Z</time></trkpt><trkpt lat="46.00200200994566" lon="11.285829802121329"><ele>448.0</ele><time>2026-04-12T14:19:10.999Z</time></trkpt><trkpt lat="46.00191479185879" lon="11.285638925876734"><ele>448.33333333333337</ele><time>2026-04-12T14:19:11.999Z</time></trkpt><trkpt lat="46.00183606530047" lon="11.285435761237261"><ele>448.66666666666663</ele><time>2026-04-12T14:19:12.999Z</time></trkpt><trkpt lat="46.00174476797242" lon="11.285229714651368"><ele>449.0</ele><time>2026-04-12T14:19:13.999Z</time></trkpt><trkpt lat="46.001638871333526" lon="11.285027884548164"><ele>449.0</ele><time>2026-04-12T14:19:14.999Z</time></trkpt><trkpt lat="46.001516679556694" lon="11.284836498881367"><ele>449.0</ele><time>2026-04-12T14:19:15.999Z</time></trkpt><trkpt lat="46.001381711201134" lon="11.284669770166731"><ele>449.0</ele><time>2026-04-12T14:19:16.999Z</time></trkpt><trkpt lat="46.00124833835004" lon="11.284512347675722"><ele>449.66666666666663</ele><time>2026-04-12T14:19:17.999Z</time></trkpt><trkpt lat="46.00111532708345" lon="11.2843702969195"><ele>450.33333333333337</ele><time>2026-04-12T14:19:18.999Z</time></trkpt><trkpt lat="46.00098840090726" lon="11.284238277786791"><ele>451.0</ele><time>2026-04-12T14:19:19.999Z</time></trkpt><trkpt lat="46.00086658376497" lon="11.28411672035062"><ele>451.0</ele><time>2026-04-12T14:19:20.999Z</time></trkpt><trkpt lat="46.000744754862495" lon="11.283992075201843"><ele>451.0</ele><time>2026-04-12T14:19:21.999Z</time></trkpt><trkpt lat="46.00062912482031" lon="11.283867896067092"><ele>451.0</ele><time>2026-04-12T14:19:22.999Z</time></trkpt><trkpt lat="46.000495099313184" lon="11.283720202470189"><ele>451.0</ele><time>2026-04-12T14:19:23.999Z</time></trkpt><trkpt lat="46.00035629278665" lon="11.283535576418476"><ele>451.0</ele><time>2026-04-12T14:19:24.999Z</time></trkpt><trkpt lat="46.00023471055138" lon="11.283310081185803"><ele>451.0</ele><time>2026-04-12T14:19:25.999Z</time></trkpt><trkpt lat="46.00013248052428" lon="11.283083662455011"><ele>451.0</ele><time>2026-04-12T14:19:26.999Z</time></trkpt><trkpt lat="46.000027613869804" lon="11.282852054353492"><ele>451.0</ele><time>2026-04-12T14:19:27.999Z</time></trkpt><trkpt lat="45.99992822142839" lon="11.28262961702432"><ele>451.0</ele><time>2026-04-12T14:19:28.999Z</time></trkpt><trkpt lat="45.99982576671898" lon="11.28241939883586"><ele>452.0</ele><time>2026-04-12T14:19:29.999Z</time></trkpt><trkpt lat="45.99972156122406" lon="11.282208473860669"><ele>453.0</ele><time>2026-04-12T14:19:30.999Z</time></trkpt><trkpt lat="45.99961687665672" lon="11.281992992757472"><ele>454.0</ele><time>2026-04-12T14:19:31.999Z</time></trkpt><trkpt lat="45.999519046940314" lon="11.281795361250838"><ele>454.0</ele><time>2026-04-12T14:19:32.999Z</time></trkpt><trkpt lat="45.99942235111572" lon="11.28158515969274"><ele>454.0</ele><time>2026-04-12T14:19:33.999Z</time></trkpt><trkpt lat="45.99932611455485" lon="11.281372425634695"><ele>454.0</ele><time>2026-04-12T14:19:34.999Z</time></trkpt><trkpt lat="45.99922309797271" lon="11.281155470607422"><ele>454.6666666666667</ele><time>2026-04-12T14:19:35.999Z</time></trkpt><trkpt lat="45.99911168442371" lon="11.280936839592503"><ele>455.33333333333337</ele><time>2026-04-12T14:19:36.999Z</time></trkpt><trkpt lat="45.998987448469926" lon="11.28071974714462"><ele>456.0</ele><time>2026-04-12T14:19:37.999Z</time></trkpt><trkpt lat="45.99884960767005" lon="11.280519085258987"><ele>456.0</ele><time>2026-04-12T14:19:38.999Z</time></trkpt><trkpt lat="45.99870597970791" lon="11.28031712424775"><ele>456.0</ele><time>2026-04-12T14:19:39.999Z</time></trkpt><trkpt lat="45.99856043144977" lon="11.280114553879057"><ele>456.0</ele><time>2026-04-12T14:19:40.998Z</time></trkpt><trkpt lat="45.998419282438554" lon="11.279911574000621"><ele>457.0</ele><time>2026-04-12T14:19:41.998Z</time></trkpt><trkpt lat="45.998286604753055" lon="11.27971508326386"><ele>458.0</ele><time>2026-04-12T14:19:42.998Z</time></trkpt><trkpt lat="45.998150976458334" lon="11.279526072408112"><ele>459.0</ele><time>2026-04-12T14:19:43.998Z</time></trkpt><trkpt lat="45.99801694614358" lon="11.279340877755347"><ele>459.0</ele><time>2026-04-12T14:19:44.998Z</time></trkpt><trkpt lat="45.99788241799158" lon="11.279159224040749"><ele>459.0</ele><time>2026-04-12T14:19:45.998Z</time></trkpt><trkpt lat="45.99774932109798" lon="11.278977862553472"><ele>459.0</ele><time>2026-04-12T14:19:46.998Z</time></trkpt><trkpt lat="45.997617048465344" lon="11.278796610229998"><ele>461.0</ele><time>2026-04-12T14:19:47.998Z</time></trkpt><trkpt lat="45.997488224264494" lon="11.278613635406328"><ele>463.0</ele><time>2026-04-12T14:19:48.998Z</time></trkpt><trkpt lat="45.99736052143226" lon="11.278425710671199"><ele>465.0</ele><time>2026-04-12T14:19:49.998Z</time></trkpt><trkpt lat="45.99723890051305" lon="11.278227257971594"><ele>464.66666666666663</ele><time>2026-04-12T14:19:50.998Z</time></trkpt><trkpt lat="45.99712939550676" lon="11.278028789497565"><ele>464.3333333333333</ele><time>2026-04-12T14:19:51.998Z</time></trkpt><trkpt lat="45.99702908318761" lon="11.277821651654552"><ele>464.0</ele><time>2026-04-12T14:19:52.998Z</time></trkpt><trkpt lat="45.996936661968185" lon="11.277612745077453"><ele>464.0</ele><time>2026-04-12T14:19:53.998Z</time></trkpt><trkpt lat="45.996852377615006" lon="11.277407515564033"><ele>464.0</ele><time>2026-04-12T14:19:54.998Z</time></trkpt><trkpt lat="45.996775758258536" lon="11.277212104199128"><ele>464.0</ele><time>2026-04-12T14:19:55.998Z</time></trkpt><trkpt lat="45.99670836016003" lon="11.27702171780607"><ele>464.0</ele><time>2026-04-12T14:19:57Z</time></trkpt><trkpt lat="45.99663871974925" lon="11.276844515768033"><ele>464.0</ele><time>2026-04-12T14:19:58Z</time></trkpt><trkpt lat="45.99656986774005" lon="11.276673160578143"><ele>464.0</ele><time>2026-04-12T14:19:59Z</time></trkpt><trkpt lat="45.99650145266174" lon="11.276491147602195"><ele>464.0</ele><time>2026-04-12T14:20:00Z</time></trkpt><trkpt lat="45.9964276073263" lon="11.276304351378243"><ele>464.3333333333333</ele><time>2026-04-12T14:20:01Z</time></trkpt><trkpt lat="45.996353554975215" lon="11.27610905503827"><ele>464.66666666666663</ele><time>2026-04-12T14:20:02Z</time></trkpt><trkpt lat="45.996277058056194" lon="11.275914767797524"><ele>465.0</ele><time>2026-04-12T14:20:03Z</time></trkpt><trkpt lat="45.99619977324386" lon="11.27571997772736"><ele>465.33333333333337</ele><time>2026-04-12T14:20:04Z</time></trkpt><trkpt lat="45.99612493906511" lon="11.275525842888587"><ele>465.6666666666667</ele><time>2026-04-12T14:20:05Z</time></trkpt><trkpt lat="45.99605304674438" lon="11.275329427806364"><ele>466.0</ele><time>2026-04-12T14:20:06Z</time></trkpt><trkpt lat="45.995985962133595" lon="11.275134353242587"><ele>466.0</ele><time>2026-04-12T14:20:07Z</time></trkpt><trkpt lat="45.995918778391314" lon="11.274933121570639"><ele>466.0</ele><time>2026-04-12T14:20:08Z</time></trkpt><trkpt lat="45.995850954535136" lon="11.274734980342862"><ele>466.0</ele><time>2026-04-12T14:20:09Z</time></trkpt><trkpt lat="45.99578607655422" lon="11.274538868921303"><ele>466.0</ele><time>2026-04-12T14:20:10Z</time></trkpt><trkpt lat="45.995723609115764" lon="11.274351468759052"><ele>466.0</ele><time>2026-04-12T14:20:11Z</time></trkpt><trkpt lat="45.99566442747136" lon="11.274171609624297"><ele>466.0</ele><time>2026-04-12T14:20:12Z</time></trkpt><trkpt lat="45.99560922222482" lon="11.27399353242449"><ele>466.0</ele><time>2026-04-12T14:20:13Z</time></trkpt><trkpt lat="45.9955523856197" lon="11.273815864013491"><ele>466.0</ele><time>2026-04-12T14:20:14Z</time></trkpt><trkpt lat="45.99549849059648" lon="11.27364464601913"><ele>466.0</ele><time>2026-04-12T14:20:15Z</time></trkpt><trkpt lat="45.99544642219373" lon="11.27348417852796"><ele>466.0</ele><time>2026-04-12T14:20:16Z</time></trkpt><trkpt lat="45.995397518107524" lon="11.273324493838766"><ele>466.0</ele><time>2026-04-12T14:20:17Z</time></trkpt><trkpt lat="45.99534936088479" lon="11.273169253884367"><ele>466.0</ele><time>2026-04-12T14:20:18Z</time></trkpt><trkpt lat="45.99530180259702" lon="11.273021445823984"><ele>466.0</ele><time>2026-04-12T14:20:19Z</time></trkpt><trkpt lat="45.99526019241568" lon="11.272856537728265"><ele>466.0</ele><time>2026-04-12T14:20:20Z</time></trkpt><trkpt lat="45.99522030939719" lon="11.272680055505248"><ele>466.0</ele><time>2026-04-12T14:20:21Z</time></trkpt><trkpt lat="45.99518306099076" lon="11.272491351791604"><ele>466.0</ele><time>2026-04-12T14:20:22Z</time></trkpt><trkpt lat="45.99515212551593" lon="11.272286501651934"><ele>466.0</ele><time>2026-04-12T14:20:23Z</time></trkpt><trkpt lat="45.99513553164312" lon="11.272074852258655"><ele>466.0</ele><time>2026-04-12T14:20:24Z</time></trkpt><trkpt lat="45.995136928491696" lon="11.271858860043645"><ele>466.0</ele><time>2026-04-12T14:20:25Z</time></trkpt><trkpt lat="45.99514953735376" lon="11.27165296114476"><ele>466.25</ele><time>2026-04-12T14:20:26Z</time></trkpt><trkpt lat="45.99517365528196" lon="11.271443926286327"><ele>466.5</ele><time>2026-04-12T14:20:27Z</time></trkpt><trkpt lat="45.99520690313127" lon="11.271237431680373"><ele>466.75</ele><time>2026-04-12T14:20:28Z</time></trkpt><trkpt lat="45.99525238174003" lon="11.271034271492603"><ele>467.0</ele><time>2026-04-12T14:20:29Z</time></trkpt><trkpt lat="45.99530930458078" lon="11.270829669779575"><ele>468.0</ele><time>2026-04-12T14:20:30Z</time></trkpt><trkpt lat="45.99537372370155" lon="11.270625303914"><ele>469.0</ele><time>2026-04-12T14:20:31Z</time></trkpt><trkpt lat="45.99543784510052" lon="11.270429317502643"><ele>470.0</ele><time>2026-04-12T14:20:32Z</time></trkpt><trkpt lat="45.99550380856084" lon="11.270231078562041"><ele>470.25</ele><time>2026-04-12T14:20:33Z</time></trkpt><trkpt lat="45.99557165583166" lon="11.270037427391992"><ele>470.5</ele><time>2026-04-12T14:20:34Z</time></trkpt><trkpt lat="45.99563740567531" lon="11.269846434186007"><ele>470.75</ele><time>2026-04-12T14:20:35Z</time></trkpt><trkpt lat="45.99570257196001" lon="11.269653585863022"><ele>471.0</ele><time>2026-04-12T14:20:36Z</time></trkpt><trkpt lat="45.99577167644253" lon="11.269463668696346"><ele>471.25</ele><time>2026-04-12T14:20:37Z</time></trkpt><trkpt lat="45.99583838485787" lon="11.26927889624977"><ele>471.5</ele><time>2026-04-12T14:20:38Z</time></trkpt><trkpt lat="45.995899078272956" lon="11.269099997233187"><ele>471.75</ele><time>2026-04-12T14:20:39Z</time></trkpt><trkpt lat="45.995956396957034" lon="11.2689323734358"><ele>472.0</ele><time>2026-04-12T14:20:40Z</time></trkpt><trkpt lat="45.99601125471718" lon="11.268773953371861"><ele>471.6</ele><time>2026-04-12T14:20:41Z</time></trkpt><trkpt lat="45.99606274158826" lon="11.26862282214756"><ele>471.20000000000005</ele><time>2026-04-12T14:20:42Z</time></trkpt><trkpt lat="45.99611439787624" lon="11.2684807985125"><ele>470.8</ele><time>2026-04-12T14:20:42.999Z</time></trkpt><trkpt lat="45.996159114604374" lon="11.268345062379463"><ele>470.4</ele><time>2026-04-12T14:20:43.999Z</time></trkpt><trkpt lat="45.99619830865179" lon="11.268218748361917"><ele>470.0</ele><time>2026-04-12T14:20:44.999Z</time></trkpt><trkpt lat="45.996238830788485" lon="11.26809794329021"><ele>469.99999999999994</ele><time>2026-04-12T14:20:45.999Z</time></trkpt><trkpt lat="45.99627833894054" lon="11.26797883405184"><ele>470.0</ele><time>2026-04-12T14:20:46.999Z</time></trkpt><trkpt lat="45.996312240593944" lon="11.26787193687993"><ele>470.0</ele><time>2026-04-12T14:20:47.999Z</time></trkpt><trkpt lat="45.99634357402219" lon="11.267772816957272"><ele>470.0</ele><time>2026-04-12T14:20:48.999Z</time></trkpt><trkpt lat="45.99637005807141" lon="11.267685840049145"><ele>469.99999999999994</ele><time>2026-04-12T14:20:49.999Z</time></trkpt><trkpt lat="45.9964138663064" lon="11.26754704781357"><ele>470.0</ele><time>2026-04-12T14:20:51.999Z</time></trkpt><trkpt lat="45.99644923642763" lon="11.267445018870365"><ele>469.99999999999994</ele><time>2026-04-12T14:20:53.999Z</time></trkpt><trkpt lat="45.99648758396258" lon="11.267329715963648"><ele>470.0</ele><time>2026-04-12T14:20:55.999Z</time></trkpt><trkpt lat="45.99652125422018" lon="11.267237587735108"><ele>470.0</ele><time>2026-04-12T14:20:56.999Z</time></trkpt><trkpt lat="45.99656849573701" lon="11.267122707392472"><ele>470.0</ele><time>2026-04-12T14:20:57.999Z</time></trkpt><trkpt lat="45.996607291293586" lon="11.267022997153635"><ele>469.99999999999994</ele><time>2026-04-12T14:20:58.999Z</time></trkpt><trkpt lat="45.996645216442765" lon="11.266916159762987"><ele>470.0</ele><time>2026-04-12T14:20:59.999Z</time></trkpt><trkpt lat="45.99668004064288" lon="11.266801726870188"><ele>469.6</ele><time>2026-04-12T14:21:00.999Z</time></trkpt><trkpt lat="45.996716004433" lon="11.26668790271853"><ele>469.2</ele><time>2026-04-12T14:21:01.999Z</time></trkpt><trkpt lat="45.99675736835306" lon="11.266572921200403"><ele>468.79999999999995</ele><time>2026-04-12T14:21:02.999Z</time></trkpt><trkpt lat="45.99679776033321" lon="11.266455533548152"><ele>468.4</ele><time>2026-04-12T14:21:03.999Z</time></trkpt><trkpt lat="45.99683935198504" lon="11.266334691331327"><ele>468.0</ele><time>2026-04-12T14:21:04.999Z</time></trkpt><trkpt lat="45.99687956479413" lon="11.266215870099392"><ele>467.79999999999995</ele><time>2026-04-12T14:21:05.999Z</time></trkpt><trkpt lat="45.99691987766493" lon="11.266100258302675"><ele>467.59999999999997</ele><time>2026-04-12T14:21:06.999Z</time></trkpt><trkpt lat="45.99696000448458" lon="11.265974795311527"><ele>467.40000000000003</ele><time>2026-04-12T14:21:07.999Z</time></trkpt><trkpt lat="45.99699588190879" lon="11.265842054335168"><ele>467.20000000000005</ele><time>2026-04-12T14:21:08.999Z</time></trkpt><trkpt lat="45.99702843160927" lon="11.265701247118297"><ele>467.0</ele><time>2026-04-12T14:21:09.999Z</time></trkpt><trkpt lat="45.99706373605813" lon="11.265549080661348"><ele>467.0</ele><time>2026-04-12T14:21:10.999Z</time></trkpt><trkpt lat="45.9970936400022" lon="11.265394104561082"><ele>467.00000000000006</ele><time>2026-04-12T14:21:11.999Z</time></trkpt><trkpt lat="45.99711680707337" lon="11.265244435127624"><ele>467.00000000000006</ele><time>2026-04-12T14:21:12.999Z</time></trkpt><trkpt lat="45.99713553731307" lon="11.265089844842423"><ele>467.0</ele><time>2026-04-12T14:21:13.999Z</time></trkpt><trkpt lat="45.99715202500795" lon="11.264923731964865"><ele>467.0</ele><time>2026-04-12T14:21:14.999Z</time></trkpt><trkpt lat="45.997158799445295" lon="11.264747818991989"><ele>466.5</ele><time>2026-04-12T14:21:15.999Z</time></trkpt><trkpt lat="45.997163858303104" lon="11.264562645801307"><ele>466.0</ele><time>2026-04-12T14:21:16.999Z</time></trkpt><trkpt lat="45.99716367134485" lon="11.264381327707447"><ele>465.5</ele><time>2026-04-12T14:21:17.999Z</time></trkpt><trkpt lat="45.9971628447123" lon="11.264208301461846"><ele>465.0</ele><time>2026-04-12T14:21:18.999Z</time></trkpt><trkpt lat="45.99715344805701" lon="11.264038707284334"><ele>464.75</ele><time>2026-04-12T14:21:19.999Z</time></trkpt><trkpt lat="45.99714629671033" lon="11.263863117598587"><ele>464.5</ele><time>2026-04-12T14:21:20.999Z</time></trkpt><trkpt lat="45.99714472541762" lon="11.26370051592277"><ele>464.25</ele><time>2026-04-12T14:21:21.999Z</time></trkpt><trkpt lat="45.99714753886632" lon="11.263530213386815"><ele>464.0</ele><time>2026-04-12T14:21:22.999Z</time></trkpt><trkpt lat="45.99714345579724" lon="11.2633577236781"><ele>464.0</ele><time>2026-04-12T14:21:23.999Z</time></trkpt><trkpt lat="45.99714238685937" lon="11.263174658144825"><ele>464.0</ele><time>2026-04-12T14:21:24.999Z</time></trkpt><trkpt lat="45.997137474336185" lon="11.26298193566375"><ele>464.0</ele><time>2026-04-12T14:21:25.999Z</time></trkpt><trkpt lat="45.997130419615914" lon="11.262778953891145"><ele>464.0</ele><time>2026-04-12T14:21:26.999Z</time></trkpt><trkpt lat="45.997123603599164" lon="11.262567528755772"><ele>464.0</ele><time>2026-04-12T14:21:27.999Z</time></trkpt><trkpt lat="45.997120998403396" lon="11.262360151290874"><ele>464.0</ele><time>2026-04-12T14:21:28.999Z</time></trkpt><trkpt lat="45.997117295907024" lon="11.26216782559762"><ele>464.0</ele><time>2026-04-12T14:21:29.999Z</time></trkpt><trkpt lat="45.997109617553704" lon="11.261988033103417"><ele>464.0</ele><time>2026-04-12T14:21:30.999Z</time></trkpt><trkpt lat="45.99709594090954" lon="11.261809117888541"><ele>464.0</ele><time>2026-04-12T14:21:31.999Z</time></trkpt><trkpt lat="45.9970722102534" lon="11.261625819628378"><ele>464.0</ele><time>2026-04-12T14:21:32.999Z</time></trkpt><trkpt lat="45.99703608816752" lon="11.261441055303136"><ele>464.0</ele><time>2026-04-12T14:21:33.999Z</time></trkpt><trkpt lat="45.9969912227007" lon="11.261256307082865"><ele>464.0</ele><time>2026-04-12T14:21:34.999Z</time></trkpt><trkpt lat="45.99694267944135" lon="11.26106995504631"><ele>464.0</ele><time>2026-04-12T14:21:35.999Z</time></trkpt><trkpt lat="45.99689098485961" lon="11.260887065436934"><ele>464.0</ele><time>2026-04-12T14:21:36.999Z</time></trkpt><trkpt lat="45.996847331706526" lon="11.260708552174773"><ele>464.0</ele><time>2026-04-12T14:21:37.999Z</time></trkpt><trkpt lat="45.996804689340074" lon="11.260534259081822"><ele>464.0</ele><time>2026-04-12T14:21:38.999Z</time></trkpt><trkpt lat="45.99676230960942" lon="11.260365799849263"><ele>464.0</ele><time>2026-04-12T14:21:39.999Z</time></trkpt><trkpt lat="45.996719999399204" lon="11.260195599511146"><ele>464.0</ele><time>2026-04-12T14:21:40.999Z</time></trkpt><trkpt lat="45.99667156479878" lon="11.260022416070749"><ele>464.0</ele><time>2026-04-12T14:21:41.999Z</time></trkpt><trkpt lat="45.99662577190553" lon="11.259837256768593"><ele>464.0</ele><time>2026-04-12T14:21:42.999Z</time></trkpt><trkpt lat="45.99657711966901" lon="11.259653032001342"><ele>464.0</ele><time>2026-04-12T14:21:43.999Z</time></trkpt><trkpt lat="45.996522701771866" lon="11.259471491971329"><ele>464.0</ele><time>2026-04-12T14:21:44.999Z</time></trkpt><trkpt lat="45.9964778904871" lon="11.259292616309295"><ele>464.0</ele><time>2026-04-12T14:21:45.999Z</time></trkpt><trkpt lat="45.9964301503237" lon="11.25912083267537"><ele>464.0</ele><time>2026-04-12T14:21:46.998Z</time></trkpt><trkpt lat="45.99638344978006" lon="11.258943537526129"><ele>464.0</ele><time>2026-04-12T14:21:47.998Z</time></trkpt><trkpt lat="45.996335530351125" lon="11.258764677326356"><ele>464.0</ele><time>2026-04-12T14:21:48.998Z</time></trkpt><trkpt lat="45.99629022879994" lon="11.258590732783231"><ele>464.0</ele><time>2026-04-12T14:21:49.998Z</time></trkpt><trkpt lat="45.99625047385485" lon="11.258417156230292"><ele>464.0</ele><time>2026-04-12T14:21:50.998Z</time></trkpt><trkpt lat="45.996210076105605" lon="11.258251480276503"><ele>463.75</ele><time>2026-04-12T14:21:51.998Z</time></trkpt><trkpt lat="45.99617057817266" lon="11.258098711456178"><ele>463.5</ele><time>2026-04-12T14:21:52.998Z</time></trkpt><trkpt lat="45.99613267868865" lon="11.257947264324853"><ele>463.25</ele><time>2026-04-12T14:21:53.998Z</time></trkpt><trkpt lat="45.99609150857836" lon="11.257792658534271"><ele>463.0</ele><time>2026-04-12T14:21:54.998Z</time></trkpt><trkpt lat="45.99604934498771" lon="11.257628564214638"><ele>463.0</ele><time>2026-04-12T14:21:55.998Z</time></trkpt><trkpt lat="45.996007519020516" lon="11.257460200485033"><ele>462.99999999999994</ele><time>2026-04-12T14:21:56.998Z</time></trkpt><trkpt lat="45.99596911450398" lon="11.25730234360396"><ele>462.99999999999994</ele><time>2026-04-12T14:21:57.998Z</time></trkpt><trkpt lat="45.99593960571827" lon="11.257157541403588"><ele>463.0</ele><time>2026-04-12T14:21:58.998Z</time></trkpt><trkpt lat="45.99591390017262" lon="11.257017570896751"><ele>463.0</ele><time>2026-04-12T14:21:59.998Z</time></trkpt><trkpt lat="45.9958998924815" lon="11.256892862099514"><ele>462.50000000000006</ele><time>2026-04-12T14:22:00.998Z</time></trkpt><trkpt lat="45.99589082396966" lon="11.2567704421736"><ele>462.0</ele><time>2026-04-12T14:22:01.998Z</time></trkpt><trkpt lat="45.99588658380616" lon="11.256659830035371"><ele>461.5</ele><time>2026-04-12T14:22:03Z</time></trkpt><trkpt lat="45.99590004728663" lon="11.256523161628431"><ele>461.0</ele><time>2026-04-12T14:22:05Z</time></trkpt><trkpt lat="45.995930821153536" lon="11.256443785010728"><ele>460.50000000000006</ele><time>2026-04-12T14:22:12Z</time></trkpt><trkpt lat="45.99599175654719" lon="11.25630855593661"><ele>460.0</ele><time>2026-04-12T14:22:15Z</time></trkpt><trkpt lat="45.996021115063066" lon="11.256206695200358"><ele>459.8</ele><time>2026-04-12T14:22:16Z</time></trkpt><trkpt lat="45.996033194365644" lon="11.256079813159419"><ele>459.6</ele><time>2026-04-12T14:22:17Z</time></trkpt><trkpt lat="45.996021700821885" lon="11.25592756940181"><ele>459.4</ele><time>2026-04-12T14:22:18Z</time></trkpt><trkpt lat="45.995994764860875" lon="11.255769580889563"><ele>459.2</ele><time>2026-04-12T14:22:19Z</time></trkpt><trkpt lat="45.995987500445736" lon="11.255601843135157"><ele>459.0</ele><time>2026-04-12T14:22:20Z</time></trkpt><trkpt lat="45.99602927820252" lon="11.255435329200843"><ele>458.75</ele><time>2026-04-12T14:22:21Z</time></trkpt><trkpt lat="45.996059877336336" lon="11.255270144833137"><ele>458.5</ele><time>2026-04-12T14:22:22Z</time></trkpt><trkpt lat="45.99612204918255" lon="11.255110977032038"><ele>458.25</ele><time>2026-04-12T14:22:23Z</time></trkpt><trkpt lat="45.996183800707286" lon="11.25495376591596"><ele>458.0</ele><time>2026-04-12T14:22:24Z</time></trkpt><trkpt lat="45.996244759833324" lon="11.254813429244736"><ele>458.4</ele><time>2026-04-12T14:22:25Z</time></trkpt><trkpt lat="45.996297970208914" lon="11.254683114992856"><ele>458.79999999999995</ele><time>2026-04-12T14:22:26Z</time></trkpt><trkpt lat="45.9963512693203" lon="11.25455741192516"><ele>459.2</ele><time>2026-04-12T14:22:27Z</time></trkpt><trkpt lat="45.996410245428976" lon="11.254419192125285"><ele>459.6</ele><time>2026-04-12T14:22:28Z</time></trkpt><trkpt lat="45.99646642074702" lon="11.254268816739934"><ele>460.0</ele><time>2026-04-12T14:22:29Z</time></trkpt><trkpt lat="45.996524325123126" lon="11.254112845179069"><ele>459.5</ele><time>2026-04-12T14:22:30Z</time></trkpt><trkpt lat="45.996589017239074" lon="11.25395256328917"><ele>459.0</ele><time>2026-04-12T14:22:31Z</time></trkpt><trkpt lat="45.99665828075239" lon="11.2537766542739"><ele>458.5</ele><time>2026-04-12T14:22:32Z</time></trkpt><trkpt lat="45.996725978190234" lon="11.253589705135957"><ele>458.0</ele><time>2026-04-12T14:22:33Z</time></trkpt><trkpt lat="45.99679810543962" lon="11.253396692850503"><ele>457.5</ele><time>2026-04-12T14:22:34Z</time></trkpt><trkpt lat="45.99687227287924" lon="11.253220805786034"><ele>457.0</ele><time>2026-04-12T14:22:35Z</time></trkpt><trkpt lat="45.99694342903253" lon="11.253038930803175"><ele>456.5</ele><time>2026-04-12T14:22:36Z</time></trkpt><trkpt lat="45.99700585179228" lon="11.252878624480074"><ele>456.0</ele><time>2026-04-12T14:22:37Z</time></trkpt><trkpt lat="45.997073077541536" lon="11.252703520302843"><ele>456.0</ele><time>2026-04-12T14:22:38Z</time></trkpt><trkpt lat="45.99714338501667" lon="11.252526590940283"><ele>456.0</ele><time>2026-04-12T14:22:39Z</time></trkpt><trkpt lat="45.99721096218602" lon="11.252349083119478"><ele>456.0</ele><time>2026-04-12T14:22:40Z</time></trkpt><trkpt lat="45.99728028425551" lon="11.252172435573243"><ele>456.0</ele><time>2026-04-12T14:22:41Z</time></trkpt><trkpt lat="45.997346947067044" lon="11.251992317211418"><ele>456.0</ele><time>2026-04-12T14:22:42Z</time></trkpt><trkpt lat="45.997416784811335" lon="11.251809905099897"><ele>456.0</ele><time>2026-04-12T14:22:43Z</time></trkpt><trkpt lat="45.9974853189955" lon="11.251626224287094"><ele>456.0</ele><time>2026-04-12T14:22:44Z</time></trkpt><trkpt lat="45.99755592204756" lon="11.251445658289319"><ele>456.0</ele><time>2026-04-12T14:22:45Z</time></trkpt><trkpt lat="45.997621220853006" lon="11.251274284641964"><ele>455.25</ele><time>2026-04-12T14:22:46Z</time></trkpt><trkpt lat="45.997689638553275" lon="11.251097589539661"><ele>454.5</ele><time>2026-04-12T14:22:47Z</time></trkpt><trkpt lat="45.99776027952152" lon="11.250909805515986"><ele>453.75</ele><time>2026-04-12T14:22:47.999Z</time></trkpt><trkpt lat="45.99783349579982" lon="11.250717686797202"><ele>453.0</ele><time>2026-04-12T14:22:48.999Z</time></trkpt><trkpt lat="45.99791169697527" lon="11.250515743398996"><ele>453.0</ele><time>2026-04-12T14:22:49.999Z</time></trkpt><trkpt lat="45.997993189093805" lon="11.250313305047957"><ele>453.0</ele><time>2026-04-12T14:22:50.999Z</time></trkpt><trkpt lat="45.99807334067742" lon="11.250109776960514"><ele>453.0</ele><time>2026-04-12T14:22:51.999Z</time></trkpt><trkpt lat="45.99815448380038" lon="11.249901004445338"><ele>453.33333333333337</ele><time>2026-04-12T14:22:52.999Z</time></trkpt><trkpt lat="45.99823334542931" lon="11.249696148543398"><ele>453.6666666666667</ele><time>2026-04-12T14:22:53.999Z</time></trkpt><trkpt lat="45.99831573891234" lon="11.249489941727427"><ele>454.0</ele><time>2026-04-12T14:22:54.999Z</time></trkpt><trkpt lat="45.998395272472926" lon="11.249278592689663"><ele>453.33333333333337</ele><time>2026-04-12T14:22:55.999Z</time></trkpt><trkpt lat="45.99847981997109" lon="11.249064683001462"><ele>452.66666666666663</ele><time>2026-04-12T14:22:56.999Z</time></trkpt><trkpt lat="45.99855834199461" lon="11.24885184521288"><ele>452.0</ele><time>2026-04-12T14:22:57.999Z</time></trkpt><trkpt lat="45.998637572623615" lon="11.248634566132681"><ele>452.0</ele><time>2026-04-12T14:22:58.999Z</time></trkpt><trkpt lat="45.99870926386153" lon="11.248431278231713"><ele>452.0</ele><time>2026-04-12T14:22:59.999Z</time></trkpt><trkpt lat="45.99880328537115" lon="11.248258628757364"><ele>452.0</ele><time>2026-04-12T14:23:00.999Z</time></trkpt><trkpt lat="45.99888094554499" lon="11.248068346433245"><ele>452.0</ele><time>2026-04-12T14:23:01.999Z</time></trkpt><trkpt lat="45.99898985755241" lon="11.247907786018793"><ele>452.0</ele><time>2026-04-12T14:23:02.999Z</time></trkpt><trkpt lat="45.99907579846265" lon="11.247744714067693"><ele>452.0</ele><time>2026-04-12T14:23:03.999Z</time></trkpt><trkpt lat="45.99917477850919" lon="11.24761124154641"><ele>452.0</ele><time>2026-04-12T14:23:04.999Z</time></trkpt><trkpt lat="45.99926958208307" lon="11.247490105111835"><ele>452.25</ele><time>2026-04-12T14:23:05.999Z</time></trkpt><trkpt lat="45.99936519671741" lon="11.247379224151357"><ele>452.5</ele><time>2026-04-12T14:23:06.999Z</time></trkpt><trkpt lat="45.999457286042116" lon="11.247281972382535"><ele>452.75</ele><time>2026-04-12T14:23:07.999Z</time></trkpt><trkpt lat="45.99955055694002" lon="11.247190500488543"><ele>453.0</ele><time>2026-04-12T14:23:08.999Z</time></trkpt><trkpt lat="45.999655432363376" lon="11.247100795653406"><ele>453.0</ele><time>2026-04-12T14:23:09.999Z</time></trkpt><trkpt lat="45.99975821451638" lon="11.247025022030755"><ele>452.99999999999994</ele><time>2026-04-12T14:23:10.999Z</time></trkpt><trkpt lat="45.999854195692386" lon="11.246955685048386"><ele>452.99999999999994</ele><time>2026-04-12T14:23:11.999Z</time></trkpt><trkpt lat="45.9999422939837" lon="11.24689305482292"><ele>453.0</ele><time>2026-04-12T14:23:12.999Z</time></trkpt><trkpt lat="46.00002846301415" lon="11.246841264526129"><ele>453.0</ele><time>2026-04-12T14:23:13.999Z</time></trkpt><trkpt lat="46.00010903402865" lon="11.246781304734517"><ele>453.0</ele><time>2026-04-12T14:23:14.999Z</time></trkpt><trkpt lat="46.000183130328416" lon="11.246729289040532"><ele>453.0</ele><time>2026-04-12T14:23:15.999Z</time></trkpt><trkpt lat="46.0002539825025" lon="11.24667773512558"><ele>453.0</ele><time>2026-04-12T14:23:16.999Z</time></trkpt><trkpt lat="46.00032413989935" lon="11.246624004493581"><ele>453.0</ele><time>2026-04-12T14:23:17.999Z</time></trkpt><trkpt lat="46.00039360465848" lon="11.246577387058016"><ele>453.0</ele><time>2026-04-12T14:23:18.999Z</time></trkpt><trkpt lat="46.00045546760589" lon="11.246540011495266"><ele>453.0</ele><time>2026-04-12T14:23:19.999Z</time></trkpt><trkpt lat="46.00052200554814" lon="11.246538690024826"><ele>453.0</ele><time>2026-04-12T14:23:20.999Z</time></trkpt><trkpt lat="46.000607914281154" lon="11.24654658800029"><ele>453.0</ele><time>2026-04-12T14:23:21.999Z</time></trkpt><trkpt lat="46.00069383723545" lon="11.246516855842431"><ele>453.0</ele><time>2026-04-12T14:23:22.999Z</time></trkpt><trkpt lat="46.00076585699553" lon="11.246424889255872"><ele>453.0</ele><time>2026-04-12T14:23:23.999Z</time></trkpt><trkpt lat="46.000810792556436" lon="11.24632359090158"><ele>453.0</ele><time>2026-04-12T14:23:24.999Z</time></trkpt><trkpt lat="46.000838952892074" lon="11.2462263063115"><ele>453.0</ele><time>2026-04-12T14:23:25.999Z</time></trkpt><trkpt lat="46.000931361698754" lon="11.246177066234475"><ele>453.2</ele><time>2026-04-12T14:23:26.999Z</time></trkpt><trkpt lat="46.00101873058799" lon="11.246120854791577"><ele>453.4</ele><time>2026-04-12T14:23:27.999Z</time></trkpt><trkpt lat="46.001111013258225" lon="11.246068166004685"><ele>453.59999999999997</ele><time>2026-04-12T14:23:28.999Z</time></trkpt><trkpt lat="46.001206254826094" lon="11.24600407452341"><ele>453.79999999999995</ele><time>2026-04-12T14:23:29.999Z</time></trkpt><trkpt lat="46.001309459517095" lon="11.245931292964354"><ele>454.0</ele><time>2026-04-12T14:23:30.999Z</time></trkpt><trkpt lat="46.001424049974936" lon="11.245851654861761"><ele>454.0</ele><time>2026-04-12T14:23:31.999Z</time></trkpt><trkpt lat="46.00153381471408" lon="11.245767624605413"><ele>454.0</ele><time>2026-04-12T14:23:32.999Z</time></trkpt><trkpt lat="46.0016364517695" lon="11.245702053732375"><ele>454.0</ele><time>2026-04-12T14:23:33.999Z</time></trkpt><trkpt lat="46.00175170014202" lon="11.2456260273114"><ele>454.0</ele><time>2026-04-12T14:23:34.999Z</time></trkpt><trkpt lat="46.001859156327896" lon="11.245545373540736"><ele>454.25</ele><time>2026-04-12T14:23:35.999Z</time></trkpt><trkpt lat="46.00197273241444" lon="11.24547025831229"><ele>454.5</ele><time>2026-04-12T14:23:36.999Z</time></trkpt><trkpt lat="46.00208660611779" lon="11.24538855732735"><ele>454.75</ele><time>2026-04-12T14:23:37.999Z</time></trkpt><trkpt lat="46.00219298835552" lon="11.245315036192775"><ele>455.0</ele><time>2026-04-12T14:23:38.999Z</time></trkpt><trkpt lat="46.002300893703534" lon="11.245240663831307"><ele>455.0</ele><time>2026-04-12T14:23:39.999Z</time></trkpt><trkpt lat="46.002401802213335" lon="11.245161220452214"><ele>455.0</ele><time>2026-04-12T14:23:40.999Z</time></trkpt><trkpt lat="46.00250906478474" lon="11.245083591112397"><ele>455.0</ele><time>2026-04-12T14:23:41.999Z</time></trkpt><trkpt lat="46.00262077947341" lon="11.244999566487127"><ele>455.0</ele><time>2026-04-12T14:23:42.999Z</time></trkpt><trkpt lat="46.0027298099874" lon="11.244928669247244"><ele>454.75</ele><time>2026-04-12T14:23:43.999Z</time></trkpt><trkpt lat="46.00284438612874" lon="11.244853000335699"><ele>454.5</ele><time>2026-04-12T14:23:44.999Z</time></trkpt><trkpt lat="46.002944633835696" lon="11.244783478550666"><ele>454.25</ele><time>2026-04-12T14:23:45.999Z</time></trkpt><trkpt lat="46.003041085195484" lon="11.2447100532251"><ele>454.0</ele><time>2026-04-12T14:23:46.999Z</time></trkpt><trkpt lat="46.003132681155684" lon="11.24462016721718"><ele>455.2</ele><time>2026-04-12T14:23:47.999Z</time></trkpt><trkpt lat="46.003219822743254" lon="11.244527265347672"><ele>456.4</ele><time>2026-04-12T14:23:48.999Z</time></trkpt><trkpt lat="46.00329988814914" lon="11.24443045566031"><ele>457.6</ele><time>2026-04-12T14:23:49.999Z</time></trkpt><trkpt lat="46.00336410028844" lon="11.244344069403397"><ele>458.8</ele><time>2026-04-12T14:23:50.999Z</time></trkpt><trkpt lat="46.00343780493411" lon="11.244242254740527"><ele>460.0</ele><time>2026-04-12T14:23:51.999Z</time></trkpt><trkpt lat="46.00350855946982" lon="11.244143531649723"><ele>460.0</ele><time>2026-04-12T14:23:52.998Z</time></trkpt><trkpt lat="46.00357996043412" lon="11.244043485284902"><ele>460.0</ele><time>2026-04-12T14:23:53.998Z</time></trkpt><trkpt lat="46.00365280123519" lon="11.243942200406517"><ele>460.0</ele><time>2026-04-12T14:23:54.998Z</time></trkpt><trkpt lat="46.003721980040346" lon="11.243851755312244"><ele>460.0</ele><time>2026-04-12T14:23:55.998Z</time></trkpt><trkpt lat="46.00379169251644" lon="11.243758360024064"><ele>460.0</ele><time>2026-04-12T14:23:56.998Z</time></trkpt><trkpt lat="46.00385722943114" lon="11.243675139827971"><ele>460.0</ele><time>2026-04-12T14:23:57.998Z</time></trkpt><trkpt lat="46.00391316342003" lon="11.24360168354905"><ele>460.0</ele><time>2026-04-12T14:23:58.998Z</time></trkpt><trkpt lat="46.0039647957075" lon="11.24352688094356"><ele>460.0</ele><time>2026-04-12T14:23:59.998Z</time></trkpt><trkpt lat="46.00401507432509" lon="11.243465937904094"><ele>460.0</ele><time>2026-04-12T14:24:00.998Z</time></trkpt><trkpt lat="46.00410228231739" lon="11.243346720780433"><ele>460.0</ele><time>2026-04-12T14:24:02.998Z</time></trkpt><trkpt lat="46.004183486448014" lon="11.24322788259197"><ele>459.99999999999994</ele><time>2026-04-12T14:24:04.998Z</time></trkpt><trkpt lat="46.00422833081411" lon="11.243159975598582"><ele>460.0</ele><time>2026-04-12T14:24:05.998Z</time></trkpt><trkpt lat="46.00428103707384" lon="11.243091817131031"><ele>459.99999999999994</ele><time>2026-04-12T14:24:06.998Z</time></trkpt><trkpt lat="46.004329787296165" lon="11.243018707234134"><ele>459.99999999999994</ele><time>2026-04-12T14:24:07.998Z</time></trkpt><trkpt lat="46.004379934420506" lon="11.24294781161001"><ele>460.0</ele><time>2026-04-12T14:24:09Z</time></trkpt><trkpt lat="46.0044244826935" lon="11.242882398937446"><ele>459.99999999999994</ele><time>2026-04-12T14:24:10Z</time></trkpt><trkpt lat="46.00447315461763" lon="11.242820060213278"><ele>459.99999999999994</ele><time>2026-04-12T14:24:11Z</time></trkpt><trkpt lat="46.00455543368315" lon="11.242705805269011"><ele>460.33333333333337</ele><time>2026-04-12T14:24:13Z</time></trkpt><trkpt lat="46.00464250353377" lon="11.242592038383233"><ele>460.6666666666667</ele><time>2026-04-12T14:24:15Z</time></trkpt><trkpt lat="46.00469547705271" lon="11.242523308932139"><ele>461.0</ele><time>2026-04-12T14:24:16Z</time></trkpt><trkpt lat="46.004749255252364" lon="11.242455472544654"><ele>461.33333333333337</ele><time>2026-04-12T14:24:17Z</time></trkpt><trkpt lat="46.00480586502519" lon="11.24238502088559"><ele>461.6666666666667</ele><time>2026-04-12T14:24:18Z</time></trkpt><trkpt lat="46.004862267639716" lon="11.242318845749455"><ele>462.0</ele><time>2026-04-12T14:24:19Z</time></trkpt><trkpt lat="46.004916487638454" lon="11.242266233480441"><ele>462.25</ele><time>2026-04-12T14:24:20Z</time></trkpt><trkpt lat="46.00503273035644" lon="11.242204329704254"><ele>462.5</ele><time>2026-04-12T14:24:22Z</time></trkpt><trkpt lat="46.005136092121965" lon="11.242082798791008"><ele>462.75</ele><time>2026-04-12T14:24:24Z</time></trkpt><trkpt lat="46.00512846884245" lon="11.241963145055651"><ele>463.0</ele><time>2026-04-12T14:24:25Z</time></trkpt><trkpt lat="46.005105690745474" lon="11.24180919028357"><ele>463.0</ele><time>2026-04-12T14:24:26Z</time></trkpt><trkpt lat="46.00511809072933" lon="11.24166820408295"><ele>463.0</ele><time>2026-04-12T14:24:27Z</time></trkpt><trkpt lat="46.00520170703409" lon="11.241530213077233"><ele>463.0</ele><time>2026-04-12T14:24:28Z</time></trkpt><trkpt lat="46.005271955202254" lon="11.241414988076775"><ele>463.0</ele><time>2026-04-12T14:24:29Z</time></trkpt><trkpt lat="46.005389786864015" lon="11.241246452925107"><ele>465.6666666666667</ele><time>2026-04-12T14:24:30Z</time></trkpt><trkpt lat="46.00548036206228" lon="11.241069072254636"><ele>468.33333333333337</ele><time>2026-04-12T14:24:31Z</time></trkpt><trkpt lat="46.00554903856418" lon="11.240878911761717"><ele>471.0</ele><time>2026-04-12T14:24:32Z</time></trkpt><trkpt lat="46.005572617026566" lon="11.240655775123019"><ele>475.66666666666663</ele><time>2026-04-12T14:24:33Z</time></trkpt><trkpt lat="46.00558780367924" lon="11.240421944688412"><ele>480.3333333333333</ele><time>2026-04-12T14:24:34Z</time></trkpt><trkpt lat="46.00562706732575" lon="11.240191439248381"><ele>485.0</ele><time>2026-04-12T14:24:35Z</time></trkpt><trkpt lat="46.0056967966498" lon="11.2399942137735"><ele>485.0</ele><time>2026-04-12T14:24:36Z</time></trkpt><trkpt lat="46.00577941753994" lon="11.239806333697997"><ele>485.0</ele><time>2026-04-12T14:24:37Z</time></trkpt><trkpt lat="46.00586564210037" lon="11.239622671722644"><ele>485.0</ele><time>2026-04-12T14:24:38Z</time></trkpt><trkpt lat="46.00596364507109" lon="11.239454464016777"><ele>485.5</ele><time>2026-04-12T14:24:39Z</time></trkpt><trkpt lat="46.006069278477206" lon="11.239287838084111"><ele>486.0</ele><time>2026-04-12T14:24:40Z</time></trkpt><trkpt lat="46.00617506881993" lon="11.239125470165126"><ele>486.5</ele><time>2026-04-12T14:24:41Z</time></trkpt><trkpt lat="46.00626415152757" lon="11.238988745148605"><ele>487.0</ele><time>2026-04-12T14:24:42Z</time></trkpt><trkpt lat="46.00634201618487" lon="11.238889079841515"><ele>489.50000000000006</ele><time>2026-04-12T14:24:43Z</time></trkpt><trkpt lat="46.00641631385217" lon="11.238819247908854"><ele>492.0</ele><time>2026-04-12T14:24:44Z</time></trkpt><trkpt lat="46.00649036310542" lon="11.238755884751923"><ele>494.5</ele><time>2026-04-12T14:24:45Z</time></trkpt><trkpt lat="46.00653879773308" lon="11.2386938367897"><ele>497.0</ele><time>2026-04-12T14:24:46Z</time></trkpt><trkpt lat="46.006592115772605" lon="11.23863255814735"><ele>499.50000000000006</ele><time>2026-04-12T14:24:47Z</time></trkpt><trkpt lat="46.00658087096268" lon="11.23845849720072"><ele>502.0</ele><time>2026-04-12T14:24:49Z</time></trkpt><trkpt lat="46.00653211722344" lon="11.238383998842657"><ele>502.0</ele><time>2026-04-12T14:24:50Z</time></trkpt><trkpt lat="46.006462566071015" lon="11.23835669452203"><ele>502.00000000000006</ele><time>2026-04-12T14:24:51Z</time></trkpt><trkpt lat="46.0063864360487" lon="11.23838371737671"><ele>502.00000000000006</ele><time>2026-04-12T14:24:52Z</time></trkpt><trkpt lat="46.00631242628445" lon="11.238461864399639"><ele>502.0</ele><time>2026-04-12T14:24:53Z</time></trkpt><trkpt lat="46.00624271138011" lon="11.238590722396784"><ele>502.0</ele><time>2026-04-12T14:24:53.999Z</time></trkpt><trkpt lat="46.00612735254712" lon="11.238731761127633"><ele>502.0</ele><time>2026-04-12T14:24:54.999Z</time></trkpt><trkpt lat="46.00596519892454" lon="11.238893389487718"><ele>502.0</ele><time>2026-04-12T14:24:55.999Z</time></trkpt><trkpt lat="46.005774090034535" lon="11.239067640586258"><ele>502.0</ele><time>2026-04-12T14:24:56.999Z</time></trkpt><trkpt lat="46.0056368627959" lon="11.239183582530826"><ele>502.40000000000003</ele><time>2026-04-12T14:24:57.999Z</time></trkpt><trkpt lat="46.0055511977306" lon="11.239235191094233"><ele>502.80000000000007</ele><time>2026-04-12T14:24:58.999Z</time></trkpt><trkpt lat="46.00548382712046" lon="11.239202080594387"><ele>503.2</ele><time>2026-04-12T14:24:59.999Z</time></trkpt><trkpt lat="46.00541684064017" lon="11.239121501462638"><ele>503.6</ele><time>2026-04-12T14:25:00.999Z</time></trkpt><trkpt lat="46.00536184026665" lon="11.238993625310131"><ele>504.0</ele><time>2026-04-12T14:25:01.999Z</time></trkpt><trkpt lat="46.00536760222647" lon="11.238837648171007"><ele>504.0</ele><time>2026-04-12T14:25:02.999Z</time></trkpt><trkpt lat="46.005404321167305" lon="11.238696121413648"><ele>504.0</ele><time>2026-04-12T14:25:03.999Z</time></trkpt><trkpt lat="46.005531613675544" lon="11.238588613124485"><ele>504.0</ele><time>2026-04-12T14:25:04.999Z</time></trkpt><trkpt lat="46.00566814673432" lon="11.238412028695194"><ele>504.0</ele><time>2026-04-12T14:25:05.999Z</time></trkpt><trkpt lat="46.00584218328823" lon="11.238221684696782"><ele>507.5</ele><time>2026-04-12T14:25:06.999Z</time></trkpt><trkpt lat="46.006016255516414" lon="11.237997328168172"><ele>511.0</ele><time>2026-04-12T14:25:07.999Z</time></trkpt><trkpt lat="46.006201879411904" lon="11.237748631936618"><ele>511.0</ele><time>2026-04-12T14:25:08.999Z</time></trkpt><trkpt lat="46.0064004920227" lon="11.237486961763585"><ele>511.0</ele><time>2026-04-12T14:25:09.999Z</time></trkpt><trkpt lat="46.006591015457495" lon="11.237236066425558"><ele>515.3333333333334</ele><time>2026-04-12T14:25:10.999Z</time></trkpt><trkpt lat="46.00675334456496" lon="11.237026442045591"><ele>519.6666666666666</ele><time>2026-04-12T14:25:11.999Z</time></trkpt><trkpt lat="46.00690538524078" lon="11.236870004181279"><ele>524.0</ele><time>2026-04-12T14:25:12.999Z</time></trkpt><trkpt lat="46.00706219726002" lon="11.236758509600708"><ele>524.0</ele><time>2026-04-12T14:25:13.999Z</time></trkpt><trkpt lat="46.007190564981876" lon="11.23668067913524"><ele>524.0</ele><time>2026-04-12T14:25:14.999Z</time></trkpt><trkpt lat="46.007283250399496" lon="11.23660812921286"><ele>524.0</ele><time>2026-04-12T14:25:15.999Z</time></trkpt><trkpt lat="46.007344874958235" lon="11.236529581006627"><ele>524.0</ele><time>2026-04-12T14:25:16.999Z</time></trkpt><trkpt lat="46.00735073551294" lon="11.236430578829228"><ele>524.0</ele><time>2026-04-12T14:25:17.999Z</time></trkpt><trkpt lat="46.0072119013689" lon="11.236249565304707"><ele>528.0</ele><time>2026-04-12T14:25:19.999Z</time></trkpt><trkpt lat="46.00707298584737" lon="11.236256635671753"><ele>532.0</ele><time>2026-04-12T14:25:20.999Z</time></trkpt><trkpt lat="46.00691695582576" lon="11.236325185985176"><ele>536.0</ele><time>2026-04-12T14:25:21.999Z</time></trkpt><trkpt lat="46.00674624371836" lon="11.236411348108499"><ele>538.25</ele><time>2026-04-12T14:25:22.999Z</time></trkpt><trkpt lat="46.00661150706777" lon="11.236463914099508"><ele>540.5</ele><time>2026-04-12T14:25:23.999Z</time></trkpt><trkpt lat="46.00649119582235" lon="11.236463250897351"><ele>542.75</ele><time>2026-04-12T14:25:24.999Z</time></trkpt><trkpt lat="46.006383998565695" lon="11.23644764192784"><ele>545.0</ele><time>2026-04-12T14:25:25.999Z</time></trkpt><trkpt lat="46.00629928862143" lon="11.236371705471083"><ele>545.0</ele><time>2026-04-12T14:25:26.999Z</time></trkpt><trkpt lat="46.00625844953531" lon="11.236230435445329"><ele>545.0</ele><time>2026-04-12T14:25:27.999Z</time></trkpt><trkpt lat="46.00625531419995" lon="11.236071105979443"><ele>545.0</ele><time>2026-04-12T14:25:28.999Z</time></trkpt><trkpt lat="46.006298826789184" lon="11.235921117239856"><ele>545.0</ele><time>2026-04-12T14:25:29.999Z</time></trkpt><trkpt lat="46.00639090634253" lon="11.235782767454575"><ele>545.0</ele><time>2026-04-12T14:25:30.999Z</time></trkpt><trkpt lat="46.00656675693835" lon="11.235722166596004"><ele>545.0</ele><time>2026-04-12T14:25:31.999Z</time></trkpt><trkpt lat="46.00677388325931" lon="11.235585780160951"><ele>545.0</ele><time>2026-04-12T14:25:32.999Z</time></trkpt><trkpt lat="46.00702513659129" lon="11.235475307008757"><ele>548.0</ele><time>2026-04-12T14:25:33.999Z</time></trkpt><trkpt lat="46.00728223822196" lon="11.235314027896266"><ele>551.0</ele><time>2026-04-12T14:25:34.999Z</time></trkpt><trkpt lat="46.00753031545965" lon="11.235162900552382"><ele>551.0</ele><time>2026-04-12T14:25:35.999Z</time></trkpt><trkpt lat="46.007734795478875" lon="11.23505301973743"><ele>551.0</ele><time>2026-04-12T14:25:36.999Z</time></trkpt><trkpt lat="46.007914110021396" lon="11.234956877229362"><ele>551.0</ele><time>2026-04-12T14:25:37.999Z</time></trkpt><trkpt lat="46.008083781095664" lon="11.234859445905196"><ele>556.0</ele><time>2026-04-12T14:25:38.999Z</time></trkpt><trkpt lat="46.00823130588369" lon="11.2347728662119"><ele>561.0</ele><time>2026-04-12T14:25:39.999Z</time></trkpt><trkpt lat="46.00835551877125" lon="11.23470545218052"><ele>566.0</ele><time>2026-04-12T14:25:40.999Z</time></trkpt><trkpt lat="46.008462300369615" lon="11.234653077044307"><ele>571.0</ele><time>2026-04-12T14:25:41.999Z</time></trkpt><trkpt lat="46.00852955070007" lon="11.234614861496079"><ele>571.0</ele><time>2026-04-12T14:25:42.999Z</time></trkpt><trkpt lat="46.00861468558589" lon="11.234534224249883"><ele>571.0</ele><time>2026-04-12T14:25:44.999Z</time></trkpt><trkpt lat="46.00861996096136" lon="11.234435349931958"><ele>571.0</ele><time>2026-04-12T14:25:45.999Z</time></trkpt><trkpt lat="46.00862020142567" lon="11.23431786776034"><ele>571.0</ele><time>2026-04-12T14:25:46.999Z</time></trkpt><trkpt lat="46.00855162746007" lon="11.234209669149672"><ele>571.0</ele><time>2026-04-12T14:25:47.999Z</time></trkpt><trkpt lat="46.00841613693843" lon="11.234226714114659"><ele>572.25</ele><time>2026-04-12T14:25:48.999Z</time></trkpt><trkpt lat="46.008293870838884" lon="11.234280783511073"><ele>573.5</ele><time>2026-04-12T14:25:49.999Z</time></trkpt><trkpt lat="46.008158063258236" lon="11.234341399134207"><ele>574.75</ele><time>2026-04-12T14:25:50.999Z</time></trkpt><trkpt lat="46.00800528962247" lon="11.234370784005803"><ele>576.0</ele><time>2026-04-12T14:25:51.999Z</time></trkpt><trkpt lat="46.0078349863491" lon="11.234321035718162"><ele>576.0</ele><time>2026-04-12T14:25:52.999Z</time></trkpt><trkpt lat="46.00764343789875" lon="11.234274658609483"><ele>576.0</ele><time>2026-04-12T14:25:53.999Z</time></trkpt><trkpt lat="46.00743396781729" lon="11.234248078643015"><ele>576.0</ele><time>2026-04-12T14:25:54.999Z</time></trkpt><trkpt lat="46.007235919411364" lon="11.234201804937399"><ele>576.0</ele><time>2026-04-12T14:25:55.999Z</time></trkpt><trkpt lat="46.007071952837556" lon="11.234140571386664"><ele>576.0</ele><time>2026-04-12T14:25:56.998Z</time></trkpt><trkpt lat="46.006924975209856" lon="11.234130504751958"><ele>576.0</ele><time>2026-04-12T14:25:57.998Z</time></trkpt><trkpt lat="46.00679566639431" lon="11.234076835828581"><ele>576.0</ele><time>2026-04-12T14:25:58.998Z</time></trkpt><trkpt lat="46.00667036053744" lon="11.234070083838821"><ele>576.0</ele><time>2026-04-12T14:25:59.998Z</time></trkpt><trkpt lat="46.00654872029561" lon="11.234032469389174"><ele>576.0</ele><time>2026-04-12T14:26:00.998Z</time></trkpt><trkpt lat="46.00642976242517" lon="11.234003425325856"><ele>576.0</ele><time>2026-04-12T14:26:01.998Z</time></trkpt><trkpt lat="46.00631292842014" lon="11.233987486435014"><ele>578.0</ele><time>2026-04-12T14:26:02.998Z</time></trkpt><trkpt lat="46.00616833952228" lon="11.233966542136788"><ele>580.0</ele><time>2026-04-12T14:26:03.998Z</time></trkpt><trkpt lat="46.00597266402527" lon="11.23402311678452"><ele>582.0</ele><time>2026-04-12T14:26:04.998Z</time></trkpt><trkpt lat="46.005775182600495" lon="11.23412131423756"><ele>584.5</ele><time>2026-04-12T14:26:05.998Z</time></trkpt><trkpt lat="46.005603351121394" lon="11.234203642885978"><ele>587.0</ele><time>2026-04-12T14:26:06.998Z</time></trkpt><trkpt lat="46.00547928694004" lon="11.23426321067356"><ele>589.5</ele><time>2026-04-12T14:26:07.998Z</time></trkpt><trkpt lat="46.0054148942218" lon="11.234316500640462"><ele>592.0</ele><time>2026-04-12T14:26:08.998Z</time></trkpt><trkpt lat="46.005282783637185" lon="11.234371739339492"><ele>592.0</ele><time>2026-04-12T14:26:10.998Z</time></trkpt><trkpt lat="46.00517976049285" lon="11.234414749288243"><ele>592.0</ele><time>2026-04-12T14:26:11.998Z</time></trkpt><trkpt lat="46.005080485716135" lon="11.234420254330542"><ele>592.0</ele><time>2026-04-12T14:26:12.998Z</time></trkpt><trkpt lat="46.004985861377065" lon="11.234416475161598"><ele>592.0</ele><time>2026-04-12T14:26:13.998Z</time></trkpt><trkpt lat="46.00488336335529" lon="11.23439411086748"><ele>592.0</ele><time>2026-04-12T14:26:15Z</time></trkpt><trkpt lat="46.004786872773714" lon="11.234348919273632"><ele>593.25</ele><time>2026-04-12T14:26:16Z</time></trkpt><trkpt lat="46.00469118762847" lon="11.234281393502057"><ele>594.5</ele><time>2026-04-12T14:26:17Z</time></trkpt><trkpt lat="46.00460346818515" lon="11.23418766984385"><ele>595.75</ele><time>2026-04-12T14:26:18Z</time></trkpt><trkpt lat="46.00451486539876" lon="11.234075444615577"><ele>597.0</ele><time>2026-04-12T14:26:19Z</time></trkpt><trkpt lat="46.0044201079579" lon="11.233979144027652"><ele>598.5</ele><time>2026-04-12T14:26:20Z</time></trkpt><trkpt lat="46.00434191724723" lon="11.233863121133115"><ele>600.0</ele><time>2026-04-12T14:26:21Z</time></trkpt><trkpt lat="46.00425521813143" lon="11.233753138742665"><ele>601.5</ele><time>2026-04-12T14:26:22Z</time></trkpt><trkpt lat="46.004167654063956" lon="11.233628120614306"><ele>603.0</ele><time>2026-04-12T14:26:23Z</time></trkpt><trkpt lat="46.004062465301935" lon="11.233499605816139"><ele>603.25</ele><time>2026-04-12T14:26:24Z</time></trkpt><trkpt lat="46.00394882633303" lon="11.233380661771655"><ele>603.5</ele><time>2026-04-12T14:26:25Z</time></trkpt><trkpt lat="46.0038267540104" lon="11.233283138432752"><ele>603.75</ele><time>2026-04-12T14:26:26Z</time></trkpt><trkpt lat="46.00371008972762" lon="11.233209383670406"><ele>604.0</ele><time>2026-04-12T14:26:27Z</time></trkpt><trkpt lat="46.0036015355409" lon="11.23313042433816"><ele>606.5</ele><time>2026-04-12T14:26:28Z</time></trkpt><trkpt lat="46.00349202772297" lon="11.233049555391407"><ele>609.0</ele><time>2026-04-12T14:26:29Z</time></trkpt><trkpt lat="46.00338775795224" lon="11.23297411839075"><ele>611.5</ele><time>2026-04-12T14:26:30Z</time></trkpt><trkpt lat="46.00328875689578" lon="11.232911694319052"><ele>614.0</ele><time>2026-04-12T14:26:31Z</time></trkpt><trkpt lat="46.003192873595964" lon="11.232842196590266"><ele>614.0</ele><time>2026-04-12T14:26:32Z</time></trkpt><trkpt lat="46.00309927148997" lon="11.23277332835826"><ele>614.0</ele><time>2026-04-12T14:26:33Z</time></trkpt><trkpt lat="46.00299970912569" lon="11.23269968009353"><ele>614.0</ele><time>2026-04-12T14:26:34Z</time></trkpt><trkpt lat="46.002906897609726" lon="11.232616977101156"><ele>614.0</ele><time>2026-04-12T14:26:35Z</time></trkpt><trkpt lat="46.00281633350085" lon="11.232529938274327"><ele>614.0</ele><time>2026-04-12T14:26:36Z</time></trkpt><trkpt lat="46.002722458452574" lon="11.232405108795255"><ele>617.0</ele><time>2026-04-12T14:26:37Z</time></trkpt><trkpt lat="46.00263465058613" lon="11.232207060117943"><ele>620.0</ele><time>2026-04-12T14:26:38Z</time></trkpt><trkpt lat="46.00253301097786" lon="11.231969205816323"><ele>623.0</ele><time>2026-04-12T14:26:39Z</time></trkpt><trkpt lat="46.00242660464105" lon="11.231719088877087"><ele>624.3333333333333</ele><time>2026-04-12T14:26:40Z</time></trkpt><trkpt lat="46.002315883309294" lon="11.231462474308687"><ele>625.6666666666666</ele><time>2026-04-12T14:26:41Z</time></trkpt><trkpt lat="46.002204526255234" lon="11.231203795367419"><ele>627.0</ele><time>2026-04-12T14:26:42Z</time></trkpt><trkpt lat="46.002079750699934" lon="11.230953319185101"><ele>627.0</ele><time>2026-04-12T14:26:43Z</time></trkpt><trkpt lat="46.001976047976314" lon="11.23069253071359"><ele>627.0</ele><time>2026-04-12T14:26:44Z</time></trkpt><trkpt lat="46.001874909683536" lon="11.230455732252645"><ele>627.0</ele><time>2026-04-12T14:26:45Z</time></trkpt><trkpt lat="46.00179178494733" lon="11.230268996368189"><ele>628.75</ele><time>2026-04-12T14:26:46Z</time></trkpt><trkpt lat="46.00174867096906" lon="11.23008059394445"><ele>630.5</ele><time>2026-04-12T14:26:47Z</time></trkpt><trkpt lat="46.0017333176098" lon="11.229894841786265"><ele>632.25</ele><time>2026-04-12T14:26:48Z</time></trkpt><trkpt lat="46.001755778849855" lon="11.22969828872452"><ele>634.0</ele><time>2026-04-12T14:26:49Z</time></trkpt><trkpt lat="46.00181759379731" lon="11.229500456576757"><ele>637.0</ele><time>2026-04-12T14:26:50Z</time></trkpt><trkpt lat="46.00190815465667" lon="11.229322953886404"><ele>640.0</ele><time>2026-04-12T14:26:51Z</time></trkpt><trkpt lat="46.00200000638493" lon="11.229131758123206"><ele>643.0</ele><time>2026-04-12T14:26:52Z</time></trkpt><trkpt lat="46.00209530230709" lon="11.228961336423762"><ele>645.25</ele><time>2026-04-12T14:26:53Z</time></trkpt><trkpt lat="46.00216180608193" lon="11.22877721895591"><ele>647.5</ele><time>2026-04-12T14:26:54Z</time></trkpt><trkpt lat="46.00219635763698" lon="11.228577869930724"><ele>649.75</ele><time>2026-04-12T14:26:55Z</time></trkpt><trkpt lat="46.00220112185612" lon="11.228367266678616"><ele>652.0</ele><time>2026-04-12T14:26:56Z</time></trkpt><trkpt lat="46.002170524330296" lon="11.228153349183223"><ele>655.3333333333334</ele><time>2026-04-12T14:26:57Z</time></trkpt><trkpt lat="46.00210899112351" lon="11.227934102307849"><ele>658.6666666666666</ele><time>2026-04-12T14:26:58Z</time></trkpt><trkpt lat="46.00203365235717" lon="11.227689377105067"><ele>662.0</ele><time>2026-04-12T14:26:59Z</time></trkpt><trkpt lat="46.00197034373065" lon="11.227475028418219"><ele>663.25</ele><time>2026-04-12T14:27:00Z</time></trkpt><trkpt lat="46.00192099781749" lon="11.227285155331872"><ele>664.5</ele><time>2026-04-12T14:27:00.999Z</time></trkpt><trkpt lat="46.00186826645035" lon="11.227101839217575"><ele>665.75</ele><time>2026-04-12T14:27:01.999Z</time></trkpt><trkpt lat="46.00182107797423" lon="11.226934159400303"><ele>667.0</ele><time>2026-04-12T14:27:02.999Z</time></trkpt><trkpt lat="46.00177464334349" lon="11.226757545499353"><ele>667.0</ele><time>2026-04-12T14:27:03.999Z</time></trkpt><trkpt lat="46.00173004139399" lon="11.226593031844827"><ele>667.0</ele><time>2026-04-12T14:27:04.999Z</time></trkpt><trkpt lat="46.001683329106704" lon="11.226438334106595"><ele>667.0</ele><time>2026-04-12T14:27:05.999Z</time></trkpt><trkpt lat="46.0016390381232" lon="11.226270589514739"><ele>667.0</ele><time>2026-04-12T14:27:06.999Z</time></trkpt><trkpt lat="46.001593394108184" lon="11.226100257611881"><ele>665.5</ele><time>2026-04-12T14:27:07.999Z</time></trkpt><trkpt lat="46.001543914379674" lon="11.225928892886989"><ele>664.0</ele><time>2026-04-12T14:27:08.999Z</time></trkpt><trkpt lat="46.00149364861012" lon="11.225750532998546"><ele>662.5</ele><time>2026-04-12T14:27:09.999Z</time></trkpt><trkpt lat="46.001442985986905" lon="11.225569077727819"><ele>661.0</ele><time>2026-04-12T14:27:10.999Z</time></trkpt><trkpt lat="46.001397721907075" lon="11.2253889260925"><ele>661.0</ele><time>2026-04-12T14:27:11.999Z</time></trkpt><trkpt lat="46.00135506865621" lon="11.225201143403032"><ele>661.0</ele><time>2026-04-12T14:27:12.999Z</time></trkpt><trkpt lat="46.00132234587564" lon="11.225012479961554"><ele>661.0</ele><time>2026-04-12T14:27:13.999Z</time></trkpt><trkpt lat="46.00130759194657" lon="11.22480910347648"><ele>661.0</ele><time>2026-04-12T14:27:14.999Z</time></trkpt><trkpt lat="46.00130378341351" lon="11.22460400127997"><ele>662.0</ele><time>2026-04-12T14:27:15.999Z</time></trkpt><trkpt lat="46.00129988180972" lon="11.224395309862931"><ele>663.0</ele><time>2026-04-12T14:27:16.999Z</time></trkpt><trkpt lat="46.00129788255544" lon="11.224184981886815"><ele>664.0</ele><time>2026-04-12T14:27:17.999Z</time></trkpt><trkpt lat="46.00129513560078" lon="11.223976729885425"><ele>665.0</ele><time>2026-04-12T14:27:18.999Z</time></trkpt><trkpt lat="46.001287609571" lon="11.223771657561718"><ele>665.25</ele><time>2026-04-12T14:27:19.999Z</time></trkpt><trkpt lat="46.001268040218456" lon="11.223575405377131"><ele>665.5</ele><time>2026-04-12T14:27:20.999Z</time></trkpt><trkpt lat="46.001240917460315" lon="11.22337302987422"><ele>665.75</ele><time>2026-04-12T14:27:21.999Z</time></trkpt><trkpt lat="46.00120576538577" lon="11.223182409423547"><ele>666.0</ele><time>2026-04-12T14:27:22.999Z</time></trkpt><trkpt lat="46.00116928113588" lon="11.223004874003788"><ele>666.8</ele><time>2026-04-12T14:27:23.999Z</time></trkpt><trkpt lat="46.001133513859116" lon="11.222834910819559"><ele>667.5999999999999</ele><time>2026-04-12T14:27:24.999Z</time></trkpt><trkpt lat="46.00110265834766" lon="11.222680635643059"><ele>668.4</ele><time>2026-04-12T14:27:25.999Z</time></trkpt><trkpt lat="46.00107826039253" lon="11.222534527244989"><ele>669.2</ele><time>2026-04-12T14:27:26.999Z</time></trkpt><trkpt lat="46.00105565573818" lon="11.222391940639062"><ele>670.0</ele><time>2026-04-12T14:27:27.999Z</time></trkpt><trkpt lat="46.00102737467452" lon="11.222251626188982"><ele>670.2</ele><time>2026-04-12T14:27:28.999Z</time></trkpt><trkpt lat="46.00100138625789" lon="11.222114639478269"><ele>670.4</ele><time>2026-04-12T14:27:29.999Z</time></trkpt><trkpt lat="46.00097452018551" lon="11.221966846289556"><ele>670.5999999999999</ele><time>2026-04-12T14:27:30.999Z</time></trkpt><trkpt lat="46.00094230289878" lon="11.221811878761617"><ele>670.8</ele><time>2026-04-12T14:27:31.999Z</time></trkpt><trkpt lat="46.000910728855665" lon="11.221654706062289"><ele>671.0</ele><time>2026-04-12T14:27:32.999Z</time></trkpt><trkpt lat="46.00088046378292" lon="11.221494730512088"><ele>672.25</ele><time>2026-04-12T14:27:33.999Z</time></trkpt><trkpt lat="46.00085020213505" lon="11.22132876893198"><ele>673.5</ele><time>2026-04-12T14:27:34.999Z</time></trkpt><trkpt lat="46.00081625069676" lon="11.22116074508585"><ele>674.75</ele><time>2026-04-12T14:27:35.999Z</time></trkpt><trkpt lat="46.000784942532896" lon="11.22099032720377"><ele>676.0</ele><time>2026-04-12T14:27:36.999Z</time></trkpt><trkpt lat="46.000748192681925" lon="11.22081268563904"><ele>671.0</ele><time>2026-04-12T14:27:37.999Z</time></trkpt><trkpt lat="46.00071148614373" lon="11.220628294170965"><ele>666.0</ele><time>2026-04-12T14:27:38.999Z</time></trkpt><trkpt lat="46.00067915164259" lon="11.22044335829031"><ele>661.0</ele><time>2026-04-12T14:27:39.999Z</time></trkpt><trkpt lat="46.0006448863911" lon="11.220267659688531"><ele>656.0</ele><time>2026-04-12T14:27:40.999Z</time></trkpt><trkpt lat="46.00060966562575" lon="11.22009475179871"><ele>656.0</ele><time>2026-04-12T14:27:41.999Z</time></trkpt><trkpt lat="46.000576440331685" lon="11.21992425629789"><ele>656.0</ele><time>2026-04-12T14:27:42.999Z</time></trkpt><trkpt lat="46.00054360635005" lon="11.219747795299167"><ele>656.0</ele><time>2026-04-12T14:27:43.999Z</time></trkpt><trkpt lat="46.0005065000328" lon="11.219562738242349"><ele>656.0</ele><time>2026-04-12T14:27:44.999Z</time></trkpt><trkpt lat="46.00047248900161" lon="11.21936818698869"><ele>655.25</ele><time>2026-04-12T14:27:45.999Z</time></trkpt><trkpt lat="46.000438850570454" lon="11.219172928520749"><ele>654.5</ele><time>2026-04-12T14:27:46.999Z</time></trkpt><trkpt lat="46.000407588139694" lon="11.218986687251052"><ele>653.75</ele><time>2026-04-12T14:27:47.999Z</time></trkpt><trkpt lat="46.000378606252134" lon="11.21880237814876"><ele>653.0</ele><time>2026-04-12T14:27:48.999Z</time></trkpt><trkpt lat="46.00035643755315" lon="11.218602753395482"><ele>652.6666666666666</ele><time>2026-04-12T14:27:49.999Z</time></trkpt><trkpt lat="46.00033809186718" lon="11.218385948281997"><ele>652.3333333333334</ele><time>2026-04-12T14:27:50.999Z</time></trkpt><trkpt lat="46.000335311458194" lon="11.218159246369664"><ele>652.0</ele><time>2026-04-12T14:27:51.999Z</time></trkpt><trkpt lat="46.00034021097406" lon="11.217928441845695"><ele>651.5</ele><time>2026-04-12T14:27:52.999Z</time></trkpt><trkpt lat="46.00034972599847" lon="11.217714365585183"><ele>651.0</ele><time>2026-04-12T14:27:53.999Z</time></trkpt><trkpt lat="46.00036563584646" lon="11.217517945414942"><ele>650.5</ele><time>2026-04-12T14:27:54.999Z</time></trkpt><trkpt lat="46.00038311768283" lon="11.217332358202043"><ele>650.0</ele><time>2026-04-12T14:27:55.999Z</time></trkpt><trkpt lat="46.000404619216305" lon="11.217144009927594"><ele>650.0</ele><time>2026-04-12T14:27:56.999Z</time></trkpt><trkpt lat="46.00042685055946" lon="11.216952253893634"><ele>650.0</ele><time>2026-04-12T14:27:57.999Z</time></trkpt><trkpt lat="46.00045007275443" lon="11.216763452902804"><ele>650.0</ele><time>2026-04-12T14:27:58.999Z</time></trkpt><trkpt lat="46.000472538778254" lon="11.216579502498652"><ele>650.0</ele><time>2026-04-12T14:27:59.999Z</time></trkpt><trkpt lat="46.0004938172574" lon="11.216408075280855"><ele>649.25</ele><time>2026-04-12T14:28:00.999Z</time></trkpt><trkpt lat="46.000513889087934" lon="11.216237219162496"><ele>648.5</ele><time>2026-04-12T14:28:01.999Z</time></trkpt><trkpt lat="46.000537208653014" lon="11.216061311144792"><ele>647.75</ele><time>2026-04-12T14:28:02.999Z</time></trkpt><trkpt lat="46.00056122812713" lon="11.215881475421025"><ele>647.0</ele><time>2026-04-12T14:28:03.999Z</time></trkpt><trkpt lat="46.00058724745681" lon="11.215697111850062"><ele>645.75</ele><time>2026-04-12T14:28:04.998Z</time></trkpt><trkpt lat="46.00061196520806" lon="11.215512364744422"><ele>644.5</ele><time>2026-04-12T14:28:05.998Z</time></trkpt><trkpt lat="46.00063869707954" lon="11.215320300854545"><ele>643.25</ele><time>2026-04-12T14:28:06.998Z</time></trkpt><trkpt lat="46.00066425954432" lon="11.215109903074563"><ele>642.0</ele><time>2026-04-12T14:28:07.998Z</time></trkpt><trkpt lat="46.00069081329609" lon="11.214897208209864"><ele>642.5</ele><time>2026-04-12T14:28:08.998Z</time></trkpt><trkpt lat="46.00071836031769" lon="11.214684319213989"><ele>643.0</ele><time>2026-04-12T14:28:09.998Z</time></trkpt><trkpt lat="46.00074181408187" lon="11.214471242272968"><ele>643.5</ele><time>2026-04-12T14:28:10.998Z</time></trkpt><trkpt lat="46.00076585837333" lon="11.214265908988555"><ele>644.0</ele><time>2026-04-12T14:28:11.998Z</time></trkpt><trkpt lat="46.00079187354009" lon="11.214067728014836"><ele>644.0</ele><time>2026-04-12T14:28:12.998Z</time></trkpt><trkpt lat="46.00081885166467" lon="11.213855676980383"><ele>644.0</ele><time>2026-04-12T14:28:13.998Z</time></trkpt><trkpt lat="46.000847855072756" lon="11.213595245551817"><ele>644.0</ele><time>2026-04-12T14:28:14.998Z</time></trkpt><trkpt lat="46.00089903950095" lon="11.213311988626513"><ele>650.0</ele><time>2026-04-12T14:28:15.998Z</time></trkpt><trkpt lat="46.0009423518122" lon="11.212960200411386"><ele>656.0</ele><time>2026-04-12T14:28:16.998Z</time></trkpt><trkpt lat="46.0009676034036" lon="11.212609136651112"><ele>656.5</ele><time>2026-04-12T14:28:17.998Z</time></trkpt><trkpt lat="46.0009772422499" lon="11.212269698574035"><ele>657.0</ele><time>2026-04-12T14:28:18.998Z</time></trkpt><trkpt lat="46.00096744739469" lon="11.211929509598317"><ele>657.0</ele><time>2026-04-12T14:28:19.998Z</time></trkpt><trkpt lat="46.00093477668399" lon="11.21159268322491"><ele>657.0</ele><time>2026-04-12T14:28:21Z</time></trkpt><trkpt lat="46.00090785329653" lon="11.211255780044032"><ele>657.3333333333334</ele><time>2026-04-12T14:28:22Z</time></trkpt><trkpt lat="46.000876339861925" lon="11.210946718134549"><ele>657.6666666666667</ele><time>2026-04-12T14:28:23Z</time></trkpt><trkpt lat="46.00083733858347" lon="11.210632936336275"><ele>658.0</ele><time>2026-04-12T14:28:24Z</time></trkpt><trkpt lat="46.000805024452106" lon="11.210320757668601"><ele>657.6666666666667</ele><time>2026-04-12T14:28:25Z</time></trkpt><trkpt lat="46.00077277210375" lon="11.210007938189424"><ele>657.3333333333334</ele><time>2026-04-12T14:28:26Z</time></trkpt><trkpt lat="46.00073893446735" lon="11.20970061673752"><ele>657.0</ele><time>2026-04-12T14:28:27Z</time></trkpt><trkpt lat="46.00070530160556" lon="11.20939593575183"><ele>657.0</ele><time>2026-04-12T14:28:28Z</time></trkpt><trkpt lat="46.00067713272815" lon="11.209101472791408"><ele>657.0</ele><time>2026-04-12T14:28:29Z</time></trkpt><trkpt lat="46.000648392426776" lon="11.208808845155705"><ele>657.0</ele><time>2026-04-12T14:28:30Z</time></trkpt><trkpt lat="46.00061871454031" lon="11.208512658863626"><ele>657.6666666666666</ele><time>2026-04-12T14:28:31Z</time></trkpt><trkpt lat="46.000588246763826" lon="11.208226911333458"><ele>658.3333333333333</ele><time>2026-04-12T14:28:32Z</time></trkpt><trkpt lat="46.000559318314274" lon="11.207946551274675"><ele>659.0</ele><time>2026-04-12T14:28:33Z</time></trkpt><trkpt lat="46.000527720305364" lon="11.207665830944798"><ele>660.6666666666666</ele><time>2026-04-12T14:28:34Z</time></trkpt><trkpt lat="46.0004997509827" lon="11.207380072496854"><ele>662.3333333333334</ele><time>2026-04-12T14:28:35Z</time></trkpt><trkpt lat="46.00046953136228" lon="11.207114841185469"><ele>664.0</ele><time>2026-04-12T14:28:36Z</time></trkpt><trkpt lat="46.00044291074724" lon="11.206873871270899"><ele>665.0</ele><time>2026-04-12T14:28:37Z</time></trkpt><trkpt lat="46.000409553393666" lon="11.206645386301876"><ele>666.0</ele><time>2026-04-12T14:28:38Z</time></trkpt><trkpt lat="46.000380706895506" lon="11.20640120865065"><ele>667.0</ele><time>2026-04-12T14:28:39Z</time></trkpt><trkpt lat="46.000351464938184" lon="11.206143411310098"><ele>668.0</ele><time>2026-04-12T14:28:40Z</time></trkpt><trkpt lat="46.00031097648347" lon="11.205876948198267"><ele>669.0</ele><time>2026-04-12T14:28:41Z</time></trkpt><trkpt lat="46.00028414736174" lon="11.205604778326288"><ele>670.0</ele><time>2026-04-12T14:28:42Z</time></trkpt><trkpt lat="46.00026609742631" lon="11.20533155003937"><ele>670.0</ele><time>2026-04-12T14:28:43Z</time></trkpt><trkpt lat="46.00024395970468" lon="11.205072141686598"><ele>670.0</ele><time>2026-04-12T14:28:44Z</time></trkpt><trkpt lat="46.00021738244519" lon="11.204837942593025"><ele>670.0</ele><time>2026-04-12T14:28:45Z</time></trkpt><trkpt lat="46.00019714960806" lon="11.204621346091784"><ele>671.0</ele><time>2026-04-12T14:28:46Z</time></trkpt><trkpt lat="46.00017964680418" lon="11.204424287219844"><ele>672.0</ele><time>2026-04-12T14:28:47Z</time></trkpt><trkpt lat="46.00016764563921" lon="11.204250083471882"><ele>673.0</ele><time>2026-04-12T14:28:48Z</time></trkpt><trkpt lat="46.00016514313188" lon="11.20408211029983"><ele>674.0</ele><time>2026-04-12T14:28:49Z</time></trkpt><trkpt lat="46.0001559404689" lon="11.203913657768878"><ele>675.25</ele><time>2026-04-12T14:28:50Z</time></trkpt><trkpt lat="46.00020880547453" lon="11.20372217006069"><ele>676.5</ele><time>2026-04-12T14:28:51Z</time></trkpt><trkpt lat="46.00022339129481" lon="11.203516123219893"><ele>677.75</ele><time>2026-04-12T14:28:52Z</time></trkpt><trkpt lat="46.0002464692496" lon="11.203294119865058"><ele>679.0</ele><time>2026-04-12T14:28:53Z</time></trkpt><trkpt lat="46.00030409922325" lon="11.203058705385404"><ele>680.0</ele><time>2026-04-12T14:28:54Z</time></trkpt><trkpt lat="46.000388812273634" lon="11.202798785236386"><ele>681.0</ele><time>2026-04-12T14:28:55Z</time></trkpt><trkpt lat="46.000492967381874" lon="11.202537102520424"><ele>682.0</ele><time>2026-04-12T14:28:56Z</time></trkpt><trkpt lat="46.000604537274405" lon="11.202291945845456"><ele>682.3333333333334</ele><time>2026-04-12T14:28:57Z</time></trkpt><trkpt lat="46.00071453209549" lon="11.2020702119296"><ele>682.6666666666666</ele><time>2026-04-12T14:28:58Z</time></trkpt><trkpt lat="46.0008158531815" lon="11.201855825272748"><ele>683.0</ele><time>2026-04-12T14:28:59Z</time></trkpt><trkpt lat="46.00091181066796" lon="11.20163616254271"><ele>684.6666666666666</ele><time>2026-04-12T14:29:00Z</time></trkpt><trkpt lat="46.001008164036136" lon="11.201415731494551"><ele>686.3333333333334</ele><time>2026-04-12T14:29:01Z</time></trkpt><trkpt lat="46.00110139557272" lon="11.20123204147698"><ele>688.0</ele><time>2026-04-12T14:29:02Z</time></trkpt><trkpt lat="46.00120084258219" lon="11.201068705264818"><ele>688.0</ele><time>2026-04-12T14:29:03Z</time></trkpt><trkpt lat="46.00131499323518" lon="11.20091235170342"><ele>688.0</ele><time>2026-04-12T14:29:04Z</time></trkpt><trkpt lat="46.001430742425846" lon="11.20077546018386"><ele>688.0</ele><time>2026-04-12T14:29:05Z</time></trkpt><trkpt lat="46.00155595078755" lon="11.200657392180013"><ele>690.0</ele><time>2026-04-12T14:29:05.999Z</time></trkpt><trkpt lat="46.00168119603969" lon="11.200548030735211"><ele>692.0</ele><time>2026-04-12T14:29:06.999Z</time></trkpt><trkpt lat="46.001797966240126" lon="11.200441725109965"><ele>694.0</ele><time>2026-04-12T14:29:07.999Z</time></trkpt><trkpt lat="46.001914602894914" lon="11.20033911857635"><ele>696.0</ele><time>2026-04-12T14:29:08.999Z</time></trkpt><trkpt lat="46.002045005980946" lon="11.200241839224438"><ele>696.0</ele><time>2026-04-12T14:29:09.999Z</time></trkpt><trkpt lat="46.00217953493843" lon="11.200134201354166"><ele>696.0</ele><time>2026-04-12T14:29:10.999Z</time></trkpt><trkpt lat="46.0023055417182" lon="11.200017639372422"><ele>696.0</ele><time>2026-04-12T14:29:11.999Z</time></trkpt><trkpt lat="46.002421171188594" lon="11.199871335084687"><ele>697.75</ele><time>2026-04-12T14:29:12.999Z</time></trkpt><trkpt lat="46.002525327620205" lon="11.199723259957102"><ele>699.5</ele><time>2026-04-12T14:29:13.999Z</time></trkpt><trkpt lat="46.002618768317205" lon="11.199566028323579"><ele>701.25</ele><time>2026-04-12T14:29:14.999Z</time></trkpt><trkpt lat="46.002696325631234" lon="11.199403790984746"><ele>703.0</ele><time>2026-04-12T14:29:15.999Z</time></trkpt><trkpt lat="46.0027597119239" lon="11.199212755764867"><ele>703.0</ele><time>2026-04-12T14:29:16.999Z</time></trkpt><trkpt lat="46.00280314870843" lon="11.199015408915024"><ele>703.0</ele><time>2026-04-12T14:29:17.999Z</time></trkpt><trkpt lat="46.00283224678036" lon="11.198825019304254"><ele>703.0</ele><time>2026-04-12T14:29:18.999Z</time></trkpt><trkpt lat="46.00286372460506" lon="11.198632790375312"><ele>703.0</ele><time>2026-04-12T14:29:19.999Z</time></trkpt><trkpt lat="46.002899473467686" lon="11.198438242184325"><ele>703.5</ele><time>2026-04-12T14:29:20.999Z</time></trkpt><trkpt lat="46.0029328995635" lon="11.19824493999642"><ele>704.0</ele><time>2026-04-12T14:29:21.999Z</time></trkpt><trkpt lat="46.002974221439864" lon="11.19805430839488"><ele>704.5</ele><time>2026-04-12T14:29:22.999Z</time></trkpt><trkpt lat="46.003033332735605" lon="11.19787178530679"><ele>705.0</ele><time>2026-04-12T14:29:23.999Z</time></trkpt><trkpt lat="46.003107011912206" lon="11.197689638218954"><ele>705.0</ele><time>2026-04-12T14:29:24.999Z</time></trkpt><trkpt lat="46.00319990818865" lon="11.197514771802963"><ele>705.0</ele><time>2026-04-12T14:29:25.999Z</time></trkpt><trkpt lat="46.00329491883248" lon="11.19733878500501"><ele>705.0</ele><time>2026-04-12T14:29:26.999Z</time></trkpt><trkpt lat="46.00338283491015" lon="11.197167778073222"><ele>706.0</ele><time>2026-04-12T14:29:27.999Z</time></trkpt><trkpt lat="46.00346252330789" lon="11.197007387851112"><ele>707.0</ele><time>2026-04-12T14:29:28.999Z</time></trkpt><trkpt lat="46.00354261378554" lon="11.196838045015312"><ele>708.0</ele><time>2026-04-12T14:29:29.999Z</time></trkpt><trkpt lat="46.0036247319749" lon="11.19667097282963"><ele>709.0</ele><time>2026-04-12T14:29:30.999Z</time></trkpt><trkpt lat="46.0037148239135" lon="11.196516086670133"><ele>708.0</ele><time>2026-04-12T14:29:31.999Z</time></trkpt><trkpt lat="46.00381236118286" lon="11.196353251684886"><ele>707.0</ele><time>2026-04-12T14:29:32.999Z</time></trkpt><trkpt lat="46.00391960556216" lon="11.196208593740762"><ele>706.0</ele><time>2026-04-12T14:29:33.999Z</time></trkpt><trkpt lat="46.00401499419129" lon="11.19605254908333"><ele>705.0</ele><time>2026-04-12T14:29:34.999Z</time></trkpt><trkpt lat="46.00410365077498" lon="11.195905325021533"><ele>706.5</ele><time>2026-04-12T14:29:35.999Z</time></trkpt><trkpt lat="46.004196176887056" lon="11.195756837924556"><ele>708.0</ele><time>2026-04-12T14:29:36.999Z</time></trkpt><trkpt lat="46.0042896306277" lon="11.195603979569878"><ele>709.5</ele><time>2026-04-12T14:29:37.999Z</time></trkpt><trkpt lat="46.004382402110636" lon="11.195452445533748"><ele>711.0</ele><time>2026-04-12T14:29:38.999Z</time></trkpt><trkpt lat="46.00447742537488" lon="11.195299808215909"><ele>711.0</ele><time>2026-04-12T14:29:39.999Z</time></trkpt><trkpt lat="46.00457148877362" lon="11.19514836545522"><ele>711.0</ele><time>2026-04-12T14:29:40.999Z</time></trkpt><trkpt lat="46.00466763783584" lon="11.194998664680925"><ele>711.0</ele><time>2026-04-12T14:29:41.999Z</time></trkpt><trkpt lat="46.00476272817842" lon="11.194845154720666"><ele>711.0</ele><time>2026-04-12T14:29:42.999Z</time></trkpt><trkpt lat="46.004856341470706" lon="11.194697896722984"><ele>710.0</ele><time>2026-04-12T14:29:43.999Z</time></trkpt><trkpt lat="46.00494814939235" lon="11.194560834270797"><ele>709.0</ele><time>2026-04-12T14:29:44.999Z</time></trkpt><trkpt lat="46.005035352535025" lon="11.194418742249617"><ele>708.0</ele><time>2026-04-12T14:29:45.999Z</time></trkpt><trkpt lat="46.0051260812146" lon="11.194274273339875"><ele>707.0</ele><time>2026-04-12T14:29:46.999Z</time></trkpt><trkpt lat="46.00521558400395" lon="11.194125817475333"><ele>708.0</ele><time>2026-04-12T14:29:47.999Z</time></trkpt><trkpt lat="46.00530843946842" lon="11.19397796234417"><ele>709.0</ele><time>2026-04-12T14:29:48.999Z</time></trkpt><trkpt lat="46.00540170276119" lon="11.19382547763247"><ele>710.0</ele><time>2026-04-12T14:29:49.999Z</time></trkpt><trkpt lat="46.005491440181764" lon="11.193668493479521"><ele>711.0</ele><time>2026-04-12T14:29:50.999Z</time></trkpt><trkpt lat="46.005567910638725" lon="11.193493940067391"><ele>711.0</ele><time>2026-04-12T14:29:51.999Z</time></trkpt><trkpt lat="46.005638569078286" lon="11.193303265286936"><ele>711.0</ele><time>2026-04-12T14:29:52.999Z</time></trkpt><trkpt lat="46.00569298962994" lon="11.193100369922487"><ele>711.0</ele><time>2026-04-12T14:29:53.999Z</time></trkpt><trkpt lat="46.00574078354652" lon="11.192897190130482"><ele>711.25</ele><time>2026-04-12T14:29:54.999Z</time></trkpt><trkpt lat="46.005787102257294" lon="11.192705689236863"><ele>711.5</ele><time>2026-04-12T14:29:55.999Z</time></trkpt><trkpt lat="46.00583279635368" lon="11.192512855408669"><ele>711.75</ele><time>2026-04-12T14:29:56.999Z</time></trkpt><trkpt lat="46.005865560785296" lon="11.192302048362265"><ele>712.0</ele><time>2026-04-12T14:29:57.999Z</time></trkpt><trkpt lat="46.005880062770636" lon="11.192079726492276"><ele>712.0</ele><time>2026-04-12T14:29:58.999Z</time></trkpt><trkpt lat="46.00589670115611" lon="11.191850480084247"><ele>712.0</ele><time>2026-04-12T14:29:59.999Z</time></trkpt><trkpt lat="46.00591854495459" lon="11.191629620889143"><ele>712.0</ele><time>2026-04-12T14:30:00.999Z</time></trkpt><trkpt lat="46.00593784062035" lon="11.191417370565675"><ele>711.0</ele><time>2026-04-12T14:30:01.999Z</time></trkpt><trkpt lat="46.00595346018612" lon="11.191210424193734"><ele>710.0</ele><time>2026-04-12T14:30:02.999Z</time></trkpt><trkpt lat="46.00595763913242" lon="11.190996108455366"><ele>709.0</ele><time>2026-04-12T14:30:03.999Z</time></trkpt><trkpt lat="46.005949613757295" lon="11.190766917086906"><ele>708.3333333333334</ele><time>2026-04-12T14:30:04.999Z</time></trkpt><trkpt lat="46.00593892367397" lon="11.190529744649012"><ele>707.6666666666666</ele><time>2026-04-12T14:30:05.999Z</time></trkpt><trkpt lat="46.0059312991918" lon="11.1902869265082"><ele>707.0</ele><time>2026-04-12T14:30:06.999Z</time></trkpt><trkpt lat="46.005925977708515" lon="11.19005500473824"><ele>706.5</ele><time>2026-04-12T14:30:07.999Z</time></trkpt><trkpt lat="46.00593231612691" lon="11.189832153572064"><ele>706.0</ele><time>2026-04-12T14:30:08.998Z</time></trkpt><trkpt lat="46.005939931283145" lon="11.189622904374714"><ele>705.5</ele><time>2026-04-12T14:30:09.998Z</time></trkpt><trkpt lat="46.005940621834434" lon="11.189420470237243"><ele>705.0</ele><time>2026-04-12T14:30:10.998Z</time></trkpt><trkpt lat="46.005928253574" lon="11.18921605291723"><ele>706.0</ele><time>2026-04-12T14:30:11.998Z</time></trkpt><trkpt lat="46.005888124560016" lon="11.18900591563729"><ele>707.0</ele><time>2026-04-12T14:30:12.998Z</time></trkpt><trkpt lat="46.00583612990496" lon="11.188792629451992"><ele>708.0</ele><time>2026-04-12T14:30:13.998Z</time></trkpt><trkpt lat="46.00578319145044" lon="11.188592246815599"><ele>703.75</ele><time>2026-04-12T14:30:14.998Z</time></trkpt><trkpt lat="46.005738406423696" lon="11.188391382330929"><ele>699.5</ele><time>2026-04-12T14:30:15.998Z</time></trkpt><trkpt lat="46.00569050161901" lon="11.188191097637942"><ele>695.25</ele><time>2026-04-12T14:30:16.998Z</time></trkpt><trkpt lat="46.00564089621701" lon="11.18798836570922"><ele>691.0</ele><time>2026-04-12T14:30:17.998Z</time></trkpt><trkpt lat="46.005586713271015" lon="11.187782323183475"><ele>691.0</ele><time>2026-04-12T14:30:18.998Z</time></trkpt><trkpt lat="46.00552354773647" lon="11.18758416021282"><ele>691.0</ele><time>2026-04-12T14:30:19.998Z</time></trkpt><trkpt lat="46.005455012334586" lon="11.18737867435019"><ele>691.0</ele><time>2026-04-12T14:30:20.998Z</time></trkpt><trkpt lat="46.00539370593812" lon="11.187143558930824"><ele>691.0</ele><time>2026-04-12T14:30:21.998Z</time></trkpt><trkpt lat="46.005352751086335" lon="11.186883032503037"><ele>691.0</ele><time>2026-04-12T14:30:22.998Z</time></trkpt><trkpt lat="46.005327717124715" lon="11.18660590483983"><ele>691.0</ele><time>2026-04-12T14:30:23.998Z</time></trkpt><trkpt lat="46.00530622027149" lon="11.186316107142424"><ele>691.0</ele><time>2026-04-12T14:30:24.998Z</time></trkpt><trkpt lat="46.0052894800506" lon="11.186023660314914"><ele>691.0</ele><time>2026-04-12T14:30:25.998Z</time></trkpt><trkpt lat="46.00528015561916" lon="11.185757533033163"><ele>691.0</ele><time>2026-04-12T14:30:27Z</time></trkpt><trkpt lat="46.005293682822476" lon="11.185505312292582"><ele>691.25</ele><time>2026-04-12T14:30:28Z</time></trkpt><trkpt lat="46.00531665511087" lon="11.185281242672907"><ele>691.5</ele><time>2026-04-12T14:30:29Z</time></trkpt><trkpt lat="46.00532477822353" lon="11.185073097467933"><ele>691.75</ele><time>2026-04-12T14:30:30Z</time></trkpt><trkpt lat="46.00529559174123" lon="11.18487334447863"><ele>692.0</ele><time>2026-04-12T14:30:31Z</time></trkpt><trkpt lat="46.00523101932412" lon="11.18467590420135"><ele>692.6666666666666</ele><time>2026-04-12T14:30:32Z</time></trkpt><trkpt lat="46.005140709950425" lon="11.184473863874237"><ele>693.3333333333334</ele><time>2026-04-12T14:30:33Z</time></trkpt><trkpt lat="46.005044579098296" lon="11.184258547207897"><ele>694.0</ele><time>2026-04-12T14:30:34Z</time></trkpt><trkpt lat="46.00497935286295" lon="11.184024242719214"><ele>688.3333333333334</ele><time>2026-04-12T14:30:35Z</time></trkpt><trkpt lat="46.00494548140031" lon="11.18376818122007"><ele>682.6666666666666</ele><time>2026-04-12T14:30:36Z</time></trkpt><trkpt lat="46.00493551819605" lon="11.183499582522833"><ele>677.0</ele><time>2026-04-12T14:30:37Z</time></trkpt><trkpt lat="46.0049421012629" lon="11.18322004496591"><ele>676.6666666666666</ele><time>2026-04-12T14:30:38Z</time></trkpt><trkpt lat="46.00494143963442" lon="11.18296343355992"><ele>676.3333333333334</ele><time>2026-04-12T14:30:39Z</time></trkpt><trkpt lat="46.00494458024663" lon="11.182694949160329"><ele>676.0</ele><time>2026-04-12T14:30:40Z</time></trkpt><trkpt lat="46.00495784291702" lon="11.18241430192572"><ele>677.3333333333334</ele><time>2026-04-12T14:30:41Z</time></trkpt><trkpt lat="46.00499870970314" lon="11.182122127548345"><ele>678.6666666666666</ele><time>2026-04-12T14:30:42Z</time></trkpt><trkpt lat="46.00505118211052" lon="11.181831328557736"><ele>680.0</ele><time>2026-04-12T14:30:43Z</time></trkpt><trkpt lat="46.00510219762178" lon="11.18156473413616"><ele>680.0</ele><time>2026-04-12T14:30:44Z</time></trkpt><trkpt lat="46.00514009582419" lon="11.181307495399743"><ele>680.0</ele><time>2026-04-12T14:30:45Z</time></trkpt><trkpt lat="46.00514543721528" lon="11.181055116727961"><ele>680.0</ele><time>2026-04-12T14:30:46Z</time></trkpt><trkpt lat="46.00511433348154" lon="11.180798767793554"><ele>677.6666666666666</ele><time>2026-04-12T14:30:47Z</time></trkpt><trkpt lat="46.005068018247904" lon="11.180525641775134"><ele>675.3333333333334</ele><time>2026-04-12T14:30:48Z</time></trkpt><trkpt lat="46.005051036141886" lon="11.180266027639295"><ele>673.0</ele><time>2026-04-12T14:30:49Z</time></trkpt><trkpt lat="46.00506996551583" lon="11.180012953417659"><ele>670.6666666666667</ele><time>2026-04-12T14:30:50Z</time></trkpt><trkpt lat="46.00511094042715" lon="11.179743642505027"><ele>668.3333333333334</ele><time>2026-04-12T14:30:51Z</time></trkpt><trkpt lat="46.00516348869709" lon="11.179465302915975"><ele>666.0</ele><time>2026-04-12T14:30:52Z</time></trkpt><trkpt lat="46.00522390197131" lon="11.179177745363129"><ele>664.3333333333334</ele><time>2026-04-12T14:30:53Z</time></trkpt><trkpt lat="46.005270824198284" lon="11.178881293709813"><ele>662.6666666666667</ele><time>2026-04-12T14:30:54Z</time></trkpt><trkpt lat="46.00531733356356" lon="11.178578679392222"><ele>661.0</ele><time>2026-04-12T14:30:55Z</time></trkpt><trkpt lat="46.00536600236934" lon="11.178280166213131"><ele>658.3333333333334</ele><time>2026-04-12T14:30:56Z</time></trkpt><trkpt lat="46.00543110322999" lon="11.177999902820211"><ele>655.6666666666666</ele><time>2026-04-12T14:30:57Z</time></trkpt><trkpt lat="46.00551021498599" lon="11.17772812888708"><ele>653.0</ele><time>2026-04-12T14:30:58Z</time></trkpt><trkpt lat="46.005577014712955" lon="11.177438109142306"><ele>651.3333333333333</ele><time>2026-04-12T14:30:59Z</time></trkpt><trkpt lat="46.00563303006157" lon="11.177145957258396"><ele>649.6666666666666</ele><time>2026-04-12T14:31:00Z</time></trkpt><trkpt lat="46.00568229922414" lon="11.176870264717524"><ele>648.0</ele><time>2026-04-12T14:31:01Z</time></trkpt><trkpt lat="46.00572567493626" lon="11.17661073819458"><ele>647.3333333333334</ele><time>2026-04-12T14:31:02Z</time></trkpt><trkpt lat="46.00575516963822" lon="11.176368684003975"><ele>646.6666666666667</ele><time>2026-04-12T14:31:03Z</time></trkpt><trkpt lat="46.0057792464937" lon="11.176137709587582"><ele>646.0</ele><time>2026-04-12T14:31:04Z</time></trkpt><trkpt lat="46.005794103690015" lon="11.175912891878639"><ele>646.0</ele><time>2026-04-12T14:31:05Z</time></trkpt><trkpt lat="46.00579671092541" lon="11.175697051017066"><ele>646.0</ele><time>2026-04-12T14:31:06Z</time></trkpt><trkpt lat="46.00578865335481" lon="11.17546824102721"><ele>646.0</ele><time>2026-04-12T14:31:07Z</time></trkpt><trkpt lat="46.005783375952475" lon="11.17522953279572"><ele>645.0</ele><time>2026-04-12T14:31:08Z</time></trkpt><trkpt lat="46.005781261601555" lon="11.17499292439827"><ele>644.0</ele><time>2026-04-12T14:31:09Z</time></trkpt><trkpt lat="46.00578037927472" lon="11.17475382799421"><ele>643.0</ele><time>2026-04-12T14:31:10Z</time></trkpt><trkpt lat="46.0057923132442" lon="11.174517092123637"><ele>641.0</ele><time>2026-04-12T14:31:11Z</time></trkpt><trkpt lat="46.00581865829794" lon="11.174290976930553"><ele>639.0</ele><time>2026-04-12T14:31:12Z</time></trkpt><trkpt lat="46.00586495631476" lon="11.174083171947196"><ele>637.0</ele><time>2026-04-12T14:31:12.999Z</time></trkpt><trkpt lat="46.00592006562742" lon="11.173869103895612"><ele>643.6666666666667</ele><time>2026-04-12T14:31:13.999Z</time></trkpt><trkpt lat="46.005974757554185" lon="11.17364944249197"><ele>650.3333333333334</ele><time>2026-04-12T14:31:14.999Z</time></trkpt><trkpt lat="46.00603274034811" lon="11.173426363678152"><ele>657.0</ele><time>2026-04-12T14:31:15.999Z</time></trkpt><trkpt lat="46.00608872058537" lon="11.173200940652324"><ele>656.3333333333334</ele><time>2026-04-12T14:31:16.999Z</time></trkpt><trkpt lat="46.00614665593307" lon="11.172978134008693"><ele>655.6666666666667</ele><time>2026-04-12T14:31:17.999Z</time></trkpt><trkpt lat="46.00620568632673" lon="11.17276089827579"><ele>655.0</ele><time>2026-04-12T14:31:18.999Z</time></trkpt><trkpt lat="46.00626322111982" lon="11.172546788134188"><ele>653.0</ele><time>2026-04-12T14:31:19.999Z</time></trkpt><trkpt lat="46.00632102928259" lon="11.172348000653498"><ele>651.0</ele><time>2026-04-12T14:31:20.999Z</time></trkpt><trkpt lat="46.006374263233695" lon="11.17215534793792"><ele>649.0</ele><time>2026-04-12T14:31:21.999Z</time></trkpt><trkpt lat="46.006426043201394" lon="11.171963490216726"><ele>647.0</ele><time>2026-04-12T14:31:22.999Z</time></trkpt><trkpt lat="46.00647841842951" lon="11.17177646616642"><ele>647.0</ele><time>2026-04-12T14:31:23.999Z</time></trkpt><trkpt lat="46.00651519098648" lon="11.171587644958798"><ele>647.0</ele><time>2026-04-12T14:31:24.999Z</time></trkpt><trkpt lat="46.00653416472285" lon="11.171369476088838"><ele>647.0</ele><time>2026-04-12T14:31:25.999Z</time></trkpt><trkpt lat="46.00654935301917" lon="11.171122401242842"><ele>644.3333333333333</ele><time>2026-04-12T14:31:26.999Z</time></trkpt><trkpt lat="46.00656671386597" lon="11.170858240712857"><ele>641.6666666666666</ele><time>2026-04-12T14:31:27.999Z</time></trkpt><trkpt lat="46.006580878843415" lon="11.170585323074564"><ele>639.0</ele><time>2026-04-12T14:31:28.999Z</time></trkpt><trkpt lat="46.0065932705351" lon="11.170308863380718"><ele>637.3333333333334</ele><time>2026-04-12T14:31:29.999Z</time></trkpt><trkpt lat="46.00661003906957" lon="11.1700345744955"><ele>635.6666666666667</ele><time>2026-04-12T14:31:30.999Z</time></trkpt><trkpt lat="46.006625636105085" lon="11.169765346893776"><ele>634.0</ele><time>2026-04-12T14:31:31.999Z</time></trkpt><trkpt lat="46.00663607596493" lon="11.169511319443831"><ele>635.6666666666667</ele><time>2026-04-12T14:31:32.999Z</time></trkpt><trkpt lat="46.00664753772829" lon="11.16926662352981"><ele>637.3333333333334</ele><time>2026-04-12T14:31:33.999Z</time></trkpt><trkpt lat="46.00666576136292" lon="11.169012237526069"><ele>639.0</ele><time>2026-04-12T14:31:34.999Z</time></trkpt><trkpt lat="46.00669838147635" lon="11.168750517039681"><ele>639.0</ele><time>2026-04-12T14:31:35.999Z</time></trkpt><trkpt lat="46.00673903324822" lon="11.16847379087466"><ele>639.0</ele><time>2026-04-12T14:31:36.999Z</time></trkpt><trkpt lat="46.00678086433711" lon="11.168197648209746"><ele>639.0</ele><time>2026-04-12T14:31:37.999Z</time></trkpt><trkpt lat="46.00682185199936" lon="11.167932790164706"><ele>637.3333333333334</ele><time>2026-04-12T14:31:38.999Z</time></trkpt><trkpt lat="46.00686138185618" lon="11.167677585634461"><ele>635.6666666666667</ele><time>2026-04-12T14:31:39.999Z</time></trkpt><trkpt lat="46.006892684383374" lon="11.16743436389402"><ele>634.0</ele><time>2026-04-12T14:31:40.999Z</time></trkpt><trkpt lat="46.00689730659556" lon="11.167204578081359"><ele>633.0</ele><time>2026-04-12T14:31:41.999Z</time></trkpt><trkpt lat="46.006850312818855" lon="11.166994808908054"><ele>632.0</ele><time>2026-04-12T14:31:42.999Z</time></trkpt><trkpt lat="46.0067692671683" lon="11.16679660956672"><ele>631.0</ele><time>2026-04-12T14:31:43.999Z</time></trkpt><trkpt lat="46.006660403214994" lon="11.166607888719698"><ele>624.6666666666667</ele><time>2026-04-12T14:31:44.999Z</time></trkpt><trkpt lat="46.00656508662823" lon="11.166429270472364"><ele>618.3333333333334</ele><time>2026-04-12T14:31:45.999Z</time></trkpt><trkpt lat="46.00648102100943" lon="11.166250552296281"><ele>612.0</ele><time>2026-04-12T14:31:46.999Z</time></trkpt><trkpt lat="46.00639938794702" lon="11.166073252193708"><ele>612.0</ele><time>2026-04-12T14:31:47.999Z</time></trkpt><trkpt lat="46.00633912428637" lon="11.165903674313407"><ele>612.0</ele><time>2026-04-12T14:31:48.999Z</time></trkpt><trkpt lat="46.00630068373815" lon="11.165704689133946"><ele>612.0</ele><time>2026-04-12T14:31:49.999Z</time></trkpt><trkpt lat="46.00629276146727" lon="11.165493028748864"><ele>612.0</ele><time>2026-04-12T14:31:50.999Z</time></trkpt><trkpt lat="46.00630457260126" lon="11.16526092753367"><ele>610.6666666666666</ele><time>2026-04-12T14:31:51.999Z</time></trkpt><trkpt lat="46.006317252357505" lon="11.165025324081718"><ele>609.3333333333333</ele><time>2026-04-12T14:31:52.999Z</time></trkpt><trkpt lat="46.00632990362317" lon="11.164799680400446"><ele>608.0</ele><time>2026-04-12T14:31:53.999Z</time></trkpt><trkpt lat="46.00634289507915" lon="11.164575211507268"><ele>606.6666666666666</ele><time>2026-04-12T14:31:54.999Z</time></trkpt><trkpt lat="46.00635072942283" lon="11.16435519248004"><ele>605.3333333333334</ele><time>2026-04-12T14:31:55.999Z</time></trkpt><trkpt lat="46.00635527357886" lon="11.164139489080148"><ele>604.0</ele><time>2026-04-12T14:31:56.999Z</time></trkpt><trkpt lat="46.00636707502741" lon="11.163922662474965"><ele>602.25</ele><time>2026-04-12T14:31:57.999Z</time></trkpt><trkpt lat="46.00637748038502" lon="11.163708024732818"><ele>600.5</ele><time>2026-04-12T14:31:58.999Z</time></trkpt><trkpt lat="46.006385836022254" lon="11.163496271287242"><ele>598.75</ele><time>2026-04-12T14:31:59.999Z</time></trkpt><trkpt lat="46.006396261058754" lon="11.163287834530156"><ele>597.0</ele><time>2026-04-12T14:32:00.999Z</time></trkpt><trkpt lat="46.0064036777059" lon="11.163076970843045"><ele>593.6666666666666</ele><time>2026-04-12T14:32:01.999Z</time></trkpt><trkpt lat="46.00641068139091" lon="11.162858270306227"><ele>590.3333333333333</ele><time>2026-04-12T14:32:02.999Z</time></trkpt><trkpt lat="46.006418925357956" lon="11.16263493678967"><ele>587.0</ele><time>2026-04-12T14:32:03.999Z</time></trkpt><trkpt lat="46.00642722534064" lon="11.16240544494103"><ele>585.3333333333333</ele><time>2026-04-12T14:32:04.999Z</time></trkpt><trkpt lat="46.00643773380608" lon="11.162183311213733"><ele>583.6666666666666</ele><time>2026-04-12T14:32:05.999Z</time></trkpt><trkpt lat="46.00645689920676" lon="11.161956692663082"><ele>582.0</ele><time>2026-04-12T14:32:06.999Z</time></trkpt><trkpt lat="46.00650092701689" lon="11.161720131150455"><ele>578.6666666666666</ele><time>2026-04-12T14:32:07.999Z</time></trkpt><trkpt lat="46.00657533075703" lon="11.161489799122085"><ele>575.3333333333333</ele><time>2026-04-12T14:32:08.999Z</time></trkpt><trkpt lat="46.006671273065926" lon="11.16126634463969"><ele>572.0</ele><time>2026-04-12T14:32:09.999Z</time></trkpt><trkpt lat="46.006785521682936" lon="11.161051918739544"><ele>571.3333333333333</ele><time>2026-04-12T14:32:10.999Z</time></trkpt><trkpt lat="46.00691346146972" lon="11.160856216747884"><ele>570.6666666666666</ele><time>2026-04-12T14:32:11.999Z</time></trkpt><trkpt lat="46.0070357857037" lon="11.160665243553163"><ele>570.0</ele><time>2026-04-12T14:32:12.999Z</time></trkpt><trkpt lat="46.00715011910742" lon="11.160476536531844"><ele>570.0</ele><time>2026-04-12T14:32:13.999Z</time></trkpt><trkpt lat="46.00725974881628" lon="11.16029506560976"><ele>570.0</ele><time>2026-04-12T14:32:14.999Z</time></trkpt><trkpt lat="46.00736355641868" lon="11.160124409402584"><ele>570.0</ele><time>2026-04-12T14:32:15.998Z</time></trkpt><trkpt lat="46.00746165635956" lon="11.159963743239965"><ele>573.25</ele><time>2026-04-12T14:32:16.998Z</time></trkpt><trkpt lat="46.00753437253906" lon="11.159788606599752"><ele>576.5</ele><time>2026-04-12T14:32:17.998Z</time></trkpt><trkpt lat="46.00757556579551" lon="11.159592648494211"><ele>579.75</ele><time>2026-04-12T14:32:18.998Z</time></trkpt><trkpt lat="46.00758045731519" lon="11.159384385081434"><ele>583.0</ele><time>2026-04-12T14:32:19.998Z</time></trkpt><trkpt lat="46.0075703118645" lon="11.159157884973611"><ele>580.3333333333334</ele><time>2026-04-12T14:32:20.998Z</time></trkpt><trkpt lat="46.00756165420995" lon="11.158919513260527"><ele>577.6666666666666</ele><time>2026-04-12T14:32:21.998Z</time></trkpt><trkpt lat="46.00755974771398" lon="11.158692351388618"><ele>575.0</ele><time>2026-04-12T14:32:22.998Z</time></trkpt><trkpt lat="46.00755967777871" lon="11.158471500856509"><ele>575.0</ele><time>2026-04-12T14:32:23.998Z</time></trkpt><trkpt lat="46.007563456958515" lon="11.158257300041958"><ele>575.0</ele><time>2026-04-12T14:32:24.998Z</time></trkpt><trkpt lat="46.00758403394879" lon="11.15804960584534"><ele>575.0</ele><time>2026-04-12T14:32:25.998Z</time></trkpt><trkpt lat="46.00761785062683" lon="11.157840116014889"><ele>575.0</ele><time>2026-04-12T14:32:26.998Z</time></trkpt><trkpt lat="46.00767172969198" lon="11.157633424250452"><ele>572.25</ele><time>2026-04-12T14:32:27.998Z</time></trkpt><trkpt lat="46.007734696442725" lon="11.157432287067984"><ele>569.5</ele><time>2026-04-12T14:32:28.998Z</time></trkpt><trkpt lat="46.00779525970557" lon="11.157240166827219"><ele>566.75</ele><time>2026-04-12T14:32:29.998Z</time></trkpt><trkpt lat="46.00785189855111" lon="11.157046321405124"><ele>564.0</ele><time>2026-04-12T14:32:30.998Z</time></trkpt><trkpt lat="46.00790607757607" lon="11.156859337439522"><ele>562.25</ele><time>2026-04-12T14:32:31.998Z</time></trkpt><trkpt lat="46.00795949583361" lon="11.156674220747075"><ele>560.5</ele><time>2026-04-12T14:32:33Z</time></trkpt><trkpt lat="46.00801156596437" lon="11.156493228033543"><ele>558.75</ele><time>2026-04-12T14:32:34Z</time></trkpt><trkpt lat="46.00805913959603" lon="11.156319001895444"><ele>557.0</ele><time>2026-04-12T14:32:35Z</time></trkpt><trkpt lat="46.008107213926294" lon="11.156144220879483"><ele>557.25</ele><time>2026-04-12T14:32:36Z</time></trkpt><trkpt lat="46.008155139183934" lon="11.155973896525552"><ele>557.5</ele><time>2026-04-12T14:32:37Z</time></trkpt><trkpt lat="46.008202607666114" lon="11.155805449097913"><ele>557.75</ele><time>2026-04-12T14:32:38Z</time></trkpt><trkpt lat="46.00825961061244" lon="11.155649717103527"><ele>558.0</ele><time>2026-04-12T14:32:39Z</time></trkpt><trkpt lat="46.00834237115985" lon="11.155522217372807"><ele>558.0</ele><time>2026-04-12T14:32:40Z</time></trkpt><trkpt lat="46.0084537125518" lon="11.15544649626792"><ele>558.0</ele><time>2026-04-12T14:32:41Z</time></trkpt><trkpt lat="46.00856888028421" lon="11.155425443371008"><ele>558.0</ele><time>2026-04-12T14:32:42Z</time></trkpt><trkpt lat="46.00868614930179" lon="11.155470924521747"><ele>558.0</ele><time>2026-04-12T14:32:43Z</time></trkpt><trkpt lat="46.00879061171795" lon="11.155576945087015"><ele>558.25</ele><time>2026-04-12T14:32:44Z</time></trkpt><trkpt lat="46.008885628817225" lon="11.155705603747766"><ele>558.5</ele><time>2026-04-12T14:32:45Z</time></trkpt><trkpt lat="46.008979733870774" lon="11.155830844220826"><ele>558.75</ele><time>2026-04-12T14:32:46Z</time></trkpt><trkpt lat="46.00907706268835" lon="11.155920620631926"><ele>559.0</ele><time>2026-04-12T14:32:47Z</time></trkpt><trkpt lat="46.00919786685747" lon="11.15597294022818"><ele>559.0</ele><time>2026-04-12T14:32:48Z</time></trkpt><trkpt lat="46.00933342893235" lon="11.15597593366215"><ele>559.0</ele><time>2026-04-12T14:32:49Z</time></trkpt><trkpt lat="46.00946569024485" lon="11.15597752993533"><ele>559.0</ele><time>2026-04-12T14:32:50Z</time></trkpt><trkpt lat="46.00958816523116" lon="11.155971063605982"><ele>559.0</ele><time>2026-04-12T14:32:51Z</time></trkpt><trkpt lat="46.00970166242405" lon="11.156026424209708"><ele>559.0</ele><time>2026-04-12T14:32:52Z</time></trkpt><trkpt lat="46.00980141534601" lon="11.156138757345845"><ele>559.0</ele><time>2026-04-12T14:32:53Z</time></trkpt><trkpt lat="46.009895438515564" lon="11.156299889824679"><ele>559.0</ele><time>2026-04-12T14:32:54Z</time></trkpt><trkpt lat="46.00999309498562" lon="11.156465270835904"><ele>559.0</ele><time>2026-04-12T14:32:55Z</time></trkpt><trkpt lat="46.01008972098873" lon="11.156625154846937"><ele>561.25</ele><time>2026-04-12T14:32:56Z</time></trkpt><trkpt lat="46.010181605412974" lon="11.15677540038273"><ele>563.5</ele><time>2026-04-12T14:32:57Z</time></trkpt><trkpt lat="46.01026813102505" lon="11.156916064274357"><ele>565.75</ele><time>2026-04-12T14:32:58Z</time></trkpt><trkpt lat="46.01035569661299" lon="11.157036282378492"><ele>568.0</ele><time>2026-04-12T14:32:59Z</time></trkpt><trkpt lat="46.010469069610814" lon="11.157112949717149"><ele>568.0</ele><time>2026-04-12T14:33:00Z</time></trkpt><trkpt lat="46.01058572476681" lon="11.157129403078205"><ele>568.0</ele><time>2026-04-12T14:33:01Z</time></trkpt><trkpt lat="46.01069733653406" lon="11.157096636361796"><ele>568.0</ele><time>2026-04-12T14:33:02Z</time></trkpt><trkpt lat="46.01079911811038" lon="11.157015775481682"><ele>568.0</ele><time>2026-04-12T14:33:03Z</time></trkpt><trkpt lat="46.01088186064932" lon="11.156888588465035"><ele>564.0</ele><time>2026-04-12T14:33:04Z</time></trkpt><trkpt lat="46.010933997305095" lon="11.156732725045337"><ele>560.0</ele><time>2026-04-12T14:33:05Z</time></trkpt><trkpt lat="46.01096097576385" lon="11.156561973449158"><ele>556.0</ele><time>2026-04-12T14:33:06Z</time></trkpt><trkpt lat="46.010948639046624" lon="11.156368434198177"><ele>552.0</ele><time>2026-04-12T14:33:07Z</time></trkpt><trkpt lat="46.010908192729985" lon="11.15617705441565"><ele>550.75</ele><time>2026-04-12T14:33:08Z</time></trkpt><trkpt lat="46.010861844342024" lon="11.156005422799117"><ele>549.5</ele><time>2026-04-12T14:33:09Z</time></trkpt><trkpt lat="46.01083252716382" lon="11.155837254354834"><ele>548.25</ele><time>2026-04-12T14:33:10Z</time></trkpt><trkpt lat="46.01079235931941" lon="11.155672518440639"><ele>547.0</ele><time>2026-04-12T14:33:11Z</time></trkpt><trkpt lat="46.01076327112676" lon="11.155499790348532"><ele>540.5</ele><time>2026-04-12T14:33:12Z</time></trkpt><trkpt lat="46.01072455009665" lon="11.155315596904558"><ele>534.0</ele><time>2026-04-12T14:33:13Z</time></trkpt><trkpt lat="46.01066820317899" lon="11.155127543478818"><ele>527.5</ele><time>2026-04-12T14:33:14Z</time></trkpt><trkpt lat="46.010578548718456" lon="11.15493777360267"><ele>521.0</ele><time>2026-04-12T14:33:15Z</time></trkpt><trkpt lat="46.01049301700807" lon="11.154744251821828"><ele>521.0</ele><time>2026-04-12T14:33:16Z</time></trkpt><trkpt lat="46.01041890868189" lon="11.154562046839152"><ele>521.0</ele><time>2026-04-12T14:33:17Z</time></trkpt><trkpt lat="46.01034660777811" lon="11.15438816067507"><ele>521.0</ele><time>2026-04-12T14:33:18Z</time></trkpt><trkpt lat="46.0102719193779" lon="11.154212907782192"><ele>521.0</ele><time>2026-04-12T14:33:18.999Z</time></trkpt><trkpt lat="46.01019510482424" lon="11.154040238103507"><ele>522.25</ele><time>2026-04-12T14:33:19.999Z</time></trkpt><trkpt lat="46.01011735307966" lon="11.153861570829003"><ele>523.5</ele><time>2026-04-12T14:33:20.999Z</time></trkpt><trkpt lat="46.01004299421282" lon="11.153676362947644"><ele>524.75</ele><time>2026-04-12T14:33:21.999Z</time></trkpt><trkpt lat="46.00997139167114" lon="11.15348964417877"><ele>526.0</ele><time>2026-04-12T14:33:22.999Z</time></trkpt><trkpt lat="46.00990785138978" lon="11.153291842908116"><ele>514.6666666666667</ele><time>2026-04-12T14:33:23.999Z</time></trkpt><trkpt lat="46.00986036271179" lon="11.153081126616888"><ele>503.33333333333337</ele><time>2026-04-12T14:33:24.999Z</time></trkpt><trkpt lat="46.00981535456983" lon="11.15286937987029"><ele>492.0</ele><time>2026-04-12T14:33:25.999Z</time></trkpt><trkpt lat="46.0097693826291" lon="11.152660273780576"><ele>492.0</ele><time>2026-04-12T14:33:26.999Z</time></trkpt><trkpt lat="46.009721765105134" lon="11.152449486844219"><ele>492.0</ele><time>2026-04-12T14:33:27.999Z</time></trkpt><trkpt lat="46.009675238813685" lon="11.15224089510894"><ele>492.0</ele><time>2026-04-12T14:33:28.999Z</time></trkpt><trkpt lat="46.00962225837124" lon="11.15202489684245"><ele>493.0</ele><time>2026-04-12T14:33:29.999Z</time></trkpt><trkpt lat="46.00956079471176" lon="11.15181243255583"><ele>494.0</ele><time>2026-04-12T14:33:30.999Z</time></trkpt><trkpt lat="46.00950166619482" lon="11.151590576725804"><ele>495.0</ele><time>2026-04-12T14:33:31.999Z</time></trkpt><trkpt lat="46.00942756290791" lon="11.15138670242843"><ele>496.25</ele><time>2026-04-12T14:33:32.999Z</time></trkpt><trkpt lat="46.00935270627512" lon="11.151192349398427"><ele>497.5</ele><time>2026-04-12T14:33:33.999Z</time></trkpt><trkpt lat="46.00927523142332" lon="11.151010227754083"><ele>498.75</ele><time>2026-04-12T14:33:34.999Z</time></trkpt><trkpt lat="46.00921582281149" lon="11.15083272621498"><ele>500.0</ele><time>2026-04-12T14:33:35.999Z</time></trkpt><trkpt lat="46.009167343262106" lon="11.150687678758556"><ele>497.0</ele><time>2026-04-12T14:33:36.999Z</time></trkpt><trkpt lat="46.00914492596691" lon="11.150532861781544"><ele>494.0</ele><time>2026-04-12T14:33:37.999Z</time></trkpt><trkpt lat="46.00918951632677" lon="11.150384411554043"><ele>491.0</ele><time>2026-04-12T14:33:38.999Z</time></trkpt><trkpt lat="46.009262187569895" lon="11.1502507762776"><ele>488.0</ele><time>2026-04-12T14:33:39.999Z</time></trkpt><trkpt lat="46.00933560358076" lon="11.150094908041055"><ele>488.0</ele><time>2026-04-12T14:33:40.999Z</time></trkpt><trkpt lat="46.00941721389134" lon="11.149968514759284"><ele>488.0</ele><time>2026-04-12T14:33:41.999Z</time></trkpt><trkpt lat="46.00948114239043" lon="11.149836537972323"><ele>488.0</ele><time>2026-04-12T14:33:42.999Z</time></trkpt><trkpt lat="46.00955174474866" lon="11.149700456400423"><ele>488.0</ele><time>2026-04-12T14:33:43.999Z</time></trkpt><trkpt lat="46.00962429227411" lon="11.149565632578083"><ele>487.5</ele><time>2026-04-12T14:33:44.999Z</time></trkpt><trkpt lat="46.009703365457995" lon="11.149448954513385"><ele>487.0</ele><time>2026-04-12T14:33:45.999Z</time></trkpt><trkpt lat="46.00980615977486" lon="11.149355983332997"><ele>486.5</ele><time>2026-04-12T14:33:46.999Z</time></trkpt><trkpt lat="46.0099161450438" lon="11.149302456262102"><ele>486.0</ele><time>2026-04-12T14:33:47.999Z</time></trkpt><trkpt lat="46.01003989121055" lon="11.14928290786879"><ele>486.0</ele><time>2026-04-12T14:33:48.999Z</time></trkpt><trkpt lat="46.01017112168009" lon="11.14931065527918"><ele>486.0</ele><time>2026-04-12T14:33:49.999Z</time></trkpt><trkpt lat="46.010295655411" lon="11.149392069209089"><ele>486.0</ele><time>2026-04-12T14:33:50.999Z</time></trkpt><trkpt lat="46.01040818718452" lon="11.149483865054432"><ele>486.0</ele><time>2026-04-12T14:33:51.999Z</time></trkpt><trkpt lat="46.01051433473952" lon="11.149575997739563"><ele>486.0</ele><time>2026-04-12T14:33:52.999Z</time></trkpt><trkpt lat="46.01061899705778" lon="11.149658597931742"><ele>486.0</ele><time>2026-04-12T14:33:53.999Z</time></trkpt><trkpt lat="46.01072285823659" lon="11.14972749375302"><ele>486.0</ele><time>2026-04-12T14:33:54.999Z</time></trkpt><trkpt lat="46.010836175881195" lon="11.149789822897327"><ele>486.0</ele><time>2026-04-12T14:33:55.999Z</time></trkpt><trkpt lat="46.01096301764202" lon="11.149817243732008"><ele>483.75</ele><time>2026-04-12T14:33:56.999Z</time></trkpt><trkpt lat="46.01109257238305" lon="11.149797076011781"><ele>481.5</ele><time>2026-04-12T14:33:57.999Z</time></trkpt><trkpt lat="46.0112299942302" lon="11.149731263712164"><ele>479.25</ele><time>2026-04-12T14:33:58.999Z</time></trkpt><trkpt lat="46.01135449304711" lon="11.14960920274333"><ele>477.0</ele><time>2026-04-12T14:33:59.999Z</time></trkpt><trkpt lat="46.01146457212547" lon="11.149451511862335"><ele>477.0</ele><time>2026-04-12T14:34:00.999Z</time></trkpt><trkpt lat="46.011569685960296" lon="11.149292281598658"><ele>477.0</ele><time>2026-04-12T14:34:01.999Z</time></trkpt><trkpt lat="46.01166860979719" lon="11.149145024124227"><ele>477.0</ele><time>2026-04-12T14:34:02.999Z</time></trkpt><trkpt lat="46.01176566059095" lon="11.149008259634938"><ele>477.0</ele><time>2026-04-12T14:34:03.999Z</time></trkpt><trkpt lat="46.01185756215229" lon="11.148876911865685"><ele>475.0</ele><time>2026-04-12T14:34:04.999Z</time></trkpt><trkpt lat="46.01194703606167" lon="11.148743509328924"><ele>473.0</ele><time>2026-04-12T14:34:05.999Z</time></trkpt><trkpt lat="46.012029544788604" lon="11.148596017292078"><ele>471.0</ele><time>2026-04-12T14:34:06.999Z</time></trkpt><trkpt lat="46.01210244322937" lon="11.14842325479283"><ele>469.0</ele><time>2026-04-12T14:34:07.999Z</time></trkpt><trkpt lat="46.01216304784306" lon="11.148234656650148"><ele>467.0</ele><time>2026-04-12T14:34:08.999Z</time></trkpt><trkpt lat="46.01221015544883" lon="11.1480500152241"><ele>465.0</ele><time>2026-04-12T14:34:09.999Z</time></trkpt><trkpt lat="46.01225220530228" lon="11.147875946294256"><ele>463.0</ele><time>2026-04-12T14:34:10.999Z</time></trkpt><trkpt lat="46.01229588303246" lon="11.147708038866787"><ele>461.0</ele><time>2026-04-12T14:34:11.999Z</time></trkpt><trkpt lat="46.012338054164495" lon="11.147535897046117"><ele>460.25</ele><time>2026-04-12T14:34:12.999Z</time></trkpt><trkpt lat="46.01238150636693" lon="11.147371133641142"><ele>459.5</ele><time>2026-04-12T14:34:13.999Z</time></trkpt><trkpt lat="46.012428641521105" lon="11.147207027348975"><ele>458.75</ele><time>2026-04-12T14:34:14.999Z</time></trkpt><trkpt lat="46.012484381707495" lon="11.147050259023006"><ele>458.0</ele><time>2026-04-12T14:34:15.999Z</time></trkpt><trkpt lat="46.01255882265046" lon="11.146910685609646"><ele>458.0</ele><time>2026-04-12T14:34:16.999Z</time></trkpt><trkpt lat="46.01265969327883" lon="11.146811131226764"><ele>458.0</ele><time>2026-04-12T14:34:17.999Z</time></trkpt><trkpt lat="46.01278063336807" lon="11.146745081016332"><ele>458.0</ele><time>2026-04-12T14:34:18.999Z</time></trkpt><trkpt lat="46.012921104515556" lon="11.146691442497692"><ele>458.0</ele><time>2026-04-12T14:34:19.999Z</time></trkpt><trkpt lat="46.013077677657215" lon="11.146630315337191"><ele>458.0</ele><time>2026-04-12T14:34:20.998Z</time></trkpt><trkpt lat="46.013245545651095" lon="11.146556173304548"><ele>458.0</ele><time>2026-04-12T14:34:21.998Z</time></trkpt><trkpt lat="46.01341995992386" lon="11.146472991110134"><ele>458.0</ele><time>2026-04-12T14:34:22.998Z</time></trkpt><trkpt lat="46.013593019325356" lon="11.146395525007277"><ele>451.3333333333333</ele><time>2026-04-12T14:34:23.998Z</time></trkpt><trkpt lat="46.013764190081126" lon="11.146324920620655"><ele>444.66666666666663</ele><time>2026-04-12T14:34:24.998Z</time></trkpt><trkpt lat="46.01392799679314" lon="11.14625638015942"><ele>438.0</ele><time>2026-04-12T14:34:25.998Z</time></trkpt><trkpt lat="46.01408906431387" lon="11.146188779629691"><ele>439.0</ele><time>2026-04-12T14:34:26.998Z</time></trkpt><trkpt lat="46.01424760227124" lon="11.146119150103726"><ele>440.0</ele><time>2026-04-12T14:34:27.998Z</time></trkpt><trkpt lat="46.01440560579689" lon="11.146053689143152"><ele>441.0</ele><time>2026-04-12T14:34:28.998Z</time></trkpt><trkpt lat="46.01456190241903" lon="11.1459837610699"><ele>441.0</ele><time>2026-04-12T14:34:29.998Z</time></trkpt><trkpt lat="46.01471899024225" lon="11.145918741497601"><ele>441.0</ele><time>2026-04-12T14:34:30.998Z</time></trkpt><trkpt lat="46.01487295639993" lon="11.145851281212186"><ele>441.0</ele><time>2026-04-12T14:34:31.998Z</time></trkpt><trkpt lat="46.01501535493683" lon="11.145780096542262"><ele>436.0</ele><time>2026-04-12T14:34:32.998Z</time></trkpt><trkpt lat="46.01515571587495" lon="11.14569964966816"><ele>431.0</ele><time>2026-04-12T14:34:33.998Z</time></trkpt><trkpt lat="46.01529040001329" lon="11.145601825248704"><ele>426.0</ele><time>2026-04-12T14:34:34.998Z</time></trkpt><trkpt lat="46.01541893646101" lon="11.145493355195597"><ele>426.0</ele><time>2026-04-12T14:34:35.998Z</time></trkpt><trkpt lat="46.01554277775911" lon="11.145368457128987"><ele>426.0</ele><time>2026-04-12T14:34:36.998Z</time></trkpt><trkpt lat="46.01567535663677" lon="11.145259327206984"><ele>426.0</ele><time>2026-04-12T14:34:37.998Z</time></trkpt><trkpt lat="46.015799254845724" lon="11.145164425727682"><ele>426.0</ele><time>2026-04-12T14:34:39Z</time></trkpt><trkpt lat="46.01592035132049" lon="11.145169198216525"><ele>428.5</ele><time>2026-04-12T14:34:40Z</time></trkpt><trkpt lat="46.016030267311365" lon="11.145199312663548"><ele>431.0</ele><time>2026-04-12T14:34:41Z</time></trkpt><trkpt lat="46.01613342685534" lon="11.145270826809103"><ele>433.5</ele><time>2026-04-12T14:34:42Z</time></trkpt><trkpt lat="46.01623459917565" lon="11.145356194780259"><ele>436.0</ele><time>2026-04-12T14:34:43Z</time></trkpt><trkpt lat="46.01636142337303" lon="11.145420244339359"><ele>436.0</ele><time>2026-04-12T14:34:44Z</time></trkpt><trkpt lat="46.01647551206882" lon="11.145481469062613"><ele>436.0</ele><time>2026-04-12T14:34:45Z</time></trkpt><trkpt lat="46.016590120093596" lon="11.145495441695802"><ele>436.0</ele><time>2026-04-12T14:34:46Z</time></trkpt><trkpt lat="46.016707917640176" lon="11.145443538779269"><ele>436.0</ele><time>2026-04-12T14:34:47Z</time></trkpt><trkpt lat="46.01682039261987" lon="11.145336235648838"><ele>435.20000000000005</ele><time>2026-04-12T14:34:48Z</time></trkpt><trkpt lat="46.01691362530389" lon="11.145225453139194"><ele>434.40000000000003</ele><time>2026-04-12T14:34:49Z</time></trkpt><trkpt lat="46.01698374618882" lon="11.14511042304582"><ele>433.6</ele><time>2026-04-12T14:34:50Z</time></trkpt><trkpt lat="46.01706542181176" lon="11.145024866444103"><ele>432.8</ele><time>2026-04-12T14:34:51Z</time></trkpt><trkpt lat="46.01714685230928" lon="11.144939768414533"><ele>432.0</ele><time>2026-04-12T14:34:52Z</time></trkpt><trkpt lat="46.01725022155674" lon="11.14487098551363"><ele>431.75</ele><time>2026-04-12T14:34:53Z</time></trkpt><trkpt lat="46.01736314666635" lon="11.14482550593739"><ele>431.5</ele><time>2026-04-12T14:34:54Z</time></trkpt><trkpt lat="46.017491393089784" lon="11.14483629522361"><ele>431.25</ele><time>2026-04-12T14:34:55Z</time></trkpt><trkpt lat="46.01761740580684" lon="11.14489961161828"><ele>431.0</ele><time>2026-04-12T14:34:56Z</time></trkpt><trkpt lat="46.017751707676055" lon="11.144934314051069"><ele>431.0</ele><time>2026-04-12T14:34:57Z</time></trkpt><trkpt lat="46.01787390922154" lon="11.144989672841753"><ele>431.0</ele><time>2026-04-12T14:34:58Z</time></trkpt><trkpt lat="46.0179992026692" lon="11.145029938725767"><ele>431.0</ele><time>2026-04-12T14:34:59Z</time></trkpt><trkpt lat="46.01813474637279" lon="11.14507718869262"><ele>431.0</ele><time>2026-04-12T14:35:00Z</time></trkpt><trkpt lat="46.018327023699406" lon="11.145130345867626"><ele>428.66666666666663</ele><time>2026-04-12T14:35:01Z</time></trkpt><trkpt lat="46.018536610974174" lon="11.145134587803089"><ele>426.33333333333337</ele><time>2026-04-12T14:35:02Z</time></trkpt><trkpt lat="46.018708336461835" lon="11.145116663178378"><ele>424.0</ele><time>2026-04-12T14:35:03Z</time></trkpt><trkpt lat="46.01887077813368" lon="11.14509770220789"><ele>424.0</ele><time>2026-04-12T14:35:04Z</time></trkpt><trkpt lat="46.019028456148924" lon="11.145059663487748"><ele>424.0</ele><time>2026-04-12T14:35:05Z</time></trkpt><trkpt lat="46.01917556168041" lon="11.145054239160714"><ele>424.0</ele><time>2026-04-12T14:35:06Z</time></trkpt><trkpt lat="46.01932272324703" lon="11.145063304355345"><ele>422.33333333333337</ele><time>2026-04-12T14:35:07Z</time></trkpt><trkpt lat="46.019469678095376" lon="11.145134192942315"><ele>420.66666666666663</ele><time>2026-04-12T14:35:08Z</time></trkpt><trkpt lat="46.019624209906425" lon="11.14518879770989"><ele>419.0</ele><time>2026-04-12T14:35:09Z</time></trkpt><trkpt lat="46.0197684424847" lon="11.145259469321175"><ele>419.0</ele><time>2026-04-12T14:35:10Z</time></trkpt><trkpt lat="46.01991301437995" lon="11.145324920890115"><ele>419.0</ele><time>2026-04-12T14:35:11Z</time></trkpt><trkpt lat="46.02005747199481" lon="11.145385155815424"><ele>419.0</ele><time>2026-04-12T14:35:12Z</time></trkpt><trkpt lat="46.020205785744274" lon="11.145426703847617"><ele>417.0</ele><time>2026-04-12T14:35:13Z</time></trkpt><trkpt lat="46.02035676850818" lon="11.145437368696305"><ele>415.0</ele><time>2026-04-12T14:35:14Z</time></trkpt><trkpt lat="46.02050595605056" lon="11.145423867853554"><ele>413.0</ele><time>2026-04-12T14:35:15Z</time></trkpt><trkpt lat="46.020642353465554" lon="11.145389282339499"><ele>411.0</ele><time>2026-04-12T14:35:16Z</time></trkpt><trkpt lat="46.02077452809022" lon="11.145330132325167"><ele>411.75</ele><time>2026-04-12T14:35:17Z</time></trkpt><trkpt lat="46.020912230498006" lon="11.145266701982115"><ele>412.5</ele><time>2026-04-12T14:35:18Z</time></trkpt><trkpt lat="46.02105233044284" lon="11.14520031221126"><ele>413.25</ele><time>2026-04-12T14:35:19Z</time></trkpt><trkpt lat="46.02118248385962" lon="11.145152898017672"><ele>414.0</ele><time>2026-04-12T14:35:20Z</time></trkpt><trkpt lat="46.02130594838023" lon="11.145107956490342"><ele>414.0</ele><time>2026-04-12T14:35:21Z</time></trkpt><trkpt lat="46.02142269608643" lon="11.145065515989204"><ele>414.0</ele><time>2026-04-12T14:35:22Z</time></trkpt><trkpt lat="46.021530475298846" lon="11.145029458554061"><ele>414.0</ele><time>2026-04-12T14:35:23Z</time></trkpt><trkpt lat="46.02162386834543" lon="11.145003327394608"><ele>414.0</ele><time>2026-04-12T14:35:24Z</time></trkpt><trkpt lat="46.021697627054735" lon="11.14499402411095"><ele>414.0</ele><time>2026-04-12T14:35:24.999Z</time></trkpt><trkpt lat="46.021762618056364" lon="11.144990294671144"><ele>413.6</ele><time>2026-04-12T14:35:25.999Z</time></trkpt><trkpt lat="46.02184836676423" lon="11.14501457685762"><ele>413.2</ele><time>2026-04-12T14:35:27.999Z</time></trkpt><trkpt lat="46.02181336824767" lon="11.144811683912783"><ele>412.8</ele><time>2026-04-12T14:35:30.999Z</time></trkpt><trkpt lat="46.02178280120655" lon="11.144729061260465"><ele>412.40000000000003</ele><time>2026-04-12T14:35:31.999Z</time></trkpt><trkpt lat="46.02170895856583" lon="11.144688278427118"><ele>412.0</ele><time>2026-04-12T14:35:32.999Z</time></trkpt><trkpt lat="46.02162538119746" lon="11.144666965479459"><ele>408.6666666666667</ele><time>2026-04-12T14:35:33.999Z</time></trkpt><trkpt lat="46.02154182890694" lon="11.144678710554007"><ele>405.33333333333337</ele><time>2026-04-12T14:35:34.999Z</time></trkpt><trkpt lat="46.02146219026569" lon="11.144694626869013"><ele>402.0</ele><time>2026-04-12T14:35:35.999Z</time></trkpt><trkpt lat="46.02137762741702" lon="11.144706051102833"><ele>398.66666666666663</ele><time>2026-04-12T14:35:36.999Z</time></trkpt><trkpt lat="46.021292089152894" lon="11.144732523129381"><ele>395.3333333333333</ele><time>2026-04-12T14:35:37.999Z</time></trkpt><trkpt lat="46.0212104086088" lon="11.144756519537593"><ele>392.0</ele><time>2026-04-12T14:35:38.999Z</time></trkpt><trkpt lat="46.021131968206234" lon="11.14477999841524"><ele>392.0</ele><time>2026-04-12T14:35:39.999Z</time></trkpt><trkpt lat="46.02104277184845" lon="11.144806944360662"><ele>392.0</ele><time>2026-04-12T14:35:40.999Z</time></trkpt><trkpt lat="46.02092554130789" lon="11.144830530160016"><ele>392.0</ele><time>2026-04-12T14:35:41.999Z</time></trkpt><trkpt lat="46.02078387588136" lon="11.144847102238177"><ele>392.0</ele><time>2026-04-12T14:35:42.999Z</time></trkpt><trkpt lat="46.02063162721017" lon="11.14486589845102"><ele>388.0</ele><time>2026-04-12T14:35:43.999Z</time></trkpt><trkpt lat="46.020464157215436" lon="11.144873696176498"><ele>384.0</ele><time>2026-04-12T14:35:44.999Z</time></trkpt><trkpt lat="46.0202764198247" lon="11.144848713496755"><ele>380.0</ele><time>2026-04-12T14:35:45.999Z</time></trkpt><trkpt lat="46.02006129621133" lon="11.144798298663673"><ele>379.33333333333337</ele><time>2026-04-12T14:35:46.999Z</time></trkpt><trkpt lat="46.01985084967391" lon="11.144724071222019"><ele>378.6666666666667</ele><time>2026-04-12T14:35:47.999Z</time></trkpt><trkpt lat="46.01965313148616" lon="11.144654438411209"><ele>378.0</ele><time>2026-04-12T14:35:48.999Z</time></trkpt><trkpt lat="46.01942736153626" lon="11.144627335817335"><ele>378.0</ele><time>2026-04-12T14:35:49.999Z</time></trkpt><trkpt lat="46.01918891697074" lon="11.144631071680676"><ele>378.0</ele><time>2026-04-12T14:35:50.999Z</time></trkpt><trkpt lat="46.01898047973603" lon="11.144652553084063"><ele>378.0</ele><time>2026-04-12T14:35:51.999Z</time></trkpt><trkpt lat="46.018794239671806" lon="11.144648727646041"><ele>380.66666666666663</ele><time>2026-04-12T14:35:52.999Z</time></trkpt><trkpt lat="46.01862325804913" lon="11.144658642284767"><ele>383.3333333333333</ele><time>2026-04-12T14:35:53.999Z</time></trkpt><trkpt lat="46.01846162344545" lon="11.144659795355372"><ele>386.0</ele><time>2026-04-12T14:35:54.999Z</time></trkpt><trkpt lat="46.018287229126024" lon="11.144641787630471"><ele>390.66666666666663</ele><time>2026-04-12T14:35:55.999Z</time></trkpt><trkpt lat="46.018113545283306" lon="11.14459625884604"><ele>395.33333333333337</ele><time>2026-04-12T14:35:56.999Z</time></trkpt><trkpt lat="46.017939657909956" lon="11.1445486433254"><ele>400.0</ele><time>2026-04-12T14:35:57.999Z</time></trkpt><trkpt lat="46.01778138212636" lon="11.144453636999357"><ele>400.0</ele><time>2026-04-12T14:35:58.999Z</time></trkpt><trkpt lat="46.01764034836975" lon="11.144372134606906"><ele>400.0</ele><time>2026-04-12T14:35:59.999Z</time></trkpt><trkpt lat="46.017498812515505" lon="11.144276337625735"><ele>400.0</ele><time>2026-04-12T14:36:00.999Z</time></trkpt><trkpt lat="46.01736352914446" lon="11.144166898723324"><ele>405.33333333333337</ele><time>2026-04-12T14:36:01.999Z</time></trkpt><trkpt lat="46.017226378058936" lon="11.144049511731048"><ele>410.66666666666663</ele><time>2026-04-12T14:36:02.999Z</time></trkpt><trkpt lat="46.0170778123321" lon="11.14392361331522"><ele>416.0</ele><time>2026-04-12T14:36:03.999Z</time></trkpt><trkpt lat="46.016927123502775" lon="11.143799119227875"><ele>407.0</ele><time>2026-04-12T14:36:04.999Z</time></trkpt><trkpt lat="46.01676904837344" lon="11.143672740099083"><ele>398.0</ele><time>2026-04-12T14:36:05.999Z</time></trkpt><trkpt lat="46.016605881593435" lon="11.143531744219937"><ele>389.0</ele><time>2026-04-12T14:36:06.999Z</time></trkpt><trkpt lat="46.016442020944744" lon="11.143383508532532"><ele>389.0</ele><time>2026-04-12T14:36:07.999Z</time></trkpt><trkpt lat="46.01629426490208" lon="11.143225157725588"><ele>389.0</ele><time>2026-04-12T14:36:08.999Z</time></trkpt><trkpt lat="46.016157363618326" lon="11.143062609815122"><ele>389.0</ele><time>2026-04-12T14:36:09.999Z</time></trkpt><trkpt lat="46.01602195707195" lon="11.142916962178653"><ele>381.0</ele><time>2026-04-12T14:36:10.999Z</time></trkpt><trkpt lat="46.01586889237496" lon="11.142776555284081"><ele>373.0</ele><time>2026-04-12T14:36:11.999Z</time></trkpt><trkpt lat="46.0157165210672" lon="11.142624180272104"><ele>365.0</ele><time>2026-04-12T14:36:12.999Z</time></trkpt><trkpt lat="46.01556731943462" lon="11.142485600329755"><ele>359.6666666666667</ele><time>2026-04-12T14:36:13.999Z</time></trkpt><trkpt lat="46.01541556799512" lon="11.142360491088333"><ele>354.3333333333333</ele><time>2026-04-12T14:36:14.999Z</time></trkpt><trkpt lat="46.01526536798062" lon="11.142236486154005"><ele>349.0</ele><time>2026-04-12T14:36:15.999Z</time></trkpt><trkpt lat="46.015116239997205" lon="11.14209429499112"><ele>348.3333333333333</ele><time>2026-04-12T14:36:16.999Z</time></trkpt><trkpt lat="46.01498520061443" lon="11.141893382980347"><ele>347.6666666666667</ele><time>2026-04-12T14:36:17.999Z</time></trkpt><trkpt lat="46.01483770237398" lon="11.141678598706042"><ele>347.0</ele><time>2026-04-12T14:36:18.999Z</time></trkpt><trkpt lat="46.014688290496295" lon="11.141492984431745"><ele>346.0</ele><time>2026-04-12T14:36:19.999Z</time></trkpt><trkpt lat="46.01456013705134" lon="11.141292727725048"><ele>345.0</ele><time>2026-04-12T14:36:20.999Z</time></trkpt><trkpt lat="46.01443299380169" lon="11.141110901989748"><ele>344.0</ele><time>2026-04-12T14:36:21.999Z</time></trkpt><trkpt lat="46.01430766292398" lon="11.1409386610788"><ele>344.0</ele><time>2026-04-12T14:36:22.999Z</time></trkpt><trkpt lat="46.01418980369795" lon="11.1407670321597"><ele>344.0</ele><time>2026-04-12T14:36:23.999Z</time></trkpt><trkpt lat="46.01408306280973" lon="11.140587624335584"><ele>344.0</ele><time>2026-04-12T14:36:24.999Z</time></trkpt><trkpt lat="46.01398375693522" lon="11.140400064224417"><ele>344.33333333333337</ele><time>2026-04-12T14:36:25.998Z</time></trkpt><trkpt lat="46.01386804470683" lon="11.140208743125791"><ele>344.6666666666667</ele><time>2026-04-12T14:36:26.998Z</time></trkpt><trkpt lat="46.013766432741306" lon="11.140018277854757"><ele>345.0</ele><time>2026-04-12T14:36:27.998Z</time></trkpt><trkpt lat="46.01366492156506" lon="11.139856447050574"><ele>340.5</ele><time>2026-04-12T14:36:28.998Z</time></trkpt><trkpt lat="46.013551969113706" lon="11.139719582295202"><ele>336.0</ele><time>2026-04-12T14:36:29.998Z</time></trkpt><trkpt lat="46.0134369501709" lon="11.139626474169761"><ele>331.5</ele><time>2026-04-12T14:36:30.998Z</time></trkpt><trkpt lat="46.01332189450752" lon="11.139548880326096"><ele>327.0</ele><time>2026-04-12T14:36:31.998Z</time></trkpt><trkpt lat="46.013203802536935" lon="11.139497800975576"><ele>327.0</ele><time>2026-04-12T14:36:32.998Z</time></trkpt><trkpt lat="46.0130838937466" lon="11.139471531052008"><ele>327.0</ele><time>2026-04-12T14:36:33.998Z</time></trkpt><trkpt lat="46.0129703227663" lon="11.139449183379279"><ele>327.0</ele><time>2026-04-12T14:36:34.998Z</time></trkpt><trkpt lat="46.012865783336245" lon="11.139442334202203"><ele>327.0</ele><time>2026-04-12T14:36:35.998Z</time></trkpt><trkpt lat="46.01276495099461" lon="11.139408002967569"><ele>327.0</ele><time>2026-04-12T14:36:36.998Z</time></trkpt><trkpt lat="46.01266926821804" lon="11.139416132004179"><ele>327.0</ele><time>2026-04-12T14:36:37.998Z</time></trkpt><trkpt lat="46.012577743407455" lon="11.139391091693746"><ele>327.0</ele><time>2026-04-12T14:36:38.998Z</time></trkpt><trkpt lat="46.01249146673017" lon="11.139340359799276"><ele>327.0</ele><time>2026-04-12T14:36:39.998Z</time></trkpt><trkpt lat="46.01238720056158" lon="11.139308673450124"><ele>327.0</ele><time>2026-04-12T14:36:40.998Z</time></trkpt><trkpt lat="46.01230035454405" lon="11.139292802832298"><ele>327.0</ele><time>2026-04-12T14:36:41.998Z</time></trkpt><trkpt lat="46.012212771207196" lon="11.139259839053079"><ele>326.5</ele><time>2026-04-12T14:36:42.998Z</time></trkpt><trkpt lat="46.012125833272144" lon="11.139232622102938"><ele>326.0</ele><time>2026-04-12T14:36:43.998Z</time></trkpt><trkpt lat="46.01204145980666" lon="11.139207064033242"><ele>325.5</ele><time>2026-04-12T14:36:45Z</time></trkpt><trkpt lat="46.01196012304721" lon="11.13916834576027"><ele>325.0</ele><time>2026-04-12T14:36:46Z</time></trkpt><trkpt lat="46.01187744645397" lon="11.139143522251386"><ele>324.5</ele><time>2026-04-12T14:36:47Z</time></trkpt><trkpt lat="46.01178986374949" lon="11.139115614747004"><ele>324.0</ele><time>2026-04-12T14:36:48Z</time></trkpt><trkpt lat="46.011701927509776" lon="11.1390895498489"><ele>319.4</ele><time>2026-04-12T14:36:49Z</time></trkpt><trkpt lat="46.011601137893344" lon="11.139049183644916"><ele>314.79999999999995</ele><time>2026-04-12T14:36:50Z</time></trkpt><trkpt lat="46.01151636096132" lon="11.138950164503152"><ele>310.20000000000005</ele><time>2026-04-12T14:36:51Z</time></trkpt><trkpt lat="46.01141672584218" lon="11.138878764430984"><ele>305.6</ele><time>2026-04-12T14:36:52Z</time></trkpt><trkpt lat="46.0113180090469" lon="11.138811035476824"><ele>301.0</ele><time>2026-04-12T14:36:53Z</time></trkpt><trkpt lat="46.01121905173471" lon="11.138774649370713"><ele>301.0</ele><time>2026-04-12T14:36:54Z</time></trkpt><trkpt lat="46.01112460633195" lon="11.138745272613415"><ele>301.0</ele><time>2026-04-12T14:36:55Z</time></trkpt><trkpt lat="46.01102764539776" lon="11.13876765909732"><ele>301.0</ele><time>2026-04-12T14:36:56Z</time></trkpt><trkpt lat="46.01093103367416" lon="11.138825641419624"><ele>301.0</ele><time>2026-04-12T14:36:57Z</time></trkpt><trkpt lat="46.010845394638885" lon="11.138902615940726"><ele>301.0</ele><time>2026-04-12T14:36:58Z</time></trkpt><trkpt lat="46.01075795405967" lon="11.138976327994557"><ele>301.0</ele><time>2026-04-12T14:36:59Z</time></trkpt><trkpt lat="46.01066842493032" lon="11.139037962603098"><ele>301.0</ele><time>2026-04-12T14:37:00Z</time></trkpt><trkpt lat="46.010574870537376" lon="11.13908120936682"><ele>301.0</ele><time>2026-04-12T14:37:01Z</time></trkpt><trkpt lat="46.01047524342176" lon="11.139106113016831"><ele>301.0</ele><time>2026-04-12T14:37:02Z</time></trkpt><trkpt lat="46.01037192016024" lon="11.139068999921179"><ele>301.0</ele><time>2026-04-12T14:37:03Z</time></trkpt><trkpt lat="46.010265533904835" lon="11.139034439944815"><ele>301.0</ele><time>2026-04-12T14:37:04Z</time></trkpt><trkpt lat="46.010150677357515" lon="11.139000748552872"><ele>301.0</ele><time>2026-04-12T14:37:05Z</time></trkpt><trkpt lat="46.01004799132461" lon="11.138958054959781"><ele>301.0</ele><time>2026-04-12T14:37:06Z</time></trkpt><trkpt lat="46.00994868713592" lon="11.138901836688957"><ele>301.0</ele><time>2026-04-12T14:37:07Z</time></trkpt><trkpt lat="46.00984670505016" lon="11.138835617134486"><ele>301.0</ele><time>2026-04-12T14:37:08Z</time></trkpt><trkpt lat="46.00975167628427" lon="11.138764466317552"><ele>301.2</ele><time>2026-04-12T14:37:09Z</time></trkpt><trkpt lat="46.00966062997144" lon="11.138704743681243"><ele>301.40000000000003</ele><time>2026-04-12T14:37:10Z</time></trkpt><trkpt lat="46.00958394593648" lon="11.138657336073747"><ele>301.6</ele><time>2026-04-12T14:37:11Z</time></trkpt><trkpt lat="46.00951915299401" lon="11.138635714785744"><ele>301.8</ele><time>2026-04-12T14:37:12Z</time></trkpt><trkpt lat="46.00939955179567" lon="11.138687038028774"><ele>302.0</ele><time>2026-04-12T14:37:14Z</time></trkpt><trkpt lat="46.00929864846689" lon="11.13879062189144"><ele>302.00000000000006</ele><time>2026-04-12T14:37:16Z</time></trkpt><trkpt lat="46.0092398225799" lon="11.138839365089472"><ele>302.0</ele><time>2026-04-12T14:37:17Z</time></trkpt><trkpt lat="46.00917048003892" lon="11.138893223588465"><ele>302.0</ele><time>2026-04-12T14:37:18Z</time></trkpt><trkpt lat="46.00910534675162" lon="11.138949221303196"><ele>302.0</ele><time>2026-04-12T14:37:19Z</time></trkpt><trkpt lat="46.00904225307983" lon="11.139003968001552"><ele>302.0</ele><time>2026-04-12T14:37:20Z</time></trkpt><trkpt lat="46.00898550071272" lon="11.139060675482398"><ele>302.00000000000006</ele><time>2026-04-12T14:37:21Z</time></trkpt><trkpt lat="46.008927796039515" lon="11.139121868651975"><ele>302.0</ele><time>2026-04-12T14:37:22Z</time></trkpt><trkpt lat="46.00886879089737" lon="11.13917722099729"><ele>300.5</ele><time>2026-04-12T14:37:23Z</time></trkpt><trkpt lat="46.00879796847202" lon="11.1392223754305"><ele>299.0</ele><time>2026-04-12T14:37:24Z</time></trkpt><trkpt lat="46.00871846977352" lon="11.139243613215216"><ele>297.5</ele><time>2026-04-12T14:37:25Z</time></trkpt><trkpt lat="46.00863085802236" lon="11.139244617191064"><ele>296.0</ele><time>2026-04-12T14:37:26Z</time></trkpt><trkpt lat="46.008540737235094" lon="11.139228662329053"><ele>294.5</ele><time>2026-04-12T14:37:27Z</time></trkpt><trkpt lat="46.0084495687348" lon="11.139172087358407"><ele>293.0</ele><time>2026-04-12T14:37:28Z</time></trkpt><trkpt lat="46.00836811352508" lon="11.139108980465652"><ele>292.4</ele><time>2026-04-12T14:37:29Z</time></trkpt><trkpt lat="46.0083219672581" lon="11.1390048702393"><ele>291.8</ele><time>2026-04-12T14:37:29.999Z</time></trkpt><trkpt lat="46.008264828833795" lon="11.138889475056217"><ele>291.2</ele><time>2026-04-12T14:37:30.999Z</time></trkpt><trkpt lat="46.008196377278246" lon="11.138771118054997"><ele>290.6</ele><time>2026-04-12T14:37:31.999Z</time></trkpt><trkpt lat="46.00816473258771" lon="11.13860737900337"><ele>290.0</ele><time>2026-04-12T14:37:32.999Z</time></trkpt><trkpt lat="46.008106743091986" lon="11.138439136093606"><ele>290.0</ele><time>2026-04-12T14:37:33.999Z</time></trkpt><trkpt lat="46.00806203662335" lon="11.138266112625196"><ele>290.0</ele><time>2026-04-12T14:37:34.999Z</time></trkpt><trkpt lat="46.00800094322571" lon="11.138108462706336"><ele>290.0</ele><time>2026-04-12T14:37:35.999Z</time></trkpt><trkpt lat="46.00796163804535" lon="11.137949114395878"><ele>290.0</ele><time>2026-04-12T14:37:36.999Z</time></trkpt><trkpt lat="46.007929548355065" lon="11.137796859045116"><ele>287.0</ele><time>2026-04-12T14:37:37.999Z</time></trkpt><trkpt lat="46.00791202164522" lon="11.137635267707799"><ele>284.0</ele><time>2026-04-12T14:37:38.999Z</time></trkpt><trkpt lat="46.007877395763906" lon="11.137479932155907"><ele>281.0</ele><time>2026-04-12T14:37:39.999Z</time></trkpt><trkpt lat="46.007848517371706" lon="11.137349726504477"><ele>278.0</ele><time>2026-04-12T14:37:40.999Z</time></trkpt><trkpt lat="46.00782810817091" lon="11.13725293259916"><ele>275.0</ele><time>2026-04-12T14:37:41.999Z</time></trkpt><trkpt lat="46.007787965492156" lon="11.137096974247239"><ele>272.8</ele><time>2026-04-12T14:37:43.999Z</time></trkpt><trkpt lat="46.007739048343" lon="11.136975964707398"><ele>270.6</ele><time>2026-04-12T14:37:45.999Z</time></trkpt><trkpt lat="46.00763307403872" lon="11.13692423158197"><ele>268.4</ele><time>2026-04-12T14:37:47.999Z</time></trkpt><trkpt lat="46.00756671961613" lon="11.136930437125534"><ele>266.2</ele><time>2026-04-12T14:37:48.999Z</time></trkpt><trkpt lat="46.007453135907404" lon="11.136932736319292"><ele>264.0</ele><time>2026-04-12T14:37:50.999Z</time></trkpt><trkpt lat="46.007387934040885" lon="11.136925284685137"><ele>262.0</ele><time>2026-04-12T14:37:51.999Z</time></trkpt><trkpt lat="46.00732418378411" lon="11.136925407201424"><ele>260.0</ele><time>2026-04-12T14:37:52.999Z</time></trkpt><trkpt lat="46.00721379886135" lon="11.136926186733772"><ele>258.0</ele><time>2026-04-12T14:37:54.999Z</time></trkpt><trkpt lat="46.00710566241482" lon="11.136925861566327"><ele>256.0</ele><time>2026-04-12T14:37:56.999Z</time></trkpt><trkpt lat="46.00697085162824" lon="11.136929648937379"><ele>254.0</ele><time>2026-04-12T14:37:58.999Z</time></trkpt><trkpt lat="46.006893251713045" lon="11.136929125726164"><ele>254.0</ele><time>2026-04-12T14:37:59.999Z</time></trkpt><trkpt lat="46.00681688595835" lon="11.136928458328432"><ele>254.0</ele><time>2026-04-12T14:38:00.999Z</time></trkpt><trkpt lat="46.00674072250109" lon="11.136925563666338"><ele>254.0</ele><time>2026-04-12T14:38:01.999Z</time></trkpt><trkpt lat="46.006669598528376" lon="11.13690938358921"><ele>254.0</ele><time>2026-04-12T14:38:02.999Z</time></trkpt><trkpt lat="46.006607307260865" lon="11.136857941017505"><ele>254.0</ele><time>2026-04-12T14:38:03.999Z</time></trkpt><trkpt lat="46.006548316615344" lon="11.136823041981373"><ele>254.0</ele><time>2026-04-12T14:38:04.999Z</time></trkpt><trkpt lat="46.00647952735103" lon="11.136791455912991"><ele>254.0</ele><time>2026-04-12T14:38:05.999Z</time></trkpt><trkpt lat="46.00640066890615" lon="11.136799919332118"><ele>253.50000000000003</ele><time>2026-04-12T14:38:06.999Z</time></trkpt><trkpt lat="46.00631944910778" lon="11.136782986803158"><ele>253.0</ele><time>2026-04-12T14:38:07.999Z</time></trkpt><trkpt lat="46.00625389076248" lon="11.136714155570068"><ele>252.5</ele><time>2026-04-12T14:38:08.999Z</time></trkpt><trkpt lat="46.0062168910258" lon="11.13660473899218"><ele>252.0</ele><time>2026-04-12T14:38:09.999Z</time></trkpt><trkpt lat="46.006229451026414" lon="11.13647353021906"><ele>251.50000000000003</ele><time>2026-04-12T14:38:10.999Z</time></trkpt><trkpt lat="46.006213489940706" lon="11.136385550796804"><ele>251.0</ele><time>2026-04-12T14:38:11.999Z</time></trkpt><trkpt lat="46.00619290678121" lon="11.136252268383855"><ele>250.0</ele><time>2026-04-12T14:38:14.999Z</time></trkpt><trkpt lat="46.0061648243961" lon="11.136121886193745"><ele>249.00000000000003</ele><time>2026-04-12T14:38:16.999Z</time></trkpt><trkpt lat="46.006140908244475" lon="11.135966725426373"><ele>248.00000000000003</ele><time>2026-04-12T14:38:18.999Z</time></trkpt><trkpt lat="46.00611192555747" lon="11.135779097865731"><ele>247.0</ele><time>2026-04-12T14:38:20.999Z</time></trkpt><trkpt lat="46.00609737403177" lon="11.135673581475942"><ele>246.0</ele><time>2026-04-12T14:38:21.999Z</time></trkpt><trkpt lat="46.00608215942702" lon="11.135566971665328"><ele>244.83333333333334</ele><time>2026-04-12T14:38:22.999Z</time></trkpt><trkpt lat="46.00606672218004" lon="11.135456685865629"><ele>243.66666666666669</ele><time>2026-04-12T14:38:23.999Z</time></trkpt><trkpt lat="46.00604804540991" lon="11.135342598909643"><ele>242.5</ele><time>2026-04-12T14:38:24.999Z</time></trkpt><trkpt lat="46.00603284392993" lon="11.135227217257418"><ele>241.33333333333334</ele><time>2026-04-12T14:38:25.999Z</time></trkpt><trkpt lat="46.006010468955424" lon="11.135107565903462"><ele>240.16666666666669</ele><time>2026-04-12T14:38:26.999Z</time></trkpt><trkpt lat="46.00599414414118" lon="11.13499171259732"><ele>239.0</ele><time>2026-04-12T14:38:27.999Z</time></trkpt><trkpt lat="46.00597999747743" lon="11.134882030719963"><ele>238.0</ele><time>2026-04-12T14:38:28.999Z</time></trkpt><trkpt lat="46.00596143396347" lon="11.134777750352256"><ele>236.99999999999997</ele><time>2026-04-12T14:38:29.999Z</time></trkpt><trkpt lat="46.00595096070672" lon="11.134684739204104"><ele>235.99999999999997</ele><time>2026-04-12T14:38:30.998Z</time></trkpt><trkpt lat="46.00591585741595" lon="11.134520484210356"><ele>235.0</ele><time>2026-04-12T14:38:32.998Z</time></trkpt><trkpt lat="46.005872741027204" lon="11.134360137623249"><ele>234.0</ele><time>2026-04-12T14:38:34.998Z</time></trkpt><trkpt lat="46.0058078069391" lon="11.134209210754554"><ele>233.83333333333334</ele><time>2026-04-12T14:38:36.998Z</time></trkpt><trkpt lat="46.00576064417514" lon="11.134133922289639"><ele>233.66666666666669</ele><time>2026-04-12T14:38:37.998Z</time></trkpt><trkpt lat="46.00570681354115" lon="11.134064835459377"><ele>233.5</ele><time>2026-04-12T14:38:38.998Z</time></trkpt><trkpt lat="46.00564979768739" lon="11.134009220900147"><ele>233.33333333333334</ele><time>2026-04-12T14:38:39.998Z</time></trkpt><trkpt lat="46.00556104850196" lon="11.13396556242013"><ele>233.16666666666669</ele><time>2026-04-12T14:38:41.998Z</time></trkpt><trkpt lat="46.005489369373564" lon="11.13393676952092"><ele>233.0</ele><time>2026-04-12T14:38:43.998Z</time></trkpt><trkpt lat="46.00540483312189" lon="11.133908353269529"><ele>231.60000000000002</ele><time>2026-04-12T14:38:45.998Z</time></trkpt><trkpt lat="46.005335169066775" lon="11.133841065994533"><ele>230.20000000000002</ele><time>2026-04-12T14:38:47.998Z</time></trkpt><trkpt lat="46.005286752435886" lon="11.133719165112698"><ele>228.8</ele><time>2026-04-12T14:38:49.998Z</time></trkpt><trkpt lat="46.00529621422282" lon="11.13356803795673"><ele>227.4</ele><time>2026-04-12T14:38:52Z</time></trkpt><trkpt lat="46.00533354782714" lon="11.133416898264995"><ele>226.0</ele><time>2026-04-12T14:38:54Z</time></trkpt><trkpt lat="46.00525217290148" lon="11.133325077535988"><ele>225.99999999999997</ele><time>2026-04-12T14:38:56Z</time></trkpt><trkpt lat="46.0051900319557" lon="11.13329453442564"><ele>226.0</ele><time>2026-04-12T14:38:57Z</time></trkpt><trkpt lat="46.0051461660143" lon="11.133195068528247"><ele>226.0</ele><time>2026-04-12T14:38:58Z</time></trkpt><trkpt lat="46.00510922088272" lon="11.133050118800986"><ele>226.0</ele><time>2026-04-12T14:38:59Z</time></trkpt><trkpt lat="46.0050734779051" lon="11.132923429707978"><ele>225.99999999999997</ele><time>2026-04-12T14:39:00Z</time></trkpt><trkpt lat="46.00504609777103" lon="11.132838257859856"><ele>226.0</ele><time>2026-04-12T14:39:01Z</time></trkpt><trkpt lat="46.0050092202251" lon="11.132743814632732"><ele>225.16666666666666</ele><time>2026-04-12T14:39:02Z</time></trkpt><trkpt lat="46.0049517049377" lon="11.132608259775369"><ele>224.33333333333331</ele><time>2026-04-12T14:39:04Z</time></trkpt><trkpt lat="46.00493029162487" lon="11.132522157878535"><ele>223.5</ele><time>2026-04-12T14:39:05Z</time></trkpt><trkpt lat="46.004877529632324" lon="11.132449300541769"><ele>222.66666666666669</ele><time>2026-04-12T14:39:06Z</time></trkpt><trkpt lat="46.00481733569992" lon="11.132371003247805"><ele>221.83333333333334</ele><time>2026-04-12T14:39:07Z</time></trkpt><trkpt lat="46.00476701109826" lon="11.132309867801407"><ele>221.0</ele><time>2026-04-12T14:39:08Z</time></trkpt><trkpt lat="46.004684167404974" lon="11.132199787479843"><ele>219.8</ele><time>2026-04-12T14:39:10Z</time></trkpt><trkpt lat="46.004589035033945" lon="11.132077751551165"><ele>218.60000000000002</ele><time>2026-04-12T14:39:12Z</time></trkpt><trkpt lat="46.004548852827824" lon="11.131981563035247"><ele>217.4</ele><time>2026-04-12T14:39:13Z</time></trkpt><trkpt lat="46.004506023704295" lon="11.131880352547656"><ele>216.2</ele><time>2026-04-12T14:39:14Z</time></trkpt><trkpt lat="46.00446928946625" lon="11.131770906222295"><ele>215.0</ele><time>2026-04-12T14:39:15Z</time></trkpt><trkpt lat="46.00444943466007" lon="11.131656574826954"><ele>214.66666666666669</ele><time>2026-04-12T14:39:16Z</time></trkpt><trkpt lat="46.0044408720825" lon="11.131524513546287"><ele>214.33333333333334</ele><time>2026-04-12T14:39:17Z</time></trkpt><trkpt lat="46.00443099710067" lon="11.131415237671384"><ele>214.0</ele><time>2026-04-12T14:39:18Z</time></trkpt><trkpt lat="46.00440800530901" lon="11.131310918587062"><ele>213.66666666666669</ele><time>2026-04-12T14:39:19Z</time></trkpt><trkpt lat="46.00438488369062" lon="11.131221619015202"><ele>213.33333333333334</ele><time>2026-04-12T14:39:20Z</time></trkpt><trkpt lat="46.00430784965706" lon="11.131057297012234"><ele>213.0</ele><time>2026-04-12T14:39:22Z</time></trkpt><trkpt lat="46.004252829344026" lon="11.130959217842475"><ele>212.99999999999997</ele><time>2026-04-12T14:39:23Z</time></trkpt><trkpt lat="46.00420899640326" lon="11.130873959386136"><ele>213.0</ele><time>2026-04-12T14:39:24Z</time></trkpt><trkpt lat="46.00416352318798" lon="11.13076893167417"><ele>213.0</ele><time>2026-04-12T14:39:25Z</time></trkpt><trkpt lat="46.00413185866313" lon="11.130684744282288"><ele>213.0</ele><time>2026-04-12T14:39:26Z</time></trkpt><trkpt lat="46.004102735136584" lon="11.13058274032138"><ele>213.0</ele><time>2026-04-12T14:39:27Z</time></trkpt><trkpt lat="46.004086150242976" lon="11.130472732637779"><ele>212.99999999999997</ele><time>2026-04-12T14:39:28Z</time></trkpt><trkpt lat="46.00406546347922" lon="11.130379319385511"><ele>213.0</ele><time>2026-04-12T14:39:29Z</time></trkpt><trkpt lat="46.00400154279309" lon="11.130291279176456"><ele>212.0</ele><time>2026-04-12T14:39:30Z</time></trkpt><trkpt lat="46.00390093082395" lon="11.130224061813616"><ele>211.0</ele><time>2026-04-12T14:39:31Z</time></trkpt><trkpt lat="46.00379743946805" lon="11.130156397926694"><ele>210.0</ele><time>2026-04-12T14:39:32Z</time></trkpt><trkpt lat="46.00370346023957" lon="11.130069480343177"><ele>209.0</ele><time>2026-04-12T14:39:33Z</time></trkpt><trkpt lat="46.003590425533886" lon="11.129971652257204"><ele>207.5</ele><time>2026-04-12T14:39:34Z</time></trkpt><trkpt lat="46.003477580516844" lon="11.129853323429513"><ele>206.0</ele><time>2026-04-12T14:39:35Z</time></trkpt><trkpt lat="46.00336800562333" lon="11.129741167482782"><ele>204.5</ele><time>2026-04-12T14:39:35.999Z</time></trkpt><trkpt lat="46.003260181378714" lon="11.129635349876523"><ele>203.0</ele><time>2026-04-12T14:39:36.999Z</time></trkpt><trkpt lat="46.00316189465938" lon="11.129508160579677"><ele>202.75</ele><time>2026-04-12T14:39:37.999Z</time></trkpt><trkpt lat="46.00306177293524" lon="11.129392194280294"><ele>202.5</ele><time>2026-04-12T14:39:38.999Z</time></trkpt><trkpt lat="46.002957530858" lon="11.129278210817628"><ele>202.25</ele><time>2026-04-12T14:39:39.999Z</time></trkpt><trkpt lat="46.00287134036819" lon="11.129150675518895"><ele>202.0</ele><time>2026-04-12T14:39:40.999Z</time></trkpt><trkpt lat="46.002789447537644" lon="11.12900953769083"><ele>201.25</ele><time>2026-04-12T14:39:41.999Z</time></trkpt><trkpt lat="46.00271211554503" lon="11.128849968616366"><ele>200.5</ele><time>2026-04-12T14:39:42.999Z</time></trkpt><trkpt lat="46.00263991563462" lon="11.128664697078516"><ele>199.75</ele><time>2026-04-12T14:39:43.999Z</time></trkpt><trkpt lat="46.00257320936517" lon="11.128475764442712"><ele>199.0</ele><time>2026-04-12T14:39:44.999Z</time></trkpt><trkpt lat="46.00252335178398" lon="11.128294656713273"><ele>197.75</ele><time>2026-04-12T14:39:45.999Z</time></trkpt><trkpt lat="46.00248275931654" lon="11.128111370773924"><ele>196.5</ele><time>2026-04-12T14:39:46.999Z</time></trkpt><trkpt lat="46.00246250826585" lon="11.127920813588185"><ele>195.25</ele><time>2026-04-12T14:39:47.999Z</time></trkpt><trkpt lat="46.002455876248646" lon="11.127731843332931"><ele>194.0</ele><time>2026-04-12T14:39:48.999Z</time></trkpt><trkpt lat="46.00244989808163" lon="11.1275512454299"><ele>193.79999999999998</ele><time>2026-04-12T14:39:49.999Z</time></trkpt><trkpt lat="46.00244484837409" lon="11.127380433455038"><ele>193.6</ele><time>2026-04-12T14:39:50.999Z</time></trkpt><trkpt lat="46.002438113858595" lon="11.127229556390189"><ele>193.4</ele><time>2026-04-12T14:39:51.999Z</time></trkpt><trkpt lat="46.00244034346961" lon="11.127080309888434"><ele>193.2</ele><time>2026-04-12T14:39:52.999Z</time></trkpt><trkpt lat="46.00243923399698" lon="11.126968511837664"><ele>193.0</ele><time>2026-04-12T14:39:53.999Z</time></trkpt><trkpt lat="46.00243618984139" lon="11.126823734120778"><ele>193.0</ele><time>2026-04-12T14:39:55.999Z</time></trkpt><trkpt lat="46.00243484630879" lon="11.126724759711651"><ele>193.0</ele><time>2026-04-12T14:39:59.999Z</time></trkpt><trkpt lat="46.00228136825366" lon="11.126633316047545"><ele>193.0</ele><time>2026-04-12T14:40:02.999Z</time></trkpt><trkpt lat="46.00217282127769" lon="11.126581819050566"><ele>193.0</ele><time>2026-04-12T14:40:04.999Z</time></trkpt><trkpt lat="46.002155529837204" lon="11.126487733861229"><ele>193.0</ele><time>2026-04-12T14:40:06.999Z</time></trkpt><trkpt lat="46.002155677991624" lon="11.126367757300267"><ele>192.33333333333331</ele><time>2026-04-12T14:40:12.999Z</time></trkpt><trkpt lat="46.002007070487146" lon="11.12628173245357"><ele>191.66666666666666</ele><time>2026-04-12T14:40:13.999Z</time></trkpt><trkpt lat="46.001860704044994" lon="11.126257865271626"><ele>191.0</ele><time>2026-04-12T14:40:14.999Z</time></trkpt><trkpt lat="46.00167418287579" lon="11.126244996561887"><ele>190.0</ele><time>2026-04-12T14:40:15.999Z</time></trkpt><trkpt lat="46.00150100952746" lon="11.126234933508288"><ele>189.0</ele><time>2026-04-12T14:40:16.999Z</time></trkpt><trkpt lat="46.001354317716746" lon="11.126228173593322"><ele>188.0</ele><time>2026-04-12T14:40:17.999Z</time></trkpt><trkpt lat="46.00122133663308" lon="11.126224274951444"><ele>188.0</ele><time>2026-04-12T14:40:18.999Z</time></trkpt><trkpt lat="46.00109390308165" lon="11.12621117249763"><ele>188.0</ele><time>2026-04-12T14:40:19.999Z</time></trkpt><trkpt lat="46.00097511020409" lon="11.126215987125562"><ele>188.0</ele><time>2026-04-12T14:40:20.999Z</time></trkpt><trkpt lat="46.00085829025054" lon="11.126224343507921"><ele>188.0</ele><time>2026-04-12T14:40:21.999Z</time></trkpt><trkpt lat="46.00073840379994" lon="11.126256147552512"><ele>188.0</ele><time>2026-04-12T14:40:22.999Z</time></trkpt><trkpt lat="46.00061104264899" lon="11.126260921625322"><ele>188.0</ele><time>2026-04-12T14:40:23.999Z</time></trkpt><trkpt lat="46.0004672048478" lon="11.12626906789208"><ele>188.0</ele><time>2026-04-12T14:40:24.999Z</time></trkpt><trkpt lat="46.00031064685793" lon="11.126288130829204"><ele>188.0</ele><time>2026-04-12T14:40:25.999Z</time></trkpt><trkpt lat="46.00013992999679" lon="11.126312815068749"><ele>188.0</ele><time>2026-04-12T14:40:26.999Z</time></trkpt><trkpt lat="45.999972881341186" lon="11.126331887179463"><ele>188.0</ele><time>2026-04-12T14:40:27.999Z</time></trkpt><trkpt lat="45.9998102922718" lon="11.12634755961437"><ele>188.0</ele><time>2026-04-12T14:40:28.999Z</time></trkpt><trkpt lat="45.9996312034637" lon="11.126347620829275"><ele>188.0</ele><time>2026-04-12T14:40:29.999Z</time></trkpt><trkpt lat="45.99945615966049" lon="11.12631858602426"><ele>188.0</ele><time>2026-04-12T14:40:30.999Z</time></trkpt><trkpt lat="45.99927774701196" lon="11.126257843898381"><ele>188.0</ele><time>2026-04-12T14:40:31.999Z</time></trkpt><trkpt lat="45.99909771638453" lon="11.126191592718701"><ele>188.66666666666666</ele><time>2026-04-12T14:40:32.999Z</time></trkpt><trkpt lat="45.998931649674596" lon="11.126108200988579"><ele>189.33333333333334</ele><time>2026-04-12T14:40:33.999Z</time></trkpt><trkpt lat="45.998782873502094" lon="11.126016735426003"><ele>190.0</ele><time>2026-04-12T14:40:34.999Z</time></trkpt><trkpt lat="45.99864353925482" lon="11.125901682998188"><ele>190.0</ele><time>2026-04-12T14:40:35.999Z</time></trkpt><trkpt lat="45.99852665248902" lon="11.12575718532399"><ele>190.0</ele><time>2026-04-12T14:40:36.998Z</time></trkpt><trkpt lat="45.99840973904133" lon="11.125597004158948"><ele>190.0</ele><time>2026-04-12T14:40:37.998Z</time></trkpt><trkpt lat="45.99828961947773" lon="11.12543250522938"><ele>189.0</ele><time>2026-04-12T14:40:38.998Z</time></trkpt><trkpt lat="45.998165282639846" lon="11.125260886760737"><ele>188.0</ele><time>2026-04-12T14:40:39.998Z</time></trkpt><trkpt lat="45.99803782941935" lon="11.125094374210475"><ele>187.0</ele><time>2026-04-12T14:40:40.998Z</time></trkpt><trkpt lat="45.997917343533324" lon="11.124932137708715"><ele>186.25</ele><time>2026-04-12T14:40:41.998Z</time></trkpt><trkpt lat="45.99780033477891" lon="11.124772362184455"><ele>185.5</ele><time>2026-04-12T14:40:42.998Z</time></trkpt><trkpt lat="45.99769668217558" lon="11.1246293800273"><ele>184.75</ele><time>2026-04-12T14:40:43.998Z</time></trkpt><trkpt lat="45.997605155660736" lon="11.124494266378687"><ele>184.0</ele><time>2026-04-12T14:40:44.998Z</time></trkpt><trkpt lat="45.997518276368695" lon="11.12436999942286"><ele>184.66666666666669</ele><time>2026-04-12T14:40:45.998Z</time></trkpt><trkpt lat="45.99744967158998" lon="11.124275952658351"><ele>185.33333333333334</ele><time>2026-04-12T14:40:46.998Z</time></trkpt><trkpt lat="45.99739758479631" lon="11.124206921126174"><ele>186.0</ele><time>2026-04-12T14:40:47.998Z</time></trkpt><trkpt lat="45.997323966551434" lon="11.12412491328512"><ele>186.66666666666666</ele><time>2026-04-12T14:40:49.998Z</time></trkpt><trkpt lat="45.99726979651027" lon="11.124076307595566"><ele>187.33333333333331</ele><time>2026-04-12T14:40:53.998Z</time></trkpt><trkpt lat="45.9971874956242" lon="11.1240347052529"><ele>188.0</ele><time>2026-04-12T14:41:10Z</time></trkpt><trkpt lat="45.99711579283968" lon="11.12399269278438"><ele>188.0</ele><time>2026-04-12T14:41:11Z</time></trkpt><trkpt lat="45.997018714395445" lon="11.123945707686055"><ele>188.0</ele><time>2026-04-12T14:41:12Z</time></trkpt><trkpt lat="45.99692750701271" lon="11.123932742242074"><ele>188.0</ele><time>2026-04-12T14:41:13Z</time></trkpt><trkpt lat="45.99684018665761" lon="11.123890910935836"><ele>188.0</ele><time>2026-04-12T14:41:14Z</time></trkpt><trkpt lat="45.996763340506305" lon="11.123859743674442"><ele>188.0</ele><time>2026-04-12T14:41:15Z</time></trkpt><trkpt lat="45.99669607781456" lon="11.123834520889643"><ele>188.0</ele><time>2026-04-12T14:41:16Z</time></trkpt><trkpt lat="45.996586533230264" lon="11.123798515940605"><ele>188.33333333333331</ele><time>2026-04-12T14:41:18Z</time></trkpt><trkpt lat="45.99647759179914" lon="11.123763910162948"><ele>188.66666666666666</ele><time>2026-04-12T14:41:20Z</time></trkpt><trkpt lat="45.99637573787414" lon="11.123735936110103"><ele>189.0</ele><time>2026-04-12T14:41:22Z</time></trkpt><trkpt lat="45.99630364501811" lon="11.12370987263287"><ele>189.33333333333334</ele><time>2026-04-12T14:41:24Z</time></trkpt><trkpt lat="45.99626406174407" lon="11.12379274898822"><ele>189.66666666666669</ele><time>2026-04-12T14:41:28Z</time></trkpt><trkpt lat="45.99633428890945" lon="11.123807027822153"><ele>190.0</ele><time>2026-04-12T14:41:31Z</time></trkpt><trkpt lat="45.99644301217865" lon="11.123793384288447"><ele>190.0</ele><time>2026-04-12T14:43:37Z</time></trkpt><trkpt lat="45.99650978368857" lon="11.123801170578705"><ele>190.0</ele><time>2026-04-12T14:43:38Z</time></trkpt><trkpt lat="45.99657730888432" lon="11.1238152526716"><ele>190.0</ele><time>2026-04-12T14:43:39Z</time></trkpt><trkpt lat="45.99665610376875" lon="11.123838429039946"><ele>190.0</ele><time>2026-04-12T14:43:40Z</time></trkpt><trkpt lat="45.99674165537049" lon="11.123883025681511"><ele>190.0</ele><time>2026-04-12T14:43:41Z</time></trkpt><trkpt lat="45.996845268781996" lon="11.123932506441164"><ele>190.0</ele><time>2026-04-12T14:43:42Z</time></trkpt><trkpt lat="45.99695031676744" lon="11.123982833924753"><ele>190.0</ele><time>2026-04-12T14:43:43Z</time></trkpt><trkpt lat="45.99705864084374" lon="11.124035256928025"><ele>190.0</ele><time>2026-04-12T14:43:44Z</time></trkpt><trkpt lat="45.997166167698644" lon="11.124104112938095"><ele>190.0</ele><time>2026-04-12T14:43:45Z</time></trkpt><trkpt lat="45.99727913137453" lon="11.124186747277285"><ele>190.0</ele><time>2026-04-12T14:43:46Z</time></trkpt><trkpt lat="45.99738569108951" lon="11.12429254665211"><ele>190.0</ele><time>2026-04-12T14:43:47Z</time></trkpt><trkpt lat="45.9974995640002" lon="11.124428341118325"><ele>190.0</ele><time>2026-04-12T14:43:48Z</time></trkpt><trkpt lat="45.99762327475964" lon="11.124590930632055"><ele>190.0</ele><time>2026-04-12T14:43:49Z</time></trkpt><trkpt lat="45.99774908208316" lon="11.124760739352897"><ele>189.0</ele><time>2026-04-12T14:43:49.999Z</time></trkpt><trkpt lat="45.99787987644173" lon="11.124937208951268"><ele>188.0</ele><time>2026-04-12T14:43:50.999Z</time></trkpt><trkpt lat="45.99800859039882" lon="11.12511383113296"><ele>187.0</ele><time>2026-04-12T14:43:51.999Z</time></trkpt><trkpt lat="45.99813102032739" lon="11.125281626477125"><ele>187.0</ele><time>2026-04-12T14:43:52.999Z</time></trkpt><trkpt lat="45.99824549421627" lon="11.125437594967023"><ele>187.0</ele><time>2026-04-12T14:43:53.999Z</time></trkpt><trkpt lat="45.99835317534405" lon="11.125587116278748"><ele>187.0</ele><time>2026-04-12T14:43:54.999Z</time></trkpt><trkpt lat="45.99846116596386" lon="11.12572801388992"><ele>188.0</ele><time>2026-04-12T14:43:55.999Z</time></trkpt><trkpt lat="45.998575597606944" lon="11.125873183277214"><ele>189.0</ele><time>2026-04-12T14:43:56.999Z</time></trkpt><trkpt lat="45.99870586237454" lon="11.126010022184502"><ele>190.0</ele><time>2026-04-12T14:43:57.999Z</time></trkpt><trkpt lat="45.99886138848414" lon="11.126118607401958"><ele>190.0</ele><time>2026-04-12T14:43:58.999Z</time></trkpt><trkpt lat="45.999038557714236" lon="11.126206516205908"><ele>190.0</ele><time>2026-04-12T14:43:59.999Z</time></trkpt><trkpt lat="45.99920172114792" lon="11.126271183905043"><ele>190.0</ele><time>2026-04-12T14:44:00.999Z</time></trkpt><trkpt lat="45.99936398334534" lon="11.126337564374403"><ele>189.33333333333334</ele><time>2026-04-12T14:44:01.999Z</time></trkpt><trkpt lat="45.99953776219489" lon="11.126377180086468"><ele>188.66666666666666</ele><time>2026-04-12T14:44:02.999Z</time></trkpt><trkpt lat="45.99971854594339" lon="11.126392053710573"><ele>188.0</ele><time>2026-04-12T14:44:03.999Z</time></trkpt><trkpt lat="45.99989408609057" lon="11.126382237707073"><ele>188.0</ele><time>2026-04-12T14:44:04.999Z</time></trkpt><trkpt lat="46.0000546269465" lon="11.126359205111203"><ele>188.0</ele><time>2026-04-12T14:44:05.999Z</time></trkpt><trkpt lat="46.00020722582362" lon="11.126340493086694"><ele>188.0</ele><time>2026-04-12T14:44:06.999Z</time></trkpt><trkpt lat="46.0003596086033" lon="11.126325701149321"><ele>188.0</ele><time>2026-04-12T14:44:07.999Z</time></trkpt><trkpt lat="46.00051674264812" lon="11.126305481105843"><ele>188.0</ele><time>2026-04-12T14:44:08.999Z</time></trkpt><trkpt lat="46.000673709594544" lon="11.126292708099976"><ele>188.0</ele><time>2026-04-12T14:44:09.999Z</time></trkpt><trkpt lat="46.00082136543926" lon="11.126282414225257"><ele>188.0</ele><time>2026-04-12T14:44:10.999Z</time></trkpt><trkpt lat="46.000966784634336" lon="11.126274457635173"><ele>188.0</ele><time>2026-04-12T14:44:11.999Z</time></trkpt><trkpt lat="46.00111291266012" lon="11.126274902659905"><ele>188.0</ele><time>2026-04-12T14:44:12.999Z</time></trkpt><trkpt lat="46.00125517380279" lon="11.126281758748805"><ele>188.0</ele><time>2026-04-12T14:44:13.999Z</time></trkpt><trkpt lat="46.001401835028595" lon="11.126291647205022"><ele>188.0</ele><time>2026-04-12T14:44:14.999Z</time></trkpt><trkpt lat="46.001552330374125" lon="11.126306141359766"><ele>188.0</ele><time>2026-04-12T14:44:15.999Z</time></trkpt><trkpt lat="46.00170521413507" lon="11.12631725974836"><ele>188.0</ele><time>2026-04-12T14:44:16.999Z</time></trkpt><trkpt lat="46.00185757885586" lon="11.12633026731684"><ele>188.75</ele><time>2026-04-12T14:44:17.999Z</time></trkpt><trkpt lat="46.00201220755844" lon="11.126347876755542"><ele>189.5</ele><time>2026-04-12T14:44:18.999Z</time></trkpt><trkpt lat="46.00215892961613" lon="11.126364439551377"><ele>190.25</ele><time>2026-04-12T14:44:19.999Z</time></trkpt><trkpt lat="46.00230541683574" lon="11.126381302172856"><ele>191.0</ele><time>2026-04-12T14:44:20.999Z</time></trkpt><trkpt lat="46.00245233012834" lon="11.126397046438719"><ele>191.0</ele><time>2026-04-12T14:44:21.999Z</time></trkpt><trkpt lat="46.002599684048576" lon="11.126404772038892"><ele>191.0</ele><time>2026-04-12T14:44:22.999Z</time></trkpt><trkpt lat="46.00274919434697" lon="11.126415397144072"><ele>191.0</ele><time>2026-04-12T14:44:23.999Z</time></trkpt><trkpt lat="46.00289771813933" lon="11.126430939048383"><ele>191.0</ele><time>2026-04-12T14:44:24.999Z</time></trkpt><trkpt lat="46.00304445581381" lon="11.126446476793857"><ele>191.0</ele><time>2026-04-12T14:44:25.999Z</time></trkpt><trkpt lat="46.00319273780985" lon="11.126451148759378"><ele>191.0</ele><time>2026-04-12T14:44:26.999Z</time></trkpt><trkpt lat="46.003350213580916" lon="11.12644534763919"><ele>191.0</ele><time>2026-04-12T14:44:27.999Z</time></trkpt><trkpt lat="46.003504638371005" lon="11.126454496928666"><ele>191.25</ele><time>2026-04-12T14:44:28.999Z</time></trkpt><trkpt lat="46.00365300742369" lon="11.126471816582198"><ele>191.5</ele><time>2026-04-12T14:44:29.999Z</time></trkpt><trkpt lat="46.003797837592465" lon="11.126490294926487"><ele>191.75</ele><time>2026-04-12T14:44:30.999Z</time></trkpt><trkpt lat="46.00394323680783" lon="11.126506225937197"><ele>192.0</ele><time>2026-04-12T14:44:31.999Z</time></trkpt><trkpt lat="46.0040840179528" lon="11.126523937029198"><ele>192.0</ele><time>2026-04-12T14:44:32.999Z</time></trkpt><trkpt lat="46.00422917594479" lon="11.126542769512334"><ele>192.0</ele><time>2026-04-12T14:44:33.999Z</time></trkpt><trkpt lat="46.004376887819376" lon="11.126562539774392"><ele>192.0</ele><time>2026-04-12T14:44:34.999Z</time></trkpt><trkpt lat="46.00451672327628" lon="11.126575118912514"><ele>192.0</ele><time>2026-04-12T14:44:35.999Z</time></trkpt><trkpt lat="46.004653876256" lon="11.126584711291276"><ele>192.5</ele><time>2026-04-12T14:44:36.999Z</time></trkpt><trkpt lat="46.00478352779565" lon="11.126598335763584"><ele>193.0</ele><time>2026-04-12T14:44:37.999Z</time></trkpt><trkpt lat="46.00490885156868" lon="11.12661103187647"><ele>193.5</ele><time>2026-04-12T14:44:38.999Z</time></trkpt><trkpt lat="46.005031433349735" lon="11.126628723749759"><ele>194.0</ele><time>2026-04-12T14:44:39.999Z</time></trkpt><trkpt lat="46.00515778328433" lon="11.126654572893926"><ele>194.0</ele><time>2026-04-12T14:44:40.999Z</time></trkpt><trkpt lat="46.00528939139591" lon="11.126676362555893"><ele>194.0</ele><time>2026-04-12T14:44:41.999Z</time></trkpt><trkpt lat="46.005424709561645" lon="11.126689588455372"><ele>194.0</ele><time>2026-04-12T14:44:42.999Z</time></trkpt><trkpt lat="46.005559047266885" lon="11.12669500474065"><ele>194.0</ele><time>2026-04-12T14:44:43.999Z</time></trkpt><trkpt lat="46.005692804292046" lon="11.126701825748949"><ele>194.0</ele><time>2026-04-12T14:44:44.999Z</time></trkpt><trkpt lat="46.00582006413732" lon="11.126713841187918"><ele>194.0</ele><time>2026-04-12T14:44:45.999Z</time></trkpt><trkpt lat="46.00594743597322" lon="11.126720355612207"><ele>194.0</ele><time>2026-04-12T14:44:46.999Z</time></trkpt><trkpt lat="46.00606817066541" lon="11.126729739183194"><ele>194.0</ele><time>2026-04-12T14:44:47.999Z</time></trkpt><trkpt lat="46.006186178303665" lon="11.126739392518862"><ele>194.0</ele><time>2026-04-12T14:44:48.999Z</time></trkpt><trkpt lat="46.006289634371136" lon="11.126749268003307"><ele>194.0</ele><time>2026-04-12T14:44:49.998Z</time></trkpt><trkpt lat="46.00638799360961" lon="11.126758761190347"><ele>194.0</ele><time>2026-04-12T14:44:50.998Z</time></trkpt><trkpt lat="46.00649160025954" lon="11.12676876515487"><ele>194.0</ele><time>2026-04-12T14:44:51.998Z</time></trkpt><trkpt lat="46.00658986644338" lon="11.12678122633452"><ele>194.0</ele><time>2026-04-12T14:44:52.998Z</time></trkpt><trkpt lat="46.00667600795489" lon="11.126791582663355"><ele>194.00000000000003</ele><time>2026-04-12T14:44:53.998Z</time></trkpt><trkpt lat="46.00676465250887" lon="11.126797094292828"><ele>194.0</ele><time>2026-04-12T14:44:54.998Z</time></trkpt><trkpt lat="46.00684775540153" lon="11.126803625839708"><ele>194.0</ele><time>2026-04-12T14:44:55.998Z</time></trkpt><trkpt lat="46.006923361647914" lon="11.126811747638833"><ele>194.0</ele><time>2026-04-12T14:44:56.998Z</time></trkpt><trkpt lat="46.006994002035334" lon="11.126821662571913"><ele>194.00000000000003</ele><time>2026-04-12T14:44:57.998Z</time></trkpt><trkpt lat="46.007059896586796" lon="11.126818472485883"><ele>194.0</ele><time>2026-04-12T14:44:58.998Z</time></trkpt><trkpt lat="46.007126791241156" lon="11.126785492124819"><ele>194.0</ele><time>2026-04-12T14:44:59.998Z</time></trkpt><trkpt lat="46.00720971658721" lon="11.126650591942498"><ele>194.0</ele><time>2026-04-12T14:45:01.998Z</time></trkpt><trkpt lat="46.00725376488597" lon="11.126566437248343"><ele>194.0</ele><time>2026-04-12T14:45:02.998Z</time></trkpt><trkpt lat="46.00730558463668" lon="11.126476488580803"><ele>194.0</ele><time>2026-04-12T14:45:03.998Z</time></trkpt><trkpt lat="46.00736762069199" lon="11.12637361864112"><ele>194.0</ele><time>2026-04-12T14:45:04.998Z</time></trkpt><trkpt lat="46.007431217746344" lon="11.126271846463919"><ele>193.33333333333334</ele><time>2026-04-12T14:45:05.998Z</time></trkpt><trkpt lat="46.00748505478384" lon="11.126171009325759"><ele>192.66666666666669</ele><time>2026-04-12T14:45:06.998Z</time></trkpt><trkpt lat="46.00753994214305" lon="11.12606863563438"><ele>192.0</ele><time>2026-04-12T14:45:07.998Z</time></trkpt><trkpt lat="46.00758962318071" lon="11.125968806882751"><ele>191.33333333333334</ele><time>2026-04-12T14:45:09Z</time></trkpt><trkpt lat="46.00763959419154" lon="11.125875411127295"><ele>190.66666666666669</ele><time>2026-04-12T14:45:10Z</time></trkpt><trkpt lat="46.007701568027635" lon="11.12579458231046"><ele>190.0</ele><time>2026-04-12T14:45:11Z</time></trkpt><trkpt lat="46.007778933116015" lon="11.125735557948742"><ele>189.4</ele><time>2026-04-12T14:45:12Z</time></trkpt><trkpt lat="46.00787154574433" lon="11.12571147524138"><ele>188.8</ele><time>2026-04-12T14:45:13Z</time></trkpt><trkpt lat="46.007983303687844" lon="11.12572001876353"><ele>188.2</ele><time>2026-04-12T14:45:14Z</time></trkpt><trkpt lat="46.00808152165206" lon="11.125749469193904"><ele>187.6</ele><time>2026-04-12T14:45:15Z</time></trkpt><trkpt lat="46.008196500651664" lon="11.125780345692892"><ele>187.0</ele><time>2026-04-12T14:45:16Z</time></trkpt><trkpt lat="46.00831035127813" lon="11.125812997461772"><ele>186.75</ele><time>2026-04-12T14:45:17Z</time></trkpt><trkpt lat="46.00841756461571" lon="11.125838636395784"><ele>186.5</ele><time>2026-04-12T14:45:18Z</time></trkpt><trkpt lat="46.00853360481462" lon="11.125845054918162"><ele>186.25</ele><time>2026-04-12T14:45:19Z</time></trkpt><trkpt lat="46.008657752648176" lon="11.125856997903078"><ele>186.0</ele><time>2026-04-12T14:45:20Z</time></trkpt><trkpt lat="46.00877170614604" lon="11.125871785840644"><ele>186.0</ele><time>2026-04-12T14:45:21Z</time></trkpt><trkpt lat="46.008870098295574" lon="11.125886223807624"><ele>186.0</ele><time>2026-04-12T14:45:22Z</time></trkpt><trkpt lat="46.0089503565022" lon="11.125897835002872"><ele>186.0</ele><time>2026-04-12T14:45:23Z</time></trkpt><trkpt lat="46.009042794030044" lon="11.125977788589804"><ele>186.0</ele><time>2026-04-12T14:45:25Z</time></trkpt><trkpt lat="46.0089957936807" lon="11.126174209701826"><ele>186.0</ele><time>2026-04-12T14:45:27Z</time></trkpt><trkpt lat="46.00896921569166" lon="11.126305539005278"><ele>186.0</ele><time>2026-04-12T14:45:28Z</time></trkpt><trkpt lat="46.00896239685068" lon="11.126428152162289"><ele>186.0</ele><time>2026-04-12T14:45:29Z</time></trkpt><trkpt lat="46.00898951619453" lon="11.126535259313167"><ele>186.0</ele><time>2026-04-12T14:45:30Z</time></trkpt><trkpt lat="46.00905261483296" lon="11.12662320745703"><ele>186.0</ele><time>2026-04-12T14:45:31Z</time></trkpt><trkpt lat="46.00914117151922" lon="11.126677632178174"><ele>186.0</ele><time>2026-04-12T14:45:32Z</time></trkpt><trkpt lat="46.00923144832727" lon="11.126724603448995"><ele>186.0</ele><time>2026-04-12T14:45:33Z</time></trkpt><trkpt lat="46.00933003758522" lon="11.126785589122367"><ele>185.60000000000002</ele><time>2026-04-12T14:45:34Z</time></trkpt><trkpt lat="46.009440256899666" lon="11.126851220466744"><ele>185.2</ele><time>2026-04-12T14:45:35Z</time></trkpt><trkpt lat="46.009545091973536" lon="11.126908160106291"><ele>184.8</ele><time>2026-04-12T14:45:36Z</time></trkpt><trkpt lat="46.00964265880952" lon="11.126961325764617"><ele>184.39999999999998</ele><time>2026-04-12T14:45:37Z</time></trkpt><trkpt lat="46.009733615457385" lon="11.127009582913281"><ele>184.0</ele><time>2026-04-12T14:45:38Z</time></trkpt><trkpt lat="46.00981640796299" lon="11.127052570342698"><ele>184.0</ele><time>2026-04-12T14:45:39Z</time></trkpt><trkpt lat="46.00989406578207" lon="11.1270920847957"><ele>184.0</ele><time>2026-04-12T14:45:40Z</time></trkpt><trkpt lat="46.00996253080525" lon="11.127130230438064"><ele>184.0</ele><time>2026-04-12T14:45:41Z</time></trkpt><trkpt lat="46.0100255599452" lon="11.127159773265076"><ele>184.0</ele><time>2026-04-12T14:45:42Z</time></trkpt><trkpt lat="46.010102560301185" lon="11.127198708136888"><ele>184.0</ele><time>2026-04-12T14:45:43Z</time></trkpt><trkpt lat="46.01018805450336" lon="11.127250343706752"><ele>184.0</ele><time>2026-04-12T14:45:44Z</time></trkpt><trkpt lat="46.010282121015834" lon="11.127307726014491"><ele>183.79999999999998</ele><time>2026-04-12T14:45:45Z</time></trkpt><trkpt lat="46.01038194982585" lon="11.127366767000938"><ele>183.6</ele><time>2026-04-12T14:45:46Z</time></trkpt><trkpt lat="46.010480221415655" lon="11.127440392892499"><ele>183.4</ele><time>2026-04-12T14:45:47Z</time></trkpt><trkpt lat="46.01057309905983" lon="11.127499993991716"><ele>183.2</ele><time>2026-04-12T14:45:48Z</time></trkpt><trkpt lat="46.01066578122802" lon="11.127555769146234"><ele>183.0</ele><time>2026-04-12T14:45:49Z</time></trkpt><trkpt lat="46.01076523213339" lon="11.127621339117212"><ele>183.5</ele><time>2026-04-12T14:45:50Z</time></trkpt><trkpt lat="46.010859537898995" lon="11.12768941563708"><ele>184.0</ele><time>2026-04-12T14:45:51Z</time></trkpt><trkpt lat="46.01095916836637" lon="11.127770378098164"><ele>184.5</ele><time>2026-04-12T14:45:52Z</time></trkpt><trkpt lat="46.011069781348304" lon="11.127884544243104"><ele>185.0</ele><time>2026-04-12T14:45:53Z</time></trkpt><trkpt lat="46.01116789800876" lon="11.127956851663216"><ele>185.0</ele><time>2026-04-12T14:45:54Z</time></trkpt><trkpt lat="46.01127531394662" lon="11.12804267484252"><ele>185.0</ele><time>2026-04-12T14:45:55Z</time></trkpt><trkpt lat="46.0113882785009" lon="11.128137800760545"><ele>185.0</ele><time>2026-04-12T14:45:55.999Z</time></trkpt><trkpt lat="46.01149380008666" lon="11.128224271874588"><ele>185.0</ele><time>2026-04-12T14:45:56.999Z</time></trkpt><trkpt lat="46.01160340257516" lon="11.128319182250188"><ele>185.0</ele><time>2026-04-12T14:45:57.999Z</time></trkpt><trkpt lat="46.0117073386179" lon="11.128413451943954"><ele>185.0</ele><time>2026-04-12T14:45:58.999Z</time></trkpt><trkpt lat="46.01181381527487" lon="11.128506791393011"><ele>185.0</ele><time>2026-04-12T14:45:59.999Z</time></trkpt><trkpt lat="46.01190888721642" lon="11.128594210219983"><ele>185.0</ele><time>2026-04-12T14:46:00.999Z</time></trkpt><trkpt lat="46.011999219028155" lon="11.128671086373162"><ele>185.0</ele><time>2026-04-12T14:46:01.999Z</time></trkpt><trkpt lat="46.01208043623951" lon="11.12873730487205"><ele>185.0</ele><time>2026-04-12T14:46:02.999Z</time></trkpt><trkpt lat="46.01217084646999" lon="11.128797127637968"><ele>185.0</ele><time>2026-04-12T14:46:03.999Z</time></trkpt><trkpt lat="46.01226591718266" lon="11.128863873038227"><ele>185.0</ele><time>2026-04-12T14:46:04.999Z</time></trkpt><trkpt lat="46.0123630906545" lon="11.128936520523567"><ele>185.0</ele><time>2026-04-12T14:46:05.999Z</time></trkpt><trkpt lat="46.01246374050576" lon="11.129018311121557"><ele>184.75</ele><time>2026-04-12T14:46:06.999Z</time></trkpt><trkpt lat="46.012570171793556" lon="11.129111029164699"><ele>184.5</ele><time>2026-04-12T14:46:07.999Z</time></trkpt><trkpt lat="46.01267766886818" lon="11.129204148344135"><ele>184.25</ele><time>2026-04-12T14:46:08.999Z</time></trkpt><trkpt lat="46.01278290084653" lon="11.129307152174244"><ele>184.0</ele><time>2026-04-12T14:46:09.999Z</time></trkpt><trkpt lat="46.01289136381614" lon="11.129421544758259"><ele>184.0</ele><time>2026-04-12T14:46:10.999Z</time></trkpt><trkpt lat="46.01300489125805" lon="11.129532339599907"><ele>184.0</ele><time>2026-04-12T14:46:11.999Z</time></trkpt><trkpt lat="46.01311693794107" lon="11.129649718709686"><ele>184.0</ele><time>2026-04-12T14:46:12.999Z</time></trkpt><trkpt lat="46.01322377258514" lon="11.129759942455868"><ele>184.0</ele><time>2026-04-12T14:46:13.999Z</time></trkpt><trkpt lat="46.01333077831361" lon="11.129871789082097"><ele>184.0</ele><time>2026-04-12T14:46:14.999Z</time></trkpt><trkpt lat="46.01343925473769" lon="11.129997763090444"><ele>184.0</ele><time>2026-04-12T14:46:15.999Z</time></trkpt><trkpt lat="46.01355758412409" lon="11.130115097950007"><ele>184.0</ele><time>2026-04-12T14:46:16.999Z</time></trkpt><trkpt lat="46.013675042604156" lon="11.130243120894658"><ele>184.0</ele><time>2026-04-12T14:46:17.999Z</time></trkpt><trkpt lat="46.01377613330768" lon="11.130358907007935"><ele>184.0</ele><time>2026-04-12T14:46:18.999Z</time></trkpt><trkpt lat="46.013872920385" lon="11.130471201531302"><ele>184.0</ele><time>2026-04-12T14:46:19.999Z</time></trkpt><trkpt lat="46.01396741912255" lon="11.130573419126588"><ele>184.0</ele><time>2026-04-12T14:46:20.999Z</time></trkpt><trkpt lat="46.01403836901983" lon="11.130678903022272"><ele>184.0</ele><time>2026-04-12T14:46:21.999Z</time></trkpt><trkpt lat="46.01409212981316" lon="11.130791182918676"><ele>184.0</ele><time>2026-04-12T14:46:22.999Z</time></trkpt><trkpt lat="46.014116965057895" lon="11.130914684790442"><ele>184.33333333333334</ele><time>2026-04-12T14:46:23.999Z</time></trkpt><trkpt lat="46.01407626970475" lon="11.131031128799888"><ele>184.66666666666669</ele><time>2026-04-12T14:46:24.999Z</time></trkpt><trkpt lat="46.014055624706266" lon="11.13115121603391"><ele>185.0</ele><time>2026-04-12T14:46:25.999Z</time></trkpt><trkpt lat="46.01404455117907" lon="11.131251480456266"><ele>185.33333333333334</ele><time>2026-04-12T14:46:26.999Z</time></trkpt><trkpt lat="46.013974499601844" lon="11.131389783520648"><ele>185.66666666666666</ele><time>2026-04-12T14:46:28.999Z</time></trkpt><trkpt lat="46.01391012534074" lon="11.131443360739267"><ele>186.0</ele><time>2026-04-12T14:46:29.999Z</time></trkpt><trkpt lat="46.01381834440523" lon="11.131474901498295"><ele>186.0</ele><time>2026-04-12T14:46:30.999Z</time></trkpt><trkpt lat="46.01371718171389" lon="11.13146426534211"><ele>186.0</ele><time>2026-04-12T14:46:31.999Z</time></trkpt><trkpt lat="46.013606216533496" lon="11.131406622218954"><ele>186.0</ele><time>2026-04-12T14:46:32.999Z</time></trkpt><trkpt lat="46.013494873538974" lon="11.131318867314283"><ele>186.0</ele><time>2026-04-12T14:46:33.999Z</time></trkpt><trkpt lat="46.013388989978175" lon="11.131242890147053"><ele>186.25</ele><time>2026-04-12T14:46:34.999Z</time></trkpt><trkpt lat="46.013284148528086" lon="11.131181013349257"><ele>186.5</ele><time>2026-04-12T14:46:35.999Z</time></trkpt><trkpt lat="46.013165539743866" lon="11.131124402426222"><ele>186.75</ele><time>2026-04-12T14:46:36.999Z</time></trkpt><trkpt lat="46.013043775214506" lon="11.13105521471281"><ele>187.0</ele><time>2026-04-12T14:46:37.999Z</time></trkpt><trkpt lat="46.01291719537676" lon="11.130983465770734"><ele>187.0</ele><time>2026-04-12T14:46:38.999Z</time></trkpt><trkpt lat="46.01278583692693" lon="11.130927157554073"><ele>187.0</ele><time>2026-04-12T14:46:39.999Z</time></trkpt><trkpt lat="46.01263644158285" lon="11.130849372088694"><ele>187.0</ele><time>2026-04-12T14:46:40.999Z</time></trkpt><trkpt lat="46.01249561913304" lon="11.130781048845042"><ele>187.0</ele><time>2026-04-12T14:46:41.999Z</time></trkpt><trkpt lat="46.01236053147172" lon="11.13069812034868"><ele>187.5</ele><time>2026-04-12T14:46:42.999Z</time></trkpt><trkpt lat="46.012228545553" lon="11.130619492428558"><ele>188.0</ele><time>2026-04-12T14:46:43.999Z</time></trkpt><trkpt lat="46.01210154574601" lon="11.130517979135277"><ele>188.5</ele><time>2026-04-12T14:46:44.999Z</time></trkpt><trkpt lat="46.0119592379595" lon="11.130433503681301"><ele>189.0</ele><time>2026-04-12T14:46:45.999Z</time></trkpt><trkpt lat="46.01181972234862" lon="11.130376064621432"><ele>189.0</ele><time>2026-04-12T14:46:46.999Z</time></trkpt><trkpt lat="46.011699973773126" lon="11.130279438618235"><ele>189.0</ele><time>2026-04-12T14:46:47.999Z</time></trkpt><trkpt lat="46.01158607803837" lon="11.130235338064226"><ele>189.0</ele><time>2026-04-12T14:46:48.999Z</time></trkpt><trkpt lat="46.01147860349758" lon="11.13014486953559"><ele>189.0</ele><time>2026-04-12T14:46:49.999Z</time></trkpt><trkpt lat="46.011367070857645" lon="11.130087736619897"><ele>189.0</ele><time>2026-04-12T14:46:50.999Z</time></trkpt><trkpt lat="46.01125102234582" lon="11.130010294548075"><ele>189.0</ele><time>2026-04-12T14:46:51.999Z</time></trkpt><trkpt lat="46.01114568136797" lon="11.129922811398515"><ele>189.0</ele><time>2026-04-12T14:46:52.999Z</time></trkpt><trkpt lat="46.01105372568194" lon="11.129839711833725"><ele>189.0</ele><time>2026-04-12T14:46:53.999Z</time></trkpt><trkpt lat="46.010946232712264" lon="11.129751205360503"><ele>189.0</ele><time>2026-04-12T14:46:54.998Z</time></trkpt><trkpt lat="46.010853430498706" lon="11.129647893533132"><ele>189.0</ele><time>2026-04-12T14:46:55.998Z</time></trkpt><trkpt lat="46.010756270583265" lon="11.129552889118246"><ele>189.0</ele><time>2026-04-12T14:46:56.998Z</time></trkpt><trkpt lat="46.01066203611384" lon="11.129458264956517"><ele>189.0</ele><time>2026-04-12T14:46:57.998Z</time></trkpt><trkpt lat="46.01057617427513" lon="11.12935630345689"><ele>189.0</ele><time>2026-04-12T14:46:58.998Z</time></trkpt><trkpt lat="46.01047968316434" lon="11.12925992127444"><ele>189.0</ele><time>2026-04-12T14:46:59.998Z</time></trkpt><trkpt lat="46.01038382771221" lon="11.129153551259222"><ele>189.0</ele><time>2026-04-12T14:47:00.998Z</time></trkpt><trkpt lat="46.010296526861126" lon="11.129058879470644"><ele>189.0</ele><time>2026-04-12T14:47:01.998Z</time></trkpt><trkpt lat="46.01023973130366" lon="11.128943748534718"><ele>189.0</ele><time>2026-04-12T14:47:02.998Z</time></trkpt><trkpt lat="46.01017537899147" lon="11.128869373354526"><ele>189.0</ele><time>2026-04-12T14:47:03.998Z</time></trkpt><trkpt lat="46.01011060252747" lon="11.128796203083857"><ele>189.0</ele><time>2026-04-12T14:47:04.998Z</time></trkpt><trkpt lat="46.0100302457333" lon="11.128705433561326"><ele>189.0</ele><time>2026-04-12T14:47:05.998Z</time></trkpt><trkpt lat="46.00992079964531" lon="11.128583501588686"><ele>189.0</ele><time>2026-04-12T14:47:06.998Z</time></trkpt><trkpt lat="46.009784857917076" lon="11.128463766479515"><ele>189.5</ele><time>2026-04-12T14:47:07.998Z</time></trkpt><trkpt lat="46.00966710494247" lon="11.128334093293448"><ele>190.0</ele><time>2026-04-12T14:47:08.998Z</time></trkpt><trkpt lat="46.00955420864928" lon="11.128215010935094"><ele>190.5</ele><time>2026-04-12T14:47:09.998Z</time></trkpt><trkpt lat="46.009453155118514" lon="11.12810947647279"><ele>191.0</ele><time>2026-04-12T14:47:10.998Z</time></trkpt><trkpt lat="46.0093622667193" lon="11.128020548294026"><ele>190.83333333333331</ele><time>2026-04-12T14:47:11.998Z</time></trkpt><trkpt lat="46.009278699613006" lon="11.127945666689556"><ele>190.66666666666666</ele><time>2026-04-12T14:47:12.998Z</time></trkpt><trkpt lat="46.00920410539643" lon="11.12788307771743"><ele>190.5</ele><time>2026-04-12T14:47:13.998Z</time></trkpt><trkpt lat="46.009141061148135" lon="11.127830868383699"><ele>190.33333333333334</ele><time>2026-04-12T14:47:15Z</time></trkpt><trkpt lat="46.009055787934834" lon="11.127706000927239"><ele>190.16666666666669</ele><time>2026-04-12T14:47:17Z</time></trkpt><trkpt lat="46.00902776766542" lon="11.127614676728992"><ele>190.0</ele><time>2026-04-12T14:47:18Z</time></trkpt><trkpt lat="46.009017890809915" lon="11.127436347448835"><ele>189.4</ele><time>2026-04-12T14:47:20Z</time></trkpt><trkpt lat="46.009035756538545" lon="11.127315178077858"><ele>188.8</ele><time>2026-04-12T14:47:21Z</time></trkpt><trkpt lat="46.009060369234895" lon="11.12717237175906"><ele>188.2</ele><time>2026-04-12T14:47:22Z</time></trkpt><trkpt lat="46.00908622515868" lon="11.12701919335812"><ele>187.6</ele><time>2026-04-12T14:47:23Z</time></trkpt><trkpt lat="46.009111303437564" lon="11.126863595846109"><ele>187.0</ele><time>2026-04-12T14:47:24Z</time></trkpt><trkpt lat="46.009135502477385" lon="11.126708060940981"><ele>186.0</ele><time>2026-04-12T14:47:25Z</time></trkpt><trkpt lat="46.0091609866813" lon="11.126540540938855"><ele>185.0</ele><time>2026-04-12T14:47:26Z</time></trkpt><trkpt lat="46.00918998776798" lon="11.126364039184542"><ele>184.0</ele><time>2026-04-12T14:47:27Z</time></trkpt><trkpt lat="46.00921728803192" lon="11.12618887552267"><ele>183.0</ele><time>2026-04-12T14:47:28Z</time></trkpt><trkpt lat="46.00924676025849" lon="11.126014306596336"><ele>183.0</ele><time>2026-04-12T14:47:29Z</time></trkpt><trkpt lat="46.00927612509291" lon="11.12582644131985"><ele>183.0</ele><time>2026-04-12T14:47:30Z</time></trkpt><trkpt lat="46.00930116251858" lon="11.125644497306892"><ele>183.0</ele><time>2026-04-12T14:47:31Z</time></trkpt><trkpt lat="46.009328362316005" lon="11.125484016237309"><ele>183.0</ele><time>2026-04-12T14:47:32Z</time></trkpt><trkpt lat="46.009352345421334" lon="11.12532667273368"><ele>182.83333333333334</ele><time>2026-04-12T14:47:33Z</time></trkpt><trkpt lat="46.00937619490522" lon="11.125178552184247"><ele>182.66666666666666</ele><time>2026-04-12T14:47:34Z</time></trkpt><trkpt lat="46.00940151640336" lon="11.125039062053869"><ele>182.5</ele><time>2026-04-12T14:47:35Z</time></trkpt><trkpt lat="46.009420972190824" lon="11.124913592959263"><ele>182.33333333333331</ele><time>2026-04-12T14:47:36Z</time></trkpt><trkpt lat="46.00943627345478" lon="11.124809965959559"><ele>182.16666666666666</ele><time>2026-04-12T14:47:37Z</time></trkpt><trkpt lat="46.00945211695597" lon="11.124702241279664"><ele>182.0</ele><time>2026-04-12T14:47:39Z</time></trkpt><trkpt lat="46.009477804635836" lon="11.124588205919526"><ele>182.0</ele><time>2026-04-12T14:47:41Z</time></trkpt><trkpt lat="46.00934688586137" lon="11.124538809930073"><ele>182.0</ele><time>2026-04-12T14:47:44Z</time></trkpt><trkpt lat="46.00919464779414" lon="11.124488072388518"><ele>182.0</ele><time>2026-04-12T14:47:46Z</time></trkpt><trkpt lat="46.00906402055691" lon="11.124415352798465"><ele>182.0</ele><time>2026-04-12T14:47:47Z</time></trkpt><trkpt lat="46.00891649908766" lon="11.12434544427022"><ele>181.66666666666666</ele><time>2026-04-12T14:47:48Z</time></trkpt><trkpt lat="46.008748939424336" lon="11.12426829460312"><ele>181.33333333333334</ele><time>2026-04-12T14:47:49Z</time></trkpt><trkpt lat="46.00856451352695" lon="11.124191356107376"><ele>181.0</ele><time>2026-04-12T14:47:50Z</time></trkpt><trkpt lat="46.008373292240904" lon="11.124104446389165"><ele>180.66666666666669</ele><time>2026-04-12T14:47:51Z</time></trkpt><trkpt lat="46.00819767989967" lon="11.124028585335562"><ele>180.33333333333334</ele><time>2026-04-12T14:47:52Z</time></trkpt><trkpt lat="46.00802309345194" lon="11.123970856764423"><ele>180.0</ele><time>2026-04-12T14:47:53Z</time></trkpt><trkpt lat="46.007846058153596" lon="11.123917364098899"><ele>180.0</ele><time>2026-04-12T14:47:54Z</time></trkpt><trkpt lat="46.00766138524424" lon="11.123878432399112"><ele>180.0</ele><time>2026-04-12T14:47:55Z</time></trkpt><trkpt lat="46.00747138527641" lon="11.123851436477667"><ele>180.0</ele><time>2026-04-12T14:47:56Z</time></trkpt><trkpt lat="46.00727906794066" lon="11.123873828285454"><ele>180.33333333333334</ele><time>2026-04-12T14:47:57Z</time></trkpt><trkpt lat="46.007059751508706" lon="11.123823796824883"><ele>180.66666666666669</ele><time>2026-04-12T14:47:58Z</time></trkpt><trkpt lat="46.0068341408916" lon="11.123815561025271"><ele>181.0</ele><time>2026-04-12T14:47:59Z</time></trkpt><trkpt lat="46.006624575595474" lon="11.123788200156646"><ele>181.0</ele><time>2026-04-12T14:47:59.999Z</time></trkpt><trkpt lat="46.00642785629045" lon="11.123755102843475"><ele>181.0</ele><time>2026-04-12T14:48:00.999Z</time></trkpt><trkpt lat="46.00622199127095" lon="11.123746124517362"><ele>181.0</ele><time>2026-04-12T14:48:01.999Z</time></trkpt><trkpt lat="46.00601022387903" lon="11.123733585556396"><ele>181.33333333333334</ele><time>2026-04-12T14:48:02.999Z</time></trkpt><trkpt lat="46.005798698990176" lon="11.123709709505409"><ele>181.66666666666666</ele><time>2026-04-12T14:48:03.999Z</time></trkpt><trkpt lat="46.00558053824455" lon="11.123682018181878"><ele>182.0</ele><time>2026-04-12T14:48:04.999Z</time></trkpt><trkpt lat="46.005360897264644" lon="11.123644930056267"><ele>182.0</ele><time>2026-04-12T14:48:05.999Z</time></trkpt><trkpt lat="46.00513169164583" lon="11.123610890928774"><ele>182.0</ele><time>2026-04-12T14:48:06.999Z</time></trkpt><trkpt lat="46.00490213117592" lon="11.123578785498909"><ele>183.0</ele><time>2026-04-12T14:48:07.999Z</time></trkpt><trkpt lat="46.00466739074148" lon="11.12355182087261"><ele>184.0</ele><time>2026-04-12T14:48:08.999Z</time></trkpt><trkpt lat="46.004412187232006" lon="11.123527029449704"><ele>182.5</ele><time>2026-04-12T14:48:09.999Z</time></trkpt><trkpt lat="46.00414342297096" lon="11.123465210821953"><ele>181.0</ele><time>2026-04-12T14:48:10.999Z</time></trkpt><trkpt lat="46.003857294148055" lon="11.123424761156064"><ele>181.0</ele><time>2026-04-12T14:48:11.999Z</time></trkpt><trkpt lat="46.003589473495985" lon="11.123409524280174"><ele>181.0</ele><time>2026-04-12T14:48:12.999Z</time></trkpt><trkpt lat="46.00334209847519" lon="11.123374896950395"><ele>181.0</ele><time>2026-04-12T14:48:13.999Z</time></trkpt><trkpt lat="46.003093425368" lon="11.123316802997634"><ele>181.0</ele><time>2026-04-12T14:48:14.999Z</time></trkpt><trkpt lat="46.0028520537433" lon="11.12328269183988"><ele>181.0</ele><time>2026-04-12T14:48:15.999Z</time></trkpt><trkpt lat="46.00261752871733" lon="11.123249546220423"><ele>181.0</ele><time>2026-04-12T14:48:16.999Z</time></trkpt><trkpt lat="46.00238190278893" lon="11.123216245053015"><ele>180.33333333333334</ele><time>2026-04-12T14:48:17.999Z</time></trkpt><trkpt lat="46.00215869330488" lon="11.123184698687103"><ele>179.66666666666666</ele><time>2026-04-12T14:48:18.999Z</time></trkpt><trkpt lat="46.0019512451935" lon="11.123155379886123"><ele>179.0</ele><time>2026-04-12T14:48:19.999Z</time></trkpt><trkpt lat="46.00174661812743" lon="11.12315010317021"><ele>179.0</ele><time>2026-04-12T14:48:20.999Z</time></trkpt><trkpt lat="46.00153469657887" lon="11.123096508770809"><ele>179.0</ele><time>2026-04-12T14:48:21.999Z</time></trkpt><trkpt lat="46.00132428965318" lon="11.12306706654528"><ele>179.0</ele><time>2026-04-12T14:48:22.999Z</time></trkpt><trkpt lat="46.00111773539759" lon="11.123038332777805"><ele>179.0</ele><time>2026-04-12T14:48:23.999Z</time></trkpt><trkpt lat="46.000920842805364" lon="11.123010943013412"><ele>179.0</ele><time>2026-04-12T14:48:24.999Z</time></trkpt><trkpt lat="46.00072893439768" lon="11.122984246611068"><ele>179.0</ele><time>2026-04-12T14:48:25.999Z</time></trkpt><trkpt lat="46.00053750731225" lon="11.12295761718006"><ele>179.66666666666666</ele><time>2026-04-12T14:48:26.999Z</time></trkpt><trkpt lat="46.00035645967924" lon="11.122932431625287"><ele>180.33333333333334</ele><time>2026-04-12T14:48:27.999Z</time></trkpt><trkpt lat="46.00016836577725" lon="11.122930243495453"><ele>181.0</ele><time>2026-04-12T14:48:28.999Z</time></trkpt><trkpt lat="45.99998596557725" lon="11.122880782743472"><ele>181.0</ele><time>2026-04-12T14:48:29.999Z</time></trkpt><trkpt lat="45.99979565277406" lon="11.122854104839746"><ele>181.0</ele><time>2026-04-12T14:48:30.999Z</time></trkpt><trkpt lat="45.9996087436964" lon="11.122827904087455"><ele>181.0</ele><time>2026-04-12T14:48:31.999Z</time></trkpt><trkpt lat="45.99942898369183" lon="11.122825866814674"><ele>181.0</ele><time>2026-04-12T14:48:32.999Z</time></trkpt><trkpt lat="45.99924532075959" lon="11.122796639962155"><ele>181.0</ele><time>2026-04-12T14:48:33.999Z</time></trkpt><trkpt lat="45.99906299643462" lon="11.122770046547508"><ele>181.0</ele><time>2026-04-12T14:48:34.999Z</time></trkpt><trkpt lat="45.99888973530834" lon="11.122742338102594"><ele>180.66666666666669</ele><time>2026-04-12T14:48:35.999Z</time></trkpt><trkpt lat="45.998709743906744" lon="11.12271939433295"><ele>180.33333333333334</ele><time>2026-04-12T14:48:36.999Z</time></trkpt><trkpt lat="45.99853675453031" lon="11.122693497112728"><ele>180.0</ele><time>2026-04-12T14:48:37.999Z</time></trkpt><trkpt lat="45.998368387719246" lon="11.122646528364289"><ele>180.33333333333334</ele><time>2026-04-12T14:48:38.999Z</time></trkpt><trkpt lat="45.99819462189596" lon="11.122641225792005"><ele>180.66666666666669</ele><time>2026-04-12T14:48:39.999Z</time></trkpt><trkpt lat="45.99801135121505" lon="11.122609155524954"><ele>181.0</ele><time>2026-04-12T14:48:40.999Z</time></trkpt><trkpt lat="45.99783483026949" lon="11.122582408076283"><ele>181.0</ele><time>2026-04-12T14:48:41.999Z</time></trkpt><trkpt lat="45.997650216875044" lon="11.122545962287058"><ele>181.0</ele><time>2026-04-12T14:48:42.999Z</time></trkpt><trkpt lat="45.997476597711504" lon="11.122497830827445"><ele>181.0</ele><time>2026-04-12T14:48:43.999Z</time></trkpt><trkpt lat="45.99728184547448" lon="11.122482834194034"><ele>181.33333333333334</ele><time>2026-04-12T14:48:44.999Z</time></trkpt><trkpt lat="45.99708042474256" lon="11.122447262797625"><ele>181.66666666666666</ele><time>2026-04-12T14:48:45.999Z</time></trkpt><trkpt lat="45.99688223866586" lon="11.122401007031652"><ele>182.0</ele><time>2026-04-12T14:48:46.999Z</time></trkpt><trkpt lat="45.99669280448238" lon="11.12233417140846"><ele>181.66666666666666</ele><time>2026-04-12T14:48:47.999Z</time></trkpt><trkpt lat="45.996500397303734" lon="11.122285931100958"><ele>181.33333333333334</ele><time>2026-04-12T14:48:48.999Z</time></trkpt><trkpt lat="45.996306162868" lon="11.122255798006822"><ele>181.0</ele><time>2026-04-12T14:48:49.999Z</time></trkpt><trkpt lat="45.99611504932273" lon="11.12217567090042"><ele>181.0</ele><time>2026-04-12T14:48:50.999Z</time></trkpt><trkpt lat="45.99591718619215" lon="11.122111364830383"><ele>181.0</ele><time>2026-04-12T14:48:51.999Z</time></trkpt><trkpt lat="45.99570975094526" lon="11.122058763693692"><ele>181.0</ele><time>2026-04-12T14:48:52.999Z</time></trkpt><trkpt lat="45.99550069285466" lon="11.121976786171425"><ele>181.0</ele><time>2026-04-12T14:48:53.999Z</time></trkpt><trkpt lat="45.995281331547865" lon="11.121893007932805"><ele>181.0</ele><time>2026-04-12T14:48:54.999Z</time></trkpt><trkpt lat="45.99506815049313" lon="11.121781280281787"><ele>181.0</ele><time>2026-04-12T14:48:55.999Z</time></trkpt><trkpt lat="45.99484672309987" lon="11.121678918730446"><ele>181.0</ele><time>2026-04-12T14:48:56.999Z</time></trkpt><trkpt lat="45.99464429498617" lon="11.121581896660343"><ele>181.0</ele><time>2026-04-12T14:48:57.998Z</time></trkpt><trkpt lat="45.99445209902358" lon="11.121510856862905"><ele>181.0</ele><time>2026-04-12T14:48:58.998Z</time></trkpt><trkpt lat="45.99426016865144" lon="11.121408793393174"><ele>181.0</ele><time>2026-04-12T14:48:59.998Z</time></trkpt><trkpt lat="45.99407703173493" lon="11.121309793391967"><ele>181.0</ele><time>2026-04-12T14:49:00.998Z</time></trkpt><trkpt lat="45.993906676780796" lon="11.121185690790615"><ele>181.33333333333334</ele><time>2026-04-12T14:49:01.998Z</time></trkpt><trkpt lat="45.99373091261376" lon="11.12108156738806"><ele>181.66666666666666</ele><time>2026-04-12T14:49:02.998Z</time></trkpt><trkpt lat="45.99354890026896" lon="11.120968308024496"><ele>182.0</ele><time>2026-04-12T14:49:03.998Z</time></trkpt><trkpt lat="45.993354322948555" lon="11.120842590314929"><ele>181.5</ele><time>2026-04-12T14:49:04.998Z</time></trkpt><trkpt lat="45.99314230140039" lon="11.120698930919978"><ele>181.0</ele><time>2026-04-12T14:49:05.998Z</time></trkpt><trkpt lat="45.992914133472325" lon="11.120541778428253"><ele>181.0</ele><time>2026-04-12T14:49:06.998Z</time></trkpt><trkpt lat="45.99267785159221" lon="11.120379037406929"><ele>181.0</ele><time>2026-04-12T14:49:07.998Z</time></trkpt><trkpt lat="45.99243035623149" lon="11.12020857300251"><ele>181.0</ele><time>2026-04-12T14:49:08.998Z</time></trkpt><trkpt lat="45.992159652549624" lon="11.120023164221635"><ele>181.0</ele><time>2026-04-12T14:49:09.998Z</time></trkpt><trkpt lat="45.99188989509402" lon="11.11983840141903"><ele>180.5</ele><time>2026-04-12T14:49:10.998Z</time></trkpt><trkpt lat="45.99161527344524" lon="11.119648859672754"><ele>180.0</ele><time>2026-04-12T14:49:11.998Z</time></trkpt><trkpt lat="45.99135201642242" lon="11.11946716170688"><ele>180.0</ele><time>2026-04-12T14:49:12.998Z</time></trkpt><trkpt lat="45.99109883770247" lon="11.119292412496572"><ele>180.0</ele><time>2026-04-12T14:49:13.998Z</time></trkpt><trkpt lat="45.990860500852484" lon="11.119125271116232"><ele>180.5</ele><time>2026-04-12T14:49:14.998Z</time></trkpt><trkpt lat="45.99062317702575" lon="11.118949038387303"><ele>181.0</ele><time>2026-04-12T14:49:15.998Z</time></trkpt><trkpt lat="45.990412584559145" lon="11.118785543677978"><ele>181.0</ele><time>2026-04-12T14:49:16.998Z</time></trkpt><trkpt lat="45.990212926383236" lon="11.118623475653616"><ele>181.0</ele><time>2026-04-12T14:49:17.998Z</time></trkpt><trkpt lat="45.99001124817296" lon="11.118473234281714"><ele>181.0</ele><time>2026-04-12T14:49:18.998Z</time></trkpt><trkpt lat="45.98983430578493" lon="11.118307606911907"><ele>181.0</ele><time>2026-04-12T14:49:19.998Z</time></trkpt><trkpt lat="45.98965780213312" lon="11.118142352101017"><ele>181.0</ele><time>2026-04-12T14:49:21Z</time></trkpt><trkpt lat="45.989474756578865" lon="11.117970641939575"><ele>180.5</ele><time>2026-04-12T14:49:22Z</time></trkpt><trkpt lat="45.98928982354723" lon="11.117792245128168"><ele>180.0</ele><time>2026-04-12T14:49:23Z</time></trkpt><trkpt lat="45.98909765969131" lon="11.117616460936937"><ele>179.5</ele><time>2026-04-12T14:49:24Z</time></trkpt><trkpt lat="45.98890701840073" lon="11.11743804655735"><ele>179.0</ele><time>2026-04-12T14:49:25Z</time></trkpt><trkpt lat="45.98871585912788" lon="11.117257917562691"><ele>179.0</ele><time>2026-04-12T14:49:26Z</time></trkpt><trkpt lat="45.98852422769087" lon="11.1170725408701"><ele>179.0</ele><time>2026-04-12T14:49:27Z</time></trkpt><trkpt lat="45.988330392400364" lon="11.116890422171016"><ele>179.5</ele><time>2026-04-12T14:49:28Z</time></trkpt><trkpt lat="45.98813544760339" lon="11.116707754202306"><ele>180.0</ele><time>2026-04-12T14:49:29Z</time></trkpt><trkpt lat="45.98794369003211" lon="11.116526248258262"><ele>181.0</ele><time>2026-04-12T14:49:30Z</time></trkpt><trkpt lat="45.987751722313305" lon="11.11635014724283"><ele>182.0</ele><time>2026-04-12T14:49:31Z</time></trkpt><trkpt lat="45.98756256771274" lon="11.116167203663677"><ele>182.0</ele><time>2026-04-12T14:49:32Z</time></trkpt><trkpt lat="45.98737820210865" lon="11.115989060241064"><ele>182.0</ele><time>2026-04-12T14:49:33Z</time></trkpt><trkpt lat="45.98719035327865" lon="11.115814335143753"><ele>182.0</ele><time>2026-04-12T14:49:34Z</time></trkpt><trkpt lat="45.98700596007619" lon="11.11564034233752"><ele>181.66666666666666</ele><time>2026-04-12T14:49:35Z</time></trkpt><trkpt lat="45.98682044249014" lon="11.115474432403103"><ele>181.33333333333334</ele><time>2026-04-12T14:49:36Z</time></trkpt><trkpt lat="45.98664196575687" lon="11.115306674347202"><ele>181.0</ele><time>2026-04-12T14:49:37Z</time></trkpt><trkpt lat="45.9864708928096" lon="11.115147660462435"><ele>180.33333333333334</ele><time>2026-04-12T14:49:38Z</time></trkpt><trkpt lat="45.9863041525444" lon="11.114994687271617"><ele>179.66666666666666</ele><time>2026-04-12T14:49:39Z</time></trkpt><trkpt lat="45.98614764143002" lon="11.114843420098582"><ele>179.0</ele><time>2026-04-12T14:49:40Z</time></trkpt><trkpt lat="45.98599493636009" lon="11.11470700059164"><ele>178.33333333333331</ele><time>2026-04-12T14:49:41Z</time></trkpt><trkpt lat="45.98584686206559" lon="11.114578500191966"><ele>177.66666666666666</ele><time>2026-04-12T14:49:42Z</time></trkpt><trkpt lat="45.98569451808815" lon="11.114469988216317"><ele>177.0</ele><time>2026-04-12T14:49:43Z</time></trkpt><trkpt lat="45.98553057828776" lon="11.114375924563507"><ele>178.33333333333334</ele><time>2026-04-12T14:49:44Z</time></trkpt><trkpt lat="45.98537097325108" lon="11.114299894175307"><ele>179.66666666666669</ele><time>2026-04-12T14:49:45Z</time></trkpt><trkpt lat="45.98520984203654" lon="11.114240305322111"><ele>181.0</ele><time>2026-04-12T14:49:46Z</time></trkpt><trkpt lat="45.98503493483541" lon="11.1141919908271"><ele>181.0</ele><time>2026-04-12T14:49:47Z</time></trkpt><trkpt lat="45.98485808335289" lon="11.114154728697887"><ele>181.0</ele><time>2026-04-12T14:49:48Z</time></trkpt><trkpt lat="45.984681072194824" lon="11.114132963618781"><ele>181.0</ele><time>2026-04-12T14:49:49Z</time></trkpt><trkpt lat="45.98450611275719" lon="11.114130922661811"><ele>181.0</ele><time>2026-04-12T14:49:50Z</time></trkpt><trkpt lat="45.9843303700751" lon="11.114145409229181"><ele>181.0</ele><time>2026-04-12T14:49:51Z</time></trkpt><trkpt lat="45.984162859828864" lon="11.114171225805977"><ele>181.0</ele><time>2026-04-12T14:49:52Z</time></trkpt><trkpt lat="45.98399536746116" lon="11.114211582796477"><ele>181.0</ele><time>2026-04-12T14:49:53Z</time></trkpt><trkpt lat="45.9838257118327" lon="11.114268839093917"><ele>181.0</ele><time>2026-04-12T14:49:54Z</time></trkpt><trkpt lat="45.98366112152672" lon="11.114351401906317"><ele>181.0</ele><time>2026-04-12T14:49:55Z</time></trkpt><trkpt lat="45.98349987237062" lon="11.114452631714803"><ele>181.0</ele><time>2026-04-12T14:49:56Z</time></trkpt><trkpt lat="45.98333966230033" lon="11.114568141146373"><ele>181.0</ele><time>2026-04-12T14:49:57Z</time></trkpt><trkpt lat="45.983176984400004" lon="11.1146889502577"><ele>181.0</ele><time>2026-04-12T14:49:58Z</time></trkpt><trkpt lat="45.983024635226016" lon="11.114802411140664"><ele>180.66666666666669</ele><time>2026-04-12T14:49:59Z</time></trkpt><trkpt lat="45.98287662292687" lon="11.114910509744838"><ele>180.33333333333334</ele><time>2026-04-12T14:50:00Z</time></trkpt><trkpt lat="45.98274121284922" lon="11.115008134960098"><ele>180.0</ele><time>2026-04-12T14:50:01Z</time></trkpt><trkpt lat="45.98261412252795" lon="11.115102139886359"><ele>180.0</ele><time>2026-04-12T14:50:02Z</time></trkpt><trkpt lat="45.98248838144975" lon="11.115188049574309"><ele>180.0</ele><time>2026-04-12T14:50:03Z</time></trkpt><trkpt lat="45.9823495505065" lon="11.115271910833494"><ele>180.0</ele><time>2026-04-12T14:50:04Z</time></trkpt><trkpt lat="45.98220962334399" lon="11.11533781514295"><ele>180.0</ele><time>2026-04-12T14:50:04.999Z</time></trkpt><trkpt lat="45.98205974897199" lon="11.115395951502803"><ele>180.0</ele><time>2026-04-12T14:50:05.999Z</time></trkpt><trkpt lat="45.98191054459577" lon="11.11543821777424"><ele>180.0</ele><time>2026-04-12T14:50:06.999Z</time></trkpt><trkpt lat="45.98175421463899" lon="11.115474578257754"><ele>180.0</ele><time>2026-04-12T14:50:07.999Z</time></trkpt><trkpt lat="45.98159933376405" lon="11.115496415163848"><ele>180.33333333333334</ele><time>2026-04-12T14:50:08.999Z</time></trkpt><trkpt lat="45.98143742875445" lon="11.115509828006576"><ele>180.66666666666669</ele><time>2026-04-12T14:50:09.999Z</time></trkpt><trkpt lat="45.98127117680838" lon="11.115508214925454"><ele>181.0</ele><time>2026-04-12T14:50:10.999Z</time></trkpt><trkpt lat="45.981099009036974" lon="11.11548442193698"><ele>181.0</ele><time>2026-04-12T14:50:11.999Z</time></trkpt><trkpt lat="45.98092767091587" lon="11.115445022762943"><ele>181.0</ele><time>2026-04-12T14:50:12.999Z</time></trkpt><trkpt lat="45.98075816137725" lon="11.11539931497762"><ele>181.0</ele><time>2026-04-12T14:50:13.999Z</time></trkpt><trkpt lat="45.980602186633135" lon="11.115349471785091"><ele>181.33333333333334</ele><time>2026-04-12T14:50:14.999Z</time></trkpt><trkpt lat="45.980445164275416" lon="11.115305011491026"><ele>181.66666666666666</ele><time>2026-04-12T14:50:15.999Z</time></trkpt><trkpt lat="45.980296890405555" lon="11.115261286423513"><ele>182.0</ele><time>2026-04-12T14:50:16.999Z</time></trkpt><trkpt lat="45.98015098176348" lon="11.115219991152054"><ele>182.33333333333331</ele><time>2026-04-12T14:50:17.999Z</time></trkpt><trkpt lat="45.9800007743262" lon="11.115176747912754"><ele>182.66666666666666</ele><time>2026-04-12T14:50:18.999Z</time></trkpt><trkpt lat="45.97985682375622" lon="11.115137136610471"><ele>183.0</ele><time>2026-04-12T14:50:19.999Z</time></trkpt><trkpt lat="45.97969951531418" lon="11.115097822109908"><ele>183.0</ele><time>2026-04-12T14:50:20.999Z</time></trkpt><trkpt lat="45.97953008636683" lon="11.11504872292798"><ele>183.0</ele><time>2026-04-12T14:50:21.999Z</time></trkpt><trkpt lat="45.979353810755946" lon="11.11498908563269"><ele>183.0</ele><time>2026-04-12T14:50:22.999Z</time></trkpt><trkpt lat="45.97915594472774" lon="11.114948828013134"><ele>183.33333333333334</ele><time>2026-04-12T14:50:23.999Z</time></trkpt><trkpt lat="45.97898169938803" lon="11.114889026142976"><ele>183.66666666666669</ele><time>2026-04-12T14:50:24.999Z</time></trkpt><trkpt lat="45.97879760821519" lon="11.114827515221936"><ele>184.0</ele><time>2026-04-12T14:50:25.999Z</time></trkpt><trkpt lat="45.978607838304114" lon="11.11476470450313"><ele>184.0</ele><time>2026-04-12T14:50:26.999Z</time></trkpt><trkpt lat="45.97842035574643" lon="11.114697322465105"><ele>184.0</ele><time>2026-04-12T14:50:27.999Z</time></trkpt><trkpt lat="45.978228227480834" lon="11.114637280355751"><ele>184.0</ele><time>2026-04-12T14:50:28.999Z</time></trkpt><trkpt lat="45.97804459577087" lon="11.114573776390856"><ele>183.33333333333334</ele><time>2026-04-12T14:50:29.999Z</time></trkpt><trkpt lat="45.97787207168977" lon="11.11449784851657"><ele>182.66666666666666</ele><time>2026-04-12T14:50:30.999Z</time></trkpt><trkpt lat="45.97769831395608" lon="11.114418415998594"><ele>182.0</ele><time>2026-04-12T14:50:31.999Z</time></trkpt><trkpt lat="45.97752438892012" lon="11.114331532773132"><ele>182.33333333333331</ele><time>2026-04-12T14:50:32.999Z</time></trkpt><trkpt lat="45.977343725035915" lon="11.1142310827972"><ele>182.66666666666666</ele><time>2026-04-12T14:50:33.999Z</time></trkpt><trkpt lat="45.97716480206018" lon="11.1141319831038"><ele>183.0</ele><time>2026-04-12T14:50:34.999Z</time></trkpt><trkpt lat="45.976994900439756" lon="11.114033754363032"><ele>182.66666666666666</ele><time>2026-04-12T14:50:35.999Z</time></trkpt><trkpt lat="45.97682348622082" lon="11.113940306217357"><ele>182.33333333333331</ele><time>2026-04-12T14:50:36.999Z</time></trkpt><trkpt lat="45.97665143734556" lon="11.113852803705399"><ele>182.0</ele><time>2026-04-12T14:50:37.999Z</time></trkpt><trkpt lat="45.976476764017946" lon="11.113774928467528"><ele>182.0</ele><time>2026-04-12T14:50:38.999Z</time></trkpt><trkpt lat="45.97630886790265" lon="11.113721690538455"><ele>182.0</ele><time>2026-04-12T14:50:39.999Z</time></trkpt><trkpt lat="45.97615045866179" lon="11.113670770296089"><ele>182.0</ele><time>2026-04-12T14:50:40.999Z</time></trkpt><trkpt lat="45.97599058466253" lon="11.113635474884171"><ele>182.66666666666666</ele><time>2026-04-12T14:50:41.999Z</time></trkpt><trkpt lat="45.97582308006847" lon="11.113604094107293"><ele>183.33333333333334</ele><time>2026-04-12T14:50:42.999Z</time></trkpt><trkpt lat="45.975654590417115" lon="11.113570817398632"><ele>184.0</ele><time>2026-04-12T14:50:43.999Z</time></trkpt><trkpt lat="45.97548436061646" lon="11.113550250481042"><ele>184.0</ele><time>2026-04-12T14:50:44.999Z</time></trkpt><trkpt lat="45.975315380502046" lon="11.113524798923889"><ele>184.0</ele><time>2026-04-12T14:50:45.999Z</time></trkpt><trkpt lat="45.97514474957575" lon="11.113501584199337"><ele>184.0</ele><time>2026-04-12T14:50:46.999Z</time></trkpt><trkpt lat="45.97497458461759" lon="11.1134690493419"><ele>184.0</ele><time>2026-04-12T14:50:47.999Z</time></trkpt><trkpt lat="45.9748036062616" lon="11.113444064819673"><ele>184.0</ele><time>2026-04-12T14:50:48.999Z</time></trkpt><trkpt lat="45.97462752754452" lon="11.113416482818083"><ele>184.0</ele><time>2026-04-12T14:50:49.999Z</time></trkpt><trkpt lat="45.97444854420313" lon="11.113387067546753"><ele>184.0</ele><time>2026-04-12T14:50:50.999Z</time></trkpt><trkpt lat="45.97426891151351" lon="11.113362833208724"><ele>184.0</ele><time>2026-04-12T14:50:51.999Z</time></trkpt><trkpt lat="45.97409116107097" lon="11.113338025845502"><ele>184.0</ele><time>2026-04-12T14:50:52.999Z</time></trkpt><trkpt lat="45.97390748429432" lon="11.113311343144963"><ele>184.0</ele><time>2026-04-12T14:50:53.999Z</time></trkpt><trkpt lat="45.97372481633057" lon="11.113285286332317"><ele>184.0</ele><time>2026-04-12T14:50:54.999Z</time></trkpt><trkpt lat="45.973546851433895" lon="11.113255493957741"><ele>184.0</ele><time>2026-04-12T14:50:55.999Z</time></trkpt><trkpt lat="45.97337002482667" lon="11.113230052850023"><ele>183.0</ele><time>2026-04-12T14:50:56.999Z</time></trkpt><trkpt lat="45.973192095916815" lon="11.113205310584808"><ele>182.0</ele><time>2026-04-12T14:50:57.999Z</time></trkpt><trkpt lat="45.97301560167943" lon="11.113182810994985"><ele>181.0</ele><time>2026-04-12T14:50:58.999Z</time></trkpt><trkpt lat="45.9728362068318" lon="11.113157531679342"><ele>181.0</ele><time>2026-04-12T14:50:59.999Z</time></trkpt><trkpt lat="45.97265719679458" lon="11.113129685240631"><ele>181.0</ele><time>2026-04-12T14:51:00.999Z</time></trkpt><trkpt lat="45.972479097592235" lon="11.11309096496407"><ele>181.0</ele><time>2026-04-12T14:51:01.999Z</time></trkpt><trkpt lat="45.972301962368896" lon="11.113048672409008"><ele>180.66666666666669</ele><time>2026-04-12T14:51:02.998Z</time></trkpt><trkpt lat="45.97212089449679" lon="11.113002932641438"><ele>180.33333333333334</ele><time>2026-04-12T14:51:03.998Z</time></trkpt><trkpt lat="45.97193978875867" lon="11.112952513746569"><ele>180.0</ele><time>2026-04-12T14:51:04.998Z</time></trkpt><trkpt lat="45.971762756749676" lon="11.112894183939048"><ele>180.66666666666666</ele><time>2026-04-12T14:51:05.998Z</time></trkpt><trkpt lat="45.971578773177576" lon="11.112839184796995"><ele>181.33333333333331</ele><time>2026-04-12T14:51:06.998Z</time></trkpt><trkpt lat="45.9713982590739" lon="11.112781621632706"><ele>182.0</ele><time>2026-04-12T14:51:07.998Z</time></trkpt><trkpt lat="45.97121622025589" lon="11.112720919231219"><ele>182.0</ele><time>2026-04-12T14:51:08.998Z</time></trkpt><trkpt lat="45.9710273961698" lon="11.1126643337519"><ele>182.0</ele><time>2026-04-12T14:51:09.998Z</time></trkpt><trkpt lat="45.970839640400804" lon="11.112610559409946"><ele>182.0</ele><time>2026-04-12T14:51:10.998Z</time></trkpt><trkpt lat="45.9706521075682" lon="11.112546997085179"><ele>181.0</ele><time>2026-04-12T14:51:11.998Z</time></trkpt><trkpt lat="45.97045984793517" lon="11.112479091938884"><ele>180.0</ele><time>2026-04-12T14:51:12.998Z</time></trkpt><trkpt lat="45.97026335305345" lon="11.112413700801739"><ele>179.0</ele><time>2026-04-12T14:51:13.998Z</time></trkpt><trkpt lat="45.97006437068946" lon="11.11235224203342"><ele>178.66666666666666</ele><time>2026-04-12T14:51:14.998Z</time></trkpt><trkpt lat="45.96986393083265" lon="11.112287684911156"><ele>178.33333333333334</ele><time>2026-04-12T14:51:15.998Z</time></trkpt><trkpt lat="45.96965787241571" lon="11.112232529791237"><ele>178.0</ele><time>2026-04-12T14:51:16.998Z</time></trkpt><trkpt lat="45.96945581253303" lon="11.112182168425017"><ele>178.0</ele><time>2026-04-12T14:51:17.998Z</time></trkpt><trkpt lat="45.96925656702316" lon="11.112141306941147"><ele>178.0</ele><time>2026-04-12T14:51:18.998Z</time></trkpt><trkpt lat="45.9690539084181" lon="11.112115056173106"><ele>178.0</ele><time>2026-04-12T14:51:19.998Z</time></trkpt><trkpt lat="45.96885121869522" lon="11.112105081649451"><ele>178.0</ele><time>2026-04-12T14:51:20.998Z</time></trkpt><trkpt lat="45.96864775064896" lon="11.112080359692163"><ele>178.0</ele><time>2026-04-12T14:51:21.998Z</time></trkpt><trkpt lat="45.968446552644195" lon="11.112115401478937"><ele>178.0</ele><time>2026-04-12T14:51:22.998Z</time></trkpt><trkpt lat="45.96824687511898" lon="11.112135580206536"><ele>178.0</ele><time>2026-04-12T14:51:23.998Z</time></trkpt><trkpt lat="45.96805320405331" lon="11.11216575703019"><ele>178.0</ele><time>2026-04-12T14:51:24.998Z</time></trkpt><trkpt lat="45.967854317120654" lon="11.112211077578559"><ele>178.0</ele><time>2026-04-12T14:51:25.998Z</time></trkpt><trkpt lat="45.96766062966464" lon="11.112259141666357"><ele>178.66666666666669</ele><time>2026-04-12T14:51:27Z</time></trkpt><trkpt lat="45.967474438968495" lon="11.112302231814029"><ele>179.33333333333334</ele><time>2026-04-12T14:51:28Z</time></trkpt><trkpt lat="45.96728172524354" lon="11.112339432655043"><ele>180.0</ele><time>2026-04-12T14:51:29Z</time></trkpt><trkpt lat="45.96709858064067" lon="11.112369349128489"><ele>180.0</ele><time>2026-04-12T14:51:30Z</time></trkpt><trkpt lat="45.96691131825696" lon="11.112385362388295"><ele>180.0</ele><time>2026-04-12T14:51:31Z</time></trkpt><trkpt lat="45.96672893010013" lon="11.112390372227146"><ele>180.0</ele><time>2026-04-12T14:51:32Z</time></trkpt><trkpt lat="45.966548872945076" lon="11.112384687614405"><ele>181.0</ele><time>2026-04-12T14:51:33Z</time></trkpt><trkpt lat="45.966367618182645" lon="11.112370082432616"><ele>182.0</ele><time>2026-04-12T14:51:34Z</time></trkpt><trkpt lat="45.966186731086516" lon="11.11234698079053"><ele>183.0</ele><time>2026-04-12T14:51:35Z</time></trkpt><trkpt lat="45.96601233112592" lon="11.112310170990517"><ele>185.33333333333334</ele><time>2026-04-12T14:51:36Z</time></trkpt><trkpt lat="45.96582718883135" lon="11.112264163647474"><ele>187.66666666666669</ele><time>2026-04-12T14:51:37Z</time></trkpt><trkpt lat="45.96565275012731" lon="11.112213763011741"><ele>190.0</ele><time>2026-04-12T14:51:38Z</time></trkpt><trkpt lat="45.96547506110088" lon="11.112160002354678"><ele>190.0</ele><time>2026-04-12T14:51:39Z</time></trkpt><trkpt lat="45.965284775480384" lon="11.112109429653753"><ele>190.0</ele><time>2026-04-12T14:51:40Z</time></trkpt><trkpt lat="45.96507855785605" lon="11.112025874475384"><ele>190.0</ele><time>2026-04-12T14:51:41Z</time></trkpt><trkpt lat="45.96484928939691" lon="11.111955637708553"><ele>195.0</ele><time>2026-04-12T14:51:42Z</time></trkpt><trkpt lat="45.96460839257012" lon="11.111879887925184"><ele>200.0</ele><time>2026-04-12T14:51:43Z</time></trkpt><trkpt lat="45.96436165613504" lon="11.1118180358002"><ele>201.5</ele><time>2026-04-12T14:51:44Z</time></trkpt><trkpt lat="45.96412780153367" lon="11.111748030231276"><ele>203.0</ele><time>2026-04-12T14:51:45Z</time></trkpt><trkpt lat="45.96390847198426" lon="11.111674002044351"><ele>203.0</ele><time>2026-04-12T14:51:46Z</time></trkpt><trkpt lat="45.96369857601923" lon="11.111606959537578"><ele>203.0</ele><time>2026-04-12T14:51:47Z</time></trkpt><trkpt lat="45.96348890970547" lon="11.111535985794152"><ele>203.0</ele><time>2026-04-12T14:51:48Z</time></trkpt><trkpt lat="45.96328747486899" lon="11.111456412788398"><ele>198.33333333333334</ele><time>2026-04-12T14:51:49Z</time></trkpt><trkpt lat="45.96309034048267" lon="11.111329736124747"><ele>193.66666666666669</ele><time>2026-04-12T14:51:50Z</time></trkpt><trkpt lat="45.9628785476657" lon="11.111220509063976"><ele>189.0</ele><time>2026-04-12T14:51:51Z</time></trkpt><trkpt lat="45.962664963489594" lon="11.111109146092279"><ele>191.0</ele><time>2026-04-12T14:51:52Z</time></trkpt><trkpt lat="45.96245238914368" lon="11.111019540652283"><ele>193.0</ele><time>2026-04-12T14:51:53Z</time></trkpt><trkpt lat="45.9622735555469" lon="11.110923201327095"><ele>195.0</ele><time>2026-04-12T14:51:54Z</time></trkpt><trkpt lat="45.962104381568565" lon="11.110837603018284"><ele>195.0</ele><time>2026-04-12T14:51:55Z</time></trkpt><trkpt lat="45.9619480453111" lon="11.110749828731896"><ele>195.0</ele><time>2026-04-12T14:51:56Z</time></trkpt><trkpt lat="45.961788407927436" lon="11.110668340700354"><ele>195.0</ele><time>2026-04-12T14:51:57Z</time></trkpt><trkpt lat="45.96162428840367" lon="11.110581334860642"><ele>193.0</ele><time>2026-04-12T14:51:58Z</time></trkpt><trkpt lat="45.96144985887254" lon="11.110497513989388"><ele>191.0</ele><time>2026-04-12T14:51:59Z</time></trkpt><trkpt lat="45.96126759882995" lon="11.110426666763026"><ele>189.0</ele><time>2026-04-12T14:52:00Z</time></trkpt><trkpt lat="45.96106617608" lon="11.11037781278784"><ele>192.5</ele><time>2026-04-12T14:52:01Z</time></trkpt><trkpt lat="45.960823489202525" lon="11.110331342475895"><ele>196.0</ele><time>2026-04-12T14:52:02Z</time></trkpt><trkpt lat="45.96055850808926" lon="11.1103086241771"><ele>196.0</ele><time>2026-04-12T14:52:03Z</time></trkpt><trkpt lat="45.96027890983537" lon="11.110290730041234"><ele>196.0</ele><time>2026-04-12T14:52:04Z</time></trkpt><trkpt lat="45.96001003282959" lon="11.110255468621109"><ele>195.5</ele><time>2026-04-12T14:52:05Z</time></trkpt><trkpt lat="45.95975401005846" lon="11.110234015215584"><ele>195.0</ele><time>2026-04-12T14:52:06Z</time></trkpt><trkpt lat="45.95949146456434" lon="11.110210724980284"><ele>195.0</ele><time>2026-04-12T14:52:07Z</time></trkpt><trkpt lat="45.959236133838104" lon="11.110185065589059"><ele>195.0</ele><time>2026-04-12T14:52:08Z</time></trkpt><trkpt lat="45.95898327872314" lon="11.110165503612803"><ele>195.0</ele><time>2026-04-12T14:52:09Z</time></trkpt><trkpt lat="45.958742085134446" lon="11.110142726490203"><ele>195.0</ele><time>2026-04-12T14:52:10Z</time></trkpt><trkpt lat="45.95850146540478" lon="11.110122075416262"><ele>193.5</ele><time>2026-04-12T14:52:10.999Z</time></trkpt><trkpt lat="45.95825803603024" lon="11.110095380578155"><ele>192.0</ele><time>2026-04-12T14:52:11.999Z</time></trkpt><trkpt lat="45.95801979827897" lon="11.11005590563195"><ele>192.0</ele><time>2026-04-12T14:52:12.999Z</time></trkpt><trkpt lat="45.95777491437994" lon="11.110004495419592"><ele>192.0</ele><time>2026-04-12T14:52:13.999Z</time></trkpt><trkpt lat="45.95753212735582" lon="11.109948487309444"><ele>189.0</ele><time>2026-04-12T14:52:14.999Z</time></trkpt><trkpt lat="45.95729152448327" lon="11.109895185977038"><ele>186.0</ele><time>2026-04-12T14:52:15.999Z</time></trkpt><trkpt lat="45.9570513565234" lon="11.109858165362338"><ele>186.0</ele><time>2026-04-12T14:52:16.999Z</time></trkpt><trkpt lat="45.95680914504119" lon="11.109837292737435"><ele>186.0</ele><time>2026-04-12T14:52:17.999Z</time></trkpt><trkpt lat="45.956561650985435" lon="11.109827167455592"><ele>184.0</ele><time>2026-04-12T14:52:18.999Z</time></trkpt><trkpt lat="45.9563070522165" lon="11.109825684902603"><ele>182.0</ele><time>2026-04-12T14:52:19.999Z</time></trkpt><trkpt lat="45.956060554267694" lon="11.109823667066498"><ele>182.5</ele><time>2026-04-12T14:52:20.999Z</time></trkpt><trkpt lat="45.95580763332449" lon="11.109826822977539"><ele>183.0</ele><time>2026-04-12T14:52:21.999Z</time></trkpt><trkpt lat="45.95555487813119" lon="11.109820513830131"><ele>183.0</ele><time>2026-04-12T14:52:22.999Z</time></trkpt><trkpt lat="45.955308671893036" lon="11.109820813101251"><ele>183.0</ele><time>2026-04-12T14:52:23.999Z</time></trkpt><trkpt lat="45.95506966046121" lon="11.109823811556653"><ele>182.5</ele><time>2026-04-12T14:52:24.999Z</time></trkpt><trkpt lat="45.954831156931434" lon="11.109819271610968"><ele>182.0</ele><time>2026-04-12T14:52:25.999Z</time></trkpt><trkpt lat="45.95459731068978" lon="11.1098156747887"><ele>182.0</ele><time>2026-04-12T14:52:26.999Z</time></trkpt><trkpt lat="45.954367380505296" lon="11.109815322546813"><ele>182.0</ele><time>2026-04-12T14:52:27.999Z</time></trkpt><trkpt lat="45.9541349229286" lon="11.109810776772797"><ele>181.5</ele><time>2026-04-12T14:52:28.999Z</time></trkpt><trkpt lat="45.95390650921489" lon="11.109799559832116"><ele>181.0</ele><time>2026-04-12T14:52:29.999Z</time></trkpt><trkpt lat="45.9536764774444" lon="11.109761933302362"><ele>181.0</ele><time>2026-04-12T14:52:30.999Z</time></trkpt><trkpt lat="45.95345338362472" lon="11.109710396852217"><ele>181.0</ele><time>2026-04-12T14:52:31.999Z</time></trkpt><trkpt lat="45.95323254132859" lon="11.109631255889697"><ele>182.5</ele><time>2026-04-12T14:52:32.999Z</time></trkpt><trkpt lat="45.953017863954635" lon="11.109520236183435"><ele>184.0</ele><time>2026-04-12T14:52:33.999Z</time></trkpt><trkpt lat="45.95280998376837" lon="11.109390450916745"><ele>184.0</ele><time>2026-04-12T14:52:34.999Z</time></trkpt><trkpt lat="45.952607106242034" lon="11.109232541473487"><ele>184.0</ele><time>2026-04-12T14:52:35.999Z</time></trkpt><trkpt lat="45.952410361054724" lon="11.109054907105248"><ele>185.33333333333334</ele><time>2026-04-12T14:52:36.999Z</time></trkpt><trkpt lat="45.95222790229185" lon="11.10887087968385"><ele>186.66666666666666</ele><time>2026-04-12T14:52:37.999Z</time></trkpt><trkpt lat="45.95203670307166" lon="11.108702678126768"><ele>188.0</ele><time>2026-04-12T14:52:38.999Z</time></trkpt><trkpt lat="45.951856400044036" lon="11.108544402147663"><ele>187.66666666666666</ele><time>2026-04-12T14:52:39.999Z</time></trkpt><trkpt lat="45.951679524079786" lon="11.108387786623563"><ele>187.33333333333334</ele><time>2026-04-12T14:52:40.999Z</time></trkpt><trkpt lat="45.95150918164328" lon="11.10823129389486"><ele>187.0</ele><time>2026-04-12T14:52:41.999Z</time></trkpt><trkpt lat="45.95133511939334" lon="11.108082187949604"><ele>187.0</ele><time>2026-04-12T14:52:42.999Z</time></trkpt><trkpt lat="45.95117508626311" lon="11.107941206086508"><ele>187.0</ele><time>2026-04-12T14:52:43.999Z</time></trkpt><trkpt lat="45.951022213876726" lon="11.107809568141379"><ele>187.0</ele><time>2026-04-12T14:52:44.999Z</time></trkpt><trkpt lat="45.95087219182141" lon="11.107678115394739"><ele>186.66666666666669</ele><time>2026-04-12T14:52:45.999Z</time></trkpt><trkpt lat="45.95073420253707" lon="11.107555231898342"><ele>186.33333333333334</ele><time>2026-04-12T14:52:46.999Z</time></trkpt><trkpt lat="45.950606080683684" lon="11.107442393394113"><ele>186.0</ele><time>2026-04-12T14:52:47.999Z</time></trkpt><trkpt lat="45.95048030087719" lon="11.107332794231764"><ele>186.0</ele><time>2026-04-12T14:52:48.999Z</time></trkpt><trkpt lat="45.9503568840259" lon="11.107227866718961"><ele>186.0</ele><time>2026-04-12T14:52:49.999Z</time></trkpt><trkpt lat="45.950241821264434" lon="11.107120071408989"><ele>186.0</ele><time>2026-04-12T14:52:50.999Z</time></trkpt><trkpt lat="45.95013205859043" lon="11.10699985486072"><ele>186.0</ele><time>2026-04-12T14:52:51.999Z</time></trkpt><trkpt lat="45.95003051546979" lon="11.106868159673635"><ele>186.0</ele><time>2026-04-12T14:52:52.999Z</time></trkpt><trkpt lat="45.949934144647735" lon="11.106728197541711"><ele>186.0</ele><time>2026-04-12T14:52:53.999Z</time></trkpt><trkpt lat="45.94983704551009" lon="11.106589151141227"><ele>186.0</ele><time>2026-04-12T14:52:54.999Z</time></trkpt><trkpt lat="45.94972490449996" lon="11.106452841662225"><ele>186.0</ele><time>2026-04-12T14:52:55.999Z</time></trkpt><trkpt lat="45.94962263747135" lon="11.106332306991797"><ele>186.0</ele><time>2026-04-12T14:52:56.999Z</time></trkpt><trkpt lat="45.94951231955575" lon="11.10621456079573"><ele>186.0</ele><time>2026-04-12T14:52:57.999Z</time></trkpt><trkpt lat="45.94939842026163" lon="11.106106646264832"><ele>186.0</ele><time>2026-04-12T14:52:58.999Z</time></trkpt><trkpt lat="45.94928784406227" lon="11.10601208848127"><ele>186.0</ele><time>2026-04-12T14:52:59.999Z</time></trkpt><trkpt lat="45.9491717177005" lon="11.105916516427587"><ele>185.75</ele><time>2026-04-12T14:53:00.999Z</time></trkpt><trkpt lat="45.94904786336034" lon="11.10580819850178"><ele>185.5</ele><time>2026-04-12T14:53:01.999Z</time></trkpt><trkpt lat="45.94892023701023" lon="11.105695489554654"><ele>185.25</ele><time>2026-04-12T14:53:02.999Z</time></trkpt><trkpt lat="45.948794424076766" lon="11.105584075131544"><ele>185.0</ele><time>2026-04-12T14:53:03.999Z</time></trkpt><trkpt lat="45.94865686924854" lon="11.105469015098471"><ele>185.0</ele><time>2026-04-12T14:53:04.999Z</time></trkpt><trkpt lat="45.94851687685217" lon="11.105356437546353"><ele>185.0</ele><time>2026-04-12T14:53:05.999Z</time></trkpt><trkpt lat="45.948381642107975" lon="11.105243104116644"><ele>185.0</ele><time>2026-04-12T14:53:06.999Z</time></trkpt><trkpt lat="45.94823835367673" lon="11.105127414782665"><ele>184.33333333333331</ele><time>2026-04-12T14:53:07.998Z</time></trkpt><trkpt lat="45.94808729754032" lon="11.105002822573956"><ele>183.66666666666666</ele><time>2026-04-12T14:53:08.998Z</time></trkpt><trkpt lat="45.94792608195746" lon="11.104875140786145"><ele>183.0</ele><time>2026-04-12T14:53:09.998Z</time></trkpt><trkpt lat="45.947761412100164" lon="11.10474379647162"><ele>183.0</ele><time>2026-04-12T14:53:10.998Z</time></trkpt><trkpt lat="45.94759151355808" lon="11.104605507733588"><ele>183.0</ele><time>2026-04-12T14:53:11.998Z</time></trkpt><trkpt lat="45.947416409957775" lon="11.104465659127715"><ele>183.0</ele><time>2026-04-12T14:53:12.998Z</time></trkpt><trkpt lat="45.94723036835005" lon="11.104330483377668"><ele>183.0</ele><time>2026-04-12T14:53:13.998Z</time></trkpt><trkpt lat="45.947043838994624" lon="11.104199101303436"><ele>183.0</ele><time>2026-04-12T14:53:14.998Z</time></trkpt><trkpt lat="45.94685658265634" lon="11.104064387672253"><ele>183.0</ele><time>2026-04-12T14:53:15.998Z</time></trkpt><trkpt lat="45.946680397163014" lon="11.103934666944024"><ele>183.0</ele><time>2026-04-12T14:53:16.998Z</time></trkpt><trkpt lat="45.946500063381585" lon="11.10380645834948"><ele>183.0</ele><time>2026-04-12T14:53:17.998Z</time></trkpt><trkpt lat="45.94633360476733" lon="11.103682872675602"><ele>183.0</ele><time>2026-04-12T14:53:18.998Z</time></trkpt><trkpt lat="45.94616648836304" lon="11.10356111364816"><ele>183.0</ele><time>2026-04-12T14:53:19.998Z</time></trkpt><trkpt lat="45.946003382161294" lon="11.103448172771975"><ele>183.0</ele><time>2026-04-12T14:53:20.998Z</time></trkpt><trkpt lat="45.94583640374251" lon="11.103320975000239"><ele>183.0</ele><time>2026-04-12T14:53:21.998Z</time></trkpt><trkpt lat="45.94566783292963" lon="11.10319877429536"><ele>182.0</ele><time>2026-04-12T14:53:22.998Z</time></trkpt><trkpt lat="45.945496438888995" lon="11.103069007989577"><ele>181.0</ele><time>2026-04-12T14:53:23.998Z</time></trkpt><trkpt lat="45.94531980988768" lon="11.102943487569174"><ele>180.0</ele><time>2026-04-12T14:53:24.998Z</time></trkpt><trkpt lat="45.94513908005976" lon="11.102816386473545"><ele>181.0</ele><time>2026-04-12T14:53:25.998Z</time></trkpt><trkpt lat="45.94495061553338" lon="11.10268320217887"><ele>182.0</ele><time>2026-04-12T14:53:26.998Z</time></trkpt><trkpt lat="45.944763847207206" lon="11.102557162220457"><ele>183.0</ele><time>2026-04-12T14:53:27.998Z</time></trkpt><trkpt lat="45.944580308429536" lon="11.102428666940314"><ele>182.0</ele><time>2026-04-12T14:53:28.998Z</time></trkpt><trkpt lat="45.9443911970078" lon="11.102299235166225"><ele>181.0</ele><time>2026-04-12T14:53:29.998Z</time></trkpt><trkpt lat="45.94419725474896" lon="11.102167841283462"><ele>180.0</ele><time>2026-04-12T14:53:30.998Z</time></trkpt><trkpt lat="45.943996835709164" lon="11.102036626038505"><ele>180.0</ele><time>2026-04-12T14:53:31.998Z</time></trkpt><trkpt lat="45.94380265246676" lon="11.101903675483564"><ele>180.0</ele><time>2026-04-12T14:53:33Z</time></trkpt><trkpt lat="45.943608372062094" lon="11.101772502741289"><ele>180.0</ele><time>2026-04-12T14:53:34Z</time></trkpt><trkpt lat="45.94341000968192" lon="11.101640701894"><ele>179.66666666666666</ele><time>2026-04-12T14:53:35Z</time></trkpt><trkpt lat="45.943219435985434" lon="11.101514809653306"><ele>179.33333333333331</ele><time>2026-04-12T14:53:36Z</time></trkpt><trkpt lat="45.943027770175526" lon="11.101384398134636"><ele>179.0</ele><time>2026-04-12T14:53:37Z</time></trkpt><trkpt lat="45.9428398218808" lon="11.101260267412208"><ele>179.0</ele><time>2026-04-12T14:53:38Z</time></trkpt><trkpt lat="45.942647294819466" lon="11.101136017744539"><ele>179.0</ele><time>2026-04-12T14:53:39Z</time></trkpt><trkpt lat="45.9424669919471" lon="11.101013750145613"><ele>179.0</ele><time>2026-04-12T14:53:40Z</time></trkpt><trkpt lat="45.94228419091009" lon="11.100891906187979"><ele>179.33333333333331</ele><time>2026-04-12T14:53:41Z</time></trkpt><trkpt lat="45.942104135193645" lon="11.100769538776351"><ele>179.66666666666666</ele><time>2026-04-12T14:53:42Z</time></trkpt><trkpt lat="45.94191887898124" lon="11.100650046855385"><ele>180.0</ele><time>2026-04-12T14:53:43Z</time></trkpt><trkpt lat="45.94173512495072" lon="11.10052393463293"><ele>179.0</ele><time>2026-04-12T14:53:44Z</time></trkpt><trkpt lat="45.941544180049384" lon="11.100398147455454"><ele>178.0</ele><time>2026-04-12T14:53:45Z</time></trkpt><trkpt lat="45.94134810946447" lon="11.100261747602497"><ele>177.0</ele><time>2026-04-12T14:53:46Z</time></trkpt><trkpt lat="45.94113635242537" lon="11.10011767206801"><ele>177.0</ele><time>2026-04-12T14:53:47Z</time></trkpt><trkpt lat="45.94093781184303" lon="11.099940513515984"><ele>177.0</ele><time>2026-04-12T14:53:48Z</time></trkpt><trkpt lat="45.94072807671007" lon="11.099783511551069"><ele>178.0</ele><time>2026-04-12T14:53:49Z</time></trkpt><trkpt lat="45.94053486500834" lon="11.099602190948868"><ele>179.0</ele><time>2026-04-12T14:53:50Z</time></trkpt><trkpt lat="45.94034514423878" lon="11.099405893416476"><ele>179.0</ele><time>2026-04-12T14:53:51Z</time></trkpt><trkpt lat="45.94015914429936" lon="11.099203352484434"><ele>179.0</ele><time>2026-04-12T14:53:52Z</time></trkpt><trkpt lat="45.93997793990809" lon="11.099002316455675"><ele>179.0</ele><time>2026-04-12T14:53:53Z</time></trkpt><trkpt lat="45.939806840561914" lon="11.098800176671354"><ele>179.0</ele><time>2026-04-12T14:53:54Z</time></trkpt><trkpt lat="45.939642043855905" lon="11.098588793289537"><ele>179.0</ele><time>2026-04-12T14:53:55Z</time></trkpt><trkpt lat="45.93948404480228" lon="11.098377666748503"><ele>178.66666666666666</ele><time>2026-04-12T14:53:56Z</time></trkpt><trkpt lat="45.93932542492285" lon="11.098166024250467"><ele>178.33333333333334</ele><time>2026-04-12T14:53:57Z</time></trkpt><trkpt lat="45.939171166362385" lon="11.097958653677114"><ele>178.0</ele><time>2026-04-12T14:53:58Z</time></trkpt><trkpt lat="45.939012725819836" lon="11.097761590249068"><ele>178.0</ele><time>2026-04-12T14:53:59Z</time></trkpt><trkpt lat="45.93885872036312" lon="11.097571063116082"><ele>178.0</ele><time>2026-04-12T14:54:00Z</time></trkpt><trkpt lat="45.93871656464843" lon="11.097392014202493"><ele>178.0</ele><time>2026-04-12T14:54:01Z</time></trkpt><trkpt lat="45.93857414380696" lon="11.097216790412995"><ele>178.0</ele><time>2026-04-12T14:54:02Z</time></trkpt><trkpt lat="45.93842447903593" lon="11.097058659364736"><ele>178.0</ele><time>2026-04-12T14:54:03Z</time></trkpt><trkpt lat="45.93826859351275" lon="11.096923644871385"><ele>178.0</ele><time>2026-04-12T14:54:04Z</time></trkpt><trkpt lat="45.93808653201926" lon="11.09681753059245"><ele>179.33333333333334</ele><time>2026-04-12T14:54:05Z</time></trkpt><trkpt lat="45.937909354532145" lon="11.09673521007923"><ele>180.66666666666666</ele><time>2026-04-12T14:54:06Z</time></trkpt><trkpt lat="45.937729808097274" lon="11.096666680419697"><ele>182.0</ele><time>2026-04-12T14:54:07Z</time></trkpt><trkpt lat="45.93754032071083" lon="11.096616008180842"><ele>182.33333333333331</ele><time>2026-04-12T14:54:08Z</time></trkpt><trkpt lat="45.937361700618524" lon="11.09657458218586"><ele>182.66666666666666</ele><time>2026-04-12T14:54:09Z</time></trkpt><trkpt lat="45.937194496719734" lon="11.096535932945748"><ele>183.0</ele><time>2026-04-12T14:54:10Z</time></trkpt><trkpt lat="45.937037943376815" lon="11.096499118344157"><ele>183.0</ele><time>2026-04-12T14:54:11Z</time></trkpt><trkpt lat="45.93689058175368" lon="11.096457650261758"><ele>183.0</ele><time>2026-04-12T14:54:12Z</time></trkpt><trkpt lat="45.9367342376032" lon="11.0964275311023"><ele>183.0</ele><time>2026-04-12T14:54:13Z</time></trkpt><trkpt lat="45.93658203440763" lon="11.096397644608093"><ele>183.66666666666666</ele><time>2026-04-12T14:54:14Z</time></trkpt><trkpt lat="45.93642255439706" lon="11.096363858972223"><ele>184.33333333333331</ele><time>2026-04-12T14:54:15Z</time></trkpt><trkpt lat="45.93626522039333" lon="11.096333816118102"><ele>185.0</ele><time>2026-04-12T14:54:15.999Z</time></trkpt><trkpt lat="45.93611733974571" lon="11.096301523779095"><ele>185.0</ele><time>2026-04-12T14:54:16.999Z</time></trkpt><trkpt lat="45.93595771610862" lon="11.096267167138834"><ele>185.0</ele><time>2026-04-12T14:54:17.999Z</time></trkpt><trkpt lat="45.935801720106284" lon="11.09622875687285"><ele>185.0</ele><time>2026-04-12T14:54:18.999Z</time></trkpt><trkpt lat="45.93564100382487" lon="11.096193668345938"><ele>186.33333333333331</ele><time>2026-04-12T14:54:19.999Z</time></trkpt><trkpt lat="45.93548225508061" lon="11.096152934891695"><ele>187.66666666666666</ele><time>2026-04-12T14:54:20.999Z</time></trkpt><trkpt lat="45.93532838594404" lon="11.096114580334428"><ele>189.0</ele><time>2026-04-12T14:54:21.999Z</time></trkpt><trkpt lat="45.93517933506318" lon="11.096079788634992"><ele>189.5</ele><time>2026-04-12T14:54:22.999Z</time></trkpt><trkpt lat="45.93503230826429" lon="11.096045747309534"><ele>190.0</ele><time>2026-04-12T14:54:23.999Z</time></trkpt><trkpt lat="45.93488577820984" lon="11.096014232638591"><ele>190.5</ele><time>2026-04-12T14:54:24.999Z</time></trkpt><trkpt lat="45.93473544964559" lon="11.095979098346193"><ele>191.0</ele><time>2026-04-12T14:54:25.999Z</time></trkpt><trkpt lat="45.93458103057181" lon="11.095946485315576"><ele>191.0</ele><time>2026-04-12T14:54:26.999Z</time></trkpt><trkpt lat="45.93442976953989" lon="11.095908694803677"><ele>191.0</ele><time>2026-04-12T14:54:27.999Z</time></trkpt><trkpt lat="45.93426643553075" lon="11.095872124199094"><ele>191.0</ele><time>2026-04-12T14:54:28.999Z</time></trkpt><trkpt lat="45.93410624339897" lon="11.09583935243543"><ele>191.0</ele><time>2026-04-12T14:54:29.999Z</time></trkpt><trkpt lat="45.93394451102697" lon="11.095806545703613"><ele>191.0</ele><time>2026-04-12T14:54:30.999Z</time></trkpt><trkpt lat="45.93378464058412" lon="11.095773356786061"><ele>191.0</ele><time>2026-04-12T14:54:31.999Z</time></trkpt><trkpt lat="45.93362995813827" lon="11.095729890854248"><ele>191.0</ele><time>2026-04-12T14:54:32.999Z</time></trkpt><trkpt lat="45.93347580973038" lon="11.095672086707186"><ele>191.0</ele><time>2026-04-12T14:54:33.999Z</time></trkpt><trkpt lat="45.933324703716146" lon="11.095598913165203"><ele>191.0</ele><time>2026-04-12T14:54:34.999Z</time></trkpt><trkpt lat="45.93318480366733" lon="11.095503629288554"><ele>191.0</ele><time>2026-04-12T14:54:35.999Z</time></trkpt><trkpt lat="45.9330501078064" lon="11.095402502553531"><ele>191.0</ele><time>2026-04-12T14:54:36.999Z</time></trkpt><trkpt lat="45.93292269490968" lon="11.095300130431268"><ele>191.0</ele><time>2026-04-12T14:54:37.999Z</time></trkpt><trkpt lat="45.93278960273188" lon="11.095196973599034"><ele>191.0</ele><time>2026-04-12T14:54:38.999Z</time></trkpt><trkpt lat="45.93265215310968" lon="11.095098197296446"><ele>190.66666666666666</ele><time>2026-04-12T14:54:39.999Z</time></trkpt><trkpt lat="45.932516745633556" lon="11.094996903808713"><ele>190.33333333333334</ele><time>2026-04-12T14:54:40.999Z</time></trkpt><trkpt lat="45.932383033520466" lon="11.094902664604906"><ele>190.0</ele><time>2026-04-12T14:54:41.999Z</time></trkpt><trkpt lat="45.932246801633276" lon="11.094801078705311"><ele>190.0</ele><time>2026-04-12T14:54:42.999Z</time></trkpt><trkpt lat="45.932106903955706" lon="11.094696550644503"><ele>190.0</ele><time>2026-04-12T14:54:43.999Z</time></trkpt><trkpt lat="45.931973691989306" lon="11.094595493137733"><ele>190.0</ele><time>2026-04-12T14:54:44.999Z</time></trkpt><trkpt lat="45.9318504272007" lon="11.094497609242113"><ele>190.0</ele><time>2026-04-12T14:54:45.999Z</time></trkpt><trkpt lat="45.93172200981587" lon="11.094400541621043"><ele>190.33333333333334</ele><time>2026-04-12T14:54:46.999Z</time></trkpt><trkpt lat="45.93158621128257" lon="11.094301267264987"><ele>190.66666666666666</ele><time>2026-04-12T14:54:47.999Z</time></trkpt><trkpt lat="45.93144754651979" lon="11.094193400049603"><ele>191.0</ele><time>2026-04-12T14:54:48.999Z</time></trkpt><trkpt lat="45.93131492188766" lon="11.094084332289473"><ele>191.66666666666666</ele><time>2026-04-12T14:54:49.999Z</time></trkpt><trkpt lat="45.93117950492229" lon="11.093975302362956"><ele>192.33333333333331</ele><time>2026-04-12T14:54:50.999Z</time></trkpt><trkpt lat="45.93104440916508" lon="11.093872025713294"><ele>193.0</ele><time>2026-04-12T14:54:51.999Z</time></trkpt><trkpt lat="45.93090631119166" lon="11.093764093977727"><ele>194.33333333333331</ele><time>2026-04-12T14:54:52.999Z</time></trkpt><trkpt lat="45.93076402067201" lon="11.093654075883185"><ele>195.66666666666669</ele><time>2026-04-12T14:54:53.999Z</time></trkpt><trkpt lat="45.930633811068915" lon="11.093550577881874"><ele>197.0</ele><time>2026-04-12T14:54:54.999Z</time></trkpt><trkpt lat="45.93050934280982" lon="11.093455599662645"><ele>197.0</ele><time>2026-04-12T14:54:55.999Z</time></trkpt><trkpt lat="45.93038394453462" lon="11.093360291093672"><ele>197.0</ele><time>2026-04-12T14:54:56.999Z</time></trkpt><trkpt lat="45.9302548522018" lon="11.093278956002822"><ele>197.0</ele><time>2026-04-12T14:54:57.999Z</time></trkpt><trkpt lat="45.930118982002206" lon="11.093204497267791"><ele>197.0</ele><time>2026-04-12T14:54:58.999Z</time></trkpt><trkpt lat="45.92999036662264" lon="11.093145064872138"><ele>196.75</ele><time>2026-04-12T14:54:59.999Z</time></trkpt><trkpt lat="45.92985425869794" lon="11.093090303666997"><ele>196.5</ele><time>2026-04-12T14:55:00.999Z</time></trkpt><trkpt lat="45.929712438884565" lon="11.093051786525796"><ele>196.25</ele><time>2026-04-12T14:55:01.999Z</time></trkpt><trkpt lat="45.92956541723764" lon="11.093042365122951"><ele>196.0</ele><time>2026-04-12T14:55:02.999Z</time></trkpt><trkpt lat="45.929416653390454" lon="11.093046803777773"><ele>196.0</ele><time>2026-04-12T14:55:03.999Z</time></trkpt><trkpt lat="45.92927268185261" lon="11.093062820865697"><ele>196.0</ele><time>2026-04-12T14:55:04.999Z</time></trkpt><trkpt lat="45.929134253134656" lon="11.09306765013717"><ele>196.0</ele><time>2026-04-12T14:55:05.999Z</time></trkpt><trkpt lat="45.92900738676587" lon="11.093069789352619"><ele>196.0</ele><time>2026-04-12T14:55:06.999Z</time></trkpt><trkpt lat="45.92887803478635" lon="11.09307419863779"><ele>195.25</ele><time>2026-04-12T14:55:07.999Z</time></trkpt><trkpt lat="45.92873864459308" lon="11.093078992070348"><ele>194.5</ele><time>2026-04-12T14:55:08.999Z</time></trkpt><trkpt lat="45.92859060401269" lon="11.093083215805565"><ele>193.75</ele><time>2026-04-12T14:55:09.999Z</time></trkpt><trkpt lat="45.92845767504174" lon="11.093086135893662"><ele>193.0</ele><time>2026-04-12T14:55:10.999Z</time></trkpt><trkpt lat="45.92831609218534" lon="11.093092433624891"><ele>191.0</ele><time>2026-04-12T14:55:11.999Z</time></trkpt><trkpt lat="45.92817116122746" lon="11.093100812852912"><ele>189.0</ele><time>2026-04-12T14:55:12.998Z</time></trkpt><trkpt lat="45.92802378277699" lon="11.093108583714287"><ele>187.0</ele><time>2026-04-12T14:55:13.998Z</time></trkpt><trkpt lat="45.92786600137712" lon="11.093115406852483"><ele>187.0</ele><time>2026-04-12T14:55:14.998Z</time></trkpt><trkpt lat="45.92771145785007" lon="11.093116307386607"><ele>187.0</ele><time>2026-04-12T14:55:15.998Z</time></trkpt><trkpt lat="45.92754840003416" lon="11.093120962589635"><ele>187.0</ele><time>2026-04-12T14:55:16.998Z</time></trkpt><trkpt lat="45.92738741555574" lon="11.0931317224721"><ele>185.33333333333334</ele><time>2026-04-12T14:55:17.998Z</time></trkpt><trkpt lat="45.92721966235382" lon="11.093137495628772"><ele>183.66666666666666</ele><time>2026-04-12T14:55:18.998Z</time></trkpt><trkpt lat="45.927048691669896" lon="11.093143016019306"><ele>182.0</ele><time>2026-04-12T14:55:19.998Z</time></trkpt><trkpt lat="45.92687867101583" lon="11.093149179154823"><ele>181.33333333333331</ele><time>2026-04-12T14:55:20.998Z</time></trkpt><trkpt lat="45.926711716705675" lon="11.093155038356342"><ele>180.66666666666666</ele><time>2026-04-12T14:55:21.998Z</time></trkpt><trkpt lat="45.92654146455621" lon="11.093157287845814"><ele>180.0</ele><time>2026-04-12T14:55:22.998Z</time></trkpt><trkpt lat="45.92638706027748" lon="11.093162180896309"><ele>180.0</ele><time>2026-04-12T14:55:23.998Z</time></trkpt><trkpt lat="45.926207968817764" lon="11.093165678064477"><ele>180.0</ele><time>2026-04-12T14:55:24.998Z</time></trkpt><trkpt lat="45.92603522875793" lon="11.093167312608605"><ele>180.0</ele><time>2026-04-12T14:55:25.998Z</time></trkpt><trkpt lat="45.925858702367364" lon="11.093160520899492"><ele>179.33333333333334</ele><time>2026-04-12T14:55:26.998Z</time></trkpt><trkpt lat="45.92567970489281" lon="11.093146782230793"><ele>178.66666666666669</ele><time>2026-04-12T14:55:27.998Z</time></trkpt><trkpt lat="45.925499332542294" lon="11.0931184194424"><ele>178.0</ele><time>2026-04-12T14:55:28.998Z</time></trkpt><trkpt lat="45.925317401963014" lon="11.09308185349859"><ele>178.0</ele><time>2026-04-12T14:55:29.998Z</time></trkpt><trkpt lat="45.92513079508723" lon="11.093037167236849"><ele>178.0</ele><time>2026-04-12T14:55:30.998Z</time></trkpt><trkpt lat="45.924951257963826" lon="11.092992852293733"><ele>178.0</ele><time>2026-04-12T14:55:31.998Z</time></trkpt><trkpt lat="45.924761797216135" lon="11.092940996809158"><ele>178.66666666666669</ele><time>2026-04-12T14:55:32.998Z</time></trkpt><trkpt lat="45.924577629538" lon="11.092886064063181"><ele>179.33333333333334</ele><time>2026-04-12T14:55:33.998Z</time></trkpt><trkpt lat="45.92438822830629" lon="11.092832358482235"><ele>180.0</ele><time>2026-04-12T14:55:34.998Z</time></trkpt><trkpt lat="45.92419302551945" lon="11.092778122298"><ele>181.33333333333334</ele><time>2026-04-12T14:55:35.998Z</time></trkpt><trkpt lat="45.92399775990552" lon="11.092727868237443"><ele>182.66666666666669</ele><time>2026-04-12T14:55:36.998Z</time></trkpt><trkpt lat="45.92379970699517" lon="11.092678322364756"><ele>184.0</ele><time>2026-04-12T14:55:37.998Z</time></trkpt><trkpt lat="45.92360853831503" lon="11.092618971182686"><ele>184.0</ele><time>2026-04-12T14:55:39Z</time></trkpt><trkpt lat="45.92340982682459" lon="11.092550806746063"><ele>184.0</ele><time>2026-04-12T14:55:40Z</time></trkpt><trkpt lat="45.92322026826402" lon="11.092467277082847"><ele>184.0</ele><time>2026-04-12T14:55:41Z</time></trkpt><trkpt lat="45.92302203863887" lon="11.092368237369113"><ele>184.33333333333334</ele><time>2026-04-12T14:55:42Z</time></trkpt><trkpt lat="45.92284431601516" lon="11.092259468087185"><ele>184.66666666666666</ele><time>2026-04-12T14:55:43Z</time></trkpt><trkpt lat="45.922670529814575" lon="11.092145043146267"><ele>185.0</ele><time>2026-04-12T14:55:44Z</time></trkpt><trkpt lat="45.92249442600529" lon="11.092022413018997"><ele>185.0</ele><time>2026-04-12T14:55:45Z</time></trkpt><trkpt lat="45.92232180375135" lon="11.09188626310485"><ele>185.0</ele><time>2026-04-12T14:55:46Z</time></trkpt><trkpt lat="45.92215909685828" lon="11.09172748738697"><ele>185.0</ele><time>2026-04-12T14:55:47Z</time></trkpt><trkpt lat="45.9219972482998" lon="11.091568680015707"><ele>183.66666666666666</ele><time>2026-04-12T14:55:48Z</time></trkpt><trkpt lat="45.92185292259078" lon="11.091395465199854"><ele>182.33333333333334</ele><time>2026-04-12T14:55:49Z</time></trkpt><trkpt lat="45.92170599319329" lon="11.091208609833865"><ele>181.0</ele><time>2026-04-12T14:55:50Z</time></trkpt><trkpt lat="45.9215718377481" lon="11.091029789677128"><ele>181.0</ele><time>2026-04-12T14:55:51Z</time></trkpt><trkpt lat="45.921438733701606" lon="11.09084795062347"><ele>181.0</ele><time>2026-04-12T14:55:52Z</time></trkpt><trkpt lat="45.92130708292097" lon="11.09066585567156"><ele>181.0</ele><time>2026-04-12T14:55:53Z</time></trkpt><trkpt lat="45.921178035543264" lon="11.09047266702985"><ele>179.66666666666669</ele><time>2026-04-12T14:55:54Z</time></trkpt><trkpt lat="45.92105677600049" lon="11.090280067007596"><ele>178.33333333333334</ele><time>2026-04-12T14:55:55Z</time></trkpt><trkpt lat="45.92094212853402" lon="11.090067983532714"><ele>177.0</ele><time>2026-04-12T14:55:56Z</time></trkpt><trkpt lat="45.92083649858976" lon="11.089849883641252"><ele>177.0</ele><time>2026-04-12T14:55:57Z</time></trkpt><trkpt lat="45.92074278817085" lon="11.089644319602254"><ele>177.0</ele><time>2026-04-12T14:55:58Z</time></trkpt><trkpt lat="45.920644588177666" lon="11.089443492413208"><ele>177.0</ele><time>2026-04-12T14:55:59Z</time></trkpt><trkpt lat="45.92054997082186" lon="11.089254305749032"><ele>176.33333333333334</ele><time>2026-04-12T14:56:00Z</time></trkpt><trkpt lat="45.92045940408697" lon="11.08905069915531"><ele>175.66666666666669</ele><time>2026-04-12T14:56:01Z</time></trkpt><trkpt lat="45.92034590373441" lon="11.088838559409549"><ele>175.0</ele><time>2026-04-12T14:56:02Z</time></trkpt><trkpt lat="45.92024473433783" lon="11.088606183551525"><ele>175.0</ele><time>2026-04-12T14:56:03Z</time></trkpt><trkpt lat="45.920152490967126" lon="11.088357190558263"><ele>175.0</ele><time>2026-04-12T14:56:04Z</time></trkpt><trkpt lat="45.92007095435697" lon="11.088093730770119"><ele>175.0</ele><time>2026-04-12T14:56:05Z</time></trkpt><trkpt lat="45.91998308628611" lon="11.087837217503957"><ele>175.0</ele><time>2026-04-12T14:56:06Z</time></trkpt><trkpt lat="45.91989837484615" lon="11.087598413140546"><ele>175.0</ele><time>2026-04-12T14:56:07Z</time></trkpt><trkpt lat="45.91982037239736" lon="11.087378781206928"><ele>175.0</ele><time>2026-04-12T14:56:08Z</time></trkpt><trkpt lat="45.91975183402556" lon="11.087146118974285"><ele>175.0</ele><time>2026-04-12T14:56:09Z</time></trkpt><trkpt lat="45.91969609884015" lon="11.08690615947209"><ele>175.0</ele><time>2026-04-12T14:56:10Z</time></trkpt><trkpt lat="45.91964820726784" lon="11.086674567464579"><ele>175.0</ele><time>2026-04-12T14:56:11Z</time></trkpt><trkpt lat="45.91960519825109" lon="11.086442034679894"><ele>175.0</ele><time>2026-04-12T14:56:12Z</time></trkpt><trkpt lat="45.91956866777126" lon="11.08621795915153"><ele>175.0</ele><time>2026-04-12T14:56:13Z</time></trkpt><trkpt lat="45.91953243290516" lon="11.085983673502609"><ele>175.0</ele><time>2026-04-12T14:56:14Z</time></trkpt><trkpt lat="45.91950468722278" lon="11.085743944036107"><ele>175.33333333333334</ele><time>2026-04-12T14:56:15Z</time></trkpt><trkpt lat="45.919473919402854" lon="11.085509878882936"><ele>175.66666666666666</ele><time>2026-04-12T14:56:16Z</time></trkpt><trkpt lat="45.919439283116404" lon="11.085273620162306"><ele>176.0</ele><time>2026-04-12T14:56:17Z</time></trkpt><trkpt lat="45.91940532781178" lon="11.085032792160407"><ele>176.0</ele><time>2026-04-12T14:56:18Z</time></trkpt><trkpt lat="45.91937169533169" lon="11.084795914816372"><ele>176.0</ele><time>2026-04-12T14:56:19Z</time></trkpt><trkpt lat="45.91933872740627" lon="11.08456132150422"><ele>176.0</ele><time>2026-04-12T14:56:19.999Z</time></trkpt><trkpt lat="45.91930990593127" lon="11.084324938068589"><ele>176.0</ele><time>2026-04-12T14:56:20.999Z</time></trkpt><trkpt lat="45.919277222297715" lon="11.084091277937574"><ele>176.0</ele><time>2026-04-12T14:56:21.999Z</time></trkpt><trkpt lat="45.91924061531643" lon="11.083862665716177"><ele>176.0</ele><time>2026-04-12T14:56:22.999Z</time></trkpt><trkpt lat="45.91920939692256" lon="11.083635500798941"><ele>176.0</ele><time>2026-04-12T14:56:23.999Z</time></trkpt><trkpt lat="45.91916902763335" lon="11.083405569993097"><ele>176.0</ele><time>2026-04-12T14:56:24.999Z</time></trkpt><trkpt lat="45.91912020280084" lon="11.083169836050631"><ele>176.0</ele><time>2026-04-12T14:56:25.999Z</time></trkpt><trkpt lat="45.91904797681096" lon="11.082944907690976"><ele>175.66666666666666</ele><time>2026-04-12T14:56:26.999Z</time></trkpt><trkpt lat="45.9189707867586" lon="11.082716997448527"><ele>175.33333333333334</ele><time>2026-04-12T14:56:27.999Z</time></trkpt><trkpt lat="45.91890140869889" lon="11.082481840673061"><ele>175.0</ele><time>2026-04-12T14:56:28.999Z</time></trkpt><trkpt lat="45.91883189971905" lon="11.082257428997215"><ele>175.0</ele><time>2026-04-12T14:56:29.999Z</time></trkpt><trkpt lat="45.9187663193639" lon="11.082031223553146"><ele>175.0</ele><time>2026-04-12T14:56:30.999Z</time></trkpt><trkpt lat="45.91869078245293" lon="11.081805919261372"><ele>175.0</ele><time>2026-04-12T14:56:31.999Z</time></trkpt><trkpt lat="45.918618288989386" lon="11.08157303209526"><ele>175.66666666666669</ele><time>2026-04-12T14:56:32.999Z</time></trkpt><trkpt lat="45.91854272960635" lon="11.081341058114631"><ele>176.33333333333334</ele><time>2026-04-12T14:56:33.999Z</time></trkpt><trkpt lat="45.918471151203924" lon="11.081099368116593"><ele>177.0</ele><time>2026-04-12T14:56:34.999Z</time></trkpt><trkpt lat="45.91839293193958" lon="11.080856075644984"><ele>177.33333333333334</ele><time>2026-04-12T14:56:35.999Z</time></trkpt><trkpt lat="45.91831960759507" lon="11.080606555165174"><ele>177.66666666666669</ele><time>2026-04-12T14:56:36.999Z</time></trkpt><trkpt lat="45.9182411222831" lon="11.080367019263486"><ele>178.0</ele><time>2026-04-12T14:56:37.999Z</time></trkpt><trkpt lat="45.91817337394909" lon="11.080128439356026"><ele>178.0</ele><time>2026-04-12T14:56:38.999Z</time></trkpt><trkpt lat="45.91810874009354" lon="11.079885777841561"><ele>178.0</ele><time>2026-04-12T14:56:39.999Z</time></trkpt><trkpt lat="45.918053187299556" lon="11.07963851486984"><ele>178.0</ele><time>2026-04-12T14:56:40.999Z</time></trkpt><trkpt lat="45.91801307239585" lon="11.079381088012894"><ele>178.0</ele><time>2026-04-12T14:56:41.999Z</time></trkpt><trkpt lat="45.91799126700462" lon="11.079108545306243"><ele>178.0</ele><time>2026-04-12T14:56:42.999Z</time></trkpt><trkpt lat="45.91798555208746" lon="11.0788211963774"><ele>178.0</ele><time>2026-04-12T14:56:43.999Z</time></trkpt><trkpt lat="45.9179833630361" lon="11.07852937119428"><ele>177.0</ele><time>2026-04-12T14:56:44.999Z</time></trkpt><trkpt lat="45.91799583569418" lon="11.07824133473438"><ele>176.0</ele><time>2026-04-12T14:56:45.999Z</time></trkpt><trkpt lat="45.91800577917161" lon="11.077959117867394"><ele>175.0</ele><time>2026-04-12T14:56:46.999Z</time></trkpt><trkpt lat="45.918016792194884" lon="11.077678661014891"><ele>175.33333333333334</ele><time>2026-04-12T14:56:47.999Z</time></trkpt><trkpt lat="45.91802545971758" lon="11.077409856622717"><ele>175.66666666666666</ele><time>2026-04-12T14:56:48.999Z</time></trkpt><trkpt lat="45.91803539431079" lon="11.077143062512615"><ele>176.0</ele><time>2026-04-12T14:56:49.999Z</time></trkpt><trkpt lat="45.918043643783605" lon="11.076877193071176"><ele>176.0</ele><time>2026-04-12T14:56:50.999Z</time></trkpt><trkpt lat="45.918044006819635" lon="11.076605626383694"><ele>176.0</ele><time>2026-04-12T14:56:51.999Z</time></trkpt><trkpt lat="45.918043759815106" lon="11.076334589547491"><ele>176.0</ele><time>2026-04-12T14:56:52.999Z</time></trkpt><trkpt lat="45.918037024550536" lon="11.076067348429056"><ele>175.66666666666666</ele><time>2026-04-12T14:56:53.999Z</time></trkpt><trkpt lat="45.9180286182425" lon="11.075805707953652"><ele>175.33333333333334</ele><time>2026-04-12T14:56:54.999Z</time></trkpt><trkpt lat="45.9180047598556" lon="11.075542253627056"><ele>175.0</ele><time>2026-04-12T14:56:55.999Z</time></trkpt><trkpt lat="45.91797068348029" lon="11.075286843188572"><ele>175.0</ele><time>2026-04-12T14:56:56.999Z</time></trkpt><trkpt lat="45.917919283152905" lon="11.075035819230292"><ele>175.0</ele><time>2026-04-12T14:56:57.999Z</time></trkpt><trkpt lat="45.91785345641365" lon="11.074796787062082"><ele>175.0</ele><time>2026-04-12T14:56:58.999Z</time></trkpt><trkpt lat="45.91776808385652" lon="11.074564555995"><ele>175.0</ele><time>2026-04-12T14:56:59.999Z</time></trkpt><trkpt lat="45.91767756213026" lon="11.074364166342221"><ele>175.0</ele><time>2026-04-12T14:57:00.999Z</time></trkpt><trkpt lat="45.91757814332284" lon="11.074175194083654"><ele>175.0</ele><time>2026-04-12T14:57:01.999Z</time></trkpt><trkpt lat="45.917476292513676" lon="11.073985899093616"><ele>175.0</ele><time>2026-04-12T14:57:02.999Z</time></trkpt><trkpt lat="45.917390697613286" lon="11.073797406429968"><ele>175.0</ele><time>2026-04-12T14:57:03.999Z</time></trkpt><trkpt lat="45.91730639446019" lon="11.073592464355983"><ele>175.0</ele><time>2026-04-12T14:57:04.999Z</time></trkpt><trkpt lat="45.917241161207414" lon="11.073374157023284"><ele>174.66666666666669</ele><time>2026-04-12T14:57:05.999Z</time></trkpt><trkpt lat="45.91719178645039" lon="11.073145045586841"><ele>174.33333333333334</ele><time>2026-04-12T14:57:06.999Z</time></trkpt><trkpt lat="45.91716809094189" lon="11.072904803679666"><ele>174.0</ele><time>2026-04-12T14:57:07.999Z</time></trkpt><trkpt lat="45.91715287057199" lon="11.072658481458777"><ele>174.0</ele><time>2026-04-12T14:57:08.999Z</time></trkpt><trkpt lat="45.91716027406129" lon="11.072401641331325"><ele>174.0</ele><time>2026-04-12T14:57:09.999Z</time></trkpt><trkpt lat="45.917167942719814" lon="11.072152828571301"><ele>174.0</ele><time>2026-04-12T14:57:10.999Z</time></trkpt><trkpt lat="45.917169644520385" lon="11.071905697763556"><ele>174.0</ele><time>2026-04-12T14:57:11.999Z</time></trkpt><trkpt lat="45.91717266263482" lon="11.071681596863911"><ele>174.0</ele><time>2026-04-12T14:57:12.999Z</time></trkpt><trkpt lat="45.91718260445557" lon="11.07145838506825"><ele>174.0</ele><time>2026-04-12T14:57:13.999Z</time></trkpt><trkpt lat="45.917203845650505" lon="11.071245897874881"><ele>174.0</ele><time>2026-04-12T14:57:14.999Z</time></trkpt><trkpt lat="45.91723952266833" lon="11.071026562490644"><ele>174.0</ele><time>2026-04-12T14:57:15.999Z</time></trkpt><trkpt lat="45.91728716456499" lon="11.070812133895442"><ele>174.0</ele><time>2026-04-12T14:57:16.998Z</time></trkpt><trkpt lat="45.917332933659786" lon="11.070604020021507"><ele>174.0</ele><time>2026-04-12T14:57:17.998Z</time></trkpt><trkpt lat="45.91737494623502" lon="11.07038381812282"><ele>174.0</ele><time>2026-04-12T14:57:18.998Z</time></trkpt><trkpt lat="45.91741375453513" lon="11.070171099549189"><ele>174.0</ele><time>2026-04-12T14:57:19.998Z</time></trkpt><trkpt lat="45.91745084428225" lon="11.069963042699655"><ele>174.25</ele><time>2026-04-12T14:57:20.998Z</time></trkpt><trkpt lat="45.91748988761873" lon="11.0697530876689"><ele>174.5</ele><time>2026-04-12T14:57:21.998Z</time></trkpt><trkpt lat="45.9175327463452" lon="11.069542958611752"><ele>174.75</ele><time>2026-04-12T14:57:22.998Z</time></trkpt><trkpt lat="45.91756946360174" lon="11.069346461145804"><ele>175.0</ele><time>2026-04-12T14:57:23.998Z</time></trkpt><trkpt lat="45.91760394981334" lon="11.069163084056582"><ele>175.25</ele><time>2026-04-12T14:57:24.998Z</time></trkpt><trkpt lat="45.91764179032782" lon="11.068968559255561"><ele>175.5</ele><time>2026-04-12T14:57:25.998Z</time></trkpt><trkpt lat="45.91767894547355" lon="11.068779992755724"><ele>175.75</ele><time>2026-04-12T14:57:26.998Z</time></trkpt><trkpt lat="45.917715906913514" lon="11.068594176496235"><ele>176.0</ele><time>2026-04-12T14:57:27.998Z</time></trkpt><trkpt lat="45.91775175016254" lon="11.068399510381537"><ele>176.5</ele><time>2026-04-12T14:57:28.998Z</time></trkpt><trkpt lat="45.91779202353123" lon="11.068207479125629"><ele>177.0</ele><time>2026-04-12T14:57:29.998Z</time></trkpt><trkpt lat="45.917825037788035" lon="11.068026097848003"><ele>177.5</ele><time>2026-04-12T14:57:30.998Z</time></trkpt><trkpt lat="45.91785537889842" lon="11.067849483215248"><ele>178.0</ele><time>2026-04-12T14:57:31.998Z</time></trkpt><trkpt lat="45.917882676699726" lon="11.067674293377905"><ele>178.0</ele><time>2026-04-12T14:57:32.998Z</time></trkpt><trkpt lat="45.91791103337383" lon="11.067502913885637"><ele>178.0</ele><time>2026-04-12T14:57:33.998Z</time></trkpt><trkpt lat="45.91794047535695" lon="11.067332413087243"><ele>178.0</ele><time>2026-04-12T14:57:34.998Z</time></trkpt><trkpt lat="45.917973968877504" lon="11.067164694287213"><ele>178.0</ele><time>2026-04-12T14:57:35.998Z</time></trkpt><trkpt lat="45.918007398146166" lon="11.066998181016997"><ele>178.25</ele><time>2026-04-12T14:57:36.998Z</time></trkpt><trkpt lat="45.918034578971614" lon="11.06682051650618"><ele>178.5</ele><time>2026-04-12T14:57:37.998Z</time></trkpt><trkpt lat="45.9180578448816" lon="11.066636731169288"><ele>178.75</ele><time>2026-04-12T14:57:38.998Z</time></trkpt><trkpt lat="45.91806527285693" lon="11.066448977761658"><ele>179.0</ele><time>2026-04-12T14:57:39.998Z</time></trkpt><trkpt lat="45.918058928618315" lon="11.066255772560481"><ele>180.0</ele><time>2026-04-12T14:57:40.998Z</time></trkpt><trkpt lat="45.91804762943578" lon="11.06606593015926"><ele>181.0</ele><time>2026-04-12T14:57:41.998Z</time></trkpt><trkpt lat="45.9180314412353" lon="11.065878345626734"><ele>182.0</ele><time>2026-04-12T14:57:42.998Z</time></trkpt><trkpt lat="45.918017436825494" lon="11.065685944744244"><ele>183.0</ele><time>2026-04-12T14:57:43.998Z</time></trkpt><trkpt lat="45.918005985977715" lon="11.065492510406319"><ele>183.0</ele><time>2026-04-12T14:57:45Z</time></trkpt><trkpt lat="45.91798619785555" lon="11.065293838924358"><ele>183.0</ele><time>2026-04-12T14:57:46Z</time></trkpt><trkpt lat="45.917970356594346" lon="11.065098201496737"><ele>183.0</ele><time>2026-04-12T14:57:47Z</time></trkpt><trkpt lat="45.91795596600553" lon="11.06490281172077"><ele>183.0</ele><time>2026-04-12T14:57:48Z</time></trkpt><trkpt lat="45.917941624178695" lon="11.064710807514484"><ele>183.0</ele><time>2026-04-12T14:57:49Z</time></trkpt><trkpt lat="45.91792967606975" lon="11.064514983736203"><ele>183.0</ele><time>2026-04-12T14:57:50Z</time></trkpt><trkpt lat="45.91791735187344" lon="11.064325041923357"><ele>183.0</ele><time>2026-04-12T14:57:51Z</time></trkpt><trkpt lat="45.91789442457971" lon="11.064148628157104"><ele>183.0</ele><time>2026-04-12T14:57:52Z</time></trkpt><trkpt lat="45.9178833656287" lon="11.063970992762703"><ele>183.25</ele><time>2026-04-12T14:57:53Z</time></trkpt><trkpt lat="45.91787374094661" lon="11.063782087897705"><ele>183.5</ele><time>2026-04-12T14:57:54Z</time></trkpt><trkpt lat="45.917848230528" lon="11.063597056322607"><ele>183.75</ele><time>2026-04-12T14:57:55Z</time></trkpt><trkpt lat="45.917818102054255" lon="11.063402445024602"><ele>184.0</ele><time>2026-04-12T14:57:56Z</time></trkpt><trkpt lat="45.917779520250406" lon="11.063211079404054"><ele>184.0</ele><time>2026-04-12T14:57:57Z</time></trkpt><trkpt lat="45.917733599018455" lon="11.063016138845216"><ele>184.0</ele><time>2026-04-12T14:57:58Z</time></trkpt><trkpt lat="45.91768643234309" lon="11.062823869495544"><ele>184.0</ele><time>2026-04-12T14:57:59Z</time></trkpt><trkpt lat="45.917636908965825" lon="11.062622323509913"><ele>184.0</ele><time>2026-04-12T14:58:00Z</time></trkpt><trkpt lat="45.917592089681925" lon="11.062423592122956"><ele>184.5</ele><time>2026-04-12T14:58:01Z</time></trkpt><trkpt lat="45.917546930802736" lon="11.062229667015387"><ele>185.0</ele><time>2026-04-12T14:58:02Z</time></trkpt><trkpt lat="45.91750714421595" lon="11.06203538604425"><ele>185.5</ele><time>2026-04-12T14:58:03Z</time></trkpt><trkpt lat="45.91746305700709" lon="11.061827943564213"><ele>186.0</ele><time>2026-04-12T14:58:04Z</time></trkpt><trkpt lat="45.9174234506991" lon="11.061617140885241"><ele>185.75</ele><time>2026-04-12T14:58:05Z</time></trkpt><trkpt lat="45.91738907398143" lon="11.061410276351491"><ele>185.5</ele><time>2026-04-12T14:58:06Z</time></trkpt><trkpt lat="45.917364656705644" lon="11.061204963983684"><ele>185.25</ele><time>2026-04-12T14:58:07Z</time></trkpt><trkpt lat="45.917342269396045" lon="11.061001741640702"><ele>185.0</ele><time>2026-04-12T14:58:08Z</time></trkpt><trkpt lat="45.91732562242079" lon="11.060797763597702"><ele>185.25</ele><time>2026-04-12T14:58:09Z</time></trkpt><trkpt lat="45.9173137334997" lon="11.060599278267143"><ele>185.5</ele><time>2026-04-12T14:58:10Z</time></trkpt><trkpt lat="45.917303564949776" lon="11.06039631544048"><ele>185.75</ele><time>2026-04-12T14:58:11Z</time></trkpt><trkpt lat="45.917296480885916" lon="11.060186993624782"><ele>186.0</ele><time>2026-04-12T14:58:12Z</time></trkpt><trkpt lat="45.917292778887976" lon="11.059980571457894"><ele>186.25</ele><time>2026-04-12T14:58:13Z</time></trkpt><trkpt lat="45.91730682837129" lon="11.059767684802058"><ele>186.5</ele><time>2026-04-12T14:58:14Z</time></trkpt><trkpt lat="45.91730539817477" lon="11.059551493137803"><ele>186.75</ele><time>2026-04-12T14:58:15Z</time></trkpt><trkpt lat="45.91729022118102" lon="11.059340063944083"><ele>187.0</ele><time>2026-04-12T14:58:16Z</time></trkpt><trkpt lat="45.917295414413445" lon="11.059131103599098"><ele>187.0</ele><time>2026-04-12T14:58:17Z</time></trkpt><trkpt lat="45.917296218570065" lon="11.058914133868988"><ele>187.0</ele><time>2026-04-12T14:58:18Z</time></trkpt><trkpt lat="45.91729062564612" lon="11.058696157940897"><ele>187.0</ele><time>2026-04-12T14:58:19Z</time></trkpt><trkpt lat="45.91728444916994" lon="11.058468071664613"><ele>186.0</ele><time>2026-04-12T14:58:20Z</time></trkpt><trkpt lat="45.9172756732256" lon="11.058238737463755"><ele>185.0</ele><time>2026-04-12T14:58:21Z</time></trkpt><trkpt lat="45.91728024803502" lon="11.057999439999254"><ele>184.0</ele><time>2026-04-12T14:58:22Z</time></trkpt><trkpt lat="45.91727852688442" lon="11.05777248436473"><ele>184.0</ele><time>2026-04-12T14:58:23Z</time></trkpt><trkpt lat="45.917278639028126" lon="11.057541809808159"><ele>184.0</ele><time>2026-04-12T14:58:24Z</time></trkpt><trkpt lat="45.91728143914179" lon="11.057313330780634"><ele>184.0</ele><time>2026-04-12T14:58:25Z</time></trkpt><trkpt lat="45.91728149424042" lon="11.057088274768352"><ele>184.33333333333334</ele><time>2026-04-12T14:58:26Z</time></trkpt><trkpt lat="45.91727841418419" lon="11.056863193536778"><ele>184.66666666666666</ele><time>2026-04-12T14:58:27Z</time></trkpt><trkpt lat="45.91727219336562" lon="11.056637832710615"><ele>185.0</ele><time>2026-04-12T14:58:27.999Z</time></trkpt><trkpt lat="45.91725808273672" lon="11.056412144201044"><ele>185.0</ele><time>2026-04-12T14:58:28.999Z</time></trkpt><trkpt lat="45.91724211570104" lon="11.056190797392908"><ele>185.0</ele><time>2026-04-12T14:58:29.999Z</time></trkpt><trkpt lat="45.91722515882011" lon="11.055970753833815"><ele>185.0</ele><time>2026-04-12T14:58:30.999Z</time></trkpt><trkpt lat="45.917213268371476" lon="11.055747196382663"><ele>184.66666666666666</ele><time>2026-04-12T14:58:31.999Z</time></trkpt><trkpt lat="45.91719697430943" lon="11.055523347237159"><ele>184.33333333333334</ele><time>2026-04-12T14:58:32.999Z</time></trkpt><trkpt lat="45.91718549246854" lon="11.055300162635977"><ele>184.0</ele><time>2026-04-12T14:58:33.999Z</time></trkpt><trkpt lat="45.91717164647049" lon="11.055073573021165"><ele>184.25</ele><time>2026-04-12T14:58:34.999Z</time></trkpt><trkpt lat="45.91715732314801" lon="11.054856864438918"><ele>184.5</ele><time>2026-04-12T14:58:35.999Z</time></trkpt><trkpt lat="45.91714615892633" lon="11.054657276056982"><ele>184.75</ele><time>2026-04-12T14:58:36.999Z</time></trkpt><trkpt lat="45.91713692215085" lon="11.054464551695792"><ele>185.0</ele><time>2026-04-12T14:58:37.999Z</time></trkpt><trkpt lat="45.91712728005159" lon="11.05427116739338"><ele>185.25</ele><time>2026-04-12T14:58:38.999Z</time></trkpt><trkpt lat="45.917114536006125" lon="11.054070231350158"><ele>185.5</ele><time>2026-04-12T14:58:39.999Z</time></trkpt><trkpt lat="45.917100761571746" lon="11.053868484476315"><ele>185.75</ele><time>2026-04-12T14:58:40.999Z</time></trkpt><trkpt lat="45.91708705155343" lon="11.053662002923048"><ele>186.0</ele><time>2026-04-12T14:58:41.999Z</time></trkpt><trkpt lat="45.917069882508414" lon="11.053455093968257"><ele>185.33333333333334</ele><time>2026-04-12T14:58:42.999Z</time></trkpt><trkpt lat="45.91704629072148" lon="11.053240695262534"><ele>184.66666666666669</ele><time>2026-04-12T14:58:43.999Z</time></trkpt><trkpt lat="45.91702102008973" lon="11.053017185193822"><ele>184.0</ele><time>2026-04-12T14:58:44.999Z</time></trkpt><trkpt lat="45.917010954524656" lon="11.052780628190376"><ele>184.0</ele><time>2026-04-12T14:58:45.999Z</time></trkpt><trkpt lat="45.91697282976539" lon="11.052544261313253"><ele>184.0</ele><time>2026-04-12T14:58:46.999Z</time></trkpt><trkpt lat="45.91692655653077" lon="11.052319713116514"><ele>184.0</ele><time>2026-04-12T14:58:47.999Z</time></trkpt><trkpt lat="45.9168767607685" lon="11.05210993884147"><ele>183.0</ele><time>2026-04-12T14:58:48.999Z</time></trkpt><trkpt lat="45.91680871940885" lon="11.05190945527681"><ele>182.0</ele><time>2026-04-12T14:58:49.999Z</time></trkpt><trkpt lat="45.916763711111386" lon="11.051712805792999"><ele>181.0</ele><time>2026-04-12T14:58:50.999Z</time></trkpt><trkpt lat="45.916714717050525" lon="11.051527119732592"><ele>180.0</ele><time>2026-04-12T14:58:51.999Z</time></trkpt><trkpt lat="45.91665661372359" lon="11.05133479269565"><ele>183.0</ele><time>2026-04-12T14:58:52.999Z</time></trkpt><trkpt lat="45.91660990231925" lon="11.051132121401544"><ele>186.0</ele><time>2026-04-12T14:58:53.999Z</time></trkpt><trkpt lat="45.916567465800696" lon="11.050917396966105"><ele>189.0</ele><time>2026-04-12T14:58:54.999Z</time></trkpt><trkpt lat="45.91653810063622" lon="11.050693743331236"><ele>189.0</ele><time>2026-04-12T14:58:55.999Z</time></trkpt><trkpt lat="45.916517972630736" lon="11.05046831556203"><ele>189.0</ele><time>2026-04-12T14:58:56.999Z</time></trkpt><trkpt lat="45.91649573864799" lon="11.050252830321085"><ele>189.0</ele><time>2026-04-12T14:58:57.999Z</time></trkpt><trkpt lat="45.91646825009392" lon="11.05005483807002"><ele>188.5</ele><time>2026-04-12T14:58:58.999Z</time></trkpt><trkpt lat="45.91642796247649" lon="11.049854355303747"><ele>188.0</ele><time>2026-04-12T14:58:59.999Z</time></trkpt><trkpt lat="45.9163735289441" lon="11.049660993750734"><ele>187.5</ele><time>2026-04-12T14:59:00.999Z</time></trkpt><trkpt lat="45.91630585885677" lon="11.04946763958631"><ele>187.0</ele><time>2026-04-12T14:59:01.999Z</time></trkpt><trkpt lat="45.9162285912843" lon="11.04927876041081"><ele>185.66666666666669</ele><time>2026-04-12T14:59:02.999Z</time></trkpt><trkpt lat="45.916140128252735" lon="11.049104341872772"><ele>184.33333333333334</ele><time>2026-04-12T14:59:03.999Z</time></trkpt><trkpt lat="45.91604107395212" lon="11.048939966815077"><ele>183.0</ele><time>2026-04-12T14:59:04.999Z</time></trkpt><trkpt lat="45.91593069958511" lon="11.048786848792592"><ele>187.0</ele><time>2026-04-12T14:59:05.999Z</time></trkpt><trkpt lat="45.91580569943168" lon="11.048638797585799"><ele>191.0</ele><time>2026-04-12T14:59:06.999Z</time></trkpt><trkpt lat="45.915693784312815" lon="11.048499736458789"><ele>195.0</ele><time>2026-04-12T14:59:07.999Z</time></trkpt><trkpt lat="45.915583677716334" lon="11.048370826372965"><ele>192.33333333333334</ele><time>2026-04-12T14:59:08.999Z</time></trkpt><trkpt lat="45.91547271632541" lon="11.048237590520735"><ele>189.66666666666669</ele><time>2026-04-12T14:59:09.999Z</time></trkpt><trkpt lat="45.91535700738514" lon="11.04809500792794"><ele>187.0</ele><time>2026-04-12T14:59:10.999Z</time></trkpt><trkpt lat="45.9152399796903" lon="11.047948464643826"><ele>187.0</ele><time>2026-04-12T14:59:11.999Z</time></trkpt><trkpt lat="45.915131053987686" lon="11.047782360577017"><ele>187.0</ele><time>2026-04-12T14:59:12.999Z</time></trkpt><trkpt lat="45.915032500695425" lon="11.047609338829888"><ele>187.0</ele><time>2026-04-12T14:59:13.999Z</time></trkpt><trkpt lat="45.914948339134504" lon="11.047444837978471"><ele>188.75</ele><time>2026-04-12T14:59:14.999Z</time></trkpt><trkpt lat="45.914875063714334" lon="11.047284592560683"><ele>190.5</ele><time>2026-04-12T14:59:15.999Z</time></trkpt><trkpt lat="45.91480386299196" lon="11.047112560056444"><ele>192.25</ele><time>2026-04-12T14:59:16.999Z</time></trkpt><trkpt lat="45.914735647708305" lon="11.046929916508873"><ele>194.0</ele><time>2026-04-12T14:59:17.999Z</time></trkpt><trkpt lat="45.914664186134175" lon="11.04674565400567"><ele>194.0</ele><time>2026-04-12T14:59:18.999Z</time></trkpt><trkpt lat="45.91459745575007" lon="11.046561981596033"><ele>194.0</ele><time>2026-04-12T14:59:19.999Z</time></trkpt><trkpt lat="45.91452907350147" lon="11.046382591540889"><ele>194.0</ele><time>2026-04-12T14:59:20.999Z</time></trkpt><trkpt lat="45.914442494039754" lon="11.046213869730586"><ele>194.0</ele><time>2026-04-12T14:59:21.999Z</time></trkpt><trkpt lat="45.91434188259781" lon="11.04605366573187"><ele>196.0</ele><time>2026-04-12T14:59:22.999Z</time></trkpt><trkpt lat="45.91422533408226" lon="11.0459072736441"><ele>198.0</ele><time>2026-04-12T14:59:23.999Z</time></trkpt><trkpt lat="45.91410358658786" lon="11.045771758352142"><ele>200.0</ele><time>2026-04-12T14:59:24.998Z</time></trkpt><trkpt lat="45.913985663970344" lon="11.045648468612352"><ele>200.0</ele><time>2026-04-12T14:59:25.998Z</time></trkpt><trkpt lat="45.913868525134596" lon="11.045524668961216"><ele>200.0</ele><time>2026-04-12T14:59:26.998Z</time></trkpt><trkpt lat="45.91376215106722" lon="11.045405389036661"><ele>200.0</ele><time>2026-04-12T14:59:27.998Z</time></trkpt><trkpt lat="45.91366446642435" lon="11.045291824380667"><ele>200.0</ele><time>2026-04-12T14:59:28.998Z</time></trkpt><trkpt lat="45.9135676604266" lon="11.045173566378322"><ele>200.0</ele><time>2026-04-12T14:59:29.998Z</time></trkpt><trkpt lat="45.913464983245106" lon="11.045044008125576"><ele>200.0</ele><time>2026-04-12T14:59:30.998Z</time></trkpt><trkpt lat="45.913364541415206" lon="11.044910888603072"><ele>200.0</ele><time>2026-04-12T14:59:31.998Z</time></trkpt><trkpt lat="45.91326897876137" lon="11.044793894748985"><ele>200.0</ele><time>2026-04-12T14:59:32.998Z</time></trkpt><trkpt lat="45.9131822558955" lon="11.044682704613303"><ele>200.25</ele><time>2026-04-12T14:59:33.998Z</time></trkpt><trkpt lat="45.913101043293686" lon="11.044575741985097"><ele>200.5</ele><time>2026-04-12T14:59:34.998Z</time></trkpt><trkpt lat="45.91302017439664" lon="11.044454752659181"><ele>200.75</ele><time>2026-04-12T14:59:35.998Z</time></trkpt><trkpt lat="45.91293805658664" lon="11.044320605319882"><ele>201.0</ele><time>2026-04-12T14:59:36.998Z</time></trkpt><trkpt lat="45.91284866218428" lon="11.044189157370818"><ele>201.0</ele><time>2026-04-12T14:59:37.998Z</time></trkpt><trkpt lat="45.91276710356303" lon="11.044057155823769"><ele>201.0</ele><time>2026-04-12T14:59:38.998Z</time></trkpt><trkpt lat="45.912656518524024" lon="11.043956951485002"><ele>201.0</ele><time>2026-04-12T14:59:39.998Z</time></trkpt><trkpt lat="45.912540420118965" lon="11.043865525998314"><ele>201.0</ele><time>2026-04-12T14:59:40.998Z</time></trkpt><trkpt lat="45.912432327655935" lon="11.043777015471779"><ele>201.0</ele><time>2026-04-12T14:59:41.998Z</time></trkpt><trkpt lat="45.91231847367953" lon="11.043676002181774"><ele>201.0</ele><time>2026-04-12T14:59:42.998Z</time></trkpt><trkpt lat="45.912216181659346" lon="11.043561261156245"><ele>201.0</ele><time>2026-04-12T14:59:43.998Z</time></trkpt><trkpt lat="45.91211967090274" lon="11.043437622132606"><ele>201.0</ele><time>2026-04-12T14:59:44.998Z</time></trkpt><trkpt lat="45.912028190911386" lon="11.043308287489143"><ele>200.0</ele><time>2026-04-12T14:59:45.998Z</time></trkpt><trkpt lat="45.911942603950074" lon="11.043178253103124"><ele>199.0</ele><time>2026-04-12T14:59:46.998Z</time></trkpt><trkpt lat="45.911862207116" lon="11.04304778224447"><ele>198.0</ele><time>2026-04-12T14:59:47.998Z</time></trkpt><trkpt lat="45.911788594715745" lon="11.04292725414143"><ele>197.0</ele><time>2026-04-12T14:59:48.998Z</time></trkpt><trkpt lat="45.91170043764947" lon="11.042798779946567"><ele>198.25</ele><time>2026-04-12T14:59:49.998Z</time></trkpt><trkpt lat="45.91159673773635" lon="11.04268439834129"><ele>199.5</ele><time>2026-04-12T14:59:51Z</time></trkpt><trkpt lat="45.911496135187114" lon="11.04255952940674"><ele>200.75</ele><time>2026-04-12T14:59:52Z</time></trkpt><trkpt lat="45.911388317311115" lon="11.042441014279122"><ele>202.0</ele><time>2026-04-12T14:59:53Z</time></trkpt><trkpt lat="45.91128441924059" lon="11.042319338095613"><ele>201.99999999999997</ele><time>2026-04-12T14:59:54Z</time></trkpt><trkpt lat="45.9111935302203" lon="11.042241088476805"><ele>202.0</ele><time>2026-04-12T14:59:55Z</time></trkpt><trkpt lat="45.91110845242799" lon="11.04217251115645"><ele>202.0</ele><time>2026-04-12T14:59:56Z</time></trkpt><trkpt lat="45.911035633005554" lon="11.042116445809484"><ele>202.0</ele><time>2026-04-12T14:59:57Z</time></trkpt><trkpt lat="45.9109752218336" lon="11.042071025322763"><ele>201.99999999999997</ele><time>2026-04-12T14:59:58Z</time></trkpt><trkpt lat="45.91091555963017" lon="11.042038799695538"><ele>202.0</ele><time>2026-04-12T14:59:59Z</time></trkpt><trkpt lat="45.910794389949956" lon="11.041966165415205"><ele>202.6</ele><time>2026-04-12T15:00:01Z</time></trkpt><trkpt lat="45.91072571290036" lon="11.041921330168881"><ele>203.2</ele><time>2026-04-12T15:00:02Z</time></trkpt><trkpt lat="45.91064173070576" lon="11.041873111205021"><ele>203.8</ele><time>2026-04-12T15:00:03Z</time></trkpt><trkpt lat="45.910549652607706" lon="11.041825914259421"><ele>204.4</ele><time>2026-04-12T15:00:04Z</time></trkpt><trkpt lat="45.910456459556315" lon="11.041791768224547"><ele>205.0</ele><time>2026-04-12T15:00:05Z</time></trkpt><trkpt lat="45.9103674443301" lon="11.041757937548144"><ele>205.0</ele><time>2026-04-12T15:00:06Z</time></trkpt><trkpt lat="45.91027492044251" lon="11.04172615382341"><ele>205.0</ele><time>2026-04-12T15:00:07Z</time></trkpt><trkpt lat="45.910176340441836" lon="11.04169024137273"><ele>205.0</ele><time>2026-04-12T15:00:08Z</time></trkpt><trkpt lat="45.910072985326536" lon="11.0416465613486"><ele>205.0</ele><time>2026-04-12T15:00:09Z</time></trkpt><trkpt lat="45.90996958493306" lon="11.04158856896978"><ele>205.0</ele><time>2026-04-12T15:00:10Z</time></trkpt><trkpt lat="45.909862250654655" lon="11.041523499140393"><ele>204.75</ele><time>2026-04-12T15:00:11Z</time></trkpt><trkpt lat="45.909750529684196" lon="11.041454541227582"><ele>204.5</ele><time>2026-04-12T15:00:12Z</time></trkpt><trkpt lat="45.90964470619851" lon="11.041354585631737"><ele>204.25</ele><time>2026-04-12T15:00:13Z</time></trkpt><trkpt lat="45.90952729948765" lon="11.041281120258288"><ele>204.0</ele><time>2026-04-12T15:00:14Z</time></trkpt><trkpt lat="45.9094154131557" lon="11.0412167493725"><ele>204.0</ele><time>2026-04-12T15:00:15Z</time></trkpt><trkpt lat="45.90931164540337" lon="11.041158368613782"><ele>204.0</ele><time>2026-04-12T15:00:16Z</time></trkpt><trkpt lat="45.909209966480965" lon="11.041104314556625"><ele>204.0</ele><time>2026-04-12T15:00:17Z</time></trkpt><trkpt lat="45.90912446563862" lon="11.041060027034472"><ele>204.0</ele><time>2026-04-12T15:00:18Z</time></trkpt><trkpt lat="45.9090572163009" lon="11.041025167018304"><ele>204.0</ele><time>2026-04-12T15:00:19Z</time></trkpt><trkpt lat="45.90894530485621" lon="11.041000751990737"><ele>204.0</ele><time>2026-04-12T15:00:21Z</time></trkpt><trkpt lat="45.90886495753365" lon="11.040945227321615"><ele>204.0</ele><time>2026-04-12T15:00:23Z</time></trkpt><trkpt lat="45.90880660367304" lon="11.04083772529315"><ele>204.0</ele><time>2026-04-12T15:00:28Z</time></trkpt><trkpt lat="45.908735582610305" lon="11.040740764845992"><ele>204.0</ele><time>2026-04-12T15:00:30Z</time></trkpt><trkpt lat="45.90867035367376" lon="11.040722118200275"><ele>204.0</ele><time>2026-04-12T15:00:31Z</time></trkpt><trkpt lat="45.90854050163652" lon="11.040704931517434"><ele>202.6</ele><time>2026-04-12T15:00:33Z</time></trkpt><trkpt lat="45.90845717815602" lon="11.040685661627544"><ele>201.2</ele><time>2026-04-12T15:00:33.999Z</time></trkpt><trkpt lat="45.90836788133543" lon="11.040659092322217"><ele>199.79999999999998</ele><time>2026-04-12T15:00:34.999Z</time></trkpt><trkpt lat="45.90827403444435" lon="11.040627311849562"><ele>198.39999999999998</ele><time>2026-04-12T15:00:35.999Z</time></trkpt><trkpt lat="45.908182414140086" lon="11.040588058309964"><ele>197.0</ele><time>2026-04-12T15:00:36.999Z</time></trkpt><trkpt lat="45.90808599629258" lon="11.040542820419763"><ele>197.0</ele><time>2026-04-12T15:00:37.999Z</time></trkpt><trkpt lat="45.90798082863447" lon="11.04048685970254"><ele>197.0</ele><time>2026-04-12T15:00:38.999Z</time></trkpt><trkpt lat="45.90787354257451" lon="11.04042682771967"><ele>197.0</ele><time>2026-04-12T15:00:39.999Z</time></trkpt><trkpt lat="45.907758045045234" lon="11.040365562571957"><ele>197.0</ele><time>2026-04-12T15:00:40.999Z</time></trkpt><trkpt lat="45.90763440305603" lon="11.040300238933273"><ele>197.5</ele><time>2026-04-12T15:00:41.999Z</time></trkpt><trkpt lat="45.90751443196795" lon="11.04022835590334"><ele>198.0</ele><time>2026-04-12T15:00:42.999Z</time></trkpt><trkpt lat="45.90740213312408" lon="11.040161035288184"><ele>198.5</ele><time>2026-04-12T15:00:43.999Z</time></trkpt><trkpt lat="45.90729551358123" lon="11.040093059273712"><ele>199.0</ele><time>2026-04-12T15:00:44.999Z</time></trkpt><trkpt lat="45.907194873777826" lon="11.039991724943524"><ele>194.75</ele><time>2026-04-12T15:00:45.999Z</time></trkpt><trkpt lat="45.90709074159092" lon="11.039908124464144"><ele>190.5</ele><time>2026-04-12T15:00:46.999Z</time></trkpt><trkpt lat="45.9069768087308" lon="11.039840306124042"><ele>186.25</ele><time>2026-04-12T15:00:47.999Z</time></trkpt><trkpt lat="45.90687850975381" lon="11.039728132486943"><ele>182.0</ele><time>2026-04-12T15:00:48.999Z</time></trkpt><trkpt lat="45.90677606739461" lon="11.0396211147332"><ele>184.75</ele><time>2026-04-12T15:00:49.999Z</time></trkpt><trkpt lat="45.90667330502325" lon="11.039505889014412"><ele>187.5</ele><time>2026-04-12T15:00:50.999Z</time></trkpt><trkpt lat="45.90658182311295" lon="11.039394076974665"><ele>190.25</ele><time>2026-04-12T15:00:51.999Z</time></trkpt><trkpt lat="45.906490487009115" lon="11.039284514913986"><ele>193.0</ele><time>2026-04-12T15:00:52.999Z</time></trkpt><trkpt lat="45.90638997277376" lon="11.039198987533581"><ele>189.5</ele><time>2026-04-12T15:00:53.999Z</time></trkpt><trkpt lat="45.90630107528748" lon="11.039091366523873"><ele>186.0</ele><time>2026-04-12T15:00:54.999Z</time></trkpt><trkpt lat="45.90620851712546" lon="11.03898182711048"><ele>182.5</ele><time>2026-04-12T15:00:55.999Z</time></trkpt><trkpt lat="45.90611671036461" lon="11.038865121276421"><ele>179.0</ele><time>2026-04-12T15:00:56.999Z</time></trkpt><trkpt lat="45.90601623392317" lon="11.038749864625814"><ele>179.0</ele><time>2026-04-12T15:00:57.999Z</time></trkpt><trkpt lat="45.90591778304529" lon="11.038630535638681"><ele>179.0</ele><time>2026-04-12T15:00:58.999Z</time></trkpt><trkpt lat="45.905803715588696" lon="11.038504870531114"><ele>179.0</ele><time>2026-04-12T15:00:59.999Z</time></trkpt><trkpt lat="45.90567605715285" lon="11.038363221193181"><ele>179.0</ele><time>2026-04-12T15:01:00.999Z</time></trkpt><trkpt lat="45.90554378956349" lon="11.038202282575504"><ele>179.0</ele><time>2026-04-12T15:01:01.999Z</time></trkpt><trkpt lat="45.90540405156358" lon="11.038032803429772"><ele>179.0</ele><time>2026-04-12T15:01:02.999Z</time></trkpt><trkpt lat="45.90526936415726" lon="11.03787848929913"><ele>179.0</ele><time>2026-04-12T15:01:03.999Z</time></trkpt><trkpt lat="45.90514769216537" lon="11.037736859366538"><ele>180.66666666666666</ele><time>2026-04-12T15:01:04.999Z</time></trkpt><trkpt lat="45.905019605546535" lon="11.037580970611955"><ele>182.33333333333334</ele><time>2026-04-12T15:01:05.999Z</time></trkpt><trkpt lat="45.90487612131899" lon="11.037384492082"><ele>184.0</ele><time>2026-04-12T15:01:06.999Z</time></trkpt><trkpt lat="45.90471064129012" lon="11.037161632857295"><ele>184.0</ele><time>2026-04-12T15:01:07.999Z</time></trkpt><trkpt lat="45.90453910260287" lon="11.036960162336767"><ele>184.0</ele><time>2026-04-12T15:01:08.999Z</time></trkpt><trkpt lat="45.90437046845713" lon="11.036774779983"><ele>184.0</ele><time>2026-04-12T15:01:09.999Z</time></trkpt><trkpt lat="45.90420063731218" lon="11.036605723149206"><ele>182.33333333333334</ele><time>2026-04-12T15:01:10.999Z</time></trkpt><trkpt lat="45.90401378760536" lon="11.0364653475862"><ele>180.66666666666666</ele><time>2026-04-12T15:01:11.999Z</time></trkpt><trkpt lat="45.90381978442625" lon="11.036356941692675"><ele>179.0</ele><time>2026-04-12T15:01:12.999Z</time></trkpt><trkpt lat="45.90360472028685" lon="11.036279399250544"><ele>179.0</ele><time>2026-04-12T15:01:13.999Z</time></trkpt><trkpt lat="45.903369800360224" lon="11.036222464896952"><ele>179.0</ele><time>2026-04-12T15:01:14.999Z</time></trkpt><trkpt lat="45.903136227458965" lon="11.036174193682477"><ele>179.0</ele><time>2026-04-12T15:01:15.999Z</time></trkpt><trkpt lat="45.90289658522087" lon="11.036123043790294"><ele>179.0</ele><time>2026-04-12T15:01:16.999Z</time></trkpt><trkpt lat="45.90265215573862" lon="11.03606676378567"><ele>178.0</ele><time>2026-04-12T15:01:17.999Z</time></trkpt><trkpt lat="45.90240992954567" lon="11.036013461989523"><ele>177.0</ele><time>2026-04-12T15:01:18.999Z</time></trkpt><trkpt lat="45.902175997166836" lon="11.03596200117979"><ele>177.0</ele><time>2026-04-12T15:01:19.999Z</time></trkpt><trkpt lat="45.90195337194043" lon="11.03591502894629"><ele>177.0</ele><time>2026-04-12T15:01:20.999Z</time></trkpt><trkpt lat="45.90174441848028" lon="11.03587278843665"><ele>177.0</ele><time>2026-04-12T15:01:21.999Z</time></trkpt><trkpt lat="45.90154235630704" lon="11.035827760858174"><ele>176.0</ele><time>2026-04-12T15:01:22.999Z</time></trkpt><trkpt lat="45.90134951733675" lon="11.035786317648485"><ele>175.0</ele><time>2026-04-12T15:01:23.999Z</time></trkpt><trkpt lat="45.90116482359234" lon="11.035748528152116"><ele>174.0</ele><time>2026-04-12T15:01:24.999Z</time></trkpt><trkpt lat="45.900982789724615" lon="11.035708760004427"><ele>173.66666666666666</ele><time>2026-04-12T15:01:25.999Z</time></trkpt><trkpt lat="45.90080087666368" lon="11.035667002059467"><ele>173.33333333333331</ele><time>2026-04-12T15:01:26.999Z</time></trkpt><trkpt lat="45.900625521422256" lon="11.035628513694245"><ele>173.0</ele><time>2026-04-12T15:01:27.999Z</time></trkpt><trkpt lat="45.900439483381" lon="11.03559707370443"><ele>173.0</ele><time>2026-04-12T15:01:28.999Z</time></trkpt><trkpt lat="45.90024807850469" lon="11.03555951357369"><ele>173.0</ele><time>2026-04-12T15:01:29.999Z</time></trkpt><trkpt lat="45.90006569829983" lon="11.035523503741386"><ele>173.0</ele><time>2026-04-12T15:01:30.998Z</time></trkpt><trkpt lat="45.89988711014546" lon="11.03548712441519"><ele>174.33333333333331</ele><time>2026-04-12T15:01:31.998Z</time></trkpt><trkpt lat="45.89972485273241" lon="11.035451417009233"><ele>175.66666666666666</ele><time>2026-04-12T15:01:32.998Z</time></trkpt><trkpt lat="45.89957461267754" lon="11.035419893688701"><ele>177.0</ele><time>2026-04-12T15:01:33.998Z</time></trkpt><trkpt lat="45.89943538208903" lon="11.035386426996507"><ele>177.0</ele><time>2026-04-12T15:01:34.998Z</time></trkpt><trkpt lat="45.89930624602275" lon="11.035354984450537"><ele>177.0</ele><time>2026-04-12T15:01:35.998Z</time></trkpt><trkpt lat="45.89917721915386" lon="11.035333605308143"><ele>177.0</ele><time>2026-04-12T15:01:36.998Z</time></trkpt><trkpt lat="45.89905106013453" lon="11.035313181911123"><ele>177.0</ele><time>2026-04-12T15:01:37.998Z</time></trkpt><trkpt lat="45.89892360362158" lon="11.035268318090214"><ele>177.75</ele><time>2026-04-12T15:01:38.998Z</time></trkpt><trkpt lat="45.89878930424075" lon="11.035239241883344"><ele>178.5</ele><time>2026-04-12T15:01:39.998Z</time></trkpt><trkpt lat="45.89867899789084" lon="11.03523609829119"><ele>179.25</ele><time>2026-04-12T15:01:40.998Z</time></trkpt><trkpt lat="45.89856942138772" lon="11.035215181329546"><ele>180.0</ele><time>2026-04-12T15:01:41.998Z</time></trkpt><trkpt lat="45.89846045392708" lon="11.035168044809446"><ele>180.5</ele><time>2026-04-12T15:01:42.998Z</time></trkpt><trkpt lat="45.89836726605451" lon="11.035147869278529"><ele>181.0</ele><time>2026-04-12T15:01:43.998Z</time></trkpt><trkpt lat="45.89827161618375" lon="11.035126166952866"><ele>181.5</ele><time>2026-04-12T15:01:44.998Z</time></trkpt><trkpt lat="45.89819016941599" lon="11.035107416114966"><ele>182.0</ele><time>2026-04-12T15:01:45.998Z</time></trkpt><trkpt lat="45.89811087929053" lon="11.035089161806633"><ele>182.5</ele><time>2026-04-12T15:01:46.998Z</time></trkpt><trkpt lat="45.89804509088162" lon="11.035074892716576"><ele>183.0</ele><time>2026-04-12T15:01:47.998Z</time></trkpt><trkpt lat="45.89795284749921" lon="11.035055002685393"><ele>183.0</ele><time>2026-04-12T15:01:49.998Z</time></trkpt><trkpt lat="45.897889928413896" lon="11.035041435769674"><ele>183.0</ele><time>2026-04-12T15:01:51.998Z</time></trkpt><trkpt lat="45.89782206437302" lon="11.035026884436355"><ele>183.0</ele><time>2026-04-12T15:01:53.998Z</time></trkpt><trkpt lat="45.897710130506816" lon="11.035017544751467"><ele>183.0</ele><time>2026-04-12T15:01:55.998Z</time></trkpt><trkpt lat="45.89762491573158" lon="11.03499759904755"><ele>183.0</ele><time>2026-04-12T15:01:57Z</time></trkpt><trkpt lat="45.89752610418711" lon="11.034986997698786"><ele>183.0</ele><time>2026-04-12T15:01:58Z</time></trkpt><trkpt lat="45.89740980943331" lon="11.034964000426504"><ele>183.0</ele><time>2026-04-12T15:01:59Z</time></trkpt><trkpt lat="45.89726474051645" lon="11.034933050032436"><ele>183.0</ele><time>2026-04-12T15:02:00Z</time></trkpt><trkpt lat="45.89711678349195" lon="11.034890170073657"><ele>183.0</ele><time>2026-04-12T15:02:01Z</time></trkpt><trkpt lat="45.89695750516063" lon="11.034847073941078"><ele>183.0</ele><time>2026-04-12T15:02:02Z</time></trkpt><trkpt lat="45.896776203720826" lon="11.034809031983373"><ele>183.0</ele><time>2026-04-12T15:02:03Z</time></trkpt><trkpt lat="45.896587785002154" lon="11.034770765883264"><ele>183.0</ele><time>2026-04-12T15:02:04Z</time></trkpt><trkpt lat="45.8963881118813" lon="11.034728193440285"><ele>183.33333333333334</ele><time>2026-04-12T15:02:05Z</time></trkpt><trkpt lat="45.89617989574678" lon="11.034687083198621"><ele>183.66666666666669</ele><time>2026-04-12T15:02:06Z</time></trkpt><trkpt lat="45.89596080238818" lon="11.034635988712312"><ele>184.0</ele><time>2026-04-12T15:02:07Z</time></trkpt><trkpt lat="45.89574807646071" lon="11.034594126571175"><ele>184.0</ele><time>2026-04-12T15:02:08Z</time></trkpt><trkpt lat="45.89553479342941" lon="11.034548456362236"><ele>184.0</ele><time>2026-04-12T15:02:09Z</time></trkpt><trkpt lat="45.89533045773351" lon="11.034503168925504"><ele>184.0</ele><time>2026-04-12T15:02:10Z</time></trkpt><trkpt lat="45.895133056345955" lon="11.034458546180055"><ele>185.0</ele><time>2026-04-12T15:02:11Z</time></trkpt><trkpt lat="45.89493584450629" lon="11.034414129737902"><ele>186.0</ele><time>2026-04-12T15:02:12Z</time></trkpt><trkpt lat="45.89474868398624" lon="11.034373725091326"><ele>187.0</ele><time>2026-04-12T15:02:13Z</time></trkpt><trkpt lat="45.89455866737273" lon="11.034331906254907"><ele>187.0</ele><time>2026-04-12T15:02:14Z</time></trkpt><trkpt lat="45.894367555976295" lon="11.034294041740166"><ele>187.0</ele><time>2026-04-12T15:02:15Z</time></trkpt><trkpt lat="45.894177770913416" lon="11.03425859450027"><ele>187.0</ele><time>2026-04-12T15:02:16Z</time></trkpt><trkpt lat="45.893993597343105" lon="11.034230930604005"><ele>187.0</ele><time>2026-04-12T15:02:17Z</time></trkpt><trkpt lat="45.893808343344354" lon="11.034221753175055"><ele>187.0</ele><time>2026-04-12T15:02:18Z</time></trkpt><trkpt lat="45.89362639264247" lon="11.03422520879491"><ele>187.0</ele><time>2026-04-12T15:02:19Z</time></trkpt><trkpt lat="45.89344530892751" lon="11.034238161967519"><ele>187.33333333333334</ele><time>2026-04-12T15:02:20Z</time></trkpt><trkpt lat="45.89326242044383" lon="11.034246346663235"><ele>187.66666666666666</ele><time>2026-04-12T15:02:21Z</time></trkpt><trkpt lat="45.89308026970044" lon="11.034251748090124"><ele>188.0</ele><time>2026-04-12T15:02:22Z</time></trkpt><trkpt lat="45.892904031737785" lon="11.034259000668767"><ele>188.0</ele><time>2026-04-12T15:02:23Z</time></trkpt><trkpt lat="45.89273734464992" lon="11.03426534841297"><ele>188.0</ele><time>2026-04-12T15:02:24Z</time></trkpt><trkpt lat="45.89258227774284" lon="11.034270995981693"><ele>188.0</ele><time>2026-04-12T15:02:25Z</time></trkpt><trkpt lat="45.89243672368902" lon="11.034276499284298"><ele>188.0</ele><time>2026-04-12T15:02:26Z</time></trkpt><trkpt lat="45.89229971507434" lon="11.03427776015385"><ele>188.0</ele><time>2026-04-12T15:02:27Z</time></trkpt><trkpt lat="45.89216405838447" lon="11.034272606482352"><ele>188.0</ele><time>2026-04-12T15:02:28Z</time></trkpt><trkpt lat="45.89202576909155" lon="11.034267748793896"><ele>188.0</ele><time>2026-04-12T15:02:29Z</time></trkpt><trkpt lat="45.89188799503782" lon="11.034256964230828"><ele>188.5</ele><time>2026-04-12T15:02:30Z</time></trkpt><trkpt lat="45.89175336071807" lon="11.0342438294096"><ele>189.0</ele><time>2026-04-12T15:02:31Z</time></trkpt><trkpt lat="45.89163187407992" lon="11.034243436139477"><ele>189.5</ele><time>2026-04-12T15:02:32Z</time></trkpt><trkpt lat="45.89151815637373" lon="11.03425475448125"><ele>190.0</ele><time>2026-04-12T15:02:33Z</time></trkpt><trkpt lat="45.891412717648414" lon="11.034279125464694"><ele>190.0</ele><time>2026-04-12T15:02:34Z</time></trkpt><trkpt lat="45.89131894309508" lon="11.034312901745896"><ele>190.0</ele><time>2026-04-12T15:02:35Z</time></trkpt><trkpt lat="45.89123508198439" lon="11.034351746843774"><ele>190.0</ele><time>2026-04-12T15:02:36Z</time></trkpt><trkpt lat="45.89115661614867" lon="11.03439407858087"><ele>190.0</ele><time>2026-04-12T15:02:37Z</time></trkpt><trkpt lat="45.89106704228822" lon="11.034426331270671"><ele>190.0</ele><time>2026-04-12T15:02:38Z</time></trkpt><trkpt lat="45.89095017031586" lon="11.034425010990395"><ele>190.0</ele><time>2026-04-12T15:02:38.999Z</time></trkpt><trkpt lat="45.89082791321177" lon="11.034377277502896"><ele>190.0</ele><time>2026-04-12T15:02:39.999Z</time></trkpt><trkpt lat="45.890705989103715" lon="11.034302045294671"><ele>190.0</ele><time>2026-04-12T15:02:40.999Z</time></trkpt><trkpt lat="45.8905883695898" lon="11.034194034861846"><ele>190.0</ele><time>2026-04-12T15:02:41.999Z</time></trkpt><trkpt lat="45.89048273202616" lon="11.03410202171681"><ele>190.0</ele><time>2026-04-12T15:02:42.999Z</time></trkpt><trkpt lat="45.890374441609296" lon="11.03403310146652"><ele>190.0</ele><time>2026-04-12T15:02:43.999Z</time></trkpt><trkpt lat="45.89026231309179" lon="11.033975870252716"><ele>190.0</ele><time>2026-04-12T15:02:44.999Z</time></trkpt><trkpt lat="45.89014221350235" lon="11.033943281898601"><ele>190.0</ele><time>2026-04-12T15:02:45.999Z</time></trkpt><trkpt lat="45.890017760078806" lon="11.03391941380691"><ele>190.0</ele><time>2026-04-12T15:02:46.999Z</time></trkpt><trkpt lat="45.889890163853686" lon="11.033898085637274"><ele>190.0</ele><time>2026-04-12T15:02:47.999Z</time></trkpt><trkpt lat="45.889757907838096" lon="11.033874287355637"><ele>190.0</ele><time>2026-04-12T15:02:48.999Z</time></trkpt><trkpt lat="45.88962441403046" lon="11.03385141797929"><ele>190.0</ele><time>2026-04-12T15:02:49.999Z</time></trkpt><trkpt lat="45.889494555397924" lon="11.03383088852315"><ele>190.0</ele><time>2026-04-12T15:02:50.999Z</time></trkpt><trkpt lat="45.889364261193556" lon="11.033810476362673"><ele>190.0</ele><time>2026-04-12T15:02:51.999Z</time></trkpt><trkpt lat="45.88924612450557" lon="11.033789528649683"><ele>190.0</ele><time>2026-04-12T15:02:52.999Z</time></trkpt><trkpt lat="45.88913265240627" lon="11.033772318819462"><ele>190.0</ele><time>2026-04-12T15:02:53.999Z</time></trkpt><trkpt lat="45.88901728065961" lon="11.033749602515984"><ele>190.0</ele><time>2026-04-12T15:02:54.999Z</time></trkpt><trkpt lat="45.88889715107152" lon="11.033720830422995"><ele>190.0</ele><time>2026-04-12T15:02:55.999Z</time></trkpt><trkpt lat="45.888772690752646" lon="11.03368659767482"><ele>190.0</ele><time>2026-04-12T15:02:56.999Z</time></trkpt><trkpt lat="45.88864744922887" lon="11.033646165934412"><ele>190.0</ele><time>2026-04-12T15:02:57.999Z</time></trkpt><trkpt lat="45.888519039176025" lon="11.033601509032975"><ele>190.0</ele><time>2026-04-12T15:02:58.999Z</time></trkpt><trkpt lat="45.88838541539687" lon="11.033547262345243"><ele>190.0</ele><time>2026-04-12T15:02:59.999Z</time></trkpt><trkpt lat="45.8882513167558" lon="11.033492026196821"><ele>190.0</ele><time>2026-04-12T15:03:00.999Z</time></trkpt><trkpt lat="45.88811909767554" lon="11.03343041112019"><ele>190.0</ele><time>2026-04-12T15:03:01.999Z</time></trkpt><trkpt lat="45.88798958557934" lon="11.033372367661746"><ele>190.0</ele><time>2026-04-12T15:03:02.999Z</time></trkpt><trkpt lat="45.88785821971206" lon="11.033313248358604"><ele>190.0</ele><time>2026-04-12T15:03:03.999Z</time></trkpt><trkpt lat="45.887723978455476" lon="11.033264533559912"><ele>190.0</ele><time>2026-04-12T15:03:04.999Z</time></trkpt><trkpt lat="45.887593236939765" lon="11.033232402863955"><ele>190.0</ele><time>2026-04-12T15:03:05.999Z</time></trkpt><trkpt lat="45.887474368023284" lon="11.03321250443387"><ele>190.2</ele><time>2026-04-12T15:03:06.999Z</time></trkpt><trkpt lat="45.887368705495675" lon="11.033191165523395"><ele>190.4</ele><time>2026-04-12T15:03:07.999Z</time></trkpt><trkpt lat="45.887266551308045" lon="11.033167309059484"><ele>190.60000000000002</ele><time>2026-04-12T15:03:08.999Z</time></trkpt><trkpt lat="45.88718118892343" lon="11.033139377249928"><ele>190.8</ele><time>2026-04-12T15:03:09.999Z</time></trkpt><trkpt lat="45.88711103094121" lon="11.033122525852916"><ele>191.0</ele><time>2026-04-12T15:03:10.999Z</time></trkpt><trkpt lat="45.88701382803269" lon="11.033096464052804"><ele>191.0</ele><time>2026-04-12T15:03:12.999Z</time></trkpt><trkpt lat="45.88693017667099" lon="11.033078427413164"><ele>191.0</ele><time>2026-04-12T15:03:14.999Z</time></trkpt><trkpt lat="45.88686385134696" lon="11.033066539893746"><ele>191.0</ele><time>2026-04-12T15:03:16.999Z</time></trkpt><trkpt lat="45.88676926124992" lon="11.033050885476964"><ele>191.0</ele><time>2026-04-12T15:03:19.999Z</time></trkpt><trkpt lat="45.88663209099699" lon="11.033026111165979"><ele>191.0</ele><time>2026-04-12T15:03:21.999Z</time></trkpt><trkpt lat="45.886543481269726" lon="11.033007344069555"><ele>190.4</ele><time>2026-04-12T15:03:22.999Z</time></trkpt><trkpt lat="45.88645861758269" lon="11.032988874874839"><ele>189.8</ele><time>2026-04-12T15:03:23.999Z</time></trkpt><trkpt lat="45.88636296982097" lon="11.032975256233385"><ele>189.20000000000002</ele><time>2026-04-12T15:03:24.999Z</time></trkpt><trkpt lat="45.88624597589867" lon="11.032958503378902"><ele>188.60000000000002</ele><time>2026-04-12T15:03:25.999Z</time></trkpt><trkpt lat="45.886114054813405" lon="11.032936501239815"><ele>188.0</ele><time>2026-04-12T15:03:26.999Z</time></trkpt><trkpt lat="45.88597985787804" lon="11.032916625903638"><ele>187.5</ele><time>2026-04-12T15:03:27.999Z</time></trkpt><trkpt lat="45.885843725294784" lon="11.032897373492272"><ele>187.0</ele><time>2026-04-12T15:03:28.999Z</time></trkpt><trkpt lat="45.885693353482694" lon="11.032877809627472"><ele>186.5</ele><time>2026-04-12T15:03:29.999Z</time></trkpt><trkpt lat="45.88553592632799" lon="11.03285582182185"><ele>186.0</ele><time>2026-04-12T15:03:30.999Z</time></trkpt><trkpt lat="45.885375272004026" lon="11.032835670257445"><ele>186.0</ele><time>2026-04-12T15:03:31.999Z</time></trkpt><trkpt lat="45.88522204202452" lon="11.032808504279016"><ele>186.0</ele><time>2026-04-12T15:03:32.999Z</time></trkpt><trkpt lat="45.88506333233437" lon="11.032784635518604"><ele>186.0</ele><time>2026-04-12T15:03:33.999Z</time></trkpt><trkpt lat="45.88490392515697" lon="11.032760863878586"><ele>186.0</ele><time>2026-04-12T15:03:34.999Z</time></trkpt><trkpt lat="45.884744428476424" lon="11.032737639153183"><ele>186.0</ele><time>2026-04-12T15:03:35.998Z</time></trkpt><trkpt lat="45.8845864688702" lon="11.032714451733355"><ele>186.0</ele><time>2026-04-12T15:03:36.998Z</time></trkpt><trkpt lat="45.88442492932764" lon="11.032699506339604"><ele>185.66666666666666</ele><time>2026-04-12T15:03:37.998Z</time></trkpt><trkpt lat="45.88425499257225" lon="11.032678278822559"><ele>185.33333333333331</ele><time>2026-04-12T15:03:38.998Z</time></trkpt><trkpt lat="45.884081161507986" lon="11.0326514284351"><ele>185.0</ele><time>2026-04-12T15:03:39.998Z</time></trkpt><trkpt lat="45.883903555204085" lon="11.032623741289335"><ele>185.0</ele><time>2026-04-12T15:03:40.998Z</time></trkpt><trkpt lat="45.88372922453155" lon="11.03259595407421"><ele>185.0</ele><time>2026-04-12T15:03:41.998Z</time></trkpt><trkpt lat="45.883557059497704" lon="11.03256941445268"><ele>185.0</ele><time>2026-04-12T15:03:42.998Z</time></trkpt><trkpt lat="45.88340465168887" lon="11.032537666514944"><ele>184.5</ele><time>2026-04-12T15:03:43.998Z</time></trkpt><trkpt lat="45.88327024450982" lon="11.032514489375252"><ele>184.0</ele><time>2026-04-12T15:03:44.998Z</time></trkpt><trkpt lat="45.883136911243724" lon="11.03248748009121"><ele>183.5</ele><time>2026-04-12T15:03:45.998Z</time></trkpt><trkpt lat="45.88300583833744" lon="11.032457942636938"><ele>183.0</ele><time>2026-04-12T15:03:46.998Z</time></trkpt><trkpt lat="45.88286393524221" lon="11.032410257033973"><ele>182.75</ele><time>2026-04-12T15:03:47.998Z</time></trkpt><trkpt lat="45.88271502562278" lon="11.032395719893975"><ele>182.5</ele><time>2026-04-12T15:03:48.998Z</time></trkpt><trkpt lat="45.8825844514151" lon="11.03236043721642"><ele>182.25</ele><time>2026-04-12T15:03:49.998Z</time></trkpt><trkpt lat="45.882462348398235" lon="11.03230988145673"><ele>182.0</ele><time>2026-04-12T15:03:50.998Z</time></trkpt><trkpt lat="45.882339872348474" lon="11.03226023746142"><ele>182.0</ele><time>2026-04-12T15:03:51.998Z</time></trkpt><trkpt lat="45.8822192018742" lon="11.032206944230404"><ele>182.0</ele><time>2026-04-12T15:03:52.998Z</time></trkpt><trkpt lat="45.882108488075374" lon="11.032161393396898"><ele>182.0</ele><time>2026-04-12T15:03:53.998Z</time></trkpt><trkpt lat="45.8820032362024" lon="11.032119821349884"><ele>182.0</ele><time>2026-04-12T15:03:54.998Z</time></trkpt><trkpt lat="45.88189207948288" lon="11.032079503191433"><ele>182.0</ele><time>2026-04-12T15:03:55.998Z</time></trkpt><trkpt lat="45.881777357055356" lon="11.032037233754899"><ele>182.0</ele><time>2026-04-12T15:03:56.998Z</time></trkpt><trkpt lat="45.88166192598217" lon="11.031995601579235"><ele>182.0</ele><time>2026-04-12T15:03:57.998Z</time></trkpt><trkpt lat="45.88155103815923" lon="11.031957511073928"><ele>182.0</ele><time>2026-04-12T15:03:58.998Z</time></trkpt><trkpt lat="45.88144846067957" lon="11.031919818693838"><ele>182.33333333333331</ele><time>2026-04-12T15:03:59.998Z</time></trkpt><trkpt lat="45.88135975853234" lon="11.031885420629886"><ele>182.66666666666666</ele><time>2026-04-12T15:04:00.998Z</time></trkpt><trkpt lat="45.88127594290466" lon="11.031849320462543"><ele>183.0</ele><time>2026-04-12T15:04:01.998Z</time></trkpt><trkpt lat="45.88119966389798" lon="11.031819653089268"><ele>183.33333333333334</ele><time>2026-04-12T15:04:03Z</time></trkpt><trkpt lat="45.881127432611095" lon="11.031791299615621"><ele>183.66666666666669</ele><time>2026-04-12T15:04:04Z</time></trkpt><trkpt lat="45.88106047034069" lon="11.031766241823526"><ele>184.0</ele><time>2026-04-12T15:04:05Z</time></trkpt><trkpt lat="45.880989825027605" lon="11.03174399690952"><ele>184.0</ele><time>2026-04-12T15:04:06Z</time></trkpt><trkpt lat="45.880927974340494" lon="11.03172223724256"><ele>184.0</ele><time>2026-04-12T15:04:07Z</time></trkpt><trkpt lat="45.88080952256039" lon="11.03166871317629"><ele>184.0</ele><time>2026-04-12T15:04:09Z</time></trkpt><trkpt lat="45.88075349718596" lon="11.031602716050102"><ele>184.0</ele><time>2026-04-12T15:04:10Z</time></trkpt><trkpt lat="45.88070514682828" lon="11.031521692018476"><ele>184.0</ele><time>2026-04-12T15:04:11Z</time></trkpt><trkpt lat="45.88065966712941" lon="11.031425903816082"><ele>184.0</ele><time>2026-04-12T15:04:12Z</time></trkpt><trkpt lat="45.88059586096093" lon="11.031356889190334"><ele>184.0</ele><time>2026-04-12T15:04:13Z</time></trkpt><trkpt lat="45.880526326054095" lon="11.031331523500475"><ele>184.0</ele><time>2026-04-12T15:04:14Z</time></trkpt><trkpt lat="45.88045689631923" lon="11.031336104710798"><ele>184.0</ele><time>2026-04-12T15:04:15Z</time></trkpt><trkpt lat="45.88039587473917" lon="11.03137640592601"><ele>184.0</ele><time>2026-04-12T15:04:16Z</time></trkpt><trkpt lat="45.88033892399395" lon="11.031451387987227"><ele>184.0</ele><time>2026-04-12T15:04:17Z</time></trkpt><trkpt lat="45.88029312649402" lon="11.031544921444326"><ele>184.0</ele><time>2026-04-12T15:04:18Z</time></trkpt><trkpt lat="45.88025356512054" lon="11.031640136993673"><ele>184.0</ele><time>2026-04-12T15:04:19Z</time></trkpt><trkpt lat="45.88020341112746" lon="11.031707094644005"><ele>184.0</ele><time>2026-04-12T15:04:20Z</time></trkpt><trkpt lat="45.88009438643693" lon="11.031740640515558"><ele>184.0</ele><time>2026-04-12T15:04:22Z</time></trkpt><trkpt lat="45.87999754462136" lon="11.03175904350968"><ele>184.0</ele><time>2026-04-12T15:04:24Z</time></trkpt><trkpt lat="45.87987464765807" lon="11.031776761108125"><ele>184.0</ele><time>2026-04-12T15:04:26Z</time></trkpt><trkpt lat="45.87980310793548" lon="11.031791048268968"><ele>184.0</ele><time>2026-04-12T15:04:27Z</time></trkpt><trkpt lat="45.87972669885597" lon="11.031797472164646"><ele>184.0</ele><time>2026-04-12T15:04:28Z</time></trkpt><trkpt lat="45.879642390609526" lon="11.031805921864587"><ele>184.0</ele><time>2026-04-12T15:04:29Z</time></trkpt><trkpt lat="45.87953969513696" lon="11.031819948127408"><ele>184.0</ele><time>2026-04-12T15:04:30Z</time></trkpt><trkpt lat="45.87943104904128" lon="11.031825368523684"><ele>184.0</ele><time>2026-04-12T15:04:31Z</time></trkpt><trkpt lat="45.87932884119961" lon="11.031834790849109"><ele>184.0</ele><time>2026-04-12T15:04:32Z</time></trkpt><trkpt lat="45.879222799855995" lon="11.031842294594313"><ele>184.6</ele><time>2026-04-12T15:04:33Z</time></trkpt><trkpt lat="45.87911516419711" lon="11.03184566436895"><ele>185.2</ele><time>2026-04-12T15:04:34Z</time></trkpt><trkpt lat="45.87900161134953" lon="11.03184709341349"><ele>185.79999999999998</ele><time>2026-04-12T15:04:35Z</time></trkpt><trkpt lat="45.87889420279742" lon="11.031850498625428"><ele>186.39999999999998</ele><time>2026-04-12T15:04:36Z</time></trkpt><trkpt lat="45.878777701692215" lon="11.031864375030597"><ele>187.0</ele><time>2026-04-12T15:04:37Z</time></trkpt><trkpt lat="45.87866014918213" lon="11.03187586193301"><ele>187.0</ele><time>2026-04-12T15:04:38Z</time></trkpt><trkpt lat="45.878531160650354" lon="11.031884664228972"><ele>187.0</ele><time>2026-04-12T15:04:39Z</time></trkpt><trkpt lat="45.87840176933142" lon="11.031896763779748"><ele>187.0</ele><time>2026-04-12T15:04:40Z</time></trkpt><trkpt lat="45.87826293126415" lon="11.031910317097427"><ele>187.0</ele><time>2026-04-12T15:04:41Z</time></trkpt><trkpt lat="45.87811538750228" lon="11.03192433768029"><ele>186.75</ele><time>2026-04-12T15:04:42Z</time></trkpt><trkpt lat="45.877966688256045" lon="11.031938258264228"><ele>186.5</ele><time>2026-04-12T15:04:43Z</time></trkpt><trkpt lat="45.877829691500146" lon="11.031948049041347"><ele>186.25</ele><time>2026-04-12T15:04:44Z</time></trkpt><trkpt lat="45.87770331506778" lon="11.031947025712181"><ele>186.0</ele><time>2026-04-12T15:04:45Z</time></trkpt><trkpt lat="45.87758674007293" lon="11.031945028980006"><ele>185.66666666666666</ele><time>2026-04-12T15:04:45.999Z</time></trkpt><trkpt lat="45.877479904397" lon="11.031949764918538"><ele>185.33333333333334</ele><time>2026-04-12T15:04:46.999Z</time></trkpt><trkpt lat="45.87739111687413" lon="11.031953509575002"><ele>185.0</ele><time>2026-04-12T15:04:47.999Z</time></trkpt><trkpt lat="45.87732151113945" lon="11.031962558690712"><ele>184.66666666666669</ele><time>2026-04-12T15:04:48.999Z</time></trkpt><trkpt lat="45.877246188883916" lon="11.031974415352941"><ele>184.33333333333334</ele><time>2026-04-12T15:04:51.999Z</time></trkpt><trkpt lat="45.87715750465726" lon="11.031968090988922"><ele>184.0</ele><time>2026-04-12T15:04:54.999Z</time></trkpt><trkpt lat="45.87709261216957" lon="11.031967279530276"><ele>184.0</ele><time>2026-04-12T15:04:56.999Z</time></trkpt><trkpt lat="45.87699177734469" lon="11.031966179674333"><ele>184.0</ele><time>2026-04-12T15:04:58.999Z</time></trkpt><trkpt lat="45.87692811574218" lon="11.031969925308292"><ele>184.0</ele><time>2026-04-12T15:04:59.999Z</time></trkpt><trkpt lat="45.87685668909277" lon="11.031980602630993"><ele>184.0</ele><time>2026-04-12T15:05:00.999Z</time></trkpt><trkpt lat="45.87677992102913" lon="11.03198593000346"><ele>184.0</ele><time>2026-04-12T15:05:01.999Z</time></trkpt><trkpt lat="45.87669342701075" lon="11.031982674729191"><ele>184.0</ele><time>2026-04-12T15:05:02.999Z</time></trkpt><trkpt lat="45.87659564241914" lon="11.031974625608553"><ele>184.39999999999998</ele><time>2026-04-12T15:05:03.999Z</time></trkpt><trkpt lat="45.87649717801932" lon="11.031961255950378"><ele>184.8</ele><time>2026-04-12T15:05:04.999Z</time></trkpt><trkpt lat="45.87639086232133" lon="11.031947244170098"><ele>185.2</ele><time>2026-04-12T15:05:05.999Z</time></trkpt><trkpt lat="45.87627749974789" lon="11.031918055122775"><ele>185.60000000000002</ele><time>2026-04-12T15:05:06.999Z</time></trkpt><trkpt lat="45.87616408585159" lon="11.031903089652731"><ele>186.0</ele><time>2026-04-12T15:05:07.999Z</time></trkpt><trkpt lat="45.87605412057018" lon="11.031884367326318"><ele>186.0</ele><time>2026-04-12T15:05:08.999Z</time></trkpt><trkpt lat="45.87594878090572" lon="11.031865085395632"><ele>186.0</ele><time>2026-04-12T15:05:09.999Z</time></trkpt><trkpt lat="45.875840051260994" lon="11.031847715133779"><ele>186.0</ele><time>2026-04-12T15:05:10.999Z</time></trkpt><trkpt lat="45.87572889872708" lon="11.031826478164534"><ele>186.0</ele><time>2026-04-12T15:05:11.999Z</time></trkpt><trkpt lat="45.87562164582238" lon="11.031807495454911"><ele>186.0</ele><time>2026-04-12T15:05:12.999Z</time></trkpt><trkpt lat="45.8755275938249" lon="11.03179524131199"><ele>185.75</ele><time>2026-04-12T15:05:13.999Z</time></trkpt><trkpt lat="45.875425847108495" lon="11.031777925499194"><ele>185.5</ele><time>2026-04-12T15:05:14.999Z</time></trkpt><trkpt lat="45.875309941090734" lon="11.031761739455034"><ele>185.25</ele><time>2026-04-12T15:05:15.999Z</time></trkpt><trkpt lat="45.87519051141358" lon="11.031742925412393"><ele>185.0</ele><time>2026-04-12T15:05:16.999Z</time></trkpt><trkpt lat="45.87507358697217" lon="11.031723293447179"><ele>184.5</ele><time>2026-04-12T15:05:17.999Z</time></trkpt><trkpt lat="45.87494941399363" lon="11.031699464531783"><ele>184.0</ele><time>2026-04-12T15:05:18.999Z</time></trkpt><trkpt lat="45.87481976501436" lon="11.031678988726137"><ele>183.5</ele><time>2026-04-12T15:05:19.999Z</time></trkpt><trkpt lat="45.87469174676179" lon="11.031657973788985"><ele>183.0</ele><time>2026-04-12T15:05:20.999Z</time></trkpt><trkpt lat="45.87456658216679" lon="11.031634725297549"><ele>182.8</ele><time>2026-04-12T15:05:21.999Z</time></trkpt><trkpt lat="45.87444396669599" lon="11.03161451313301"><ele>182.60000000000002</ele><time>2026-04-12T15:05:22.999Z</time></trkpt><trkpt lat="45.87433176727681" lon="11.031591314021968"><ele>182.39999999999998</ele><time>2026-04-12T15:05:23.999Z</time></trkpt><trkpt lat="45.874234812416034" lon="11.031578776676794"><ele>182.2</ele><time>2026-04-12T15:05:24.999Z</time></trkpt><trkpt lat="45.874154553575686" lon="11.031569234300948"><ele>182.0</ele><time>2026-04-12T15:05:25.999Z</time></trkpt><trkpt lat="45.87407062931682" lon="11.03155534599622"><ele>182.0</ele><time>2026-04-12T15:05:26.999Z</time></trkpt><trkpt lat="45.8739968468865" lon="11.031540265390577"><ele>182.0</ele><time>2026-04-12T15:05:27.999Z</time></trkpt><trkpt lat="45.873921833248396" lon="11.031525284502601"><ele>182.0</ele><time>2026-04-12T15:05:28.999Z</time></trkpt><trkpt lat="45.87384736991004" lon="11.031510030030814"><ele>182.0</ele><time>2026-04-12T15:05:29.999Z</time></trkpt><trkpt lat="45.873768606729435" lon="11.031496158322735"><ele>182.0</ele><time>2026-04-12T15:05:30.999Z</time></trkpt><trkpt lat="45.873699770466445" lon="11.031486351802512"><ele>182.0</ele><time>2026-04-12T15:05:31.999Z</time></trkpt><trkpt lat="45.873623971881635" lon="11.031476013044033"><ele>182.0</ele><time>2026-04-12T15:05:32.999Z</time></trkpt><trkpt lat="45.87354269215232" lon="11.031465994460829"><ele>182.0</ele><time>2026-04-12T15:05:33.999Z</time></trkpt><trkpt lat="45.873452671267785" lon="11.031456568268897"><ele>182.0</ele><time>2026-04-12T15:05:34.999Z</time></trkpt><trkpt lat="45.87337439276046" lon="11.03144361749712"><ele>182.0</ele><time>2026-04-12T15:05:35.999Z</time></trkpt><trkpt lat="45.87330198054509" lon="11.031430805087574"><ele>182.0</ele><time>2026-04-12T15:05:36.999Z</time></trkpt><trkpt lat="45.87323555973972" lon="11.031409741679168"><ele>182.0</ele><time>2026-04-12T15:05:37.999Z</time></trkpt><trkpt lat="45.873163402490015" lon="11.031370230467267"><ele>181.66666666666666</ele><time>2026-04-12T15:05:38.999Z</time></trkpt><trkpt lat="45.873093989812645" lon="11.031301398199368"><ele>181.33333333333331</ele><time>2026-04-12T15:05:39.999Z</time></trkpt><trkpt lat="45.873037183415164" lon="11.031227829989486"><ele>181.0</ele><time>2026-04-12T15:05:40.999Z</time></trkpt><trkpt lat="45.87298710273587" lon="11.031138680150528"><ele>180.66666666666666</ele><time>2026-04-12T15:05:41.999Z</time></trkpt><trkpt lat="45.872924021168195" lon="11.03107297894685"><ele>180.33333333333334</ele><time>2026-04-12T15:05:42.998Z</time></trkpt><trkpt lat="45.872835719993084" lon="11.031074001576128"><ele>180.0</ele><time>2026-04-12T15:05:43.998Z</time></trkpt><trkpt lat="45.872752549096724" lon="11.031136514857382"><ele>180.0</ele><time>2026-04-12T15:05:44.998Z</time></trkpt><trkpt lat="45.872684240995994" lon="11.031238687252372"><ele>180.0</ele><time>2026-04-12T15:05:45.998Z</time></trkpt><trkpt lat="45.872627361867785" lon="11.031349280988918"><ele>180.0</ele><time>2026-04-12T15:05:46.998Z</time></trkpt><trkpt lat="45.87249763170269" lon="11.031314361585638"><ele>180.0</ele><time>2026-04-12T15:05:47.998Z</time></trkpt><trkpt lat="45.872369890455325" lon="11.03129000002163"><ele>180.25</ele><time>2026-04-12T15:05:48.998Z</time></trkpt><trkpt lat="45.872231234488744" lon="11.031266352427545"><ele>180.5</ele><time>2026-04-12T15:05:49.998Z</time></trkpt><trkpt lat="45.87209755793746" lon="11.03123393023029"><ele>180.75</ele><time>2026-04-12T15:05:50.998Z</time></trkpt><trkpt lat="45.87196375281135" lon="11.031208523879958"><ele>181.0</ele><time>2026-04-12T15:05:51.998Z</time></trkpt><trkpt lat="45.87184492671697" lon="11.031180052735795"><ele>181.4</ele><time>2026-04-12T15:05:52.998Z</time></trkpt><trkpt lat="45.8717168044306" lon="11.031157007680946"><ele>181.8</ele><time>2026-04-12T15:05:53.998Z</time></trkpt><trkpt lat="45.871603020023265" lon="11.031140761461586"><ele>182.20000000000002</ele><time>2026-04-12T15:05:54.998Z</time></trkpt><trkpt lat="45.87149688654994" lon="11.031124330288437"><ele>182.60000000000002</ele><time>2026-04-12T15:05:55.998Z</time></trkpt><trkpt lat="45.8713990596699" lon="11.031103147671002"><ele>183.0</ele><time>2026-04-12T15:05:56.998Z</time></trkpt><trkpt lat="45.871299828560694" lon="11.031093707177465"><ele>183.0</ele><time>2026-04-12T15:05:57.998Z</time></trkpt><trkpt lat="45.87122240472405" lon="11.031090841358573"><ele>183.0</ele><time>2026-04-12T15:05:58.998Z</time></trkpt><trkpt lat="45.8711331548042" lon="11.031088125998183"><ele>183.0</ele><time>2026-04-12T15:05:59.998Z</time></trkpt><trkpt lat="45.87102833108271" lon="11.031084906643038"><ele>183.0</ele><time>2026-04-12T15:06:00.998Z</time></trkpt><trkpt lat="45.87091624112317" lon="11.031076426814181"><ele>183.0</ele><time>2026-04-12T15:06:01.998Z</time></trkpt><trkpt lat="45.87079872684332" lon="11.031071381360036"><ele>182.8</ele><time>2026-04-12T15:06:02.998Z</time></trkpt><trkpt lat="45.870684228081494" lon="11.031060654499276"><ele>182.60000000000002</ele><time>2026-04-12T15:06:03.998Z</time></trkpt><trkpt lat="45.87057634873242" lon="11.031062676265908"><ele>182.39999999999998</ele><time>2026-04-12T15:06:04.998Z</time></trkpt><trkpt lat="45.87048301973326" lon="11.031065650059357"><ele>182.2</ele><time>2026-04-12T15:06:05.998Z</time></trkpt><trkpt lat="45.87038360760353" lon="11.031070795876733"><ele>182.0</ele><time>2026-04-12T15:06:06.998Z</time></trkpt><trkpt lat="45.87028618436312" lon="11.031069603356736"><ele>182.0</ele><time>2026-04-12T15:06:07.998Z</time></trkpt><trkpt lat="45.8701866018698" lon="11.031065378639386"><ele>182.0</ele><time>2026-04-12T15:06:09Z</time></trkpt><trkpt lat="45.87007488411616" lon="11.031061976280032"><ele>182.0</ele><time>2026-04-12T15:06:10Z</time></trkpt><trkpt lat="45.869965943582045" lon="11.031055171776568"><ele>182.0</ele><time>2026-04-12T15:06:11Z</time></trkpt><trkpt lat="45.86985390933925" lon="11.031050660262977"><ele>182.0</ele><time>2026-04-12T15:06:12Z</time></trkpt><trkpt lat="45.869728643714744" lon="11.031048621460512"><ele>182.0</ele><time>2026-04-12T15:06:13Z</time></trkpt><trkpt lat="45.869601556901124" lon="11.03104901060919"><ele>182.0</ele><time>2026-04-12T15:06:14Z</time></trkpt><trkpt lat="45.869478641638764" lon="11.03105291374881"><ele>182.0</ele><time>2026-04-12T15:06:15Z</time></trkpt><trkpt lat="45.86936217742753" lon="11.03106071816032"><ele>182.0</ele><time>2026-04-12T15:06:16Z</time></trkpt><trkpt lat="45.86923236731421" lon="11.031087578869348"><ele>182.25</ele><time>2026-04-12T15:06:17Z</time></trkpt><trkpt lat="45.86911675889392" lon="11.03109566540794"><ele>182.5</ele><time>2026-04-12T15:06:18Z</time></trkpt><trkpt lat="45.86899270803288" lon="11.031109532053394"><ele>182.75</ele><time>2026-04-12T15:06:19Z</time></trkpt><trkpt lat="45.868870700337865" lon="11.031112126643082"><ele>183.0</ele><time>2026-04-12T15:06:20Z</time></trkpt><trkpt lat="45.86875021689799" lon="11.031127563362116"><ele>183.0</ele><time>2026-04-12T15:06:21Z</time></trkpt><trkpt lat="45.86863065534659" lon="11.031137008359817"><ele>183.0</ele><time>2026-04-12T15:06:22Z</time></trkpt><trkpt lat="45.86851353014497" lon="11.031143418018932"><ele>183.0</ele><time>2026-04-12T15:06:23Z</time></trkpt><trkpt lat="45.86839091594464" lon="11.031134375940566"><ele>183.0</ele><time>2026-04-12T15:06:24Z</time></trkpt><trkpt lat="45.86826052350788" lon="11.031102375209253"><ele>182.75</ele><time>2026-04-12T15:06:25Z</time></trkpt><trkpt lat="45.86813758489867" lon="11.031063438989827"><ele>182.5</ele><time>2026-04-12T15:06:26Z</time></trkpt><trkpt lat="45.868002465094264" lon="11.031017905127333"><ele>182.25</ele><time>2026-04-12T15:06:27Z</time></trkpt><trkpt lat="45.86787774256653" lon="11.03098973763101"><ele>182.0</ele><time>2026-04-12T15:06:28Z</time></trkpt><trkpt lat="45.86775642498263" lon="11.030959418513335"><ele>182.0</ele><time>2026-04-12T15:06:29Z</time></trkpt><trkpt lat="45.86763157086796" lon="11.03093245740494"><ele>182.0</ele><time>2026-04-12T15:06:30Z</time></trkpt><trkpt lat="45.867508598062685" lon="11.030901086295097"><ele>182.0</ele><time>2026-04-12T15:06:31Z</time></trkpt><trkpt lat="45.86738663755874" lon="11.03087236283174"><ele>182.0</ele><time>2026-04-12T15:06:32Z</time></trkpt><trkpt lat="45.86726577842581" lon="11.030846077736271"><ele>181.75</ele><time>2026-04-12T15:06:33Z</time></trkpt><trkpt lat="45.867153250775836" lon="11.030813812643304"><ele>181.5</ele><time>2026-04-12T15:06:34Z</time></trkpt><trkpt lat="45.867027341552095" lon="11.030782076225918"><ele>181.25</ele><time>2026-04-12T15:06:35Z</time></trkpt><trkpt lat="45.86689978950496" lon="11.030741444293016"><ele>181.0</ele><time>2026-04-12T15:06:36Z</time></trkpt><trkpt lat="45.86678395812976" lon="11.030685746185135"><ele>180.25</ele><time>2026-04-12T15:06:37Z</time></trkpt><trkpt lat="45.86667559829147" lon="11.030596300685485"><ele>179.5</ele><time>2026-04-12T15:06:38Z</time></trkpt><trkpt lat="45.866564205893596" lon="11.030522549071108"><ele>178.75</ele><time>2026-04-12T15:06:39Z</time></trkpt><trkpt lat="45.86643416248513" lon="11.030474509190684"><ele>178.0</ele><time>2026-04-12T15:06:40Z</time></trkpt><trkpt lat="45.86629747778267" lon="11.03041758207038"><ele>178.0</ele><time>2026-04-12T15:06:41Z</time></trkpt><trkpt lat="45.86616290665772" lon="11.0303799328836"><ele>178.0</ele><time>2026-04-12T15:06:42Z</time></trkpt><trkpt lat="45.866036917961154" lon="11.03035576483287"><ele>178.0</ele><time>2026-04-12T15:06:43Z</time></trkpt><trkpt lat="45.865915808104" lon="11.03033547303958"><ele>178.0</ele><time>2026-04-12T15:06:44Z</time></trkpt><trkpt lat="45.86578678122647" lon="11.030313535348206"><ele>177.5</ele><time>2026-04-12T15:06:45Z</time></trkpt><trkpt lat="45.865652511845305" lon="11.030281494648333"><ele>177.0</ele><time>2026-04-12T15:06:46Z</time></trkpt><trkpt lat="45.86551260333226" lon="11.030246385354182"><ele>176.5</ele><time>2026-04-12T15:06:47Z</time></trkpt><trkpt lat="45.865373786986176" lon="11.030214621208446"><ele>176.0</ele><time>2026-04-12T15:06:48Z</time></trkpt><trkpt lat="45.86523406569407" lon="11.030169519752366"><ele>175.75</ele><time>2026-04-12T15:06:49Z</time></trkpt><trkpt lat="45.86510693311742" lon="11.030111094972954"><ele>175.5</ele><time>2026-04-12T15:06:50Z</time></trkpt><trkpt lat="45.864984019915255" lon="11.030017163178568"><ele>175.25</ele><time>2026-04-12T15:06:51Z</time></trkpt><trkpt lat="45.86486794155848" lon="11.029903215352274"><ele>175.0</ele><time>2026-04-12T15:06:51.999Z</time></trkpt><trkpt lat="45.86475981817308" lon="11.029770916386722"><ele>175.0</ele><time>2026-04-12T15:06:52.999Z</time></trkpt><trkpt lat="45.86464761349445" lon="11.029637966978886"><ele>175.0</ele><time>2026-04-12T15:06:53.999Z</time></trkpt><trkpt lat="45.86453789226303" lon="11.029483683618897"><ele>175.0</ele><time>2026-04-12T15:06:54.999Z</time></trkpt><trkpt lat="45.864435646046935" lon="11.02933398446829"><ele>175.0</ele><time>2026-04-12T15:06:55.999Z</time></trkpt><trkpt lat="45.86433858544529" lon="11.029183580947901"><ele>175.75</ele><time>2026-04-12T15:06:56.999Z</time></trkpt><trkpt lat="45.864246737839906" lon="11.029041986774486"><ele>176.5</ele><time>2026-04-12T15:06:57.999Z</time></trkpt><trkpt lat="45.86415661988491" lon="11.028911489222148"><ele>177.25</ele><time>2026-04-12T15:06:58.999Z</time></trkpt><trkpt lat="45.86406732055458" lon="11.028782927399096"><ele>178.0</ele><time>2026-04-12T15:06:59.999Z</time></trkpt><trkpt lat="45.863991709298226" lon="11.02866264203655"><ele>178.0</ele><time>2026-04-12T15:07:00.999Z</time></trkpt><trkpt lat="45.86391322404121" lon="11.028556533880247"><ele>178.0</ele><time>2026-04-12T15:07:01.999Z</time></trkpt><trkpt lat="45.86384402419631" lon="11.02845370876451"><ele>178.0</ele><time>2026-04-12T15:07:02.999Z</time></trkpt><trkpt lat="45.863782258415334" lon="11.028353055331236"><ele>178.0</ele><time>2026-04-12T15:07:03.999Z</time></trkpt><trkpt lat="45.86371699999436" lon="11.02825459485117"><ele>178.0</ele><time>2026-04-12T15:07:04.999Z</time></trkpt><trkpt lat="45.86365401104705" lon="11.028155633281736"><ele>177.8</ele><time>2026-04-12T15:07:05.999Z</time></trkpt><trkpt lat="45.86360786696296" lon="11.02806461853704"><ele>177.60000000000002</ele><time>2026-04-12T15:07:06.999Z</time></trkpt><trkpt lat="45.863568534743955" lon="11.027982799143764"><ele>177.39999999999998</ele><time>2026-04-12T15:07:07.999Z</time></trkpt><trkpt lat="45.86350585132649" lon="11.02783498119311"><ele>177.2</ele><time>2026-04-12T15:07:09.999Z</time></trkpt><trkpt lat="45.863453362563845" lon="11.027672868486789"><ele>177.0</ele><time>2026-04-12T15:07:11.999Z</time></trkpt><trkpt lat="45.8634168310225" lon="11.027573259996306"><ele>177.0</ele><time>2026-04-12T15:07:12.999Z</time></trkpt><trkpt lat="45.86335252131234" lon="11.02748604357918"><ele>177.0</ele><time>2026-04-12T15:07:13.999Z</time></trkpt><trkpt lat="45.863252833212165" lon="11.027435840388303"><ele>177.0</ele><time>2026-04-12T15:07:14.999Z</time></trkpt><trkpt lat="45.86313116951508" lon="11.027426691228667"><ele>177.0</ele><time>2026-04-12T15:07:15.999Z</time></trkpt><trkpt lat="45.863002618319356" lon="11.027396065318344"><ele>177.0</ele><time>2026-04-12T15:07:16.999Z</time></trkpt><trkpt lat="45.862871279955066" lon="11.027326421153349"><ele>176.33333333333334</ele><time>2026-04-12T15:07:17.999Z</time></trkpt><trkpt lat="45.86273060840834" lon="11.02724201655754"><ele>175.66666666666669</ele><time>2026-04-12T15:07:18.999Z</time></trkpt><trkpt lat="45.86258087294083" lon="11.027146186041291"><ele>175.0</ele><time>2026-04-12T15:07:19.999Z</time></trkpt><trkpt lat="45.86242025515316" lon="11.027044070836437"><ele>175.0</ele><time>2026-04-12T15:07:20.999Z</time></trkpt><trkpt lat="45.862248539502644" lon="11.026934618384121"><ele>175.0</ele><time>2026-04-12T15:07:21.999Z</time></trkpt><trkpt lat="45.86206962763464" lon="11.026822355582667"><ele>175.0</ele><time>2026-04-12T15:07:22.999Z</time></trkpt><trkpt lat="45.86188577514059" lon="11.026708119347411"><ele>176.33333333333334</ele><time>2026-04-12T15:07:23.999Z</time></trkpt><trkpt lat="45.861697614588905" lon="11.026586914043616"><ele>177.66666666666666</ele><time>2026-04-12T15:07:24.999Z</time></trkpt><trkpt lat="45.86151241799411" lon="11.026465348653675"><ele>179.0</ele><time>2026-04-12T15:07:25.999Z</time></trkpt><trkpt lat="45.86133135100547" lon="11.026336472715785"><ele>179.0</ele><time>2026-04-12T15:07:26.999Z</time></trkpt><trkpt lat="45.86116938273359" lon="11.026180868420159"><ele>179.0</ele><time>2026-04-12T15:07:27.999Z</time></trkpt><trkpt lat="45.86100782373838" lon="11.026066366041698"><ele>179.0</ele><time>2026-04-12T15:07:28.999Z</time></trkpt><trkpt lat="45.86084728067588" lon="11.025910121511304"><ele>176.5</ele><time>2026-04-12T15:07:29.999Z</time></trkpt><trkpt lat="45.86067721943822" lon="11.025701527328968"><ele>174.0</ele><time>2026-04-12T15:07:30.999Z</time></trkpt><trkpt lat="45.86049650669471" lon="11.025484918607363"><ele>174.0</ele><time>2026-04-12T15:07:31.999Z</time></trkpt><trkpt lat="45.86031980662685" lon="11.025248515300348"><ele>174.0</ele><time>2026-04-12T15:07:32.999Z</time></trkpt><trkpt lat="45.86015882330971" lon="11.02502283146566"><ele>175.0</ele><time>2026-04-12T15:07:33.999Z</time></trkpt><trkpt lat="45.86001595281414" lon="11.02477373064176"><ele>176.0</ele><time>2026-04-12T15:07:34.999Z</time></trkpt><trkpt lat="45.85988170029324" lon="11.024535228721078"><ele>177.0</ele><time>2026-04-12T15:07:35.999Z</time></trkpt><trkpt lat="45.859758604718735" lon="11.024304759972708"><ele>176.33333333333334</ele><time>2026-04-12T15:07:36.999Z</time></trkpt><trkpt lat="45.85964384743482" lon="11.024076724406301"><ele>175.66666666666669</ele><time>2026-04-12T15:07:37.999Z</time></trkpt><trkpt lat="45.859528804433246" lon="11.023844897396636"><ele>175.0</ele><time>2026-04-12T15:07:38.999Z</time></trkpt><trkpt lat="45.85940389758781" lon="11.023620054186942"><ele>175.0</ele><time>2026-04-12T15:07:39.999Z</time></trkpt><trkpt lat="45.85928805124101" lon="11.023392097409904"><ele>175.0</ele><time>2026-04-12T15:07:40.999Z</time></trkpt><trkpt lat="45.85917484570145" lon="11.023176136445187"><ele>175.0</ele><time>2026-04-12T15:07:41.999Z</time></trkpt><trkpt lat="45.859063895863166" lon="11.022958084338416"><ele>177.33333333333334</ele><time>2026-04-12T15:07:42.999Z</time></trkpt><trkpt lat="45.858952266393" lon="11.022733366851396"><ele>179.66666666666666</ele><time>2026-04-12T15:07:43.999Z</time></trkpt><trkpt lat="45.858836849343845" lon="11.022511207517459"><ele>182.0</ele><time>2026-04-12T15:07:44.999Z</time></trkpt><trkpt lat="45.8587217902847" lon="11.022289974423137"><ele>182.0</ele><time>2026-04-12T15:07:45.999Z</time></trkpt><trkpt lat="45.85860468571482" lon="11.022065410872449"><ele>182.0</ele><time>2026-04-12T15:07:46.999Z</time></trkpt><trkpt lat="45.858486433514734" lon="11.02184008629908"><ele>182.0</ele><time>2026-04-12T15:07:47.999Z</time></trkpt><trkpt lat="45.858372277293014" lon="11.021627489422343"><ele>183.33333333333331</ele><time>2026-04-12T15:07:48.998Z</time></trkpt><trkpt lat="45.85824583977209" lon="11.021419888216489"><ele>184.66666666666666</ele><time>2026-04-12T15:07:49.998Z</time></trkpt><trkpt lat="45.858115158240835" lon="11.021216774784026"><ele>186.0</ele><time>2026-04-12T15:07:50.998Z</time></trkpt><trkpt lat="45.85797525313726" lon="11.021021704958784"><ele>185.66666666666666</ele><time>2026-04-12T15:07:51.998Z</time></trkpt><trkpt lat="45.85783146420446" lon="11.020811564136086"><ele>185.33333333333331</ele><time>2026-04-12T15:07:52.998Z</time></trkpt><trkpt lat="45.8576612514661" lon="11.020647811611031"><ele>185.0</ele><time>2026-04-12T15:07:53.998Z</time></trkpt><trkpt lat="45.857487140572246" lon="11.020483186454985"><ele>183.66666666666666</ele><time>2026-04-12T15:07:54.998Z</time></trkpt><trkpt lat="45.857308435308575" lon="11.02033862861396"><ele>182.33333333333334</ele><time>2026-04-12T15:07:55.998Z</time></trkpt><trkpt lat="45.85712881387616" lon="11.02019920222854"><ele>181.0</ele><time>2026-04-12T15:07:56.998Z</time></trkpt><trkpt lat="45.85694227312899" lon="11.020077684361613"><ele>179.0</ele><time>2026-04-12T15:07:57.998Z</time></trkpt><trkpt lat="45.856757452440476" lon="11.019963000573675"><ele>177.0</ele><time>2026-04-12T15:07:58.998Z</time></trkpt><trkpt lat="45.85657719536252" lon="11.01985349502417"><ele>175.0</ele><time>2026-04-12T15:07:59.998Z</time></trkpt><trkpt lat="45.85640020015571" lon="11.019749121919329"><ele>175.0</ele><time>2026-04-12T15:08:00.998Z</time></trkpt><trkpt lat="45.85622702219453" lon="11.019641186360882"><ele>175.0</ele><time>2026-04-12T15:08:01.998Z</time></trkpt><trkpt lat="45.85605892793663" lon="11.01952957278255"><ele>175.0</ele><time>2026-04-12T15:08:02.998Z</time></trkpt><trkpt lat="45.855898478889394" lon="11.01940763880712"><ele>175.0</ele><time>2026-04-12T15:08:03.998Z</time></trkpt><trkpt lat="45.85574047652253" lon="11.019264810796919"><ele>175.0</ele><time>2026-04-12T15:08:04.998Z</time></trkpt><trkpt lat="45.85559427134796" lon="11.019105371699352"><ele>175.0</ele><time>2026-04-12T15:08:05.998Z</time></trkpt><trkpt lat="45.85545566787877" lon="11.018946096119997"><ele>175.0</ele><time>2026-04-12T15:08:06.998Z</time></trkpt><trkpt lat="45.85532780766716" lon="11.018774277258709"><ele>175.0</ele><time>2026-04-12T15:08:07.998Z</time></trkpt><trkpt lat="45.85521314333006" lon="11.018591690141077"><ele>175.0</ele><time>2026-04-12T15:08:08.998Z</time></trkpt><trkpt lat="45.85510791350352" lon="11.018398562773775"><ele>174.66666666666669</ele><time>2026-04-12T15:08:09.998Z</time></trkpt><trkpt lat="45.855010868371274" lon="11.018203231805247"><ele>174.33333333333334</ele><time>2026-04-12T15:08:10.998Z</time></trkpt><trkpt lat="45.854921081123976" lon="11.018009407646264"><ele>174.0</ele><time>2026-04-12T15:08:11.998Z</time></trkpt><trkpt lat="45.85484269838813" lon="11.01782160829043"><ele>174.0</ele><time>2026-04-12T15:08:12.998Z</time></trkpt><trkpt lat="45.854767433620836" lon="11.01762539386691"><ele>174.0</ele><time>2026-04-12T15:08:13.998Z</time></trkpt><trkpt lat="45.85469248581578" lon="11.017423768537563"><ele>174.0</ele><time>2026-04-12T15:08:15Z</time></trkpt><trkpt lat="45.85462177225059" lon="11.017220108799828"><ele>174.66666666666666</ele><time>2026-04-12T15:08:16Z</time></trkpt><trkpt lat="45.854552167167085" lon="11.017010956424446"><ele>175.33333333333331</ele><time>2026-04-12T15:08:17Z</time></trkpt><trkpt lat="45.85447900103243" lon="11.01679984922365"><ele>176.0</ele><time>2026-04-12T15:08:18Z</time></trkpt><trkpt lat="45.85441091331743" lon="11.016591790466968"><ele>176.0</ele><time>2026-04-12T15:08:19Z</time></trkpt><trkpt lat="45.854334829277676" lon="11.016386336531824"><ele>176.0</ele><time>2026-04-12T15:08:20Z</time></trkpt><trkpt lat="45.85425752935804" lon="11.016180718675129"><ele>176.0</ele><time>2026-04-12T15:08:21Z</time></trkpt><trkpt lat="45.854181425980805" lon="11.01597883322497"><ele>175.0</ele><time>2026-04-12T15:08:22Z</time></trkpt><trkpt lat="45.85410439245149" lon="11.015779103492326"><ele>174.0</ele><time>2026-04-12T15:08:23Z</time></trkpt><trkpt lat="45.8540154928577" lon="11.015574557920848"><ele>173.0</ele><time>2026-04-12T15:08:24Z</time></trkpt><trkpt lat="45.85391997974541" lon="11.015378560308195"><ele>173.0</ele><time>2026-04-12T15:08:25Z</time></trkpt><trkpt lat="45.85381581079133" lon="11.015178219247211"><ele>173.0</ele><time>2026-04-12T15:08:26Z</time></trkpt><trkpt lat="45.853696290168294" lon="11.01498317562682"><ele>173.0</ele><time>2026-04-12T15:08:27Z</time></trkpt><trkpt lat="45.85357114170252" lon="11.014793961469698"><ele>174.0</ele><time>2026-04-12T15:08:28Z</time></trkpt><trkpt lat="45.85345115806364" lon="11.0145959194581"><ele>175.0</ele><time>2026-04-12T15:08:29Z</time></trkpt><trkpt lat="45.85332881912394" lon="11.014400072816596"><ele>176.0</ele><time>2026-04-12T15:08:30Z</time></trkpt><trkpt lat="45.85319748287032" lon="11.014205439747036"><ele>176.0</ele><time>2026-04-12T15:08:31Z</time></trkpt><trkpt lat="45.853065842981934" lon="11.014026511154201"><ele>176.0</ele><time>2026-04-12T15:08:32Z</time></trkpt><trkpt lat="45.85292674626933" lon="11.013845592792366"><ele>176.0</ele><time>2026-04-12T15:08:33Z</time></trkpt><trkpt lat="45.85278752941628" lon="11.013666384264559"><ele>176.0</ele><time>2026-04-12T15:08:34Z</time></trkpt><trkpt lat="45.85264111902717" lon="11.01349943479948"><ele>176.0</ele><time>2026-04-12T15:08:35Z</time></trkpt><trkpt lat="45.85247868757436" lon="11.013348680644379"><ele>176.0</ele><time>2026-04-12T15:08:36Z</time></trkpt><trkpt lat="45.8523058919702" lon="11.013224703498189"><ele>176.0</ele><time>2026-04-12T15:08:37Z</time></trkpt><trkpt lat="45.85212205190482" lon="11.013133903387859"><ele>176.0</ele><time>2026-04-12T15:08:38Z</time></trkpt><trkpt lat="45.85193080949385" lon="11.013069408331772"><ele>176.0</ele><time>2026-04-12T15:08:39Z</time></trkpt><trkpt lat="45.85174373154142" lon="11.013026987460183"><ele>176.0</ele><time>2026-04-12T15:08:40Z</time></trkpt><trkpt lat="45.85156850782205" lon="11.013000549434784"><ele>176.0</ele><time>2026-04-12T15:08:41Z</time></trkpt><trkpt lat="45.851404203846656" lon="11.01298740804388"><ele>176.0</ele><time>2026-04-12T15:08:42Z</time></trkpt><trkpt lat="45.85126034191469" lon="11.012974509938152"><ele>176.0</ele><time>2026-04-12T15:08:43Z</time></trkpt><trkpt lat="45.85112901107638" lon="11.01297169762384"><ele>176.0</ele><time>2026-04-12T15:08:44Z</time></trkpt><trkpt lat="45.851005423468465" lon="11.0129674771377"><ele>176.0</ele><time>2026-04-12T15:08:45Z</time></trkpt><trkpt lat="45.850889361609426" lon="11.012960801714074"><ele>176.0</ele><time>2026-04-12T15:08:46Z</time></trkpt><trkpt lat="45.85078778272073" lon="11.012937428596404"><ele>176.0</ele><time>2026-04-12T15:08:47Z</time></trkpt><trkpt lat="45.850684851068905" lon="11.01291230864422"><ele>176.0</ele><time>2026-04-12T15:08:48Z</time></trkpt><trkpt lat="45.8505670780378" lon="11.012912239714723"><ele>176.0</ele><time>2026-04-12T15:08:49Z</time></trkpt><trkpt lat="45.850434975037615" lon="11.012972227836444"><ele>176.0</ele><time>2026-04-12T15:08:50Z</time></trkpt><trkpt lat="45.85029658717442" lon="11.01304884272019"><ele>176.0</ele><time>2026-04-12T15:08:51Z</time></trkpt><trkpt lat="45.850141878322866" lon="11.013067443984378"><ele>176.0</ele><time>2026-04-12T15:08:52Z</time></trkpt><trkpt lat="45.84995257769587" lon="11.013034399349058"><ele>176.0</ele><time>2026-04-12T15:08:53Z</time></trkpt><trkpt lat="45.84974611484014" lon="11.012999205128242"><ele>175.66666666666666</ele><time>2026-04-12T15:08:54Z</time></trkpt><trkpt lat="45.84953463837959" lon="11.012971620114609"><ele>175.33333333333334</ele><time>2026-04-12T15:08:55Z</time></trkpt><trkpt lat="45.849320200272864" lon="11.012947415685872"><ele>175.0</ele><time>2026-04-12T15:08:56Z</time></trkpt><trkpt lat="45.849100787952125" lon="11.01292281655653"><ele>174.66666666666669</ele><time>2026-04-12T15:08:56.999Z</time></trkpt><trkpt lat="45.8488807954848" lon="11.012899013139624"><ele>174.33333333333334</ele><time>2026-04-12T15:08:57.999Z</time></trkpt><trkpt lat="45.84866429692356" lon="11.012875090822169"><ele>174.0</ele><time>2026-04-12T15:08:58.999Z</time></trkpt><trkpt lat="45.8484465321123" lon="11.01285374637365"><ele>173.33333333333334</ele><time>2026-04-12T15:08:59.999Z</time></trkpt><trkpt lat="45.84822410846879" lon="11.012828975932825"><ele>172.66666666666669</ele><time>2026-04-12T15:09:00.999Z</time></trkpt><trkpt lat="45.848000663705065" lon="11.012805160737752"><ele>172.0</ele><time>2026-04-12T15:09:01.999Z</time></trkpt><trkpt lat="45.84777313428335" lon="11.012779582715616"><ele>173.0</ele><time>2026-04-12T15:09:02.999Z</time></trkpt><trkpt lat="45.84754098688934" lon="11.012752740426636"><ele>174.0</ele><time>2026-04-12T15:09:03.999Z</time></trkpt><trkpt lat="45.847303023951795" lon="11.012729496095924"><ele>174.0</ele><time>2026-04-12T15:09:04.999Z</time></trkpt><trkpt lat="45.84706573016567" lon="11.012709297264095"><ele>174.0</ele><time>2026-04-12T15:09:05.999Z</time></trkpt><trkpt lat="45.84682485291425" lon="11.012676622546506"><ele>173.0</ele><time>2026-04-12T15:09:06.999Z</time></trkpt><trkpt lat="45.84657764090283" lon="11.012651403095512"><ele>172.0</ele><time>2026-04-12T15:09:07.999Z</time></trkpt><trkpt lat="45.84633045430945" lon="11.012621823939801"><ele>172.0</ele><time>2026-04-12T15:09:08.999Z</time></trkpt><trkpt lat="45.84607824687594" lon="11.012596640771106"><ele>172.0</ele><time>2026-04-12T15:09:09.999Z</time></trkpt><trkpt lat="45.845832907698096" lon="11.012573731348088"><ele>175.5</ele><time>2026-04-12T15:09:10.999Z</time></trkpt><trkpt lat="45.84558190209142" lon="11.012546279448825"><ele>179.0</ele><time>2026-04-12T15:09:11.999Z</time></trkpt><trkpt lat="45.84533712609377" lon="11.012518612226694"><ele>172.0</ele><time>2026-04-12T15:09:12.999Z</time></trkpt><trkpt lat="45.845094485533316" lon="11.0124879573351"><ele>165.0</ele><time>2026-04-12T15:09:13.999Z</time></trkpt><trkpt lat="45.84485662134254" lon="11.012464772558856"><ele>165.0</ele><time>2026-04-12T15:09:14.999Z</time></trkpt><trkpt lat="45.84463073705957" lon="11.01243843021549"><ele>165.0</ele><time>2026-04-12T15:09:15.999Z</time></trkpt><trkpt lat="45.84441739655779" lon="11.012416102411022"><ele>165.0</ele><time>2026-04-12T15:09:16.999Z</time></trkpt><trkpt lat="45.8441982605281" lon="11.012396203647633"><ele>169.0</ele><time>2026-04-12T15:09:17.999Z</time></trkpt><trkpt lat="45.84397319678241" lon="11.012374326591688"><ele>173.0</ele><time>2026-04-12T15:09:18.999Z</time></trkpt><trkpt lat="45.84374855271125" lon="11.012349458395413"><ele>173.0</ele><time>2026-04-12T15:09:19.999Z</time></trkpt><trkpt lat="45.84352227065708" lon="11.012326886946894"><ele>173.0</ele><time>2026-04-12T15:09:20.999Z</time></trkpt><trkpt lat="45.84329133309285" lon="11.01229977209181"><ele>176.5</ele><time>2026-04-12T15:09:21.999Z</time></trkpt><trkpt lat="45.84305982092263" lon="11.01227729798038"><ele>180.0</ele><time>2026-04-12T15:09:22.999Z</time></trkpt><trkpt lat="45.842826071206225" lon="11.012246770758054"><ele>180.5</ele><time>2026-04-12T15:09:23.999Z</time></trkpt><trkpt lat="45.84259307663387" lon="11.012227497597147"><ele>181.0</ele><time>2026-04-12T15:09:24.999Z</time></trkpt><trkpt lat="45.84236098913523" lon="11.012205890154759"><ele>181.0</ele><time>2026-04-12T15:09:25.999Z</time></trkpt><trkpt lat="45.8421347494282" lon="11.012178687027246"><ele>181.0</ele><time>2026-04-12T15:09:26.999Z</time></trkpt><trkpt lat="45.84191147639027" lon="11.012138231819556"><ele>179.5</ele><time>2026-04-12T15:09:27.999Z</time></trkpt><trkpt lat="45.841696682810316" lon="11.012060170802712"><ele>178.0</ele><time>2026-04-12T15:09:28.999Z</time></trkpt><trkpt lat="45.841472340566106" lon="11.011970679275956"><ele>178.0</ele><time>2026-04-12T15:09:29.999Z</time></trkpt><trkpt lat="45.841249813281316" lon="11.01190020440677"><ele>178.0</ele><time>2026-04-12T15:09:30.999Z</time></trkpt><trkpt lat="45.841040948097834" lon="11.011794652258367"><ele>178.0</ele><time>2026-04-12T15:09:31.999Z</time></trkpt><trkpt lat="45.84084088562794" lon="11.01170082901124"><ele>176.66666666666669</ele><time>2026-04-12T15:09:32.999Z</time></trkpt><trkpt lat="45.840650751236936" lon="11.011617992200675"><ele>175.33333333333334</ele><time>2026-04-12T15:09:33.999Z</time></trkpt><trkpt lat="45.840467853208814" lon="11.011537029855017"><ele>174.0</ele><time>2026-04-12T15:09:34.999Z</time></trkpt><trkpt lat="45.84030028406036" lon="11.011467323625624"><ele>174.0</ele><time>2026-04-12T15:09:35.999Z</time></trkpt><trkpt lat="45.84014465591833" lon="11.011398378605426"><ele>174.0</ele><time>2026-04-12T15:09:36.999Z</time></trkpt><trkpt lat="45.8399962481056" lon="11.011335341370911"><ele>174.0</ele><time>2026-04-12T15:09:37.999Z</time></trkpt><trkpt lat="45.83984898803871" lon="11.011270786367533"><ele>172.0</ele><time>2026-04-12T15:09:38.999Z</time></trkpt><trkpt lat="45.8397024231635" lon="11.011199115519508"><ele>170.0</ele><time>2026-04-12T15:09:39.999Z</time></trkpt><trkpt lat="45.83954336394978" lon="11.01113878662389"><ele>168.0</ele><time>2026-04-12T15:09:40.999Z</time></trkpt><trkpt lat="45.839379905043394" lon="11.011069335297725"><ele>168.0</ele><time>2026-04-12T15:09:41.999Z</time></trkpt><trkpt lat="45.839219343453074" lon="11.011005546465684"><ele>168.0</ele><time>2026-04-12T15:09:42.999Z</time></trkpt><trkpt lat="45.83905354100026" lon="11.010940072975032"><ele>168.0</ele><time>2026-04-12T15:09:43.999Z</time></trkpt><trkpt lat="45.83888201189677" lon="11.010882408682752"><ele>168.0</ele><time>2026-04-12T15:09:44.999Z</time></trkpt><trkpt lat="45.838699100537276" lon="11.010849349720765"><ele>168.0</ele><time>2026-04-12T15:09:45.999Z</time></trkpt><trkpt lat="45.8385141133139" lon="11.01083254356807"><ele>168.0</ele><time>2026-04-12T15:09:46.999Z</time></trkpt><trkpt lat="45.83832166259228" lon="11.010821226008108"><ele>165.0</ele><time>2026-04-12T15:09:47.999Z</time></trkpt><trkpt lat="45.838128940028305" lon="11.010805555464048"><ele>162.0</ele><time>2026-04-12T15:09:48.999Z</time></trkpt><trkpt lat="45.83793069640012" lon="11.01079413494076"><ele>159.0</ele><time>2026-04-12T15:09:49.999Z</time></trkpt><trkpt lat="45.8377344494668" lon="11.010782412993933"><ele>158.66666666666666</ele><time>2026-04-12T15:09:50.999Z</time></trkpt><trkpt lat="45.83754241937436" lon="11.010771414331128"><ele>158.33333333333331</ele><time>2026-04-12T15:09:51.999Z</time></trkpt><trkpt lat="45.837354556628604" lon="11.010760498511473"><ele>158.0</ele><time>2026-04-12T15:09:52.999Z</time></trkpt><trkpt lat="45.83717103824072" lon="11.01075463089275"><ele>158.0</ele><time>2026-04-12T15:09:53.998Z</time></trkpt><trkpt lat="45.83699110870764" lon="11.010746903690569"><ele>158.0</ele><time>2026-04-12T15:09:54.998Z</time></trkpt><trkpt lat="45.83682694553506" lon="11.01074150178728"><ele>158.0</ele><time>2026-04-12T15:09:55.998Z</time></trkpt><trkpt lat="45.83666175186355" lon="11.010729407438935"><ele>159.0</ele><time>2026-04-12T15:09:56.998Z</time></trkpt><trkpt lat="45.836495234910764" lon="11.010722127989332"><ele>160.0</ele><time>2026-04-12T15:09:57.998Z</time></trkpt><trkpt lat="45.83632780641956" lon="11.01070578685436"><ele>161.0</ele><time>2026-04-12T15:09:58.998Z</time></trkpt><trkpt lat="45.83615092470914" lon="11.010687060581745"><ele>161.0</ele><time>2026-04-12T15:09:59.998Z</time></trkpt><trkpt lat="45.83597101458848" lon="11.010670998181135"><ele>161.0</ele><time>2026-04-12T15:10:00.998Z</time></trkpt><trkpt lat="45.8357911364" lon="11.010636856441545"><ele>161.0</ele><time>2026-04-12T15:10:01.998Z</time></trkpt><trkpt lat="45.83562025376119" lon="11.010597391288478"><ele>161.66666666666666</ele><time>2026-04-12T15:10:02.998Z</time></trkpt><trkpt lat="45.83544550264144" lon="11.010553770452098"><ele>162.33333333333334</ele><time>2026-04-12T15:10:03.998Z</time></trkpt><trkpt lat="45.83526673638568" lon="11.010518810900427"><ele>163.0</ele><time>2026-04-12T15:10:04.998Z</time></trkpt><trkpt lat="45.8350817846576" lon="11.010484446889146"><ele>163.0</ele><time>2026-04-12T15:10:05.998Z</time></trkpt><trkpt lat="45.83489502699431" lon="11.010453559840816"><ele>163.0</ele><time>2026-04-12T15:10:06.998Z</time></trkpt><trkpt lat="45.83471461527424" lon="11.010420579021028"><ele>163.0</ele><time>2026-04-12T15:10:07.998Z</time></trkpt><trkpt lat="45.83454078619174" lon="11.010391828903373"><ele>163.0</ele><time>2026-04-12T15:10:08.998Z</time></trkpt><trkpt lat="45.83436792807781" lon="11.010362905330775"><ele>163.0</ele><time>2026-04-12T15:10:09.998Z</time></trkpt><trkpt lat="45.83419759959975" lon="11.010332095050966"><ele>163.0</ele><time>2026-04-12T15:10:10.998Z</time></trkpt><trkpt lat="45.834016137902765" lon="11.010308171596765"><ele>163.0</ele><time>2026-04-12T15:10:11.998Z</time></trkpt><trkpt lat="45.833834684121" lon="11.01029115869994"><ele>163.0</ele><time>2026-04-12T15:10:12.998Z</time></trkpt><trkpt lat="45.8336524702412" lon="11.010284433299365"><ele>163.0</ele><time>2026-04-12T15:10:13.998Z</time></trkpt><trkpt lat="45.833465121940385" lon="11.010292318826114"><ele>163.0</ele><time>2026-04-12T15:10:14.998Z</time></trkpt><trkpt lat="45.83327237318483" lon="11.01031542658288"><ele>163.0</ele><time>2026-04-12T15:10:15.998Z</time></trkpt><trkpt lat="45.83309224503253" lon="11.010320727530816"><ele>163.0</ele><time>2026-04-12T15:10:16.998Z</time></trkpt><trkpt lat="45.83291794241724" lon="11.010322151335034"><ele>163.0</ele><time>2026-04-12T15:10:17.998Z</time></trkpt><trkpt lat="45.83274872149754" lon="11.010331927302907"><ele>163.0</ele><time>2026-04-12T15:10:18.998Z</time></trkpt><trkpt lat="45.83257407086851" lon="11.010338523788352"><ele>163.0</ele><time>2026-04-12T15:10:19.998Z</time></trkpt><trkpt lat="45.8323945820887" lon="11.010347827774186"><ele>162.66666666666669</ele><time>2026-04-12T15:10:21Z</time></trkpt><trkpt lat="45.83221205114048" lon="11.010367609450268"><ele>162.33333333333334</ele><time>2026-04-12T15:10:22Z</time></trkpt><trkpt lat="45.832018483942434" lon="11.0104120530475"><ele>162.0</ele><time>2026-04-12T15:10:23Z</time></trkpt><trkpt lat="45.83183231543764" lon="11.01047313468009"><ele>164.33333333333334</ele><time>2026-04-12T15:10:24Z</time></trkpt><trkpt lat="45.831644098026395" lon="11.010556140089042"><ele>166.66666666666669</ele><time>2026-04-12T15:10:25Z</time></trkpt><trkpt lat="45.83145575984975" lon="11.010646022961529"><ele>169.0</ele><time>2026-04-12T15:10:26Z</time></trkpt><trkpt lat="45.83128011732273" lon="11.01074089940047"><ele>169.33333333333334</ele><time>2026-04-12T15:10:27Z</time></trkpt><trkpt lat="45.83109889413785" lon="11.010834771776647"><ele>169.66666666666666</ele><time>2026-04-12T15:10:28Z</time></trkpt><trkpt lat="45.83091887666124" lon="11.01092909474291"><ele>170.0</ele><time>2026-04-12T15:10:29Z</time></trkpt><trkpt lat="45.83073947035772" lon="11.011021892197613"><ele>170.0</ele><time>2026-04-12T15:10:30Z</time></trkpt><trkpt lat="45.83056744571683" lon="11.011106733330871"><ele>170.0</ele><time>2026-04-12T15:10:31Z</time></trkpt><trkpt lat="45.83038768953288" lon="11.011197750717242"><ele>170.0</ele><time>2026-04-12T15:10:32Z</time></trkpt><trkpt lat="45.830205025393525" lon="11.011281911942291"><ele>170.0</ele><time>2026-04-12T15:10:33Z</time></trkpt><trkpt lat="45.83001877871558" lon="11.011343125578943"><ele>170.0</ele><time>2026-04-12T15:10:34Z</time></trkpt><trkpt lat="45.829820022138286" lon="11.011388194108058"><ele>170.0</ele><time>2026-04-12T15:10:35Z</time></trkpt><trkpt lat="45.8296194239745" lon="11.011407831522451"><ele>170.0</ele><time>2026-04-12T15:10:36Z</time></trkpt><trkpt lat="45.829414326384466" lon="11.011397326301273"><ele>170.0</ele><time>2026-04-12T15:10:37Z</time></trkpt><trkpt lat="45.829201582559904" lon="11.011376168049868"><ele>170.0</ele><time>2026-04-12T15:10:38Z</time></trkpt><trkpt lat="45.82898135583618" lon="11.011351008236906"><ele>169.0</ele><time>2026-04-12T15:10:39Z</time></trkpt><trkpt lat="45.82876422478499" lon="11.01132882490798"><ele>168.0</ele><time>2026-04-12T15:10:40Z</time></trkpt><trkpt lat="45.82854865801936" lon="11.011306882539376"><ele>167.0</ele><time>2026-04-12T15:10:41Z</time></trkpt><trkpt lat="45.82832912316479" lon="11.011281553165839"><ele>166.33333333333331</ele><time>2026-04-12T15:10:42Z</time></trkpt><trkpt lat="45.82810908035416" lon="11.011253414003665"><ele>165.66666666666666</ele><time>2026-04-12T15:10:43Z</time></trkpt><trkpt lat="45.827885609074265" lon="11.011225795441693"><ele>165.0</ele><time>2026-04-12T15:10:44Z</time></trkpt><trkpt lat="45.82766377737383" lon="11.01119582372887"><ele>163.0</ele><time>2026-04-12T15:10:45Z</time></trkpt><trkpt lat="45.82743821393393" lon="11.011163047959945"><ele>161.0</ele><time>2026-04-12T15:10:46Z</time></trkpt><trkpt lat="45.82720627396316" lon="11.01113166782222"><ele>161.0</ele><time>2026-04-12T15:10:47Z</time></trkpt><trkpt lat="45.82697411939967" lon="11.011098093035931"><ele>161.0</ele><time>2026-04-12T15:10:48Z</time></trkpt><trkpt lat="45.826737515062874" lon="11.011066323920826"><ele>161.5</ele><time>2026-04-12T15:10:49Z</time></trkpt><trkpt lat="45.82650302053473" lon="11.0110367022411"><ele>162.0</ele><time>2026-04-12T15:10:50Z</time></trkpt><trkpt lat="45.82626525859694" lon="11.011006201184077"><ele>162.0</ele><time>2026-04-12T15:10:51Z</time></trkpt><trkpt lat="45.82603052052" lon="11.010973583534703"><ele>162.0</ele><time>2026-04-12T15:10:52Z</time></trkpt><trkpt lat="45.825797603684315" lon="11.010937686063935"><ele>162.5</ele><time>2026-04-12T15:10:53Z</time></trkpt><trkpt lat="45.825567170295216" lon="11.010902816780078"><ele>163.0</ele><time>2026-04-12T15:10:54Z</time></trkpt><trkpt lat="45.82533239041735" lon="11.010868777967012"><ele>160.5</ele><time>2026-04-12T15:10:55Z</time></trkpt><trkpt lat="45.82509536944647" lon="11.010836939969236"><ele>158.0</ele><time>2026-04-12T15:10:56Z</time></trkpt><trkpt lat="45.82486101467933" lon="11.01080339281272"><ele>157.66666666666666</ele><time>2026-04-12T15:10:57Z</time></trkpt><trkpt lat="45.82463641007622" lon="11.01077010868726"><ele>157.33333333333334</ele><time>2026-04-12T15:10:58Z</time></trkpt><trkpt lat="45.824426143885184" lon="11.010739222705995"><ele>157.0</ele><time>2026-04-12T15:10:59Z</time></trkpt><trkpt lat="45.8242235655146" lon="11.010708319536722"><ele>157.0</ele><time>2026-04-12T15:11:00Z</time></trkpt><trkpt lat="45.82403249836999" lon="11.010681118767812"><ele>157.0</ele><time>2026-04-12T15:11:01Z</time></trkpt><trkpt lat="45.82383245642936" lon="11.010654783739755"><ele>157.0</ele><time>2026-04-12T15:11:01.999Z</time></trkpt><trkpt lat="45.82362921715088" lon="11.010630917945688"><ele>157.0</ele><time>2026-04-12T15:11:02.999Z</time></trkpt><trkpt lat="45.823427315728814" lon="11.01060280736237"><ele>157.0</ele><time>2026-04-12T15:11:03.999Z</time></trkpt><trkpt lat="45.823220756376394" lon="11.010575956935996"><ele>157.0</ele><time>2026-04-12T15:11:04.999Z</time></trkpt><trkpt lat="45.82301923920724" lon="11.010564878045662"><ele>157.0</ele><time>2026-04-12T15:11:05.999Z</time></trkpt><trkpt lat="45.82282257816797" lon="11.010569396615276"><ele>157.0</ele><time>2026-04-12T15:11:06.999Z</time></trkpt><trkpt lat="45.82261824644218" lon="11.010584382754349"><ele>157.0</ele><time>2026-04-12T15:11:07.999Z</time></trkpt><trkpt lat="45.82240264902466" lon="11.010600360017555"><ele>155.0</ele><time>2026-04-12T15:11:08.999Z</time></trkpt><trkpt lat="45.822176848766276" lon="11.010619503516686"><ele>153.0</ele><time>2026-04-12T15:11:09.999Z</time></trkpt><trkpt lat="45.821942663133" lon="11.010630644480953"><ele>152.5</ele><time>2026-04-12T15:11:10.999Z</time></trkpt><trkpt lat="45.8217033678012" lon="11.010647510789669"><ele>152.0</ele><time>2026-04-12T15:11:11.999Z</time></trkpt><trkpt lat="45.821458087669825" lon="11.010666687752698"><ele>152.0</ele><time>2026-04-12T15:11:12.999Z</time></trkpt><trkpt lat="45.82119687829584" lon="11.010689636230895"><ele>152.0</ele><time>2026-04-12T15:11:13.999Z</time></trkpt><trkpt lat="45.820917860234886" lon="11.01071903330963"><ele>152.0</ele><time>2026-04-12T15:11:14.999Z</time></trkpt><trkpt lat="45.8206344544443" lon="11.010751659963603"><ele>152.0</ele><time>2026-04-12T15:11:15.999Z</time></trkpt><trkpt lat="45.82034679535325" lon="11.010788885178751"><ele>155.0</ele><time>2026-04-12T15:11:16.999Z</time></trkpt><trkpt lat="45.82005065421025" lon="11.010826607755376"><ele>158.0</ele><time>2026-04-12T15:11:17.999Z</time></trkpt><trkpt lat="45.819752159035104" lon="11.010865761253694"><ele>158.0</ele><time>2026-04-12T15:11:18.999Z</time></trkpt><trkpt lat="45.819457657001806" lon="11.010875424920139"><ele>158.0</ele><time>2026-04-12T15:11:19.999Z</time></trkpt><trkpt lat="45.81917269369674" lon="11.0108928622366"><ele>156.0</ele><time>2026-04-12T15:11:20.999Z</time></trkpt><trkpt lat="45.818916066779266" lon="11.010942422675575"><ele>154.0</ele><time>2026-04-12T15:11:21.999Z</time></trkpt><trkpt lat="45.81866525026448" lon="11.010990713810404"><ele>154.0</ele><time>2026-04-12T15:11:22.999Z</time></trkpt><trkpt lat="45.818445169255504" lon="11.011022297337167"><ele>154.0</ele><time>2026-04-12T15:11:23.999Z</time></trkpt><trkpt lat="45.81815463707474" lon="11.010215889852418"><ele>154.0</ele><time>2026-04-12T15:11:24.999Z</time></trkpt><trkpt lat="45.817924535857095" lon="11.009957717505003"><ele>154.0</ele><time>2026-04-12T15:11:25.999Z</time></trkpt><trkpt lat="45.817842160861346" lon="11.01132845731626"><ele>154.0</ele><time>2026-04-12T15:11:26.999Z</time></trkpt><trkpt lat="45.8176633937526" lon="11.011404788741345"><ele>154.0</ele><time>2026-04-12T15:11:27.999Z</time></trkpt><trkpt lat="45.81747917150805" lon="11.011473722301641"><ele>154.0</ele><time>2026-04-12T15:11:28.999Z</time></trkpt><trkpt lat="45.81728679243987" lon="11.011550202246427"><ele>154.33333333333334</ele><time>2026-04-12T15:11:29.999Z</time></trkpt><trkpt lat="45.81708254793734" lon="11.011625929739479"><ele>154.66666666666666</ele><time>2026-04-12T15:11:30.999Z</time></trkpt><trkpt lat="45.81686750992691" lon="11.011694104864874"><ele>155.0</ele><time>2026-04-12T15:11:31.999Z</time></trkpt><trkpt lat="45.81664344482958" lon="11.011761158048836"><ele>155.0</ele><time>2026-04-12T15:11:32.999Z</time></trkpt><trkpt lat="45.816412555637186" lon="11.011827213642764"><ele>155.0</ele><time>2026-04-12T15:11:33.999Z</time></trkpt><trkpt lat="45.816170725927435" lon="11.011900336916444"><ele>153.0</ele><time>2026-04-12T15:11:34.999Z</time></trkpt><trkpt lat="45.81591498178916" lon="11.011977713620665"><ele>151.0</ele><time>2026-04-12T15:11:35.999Z</time></trkpt><trkpt lat="45.81565916101165" lon="11.012056493948442"><ele>151.0</ele><time>2026-04-12T15:11:36.999Z</time></trkpt><trkpt lat="45.815411185930614" lon="11.01212951901179"><ele>151.0</ele><time>2026-04-12T15:11:37.999Z</time></trkpt><trkpt lat="45.81517560980592" lon="11.012197550703192"><ele>151.0</ele><time>2026-04-12T15:11:38.999Z</time></trkpt><trkpt lat="45.81495002350307" lon="11.012268997026032"><ele>151.0</ele><time>2026-04-12T15:11:39.999Z</time></trkpt><trkpt lat="45.81472954100017" lon="11.01233373190736"><ele>151.0</ele><time>2026-04-12T15:11:40.999Z</time></trkpt><trkpt lat="45.814519883775056" lon="11.012389895273815"><ele>151.0</ele><time>2026-04-12T15:11:41.999Z</time></trkpt><trkpt lat="45.814312017808106" lon="11.012455084343335"><ele>151.0</ele><time>2026-04-12T15:11:42.999Z</time></trkpt><trkpt lat="45.814110977220835" lon="11.012520757771973"><ele>154.33333333333334</ele><time>2026-04-12T15:11:43.999Z</time></trkpt><trkpt lat="45.81391405427653" lon="11.012589123544885"><ele>157.66666666666666</ele><time>2026-04-12T15:11:44.999Z</time></trkpt><trkpt lat="45.813715647346164" lon="11.012661069282016"><ele>161.0</ele><time>2026-04-12T15:11:45.999Z</time></trkpt><trkpt lat="45.81351580383075" lon="11.012734892677214"><ele>159.33333333333331</ele><time>2026-04-12T15:11:46.999Z</time></trkpt><trkpt lat="45.813316979027576" lon="11.01280635311445"><ele>157.66666666666666</ele><time>2026-04-12T15:11:47.999Z</time></trkpt><trkpt lat="45.81313247320187" lon="11.012861153831574"><ele>156.0</ele><time>2026-04-12T15:11:48.999Z</time></trkpt><trkpt lat="45.81295448298492" lon="11.012923402710078"><ele>156.0</ele><time>2026-04-12T15:11:49.999Z</time></trkpt><trkpt lat="45.81278466890397" lon="11.012987848068992"><ele>156.0</ele><time>2026-04-12T15:11:50.999Z</time></trkpt><trkpt lat="45.812611038880945" lon="11.01305308130951"><ele>156.0</ele><time>2026-04-12T15:11:51.999Z</time></trkpt><trkpt lat="45.81242529278147" lon="11.013124651478272"><ele>155.0</ele><time>2026-04-12T15:11:52.999Z</time></trkpt><trkpt lat="45.81224274905538" lon="11.013191544713465"><ele>154.0</ele><time>2026-04-12T15:11:53.999Z</time></trkpt><trkpt lat="45.81206231228779" lon="11.013251475298318"><ele>153.0</ele><time>2026-04-12T15:11:54.999Z</time></trkpt><trkpt lat="45.81188890970936" lon="11.013321151413741"><ele>152.66666666666666</ele><time>2026-04-12T15:11:55.999Z</time></trkpt><trkpt lat="45.811729893013194" lon="11.013393633232388"><ele>152.33333333333331</ele><time>2026-04-12T15:11:56.999Z</time></trkpt><trkpt lat="45.811574075096814" lon="11.013456221949626"><ele>152.0</ele><time>2026-04-12T15:11:57.999Z</time></trkpt><trkpt lat="45.81142414677675" lon="11.013522341541238"><ele>152.0</ele><time>2026-04-12T15:11:58.998Z</time></trkpt><trkpt lat="45.81127375755023" lon="11.013594731279277"><ele>152.0</ele><time>2026-04-12T15:11:59.998Z</time></trkpt><trkpt lat="45.811119580904354" lon="11.013652788663988"><ele>152.0</ele><time>2026-04-12T15:12:00.998Z</time></trkpt><trkpt lat="45.81098388098035" lon="11.013714011493455"><ele>151.25</ele><time>2026-04-12T15:12:01.998Z</time></trkpt><trkpt lat="45.81085034058571" lon="11.013777969412477"><ele>150.5</ele><time>2026-04-12T15:12:02.998Z</time></trkpt><trkpt lat="45.81071390213953" lon="11.01384356800816"><ele>149.75</ele><time>2026-04-12T15:12:03.998Z</time></trkpt><trkpt lat="45.810570285352014" lon="11.013912765328731"><ele>149.0</ele><time>2026-04-12T15:12:04.998Z</time></trkpt><trkpt lat="45.810423472262556" lon="11.013989548763126"><ele>149.0</ele><time>2026-04-12T15:12:05.998Z</time></trkpt><trkpt lat="45.81028213651545" lon="11.014068070146902"><ele>149.0</ele><time>2026-04-12T15:12:06.998Z</time></trkpt><trkpt lat="45.810149753934745" lon="11.014151226580482"><ele>149.0</ele><time>2026-04-12T15:12:07.998Z</time></trkpt><trkpt lat="45.81002432673217" lon="11.014248247865112"><ele>149.0</ele><time>2026-04-12T15:12:08.998Z</time></trkpt><trkpt lat="45.80989122000439" lon="11.014361059430074"><ele>149.66666666666666</ele><time>2026-04-12T15:12:09.998Z</time></trkpt><trkpt lat="45.80975375566621" lon="11.014480878758658"><ele>150.33333333333334</ele><time>2026-04-12T15:12:10.998Z</time></trkpt><trkpt lat="45.80961059905221" lon="11.014604947875025"><ele>151.0</ele><time>2026-04-12T15:12:11.998Z</time></trkpt><trkpt lat="45.80946599273328" lon="11.014728781161855"><ele>150.66666666666669</ele><time>2026-04-12T15:12:12.998Z</time></trkpt><trkpt lat="45.809324710627514" lon="11.014852592783617"><ele>150.33333333333334</ele><time>2026-04-12T15:12:13.998Z</time></trkpt><trkpt lat="45.80918259936306" lon="11.01497078168958"><ele>150.0</ele><time>2026-04-12T15:12:14.998Z</time></trkpt><trkpt lat="45.80904791046367" lon="11.0151081830016"><ele>150.0</ele><time>2026-04-12T15:12:15.998Z</time></trkpt><trkpt lat="45.80890990211064" lon="11.01524444045393"><ele>150.0</ele><time>2026-04-12T15:12:16.998Z</time></trkpt><trkpt lat="45.808775180721696" lon="11.01538298846402"><ele>150.0</ele><time>2026-04-12T15:12:17.998Z</time></trkpt><trkpt lat="45.80864331490824" lon="11.015525224239628"><ele>150.0</ele><time>2026-04-12T15:12:18.998Z</time></trkpt><trkpt lat="45.8085095820412" lon="11.0156662485812"><ele>150.0</ele><time>2026-04-12T15:12:19.998Z</time></trkpt><trkpt lat="45.80836715741633" lon="11.01580871917545"><ele>150.0</ele><time>2026-04-12T15:12:20.998Z</time></trkpt><trkpt lat="45.80822161736136" lon="11.01594452760242"><ele>150.0</ele><time>2026-04-12T15:12:21.998Z</time></trkpt><trkpt lat="45.80807248548781" lon="11.016083801406026"><ele>150.0</ele><time>2026-04-12T15:12:22.998Z</time></trkpt><trkpt lat="45.80791765735653" lon="11.016217938981972"><ele>150.0</ele><time>2026-04-12T15:12:23.998Z</time></trkpt><trkpt lat="45.80776645903407" lon="11.016349841424756"><ele>149.66666666666666</ele><time>2026-04-12T15:12:24.998Z</time></trkpt><trkpt lat="45.80761968495746" lon="11.016482460960438"><ele>149.33333333333331</ele><time>2026-04-12T15:12:25.998Z</time></trkpt><trkpt lat="45.80747469602136" lon="11.016615028759956"><ele>149.0</ele><time>2026-04-12T15:12:27Z</time></trkpt><trkpt lat="45.80733622491159" lon="11.016736637826794"><ele>149.0</ele><time>2026-04-12T15:12:28Z</time></trkpt><trkpt lat="45.80719878277546" lon="11.01686936253136"><ele>149.0</ele><time>2026-04-12T15:12:29Z</time></trkpt><trkpt lat="45.80705411364329" lon="11.016995598062675"><ele>149.0</ele><time>2026-04-12T15:12:30Z</time></trkpt><trkpt lat="45.80691068135998" lon="11.017131350414605"><ele>149.0</ele><time>2026-04-12T15:12:31Z</time></trkpt><trkpt lat="45.806771037381694" lon="11.01725748743175"><ele>149.0</ele><time>2026-04-12T15:12:32Z</time></trkpt><trkpt lat="45.80663354351701" lon="11.01738621235625"><ele>149.0</ele><time>2026-04-12T15:12:33Z</time></trkpt><trkpt lat="45.806491016430904" lon="11.017517465469702"><ele>149.33333333333331</ele><time>2026-04-12T15:12:34Z</time></trkpt><trkpt lat="45.806340315255575" lon="11.017647659834283"><ele>149.66666666666666</ele><time>2026-04-12T15:12:35Z</time></trkpt><trkpt lat="45.80619046134386" lon="11.017767860587186"><ele>150.0</ele><time>2026-04-12T15:12:36Z</time></trkpt><trkpt lat="45.806051057128535" lon="11.017879012650328"><ele>149.75</ele><time>2026-04-12T15:12:37Z</time></trkpt><trkpt lat="45.80592003146011" lon="11.017964534930384"><ele>149.5</ele><time>2026-04-12T15:12:38Z</time></trkpt><trkpt lat="45.80579789862631" lon="11.018033465702448"><ele>149.25</ele><time>2026-04-12T15:12:39Z</time></trkpt><trkpt lat="45.80567913756369" lon="11.018089697699036"><ele>149.0</ele><time>2026-04-12T15:12:40Z</time></trkpt><trkpt lat="45.80554890399385" lon="11.018130375064116"><ele>149.0</ele><time>2026-04-12T15:12:41Z</time></trkpt><trkpt lat="45.805401385420254" lon="11.018177717016814"><ele>149.0</ele><time>2026-04-12T15:12:42Z</time></trkpt><trkpt lat="45.80523805304577" lon="11.018226472376062"><ele>149.0</ele><time>2026-04-12T15:12:43Z</time></trkpt><trkpt lat="45.805055704820276" lon="11.018286217356344"><ele>148.66666666666666</ele><time>2026-04-12T15:12:44Z</time></trkpt><trkpt lat="45.80485578434016" lon="11.01836355257045"><ele>148.33333333333334</ele><time>2026-04-12T15:12:45Z</time></trkpt><trkpt lat="45.8046284177526" lon="11.018415329474752"><ele>148.0</ele><time>2026-04-12T15:12:46Z</time></trkpt><trkpt lat="45.804382259258546" lon="11.018488079845417"><ele>147.0</ele><time>2026-04-12T15:12:47Z</time></trkpt><trkpt lat="45.80411493322441" lon="11.018566442490066"><ele>146.0</ele><time>2026-04-12T15:12:48Z</time></trkpt><trkpt lat="45.803817829123965" lon="11.018653878807374"><ele>146.0</ele><time>2026-04-12T15:12:49Z</time></trkpt><trkpt lat="45.803497307843806" lon="11.018785853155418"><ele>146.0</ele><time>2026-04-12T15:12:50Z</time></trkpt><trkpt lat="45.80317740879198" lon="11.01886996389973"><ele>147.0</ele><time>2026-04-12T15:12:51Z</time></trkpt><trkpt lat="45.80289496228218" lon="11.018933881991138"><ele>148.0</ele><time>2026-04-12T15:12:52Z</time></trkpt><trkpt lat="45.8026457513467" lon="11.019003510698164"><ele>149.0</ele><time>2026-04-12T15:12:53Z</time></trkpt><trkpt lat="45.8024132795041" lon="11.019079439912796"><ele>150.0</ele><time>2026-04-12T15:12:54Z</time></trkpt><trkpt lat="45.802192001500124" lon="11.019145754215662"><ele>149.0</ele><time>2026-04-12T15:12:55Z</time></trkpt><trkpt lat="45.801977065487826" lon="11.019204343089557"><ele>148.0</ele><time>2026-04-12T15:12:56Z</time></trkpt><trkpt lat="45.80175157639746" lon="11.01927742388063"><ele>147.5</ele><time>2026-04-12T15:12:57Z</time></trkpt><trkpt lat="45.80151844613659" lon="11.019349598168278"><ele>147.0</ele><time>2026-04-12T15:12:58Z</time></trkpt><trkpt lat="45.80130257542129" lon="11.019438157718577"><ele>147.0</ele><time>2026-04-12T15:12:59Z</time></trkpt><trkpt lat="45.801115528772755" lon="11.019558481820845"><ele>147.0</ele><time>2026-04-12T15:13:00Z</time></trkpt><trkpt lat="45.80093866150075" lon="11.019673075481906"><ele>147.0</ele><time>2026-04-12T15:13:01Z</time></trkpt><trkpt lat="45.800763767252725" lon="11.019759183800284"><ele>147.0</ele><time>2026-04-12T15:13:02Z</time></trkpt><trkpt lat="45.80058254202673" lon="11.019865177849196"><ele>147.0</ele><time>2026-04-12T15:13:03Z</time></trkpt><trkpt lat="45.80040221410335" lon="11.01997048922903"><ele>147.0</ele><time>2026-04-12T15:13:04Z</time></trkpt><trkpt lat="45.80022193364514" lon="11.020076537896117"><ele>147.66666666666666</ele><time>2026-04-12T15:13:05Z</time></trkpt><trkpt lat="45.80004859213167" lon="11.020201922241428"><ele>148.33333333333331</ele><time>2026-04-12T15:13:06Z</time></trkpt><trkpt lat="45.799868221054254" lon="11.020308947251579"><ele>149.0</ele><time>2026-04-12T15:13:07Z</time></trkpt><trkpt lat="45.79968644237626" lon="11.020414326415475"><ele>149.0</ele><time>2026-04-12T15:13:07.999Z</time></trkpt><trkpt lat="45.799500387866054" lon="11.020527476605261"><ele>149.0</ele><time>2026-04-12T15:13:08.999Z</time></trkpt><trkpt lat="45.79931378605183" lon="11.020634798610558"><ele>149.0</ele><time>2026-04-12T15:13:09.999Z</time></trkpt><trkpt lat="45.7991241903898" lon="11.020742998332796"><ele>148.33333333333331</ele><time>2026-04-12T15:13:10.999Z</time></trkpt><trkpt lat="45.79893117160093" lon="11.02085675049068"><ele>147.66666666666666</ele><time>2026-04-12T15:13:11.999Z</time></trkpt><trkpt lat="45.79873756660119" lon="11.020969739748296"><ele>147.0</ele><time>2026-04-12T15:13:12.999Z</time></trkpt><trkpt lat="45.79853642934795" lon="11.021085479664528"><ele>148.0</ele><time>2026-04-12T15:13:13.999Z</time></trkpt><trkpt lat="45.79832744501404" lon="11.02119080115357"><ele>149.0</ele><time>2026-04-12T15:13:14.999Z</time></trkpt><trkpt lat="45.79810655037847" lon="11.02127345071987"><ele>149.0</ele><time>2026-04-12T15:13:15.999Z</time></trkpt><trkpt lat="45.797889503318856" lon="11.0213883999466"><ele>149.0</ele><time>2026-04-12T15:13:16.999Z</time></trkpt><trkpt lat="45.797663855928946" lon="11.021469336694521"><ele>149.0</ele><time>2026-04-12T15:13:17.999Z</time></trkpt><trkpt lat="45.79744003468051" lon="11.021549779711059"><ele>149.0</ele><time>2026-04-12T15:13:18.999Z</time></trkpt><trkpt lat="45.79721027918308" lon="11.021638744003756"><ele>149.0</ele><time>2026-04-12T15:13:19.999Z</time></trkpt><trkpt lat="45.79698468030596" lon="11.02172103055429"><ele>149.0</ele><time>2026-04-12T15:13:20.999Z</time></trkpt><trkpt lat="45.796761691710195" lon="11.021810564679052"><ele>149.5</ele><time>2026-04-12T15:13:21.999Z</time></trkpt><trkpt lat="45.79653269797878" lon="11.02187172922725"><ele>150.0</ele><time>2026-04-12T15:13:22.999Z</time></trkpt><trkpt lat="45.79630093171721" lon="11.02189982466706"><ele>150.0</ele><time>2026-04-12T15:13:23.999Z</time></trkpt><trkpt lat="45.796051105558604" lon="11.02190635522018"><ele>150.0</ele><time>2026-04-12T15:13:24.999Z</time></trkpt><trkpt lat="45.795783581932646" lon="11.021899739210339"><ele>149.0</ele><time>2026-04-12T15:13:25.999Z</time></trkpt><trkpt lat="45.795539938617644" lon="11.021890014598133"><ele>148.0</ele><time>2026-04-12T15:13:26.999Z</time></trkpt><trkpt lat="45.79531757701286" lon="11.021887649529788"><ele>148.66666666666669</ele><time>2026-04-12T15:13:27.999Z</time></trkpt><trkpt lat="45.79510637457572" lon="11.021887789514992"><ele>149.33333333333334</ele><time>2026-04-12T15:13:28.999Z</time></trkpt><trkpt lat="45.79489082343348" lon="11.021882289977963"><ele>150.0</ele><time>2026-04-12T15:13:29.999Z</time></trkpt><trkpt lat="45.794671586103426" lon="11.02187394640351"><ele>150.0</ele><time>2026-04-12T15:13:30.999Z</time></trkpt><trkpt lat="45.794444171659435" lon="11.021834252083961"><ele>150.0</ele><time>2026-04-12T15:13:31.999Z</time></trkpt><trkpt lat="45.7942256159203" lon="11.021789880729521"><ele>149.66666666666666</ele><time>2026-04-12T15:13:32.999Z</time></trkpt><trkpt lat="45.79402174356065" lon="11.021745956016538"><ele>149.33333333333331</ele><time>2026-04-12T15:13:33.999Z</time></trkpt><trkpt lat="45.79381656734702" lon="11.021695278359543"><ele>149.0</ele><time>2026-04-12T15:13:34.999Z</time></trkpt><trkpt lat="45.79361614693802" lon="11.02164939211075"><ele>148.33333333333331</ele><time>2026-04-12T15:13:35.999Z</time></trkpt><trkpt lat="45.793435380764535" lon="11.021614962600646"><ele>147.66666666666666</ele><time>2026-04-12T15:13:36.999Z</time></trkpt><trkpt lat="45.79326487044894" lon="11.02157267343277"><ele>147.0</ele><time>2026-04-12T15:13:37.999Z</time></trkpt><trkpt lat="45.79310672457966" lon="11.021532516920074"><ele>147.0</ele><time>2026-04-12T15:13:38.999Z</time></trkpt><trkpt lat="45.79294761142791" lon="11.021495743040765"><ele>147.0</ele><time>2026-04-12T15:13:39.999Z</time></trkpt><trkpt lat="45.79278307208656" lon="11.021456551443633"><ele>147.0</ele><time>2026-04-12T15:13:40.999Z</time></trkpt><trkpt lat="45.792615118379885" lon="11.021420085096956"><ele>148.0</ele><time>2026-04-12T15:13:41.999Z</time></trkpt><trkpt lat="45.79244278956096" lon="11.02138020002253"><ele>149.0</ele><time>2026-04-12T15:13:42.999Z</time></trkpt><trkpt lat="45.79227512073559" lon="11.02133945259207"><ele>150.0</ele><time>2026-04-12T15:13:43.999Z</time></trkpt><trkpt lat="45.79210779201493" lon="11.021307511591868"><ele>150.0</ele><time>2026-04-12T15:13:44.999Z</time></trkpt><trkpt lat="45.7919348744114" lon="11.021265949077831"><ele>150.0</ele><time>2026-04-12T15:13:45.999Z</time></trkpt><trkpt lat="45.79177047280765" lon="11.021228531831186"><ele>150.0</ele><time>2026-04-12T15:13:46.999Z</time></trkpt><trkpt lat="45.7916136901339" lon="11.021191289001338"><ele>150.5</ele><time>2026-04-12T15:13:47.999Z</time></trkpt><trkpt lat="45.79146760173019" lon="11.021158686997392"><ele>151.0</ele><time>2026-04-12T15:13:48.999Z</time></trkpt><trkpt lat="45.79132617531825" lon="11.021126813199775"><ele>151.5</ele><time>2026-04-12T15:13:49.999Z</time></trkpt><trkpt lat="45.79118738702502" lon="11.021087418952701"><ele>152.0</ele><time>2026-04-12T15:13:50.999Z</time></trkpt><trkpt lat="45.79104673752798" lon="11.021060415080795"><ele>152.66666666666666</ele><time>2026-04-12T15:13:51.999Z</time></trkpt><trkpt lat="45.79090003471067" lon="11.021035048519476"><ele>153.33333333333334</ele><time>2026-04-12T15:13:52.999Z</time></trkpt><trkpt lat="45.79074237179486" lon="11.021003479644136"><ele>154.0</ele><time>2026-04-12T15:13:53.999Z</time></trkpt><trkpt lat="45.7905773869859" lon="11.020996068489312"><ele>154.0</ele><time>2026-04-12T15:13:54.999Z</time></trkpt><trkpt lat="45.79041215360933" lon="11.020994172656923"><ele>154.0</ele><time>2026-04-12T15:13:55.999Z</time></trkpt><trkpt lat="45.79024338977527" lon="11.021012613281048"><ele>154.0</ele><time>2026-04-12T15:13:56.999Z</time></trkpt><trkpt lat="45.79005923860585" lon="11.021051292841232"><ele>153.33333333333334</ele><time>2026-04-12T15:13:57.999Z</time></trkpt><trkpt lat="45.78985414618931" lon="11.021100377479883"><ele>152.66666666666666</ele><time>2026-04-12T15:13:58.999Z</time></trkpt><trkpt lat="45.78964316484708" lon="11.021165203605124"><ele>152.0</ele><time>2026-04-12T15:13:59.999Z</time></trkpt><trkpt lat="45.78944556179186" lon="11.021203370446235"><ele>151.66666666666666</ele><time>2026-04-12T15:14:00.999Z</time></trkpt><trkpt lat="45.7892747154846" lon="11.021224692543381"><ele>151.33333333333334</ele><time>2026-04-12T15:14:01.999Z</time></trkpt><trkpt lat="45.78909790152326" lon="11.021259034902677"><ele>151.0</ele><time>2026-04-12T15:14:02.999Z</time></trkpt><trkpt lat="45.78892726856581" lon="11.02129316780668"><ele>151.0</ele><time>2026-04-12T15:14:03.999Z</time></trkpt><trkpt lat="45.788764451021656" lon="11.021324754551436"><ele>151.0</ele><time>2026-04-12T15:14:04.998Z</time></trkpt><trkpt lat="45.78860493137658" lon="11.021335541225113"><ele>151.0</ele><time>2026-04-12T15:14:05.998Z</time></trkpt><trkpt lat="45.78844698028904" lon="11.021318116068862"><ele>151.33333333333334</ele><time>2026-04-12T15:14:06.998Z</time></trkpt><trkpt lat="45.788281579351924" lon="11.021286147392408"><ele>151.66666666666666</ele><time>2026-04-12T15:14:07.998Z</time></trkpt><trkpt lat="45.7881179315625" lon="11.021231211395667"><ele>152.0</ele><time>2026-04-12T15:14:08.998Z</time></trkpt><trkpt lat="45.78795583063548" lon="11.021154337914522"><ele>152.0</ele><time>2026-04-12T15:14:09.998Z</time></trkpt><trkpt lat="45.78777416462268" lon="11.02102867052284"><ele>152.0</ele><time>2026-04-12T15:14:10.998Z</time></trkpt><trkpt lat="45.78757805064263" lon="11.020857280184511"><ele>152.0</ele><time>2026-04-12T15:14:11.998Z</time></trkpt><trkpt lat="45.787357678065526" lon="11.020659130174296"><ele>152.0</ele><time>2026-04-12T15:14:12.998Z</time></trkpt><trkpt lat="45.787124841935544" lon="11.020417124374191"><ele>152.0</ele><time>2026-04-12T15:14:13.998Z</time></trkpt><trkpt lat="45.78687360835363" lon="11.020145193981852"><ele>151.5</ele><time>2026-04-12T15:14:14.998Z</time></trkpt><trkpt lat="45.786640744067064" lon="11.019878341781588"><ele>151.0</ele><time>2026-04-12T15:14:15.998Z</time></trkpt><trkpt lat="45.78640291356187" lon="11.01963316131199"><ele>151.0</ele><time>2026-04-12T15:14:16.998Z</time></trkpt><trkpt lat="45.78616813465098" lon="11.019396650255938"><ele>151.0</ele><time>2026-04-12T15:14:17.998Z</time></trkpt><trkpt lat="45.7859454362239" lon="11.019171587116505"><ele>151.0</ele><time>2026-04-12T15:14:18.998Z</time></trkpt><trkpt lat="45.78572327612899" lon="11.018970408549318"><ele>151.0</ele><time>2026-04-12T15:14:19.998Z</time></trkpt><trkpt lat="45.78549477514754" lon="11.018787539996392"><ele>151.0</ele><time>2026-04-12T15:14:20.998Z</time></trkpt><trkpt lat="45.78525496815262" lon="11.018646387046562"><ele>151.0</ele><time>2026-04-12T15:14:21.998Z</time></trkpt><trkpt lat="45.785017059834104" lon="11.01850738461859"><ele>151.5</ele><time>2026-04-12T15:14:22.998Z</time></trkpt><trkpt lat="45.78477429429418" lon="11.018373399110585"><ele>152.0</ele><time>2026-04-12T15:14:23.998Z</time></trkpt><trkpt lat="45.78454983975807" lon="11.01823575969791"><ele>151.0</ele><time>2026-04-12T15:14:24.998Z</time></trkpt><trkpt lat="45.784341932052584" lon="11.018086736966879"><ele>150.0</ele><time>2026-04-12T15:14:25.998Z</time></trkpt><trkpt lat="45.78413705190915" lon="11.017910724832412"><ele>150.0</ele><time>2026-04-12T15:14:26.998Z</time></trkpt><trkpt lat="45.783933726542706" lon="11.017715796707954"><ele>150.0</ele><time>2026-04-12T15:14:27.998Z</time></trkpt><trkpt lat="45.78373040271315" lon="11.017520388784273"><ele>150.5</ele><time>2026-04-12T15:14:28.998Z</time></trkpt><trkpt lat="45.78352626899595" lon="11.017338491111744"><ele>151.0</ele><time>2026-04-12T15:14:29.998Z</time></trkpt><trkpt lat="45.783318016225905" lon="11.017170345229825"><ele>151.0</ele><time>2026-04-12T15:14:30.998Z</time></trkpt><trkpt lat="45.783104336120545" lon="11.017018692114894"><ele>151.0</ele><time>2026-04-12T15:14:31.998Z</time></trkpt><trkpt lat="45.78289099352865" lon="11.01687248963777"><ele>151.0</ele><time>2026-04-12T15:14:33Z</time></trkpt><trkpt lat="45.78267694315938" lon="11.01671990587672"><ele>151.0</ele><time>2026-04-12T15:14:34Z</time></trkpt><trkpt lat="45.782459864081076" lon="11.016578525989614"><ele>150.0</ele><time>2026-04-12T15:14:35Z</time></trkpt><trkpt lat="45.78225610116008" lon="11.016458726062472"><ele>149.0</ele><time>2026-04-12T15:14:36Z</time></trkpt><trkpt lat="45.78207318409636" lon="11.016362169462562"><ele>148.0</ele><time>2026-04-12T15:14:37Z</time></trkpt><trkpt lat="45.78190822460322" lon="11.016294259146406"><ele>148.0</ele><time>2026-04-12T15:14:38Z</time></trkpt><trkpt lat="45.78175087992262" lon="11.01622764199708"><ele>148.0</ele><time>2026-04-12T15:14:39Z</time></trkpt><trkpt lat="45.78159685264295" lon="11.016133563286964"><ele>148.0</ele><time>2026-04-12T15:14:40Z</time></trkpt><trkpt lat="45.78143743788173" lon="11.016056311015982"><ele>148.0</ele><time>2026-04-12T15:14:41Z</time></trkpt><trkpt lat="45.781280758560705" lon="11.01598025668497"><ele>148.0</ele><time>2026-04-12T15:14:42Z</time></trkpt><trkpt lat="45.781119777713144" lon="11.015902954809574"><ele>148.0</ele><time>2026-04-12T15:14:43Z</time></trkpt><trkpt lat="45.78095291147413" lon="11.015822953126538"><ele>147.33333333333334</ele><time>2026-04-12T15:14:44Z</time></trkpt><trkpt lat="45.78077634231373" lon="11.015738779458196"><ele>146.66666666666666</ele><time>2026-04-12T15:14:45Z</time></trkpt><trkpt lat="45.78058471560688" lon="11.015667673841055"><ele>146.0</ele><time>2026-04-12T15:14:46Z</time></trkpt><trkpt lat="45.78038721331374" lon="11.01557578682679"><ele>146.0</ele><time>2026-04-12T15:14:47Z</time></trkpt><trkpt lat="45.780192034425845" lon="11.015480395817367"><ele>146.0</ele><time>2026-04-12T15:14:48Z</time></trkpt><trkpt lat="45.779997775595135" lon="11.015386584320124"><ele>146.0</ele><time>2026-04-12T15:14:49Z</time></trkpt><trkpt lat="45.7798114333557" lon="11.01527964478393"><ele>146.33333333333331</ele><time>2026-04-12T15:14:50Z</time></trkpt><trkpt lat="45.77961556083707" lon="11.015209140816234"><ele>146.66666666666666</ele><time>2026-04-12T15:14:51Z</time></trkpt><trkpt lat="45.779416020901984" lon="11.015114702755966"><ele>147.0</ele><time>2026-04-12T15:14:52Z</time></trkpt><trkpt lat="45.779225659736504" lon="11.015013791383266"><ele>146.33333333333334</ele><time>2026-04-12T15:14:53Z</time></trkpt><trkpt lat="45.779028686205436" lon="11.014922894621387"><ele>145.66666666666669</ele><time>2026-04-12T15:14:54Z</time></trkpt><trkpt lat="45.77883661111921" lon="11.014830842268454"><ele>145.0</ele><time>2026-04-12T15:14:55Z</time></trkpt><trkpt lat="45.77864111881353" lon="11.014731689959826"><ele>146.33333333333334</ele><time>2026-04-12T15:14:56Z</time></trkpt><trkpt lat="45.77844758791669" lon="11.014638681457091"><ele>147.66666666666666</ele><time>2026-04-12T15:14:57Z</time></trkpt><trkpt lat="45.77825486361928" lon="11.014548111975818"><ele>149.0</ele><time>2026-04-12T15:14:58Z</time></trkpt><trkpt lat="45.77806201223133" lon="11.014462700580143"><ele>149.0</ele><time>2026-04-12T15:14:59Z</time></trkpt><trkpt lat="45.77786450075142" lon="11.014379287490868"><ele>149.0</ele><time>2026-04-12T15:15:00Z</time></trkpt><trkpt lat="45.7776726496137" lon="11.014303730984638"><ele>149.0</ele><time>2026-04-12T15:15:01Z</time></trkpt><trkpt lat="45.77747618172187" lon="11.014226577658285"><ele>147.33333333333331</ele><time>2026-04-12T15:15:02Z</time></trkpt><trkpt lat="45.77727693906198" lon="11.01415089329419"><ele>145.66666666666666</ele><time>2026-04-12T15:15:03Z</time></trkpt><trkpt lat="45.777081408783374" lon="11.0140705333646"><ele>144.0</ele><time>2026-04-12T15:15:04Z</time></trkpt><trkpt lat="45.7768836912709" lon="11.013986889004673"><ele>144.33333333333334</ele><time>2026-04-12T15:15:05Z</time></trkpt><trkpt lat="45.77668048111801" lon="11.013909966192267"><ele>144.66666666666669</ele><time>2026-04-12T15:15:06Z</time></trkpt><trkpt lat="45.77645939064021" lon="11.013968959552976"><ele>145.0</ele><time>2026-04-12T15:15:07Z</time></trkpt><trkpt lat="45.77624993157629" lon="11.013923045073856"><ele>145.0</ele><time>2026-04-12T15:15:08Z</time></trkpt><trkpt lat="45.77603849988969" lon="11.013876698185664"><ele>145.0</ele><time>2026-04-12T15:15:09Z</time></trkpt><trkpt lat="45.775828249283514" lon="11.013817793556235"><ele>145.0</ele><time>2026-04-12T15:15:10Z</time></trkpt><trkpt lat="45.775642702731346" lon="11.0134987990308"><ele>145.0</ele><time>2026-04-12T15:15:11Z</time></trkpt><trkpt lat="45.77543047986212" lon="11.013415431899894"><ele>145.0</ele><time>2026-04-12T15:15:12Z</time></trkpt><trkpt lat="45.77521806200895" lon="11.013330496299139"><ele>145.0</ele><time>2026-04-12T15:15:13Z</time></trkpt><trkpt lat="45.77500712907983" lon="11.013242498658288"><ele>145.0</ele><time>2026-04-12T15:15:14Z</time></trkpt><trkpt lat="45.77479350896544" lon="11.013158152064396"><ele>145.0</ele><time>2026-04-12T15:15:15Z</time></trkpt><trkpt lat="45.77458016758345" lon="11.013073119552404"><ele>145.0</ele><time>2026-04-12T15:15:15.999Z</time></trkpt><trkpt lat="45.774359579460366" lon="11.012983397812635"><ele>146.0</ele><time>2026-04-12T15:15:16.999Z</time></trkpt><trkpt lat="45.77414164050505" lon="11.012893301899421"><ele>147.0</ele><time>2026-04-12T15:15:17.999Z</time></trkpt><trkpt lat="45.77392463406917" lon="11.012805384213852"><ele>147.0</ele><time>2026-04-12T15:15:18.999Z</time></trkpt><trkpt lat="45.77370792726692" lon="11.012716216293882"><ele>147.0</ele><time>2026-04-12T15:15:19.999Z</time></trkpt><trkpt lat="45.773493560813215" lon="11.012623185979017"><ele>147.0</ele><time>2026-04-12T15:15:20.999Z</time></trkpt><trkpt lat="45.77328560091965" lon="11.012535631515876"><ele>145.66666666666666</ele><time>2026-04-12T15:15:21.999Z</time></trkpt><trkpt lat="45.77308262443761" lon="11.012450346792093"><ele>144.33333333333331</ele><time>2026-04-12T15:15:22.999Z</time></trkpt><trkpt lat="45.772880289890566" lon="11.012371887920697"><ele>143.0</ele><time>2026-04-12T15:15:23.999Z</time></trkpt><trkpt lat="45.77268413877304" lon="11.012293977992213"><ele>143.0</ele><time>2026-04-12T15:15:24.999Z</time></trkpt><trkpt lat="45.772493609392114" lon="11.012205552914466"><ele>143.0</ele><time>2026-04-12T15:15:25.999Z</time></trkpt><trkpt lat="45.77230119583951" lon="11.012101762891385"><ele>143.0</ele><time>2026-04-12T15:15:26.999Z</time></trkpt><trkpt lat="45.772111955478806" lon="11.0119871691464"><ele>143.0</ele><time>2026-04-12T15:15:27.999Z</time></trkpt><trkpt lat="45.77191662039324" lon="11.011845068496536"><ele>143.0</ele><time>2026-04-12T15:15:28.999Z</time></trkpt><trkpt lat="45.77172122925099" lon="11.011710831655206"><ele>143.0</ele><time>2026-04-12T15:15:29.999Z</time></trkpt><trkpt lat="45.771524668822046" lon="11.01156226654806"><ele>142.66666666666666</ele><time>2026-04-12T15:15:30.999Z</time></trkpt><trkpt lat="45.7713265156523" lon="11.01141044630803"><ele>142.33333333333334</ele><time>2026-04-12T15:15:31.999Z</time></trkpt><trkpt lat="45.77113627719602" lon="11.011261620460651"><ele>142.0</ele><time>2026-04-12T15:15:32.999Z</time></trkpt><trkpt lat="45.77094360493222" lon="11.011116801662535"><ele>141.0</ele><time>2026-04-12T15:15:33.999Z</time></trkpt><trkpt lat="45.77076322317249" lon="11.01098206596222"><ele>140.0</ele><time>2026-04-12T15:15:34.999Z</time></trkpt><trkpt lat="45.77058793330277" lon="11.010852580580947"><ele>139.0</ele><time>2026-04-12T15:15:35.999Z</time></trkpt><trkpt lat="45.77042071951775" lon="11.010736034836732"><ele>139.0</ele><time>2026-04-12T15:15:36.999Z</time></trkpt><trkpt lat="45.77025550282272" lon="11.010612481522749"><ele>139.0</ele><time>2026-04-12T15:15:37.999Z</time></trkpt><trkpt lat="45.77008499898893" lon="11.010478957638869"><ele>139.0</ele><time>2026-04-12T15:15:38.999Z</time></trkpt><trkpt lat="45.76991506666156" lon="11.010350092963236"><ele>140.0</ele><time>2026-04-12T15:15:39.999Z</time></trkpt><trkpt lat="45.76974903507728" lon="11.01021093462422"><ele>141.0</ele><time>2026-04-12T15:15:40.999Z</time></trkpt><trkpt lat="45.769588459163664" lon="11.010078243435792"><ele>142.0</ele><time>2026-04-12T15:15:41.999Z</time></trkpt><trkpt lat="45.7694417900571" lon="11.009949413817436"><ele>143.66666666666669</ele><time>2026-04-12T15:15:42.999Z</time></trkpt><trkpt lat="45.76930699449031" lon="11.009823635030767"><ele>145.33333333333334</ele><time>2026-04-12T15:15:43.999Z</time></trkpt><trkpt lat="45.769180572421064" lon="11.009707438135582"><ele>147.0</ele><time>2026-04-12T15:15:44.999Z</time></trkpt><trkpt lat="45.769060778850054" lon="11.009598453303571"><ele>147.0</ele><time>2026-04-12T15:15:45.999Z</time></trkpt><trkpt lat="45.76895139491997" lon="11.009491850208132"><ele>147.0</ele><time>2026-04-12T15:15:46.999Z</time></trkpt><trkpt lat="45.768862755611316" lon="11.00940591427733"><ele>147.0</ele><time>2026-04-12T15:15:47.999Z</time></trkpt><trkpt lat="45.768786607559925" lon="11.009325016071058"><ele>147.0</ele><time>2026-04-12T15:15:48.999Z</time></trkpt><trkpt lat="45.768723789113395" lon="11.009243677010266"><ele>147.0</ele><time>2026-04-12T15:15:49.999Z</time></trkpt><trkpt lat="45.76867871749019" lon="11.009139189006346"><ele>146.5</ele><time>2026-04-12T15:15:50.999Z</time></trkpt><trkpt lat="45.76863544162178" lon="11.009023597390962"><ele>146.0</ele><time>2026-04-12T15:15:51.999Z</time></trkpt><trkpt lat="45.76855587717241" lon="11.008933395944494"><ele>145.5</ele><time>2026-04-12T15:15:52.999Z</time></trkpt><trkpt lat="45.76843993758648" lon="11.008886263953444"><ele>145.0</ele><time>2026-04-12T15:15:53.999Z</time></trkpt><trkpt lat="45.76828957186229" lon="11.008843104824697"><ele>146.33333333333334</ele><time>2026-04-12T15:15:54.999Z</time></trkpt><trkpt lat="45.76814495878217" lon="11.008732460952029"><ele>147.66666666666666</ele><time>2026-04-12T15:15:55.999Z</time></trkpt><trkpt lat="45.767991630617445" lon="11.00854948088391"><ele>149.0</ele><time>2026-04-12T15:15:56.999Z</time></trkpt><trkpt lat="45.7678112659151" lon="11.0083369377603"><ele>148.5</ele><time>2026-04-12T15:15:57.999Z</time></trkpt><trkpt lat="45.76762550147255" lon="11.008144437119853"><ele>148.0</ele><time>2026-04-12T15:15:58.999Z</time></trkpt><trkpt lat="45.76744081135228" lon="11.007959808452458"><ele>148.0</ele><time>2026-04-12T15:15:59.999Z</time></trkpt><trkpt lat="45.76728977295439" lon="11.007815543530423"><ele>148.0</ele><time>2026-04-12T15:16:00.999Z</time></trkpt><trkpt lat="45.767137256805896" lon="11.007679247826376"><ele>148.0</ele><time>2026-04-12T15:16:01.999Z</time></trkpt><trkpt lat="45.76697292216609" lon="11.007579726088535"><ele>149.0</ele><time>2026-04-12T15:16:02.999Z</time></trkpt><trkpt lat="45.76679692354967" lon="11.007508275665641"><ele>150.0</ele><time>2026-04-12T15:16:03.999Z</time></trkpt><trkpt lat="45.76661923674302" lon="11.0074599275526"><ele>151.0</ele><time>2026-04-12T15:16:04.999Z</time></trkpt><trkpt lat="45.766449500276714" lon="11.007422869533224"><ele>151.0</ele><time>2026-04-12T15:16:05.999Z</time></trkpt><trkpt lat="45.76628597250191" lon="11.00739024904832"><ele>151.0</ele><time>2026-04-12T15:16:06.999Z</time></trkpt><trkpt lat="45.7661141780121" lon="11.007351302786745"><ele>151.0</ele><time>2026-04-12T15:16:07.999Z</time></trkpt><trkpt lat="45.76593346885411" lon="11.007302205921377"><ele>152.66666666666669</ele><time>2026-04-12T15:16:08.999Z</time></trkpt><trkpt lat="45.76574925742532" lon="11.007251415827746"><ele>154.33333333333334</ele><time>2026-04-12T15:16:09.999Z</time></trkpt><trkpt lat="45.7655685579809" lon="11.007198199899834"><ele>156.0</ele><time>2026-04-12T15:16:10.999Z</time></trkpt><trkpt lat="45.76538677021976" lon="11.007149658894662"><ele>156.0</ele><time>2026-04-12T15:16:11.999Z</time></trkpt><trkpt lat="45.765211014139595" lon="11.007102653185862"><ele>156.0</ele><time>2026-04-12T15:16:12.998Z</time></trkpt><trkpt lat="45.76505155431554" lon="11.007050555507163"><ele>156.0</ele><time>2026-04-12T15:16:13.998Z</time></trkpt><trkpt lat="45.764898000411364" lon="11.007005755883393"><ele>158.66666666666666</ele><time>2026-04-12T15:16:14.998Z</time></trkpt><trkpt lat="45.7647378848508" lon="11.006953611325308"><ele>161.33333333333331</ele><time>2026-04-12T15:16:15.998Z</time></trkpt><trkpt lat="45.76457119364669" lon="11.006877165248136"><ele>164.0</ele><time>2026-04-12T15:16:16.998Z</time></trkpt><trkpt lat="45.76439796166263" lon="11.006785984508866"><ele>164.66666666666666</ele><time>2026-04-12T15:16:17.998Z</time></trkpt><trkpt lat="45.764229731534655" lon="11.006682100041994"><ele>165.33333333333334</ele><time>2026-04-12T15:16:18.998Z</time></trkpt><trkpt lat="45.76407837655286" lon="11.006558146287917"><ele>166.0</ele><time>2026-04-12T15:16:19.998Z</time></trkpt><trkpt lat="45.763941653888594" lon="11.006423671298462"><ele>166.0</ele><time>2026-04-12T15:16:20.998Z</time></trkpt><trkpt lat="45.76380624187435" lon="11.006292801451051"><ele>166.0</ele><time>2026-04-12T15:16:21.998Z</time></trkpt><trkpt lat="45.76367342721928" lon="11.006161527759089"><ele>166.0</ele><time>2026-04-12T15:16:22.998Z</time></trkpt><trkpt lat="45.76353726623821" lon="11.006023615408425"><ele>166.75</ele><time>2026-04-12T15:16:23.998Z</time></trkpt><trkpt lat="45.76339961861303" lon="11.005898561924939"><ele>167.5</ele><time>2026-04-12T15:16:24.998Z</time></trkpt><trkpt lat="45.76328211448294" lon="11.005791099988475"><ele>168.25</ele><time>2026-04-12T15:16:25.998Z</time></trkpt><trkpt lat="45.763170385231604" lon="11.005689015722009"><ele>169.0</ele><time>2026-04-12T15:16:26.998Z</time></trkpt><trkpt lat="45.763074304433054" lon="11.005594911706245"><ele>169.0</ele><time>2026-04-12T15:16:27.998Z</time></trkpt><trkpt lat="45.76297713380667" lon="11.005500543983278"><ele>169.0</ele><time>2026-04-12T15:16:28.998Z</time></trkpt><trkpt lat="45.76290351035209" lon="11.005427122233407"><ele>169.0</ele><time>2026-04-12T15:16:29.998Z</time></trkpt><trkpt lat="45.76284283754077" lon="11.005355821847044"><ele>169.0</ele><time>2026-04-12T15:16:30.998Z</time></trkpt><trkpt lat="45.76279207855555" lon="11.00526725619146"><ele>169.0</ele><time>2026-04-12T15:16:31.998Z</time></trkpt><trkpt lat="45.76275047311885" lon="11.005155600615788"><ele>169.39999999999998</ele><time>2026-04-12T15:16:32.998Z</time></trkpt><trkpt lat="45.76269561837692" lon="11.005056770114777"><ele>169.8</ele><time>2026-04-12T15:16:33.998Z</time></trkpt><trkpt lat="45.76261439194152" lon="11.004993690437741"><ele>170.2</ele><time>2026-04-12T15:16:34.998Z</time></trkpt><trkpt lat="45.76250778872611" lon="11.004967114379703"><ele>170.60000000000002</ele><time>2026-04-12T15:16:35.998Z</time></trkpt><trkpt lat="45.76239317021235" lon="11.004927226373562"><ele>171.0</ele><time>2026-04-12T15:16:36.998Z</time></trkpt><trkpt lat="45.76227426442454" lon="11.004826218361515"><ele>171.0</ele><time>2026-04-12T15:16:37.998Z</time></trkpt><trkpt lat="45.76214926224074" lon="11.004698710718625"><ele>171.0</ele><time>2026-04-12T15:16:39Z</time></trkpt><trkpt lat="45.762016601902495" lon="11.004558338674416"><ele>171.0</ele><time>2026-04-12T15:16:40Z</time></trkpt><trkpt lat="45.7618767240278" lon="11.004424525345991"><ele>171.33333333333334</ele><time>2026-04-12T15:16:41Z</time></trkpt><trkpt lat="45.76174024223841" lon="11.004293734338237"><ele>171.66666666666669</ele><time>2026-04-12T15:16:42Z</time></trkpt><trkpt lat="45.761617889394785" lon="11.00417121504656"><ele>172.0</ele><time>2026-04-12T15:16:43Z</time></trkpt><trkpt lat="45.76150084145549" lon="11.004053509410793"><ele>171.25</ele><time>2026-04-12T15:16:44Z</time></trkpt><trkpt lat="45.76139191119602" lon="11.003943651196925"><ele>170.5</ele><time>2026-04-12T15:16:45Z</time></trkpt><trkpt lat="45.76127554579976" lon="11.003832747017402"><ele>169.75</ele><time>2026-04-12T15:16:46Z</time></trkpt><trkpt lat="45.76115352283282" lon="11.003717935180449"><ele>169.0</ele><time>2026-04-12T15:16:47Z</time></trkpt><trkpt lat="45.76102239294954" lon="11.003594418457999"><ele>167.66666666666669</ele><time>2026-04-12T15:16:48Z</time></trkpt><trkpt lat="45.76089839008079" lon="11.003448195148518"><ele>166.33333333333334</ele><time>2026-04-12T15:16:49Z</time></trkpt><trkpt lat="45.76076579301422" lon="11.003332693496926"><ele>165.0</ele><time>2026-04-12T15:16:50Z</time></trkpt><trkpt lat="45.76062929265438" lon="11.003201025543296"><ele>163.0</ele><time>2026-04-12T15:16:51Z</time></trkpt><trkpt lat="45.76049159318773" lon="11.003062033458061"><ele>161.0</ele><time>2026-04-12T15:16:52Z</time></trkpt><trkpt lat="45.76035608582783" lon="11.002934496887134"><ele>159.0</ele><time>2026-04-12T15:16:53Z</time></trkpt><trkpt lat="45.76022458164926" lon="11.002805376202371"><ele>158.33333333333334</ele><time>2026-04-12T15:16:54Z</time></trkpt><trkpt lat="45.76008979684597" lon="11.002675537441586"><ele>157.66666666666669</ele><time>2026-04-12T15:16:55Z</time></trkpt><trkpt lat="45.759961536967396" lon="11.002556498495297"><ele>157.0</ele><time>2026-04-12T15:16:56Z</time></trkpt><trkpt lat="45.759843641597826" lon="11.002441757718431"><ele>156.25</ele><time>2026-04-12T15:16:57Z</time></trkpt><trkpt lat="45.75973387946834" lon="11.00234182436048"><ele>155.5</ele><time>2026-04-12T15:16:58Z</time></trkpt><trkpt lat="45.75963495325808" lon="11.002239136971626"><ele>154.75</ele><time>2026-04-12T15:16:59Z</time></trkpt><trkpt lat="45.759537634510664" lon="11.00214620194749"><ele>154.0</ele><time>2026-04-12T15:17:00Z</time></trkpt><trkpt lat="45.75943381265553" lon="11.00205015432226"><ele>156.25</ele><time>2026-04-12T15:17:01Z</time></trkpt><trkpt lat="45.75932422186172" lon="11.001942821054536"><ele>158.5</ele><time>2026-04-12T15:17:02Z</time></trkpt><trkpt lat="45.75920631938629" lon="11.001831982819533"><ele>160.75</ele><time>2026-04-12T15:17:03Z</time></trkpt><trkpt lat="45.75908417602679" lon="11.001713517740217"><ele>163.0</ele><time>2026-04-12T15:17:04Z</time></trkpt><trkpt lat="45.75895840883445" lon="11.00158878886708"><ele>163.0</ele><time>2026-04-12T15:17:05Z</time></trkpt><trkpt lat="45.75883736739423" lon="11.001457029000738"><ele>163.0</ele><time>2026-04-12T15:17:06Z</time></trkpt><trkpt lat="45.75871136217112" lon="11.001316350139703"><ele>163.0</ele><time>2026-04-12T15:17:07Z</time></trkpt><trkpt lat="45.75858821880551" lon="11.00117023130882"><ele>163.0</ele><time>2026-04-12T15:17:08Z</time></trkpt><trkpt lat="45.75846318453622" lon="11.001020995640749"><ele>163.0</ele><time>2026-04-12T15:17:09Z</time></trkpt><trkpt lat="45.758338292950064" lon="11.000884060910346"><ele>163.0</ele><time>2026-04-12T15:17:10Z</time></trkpt><trkpt lat="45.75823271154911" lon="11.00075528485438"><ele>163.0</ele><time>2026-04-12T15:17:11Z</time></trkpt><trkpt lat="45.75813262225466" lon="11.000635119896378"><ele>163.0</ele><time>2026-04-12T15:17:12Z</time></trkpt><trkpt lat="45.75803129020362" lon="11.000516436495937"><ele>163.0</ele><time>2026-04-12T15:17:13Z</time></trkpt><trkpt lat="45.757927418054095" lon="11.000393338682148"><ele>163.0</ele><time>2026-04-12T15:17:14Z</time></trkpt><trkpt lat="45.75782088729636" lon="11.00027332441892"><ele>163.0</ele><time>2026-04-12T15:17:15Z</time></trkpt><trkpt lat="45.757709710413984" lon="11.000140958328894"><ele>163.0</ele><time>2026-04-12T15:17:16Z</time></trkpt><trkpt lat="45.757596070502174" lon="11.000006831796394"><ele>163.0</ele><time>2026-04-12T15:17:17Z</time></trkpt><trkpt lat="45.757486603088836" lon="10.999881409853524"><ele>163.0</ele><time>2026-04-12T15:17:18Z</time></trkpt><trkpt lat="45.75737931021202" lon="10.999755766839922"><ele>164.0</ele><time>2026-04-12T15:17:19Z</time></trkpt><trkpt lat="45.757274626807245" lon="10.999625464729414"><ele>165.0</ele><time>2026-04-12T15:17:20Z</time></trkpt><trkpt lat="45.757165016921" lon="10.999502483109797"><ele>166.0</ele><time>2026-04-12T15:17:20.999Z</time></trkpt><trkpt lat="45.75704829058166" lon="10.999379726988572"><ele>167.0</ele><time>2026-04-12T15:17:21.999Z</time></trkpt><trkpt lat="45.75692320425724" lon="10.9992639386649"><ele>166.25</ele><time>2026-04-12T15:17:22.999Z</time></trkpt><trkpt lat="45.756806865863666" lon="10.999135899009866"><ele>165.5</ele><time>2026-04-12T15:17:23.999Z</time></trkpt><trkpt lat="45.7566766011783" lon="10.999063525533085"><ele>164.75</ele><time>2026-04-12T15:17:24.999Z</time></trkpt><trkpt lat="45.75655356992898" lon="10.998974716841897"><ele>164.0</ele><time>2026-04-12T15:17:25.999Z</time></trkpt><trkpt lat="45.75642799574243" lon="10.998888210456467"><ele>164.0</ele><time>2026-04-12T15:17:26.999Z</time></trkpt><trkpt lat="45.756292491794184" lon="10.998799946162526"><ele>164.0</ele><time>2026-04-12T15:17:27.999Z</time></trkpt><trkpt lat="45.756159605275606" lon="10.998710088689348"><ele>164.0</ele><time>2026-04-12T15:17:28.999Z</time></trkpt><trkpt lat="45.75602665601291" lon="10.99862027059904"><ele>164.0</ele><time>2026-04-12T15:17:29.999Z</time></trkpt><trkpt lat="45.75588759094211" lon="10.99852563810943"><ele>163.33333333333331</ele><time>2026-04-12T15:17:30.999Z</time></trkpt><trkpt lat="45.755749263818025" lon="10.998432014503612"><ele>162.66666666666666</ele><time>2026-04-12T15:17:31.999Z</time></trkpt><trkpt lat="45.755610542047" lon="10.998340229668845"><ele>162.0</ele><time>2026-04-12T15:17:32.999Z</time></trkpt><trkpt lat="45.755463249033276" lon="10.998241252302876"><ele>161.0</ele><time>2026-04-12T15:17:33.999Z</time></trkpt><trkpt lat="45.75531026960834" lon="10.99813967246129"><ele>160.0</ele><time>2026-04-12T15:17:34.999Z</time></trkpt><trkpt lat="45.75515614065389" lon="10.99803910621476"><ele>159.0</ele><time>2026-04-12T15:17:35.999Z</time></trkpt><trkpt lat="45.754998538500836" lon="10.997933220445514"><ele>158.33333333333334</ele><time>2026-04-12T15:17:36.999Z</time></trkpt><trkpt lat="45.754841174374555" lon="10.997828193948633"><ele>157.66666666666669</ele><time>2026-04-12T15:17:37.999Z</time></trkpt><trkpt lat="45.75468511172176" lon="10.997724595770856"><ele>157.0</ele><time>2026-04-12T15:17:38.999Z</time></trkpt><trkpt lat="45.75453110392556" lon="10.997622701138337"><ele>157.0</ele><time>2026-04-12T15:17:39.999Z</time></trkpt><trkpt lat="45.7543745076687" lon="10.997514783557707"><ele>157.0</ele><time>2026-04-12T15:17:40.999Z</time></trkpt><trkpt lat="45.75421764114471" lon="10.997408047799489"><ele>157.0</ele><time>2026-04-12T15:17:41.999Z</time></trkpt><trkpt lat="45.7540625397419" lon="10.997306479340722"><ele>154.66666666666669</ele><time>2026-04-12T15:17:42.999Z</time></trkpt><trkpt lat="45.753909853455035" lon="10.99720083021031"><ele>152.33333333333334</ele><time>2026-04-12T15:17:43.999Z</time></trkpt><trkpt lat="45.75375996188969" lon="10.997098299346227"><ele>150.0</ele><time>2026-04-12T15:17:44.999Z</time></trkpt><trkpt lat="45.753610740912805" lon="10.996994096221119"><ele>149.33333333333334</ele><time>2026-04-12T15:17:45.999Z</time></trkpt><trkpt lat="45.753462083748545" lon="10.99688789558735"><ele>148.66666666666669</ele><time>2026-04-12T15:17:46.999Z</time></trkpt><trkpt lat="45.75330569648451" lon="10.996773613399464"><ele>148.0</ele><time>2026-04-12T15:17:47.999Z</time></trkpt><trkpt lat="45.753143294125024" lon="10.996639318479819"><ele>148.0</ele><time>2026-04-12T15:17:48.999Z</time></trkpt><trkpt lat="45.75298591207075" lon="10.99648694884477"><ele>148.0</ele><time>2026-04-12T15:17:49.999Z</time></trkpt><trkpt lat="45.752822641114854" lon="10.996333505355938"><ele>148.0</ele><time>2026-04-12T15:17:50.999Z</time></trkpt><trkpt lat="45.75265821183998" lon="10.99617323459175"><ele>148.33333333333334</ele><time>2026-04-12T15:17:51.999Z</time></trkpt><trkpt lat="45.75248768003035" lon="10.99601183642498"><ele>148.66666666666666</ele><time>2026-04-12T15:17:52.999Z</time></trkpt><trkpt lat="45.752317998575194" lon="10.99585585776071"><ele>149.0</ele><time>2026-04-12T15:17:53.999Z</time></trkpt><trkpt lat="45.75214592291522" lon="10.995698334608944"><ele>149.0</ele><time>2026-04-12T15:17:54.999Z</time></trkpt><trkpt lat="45.75196695165884" lon="10.995537946522019"><ele>149.0</ele><time>2026-04-12T15:17:55.999Z</time></trkpt><trkpt lat="45.751784249769244" lon="10.995375655221617"><ele>149.0</ele><time>2026-04-12T15:17:56.999Z</time></trkpt><trkpt lat="45.75159979458269" lon="10.995218278904133"><ele>149.0</ele><time>2026-04-12T15:17:57.999Z</time></trkpt><trkpt lat="45.75140589450772" lon="10.99505994665413"><ele>149.0</ele><time>2026-04-12T15:17:58.999Z</time></trkpt><trkpt lat="45.75121043269777" lon="10.994899039192454"><ele>149.0</ele><time>2026-04-12T15:17:59.999Z</time></trkpt><trkpt lat="45.751025054339216" lon="10.994715700688879"><ele>148.33333333333331</ele><time>2026-04-12T15:18:00.999Z</time></trkpt><trkpt lat="45.750825685474126" lon="10.994571495343767"><ele>147.66666666666666</ele><time>2026-04-12T15:18:01.999Z</time></trkpt><trkpt lat="45.75063917569879" lon="10.994406453364919"><ele>147.0</ele><time>2026-04-12T15:18:02.999Z</time></trkpt><trkpt lat="45.75045517141459" lon="10.994232296240238"><ele>147.33333333333334</ele><time>2026-04-12T15:18:03.999Z</time></trkpt><trkpt lat="45.75027696370365" lon="10.994049008781726"><ele>147.66666666666669</ele><time>2026-04-12T15:18:04.999Z</time></trkpt><trkpt lat="45.75010450180243" lon="10.993845412650924"><ele>148.0</ele><time>2026-04-12T15:18:05.999Z</time></trkpt><trkpt lat="45.74994739682988" lon="10.993627664602997"><ele>148.0</ele><time>2026-04-12T15:18:06.999Z</time></trkpt><trkpt lat="45.74980040557421" lon="10.993411131823065"><ele>148.0</ele><time>2026-04-12T15:18:07.999Z</time></trkpt><trkpt lat="45.749659811984046" lon="10.993202137085666"><ele>148.0</ele><time>2026-04-12T15:18:08.999Z</time></trkpt><trkpt lat="45.74952903724088" lon="10.992999203303185"><ele>148.66666666666669</ele><time>2026-04-12T15:18:09.999Z</time></trkpt><trkpt lat="45.74941208708005" lon="10.992803402223219"><ele>149.33333333333334</ele><time>2026-04-12T15:18:10.999Z</time></trkpt><trkpt lat="45.74930757536781" lon="10.992607005410886"><ele>150.0</ele><time>2026-04-12T15:18:11.999Z</time></trkpt><trkpt lat="45.749222747200804" lon="10.99239162899688"><ele>147.33333333333334</ele><time>2026-04-12T15:18:12.999Z</time></trkpt><trkpt lat="45.74913838162959" lon="10.992159675978353"><ele>144.66666666666669</ele><time>2026-04-12T15:18:13.999Z</time></trkpt><trkpt lat="45.74905350214823" lon="10.991939080022396"><ele>142.0</ele><time>2026-04-12T15:18:14.999Z</time></trkpt><trkpt lat="45.748955596643306" lon="10.99172621745716"><ele>141.66666666666669</ele><time>2026-04-12T15:18:15.999Z</time></trkpt><trkpt lat="45.74884578777619" lon="10.991524534474328"><ele>141.33333333333334</ele><time>2026-04-12T15:18:16.998Z</time></trkpt><trkpt lat="45.74873764374847" lon="10.99134783386024"><ele>141.0</ele><time>2026-04-12T15:18:17.998Z</time></trkpt><trkpt lat="45.74863530294926" lon="10.991181833934181"><ele>141.0</ele><time>2026-04-12T15:18:18.998Z</time></trkpt><trkpt lat="45.74853404285093" lon="10.991035501192153"><ele>141.0</ele><time>2026-04-12T15:18:19.998Z</time></trkpt><trkpt lat="45.74841772296799" lon="10.990917986944801"><ele>141.0</ele><time>2026-04-12T15:18:20.998Z</time></trkpt><trkpt lat="45.74828960376587" lon="10.990829543448653"><ele>141.0</ele><time>2026-04-12T15:18:21.998Z</time></trkpt><trkpt lat="45.748156837161424" lon="10.990767942363801"><ele>141.0</ele><time>2026-04-12T15:18:22.998Z</time></trkpt><trkpt lat="45.74803030319052" lon="10.99070905134187"><ele>141.0</ele><time>2026-04-12T15:18:23.998Z</time></trkpt><trkpt lat="45.7479122101671" lon="10.990638093116887"><ele>141.0</ele><time>2026-04-12T15:18:24.998Z</time></trkpt><trkpt lat="45.74779626700775" lon="10.990550357148303"><ele>141.0</ele><time>2026-04-12T15:18:25.998Z</time></trkpt><trkpt lat="45.74769774567875" lon="10.990445979063336"><ele>141.5</ele><time>2026-04-12T15:18:26.998Z</time></trkpt><trkpt lat="45.74761297229641" lon="10.990332481614065"><ele>142.0</ele><time>2026-04-12T15:18:27.998Z</time></trkpt><trkpt lat="45.747531557152165" lon="10.990221236622666"><ele>142.5</ele><time>2026-04-12T15:18:28.998Z</time></trkpt><trkpt lat="45.74745263329237" lon="10.990086894787487"><ele>143.0</ele><time>2026-04-12T15:18:29.998Z</time></trkpt><trkpt lat="45.747373899579145" lon="10.989946626299588"><ele>143.0</ele><time>2026-04-12T15:18:30.998Z</time></trkpt><trkpt lat="45.74729292134268" lon="10.989798654039367"><ele>143.0</ele><time>2026-04-12T15:18:31.998Z</time></trkpt><trkpt lat="45.74721230023679" lon="10.989639288127673"><ele>143.0</ele><time>2026-04-12T15:18:32.998Z</time></trkpt><trkpt lat="45.74714495356836" lon="10.989464626020073"><ele>143.0</ele><time>2026-04-12T15:18:33.998Z</time></trkpt><trkpt lat="45.74708177708049" lon="10.989268798299753"><ele>142.0</ele><time>2026-04-12T15:18:34.998Z</time></trkpt><trkpt lat="45.74701746802126" lon="10.989071193222655"><ele>141.0</ele><time>2026-04-12T15:18:35.998Z</time></trkpt><trkpt lat="45.74695242368254" lon="10.98886967241694"><ele>140.0</ele><time>2026-04-12T15:18:36.998Z</time></trkpt><trkpt lat="45.74687247524251" lon="10.988668294911259"><ele>141.33333333333331</ele><time>2026-04-12T15:18:37.998Z</time></trkpt><trkpt lat="45.74678003365663" lon="10.988484033478613"><ele>142.66666666666666</ele><time>2026-04-12T15:18:38.998Z</time></trkpt><trkpt lat="45.7466748819306" lon="10.988319989720935"><ele>144.0</ele><time>2026-04-12T15:18:39.998Z</time></trkpt><trkpt lat="45.74655225969112" lon="10.98816995995284"><ele>144.0</ele><time>2026-04-12T15:18:40.998Z</time></trkpt><trkpt lat="45.74642305368649" lon="10.988038461997629"><ele>144.0</ele><time>2026-04-12T15:18:41.998Z</time></trkpt><trkpt lat="45.7462936206038" lon="10.98788524697364"><ele>144.0</ele><time>2026-04-12T15:18:42.998Z</time></trkpt><trkpt lat="45.74614313941277" lon="10.987766212432934"><ele>144.0</ele><time>2026-04-12T15:18:43.998Z</time></trkpt><trkpt lat="45.74599825113733" lon="10.987623661225264"><ele>144.0</ele><time>2026-04-12T15:18:45Z</time></trkpt><trkpt lat="45.745849195771164" lon="10.987479112206001"><ele>144.0</ele><time>2026-04-12T15:18:46Z</time></trkpt><trkpt lat="45.745711292057756" lon="10.987339778899848"><ele>144.0</ele><time>2026-04-12T15:18:47Z</time></trkpt><trkpt lat="45.74557241329699" lon="10.987200697741407"><ele>144.0</ele><time>2026-04-12T15:18:48Z</time></trkpt><trkpt lat="45.745435350177424" lon="10.987051494163703"><ele>144.0</ele><time>2026-04-12T15:18:49Z</time></trkpt><trkpt lat="45.74530395665166" lon="10.98688814976709"><ele>144.0</ele><time>2026-04-12T15:18:50Z</time></trkpt><trkpt lat="45.74517460467868" lon="10.986714710327808"><ele>144.0</ele><time>2026-04-12T15:18:51Z</time></trkpt><trkpt lat="45.7450522266959" lon="10.986528249409185"><ele>144.0</ele><time>2026-04-12T15:18:52Z</time></trkpt><trkpt lat="45.74493745898651" lon="10.986338976213263"><ele>144.0</ele><time>2026-04-12T15:18:53Z</time></trkpt><trkpt lat="45.744828861412934" lon="10.986159766606045"><ele>144.0</ele><time>2026-04-12T15:18:54Z</time></trkpt><trkpt lat="45.744724644971264" lon="10.98599134066949"><ele>144.0</ele><time>2026-04-12T15:18:55Z</time></trkpt><trkpt lat="45.74462433106919" lon="10.985835979313329"><ele>145.0</ele><time>2026-04-12T15:18:56Z</time></trkpt><trkpt lat="45.74452554451407" lon="10.985680931940289"><ele>146.0</ele><time>2026-04-12T15:18:57Z</time></trkpt><trkpt lat="45.74442661571008" lon="10.98552577632263"><ele>147.0</ele><time>2026-04-12T15:18:58Z</time></trkpt><trkpt lat="45.74432981164029" lon="10.98536880885105"><ele>148.0</ele><time>2026-04-12T15:18:59Z</time></trkpt><trkpt lat="45.74423802661341" lon="10.985203681640643"><ele>148.0</ele><time>2026-04-12T15:19:00Z</time></trkpt><trkpt lat="45.74415517957875" lon="10.985026099543312"><ele>148.0</ele><time>2026-04-12T15:19:01Z</time></trkpt><trkpt lat="45.74408652608415" lon="10.984833965949381"><ele>148.0</ele><time>2026-04-12T15:19:02Z</time></trkpt><trkpt lat="45.744034888515074" lon="10.984628742553237"><ele>147.0</ele><time>2026-04-12T15:19:03Z</time></trkpt><trkpt lat="45.74398936885101" lon="10.984414210131735"><ele>146.0</ele><time>2026-04-12T15:19:04Z</time></trkpt><trkpt lat="45.74394611509917" lon="10.984213100558954"><ele>145.0</ele><time>2026-04-12T15:19:05Z</time></trkpt><trkpt lat="45.74390240481025" lon="10.984013206065542"><ele>144.33333333333334</ele><time>2026-04-12T15:19:06Z</time></trkpt><trkpt lat="45.743858281409494" lon="10.983810436695856"><ele>143.66666666666666</ele><time>2026-04-12T15:19:07Z</time></trkpt><trkpt lat="45.743809416979296" lon="10.983597384459218"><ele>143.0</ele><time>2026-04-12T15:19:08Z</time></trkpt><trkpt lat="45.74375526479037" lon="10.983387023793604"><ele>141.33333333333331</ele><time>2026-04-12T15:19:09Z</time></trkpt><trkpt lat="45.74369738963981" lon="10.983174370984226"><ele>139.66666666666666</ele><time>2026-04-12T15:19:10Z</time></trkpt><trkpt lat="45.74363643936044" lon="10.98295666772323"><ele>138.0</ele><time>2026-04-12T15:19:11Z</time></trkpt><trkpt lat="45.743574478194375" lon="10.98273495110058"><ele>140.33333333333334</ele><time>2026-04-12T15:19:12Z</time></trkpt><trkpt lat="45.743504876220726" lon="10.982506106032938"><ele>142.66666666666669</ele><time>2026-04-12T15:19:13Z</time></trkpt><trkpt lat="45.74343182493526" lon="10.982278690552292"><ele>145.0</ele><time>2026-04-12T15:19:14Z</time></trkpt><trkpt lat="45.743352781756975" lon="10.982042509971189"><ele>145.0</ele><time>2026-04-12T15:19:15Z</time></trkpt><trkpt lat="45.74327328328167" lon="10.981806163294353"><ele>145.0</ele><time>2026-04-12T15:19:16Z</time></trkpt><trkpt lat="45.74319343593841" lon="10.981578875061642"><ele>145.0</ele><time>2026-04-12T15:19:17Z</time></trkpt><trkpt lat="45.74311644283678" lon="10.98136123632722"><ele>144.33333333333334</ele><time>2026-04-12T15:19:18Z</time></trkpt><trkpt lat="45.743037944502035" lon="10.98115981217405"><ele>143.66666666666666</ele><time>2026-04-12T15:19:19Z</time></trkpt><trkpt lat="45.74295325584966" lon="10.980960277527464"><ele>143.0</ele><time>2026-04-12T15:19:20Z</time></trkpt><trkpt lat="45.742856404063474" lon="10.980756982591897"><ele>142.33333333333331</ele><time>2026-04-12T15:19:21Z</time></trkpt><trkpt lat="45.74274998181501" lon="10.980552465247627"><ele>141.66666666666666</ele><time>2026-04-12T15:19:22Z</time></trkpt><trkpt lat="45.74264693541557" lon="10.980356239771591"><ele>141.0</ele><time>2026-04-12T15:19:23Z</time></trkpt><trkpt lat="45.74254126208098" lon="10.980181112118924"><ele>143.0</ele><time>2026-04-12T15:19:24Z</time></trkpt><trkpt lat="45.74243139178323" lon="10.980018437555929"><ele>145.0</ele><time>2026-04-12T15:19:25Z</time></trkpt><trkpt lat="45.74233635487315" lon="10.979835391716799"><ele>147.0</ele><time>2026-04-12T15:19:26Z</time></trkpt><trkpt lat="45.74221877510911" lon="10.979685556880664"><ele>147.0</ele><time>2026-04-12T15:19:26.999Z</time></trkpt><trkpt lat="45.7421085220971" lon="10.979505418051192"><ele>147.0</ele><time>2026-04-12T15:19:27.999Z</time></trkpt><trkpt lat="45.74199251778335" lon="10.979332216623488"><ele>147.0</ele><time>2026-04-12T15:19:28.999Z</time></trkpt><trkpt lat="45.74188041513202" lon="10.979171560253137"><ele>147.0</ele><time>2026-04-12T15:19:29.999Z</time></trkpt><trkpt lat="45.74176900069848" lon="10.979022064831051"><ele>147.0</ele><time>2026-04-12T15:19:30.999Z</time></trkpt><trkpt lat="45.7416619793327" lon="10.978877941347411"><ele>147.0</ele><time>2026-04-12T15:19:31.999Z</time></trkpt><trkpt lat="45.74155148219366" lon="10.978732507343832"><ele>147.0</ele><time>2026-04-12T15:19:32.999Z</time></trkpt><trkpt lat="45.74143954341208" lon="10.978582177614596"><ele>147.0</ele><time>2026-04-12T15:19:33.999Z</time></trkpt><trkpt lat="45.74133168050756" lon="10.978422053515922"><ele>147.0</ele><time>2026-04-12T15:19:34.999Z</time></trkpt><trkpt lat="45.74123185371019" lon="10.97824327654027"><ele>148.0</ele><time>2026-04-12T15:19:35.999Z</time></trkpt><trkpt lat="45.74114015536526" lon="10.97805035551267"><ele>149.0</ele><time>2026-04-12T15:19:36.999Z</time></trkpt><trkpt lat="45.74105698137405" lon="10.977847656421842"><ele>150.0</ele><time>2026-04-12T15:19:37.999Z</time></trkpt><trkpt lat="45.740975175364575" lon="10.977644389723077"><ele>149.33333333333334</ele><time>2026-04-12T15:19:38.999Z</time></trkpt><trkpt lat="45.740889858543866" lon="10.977443992749356"><ele>148.66666666666669</ele><time>2026-04-12T15:19:39.999Z</time></trkpt><trkpt lat="45.74080427906323" lon="10.977248389431528"><ele>148.0</ele><time>2026-04-12T15:19:40.999Z</time></trkpt><trkpt lat="45.74071808627968" lon="10.977047993887847"><ele>148.0</ele><time>2026-04-12T15:19:41.999Z</time></trkpt><trkpt lat="45.740626881097896" lon="10.976846495060304"><ele>148.0</ele><time>2026-04-12T15:19:42.999Z</time></trkpt><trkpt lat="45.740529918886644" lon="10.976650149956068"><ele>148.0</ele><time>2026-04-12T15:19:43.999Z</time></trkpt><trkpt lat="45.740433930107535" lon="10.976447085842542"><ele>148.0</ele><time>2026-04-12T15:19:44.999Z</time></trkpt><trkpt lat="45.74033993663138" lon="10.976234718336414"><ele>148.0</ele><time>2026-04-12T15:19:45.999Z</time></trkpt><trkpt lat="45.74026619065748" lon="10.976012923903482"><ele>148.0</ele><time>2026-04-12T15:19:46.999Z</time></trkpt><trkpt lat="45.740178866642694" lon="10.975803769486744"><ele>148.0</ele><time>2026-04-12T15:19:47.999Z</time></trkpt><trkpt lat="45.740093800779924" lon="10.975599028779923"><ele>148.0</ele><time>2026-04-12T15:19:48.999Z</time></trkpt><trkpt lat="45.74001185269846" lon="10.975406342002366"><ele>148.0</ele><time>2026-04-12T15:19:49.999Z</time></trkpt><trkpt lat="45.73992540463845" lon="10.9752295327472"><ele>148.0</ele><time>2026-04-12T15:19:50.999Z</time></trkpt><trkpt lat="45.739823412925055" lon="10.9750733618117"><ele>148.0</ele><time>2026-04-12T15:19:51.999Z</time></trkpt><trkpt lat="45.73973315500365" lon="10.974908234677464"><ele>148.0</ele><time>2026-04-12T15:19:52.999Z</time></trkpt><trkpt lat="45.739644740676205" lon="10.974740233150937"><ele>148.0</ele><time>2026-04-12T15:19:53.999Z</time></trkpt><trkpt lat="45.73958101662117" lon="10.974542325447269"><ele>146.33333333333334</ele><time>2026-04-12T15:19:54.999Z</time></trkpt><trkpt lat="45.73953042637171" lon="10.974347017981128"><ele>144.66666666666666</ele><time>2026-04-12T15:19:55.999Z</time></trkpt><trkpt lat="45.73948714431941" lon="10.974134277752212"><ele>143.0</ele><time>2026-04-12T15:19:56.999Z</time></trkpt><trkpt lat="45.73943464753595" lon="10.973928924270636"><ele>143.33333333333331</ele><time>2026-04-12T15:19:57.999Z</time></trkpt><trkpt lat="45.7393689365701" lon="10.973712864317383"><ele>143.66666666666666</ele><time>2026-04-12T15:19:58.999Z</time></trkpt><trkpt lat="45.73926454455095" lon="10.973480459267156"><ele>144.0</ele><time>2026-04-12T15:19:59.999Z</time></trkpt><trkpt lat="45.739120289904186" lon="10.973239003786482"><ele>144.0</ele><time>2026-04-12T15:20:00.999Z</time></trkpt><trkpt lat="45.73899570323085" lon="10.972993145092644"><ele>144.0</ele><time>2026-04-12T15:20:01.999Z</time></trkpt><trkpt lat="45.73886827705908" lon="10.972744999795154"><ele>144.0</ele><time>2026-04-12T15:20:02.999Z</time></trkpt><trkpt lat="45.73874473496973" lon="10.972501210705655"><ele>142.66666666666666</ele><time>2026-04-12T15:20:03.999Z</time></trkpt><trkpt lat="45.73862182504281" lon="10.972263571032972"><ele>141.33333333333331</ele><time>2026-04-12T15:20:04.999Z</time></trkpt><trkpt lat="45.73850038749599" lon="10.972033620022295"><ele>140.0</ele><time>2026-04-12T15:20:05.999Z</time></trkpt><trkpt lat="45.73838253268093" lon="10.971812942136268"><ele>140.66666666666666</ele><time>2026-04-12T15:20:06.999Z</time></trkpt><trkpt lat="45.73825239027923" lon="10.971600096915276"><ele>141.33333333333334</ele><time>2026-04-12T15:20:07.999Z</time></trkpt><trkpt lat="45.73812342720402" lon="10.97139448065892"><ele>142.0</ele><time>2026-04-12T15:20:08.999Z</time></trkpt><trkpt lat="45.73799558192375" lon="10.971187463917563"><ele>142.0</ele><time>2026-04-12T15:20:09.999Z</time></trkpt><trkpt lat="45.73786825488793" lon="10.970987152644135"><ele>142.0</ele><time>2026-04-12T15:20:10.999Z</time></trkpt><trkpt lat="45.737751049988866" lon="10.970769368911041"><ele>142.0</ele><time>2026-04-12T15:20:11.999Z</time></trkpt><trkpt lat="45.737624515447564" lon="10.970566038050855"><ele>142.66666666666669</ele><time>2026-04-12T15:20:12.999Z</time></trkpt><trkpt lat="45.73749724348176" lon="10.970376180568671"><ele>143.33333333333334</ele><time>2026-04-12T15:20:13.999Z</time></trkpt><trkpt lat="45.73741696286865" lon="10.970135745901413"><ele>144.0</ele><time>2026-04-12T15:20:14.999Z</time></trkpt><trkpt lat="45.73733850330034" lon="10.9698884828115"><ele>142.66666666666666</ele><time>2026-04-12T15:20:15.999Z</time></trkpt><trkpt lat="45.737276102054736" lon="10.969615359702528"><ele>141.33333333333331</ele><time>2026-04-12T15:20:16.999Z</time></trkpt><trkpt lat="45.73722676020418" lon="10.969289733984988"><ele>140.0</ele><time>2026-04-12T15:20:17.999Z</time></trkpt><trkpt lat="45.73718830440963" lon="10.968934100211516"><ele>139.5</ele><time>2026-04-12T15:20:18.999Z</time></trkpt><trkpt lat="45.73714938121047" lon="10.968532980081218"><ele>139.0</ele><time>2026-04-12T15:20:19.999Z</time></trkpt><trkpt lat="45.73708778262396" lon="10.96814993306847"><ele>139.0</ele><time>2026-04-12T15:20:20.999Z</time></trkpt><trkpt lat="45.737055455140755" lon="10.967781475433274"><ele>139.0</ele><time>2026-04-12T15:20:21.999Z</time></trkpt><trkpt lat="45.737009567252436" lon="10.967419593861266"><ele>136.5</ele><time>2026-04-12T15:20:22.999Z</time></trkpt><trkpt lat="45.73696059008441" lon="10.967031263429215"><ele>134.0</ele><time>2026-04-12T15:20:23.998Z</time></trkpt><trkpt lat="45.73691367153591" lon="10.96663441564754"><ele>145.0</ele><time>2026-04-12T15:20:24.998Z</time></trkpt><trkpt lat="45.7368654307569" lon="10.96624678416389"><ele>156.0</ele><time>2026-04-12T15:20:25.998Z</time></trkpt><trkpt lat="45.73681055880352" lon="10.965865627536063"><ele>154.0</ele><time>2026-04-12T15:20:26.998Z</time></trkpt><trkpt lat="45.736751381781" lon="10.965487678154764"><ele>152.0</ele><time>2026-04-12T15:20:27.998Z</time></trkpt><trkpt lat="45.73669100445902" lon="10.965114236156497"><ele>147.5</ele><time>2026-04-12T15:20:28.998Z</time></trkpt><trkpt lat="45.736629031006636" lon="10.96474206468526"><ele>143.0</ele><time>2026-04-12T15:20:29.998Z</time></trkpt><trkpt lat="45.73655560955159" lon="10.964369956070003"><ele>140.5</ele><time>2026-04-12T15:20:30.998Z</time></trkpt><trkpt lat="45.73645009205353" lon="10.964018392223418"><ele>138.0</ele><time>2026-04-12T15:20:31.998Z</time></trkpt><trkpt lat="45.73635693243421" lon="10.963676484444743"><ele>135.5</ele><time>2026-04-12T15:20:32.998Z</time></trkpt><trkpt lat="45.73627534940687" lon="10.963334189727277"><ele>133.0</ele><time>2026-04-12T15:20:33.998Z</time></trkpt><trkpt lat="45.73616562240071" lon="10.963022855752277"><ele>133.0</ele><time>2026-04-12T15:20:34.998Z</time></trkpt><trkpt lat="45.73605799099744" lon="10.962706796234952"><ele>133.0</ele><time>2026-04-12T15:20:35.998Z</time></trkpt><trkpt lat="45.7359208498961" lon="10.96240178601045"><ele>141.0</ele><time>2026-04-12T15:20:36.998Z</time></trkpt><trkpt lat="45.735772346953844" lon="10.962102174756305"><ele>149.0</ele><time>2026-04-12T15:20:37.998Z</time></trkpt><trkpt lat="45.73561338161951" lon="10.961808704800168"><ele>143.5</ele><time>2026-04-12T15:20:38.998Z</time></trkpt><trkpt lat="45.73545125005402" lon="10.961512262455487"><ele>138.0</ele><time>2026-04-12T15:20:39.998Z</time></trkpt><trkpt lat="45.73528892865877" lon="10.961210346468363"><ele>143.5</ele><time>2026-04-12T15:20:40.998Z</time></trkpt><trkpt lat="45.735123723038996" lon="10.960909351576154"><ele>149.0</ele><time>2026-04-12T15:20:41.998Z</time></trkpt><trkpt lat="45.73497335153102" lon="10.960627267157681"><ele>149.0</ele><time>2026-04-12T15:20:42.998Z</time></trkpt><trkpt lat="45.73481103004998" lon="10.960335289860508"><ele>149.0</ele><time>2026-04-12T15:20:43.998Z</time></trkpt><trkpt lat="45.73466577869611" lon="10.960058228229018"><ele>146.33333333333331</ele><time>2026-04-12T15:20:44.998Z</time></trkpt><trkpt lat="45.73452858272809" lon="10.959802015550771"><ele>143.66666666666666</ele><time>2026-04-12T15:20:45.998Z</time></trkpt><trkpt lat="45.73440443855055" lon="10.959562399139536"><ele>141.0</ele><time>2026-04-12T15:20:46.998Z</time></trkpt><trkpt lat="45.73428868715457" lon="10.959344635651217"><ele>144.0</ele><time>2026-04-12T15:20:47.998Z</time></trkpt><trkpt lat="45.73417628216671" lon="10.959131945080468"><ele>147.0</ele><time>2026-04-12T15:20:48.998Z</time></trkpt><trkpt lat="45.73406054848555" lon="10.958911362256144"><ele>150.0</ele><time>2026-04-12T15:20:49.998Z</time></trkpt><trkpt lat="45.73394354550473" lon="10.958686104971738"><ele>150.0</ele><time>2026-04-12T15:20:51Z</time></trkpt><trkpt lat="45.73382264754617" lon="10.958462540168053"><ele>150.0</ele><time>2026-04-12T15:20:52Z</time></trkpt><trkpt lat="45.733706772529075" lon="10.958221745163764"><ele>150.0</ele><time>2026-04-12T15:20:53Z</time></trkpt><trkpt lat="45.73361168162279" lon="10.957965693979045"><ele>150.66666666666666</ele><time>2026-04-12T15:20:54Z</time></trkpt><trkpt lat="45.733489270649336" lon="10.95773091678253"><ele>151.33333333333331</ele><time>2026-04-12T15:20:55Z</time></trkpt><trkpt lat="45.73338641662515" lon="10.95747836231626"><ele>152.0</ele><time>2026-04-12T15:20:56Z</time></trkpt><trkpt lat="45.73327433496658" lon="10.957235798974581"><ele>152.0</ele><time>2026-04-12T15:20:57Z</time></trkpt><trkpt lat="45.733167602488564" lon="10.956988015760873"><ele>152.0</ele><time>2026-04-12T15:20:58Z</time></trkpt><trkpt lat="45.73306365202416" lon="10.95674225255897"><ele>152.0</ele><time>2026-04-12T15:20:59Z</time></trkpt><trkpt lat="45.73295685129335" lon="10.956496676595036"><ele>152.66666666666666</ele><time>2026-04-12T15:21:00Z</time></trkpt><trkpt lat="45.73285126550801" lon="10.956253064830527"><ele>153.33333333333334</ele><time>2026-04-12T15:21:01Z</time></trkpt><trkpt lat="45.73274569683448" lon="10.956010403561509"><ele>154.0</ele><time>2026-04-12T15:21:02Z</time></trkpt><trkpt lat="45.73264213946136" lon="10.955780650874717"><ele>154.0</ele><time>2026-04-12T15:21:03Z</time></trkpt><trkpt lat="45.73269462727019" lon="10.955301279227662"><ele>154.0</ele><time>2026-04-12T15:21:04Z</time></trkpt><trkpt lat="45.73248865613214" lon="10.955172809083335"><ele>151.66666666666669</ele><time>2026-04-12T15:21:05Z</time></trkpt><trkpt lat="45.732391101466476" lon="10.954963759986564"><ele>149.33333333333334</ele><time>2026-04-12T15:21:06Z</time></trkpt><trkpt lat="45.7322817491719" lon="10.954720411898931"><ele>147.0</ele><time>2026-04-12T15:21:07Z</time></trkpt><trkpt lat="45.732172573940886" lon="10.954473506591343"><ele>147.0</ele><time>2026-04-12T15:21:08Z</time></trkpt><trkpt lat="45.732009083824764" lon="10.95426840128851"><ele>147.0</ele><time>2026-04-12T15:21:09Z</time></trkpt><trkpt lat="45.73183558235259" lon="10.954186160821978"><ele>147.0</ele><time>2026-04-12T15:21:10Z</time></trkpt><trkpt lat="45.731680522934056" lon="10.954055595926162"><ele>150.5</ele><time>2026-04-12T15:21:11Z</time></trkpt><trkpt lat="45.73168954172685" lon="10.95350114911813"><ele>154.0</ele><time>2026-04-12T15:21:12Z</time></trkpt><trkpt lat="45.73161645530044" lon="10.95322075062063"><ele>154.0</ele><time>2026-04-12T15:21:13Z</time></trkpt><trkpt lat="45.73153333017132" lon="10.952932004001479"><ele>154.0</ele><time>2026-04-12T15:21:14Z</time></trkpt><trkpt lat="45.73144232740986" lon="10.952647119888228"><ele>154.0</ele><time>2026-04-12T15:21:15Z</time></trkpt><trkpt lat="45.731331037991836" lon="10.952367223216047"><ele>155.5</ele><time>2026-04-12T15:21:16Z</time></trkpt><trkpt lat="45.731191923335714" lon="10.952099963824361"><ele>157.0</ele><time>2026-04-12T15:21:17Z</time></trkpt><trkpt lat="45.73103549330443" lon="10.951851963524417"><ele>154.5</ele><time>2026-04-12T15:21:18Z</time></trkpt><trkpt lat="45.730861341322495" lon="10.951614035649746"><ele>152.0</ele><time>2026-04-12T15:21:19Z</time></trkpt><trkpt lat="45.73068142967997" lon="10.951369358257757"><ele>152.0</ele><time>2026-04-12T15:21:20Z</time></trkpt><trkpt lat="45.73049928047726" lon="10.951124392898274"><ele>152.0</ele><time>2026-04-12T15:21:21Z</time></trkpt><trkpt lat="45.730320935705784" lon="10.950879424435575"><ele>153.0</ele><time>2026-04-12T15:21:22Z</time></trkpt><trkpt lat="45.73013943652854" lon="10.950621737190259"><ele>154.0</ele><time>2026-04-12T15:21:23Z</time></trkpt><trkpt lat="45.72996378136509" lon="10.950375585629617"><ele>154.0</ele><time>2026-04-12T15:21:24Z</time></trkpt><trkpt lat="45.72978582728261" lon="10.950129023282726"><ele>154.0</ele><time>2026-04-12T15:21:25Z</time></trkpt><trkpt lat="45.72960554895477" lon="10.949872069721348"><ele>153.5</ele><time>2026-04-12T15:21:26Z</time></trkpt><trkpt lat="45.72942989702831" lon="10.949619399856601"><ele>153.0</ele><time>2026-04-12T15:21:27Z</time></trkpt><trkpt lat="45.72925013430586" lon="10.949365648054133"><ele>153.0</ele><time>2026-04-12T15:21:28Z</time></trkpt><trkpt lat="45.729067395998996" lon="10.949118951185678"><ele>153.0</ele><time>2026-04-12T15:21:29Z</time></trkpt><trkpt lat="45.72888689006168" lon="10.948863483973923"><ele>153.0</ele><time>2026-04-12T15:21:30Z</time></trkpt><trkpt lat="45.72870558302025" lon="10.948605706514998"><ele>153.0</ele><time>2026-04-12T15:21:31Z</time></trkpt><trkpt lat="45.728523066230956" lon="10.948360969936383"><ele>154.0</ele><time>2026-04-12T15:21:32Z</time></trkpt><trkpt lat="45.72833577445695" lon="10.948115210925955"><ele>155.0</ele><time>2026-04-12T15:21:32.999Z</time></trkpt><trkpt lat="45.72814356327231" lon="10.947898958488652"><ele>155.0</ele><time>2026-04-12T15:21:33.999Z</time></trkpt><trkpt lat="45.727934687511315" lon="10.947708519747852"><ele>155.0</ele><time>2026-04-12T15:21:34.999Z</time></trkpt><trkpt lat="45.72771864194831" lon="10.947522879469107"><ele>155.5</ele><time>2026-04-12T15:21:35.999Z</time></trkpt><trkpt lat="45.72750381793384" lon="10.947333070213789"><ele>156.0</ele><time>2026-04-12T15:21:36.999Z</time></trkpt><trkpt lat="45.72728387728843" lon="10.947129706269104"><ele>156.0</ele><time>2026-04-12T15:21:37.999Z</time></trkpt><trkpt lat="45.72707249414492" lon="10.946934207480403"><ele>156.0</ele><time>2026-04-12T15:21:38.999Z</time></trkpt><trkpt lat="45.72686073163413" lon="10.946731199087441"><ele>155.5</ele><time>2026-04-12T15:21:39.999Z</time></trkpt><trkpt lat="45.72665637442102" lon="10.946516742025862"><ele>155.0</ele><time>2026-04-12T15:21:40.999Z</time></trkpt><trkpt lat="45.72646559898846" lon="10.946295478996912"><ele>155.0</ele><time>2026-04-12T15:21:41.999Z</time></trkpt><trkpt lat="45.72628961045956" lon="10.946067767206745"><ele>155.0</ele><time>2026-04-12T15:21:42.999Z</time></trkpt><trkpt lat="45.7261356680511" lon="10.94581597565835"><ele>156.0</ele><time>2026-04-12T15:21:43.999Z</time></trkpt><trkpt lat="45.72600417303473" lon="10.945540539262216"><ele>157.0</ele><time>2026-04-12T15:21:44.999Z</time></trkpt><trkpt lat="45.725889094330256" lon="10.945237434860209"><ele>155.5</ele><time>2026-04-12T15:21:45.999Z</time></trkpt><trkpt lat="45.72577345144808" lon="10.944943389210366"><ele>154.0</ele><time>2026-04-12T15:21:46.999Z</time></trkpt><trkpt lat="45.72563567343695" lon="10.944657407042062"><ele>154.0</ele><time>2026-04-12T15:21:47.999Z</time></trkpt><trkpt lat="45.725460908705905" lon="10.944375789797107"><ele>154.0</ele><time>2026-04-12T15:21:48.999Z</time></trkpt><trkpt lat="45.72526041622762" lon="10.944117883628628"><ele>155.0</ele><time>2026-04-12T15:21:49.999Z</time></trkpt><trkpt lat="45.7250664064097" lon="10.943900431320529"><ele>156.0</ele><time>2026-04-12T15:21:50.999Z</time></trkpt><trkpt lat="45.724873811822114" lon="10.94371651344688"><ele>156.0</ele><time>2026-04-12T15:21:51.999Z</time></trkpt><trkpt lat="45.72466744329636" lon="10.943569750885082"><ele>156.0</ele><time>2026-04-12T15:21:52.999Z</time></trkpt><trkpt lat="45.7244436434802" lon="10.943456978185402"><ele>155.0</ele><time>2026-04-12T15:21:53.999Z</time></trkpt><trkpt lat="45.724212491925684" lon="10.94335637064389"><ele>154.0</ele><time>2026-04-12T15:21:54.999Z</time></trkpt><trkpt lat="45.72398657689903" lon="10.943218235997602"><ele>154.0</ele><time>2026-04-12T15:21:55.999Z</time></trkpt><trkpt lat="45.723763287380066" lon="10.943010756402176"><ele>154.0</ele><time>2026-04-12T15:21:56.999Z</time></trkpt><trkpt lat="45.72354693857887" lon="10.942802792740235"><ele>153.5</ele><time>2026-04-12T15:21:57.999Z</time></trkpt><trkpt lat="45.7233298960189" lon="10.942543959955175"><ele>153.0</ele><time>2026-04-12T15:21:58.999Z</time></trkpt><trkpt lat="45.723134380493924" lon="10.942301667022724"><ele>153.0</ele><time>2026-04-12T15:21:59.999Z</time></trkpt><trkpt lat="45.72294616663401" lon="10.942074343050573"><ele>153.0</ele><time>2026-04-12T15:22:00.999Z</time></trkpt><trkpt lat="45.7227594227659" lon="10.941892987313965"><ele>153.66666666666666</ele><time>2026-04-12T15:22:01.999Z</time></trkpt><trkpt lat="45.72257074200245" lon="10.941728922089878"><ele>154.33333333333331</ele><time>2026-04-12T15:22:02.999Z</time></trkpt><trkpt lat="45.72237436377683" lon="10.941568605636581"><ele>155.0</ele><time>2026-04-12T15:22:03.999Z</time></trkpt><trkpt lat="45.72217039363355" lon="10.941425536979441"><ele>155.0</ele><time>2026-04-12T15:22:04.999Z</time></trkpt><trkpt lat="45.72196281585301" lon="10.941282785330404"><ele>155.0</ele><time>2026-04-12T15:22:05.999Z</time></trkpt><trkpt lat="45.721753345251294" lon="10.941147494764461"><ele>155.0</ele><time>2026-04-12T15:22:06.999Z</time></trkpt><trkpt lat="45.72154997114293" lon="10.941014143511476"><ele>155.0</ele><time>2026-04-12T15:22:07.999Z</time></trkpt><trkpt lat="45.72134089894007" lon="10.940895589185565"><ele>155.0</ele><time>2026-04-12T15:22:08.999Z</time></trkpt><trkpt lat="45.721105175753685" lon="10.940784337559249"><ele>151.5</ele><time>2026-04-12T15:22:09.999Z</time></trkpt><trkpt lat="45.72085577451899" lon="10.940688270324406"><ele>148.0</ele><time>2026-04-12T15:22:10.999Z</time></trkpt><trkpt lat="45.720597211829364" lon="10.940609192338105"><ele>148.0</ele><time>2026-04-12T15:22:11.999Z</time></trkpt><trkpt lat="45.720334206641525" lon="10.940535815489099"><ele>148.0</ele><time>2026-04-12T15:22:12.999Z</time></trkpt><trkpt lat="45.72007882953559" lon="10.940466164306986"><ele>149.0</ele><time>2026-04-12T15:22:13.999Z</time></trkpt><trkpt lat="45.71983741199429" lon="10.940398427743498"><ele>150.0</ele><time>2026-04-12T15:22:14.999Z</time></trkpt><trkpt lat="45.71960867233225" lon="10.9403313384424"><ele>150.5</ele><time>2026-04-12T15:22:15.999Z</time></trkpt><trkpt lat="45.719387090288095" lon="10.940274708921017"><ele>151.0</ele><time>2026-04-12T15:22:16.999Z</time></trkpt><trkpt lat="45.71916269509851" lon="10.940233454135477"><ele>151.0</ele><time>2026-04-12T15:22:17.999Z</time></trkpt><trkpt lat="45.71893341929674" lon="10.940209834817495"><ele>151.0</ele><time>2026-04-12T15:22:18.999Z</time></trkpt><trkpt lat="45.71869987333639" lon="10.940186742322325"><ele>151.5</ele><time>2026-04-12T15:22:19.999Z</time></trkpt><trkpt lat="45.71846300342934" lon="10.940153343847944"><ele>152.0</ele><time>2026-04-12T15:22:20.999Z</time></trkpt><trkpt lat="45.71823281512342" lon="10.940079964513165"><ele>148.5</ele><time>2026-04-12T15:22:21.999Z</time></trkpt><trkpt lat="45.7179991802087" lon="10.939969975322734"><ele>145.0</ele><time>2026-04-12T15:22:22.999Z</time></trkpt><trkpt lat="45.71775146674084" lon="10.939849652812347"><ele>144.5</ele><time>2026-04-12T15:22:23.999Z</time></trkpt><trkpt lat="45.717501986044134" lon="10.939732895338485"><ele>144.0</ele><time>2026-04-12T15:22:24.999Z</time></trkpt><trkpt lat="45.71725321748552" lon="10.939610432390174"><ele>144.0</ele><time>2026-04-12T15:22:25.999Z</time></trkpt><trkpt lat="45.71700423328161" lon="10.939488197251086"><ele>144.0</ele><time>2026-04-12T15:22:26.999Z</time></trkpt><trkpt lat="45.71675476315274" lon="10.939369373748091"><ele>141.5</ele><time>2026-04-12T15:22:27.999Z</time></trkpt><trkpt lat="45.716508642930116" lon="10.939245241429315"><ele>139.0</ele><time>2026-04-12T15:22:28.999Z</time></trkpt><trkpt lat="45.71627083804676" lon="10.93910167469471"><ele>139.5</ele><time>2026-04-12T15:22:29.998Z</time></trkpt><trkpt lat="45.71603475750215" lon="10.938945053659317"><ele>140.0</ele><time>2026-04-12T15:22:30.998Z</time></trkpt><trkpt lat="45.715803214719266" lon="10.938793799318308"><ele>140.0</ele><time>2026-04-12T15:22:31.998Z</time></trkpt><trkpt lat="45.71557371747584" lon="10.938663623935504"><ele>140.0</ele><time>2026-04-12T15:22:32.998Z</time></trkpt><trkpt lat="45.715351102003524" lon="10.938559153273921"><ele>143.5</ele><time>2026-04-12T15:22:33.998Z</time></trkpt><trkpt lat="45.71511514303563" lon="10.938494511703121"><ele>147.0</ele><time>2026-04-12T15:22:34.998Z</time></trkpt><trkpt lat="45.71487855037242" lon="10.938413377303661"><ele>143.5</ele><time>2026-04-12T15:22:35.998Z</time></trkpt><trkpt lat="45.7146481128263" lon="10.938328187141018"><ele>140.0</ele><time>2026-04-12T15:22:36.998Z</time></trkpt><trkpt lat="45.71441095363022" lon="10.938230243496585"><ele>142.0</ele><time>2026-04-12T15:22:37.998Z</time></trkpt><trkpt lat="45.714184690342904" lon="10.938119352039655"><ele>144.0</ele><time>2026-04-12T15:22:38.998Z</time></trkpt><trkpt lat="45.71396478730705" lon="10.938003102247416"><ele>144.0</ele><time>2026-04-12T15:22:39.998Z</time></trkpt><trkpt lat="45.713750158996255" lon="10.937885639718798"><ele>144.0</ele><time>2026-04-12T15:22:40.998Z</time></trkpt><trkpt lat="45.713532175318164" lon="10.93775379168318"><ele>146.5</ele><time>2026-04-12T15:22:41.998Z</time></trkpt><trkpt lat="45.713315562596115" lon="10.937610336067277"><ele>149.0</ele><time>2026-04-12T15:22:42.998Z</time></trkpt><trkpt lat="45.713106566122384" lon="10.937450866998345"><ele>147.5</ele><time>2026-04-12T15:22:43.998Z</time></trkpt><trkpt lat="45.7129022090154" lon="10.937279656658669"><ele>146.0</ele><time>2026-04-12T15:22:44.998Z</time></trkpt><trkpt lat="45.71269849775857" lon="10.937107139119961"><ele>146.0</ele><time>2026-04-12T15:22:45.998Z</time></trkpt><trkpt lat="45.71249631582876" lon="10.936953208299478"><ele>146.0</ele><time>2026-04-12T15:22:46.998Z</time></trkpt><trkpt lat="45.71229561448894" lon="10.936816507727963"><ele>144.0</ele><time>2026-04-12T15:22:47.998Z</time></trkpt><trkpt lat="45.71209372992313" lon="10.93669726930774"><ele>142.0</ele><time>2026-04-12T15:22:48.998Z</time></trkpt><trkpt lat="45.71188260459611" lon="10.93658353196138"><ele>140.0</ele><time>2026-04-12T15:22:49.998Z</time></trkpt><trkpt lat="45.711664381891275" lon="10.936478652837888"><ele>140.0</ele><time>2026-04-12T15:22:50.998Z</time></trkpt><trkpt lat="45.711443500417815" lon="10.936364521313735"><ele>140.0</ele><time>2026-04-12T15:22:51.998Z</time></trkpt><trkpt lat="45.71121757529325" lon="10.936242395518363"><ele>140.5</ele><time>2026-04-12T15:22:52.998Z</time></trkpt><trkpt lat="45.71099146787073" lon="10.936118585209083"><ele>141.0</ele><time>2026-04-12T15:22:53.998Z</time></trkpt><trkpt lat="45.71076127477612" lon="10.935995858466843"><ele>136.0</ele><time>2026-04-12T15:22:54.998Z</time></trkpt><trkpt lat="45.71053024233129" lon="10.935870331761945"><ele>131.0</ele><time>2026-04-12T15:22:55.998Z</time></trkpt><trkpt lat="45.710301152576086" lon="10.935747943749925"><ele>134.5</ele><time>2026-04-12T15:22:57Z</time></trkpt><trkpt lat="45.710071308806704" lon="10.935622228705881"><ele>138.0</ele><time>2026-04-12T15:22:58Z</time></trkpt><trkpt lat="45.7098424609126" lon="10.935501719411983"><ele>138.0</ele><time>2026-04-12T15:22:59Z</time></trkpt><trkpt lat="45.709617141953416" lon="10.935383023549482"><ele>138.0</ele><time>2026-04-12T15:23:00Z</time></trkpt><trkpt lat="45.709395087069424" lon="10.935266870901419"><ele>138.0</ele><time>2026-04-12T15:23:01Z</time></trkpt><trkpt lat="45.70917670037402" lon="10.93514128427688"><ele>138.0</ele><time>2026-04-12T15:23:02Z</time></trkpt><trkpt lat="45.70895589282767" lon="10.934997406087707"><ele>135.5</ele><time>2026-04-12T15:23:03Z</time></trkpt><trkpt lat="45.70874622492309" lon="10.93481661084536"><ele>133.0</ele><time>2026-04-12T15:23:04Z</time></trkpt><trkpt lat="45.70855290057533" lon="10.934593384857124"><ele>132.0</ele><time>2026-04-12T15:23:05Z</time></trkpt><trkpt lat="45.708352373148536" lon="10.934371285233626"><ele>131.0</ele><time>2026-04-12T15:23:06Z</time></trkpt><trkpt lat="45.708142912703835" lon="10.934155309426679"><ele>128.5</ele><time>2026-04-12T15:23:07Z</time></trkpt><trkpt lat="45.70794915249215" lon="10.933921213391276"><ele>126.0</ele><time>2026-04-12T15:23:08Z</time></trkpt><trkpt lat="45.7077563338081" lon="10.933692974012978"><ele>125.5</ele><time>2026-04-12T15:23:09Z</time></trkpt><trkpt lat="45.70756347670275" lon="10.933471706810803"><ele>125.0</ele><time>2026-04-12T15:23:10Z</time></trkpt><trkpt lat="45.707378523766195" lon="10.933254738523944"><ele>124.5</ele><time>2026-04-12T15:23:11Z</time></trkpt><trkpt lat="45.707195029694645" lon="10.933039959433172"><ele>124.0</ele><time>2026-04-12T15:23:12Z</time></trkpt><trkpt lat="45.70701011142355" lon="10.932826088914899"><ele>124.0</ele><time>2026-04-12T15:23:13Z</time></trkpt><trkpt lat="45.706823207358376" lon="10.93261591276048"><ele>124.0</ele><time>2026-04-12T15:23:14Z</time></trkpt><trkpt lat="45.70663545423729" lon="10.932405523664855"><ele>124.5</ele><time>2026-04-12T15:23:15Z</time></trkpt><trkpt lat="45.706444724666575" lon="10.932191552360534"><ele>125.0</ele><time>2026-04-12T15:23:16Z</time></trkpt><trkpt lat="45.706253897462695" lon="10.931977108809933"><ele>125.0</ele><time>2026-04-12T15:23:17Z</time></trkpt><trkpt lat="45.70606423382345" lon="10.931770196697759"><ele>125.0</ele><time>2026-04-12T15:23:18Z</time></trkpt><trkpt lat="45.705879999585484" lon="10.931548733048485"><ele>125.5</ele><time>2026-04-12T15:23:19Z</time></trkpt><trkpt lat="45.705703893193814" lon="10.9313559198262"><ele>126.0</ele><time>2026-04-12T15:23:20Z</time></trkpt><trkpt lat="45.70546528165511" lon="10.931300748906834"><ele>126.0</ele><time>2026-04-12T15:23:21Z</time></trkpt><trkpt lat="45.7052711096379" lon="10.93121779014364"><ele>126.0</ele><time>2026-04-12T15:23:22Z</time></trkpt><trkpt lat="45.705081908412936" lon="10.931146357923671"><ele>126.0</ele><time>2026-04-12T15:23:23Z</time></trkpt><trkpt lat="45.704900684325374" lon="10.931082426395509"><ele>126.0</ele><time>2026-04-12T15:23:24Z</time></trkpt><trkpt lat="45.70471173342862" lon="10.931020763498347"><ele>126.0</ele><time>2026-04-12T15:23:25Z</time></trkpt><trkpt lat="45.70452567984447" lon="10.93094899340252"><ele>126.0</ele><time>2026-04-12T15:23:26Z</time></trkpt><trkpt lat="45.704320591619016" lon="10.930869682059411"><ele>126.0</ele><time>2026-04-12T15:23:27Z</time></trkpt><trkpt lat="45.70411568657376" lon="10.93079758772102"><ele>126.0</ele><time>2026-04-12T15:23:28Z</time></trkpt><trkpt lat="45.70391251760886" lon="10.930722386848363"><ele>126.0</ele><time>2026-04-12T15:23:29Z</time></trkpt><trkpt lat="45.70371900094424" lon="10.930648606196172"><ele>126.66666666666666</ele><time>2026-04-12T15:23:30Z</time></trkpt><trkpt lat="45.703541248842804" lon="10.930582096424637"><ele>127.33333333333333</ele><time>2026-04-12T15:23:31Z</time></trkpt><trkpt lat="45.70335611546099" lon="10.930521737145293"><ele>128.0</ele><time>2026-04-12T15:23:32Z</time></trkpt><trkpt lat="45.7031602977889" lon="10.930448449400565"><ele>128.0</ele><time>2026-04-12T15:23:33Z</time></trkpt><trkpt lat="45.702964991378046" lon="10.93038409790038"><ele>128.0</ele><time>2026-04-12T15:23:34Z</time></trkpt><trkpt lat="45.70276193228608" lon="10.930308256748864"><ele>128.0</ele><time>2026-04-12T15:23:35Z</time></trkpt><trkpt lat="45.70255736383951" lon="10.930233534913764"><ele>127.33333333333333</ele><time>2026-04-12T15:23:36Z</time></trkpt><trkpt lat="45.70234417360393" lon="10.93015002971883"><ele>126.66666666666666</ele><time>2026-04-12T15:23:37Z</time></trkpt><trkpt lat="45.702129511883925" lon="10.930069031743553"><ele>126.0</ele><time>2026-04-12T15:23:37.999Z</time></trkpt><trkpt lat="45.70191569218971" lon="10.92998963016608"><ele>125.0</ele><time>2026-04-12T15:23:38.999Z</time></trkpt><trkpt lat="45.70169565455619" lon="10.929909807855008"><ele>124.0</ele><time>2026-04-12T15:23:39.999Z</time></trkpt><trkpt lat="45.701470724833506" lon="10.929829940542207"><ele>124.0</ele><time>2026-04-12T15:23:40.999Z</time></trkpt><trkpt lat="45.70125250703396" lon="10.92975056976807"><ele>124.0</ele><time>2026-04-12T15:23:41.999Z</time></trkpt><trkpt lat="45.70103489943814" lon="10.929669891577381"><ele>125.66666666666667</ele><time>2026-04-12T15:23:42.999Z</time></trkpt><trkpt lat="45.700824342148486" lon="10.929588521092727"><ele>127.33333333333334</ele><time>2026-04-12T15:23:43.999Z</time></trkpt><trkpt lat="45.700605970112875" lon="10.929495481777794"><ele>129.0</ele><time>2026-04-12T15:23:44.999Z</time></trkpt><trkpt lat="45.70039447807271" lon="10.929388497754895"><ele>129.66666666666666</ele><time>2026-04-12T15:23:45.999Z</time></trkpt><trkpt lat="45.700186736682895" lon="10.929269967055621"><ele>130.33333333333331</ele><time>2026-04-12T15:23:46.999Z</time></trkpt><trkpt lat="45.69997745893749" lon="10.929148957228168"><ele>131.0</ele><time>2026-04-12T15:23:47.999Z</time></trkpt><trkpt lat="45.69976702402445" lon="10.929022847992059"><ele>131.0</ele><time>2026-04-12T15:23:48.999Z</time></trkpt><trkpt lat="45.699557409630806" lon="10.928896611900045"><ele>131.0</ele><time>2026-04-12T15:23:49.999Z</time></trkpt><trkpt lat="45.69934963356378" lon="10.92877874354874"><ele>133.0</ele><time>2026-04-12T15:23:50.999Z</time></trkpt><trkpt lat="45.699143207682795" lon="10.928666134651955"><ele>135.0</ele><time>2026-04-12T15:23:51.999Z</time></trkpt><trkpt lat="45.6989473585167" lon="10.928560148015167"><ele>137.0</ele><time>2026-04-12T15:23:52.999Z</time></trkpt><trkpt lat="45.698741622398536" lon="10.92843929953702"><ele>135.33333333333331</ele><time>2026-04-12T15:23:53.999Z</time></trkpt><trkpt lat="45.69852760011519" lon="10.928358762296877"><ele>133.66666666666666</ele><time>2026-04-12T15:23:54.999Z</time></trkpt><trkpt lat="45.69831225767125" lon="10.92828682181374"><ele>132.0</ele><time>2026-04-12T15:23:55.999Z</time></trkpt><trkpt lat="45.698095026698994" lon="10.928222556292264"><ele>132.0</ele><time>2026-04-12T15:23:56.999Z</time></trkpt><trkpt lat="45.697882693483976" lon="10.928168107089816"><ele>132.0</ele><time>2026-04-12T15:23:57.999Z</time></trkpt><trkpt lat="45.69767524476085" lon="10.928126858870563"><ele>132.0</ele><time>2026-04-12T15:23:58.999Z</time></trkpt><trkpt lat="45.69745965109495" lon="10.928088628036166"><ele>131.66666666666666</ele><time>2026-04-12T15:23:59.999Z</time></trkpt><trkpt lat="45.697253718097464" lon="10.928037714276725"><ele>131.33333333333331</ele><time>2026-04-12T15:24:00.999Z</time></trkpt><trkpt lat="45.69704161392646" lon="10.92794833892179"><ele>131.0</ele><time>2026-04-12T15:24:01.999Z</time></trkpt><trkpt lat="45.69683602682172" lon="10.92783159406258"><ele>132.0</ele><time>2026-04-12T15:24:02.999Z</time></trkpt><trkpt lat="45.69662907893572" lon="10.927707287156995"><ele>133.0</ele><time>2026-04-12T15:24:03.999Z</time></trkpt><trkpt lat="45.69642065965307" lon="10.927584778924352"><ele>132.0</ele><time>2026-04-12T15:24:04.999Z</time></trkpt><trkpt lat="45.69621351103643" lon="10.927465027662926"><ele>131.0</ele><time>2026-04-12T15:24:05.999Z</time></trkpt><trkpt lat="45.69601381674743" lon="10.927349354987568"><ele>130.0</ele><time>2026-04-12T15:24:06.999Z</time></trkpt><trkpt lat="45.695821630408325" lon="10.927233229027436"><ele>130.0</ele><time>2026-04-12T15:24:07.999Z</time></trkpt><trkpt lat="45.69563905306921" lon="10.927123920670436"><ele>130.0</ele><time>2026-04-12T15:24:08.999Z</time></trkpt><trkpt lat="45.695460173791155" lon="10.927006225861778"><ele>130.0</ele><time>2026-04-12T15:24:09.999Z</time></trkpt><trkpt lat="45.69528544566576" lon="10.92688038220993"><ele>130.33333333333334</ele><time>2026-04-12T15:24:10.999Z</time></trkpt><trkpt lat="45.69511736230987" lon="10.926756386496576"><ele>130.66666666666666</ele><time>2026-04-12T15:24:11.999Z</time></trkpt><trkpt lat="45.694951769774086" lon="10.926630271354563"><ele>131.0</ele><time>2026-04-12T15:24:12.999Z</time></trkpt><trkpt lat="45.69479060711383" lon="10.926497917331377"><ele>131.0</ele><time>2026-04-12T15:24:13.999Z</time></trkpt><trkpt lat="45.69463936753354" lon="10.926373381263083"><ele>131.0</ele><time>2026-04-12T15:24:14.999Z</time></trkpt><trkpt lat="45.69449331395926" lon="10.926226041839332"><ele>131.0</ele><time>2026-04-12T15:24:15.999Z</time></trkpt><trkpt lat="45.69435502293522" lon="10.926058282372466"><ele>129.66666666666666</ele><time>2026-04-12T15:24:16.999Z</time></trkpt><trkpt lat="45.69422713517031" lon="10.925871807819426"><ele>128.33333333333334</ele><time>2026-04-12T15:24:17.999Z</time></trkpt><trkpt lat="45.69409947181926" lon="10.925679572719627"><ele>127.0</ele><time>2026-04-12T15:24:18.999Z</time></trkpt><trkpt lat="45.693967842075814" lon="10.92548819439319"><ele>127.0</ele><time>2026-04-12T15:24:19.999Z</time></trkpt><trkpt lat="45.69383271226611" lon="10.925298638889993"><ele>127.0</ele><time>2026-04-12T15:24:20.999Z</time></trkpt><trkpt lat="45.693701407476674" lon="10.925111779810495"><ele>127.0</ele><time>2026-04-12T15:24:21.999Z</time></trkpt><trkpt lat="45.693569887246944" lon="10.92492721241237"><ele>126.66666666666667</ele><time>2026-04-12T15:24:22.999Z</time></trkpt><trkpt lat="45.693439050480855" lon="10.924732224574234"><ele>126.33333333333334</ele><time>2026-04-12T15:24:23.999Z</time></trkpt><trkpt lat="45.69330843597322" lon="10.924544246691688"><ele>126.0</ele><time>2026-04-12T15:24:24.999Z</time></trkpt><trkpt lat="45.69317532179489" lon="10.924362871011642"><ele>125.33333333333334</ele><time>2026-04-12T15:24:25.999Z</time></trkpt><trkpt lat="45.69304085874663" lon="10.924179866726206"><ele>124.66666666666667</ele><time>2026-04-12T15:24:26.999Z</time></trkpt><trkpt lat="45.69290517822775" lon="10.923986099241004"><ele>124.0</ele><time>2026-04-12T15:24:27.999Z</time></trkpt><trkpt lat="45.692767737754544" lon="10.92379256197805"><ele>124.66666666666667</ele><time>2026-04-12T15:24:28.999Z</time></trkpt><trkpt lat="45.692615440385445" lon="10.923591978854416"><ele>125.33333333333334</ele><time>2026-04-12T15:24:29.999Z</time></trkpt><trkpt lat="45.69246866165185" lon="10.9233722835631"><ele>126.0</ele><time>2026-04-12T15:24:30.999Z</time></trkpt><trkpt lat="45.692296017097554" lon="10.923155854917006"><ele>126.0</ele><time>2026-04-12T15:24:31.999Z</time></trkpt><trkpt lat="45.69212610428423" lon="10.92293527639562"><ele>126.0</ele><time>2026-04-12T15:24:32.999Z</time></trkpt><trkpt lat="45.6919426242904" lon="10.922722976995958"><ele>126.0</ele><time>2026-04-12T15:24:33.999Z</time></trkpt><trkpt lat="45.69176435051574" lon="10.922511928231526"><ele>126.0</ele><time>2026-04-12T15:24:34.998Z</time></trkpt><trkpt lat="45.69158326043383" lon="10.922299462484188"><ele>126.0</ele><time>2026-04-12T15:24:35.998Z</time></trkpt><trkpt lat="45.691399375698175" lon="10.92208560044052"><ele>126.0</ele><time>2026-04-12T15:24:36.998Z</time></trkpt><trkpt lat="45.691217008022136" lon="10.921863285796341"><ele>126.0</ele><time>2026-04-12T15:24:37.998Z</time></trkpt><trkpt lat="45.69102977548563" lon="10.921634180424117"><ele>126.0</ele><time>2026-04-12T15:24:38.998Z</time></trkpt><trkpt lat="45.69084468975275" lon="10.921416003675542"><ele>126.0</ele><time>2026-04-12T15:24:39.998Z</time></trkpt><trkpt lat="45.69066034464188" lon="10.921198753865307"><ele>126.0</ele><time>2026-04-12T15:24:40.998Z</time></trkpt><trkpt lat="45.690473107954794" lon="10.920977251243874"><ele>124.5</ele><time>2026-04-12T15:24:41.998Z</time></trkpt><trkpt lat="45.69028479282521" lon="10.92075304653045"><ele>123.0</ele><time>2026-04-12T15:24:42.998Z</time></trkpt><trkpt lat="45.69009806950602" lon="10.92052713716164"><ele>126.5</ele><time>2026-04-12T15:24:43.998Z</time></trkpt><trkpt lat="45.6899111952174" lon="10.920299640740303"><ele>130.0</ele><time>2026-04-12T15:24:44.998Z</time></trkpt><trkpt lat="45.68972068699315" lon="10.920072513356201"><ele>129.0</ele><time>2026-04-12T15:24:45.998Z</time></trkpt><trkpt lat="45.68952933110295" lon="10.91983980080796"><ele>128.0</ele><time>2026-04-12T15:24:46.998Z</time></trkpt><trkpt lat="45.689340849737476" lon="10.919610242556933"><ele>128.0</ele><time>2026-04-12T15:24:47.998Z</time></trkpt><trkpt lat="45.689148910013266" lon="10.91937792555282"><ele>128.0</ele><time>2026-04-12T15:24:48.998Z</time></trkpt><trkpt lat="45.68896784836222" lon="10.919151197644009"><ele>128.0</ele><time>2026-04-12T15:24:49.998Z</time></trkpt><trkpt lat="45.68878947376058" lon="10.9189503754251"><ele>128.0</ele><time>2026-04-12T15:24:50.998Z</time></trkpt><trkpt lat="45.68861326813421" lon="10.918748879074354"><ele>129.0</ele><time>2026-04-12T15:24:51.998Z</time></trkpt><trkpt lat="45.68844305530516" lon="10.918553506373991"><ele>130.0</ele><time>2026-04-12T15:24:52.998Z</time></trkpt><trkpt lat="45.688276001859094" lon="10.91834905467355"><ele>131.0</ele><time>2026-04-12T15:24:53.998Z</time></trkpt><trkpt lat="45.688113221153955" lon="10.918146044241862"><ele>128.0</ele><time>2026-04-12T15:24:54.998Z</time></trkpt><trkpt lat="45.68794826097419" lon="10.917924021883568"><ele>125.0</ele><time>2026-04-12T15:24:55.998Z</time></trkpt><trkpt lat="45.6878024768133" lon="10.917659369795093"><ele>129.5</ele><time>2026-04-12T15:24:56.998Z</time></trkpt><trkpt lat="45.68767138723344" lon="10.917344057782548"><ele>134.0</ele><time>2026-04-12T15:24:57.998Z</time></trkpt><trkpt lat="45.6875528602018" lon="10.917005697289285"><ele>132.0</ele><time>2026-04-12T15:24:58.998Z</time></trkpt><trkpt lat="45.68745088286458" lon="10.916646422058419"><ele>130.0</ele><time>2026-04-12T15:24:59.998Z</time></trkpt><trkpt lat="45.687353578289674" lon="10.916287506137428"><ele>130.0</ele><time>2026-04-12T15:25:00.998Z</time></trkpt><trkpt lat="45.68726667706757" lon="10.915926211936169"><ele>130.0</ele><time>2026-04-12T15:25:01.998Z</time></trkpt><trkpt lat="45.687185210502264" lon="10.915569366840584"><ele>128.0</ele><time>2026-04-12T15:25:03Z</time></trkpt><trkpt lat="45.68710572596771" lon="10.915241030490696"><ele>126.0</ele><time>2026-04-12T15:25:04Z</time></trkpt><trkpt lat="45.68703885371771" lon="10.914924012477657"><ele>124.5</ele><time>2026-04-12T15:25:05Z</time></trkpt><trkpt lat="45.68696875275713" lon="10.914613546372905"><ele>123.0</ele><time>2026-04-12T15:25:06Z</time></trkpt><trkpt lat="45.686886386239266" lon="10.91430316824348"><ele>130.5</ele><time>2026-04-12T15:25:07Z</time></trkpt><trkpt lat="45.68678348437859" lon="10.913991210712833"><ele>138.0</ele><time>2026-04-12T15:25:08Z</time></trkpt><trkpt lat="45.6866671560843" lon="10.913687940829229"><ele>132.0</ele><time>2026-04-12T15:25:09Z</time></trkpt><trkpt lat="45.686541687771516" lon="10.913384189241805"><ele>126.0</ele><time>2026-04-12T15:25:10Z</time></trkpt><trkpt lat="45.6864066886851" lon="10.913072785457082"><ele>126.0</ele><time>2026-04-12T15:25:11Z</time></trkpt><trkpt lat="45.68627140727417" lon="10.912752545676572"><ele>126.0</ele><time>2026-04-12T15:25:12Z</time></trkpt><trkpt lat="45.686133739432485" lon="10.912425600654752"><ele>138.5</ele><time>2026-04-12T15:25:13Z</time></trkpt><trkpt lat="45.685995423635234" lon="10.912092363404458"><ele>151.0</ele><time>2026-04-12T15:25:14Z</time></trkpt><trkpt lat="45.68585871729702" lon="10.91176008172373"><ele>140.5</ele><time>2026-04-12T15:25:15Z</time></trkpt><trkpt lat="45.685714818613704" lon="10.91142295169161"><ele>130.0</ele><time>2026-04-12T15:25:16Z</time></trkpt><trkpt lat="45.685563808723295" lon="10.911083373173453"><ele>125.5</ele><time>2026-04-12T15:25:17Z</time></trkpt><trkpt lat="45.685396855088044" lon="10.910736255947553"><ele>121.0</ele><time>2026-04-12T15:25:18Z</time></trkpt><trkpt lat="45.68522643447115" lon="10.910405017949994"><ele>125.5</ele><time>2026-04-12T15:25:19Z</time></trkpt><trkpt lat="45.68506311187051" lon="10.910104129357183"><ele>130.0</ele><time>2026-04-12T15:25:20Z</time></trkpt><trkpt lat="45.68491723453746" lon="10.909824752499944"><ele>130.0</ele><time>2026-04-12T15:25:21Z</time></trkpt><trkpt lat="45.684780946446324" lon="10.909562049789423"><ele>130.0</ele><time>2026-04-12T15:25:22Z</time></trkpt><trkpt lat="45.68464167359785" lon="10.909305273617072"><ele>132.5</ele><time>2026-04-12T15:25:23Z</time></trkpt><trkpt lat="45.68448724245538" lon="10.909058352497581"><ele>135.0</ele><time>2026-04-12T15:25:24Z</time></trkpt><trkpt lat="45.68434306955328" lon="10.908795635879864"><ele>135.0</ele><time>2026-04-12T15:25:25Z</time></trkpt><trkpt lat="45.68413593335855" lon="10.908597251910003"><ele>135.0</ele><time>2026-04-12T15:25:26Z</time></trkpt><trkpt lat="45.68393194467518" lon="10.908386872392597"><ele>136.0</ele><time>2026-04-12T15:25:27Z</time></trkpt><trkpt lat="45.68371729259847" lon="10.908179983451173"><ele>137.0</ele><time>2026-04-12T15:25:28Z</time></trkpt><trkpt lat="45.683505134697235" lon="10.907971389895222"><ele>137.0</ele><time>2026-04-12T15:25:29Z</time></trkpt><trkpt lat="45.683302315620345" lon="10.907762950105099"><ele>137.0</ele><time>2026-04-12T15:25:30Z</time></trkpt><trkpt lat="45.683097090383825" lon="10.907562514032561"><ele>136.5</ele><time>2026-04-12T15:25:31Z</time></trkpt><trkpt lat="45.68289353855984" lon="10.907358993314308"><ele>136.0</ele><time>2026-04-12T15:25:32Z</time></trkpt><trkpt lat="45.682693225514306" lon="10.907163311736602"><ele>136.0</ele><time>2026-04-12T15:25:33Z</time></trkpt><trkpt lat="45.68248777461109" lon="10.906981213282947"><ele>136.0</ele><time>2026-04-12T15:25:34Z</time></trkpt><trkpt lat="45.68227160336151" lon="10.906834439528259"><ele>135.5</ele><time>2026-04-12T15:25:35Z</time></trkpt><trkpt lat="45.68203871923224" lon="10.906722980862487"><ele>135.0</ele><time>2026-04-12T15:25:36Z</time></trkpt><trkpt lat="45.681793780194226" lon="10.906630487003811"><ele>135.0</ele><time>2026-04-12T15:25:37Z</time></trkpt><trkpt lat="45.68154053837342" lon="10.906544206685105"><ele>135.0</ele><time>2026-04-12T15:25:38Z</time></trkpt><trkpt lat="45.681290018573335" lon="10.906451780135239"><ele>137.5</ele><time>2026-04-12T15:25:39Z</time></trkpt><trkpt lat="45.681036833208566" lon="10.906355856994757"><ele>140.0</ele><time>2026-04-12T15:25:40Z</time></trkpt><trkpt lat="45.68078632922307" lon="10.906266015835987"><ele>140.0</ele><time>2026-04-12T15:25:41Z</time></trkpt><trkpt lat="45.68053975101172" lon="10.906176826100772"><ele>140.0</ele><time>2026-04-12T15:25:42Z</time></trkpt><trkpt lat="45.680302205235755" lon="10.906090534144047"><ele>139.0</ele><time>2026-04-12T15:25:43Z</time></trkpt><trkpt lat="45.68006262522219" lon="10.906019033467116"><ele>138.0</ele><time>2026-04-12T15:25:43.999Z</time></trkpt><trkpt lat="45.67981545306176" lon="10.905974153442664"><ele>138.0</ele><time>2026-04-12T15:25:44.999Z</time></trkpt><trkpt lat="45.67956335485126" lon="10.905957936329031"><ele>138.0</ele><time>2026-04-12T15:25:45.999Z</time></trkpt><trkpt lat="45.679306229951244" lon="10.905960670312666"><ele>137.5</ele><time>2026-04-12T15:25:46.999Z</time></trkpt><trkpt lat="45.67905363155684" lon="10.905956837990837"><ele>137.0</ele><time>2026-04-12T15:25:47.999Z</time></trkpt><trkpt lat="45.678819568598" lon="10.905946174723443"><ele>137.0</ele><time>2026-04-12T15:25:48.999Z</time></trkpt><trkpt lat="45.6786055272712" lon="10.905937267213941"><ele>137.0</ele><time>2026-04-12T15:25:49.999Z</time></trkpt><trkpt lat="45.67839946105017" lon="10.905930411874003"><ele>137.0</ele><time>2026-04-12T15:25:50.999Z</time></trkpt><trkpt lat="45.67818754191765" lon="10.9059281889943"><ele>137.66666666666666</ele><time>2026-04-12T15:25:51.999Z</time></trkpt><trkpt lat="45.67797028685952" lon="10.905939047114092"><ele>138.33333333333334</ele><time>2026-04-12T15:25:52.999Z</time></trkpt><trkpt lat="45.67774621706424" lon="10.905965301684192"><ele>139.0</ele><time>2026-04-12T15:25:53.999Z</time></trkpt><trkpt lat="45.67752130855979" lon="10.90601725152479"><ele>139.5</ele><time>2026-04-12T15:25:54.999Z</time></trkpt><trkpt lat="45.67729762125913" lon="10.906079347247879"><ele>140.0</ele><time>2026-04-12T15:25:55.999Z</time></trkpt><trkpt lat="45.67707737866274" lon="10.906139633122319"><ele>140.66666666666666</ele><time>2026-04-12T15:25:56.999Z</time></trkpt><trkpt lat="45.676868616315744" lon="10.906190263474882"><ele>141.33333333333334</ele><time>2026-04-12T15:25:57.999Z</time></trkpt><trkpt lat="45.67666097351812" lon="10.906228225874932"><ele>142.0</ele><time>2026-04-12T15:25:58.999Z</time></trkpt><trkpt lat="45.676450077082904" lon="10.90623496620778"><ele>142.0</ele><time>2026-04-12T15:25:59.999Z</time></trkpt><trkpt lat="45.67623796518259" lon="10.90619881129718"><ele>142.0</ele><time>2026-04-12T15:26:00.999Z</time></trkpt><trkpt lat="45.676025753414336" lon="10.906140397296936"><ele>142.0</ele><time>2026-04-12T15:26:01.999Z</time></trkpt><trkpt lat="45.675800978065" lon="10.906056996616757"><ele>140.0</ele><time>2026-04-12T15:26:02.999Z</time></trkpt><trkpt lat="45.67558367635716" lon="10.905973087634575"><ele>138.0</ele><time>2026-04-12T15:26:03.999Z</time></trkpt><trkpt lat="45.67537201432641" lon="10.905854895543706"><ele>140.5</ele><time>2026-04-12T15:26:04.999Z</time></trkpt><trkpt lat="45.67517548644941" lon="10.90570212242804"><ele>143.0</ele><time>2026-04-12T15:26:05.999Z</time></trkpt><trkpt lat="45.67498868532354" lon="10.905503572177782"><ele>143.0</ele><time>2026-04-12T15:26:06.999Z</time></trkpt><trkpt lat="45.67480933092162" lon="10.905305920269885"><ele>143.0</ele><time>2026-04-12T15:26:07.999Z</time></trkpt><trkpt lat="45.674631149859316" lon="10.905110333533639"><ele>142.0</ele><time>2026-04-12T15:26:08.999Z</time></trkpt><trkpt lat="45.67445812091569" lon="10.904928308877524"><ele>141.0</ele><time>2026-04-12T15:26:09.999Z</time></trkpt><trkpt lat="45.67428032407399" lon="10.904770239129709"><ele>140.0</ele><time>2026-04-12T15:26:10.999Z</time></trkpt><trkpt lat="45.67409405783377" lon="10.904628962585157"><ele>142.33333333333331</ele><time>2026-04-12T15:26:11.999Z</time></trkpt><trkpt lat="45.67389720178114" lon="10.90450897761217"><ele>144.66666666666666</ele><time>2026-04-12T15:26:12.999Z</time></trkpt><trkpt lat="45.67369276894841" lon="10.90440858040623"><ele>147.0</ele><time>2026-04-12T15:26:13.999Z</time></trkpt><trkpt lat="45.67347770052645" lon="10.90431907509849"><ele>147.0</ele><time>2026-04-12T15:26:14.999Z</time></trkpt><trkpt lat="45.673260556923275" lon="10.90423380567432"><ele>147.0</ele><time>2026-04-12T15:26:15.999Z</time></trkpt><trkpt lat="45.673044645145744" lon="10.904152227821987"><ele>147.0</ele><time>2026-04-12T15:26:16.999Z</time></trkpt><trkpt lat="45.672826096469095" lon="10.904088566778526"><ele>147.33333333333334</ele><time>2026-04-12T15:26:17.999Z</time></trkpt><trkpt lat="45.67260825045633" lon="10.90405815081887"><ele>147.66666666666669</ele><time>2026-04-12T15:26:18.999Z</time></trkpt><trkpt lat="45.67239014654669" lon="10.904057934477972"><ele>148.0</ele><time>2026-04-12T15:26:19.999Z</time></trkpt><trkpt lat="45.672164307899976" lon="10.904079712343465"><ele>148.0</ele><time>2026-04-12T15:26:20.999Z</time></trkpt><trkpt lat="45.671951462141074" lon="10.904107278569233"><ele>148.0</ele><time>2026-04-12T15:26:21.999Z</time></trkpt><trkpt lat="45.67175035062252" lon="10.904132709875228"><ele>148.0</ele><time>2026-04-12T15:26:22.999Z</time></trkpt><trkpt lat="45.67155205067551" lon="10.904159988351436"><ele>147.66666666666669</ele><time>2026-04-12T15:26:23.999Z</time></trkpt><trkpt lat="45.67135268175751" lon="10.904188515656312"><ele>147.33333333333334</ele><time>2026-04-12T15:26:24.999Z</time></trkpt><trkpt lat="45.6711653988883" lon="10.904211731050829"><ele>147.0</ele><time>2026-04-12T15:26:25.999Z</time></trkpt><trkpt lat="45.67099278190072" lon="10.904216564210683"><ele>145.66666666666666</ele><time>2026-04-12T15:26:26.999Z</time></trkpt><trkpt lat="45.67082492190993" lon="10.904182901150806"><ele>144.33333333333331</ele><time>2026-04-12T15:26:27.999Z</time></trkpt><trkpt lat="45.67066007428835" lon="10.904106226091667"><ele>143.0</ele><time>2026-04-12T15:26:28.999Z</time></trkpt><trkpt lat="45.67050600458562" lon="10.903988200523655"><ele>143.0</ele><time>2026-04-12T15:26:29.999Z</time></trkpt><trkpt lat="45.67036028931754" lon="10.903832843055442"><ele>143.0</ele><time>2026-04-12T15:26:30.999Z</time></trkpt><trkpt lat="45.67023115403054" lon="10.90366324924054"><ele>143.0</ele><time>2026-04-12T15:26:31.999Z</time></trkpt><trkpt lat="45.67012831197249" lon="10.903503302615132"><ele>141.0</ele><time>2026-04-12T15:26:32.999Z</time></trkpt><trkpt lat="45.670026418422054" lon="10.903358409367252"><ele>139.0</ele><time>2026-04-12T15:26:33.999Z</time></trkpt><trkpt lat="45.6699093903965" lon="10.903234150525241"><ele>137.0</ele><time>2026-04-12T15:26:34.999Z</time></trkpt><trkpt lat="45.669773131704204" lon="10.903149153137937"><ele>135.0</ele><time>2026-04-12T15:26:35.999Z</time></trkpt><trkpt lat="45.66961094659005" lon="10.903109338069047"><ele>133.33333333333334</ele><time>2026-04-12T15:26:36.999Z</time></trkpt><trkpt lat="45.66944075181121" lon="10.903121245511905"><ele>131.66666666666669</ele><time>2026-04-12T15:26:37.999Z</time></trkpt><trkpt lat="45.669264530458136" lon="10.903182288445656"><ele>130.0</ele><time>2026-04-12T15:26:38.999Z</time></trkpt><trkpt lat="45.66908572201311" lon="10.903262536779367"><ele>130.0</ele><time>2026-04-12T15:26:39.999Z</time></trkpt><trkpt lat="45.668904508512014" lon="10.903332674520037"><ele>130.0</ele><time>2026-04-12T15:26:40.998Z</time></trkpt><trkpt lat="45.6687229069476" lon="10.903392518873671"><ele>130.0</ele><time>2026-04-12T15:26:41.998Z</time></trkpt><trkpt lat="45.66855106448646" lon="10.90345231873794"><ele>128.33333333333334</ele><time>2026-04-12T15:26:42.998Z</time></trkpt><trkpt lat="45.66838025902104" lon="10.903535912193943"><ele>126.66666666666666</ele><time>2026-04-12T15:26:43.998Z</time></trkpt><trkpt lat="45.6682148984911" lon="10.903653384073394"><ele>125.0</ele><time>2026-04-12T15:26:44.998Z</time></trkpt><trkpt lat="45.668071500556" lon="10.903793363035993"><ele>125.0</ele><time>2026-04-12T15:26:45.998Z</time></trkpt><trkpt lat="45.66793576966702" lon="10.903965523371696"><ele>125.0</ele><time>2026-04-12T15:26:46.998Z</time></trkpt><trkpt lat="45.667814285022196" lon="10.904180026099654"><ele>125.0</ele><time>2026-04-12T15:26:47.998Z</time></trkpt><trkpt lat="45.667707081552926" lon="10.904410600340446"><ele>124.66666666666666</ele><time>2026-04-12T15:26:48.998Z</time></trkpt><trkpt lat="45.667602971513844" lon="10.904633956582403"><ele>124.33333333333334</ele><time>2026-04-12T15:26:49.998Z</time></trkpt><trkpt lat="45.66751433458526" lon="10.904845960946778"><ele>124.0</ele><time>2026-04-12T15:26:50.998Z</time></trkpt><trkpt lat="45.66743267748447" lon="10.905047595149894"><ele>127.33333333333334</ele><time>2026-04-12T15:26:51.998Z</time></trkpt><trkpt lat="45.6673496296552" lon="10.905255618526445"><ele>130.66666666666666</ele><time>2026-04-12T15:26:52.998Z</time></trkpt><trkpt lat="45.66723131669447" lon="10.905447333998048"><ele>134.0</ele><time>2026-04-12T15:26:53.998Z</time></trkpt><trkpt lat="45.66708164618632" lon="10.905610007456932"><ele>131.33333333333331</ele><time>2026-04-12T15:26:54.998Z</time></trkpt><trkpt lat="45.66691045234969" lon="10.905730056586554"><ele>128.66666666666666</ele><time>2026-04-12T15:26:55.998Z</time></trkpt><trkpt lat="45.666719726345136" lon="10.905809932789229"><ele>126.0</ele><time>2026-04-12T15:26:56.998Z</time></trkpt><trkpt lat="45.66652766539757" lon="10.905866636891732"><ele>126.0</ele><time>2026-04-12T15:26:57.998Z</time></trkpt><trkpt lat="45.66633951817862" lon="10.905906381872287"><ele>126.0</ele><time>2026-04-12T15:26:58.998Z</time></trkpt><trkpt lat="45.66614810456667" lon="10.905919486886745"><ele>126.0</ele><time>2026-04-12T15:26:59.998Z</time></trkpt><trkpt lat="45.665954739419654" lon="10.90589997228316"><ele>124.66666666666666</ele><time>2026-04-12T15:27:00.998Z</time></trkpt><trkpt lat="45.66577797854617" lon="10.905859340247906"><ele>123.33333333333333</ele><time>2026-04-12T15:27:01.998Z</time></trkpt><trkpt lat="45.66560447431193" lon="10.905811282040107"><ele>122.0</ele><time>2026-04-12T15:27:02.998Z</time></trkpt><trkpt lat="45.665428584465715" lon="10.905751406483956"><ele>126.33333333333333</ele><time>2026-04-12T15:27:03.998Z</time></trkpt><trkpt lat="45.66525958367393" lon="10.905668503339765"><ele>130.66666666666666</ele><time>2026-04-12T15:27:04.998Z</time></trkpt><trkpt lat="45.66510538706283" lon="10.905542186780725"><ele>135.0</ele><time>2026-04-12T15:27:05.998Z</time></trkpt><trkpt lat="45.66497736292776" lon="10.905367362228699"><ele>135.0</ele><time>2026-04-12T15:27:06.998Z</time></trkpt><trkpt lat="45.6648744923253" lon="10.905162520975724"><ele>135.0</ele><time>2026-04-12T15:27:07.998Z</time></trkpt><trkpt lat="45.664769828953425" lon="10.904951696258468"><ele>135.0</ele><time>2026-04-12T15:27:09Z</time></trkpt><trkpt lat="45.66465754951705" lon="10.904724810494521"><ele>135.0</ele><time>2026-04-12T15:27:10Z</time></trkpt><trkpt lat="45.66452383096014" lon="10.904507129569355"><ele>135.0</ele><time>2026-04-12T15:27:11Z</time></trkpt><trkpt lat="45.66438552948035" lon="10.904293200612367"><ele>135.0</ele><time>2026-04-12T15:27:12Z</time></trkpt><trkpt lat="45.66424604926534" lon="10.904089888878161"><ele>135.0</ele><time>2026-04-12T15:27:13Z</time></trkpt><trkpt lat="45.66408943371128" lon="10.903907190211152"><ele>135.0</ele><time>2026-04-12T15:27:14Z</time></trkpt><trkpt lat="45.66392023339928" lon="10.903733684996636"><ele>135.0</ele><time>2026-04-12T15:27:15Z</time></trkpt><trkpt lat="45.663749571487095" lon="10.903575111314385"><ele>136.33333333333334</ele><time>2026-04-12T15:27:16Z</time></trkpt><trkpt lat="45.663576307308595" lon="10.90343382134456"><ele>137.66666666666669</ele><time>2026-04-12T15:27:17Z</time></trkpt><trkpt lat="45.66339362040805" lon="10.90330275893506"><ele>139.0</ele><time>2026-04-12T15:27:18Z</time></trkpt><trkpt lat="45.66320476527362" lon="10.903187602174254"><ele>139.0</ele><time>2026-04-12T15:27:19Z</time></trkpt><trkpt lat="45.66301965604413" lon="10.903086814645388"><ele>139.0</ele><time>2026-04-12T15:27:20Z</time></trkpt><trkpt lat="45.66283876736436" lon="10.903001164165726"><ele>139.0</ele><time>2026-04-12T15:27:21Z</time></trkpt><trkpt lat="45.66265677353159" lon="10.90293635379297"><ele>143.0</ele><time>2026-04-12T15:27:22Z</time></trkpt><trkpt lat="45.66246562942362" lon="10.902897528416455"><ele>147.0</ele><time>2026-04-12T15:27:23Z</time></trkpt><trkpt lat="45.662270021417505" lon="10.902882661849176"><ele>151.0</ele><time>2026-04-12T15:27:24Z</time></trkpt><trkpt lat="45.66207238064083" lon="10.902877369898503"><ele>154.0</ele><time>2026-04-12T15:27:25Z</time></trkpt><trkpt lat="45.661881501863874" lon="10.902859801428162"><ele>157.0</ele><time>2026-04-12T15:27:26Z</time></trkpt><trkpt lat="45.661688806359244" lon="10.902842919133628"><ele>160.0</ele><time>2026-04-12T15:27:27Z</time></trkpt><trkpt lat="45.66149318005127" lon="10.902838396779432"><ele>160.0</ele><time>2026-04-12T15:27:28Z</time></trkpt><trkpt lat="45.66130674750243" lon="10.902838377978316"><ele>160.0</ele><time>2026-04-12T15:27:29Z</time></trkpt><trkpt lat="45.661119851345155" lon="10.902839694049401"><ele>160.0</ele><time>2026-04-12T15:27:30Z</time></trkpt><trkpt lat="45.66093276602765" lon="10.90281716259225"><ele>159.33333333333334</ele><time>2026-04-12T15:27:31Z</time></trkpt><trkpt lat="45.66074898609054" lon="10.902847580947428"><ele>158.66666666666666</ele><time>2026-04-12T15:27:32Z</time></trkpt><trkpt lat="45.660556570243074" lon="10.90287050202855"><ele>158.0</ele><time>2026-04-12T15:27:33Z</time></trkpt><trkpt lat="45.660386278537125" lon="10.902922604734199"><ele>156.66666666666666</ele><time>2026-04-12T15:27:34Z</time></trkpt><trkpt lat="45.66023701895566" lon="10.902989138745093"><ele>155.33333333333334</ele><time>2026-04-12T15:27:35Z</time></trkpt><trkpt lat="45.66009806085346" lon="10.903067910770515"><ele>154.0</ele><time>2026-04-12T15:27:36Z</time></trkpt><trkpt lat="45.65996202379989" lon="10.903148594522635"><ele>154.0</ele><time>2026-04-12T15:27:37Z</time></trkpt><trkpt lat="45.659822858270864" lon="10.903218887269567"><ele>154.0</ele><time>2026-04-12T15:27:38Z</time></trkpt><trkpt lat="45.659677802814976" lon="10.903259126525858"><ele>154.0</ele><time>2026-04-12T15:27:39Z</time></trkpt><trkpt lat="45.65954793065539" lon="10.903245835127004"><ele>154.0</ele><time>2026-04-12T15:27:40Z</time></trkpt><trkpt lat="45.659427528161785" lon="10.903203674987"><ele>152.25</ele><time>2026-04-12T15:27:41Z</time></trkpt><trkpt lat="45.65930950541121" lon="10.90315285591545"><ele>150.5</ele><time>2026-04-12T15:27:42Z</time></trkpt><trkpt lat="45.65918222372128" lon="10.903098159263505"><ele>148.75</ele><time>2026-04-12T15:27:43Z</time></trkpt><trkpt lat="45.659057069036734" lon="10.903049541741865"><ele>147.0</ele><time>2026-04-12T15:27:44Z</time></trkpt><trkpt lat="45.65894224175662" lon="10.903010370422638"><ele>147.0</ele><time>2026-04-12T15:27:45Z</time></trkpt><trkpt lat="45.658830418045106" lon="10.902967750092538"><ele>147.0</ele><time>2026-04-12T15:27:46Z</time></trkpt><trkpt lat="45.65872111043927" lon="10.902925825714782"><ele>147.0</ele><time>2026-04-12T15:27:47Z</time></trkpt><trkpt lat="45.658615147981784" lon="10.9028888659432"><ele>147.0</ele><time>2026-04-12T15:27:48Z</time></trkpt><trkpt lat="45.658517927606205" lon="10.902847261009661"><ele>147.0</ele><time>2026-04-12T15:27:49Z</time></trkpt><trkpt lat="45.65841653046526" lon="10.902808479252686"><ele>149.0</ele><time>2026-04-12T15:27:50Z</time></trkpt><trkpt lat="45.658306237685686" lon="10.902778062374052"><ele>151.0</ele><time>2026-04-12T15:27:50.999Z</time></trkpt><trkpt lat="45.65819346481553" lon="10.902734826018484"><ele>153.0</ele><time>2026-04-12T15:27:51.999Z</time></trkpt><trkpt lat="45.65807585968406" lon="10.902690933845943"><ele>155.0</ele><time>2026-04-12T15:27:52.999Z</time></trkpt><trkpt lat="45.65796717511467" lon="10.902648565619035"><ele>155.0</ele><time>2026-04-12T15:27:53.999Z</time></trkpt><trkpt lat="45.65786403715166" lon="10.902606779162413"><ele>155.0</ele><time>2026-04-12T15:27:54.999Z</time></trkpt><trkpt lat="45.657764909111776" lon="10.902570000068318"><ele>155.0</ele><time>2026-04-12T15:27:55.999Z</time></trkpt><trkpt lat="45.657670161240446" lon="10.902533183099553"><ele>155.0</ele><time>2026-04-12T15:27:56.999Z</time></trkpt><trkpt lat="45.65758187137266" lon="10.902499817866554"><ele>155.0</ele><time>2026-04-12T15:27:57.999Z</time></trkpt><trkpt lat="45.65750346104932" lon="10.902469700922467"><ele>152.16666666666666</ele><time>2026-04-12T15:27:58.999Z</time></trkpt><trkpt lat="45.657398630334804" lon="10.902416042293243"><ele>149.33333333333331</ele><time>2026-04-12T15:28:00.999Z</time></trkpt><trkpt lat="45.657339971451094" lon="10.902381399706385"><ele>146.5</ele><time>2026-04-12T15:28:02.999Z</time></trkpt><trkpt lat="45.65726566092584" lon="10.902356515549949"><ele>143.66666666666666</ele><time>2026-04-12T15:28:06.999Z</time></trkpt><trkpt lat="45.65724815642661" lon="10.902259552846473"><ele>140.83333333333334</ele><time>2026-04-12T15:30:30.999Z</time></trkpt><trkpt lat="45.65718595025323" lon="10.902227912322951"><ele>138.0</ele><time>2026-04-12T15:30:43.999Z</time></trkpt><trkpt lat="45.65711660277788" lon="10.902321554224228"><ele>138.0</ele><time>2026-04-12T15:46:00.998Z</time></trkpt><trkpt lat="45.657169320505574" lon="10.90225635433721"><ele>138.0</ele><time>2026-04-12T15:54:52Z</time></trkpt><trkpt lat="45.65721558466436" lon="10.902329829755237"><ele>138.0</ele><time>2026-04-12T15:55:24.999Z</time></trkpt><trkpt lat="45.65714862504508" lon="10.90237958630753"><ele>138.0</ele><time>2026-04-12T15:58:39Z</time></trkpt><trkpt lat="45.65708300313744" lon="10.902359017468678"><ele>138.0</ele><time>2026-04-12T15:58:40Z</time></trkpt><trkpt lat="45.65700802870216" lon="10.902331386112785"><ele>138.0</ele><time>2026-04-12T15:58:41Z</time></trkpt><trkpt lat="45.65693445529677" lon="10.902301005804864"><ele>138.0</ele><time>2026-04-12T15:58:42Z</time></trkpt><trkpt lat="45.65686467761446" lon="10.9022751747863"><ele>138.83333333333334</ele><time>2026-04-12T15:58:43Z</time></trkpt><trkpt lat="45.656805145264265" lon="10.902193858071646"><ele>139.66666666666666</ele><time>2026-04-12T15:58:44Z</time></trkpt><trkpt lat="45.65673520348081" lon="10.9021672963919"><ele>140.5</ele><time>2026-04-12T15:58:45Z</time></trkpt><trkpt lat="45.6566519612782" lon="10.902135683664014"><ele>141.33333333333331</ele><time>2026-04-12T15:58:46Z</time></trkpt><trkpt lat="45.65656926735503" lon="10.902104279032402"><ele>142.16666666666666</ele><time>2026-04-12T15:58:47Z</time></trkpt><trkpt lat="45.656485765020086" lon="10.902072428368047"><ele>143.0</ele><time>2026-04-12T15:58:48Z</time></trkpt><trkpt lat="45.656388388275715" lon="10.902078489392661"><ele>143.0</ele><time>2026-04-12T15:58:49Z</time></trkpt><trkpt lat="45.656289927684185" lon="10.90203647166274"><ele>143.0</ele><time>2026-04-12T15:58:50Z</time></trkpt><trkpt lat="45.656199110572956" lon="10.902001457292219"><ele>143.0</ele><time>2026-04-12T15:58:51Z</time></trkpt><trkpt lat="45.65611488904607" lon="10.90196650583611"><ele>143.0</ele><time>2026-04-12T15:58:52Z</time></trkpt><trkpt lat="45.65603786573581" lon="10.90190276101987"><ele>143.0</ele><time>2026-04-12T15:58:53Z</time></trkpt><trkpt lat="45.65595920246671" lon="10.901873077315114"><ele>143.20000000000002</ele><time>2026-04-12T15:58:54Z</time></trkpt><trkpt lat="45.655873394203944" lon="10.901864685340136"><ele>143.4</ele><time>2026-04-12T15:58:55Z</time></trkpt><trkpt lat="45.65579137472688" lon="10.90180974723334"><ele>143.60000000000002</ele><time>2026-04-12T15:58:56Z</time></trkpt><trkpt lat="45.655705462979505" lon="10.901777327753809"><ele>143.8</ele><time>2026-04-12T15:58:57Z</time></trkpt><trkpt lat="45.6556080982732" lon="10.90176402519502"><ele>144.0</ele><time>2026-04-12T15:58:58Z</time></trkpt><trkpt lat="45.65551918334239" lon="10.901727329807292"><ele>143.16666666666666</ele><time>2026-04-12T15:58:59Z</time></trkpt><trkpt lat="45.655431900858" lon="10.901693154211348"><ele>142.33333333333334</ele><time>2026-04-12T15:59:00Z</time></trkpt><trkpt lat="45.65535034219412" lon="10.901660492916779"><ele>141.5</ele><time>2026-04-12T15:59:01Z</time></trkpt><trkpt lat="45.655273319847836" lon="10.901629950806099"><ele>140.66666666666669</ele><time>2026-04-12T15:59:02Z</time></trkpt><trkpt lat="45.65520218365864" lon="10.901600571758971"><ele>139.83333333333334</ele><time>2026-04-12T15:59:03Z</time></trkpt><trkpt lat="45.655136880069875" lon="10.901571426291648"><ele>139.0</ele><time>2026-04-12T15:59:04Z</time></trkpt><trkpt lat="45.65507444989594" lon="10.901544743589506"><ele>138.6</ele><time>2026-04-12T15:59:05Z</time></trkpt><trkpt lat="45.654964826856734" lon="10.901499022023673"><ele>138.2</ele><time>2026-04-12T15:59:07Z</time></trkpt><trkpt lat="45.65488968921285" lon="10.901466756708478"><ele>137.79999999999998</ele><time>2026-04-12T15:59:09Z</time></trkpt><trkpt lat="45.654792984553" lon="10.901430938210822"><ele>137.4</ele><time>2026-04-12T15:59:14Z</time></trkpt><trkpt lat="45.65471806079193" lon="10.901398754077476"><ele>137.0</ele><time>2026-04-12T15:59:15Z</time></trkpt><trkpt lat="45.65463580319583" lon="10.901367411048268"><ele>137.0</ele><time>2026-04-12T15:59:16Z</time></trkpt><trkpt lat="45.65452892062231" lon="10.901324798637742"><ele>137.0</ele><time>2026-04-12T15:59:17Z</time></trkpt><trkpt lat="45.65441007584284" lon="10.901278473138715"><ele>137.0</ele><time>2026-04-12T15:59:18Z</time></trkpt><trkpt lat="45.65427192333833" lon="10.90122618729942"><ele>137.0</ele><time>2026-04-12T15:59:19Z</time></trkpt><trkpt lat="45.654121602812864" lon="10.90115846355544"><ele>138.33333333333331</ele><time>2026-04-12T15:59:20Z</time></trkpt><trkpt lat="45.6539567303115" lon="10.901067238247188"><ele>139.66666666666666</ele><time>2026-04-12T15:59:20.999Z</time></trkpt><trkpt lat="45.65379463199154" lon="10.900965354369642"><ele>141.0</ele><time>2026-04-12T15:59:21.999Z</time></trkpt><trkpt lat="45.65363411553798" lon="10.900848065780739"><ele>138.66666666666666</ele><time>2026-04-12T15:59:22.999Z</time></trkpt><trkpt lat="45.65347707325591" lon="10.900725074178947"><ele>136.33333333333331</ele><time>2026-04-12T15:59:23.999Z</time></trkpt><trkpt lat="45.65333062041065" lon="10.900608065588646"><ele>134.0</ele><time>2026-04-12T15:59:24.999Z</time></trkpt><trkpt lat="45.653183940193706" lon="10.900496927817725"><ele>134.0</ele><time>2026-04-12T15:59:25.999Z</time></trkpt><trkpt lat="45.65303225273634" lon="10.900372002220587"><ele>134.0</ele><time>2026-04-12T15:59:26.999Z</time></trkpt><trkpt lat="45.65287779330103" lon="10.900242044321846"><ele>134.0</ele><time>2026-04-12T15:59:27.999Z</time></trkpt><trkpt lat="45.65271816861181" lon="10.90011280867088"><ele>133.33333333333331</ele><time>2026-04-12T15:59:28.999Z</time></trkpt><trkpt lat="45.65256126476629" lon="10.899992558881564"><ele>132.66666666666666</ele><time>2026-04-12T15:59:29.999Z</time></trkpt><trkpt lat="45.65240313949469" lon="10.89985196278439"><ele>132.0</ele><time>2026-04-12T15:59:30.999Z</time></trkpt><trkpt lat="45.65226008721872" lon="10.899726497628793"><ele>132.0</ele><time>2026-04-12T15:59:31.999Z</time></trkpt><trkpt lat="45.65210121591821" lon="10.899589472959118"><ele>132.0</ele><time>2026-04-12T15:59:32.999Z</time></trkpt><trkpt lat="45.651937472090836" lon="10.899472755650725"><ele>132.0</ele><time>2026-04-12T15:59:33.999Z</time></trkpt><trkpt lat="45.65177369152317" lon="10.899339437054367"><ele>130.66666666666666</ele><time>2026-04-12T15:59:34.999Z</time></trkpt><trkpt lat="45.651605436996824" lon="10.899207131097658"><ele>129.33333333333331</ele><time>2026-04-12T15:59:35.999Z</time></trkpt><trkpt lat="45.651437796532534" lon="10.89908161925676"><ele>128.0</ele><time>2026-04-12T15:59:36.999Z</time></trkpt><trkpt lat="45.65125151467458" lon="10.898965053880582"><ele>133.0</ele><time>2026-04-12T15:59:37.999Z</time></trkpt><trkpt lat="45.65106938819693" lon="10.898845666014587"><ele>138.0</ele><time>2026-04-12T15:59:38.999Z</time></trkpt><trkpt lat="45.650882132571155" lon="10.898729874656308"><ele>143.0</ele><time>2026-04-12T15:59:39.999Z</time></trkpt><trkpt lat="45.650692163876364" lon="10.898615082659555"><ele>143.0</ele><time>2026-04-12T15:59:40.999Z</time></trkpt><trkpt lat="45.650500954412685" lon="10.898504890975987"><ele>143.0</ele><time>2026-04-12T15:59:41.999Z</time></trkpt><trkpt lat="45.65030513873536" lon="10.898392573642287"><ele>143.0</ele><time>2026-04-12T15:59:42.999Z</time></trkpt><trkpt lat="45.65010955445986" lon="10.89828575228894"><ele>138.66666666666666</ele><time>2026-04-12T15:59:43.999Z</time></trkpt><trkpt lat="45.64991283792773" lon="10.898177569163796"><ele>134.33333333333334</ele><time>2026-04-12T15:59:44.999Z</time></trkpt><trkpt lat="45.6497180789934" lon="10.898067766346218"><ele>130.0</ele><time>2026-04-12T15:59:45.999Z</time></trkpt><trkpt lat="45.64951833926961" lon="10.89795620463893"><ele>134.0</ele><time>2026-04-12T15:59:46.999Z</time></trkpt><trkpt lat="45.64931896058312" lon="10.897842355432022"><ele>138.0</ele><time>2026-04-12T15:59:47.999Z</time></trkpt><trkpt lat="45.64912267614447" lon="10.89772918269941"><ele>142.0</ele><time>2026-04-12T15:59:48.999Z</time></trkpt><trkpt lat="45.64893242446467" lon="10.897614309596785"><ele>139.66666666666669</ele><time>2026-04-12T15:59:49.999Z</time></trkpt><trkpt lat="45.64874344827319" lon="10.897493782966269"><ele>137.33333333333334</ele><time>2026-04-12T15:59:50.999Z</time></trkpt><trkpt lat="45.64855605612232" lon="10.89736468491207"><ele>135.0</ele><time>2026-04-12T15:59:51.999Z</time></trkpt><trkpt lat="45.64837070410641" lon="10.897233654120704"><ele>135.0</ele><time>2026-04-12T15:59:52.999Z</time></trkpt><trkpt lat="45.64818965960324" lon="10.897101579786687"><ele>135.0</ele><time>2026-04-12T15:59:53.999Z</time></trkpt><trkpt lat="45.64801266989063" lon="10.896963851866323"><ele>135.0</ele><time>2026-04-12T15:59:54.999Z</time></trkpt><trkpt lat="45.647839121637965" lon="10.896820213671504"><ele>134.33333333333334</ele><time>2026-04-12T15:59:55.999Z</time></trkpt><trkpt lat="45.64766585451338" lon="10.896672717818312"><ele>133.66666666666669</ele><time>2026-04-12T15:59:56.999Z</time></trkpt><trkpt lat="45.64749873793933" lon="10.896522722763999"><ele>133.0</ele><time>2026-04-12T15:59:57.999Z</time></trkpt><trkpt lat="45.64733915783633" lon="10.896374547188337"><ele>133.0</ele><time>2026-04-12T15:59:58.999Z</time></trkpt><trkpt lat="45.64718717914434" lon="10.896231001829904"><ele>133.0</ele><time>2026-04-12T15:59:59.999Z</time></trkpt><trkpt lat="45.64703986515738" lon="10.896096111872751"><ele>133.0</ele><time>2026-04-12T16:00:00.999Z</time></trkpt><trkpt lat="45.646895337427104" lon="10.895955329502222"><ele>132.33333333333334</ele><time>2026-04-12T16:00:01.999Z</time></trkpt><trkpt lat="45.646752258945554" lon="10.89580256104464"><ele>131.66666666666666</ele><time>2026-04-12T16:00:02.999Z</time></trkpt><trkpt lat="45.646614132679076" lon="10.895636418655311"><ele>131.0</ele><time>2026-04-12T16:00:03.999Z</time></trkpt><trkpt lat="45.6464819847346" lon="10.895456352654202"><ele>131.0</ele><time>2026-04-12T16:00:04.999Z</time></trkpt><trkpt lat="45.64634755065725" lon="10.895264937056965"><ele>131.0</ele><time>2026-04-12T16:00:05.999Z</time></trkpt><trkpt lat="45.64621535803502" lon="10.895062672173077"><ele>131.0</ele><time>2026-04-12T16:00:06.999Z</time></trkpt><trkpt lat="45.646087811256294" lon="10.894850882977812"><ele>129.66666666666666</ele><time>2026-04-12T16:00:07.999Z</time></trkpt><trkpt lat="45.64596542624056" lon="10.89462882146848"><ele>128.33333333333334</ele><time>2026-04-12T16:00:08.999Z</time></trkpt><trkpt lat="45.64584679453188" lon="10.894397017464154"><ele>127.0</ele><time>2026-04-12T16:00:09.999Z</time></trkpt><trkpt lat="45.64573321104239" lon="10.894160126605712"><ele>127.0</ele><time>2026-04-12T16:00:10.999Z</time></trkpt><trkpt lat="45.645626853843446" lon="10.893917716886603"><ele>127.0</ele><time>2026-04-12T16:00:11.999Z</time></trkpt><trkpt lat="45.645529041914585" lon="10.893666552390895"><ele>127.0</ele><time>2026-04-12T16:00:12.999Z</time></trkpt><trkpt lat="45.645434814674815" lon="10.89341680675843"><ele>125.66666666666667</ele><time>2026-04-12T16:00:13.999Z</time></trkpt><trkpt lat="45.64534651069049" lon="10.893167278620863"><ele>124.33333333333334</ele><time>2026-04-12T16:00:14.999Z</time></trkpt><trkpt lat="45.64525603084431" lon="10.892917092076123"><ele>123.0</ele><time>2026-04-12T16:00:15.999Z</time></trkpt><trkpt lat="45.64516190582993" lon="10.89267043237977"><ele>126.0</ele><time>2026-04-12T16:00:16.998Z</time></trkpt><trkpt lat="45.64506938642171" lon="10.892420002463629"><ele>129.0</ele><time>2026-04-12T16:00:17.998Z</time></trkpt><trkpt lat="45.64497228867782" lon="10.89217405591439"><ele>132.0</ele><time>2026-04-12T16:00:18.998Z</time></trkpt><trkpt lat="45.64486470854219" lon="10.89193710624697"><ele>130.66666666666666</ele><time>2026-04-12T16:00:19.998Z</time></trkpt><trkpt lat="45.64474170663673" lon="10.891716794707166"><ele>129.33333333333331</ele><time>2026-04-12T16:00:20.998Z</time></trkpt><trkpt lat="45.64460769735174" lon="10.89150460954328"><ele>128.0</ele><time>2026-04-12T16:00:21.998Z</time></trkpt><trkpt lat="45.644464566515936" lon="10.891302735058625"><ele>129.0</ele><time>2026-04-12T16:00:22.998Z</time></trkpt><trkpt lat="45.644313825268874" lon="10.891108557889629"><ele>130.0</ele><time>2026-04-12T16:00:23.998Z</time></trkpt><trkpt lat="45.64416890364586" lon="10.890919653475175"><ele>131.0</ele><time>2026-04-12T16:00:24.998Z</time></trkpt><trkpt lat="45.64402612841326" lon="10.890739773435934"><ele>131.0</ele><time>2026-04-12T16:00:25.998Z</time></trkpt><trkpt lat="45.643875687709304" lon="10.89057524317591"><ele>131.0</ele><time>2026-04-12T16:00:26.998Z</time></trkpt><trkpt lat="45.64371365229049" lon="10.890427795256036"><ele>131.0</ele><time>2026-04-12T16:00:27.998Z</time></trkpt><trkpt lat="45.643546077875214" lon="10.890300184006916"><ele>132.33333333333331</ele><time>2026-04-12T16:00:28.998Z</time></trkpt><trkpt lat="45.6433674126419" lon="10.890189758224476"><ele>133.66666666666666</ele><time>2026-04-12T16:00:29.998Z</time></trkpt><trkpt lat="45.64318009873128" lon="10.89009631153142"><ele>135.0</ele><time>2026-04-12T16:00:30.998Z</time></trkpt><trkpt lat="45.642986145639874" lon="10.890025169627942"><ele>136.0</ele><time>2026-04-12T16:00:31.998Z</time></trkpt><trkpt lat="45.6427910976291" lon="10.889977444805439"><ele>137.0</ele><time>2026-04-12T16:00:32.998Z</time></trkpt><trkpt lat="45.64259482806831" lon="10.889944468746709"><ele>138.0</ele><time>2026-04-12T16:00:33.998Z</time></trkpt><trkpt lat="45.64240203390061" lon="10.889923920108647"><ele>138.0</ele><time>2026-04-12T16:00:34.998Z</time></trkpt><trkpt lat="45.64221502250713" lon="10.889907947154466"><ele>138.0</ele><time>2026-04-12T16:00:35.998Z</time></trkpt><trkpt lat="45.64203280280945" lon="10.8898929819616"><ele>138.0</ele><time>2026-04-12T16:00:36.998Z</time></trkpt><trkpt lat="45.64185002964955" lon="10.889874486575287"><ele>138.33333333333334</ele><time>2026-04-12T16:00:37.998Z</time></trkpt><trkpt lat="45.64166377643277" lon="10.88985090629527"><ele>138.66666666666669</ele><time>2026-04-12T16:00:38.998Z</time></trkpt><trkpt lat="45.64147837013295" lon="10.889814935108221"><ele>139.0</ele><time>2026-04-12T16:00:39.998Z</time></trkpt><trkpt lat="45.64129000471522" lon="10.889745809346936"><ele>140.33333333333334</ele><time>2026-04-12T16:00:40.998Z</time></trkpt><trkpt lat="45.641107280377774" lon="10.88965428086724"><ele>141.66666666666666</ele><time>2026-04-12T16:00:41.998Z</time></trkpt><trkpt lat="45.640934496757815" lon="10.889532407698361"><ele>143.0</ele><time>2026-04-12T16:00:42.998Z</time></trkpt><trkpt lat="45.64076441538764" lon="10.889389574411913"><ele>142.66666666666666</ele><time>2026-04-12T16:00:44Z</time></trkpt><trkpt lat="45.64059820792631" lon="10.889242307143613"><ele>142.33333333333334</ele><time>2026-04-12T16:00:45Z</time></trkpt><trkpt lat="45.64043260313458" lon="10.889101486438088"><ele>142.0</ele><time>2026-04-12T16:00:46Z</time></trkpt><trkpt lat="45.64027368606183" lon="10.888975377472924"><ele>142.0</ele><time>2026-04-12T16:00:47Z</time></trkpt><trkpt lat="45.64012073532753" lon="10.888851456235995"><ele>142.0</ele><time>2026-04-12T16:00:48Z</time></trkpt><trkpt lat="45.63997960670575" lon="10.888725921009407"><ele>142.0</ele><time>2026-04-12T16:00:49Z</time></trkpt><trkpt lat="45.63984305746752" lon="10.888586277987452"><ele>138.33333333333334</ele><time>2026-04-12T16:00:50Z</time></trkpt><trkpt lat="45.639715812210945" lon="10.888415653907483"><ele>134.66666666666666</ele><time>2026-04-12T16:00:51Z</time></trkpt><trkpt lat="45.63960695114113" lon="10.888216132983358"><ele>131.0</ele><time>2026-04-12T16:00:52Z</time></trkpt><trkpt lat="45.63951735099352" lon="10.887988232264075"><ele>133.33333333333331</ele><time>2026-04-12T16:00:53Z</time></trkpt><trkpt lat="45.639433704997224" lon="10.887739951592241"><ele>135.66666666666666</ele><time>2026-04-12T16:00:54Z</time></trkpt><trkpt lat="45.6393402123562" lon="10.887492530267437"><ele>138.0</ele><time>2026-04-12T16:00:55Z</time></trkpt><trkpt lat="45.63924647726456" lon="10.887247121063885"><ele>138.0</ele><time>2026-04-12T16:00:56Z</time></trkpt><trkpt lat="45.63914786233869" lon="10.887018970426674"><ele>138.0</ele><time>2026-04-12T16:00:57Z</time></trkpt><trkpt lat="45.639034054227245" lon="10.88681556531837"><ele>138.0</ele><time>2026-04-12T16:00:58Z</time></trkpt><trkpt lat="45.638902616078504" lon="10.88663363928218"><ele>138.0</ele><time>2026-04-12T16:00:59Z</time></trkpt><trkpt lat="45.63875251608855" lon="10.886477646044716"><ele>138.0</ele><time>2026-04-12T16:01:00Z</time></trkpt><trkpt lat="45.6385871501875" lon="10.886348559156303"><ele>138.0</ele><time>2026-04-12T16:01:01Z</time></trkpt><trkpt lat="45.63841659782729" lon="10.886234851068098"><ele>138.0</ele><time>2026-04-12T16:01:02Z</time></trkpt><trkpt lat="45.638249153874035" lon="10.88611633400601"><ele>138.0</ele><time>2026-04-12T16:01:03Z</time></trkpt><trkpt lat="45.638089362495926" lon="10.88597504073168"><ele>138.0</ele><time>2026-04-12T16:01:04Z</time></trkpt><trkpt lat="45.63794113039154" lon="10.88580810257789"><ele>138.66666666666666</ele><time>2026-04-12T16:01:05Z</time></trkpt><trkpt lat="45.63780199154797" lon="10.885621548335616"><ele>139.33333333333331</ele><time>2026-04-12T16:01:06Z</time></trkpt><trkpt lat="45.63766934514735" lon="10.885426331618774"><ele>140.0</ele><time>2026-04-12T16:01:07Z</time></trkpt><trkpt lat="45.63753482000389" lon="10.885232670295432"><ele>137.33333333333331</ele><time>2026-04-12T16:01:08Z</time></trkpt><trkpt lat="45.63740079915898" lon="10.885041772141246"><ele>134.66666666666666</ele><time>2026-04-12T16:01:09Z</time></trkpt><trkpt lat="45.63726697133452" lon="10.88485701867684"><ele>132.0</ele><time>2026-04-12T16:01:10Z</time></trkpt><trkpt lat="45.63712830433073" lon="10.884685184429832"><ele>132.0</ele><time>2026-04-12T16:01:11Z</time></trkpt><trkpt lat="45.63698160877859" lon="10.884528140429936"><ele>132.0</ele><time>2026-04-12T16:01:12Z</time></trkpt><trkpt lat="45.63682549577899" lon="10.884385801684159"><ele>132.0</ele><time>2026-04-12T16:01:13Z</time></trkpt><trkpt lat="45.636660234322285" lon="10.884257964011528"><ele>132.33333333333334</ele><time>2026-04-12T16:01:14Z</time></trkpt><trkpt lat="45.63649956639173" lon="10.884123082220576"><ele>132.66666666666669</ele><time>2026-04-12T16:01:15Z</time></trkpt><trkpt lat="45.636347356809004" lon="10.883966832438912"><ele>133.0</ele><time>2026-04-12T16:01:16Z</time></trkpt><trkpt lat="45.63620923591531" lon="10.883790444700857"><ele>132.33333333333334</ele><time>2026-04-12T16:01:17Z</time></trkpt><trkpt lat="45.63608173170023" lon="10.883597715780374"><ele>131.66666666666666</ele><time>2026-04-12T16:01:18Z</time></trkpt><trkpt lat="45.63596128179345" lon="10.88339187735943"><ele>131.0</ele><time>2026-04-12T16:01:19Z</time></trkpt><trkpt lat="45.63584647551005" lon="10.883172844181857"><ele>131.0</ele><time>2026-04-12T16:01:20Z</time></trkpt><trkpt lat="45.63573285880908" lon="10.882952122988629"><ele>131.0</ele><time>2026-04-12T16:01:21Z</time></trkpt><trkpt lat="45.635617117437754" lon="10.882744397991091"><ele>131.0</ele><time>2026-04-12T16:01:22Z</time></trkpt><trkpt lat="45.63551353792788" lon="10.88253674888616"><ele>131.66666666666666</ele><time>2026-04-12T16:01:23Z</time></trkpt><trkpt lat="45.63541800525398" lon="10.88231275249161"><ele>132.33333333333334</ele><time>2026-04-12T16:01:24Z</time></trkpt><trkpt lat="45.635330906676366" lon="10.882090640422776"><ele>133.0</ele><time>2026-04-12T16:01:25Z</time></trkpt><trkpt lat="45.63524912541923" lon="10.8818802469828"><ele>132.0</ele><time>2026-04-12T16:01:25.999Z</time></trkpt><trkpt lat="45.63516813895981" lon="10.881669983825613"><ele>131.0</ele><time>2026-04-12T16:01:26.999Z</time></trkpt><trkpt lat="45.63508068289117" lon="10.881452445217331"><ele>130.0</ele><time>2026-04-12T16:01:27.999Z</time></trkpt><trkpt lat="45.634982393547524" lon="10.881241135876307"><ele>130.0</ele><time>2026-04-12T16:01:28.999Z</time></trkpt><trkpt lat="45.6348659093468" lon="10.88104483023301"><ele>130.0</ele><time>2026-04-12T16:01:29.999Z</time></trkpt><trkpt lat="45.634729493018526" lon="10.880868265418261"><ele>130.0</ele><time>2026-04-12T16:01:30.999Z</time></trkpt><trkpt lat="45.634576989155214" lon="10.880708050923957"><ele>129.33333333333334</ele><time>2026-04-12T16:01:31.999Z</time></trkpt><trkpt lat="45.634412162364065" lon="10.880559406888315"><ele>128.66666666666666</ele><time>2026-04-12T16:01:32.999Z</time></trkpt><trkpt lat="45.634243276539" lon="10.880421291187005"><ele>128.0</ele><time>2026-04-12T16:01:33.999Z</time></trkpt><trkpt lat="45.63406441878083" lon="10.880304537501988"><ele>128.0</ele><time>2026-04-12T16:01:34.999Z</time></trkpt><trkpt lat="45.6338810318896" lon="10.880204086925003"><ele>128.0</ele><time>2026-04-12T16:01:35.999Z</time></trkpt><trkpt lat="45.6336883151381" lon="10.880124758333904"><ele>128.0</ele><time>2026-04-12T16:01:36.999Z</time></trkpt><trkpt lat="45.633492574864526" lon="10.880064550608399"><ele>127.0</ele><time>2026-04-12T16:01:37.999Z</time></trkpt><trkpt lat="45.63329502740603" lon="10.880018241160156"><ele>126.0</ele><time>2026-04-12T16:01:38.999Z</time></trkpt><trkpt lat="45.633093510661425" lon="10.879968637224767"><ele>125.0</ele><time>2026-04-12T16:01:39.999Z</time></trkpt><trkpt lat="45.63289532300422" lon="10.87992659517076"><ele>126.33333333333333</ele><time>2026-04-12T16:01:40.999Z</time></trkpt><trkpt lat="45.63269842811895" lon="10.879881555321356"><ele>127.66666666666666</ele><time>2026-04-12T16:01:41.999Z</time></trkpt><trkpt lat="45.632510724282646" lon="10.87982298082624"><ele>129.0</ele><time>2026-04-12T16:01:42.999Z</time></trkpt><trkpt lat="45.6323275066885" lon="10.879753919075103"><ele>129.0</ele><time>2026-04-12T16:01:43.999Z</time></trkpt><trkpt lat="45.632150132891915" lon="10.879676069673618"><ele>129.0</ele><time>2026-04-12T16:01:44.999Z</time></trkpt><trkpt lat="45.63197733846224" lon="10.879588394960837"><ele>129.0</ele><time>2026-04-12T16:01:45.999Z</time></trkpt><trkpt lat="45.631804509087985" lon="10.879486671993423"><ele>127.33333333333334</ele><time>2026-04-12T16:01:46.999Z</time></trkpt><trkpt lat="45.63163275056448" lon="10.879370954295315"><ele>125.66666666666667</ele><time>2026-04-12T16:01:47.999Z</time></trkpt><trkpt lat="45.631461133604844" lon="10.879235105191329"><ele>124.0</ele><time>2026-04-12T16:01:48.999Z</time></trkpt><trkpt lat="45.63129342791537" lon="10.879090857778769"><ele>131.66666666666669</ele><time>2026-04-12T16:01:49.999Z</time></trkpt><trkpt lat="45.631124369183816" lon="10.878947918555049"><ele>139.33333333333334</ele><time>2026-04-12T16:01:50.999Z</time></trkpt><trkpt lat="45.630959204625796" lon="10.878804842256812"><ele>147.0</ele><time>2026-04-12T16:01:51.999Z</time></trkpt><trkpt lat="45.630801101878916" lon="10.878659569161435"><ele>147.0</ele><time>2026-04-12T16:01:52.999Z</time></trkpt><trkpt lat="45.630643468662036" lon="10.87852255989306"><ele>147.0</ele><time>2026-04-12T16:01:53.999Z</time></trkpt><trkpt lat="45.63048421539403" lon="10.878393570550092"><ele>147.0</ele><time>2026-04-12T16:01:54.999Z</time></trkpt><trkpt lat="45.63032330520557" lon="10.878262410742193"><ele>146.33333333333334</ele><time>2026-04-12T16:01:55.999Z</time></trkpt><trkpt lat="45.63015951286465" lon="10.878129370605798"><ele>145.66666666666669</ele><time>2026-04-12T16:01:56.999Z</time></trkpt><trkpt lat="45.62999637491333" lon="10.877992087080413"><ele>145.0</ele><time>2026-04-12T16:01:57.999Z</time></trkpt><trkpt lat="45.62982608914201" lon="10.877837169369279"><ele>145.0</ele><time>2026-04-12T16:01:58.999Z</time></trkpt><trkpt lat="45.62964012844786" lon="10.877630116777485"><ele>145.0</ele><time>2026-04-12T16:01:59.999Z</time></trkpt><trkpt lat="45.62943419988151" lon="10.877412223930094"><ele>144.0</ele><time>2026-04-12T16:02:00.999Z</time></trkpt><trkpt lat="45.629211747056175" lon="10.877185907636333"><ele>143.0</ele><time>2026-04-12T16:02:01.999Z</time></trkpt><trkpt lat="45.62899922756814" lon="10.876908373727469"><ele>137.5</ele><time>2026-04-12T16:02:02.999Z</time></trkpt><trkpt lat="45.62878418061477" lon="10.876620751287888"><ele>132.0</ele><time>2026-04-12T16:02:03.999Z</time></trkpt><trkpt lat="45.628577897231914" lon="10.876302234864133"><ele>132.0</ele><time>2026-04-12T16:02:04.999Z</time></trkpt><trkpt lat="45.62837530654175" lon="10.875969010755844"><ele>132.0</ele><time>2026-04-12T16:02:05.999Z</time></trkpt><trkpt lat="45.62817617081874" lon="10.875632013942424"><ele>126.5</ele><time>2026-04-12T16:02:06.999Z</time></trkpt><trkpt lat="45.62799147009886" lon="10.875317542187572"><ele>121.0</ele><time>2026-04-12T16:02:07.999Z</time></trkpt><trkpt lat="45.627813519415675" lon="10.875016326607238"><ele>125.0</ele><time>2026-04-12T16:02:08.999Z</time></trkpt><trkpt lat="45.62763962570292" lon="10.874731014899414"><ele>129.0</ele><time>2026-04-12T16:02:09.999Z</time></trkpt><trkpt lat="45.62746192438814" lon="10.874449564787868"><ele>123.5</ele><time>2026-04-12T16:02:10.999Z</time></trkpt><trkpt lat="45.627274037508116" lon="10.874187277241274"><ele>118.0</ele><time>2026-04-12T16:02:11.999Z</time></trkpt><trkpt lat="45.62707128639084" lon="10.87394158995393"><ele>124.5</ele><time>2026-04-12T16:02:12.999Z</time></trkpt><trkpt lat="45.626854679145794" lon="10.873712189682621"><ele>131.0</ele><time>2026-04-12T16:02:13.999Z</time></trkpt><trkpt lat="45.626624401605476" lon="10.873513446920361"><ele>126.0</ele><time>2026-04-12T16:02:14.999Z</time></trkpt><trkpt lat="45.62639125260105" lon="10.873310672879478"><ele>121.0</ele><time>2026-04-12T16:02:15.999Z</time></trkpt><trkpt lat="45.626151092266326" lon="10.873118573136898"><ele>126.5</ele><time>2026-04-12T16:02:16.999Z</time></trkpt><trkpt lat="45.62591416783063" lon="10.872917325622458"><ele>132.0</ele><time>2026-04-12T16:02:17.999Z</time></trkpt><trkpt lat="45.625674056046876" lon="10.872714157775484"><ele>130.0</ele><time>2026-04-12T16:02:18.999Z</time></trkpt><trkpt lat="45.62543459855014" lon="10.872512741132278"><ele>128.0</ele><time>2026-04-12T16:02:19.999Z</time></trkpt><trkpt lat="45.62519407771245" lon="10.87231860667677"><ele>128.0</ele><time>2026-04-12T16:02:20.999Z</time></trkpt><trkpt lat="45.624955172415184" lon="10.872124945774177"><ele>128.0</ele><time>2026-04-12T16:02:21.998Z</time></trkpt><trkpt lat="45.62471793042544" lon="10.871918158614308"><ele>130.0</ele><time>2026-04-12T16:02:22.998Z</time></trkpt><trkpt lat="45.62448299034092" lon="10.871692437417526"><ele>132.0</ele><time>2026-04-12T16:02:23.998Z</time></trkpt><trkpt lat="45.62425395962607" lon="10.871447403186567"><ele>132.0</ele><time>2026-04-12T16:02:24.998Z</time></trkpt><trkpt lat="45.6240353621838" lon="10.871184344832091"><ele>132.0</ele><time>2026-04-12T16:02:25.998Z</time></trkpt><trkpt lat="45.623822513840246" lon="10.870913005990786"><ele>132.0</ele><time>2026-04-12T16:02:26.998Z</time></trkpt><trkpt lat="45.623613123165796" lon="10.870642302178165"><ele>132.0</ele><time>2026-04-12T16:02:27.998Z</time></trkpt><trkpt lat="45.62339973515103" lon="10.87038385865118"><ele>132.0</ele><time>2026-04-12T16:02:28.998Z</time></trkpt><trkpt lat="45.623175961233834" lon="10.870138955889114"><ele>132.0</ele><time>2026-04-12T16:02:29.998Z</time></trkpt><trkpt lat="45.622947529966034" lon="10.869909644152122"><ele>133.0</ele><time>2026-04-12T16:02:30.998Z</time></trkpt><trkpt lat="45.62272314698333" lon="10.869684956141526"><ele>134.0</ele><time>2026-04-12T16:02:31.998Z</time></trkpt><trkpt lat="45.62249821433493" lon="10.869467031568613"><ele>126.0</ele><time>2026-04-12T16:02:32.998Z</time></trkpt><trkpt lat="45.622275322174964" lon="10.869258504022676"><ele>118.0</ele><time>2026-04-12T16:02:33.998Z</time></trkpt><trkpt lat="45.622054815456764" lon="10.86905302951561"><ele>126.5</ele><time>2026-04-12T16:02:34.998Z</time></trkpt><trkpt lat="45.6218393553451" lon="10.868854939235323"><ele>135.0</ele><time>2026-04-12T16:02:35.998Z</time></trkpt><trkpt lat="45.621625750899206" lon="10.868659322039342"><ele>135.0</ele><time>2026-04-12T16:02:36.998Z</time></trkpt><trkpt lat="45.62141646160794" lon="10.868446286977424"><ele>135.0</ele><time>2026-04-12T16:02:37.998Z</time></trkpt><trkpt lat="45.62119938629548" lon="10.868249383610449"><ele>135.0</ele><time>2026-04-12T16:02:38.998Z</time></trkpt><trkpt lat="45.62097855403991" lon="10.868058652862223"><ele>135.0</ele><time>2026-04-12T16:02:39.998Z</time></trkpt><trkpt lat="45.62077773824218" lon="10.867824665812247"><ele>127.0</ele><time>2026-04-12T16:02:40.998Z</time></trkpt><trkpt lat="45.620583187458955" lon="10.867575816489936"><ele>119.0</ele><time>2026-04-12T16:02:41.998Z</time></trkpt><trkpt lat="45.62039161754046" lon="10.867322536685"><ele>128.5</ele><time>2026-04-12T16:02:42.998Z</time></trkpt><trkpt lat="45.62020675675842" lon="10.867062554039657"><ele>138.0</ele><time>2026-04-12T16:02:43.998Z</time></trkpt><trkpt lat="45.620028809279866" lon="10.866796132333228"><ele>130.0</ele><time>2026-04-12T16:02:44.998Z</time></trkpt><trkpt lat="45.61985766057452" lon="10.866527649833516"><ele>122.0</ele><time>2026-04-12T16:02:45.998Z</time></trkpt><trkpt lat="45.61969703627371" lon="10.866262140239687"><ele>122.0</ele><time>2026-04-12T16:02:46.998Z</time></trkpt><trkpt lat="45.61953305290068" lon="10.866001114570562"><ele>122.0</ele><time>2026-04-12T16:02:47.998Z</time></trkpt><trkpt lat="45.61937663047215" lon="10.865740540749401"><ele>125.5</ele><time>2026-04-12T16:02:48.998Z</time></trkpt><trkpt lat="45.61922276933337" lon="10.865480852772198"><ele>129.0</ele><time>2026-04-12T16:02:50Z</time></trkpt><trkpt lat="45.619083275408194" lon="10.865240183339713"><ele>128.66666666666666</ele><time>2026-04-12T16:02:51Z</time></trkpt><trkpt lat="45.61894319099273" lon="10.865023384217858"><ele>128.33333333333331</ele><time>2026-04-12T16:02:52Z</time></trkpt><trkpt lat="45.61878474298478" lon="10.864831626145214"><ele>128.0</ele><time>2026-04-12T16:02:53Z</time></trkpt><trkpt lat="45.61859284979597" lon="10.864661566232451"><ele>128.0</ele><time>2026-04-12T16:02:54Z</time></trkpt><trkpt lat="45.61837598313858" lon="10.864512817501716"><ele>128.0</ele><time>2026-04-12T16:02:55Z</time></trkpt><trkpt lat="45.61815223496729" lon="10.864350582606786"><ele>126.5</ele><time>2026-04-12T16:02:56Z</time></trkpt><trkpt lat="45.61791813276579" lon="10.864175952864287"><ele>125.0</ele><time>2026-04-12T16:02:57Z</time></trkpt><trkpt lat="45.61768474742908" lon="10.863996001487527"><ele>125.0</ele><time>2026-04-12T16:02:58Z</time></trkpt><trkpt lat="45.61745195867326" lon="10.863815658701379"><ele>125.0</ele><time>2026-04-12T16:02:59Z</time></trkpt><trkpt lat="45.61722160793276" lon="10.86364372802022"><ele>125.0</ele><time>2026-04-12T16:03:00Z</time></trkpt><trkpt lat="45.61699334109381" lon="10.863483870923236"><ele>125.0</ele><time>2026-04-12T16:03:01Z</time></trkpt><trkpt lat="45.61676167986746" lon="10.863345191228944"><ele>123.0</ele><time>2026-04-12T16:03:02Z</time></trkpt><trkpt lat="45.61652503456173" lon="10.863230755028875"><ele>121.0</ele><time>2026-04-12T16:03:03Z</time></trkpt><trkpt lat="45.61628539633833" lon="10.86312672413307"><ele>123.5</ele><time>2026-04-12T16:03:04Z</time></trkpt><trkpt lat="45.616048228061025" lon="10.863011447779863"><ele>126.0</ele><time>2026-04-12T16:03:05Z</time></trkpt><trkpt lat="45.61583118580103" lon="10.862859784214377"><ele>126.0</ele><time>2026-04-12T16:03:06Z</time></trkpt><trkpt lat="45.615631613818096" lon="10.862668570446175"><ele>126.0</ele><time>2026-04-12T16:03:07Z</time></trkpt><trkpt lat="45.615440133381576" lon="10.862474950767682"><ele>125.0</ele><time>2026-04-12T16:03:08Z</time></trkpt><trkpt lat="45.61524601369748" lon="10.862301450449491"><ele>124.0</ele><time>2026-04-12T16:03:09Z</time></trkpt><trkpt lat="45.61504104671139" lon="10.862158092105377"><ele>124.0</ele><time>2026-04-12T16:03:10Z</time></trkpt><trkpt lat="45.61482786287089" lon="10.862042889700456"><ele>124.0</ele><time>2026-04-12T16:03:11Z</time></trkpt><trkpt lat="45.614607130330434" lon="10.861944377648543"><ele>127.0</ele><time>2026-04-12T16:03:12Z</time></trkpt><trkpt lat="45.614379215182645" lon="10.861874697004495"><ele>130.0</ele><time>2026-04-12T16:03:13Z</time></trkpt><trkpt lat="45.6141478222052" lon="10.861802253957832"><ele>125.0</ele><time>2026-04-12T16:03:14Z</time></trkpt><trkpt lat="45.61392383566259" lon="10.861695405556661"><ele>120.0</ele><time>2026-04-12T16:03:15Z</time></trkpt><trkpt lat="45.61371346747866" lon="10.861538122270332"><ele>123.0</ele><time>2026-04-12T16:03:16Z</time></trkpt><trkpt lat="45.613516259095874" lon="10.861358042027874"><ele>126.0</ele><time>2026-04-12T16:03:17Z</time></trkpt><trkpt lat="45.61333257206037" lon="10.861214676510372"><ele>129.0</ele><time>2026-04-12T16:03:18Z</time></trkpt><trkpt lat="45.613144516864" lon="10.861085221757392"><ele>129.0</ele><time>2026-04-12T16:03:19Z</time></trkpt><trkpt lat="45.612949841643854" lon="10.860959090087478"><ele>129.0</ele><time>2026-04-12T16:03:20Z</time></trkpt><trkpt lat="45.61275026705733" lon="10.860831120725548"><ele>129.0</ele><time>2026-04-12T16:03:21Z</time></trkpt><trkpt lat="45.612544883967956" lon="10.860700591157762"><ele>126.5</ele><time>2026-04-12T16:03:22Z</time></trkpt><trkpt lat="45.61233674516968" lon="10.860561088080702"><ele>124.0</ele><time>2026-04-12T16:03:23Z</time></trkpt><trkpt lat="45.612131876647034" lon="10.860401626233434"><ele>120.5</ele><time>2026-04-12T16:03:24Z</time></trkpt><trkpt lat="45.61193372628644" lon="10.86022039974846"><ele>117.0</ele><time>2026-04-12T16:03:25Z</time></trkpt><trkpt lat="45.611740571015844" lon="10.860025985487882"><ele>117.0</ele><time>2026-04-12T16:03:26Z</time></trkpt><trkpt lat="45.61154923395499" lon="10.859827221976111"><ele>117.0</ele><time>2026-04-12T16:03:27Z</time></trkpt><trkpt lat="45.61135619631213" lon="10.859631118091459"><ele>124.0</ele><time>2026-04-12T16:03:28Z</time></trkpt><trkpt lat="45.61115373896987" lon="10.85945680284524"><ele>131.0</ele><time>2026-04-12T16:03:29Z</time></trkpt><trkpt lat="45.610941937444025" lon="10.859294010204128"><ele>124.0</ele><time>2026-04-12T16:03:30Z</time></trkpt><trkpt lat="45.610724609798325" lon="10.859136275101758"><ele>117.0</ele><time>2026-04-12T16:03:30.999Z</time></trkpt><trkpt lat="45.61051420606033" lon="10.85895643307971"><ele>123.5</ele><time>2026-04-12T16:03:31.999Z</time></trkpt><trkpt lat="45.61031015382194" lon="10.858769939732156"><ele>130.0</ele><time>2026-04-12T16:03:32.999Z</time></trkpt><trkpt lat="45.61010565544373" lon="10.858579327011713"><ele>125.0</ele><time>2026-04-12T16:03:33.999Z</time></trkpt><trkpt lat="45.60991023113189" lon="10.858384880434745"><ele>120.0</ele><time>2026-04-12T16:03:34.999Z</time></trkpt><trkpt lat="45.60973304227244" lon="10.858192250626052"><ele>120.0</ele><time>2026-04-12T16:03:35.999Z</time></trkpt><trkpt lat="45.60957153551332" lon="10.857995383533018"><ele>120.0</ele><time>2026-04-12T16:03:36.999Z</time></trkpt><trkpt lat="45.60941963601686" lon="10.857812606788137"><ele>120.0</ele><time>2026-04-12T16:03:37.999Z</time></trkpt><trkpt lat="45.609261597047286" lon="10.857649616356444"><ele>118.33333333333334</ele><time>2026-04-12T16:03:38.999Z</time></trkpt><trkpt lat="45.609081432451084" lon="10.85750928197396"><ele>116.66666666666667</ele><time>2026-04-12T16:03:39.999Z</time></trkpt><trkpt lat="45.60888088002781" lon="10.857394536576225"><ele>115.0</ele><time>2026-04-12T16:03:40.999Z</time></trkpt><trkpt lat="45.60866391540344" lon="10.857304493245408"><ele>115.0</ele><time>2026-04-12T16:03:41.999Z</time></trkpt><trkpt lat="45.60843583832712" lon="10.857226520947002"><ele>115.0</ele><time>2026-04-12T16:03:42.999Z</time></trkpt><trkpt lat="45.60820395269713" lon="10.857149167158843"><ele>115.0</ele><time>2026-04-12T16:03:43.999Z</time></trkpt><trkpt lat="45.607970394158535" lon="10.857074810294275"><ele>115.0</ele><time>2026-04-12T16:03:44.999Z</time></trkpt><trkpt lat="45.60773649107508" lon="10.856996522071917"><ele>117.0</ele><time>2026-04-12T16:03:45.999Z</time></trkpt><trkpt lat="45.607504862030886" lon="10.856909289828623"><ele>119.0</ele><time>2026-04-12T16:03:46.999Z</time></trkpt><trkpt lat="45.60727948925327" lon="10.85680656459819"><ele>117.0</ele><time>2026-04-12T16:03:47.999Z</time></trkpt><trkpt lat="45.607062894827145" lon="10.856665453127254"><ele>115.0</ele><time>2026-04-12T16:03:48.999Z</time></trkpt><trkpt lat="45.60686048507663" lon="10.85648952573886"><ele>115.0</ele><time>2026-04-12T16:03:49.999Z</time></trkpt><trkpt lat="45.606661941020015" lon="10.856307584267238"><ele>115.0</ele><time>2026-04-12T16:03:50.999Z</time></trkpt><trkpt lat="45.60646193631573" lon="10.85613631355424"><ele>115.0</ele><time>2026-04-12T16:03:51.999Z</time></trkpt><trkpt lat="45.60626203693931" lon="10.855962592461777"><ele>115.0</ele><time>2026-04-12T16:03:52.999Z</time></trkpt><trkpt lat="45.60609595199609" lon="10.855741805166144"><ele>114.33333333333334</ele><time>2026-04-12T16:03:53.999Z</time></trkpt><trkpt lat="45.605930559325415" lon="10.855529005661312"><ele>113.66666666666666</ele><time>2026-04-12T16:03:54.999Z</time></trkpt><trkpt lat="45.6057885399911" lon="10.855279303934493"><ele>113.0</ele><time>2026-04-12T16:03:55.999Z</time></trkpt><trkpt lat="45.60566405688759" lon="10.855030446767174"><ele>113.0</ele><time>2026-04-12T16:03:56.999Z</time></trkpt><trkpt lat="45.605513359524885" lon="10.85480318335926"><ele>113.0</ele><time>2026-04-12T16:03:57.999Z</time></trkpt><trkpt lat="45.60534548120795" lon="10.854590885865548"><ele>113.0</ele><time>2026-04-12T16:03:58.999Z</time></trkpt><trkpt lat="45.6051655760133" lon="10.854388814399751"><ele>114.0</ele><time>2026-04-12T16:03:59.999Z</time></trkpt><trkpt lat="45.604981494128744" lon="10.854187758614813"><ele>115.0</ele><time>2026-04-12T16:04:00.999Z</time></trkpt><trkpt lat="45.60479542582821" lon="10.853979324844682"><ele>115.0</ele><time>2026-04-12T16:04:01.999Z</time></trkpt><trkpt lat="45.60461164887474" lon="10.853776593497818"><ele>115.0</ele><time>2026-04-12T16:04:02.999Z</time></trkpt><trkpt lat="45.6044278323097" lon="10.853576438213096"><ele>115.33333333333334</ele><time>2026-04-12T16:04:03.999Z</time></trkpt><trkpt lat="45.60425347332216" lon="10.853388088113741"><ele>115.66666666666666</ele><time>2026-04-12T16:04:04.999Z</time></trkpt><trkpt lat="45.60408090660569" lon="10.853214782624782"><ele>116.0</ele><time>2026-04-12T16:04:05.999Z</time></trkpt><trkpt lat="45.60389623792343" lon="10.853054233348905"><ele>116.0</ele><time>2026-04-12T16:04:06.999Z</time></trkpt><trkpt lat="45.60369928520158" lon="10.85291288501212"><ele>116.0</ele><time>2026-04-12T16:04:07.999Z</time></trkpt><trkpt lat="45.60349237640337" lon="10.85278377457622"><ele>116.0</ele><time>2026-04-12T16:04:08.999Z</time></trkpt><trkpt lat="45.603276394301744" lon="10.85266606894951"><ele>115.5</ele><time>2026-04-12T16:04:09.999Z</time></trkpt><trkpt lat="45.603052285023836" lon="10.8525568714993"><ele>115.0</ele><time>2026-04-12T16:04:10.999Z</time></trkpt><trkpt lat="45.602825696358195" lon="10.852441377725656"><ele>115.0</ele><time>2026-04-12T16:04:11.999Z</time></trkpt><trkpt lat="45.60259441577861" lon="10.852325781959932"><ele>115.0</ele><time>2026-04-12T16:04:12.999Z</time></trkpt><trkpt lat="45.6023617617474" lon="10.852205382201953"><ele>115.0</ele><time>2026-04-12T16:04:13.999Z</time></trkpt><trkpt lat="45.60212829386269" lon="10.852086004168717"><ele>115.0</ele><time>2026-04-12T16:04:14.999Z</time></trkpt><trkpt lat="45.6018962408309" lon="10.851957027057372"><ele>115.5</ele><time>2026-04-12T16:04:15.999Z</time></trkpt><trkpt lat="45.60167165799002" lon="10.851806539786665"><ele>116.0</ele><time>2026-04-12T16:04:16.999Z</time></trkpt><trkpt lat="45.60145365103436" lon="10.851636810774867"><ele>115.0</ele><time>2026-04-12T16:04:17.999Z</time></trkpt><trkpt lat="45.60123658609397" lon="10.85145649363781"><ele>114.0</ele><time>2026-04-12T16:04:18.999Z</time></trkpt><trkpt lat="45.60102023504078" lon="10.851279444567284"><ele>114.0</ele><time>2026-04-12T16:04:19.999Z</time></trkpt><trkpt lat="45.6008045518197" lon="10.851106635545001"><ele>114.0</ele><time>2026-04-12T16:04:20.999Z</time></trkpt><trkpt lat="45.60058967333683" lon="10.850937192278996"><ele>113.0</ele><time>2026-04-12T16:04:21.999Z</time></trkpt><trkpt lat="45.60038071466994" lon="10.850773081524402"><ele>112.0</ele><time>2026-04-12T16:04:22.999Z</time></trkpt><trkpt lat="45.60017438712432" lon="10.850617893753167"><ele>112.0</ele><time>2026-04-12T16:04:23.999Z</time></trkpt><trkpt lat="45.59996060853472" lon="10.850479645451083"><ele>112.0</ele><time>2026-04-12T16:04:24.999Z</time></trkpt><trkpt lat="45.599742794249984" lon="10.850356528753794"><ele>112.0</ele><time>2026-04-12T16:04:25.999Z</time></trkpt><trkpt lat="45.59951822141748" lon="10.850248083796657"><ele>112.0</ele><time>2026-04-12T16:04:26.999Z</time></trkpt><trkpt lat="45.59929733424705" lon="10.85011805442405"><ele>111.5</ele><time>2026-04-12T16:04:27.998Z</time></trkpt><trkpt lat="45.59907479849136" lon="10.850004303274421"><ele>111.0</ele><time>2026-04-12T16:04:28.998Z</time></trkpt><trkpt lat="45.59885173355664" lon="10.849895018385922"><ele>109.0</ele><time>2026-04-12T16:04:29.998Z</time></trkpt><trkpt lat="45.59859232094399" lon="10.849934402562758"><ele>107.0</ele><time>2026-04-12T16:04:30.998Z</time></trkpt><trkpt lat="45.59835349052511" lon="10.849895119738816"><ele>107.0</ele><time>2026-04-12T16:04:31.998Z</time></trkpt><trkpt lat="45.59810389930579" lon="10.849875318786047"><ele>107.0</ele><time>2026-04-12T16:04:32.998Z</time></trkpt><trkpt lat="45.59783777123033" lon="10.849877893856101"><ele>105.0</ele><time>2026-04-12T16:04:33.998Z</time></trkpt><trkpt lat="45.597546357360976" lon="10.849905150459104"><ele>103.0</ele><time>2026-04-12T16:04:34.998Z</time></trkpt><trkpt lat="45.59723780236736" lon="10.849956240620273"><ele>103.5</ele><time>2026-04-12T16:04:35.998Z</time></trkpt><trkpt lat="45.596911223603584" lon="10.850029771907437"><ele>104.0</ele><time>2026-04-12T16:04:36.998Z</time></trkpt><trkpt lat="45.59657615334558" lon="10.850118177157587"><ele>104.0</ele><time>2026-04-12T16:04:37.998Z</time></trkpt><trkpt lat="45.59627722478549" lon="10.850199569564358"><ele>104.0</ele><time>2026-04-12T16:04:38.998Z</time></trkpt><trkpt lat="45.596007622819165" lon="10.850276230763974"><ele>103.5</ele><time>2026-04-12T16:04:39.998Z</time></trkpt><trkpt lat="45.59575892311446" lon="10.850346114344946"><ele>103.0</ele><time>2026-04-12T16:04:40.998Z</time></trkpt><trkpt lat="45.59552155467839" lon="10.85040882453411"><ele>103.33333333333334</ele><time>2026-04-12T16:04:41.998Z</time></trkpt><trkpt lat="45.59530059961159" lon="10.850468592061338"><ele>103.66666666666666</ele><time>2026-04-12T16:04:42.998Z</time></trkpt><trkpt lat="45.59508864640116" lon="10.850519869794349"><ele>104.0</ele><time>2026-04-12T16:04:43.998Z</time></trkpt><trkpt lat="45.594869337061645" lon="10.850552970572565"><ele>104.0</ele><time>2026-04-12T16:04:44.998Z</time></trkpt><trkpt lat="45.594644434255216" lon="10.850564672863682"><ele>104.0</ele><time>2026-04-12T16:04:45.998Z</time></trkpt><trkpt lat="45.59441828723094" lon="10.850558929017648"><ele>104.5</ele><time>2026-04-12T16:04:46.998Z</time></trkpt><trkpt lat="45.594187524604806" lon="10.850523346033874"><ele>105.0</ele><time>2026-04-12T16:04:47.998Z</time></trkpt><trkpt lat="45.593953405568726" lon="10.850474209947986"><ele>105.0</ele><time>2026-04-12T16:04:48.998Z</time></trkpt><trkpt lat="45.59371753423496" lon="10.850398577881531"><ele>105.0</ele><time>2026-04-12T16:04:49.998Z</time></trkpt><trkpt lat="45.593478955089985" lon="10.850303239294304"><ele>105.0</ele><time>2026-04-12T16:04:50.998Z</time></trkpt><trkpt lat="45.59323826012057" lon="10.850181425202914"><ele>105.0</ele><time>2026-04-12T16:04:51.998Z</time></trkpt><trkpt lat="45.59299428301633" lon="10.850043697371374"><ele>110.0</ele><time>2026-04-12T16:04:52.998Z</time></trkpt><trkpt lat="45.59275207345939" lon="10.849900079635201"><ele>115.0</ele><time>2026-04-12T16:04:53.998Z</time></trkpt><trkpt lat="45.59250694668327" lon="10.849759988149534"><ele>115.0</ele><time>2026-04-12T16:04:54.998Z</time></trkpt><trkpt lat="45.59224783250636" lon="10.849619819197203"><ele>115.0</ele><time>2026-04-12T16:04:56Z</time></trkpt><trkpt lat="45.591988681193044" lon="10.849493123412447"><ele>111.0</ele><time>2026-04-12T16:04:57Z</time></trkpt><trkpt lat="45.5917339983947" lon="10.849378299281568"><ele>107.0</ele><time>2026-04-12T16:04:58Z</time></trkpt><trkpt lat="45.591489460129914" lon="10.849280838799357"><ele>107.0</ele><time>2026-04-12T16:04:59Z</time></trkpt><trkpt lat="45.59125156146078" lon="10.849180180322692"><ele>107.0</ele><time>2026-04-12T16:05:00Z</time></trkpt><trkpt lat="45.59103094741233" lon="10.849086120827684"><ele>109.33333333333333</ele><time>2026-04-12T16:05:01Z</time></trkpt><trkpt lat="45.590827126867566" lon="10.84898560341354"><ele>111.66666666666666</ele><time>2026-04-12T16:05:02Z</time></trkpt><trkpt lat="45.590651880338285" lon="10.848869863571764"><ele>114.0</ele><time>2026-04-12T16:05:03Z</time></trkpt><trkpt lat="45.590489594449075" lon="10.848719168534226"><ele>114.0</ele><time>2026-04-12T16:05:04Z</time></trkpt><trkpt lat="45.59034496681108" lon="10.848521386237618"><ele>114.0</ele><time>2026-04-12T16:05:05Z</time></trkpt><trkpt lat="45.59018551508537" lon="10.84830965360586"><ele>114.0</ele><time>2026-04-12T16:05:06Z</time></trkpt><trkpt lat="45.59001577842652" lon="10.848135142242107"><ele>113.0</ele><time>2026-04-12T16:05:07Z</time></trkpt><trkpt lat="45.58983245705813" lon="10.84800137900279"><ele>112.0</ele><time>2026-04-12T16:05:08Z</time></trkpt><trkpt lat="45.58963815441944" lon="10.847890330583692"><ele>111.0</ele><time>2026-04-12T16:05:09Z</time></trkpt><trkpt lat="45.58944295298375" lon="10.847787525176711"><ele>110.66666666666666</ele><time>2026-04-12T16:05:10Z</time></trkpt><trkpt lat="45.58924920320857" lon="10.847676878563616"><ele>110.33333333333333</ele><time>2026-04-12T16:05:11Z</time></trkpt><trkpt lat="45.589046996543296" lon="10.84757110688763"><ele>110.0</ele><time>2026-04-12T16:05:12Z</time></trkpt><trkpt lat="45.58882965413511" lon="10.84748499641487"><ele>112.66666666666666</ele><time>2026-04-12T16:05:13Z</time></trkpt><trkpt lat="45.588614834434495" lon="10.847402580262125"><ele>115.33333333333334</ele><time>2026-04-12T16:05:14Z</time></trkpt><trkpt lat="45.58840498939643" lon="10.847319238746563"><ele>118.0</ele><time>2026-04-12T16:05:15Z</time></trkpt><trkpt lat="45.58820177714707" lon="10.847198530871639"><ele>118.0</ele><time>2026-04-12T16:05:16Z</time></trkpt><trkpt lat="45.588005910418204" lon="10.847048717489422"><ele>118.0</ele><time>2026-04-12T16:05:17Z</time></trkpt><trkpt lat="45.58780810366646" lon="10.846888508113437"><ele>115.5</ele><time>2026-04-12T16:05:18Z</time></trkpt><trkpt lat="45.58760737654545" lon="10.846732898686785"><ele>113.0</ele><time>2026-04-12T16:05:19Z</time></trkpt><trkpt lat="45.587403123101794" lon="10.846578351182037"><ele>113.0</ele><time>2026-04-12T16:05:20Z</time></trkpt><trkpt lat="45.58719880241647" lon="10.846412493876338"><ele>113.0</ele><time>2026-04-12T16:05:21Z</time></trkpt><trkpt lat="45.586996254868865" lon="10.846236377745127"><ele>111.5</ele><time>2026-04-12T16:05:22Z</time></trkpt><trkpt lat="45.58679479714459" lon="10.846048625433081"><ele>110.0</ele><time>2026-04-12T16:05:23Z</time></trkpt><trkpt lat="45.586595494715326" lon="10.845862348354354"><ele>110.0</ele><time>2026-04-12T16:05:24Z</time></trkpt><trkpt lat="45.58639617093597" lon="10.845669952934204"><ele>110.0</ele><time>2026-04-12T16:05:25Z</time></trkpt><trkpt lat="45.586193419154164" lon="10.845473324628442"><ele>110.5</ele><time>2026-04-12T16:05:26Z</time></trkpt><trkpt lat="45.58598946660533" lon="10.845279845702937"><ele>111.0</ele><time>2026-04-12T16:05:27Z</time></trkpt><trkpt lat="45.58578637665621" lon="10.845089938688488"><ele>111.0</ele><time>2026-04-12T16:05:28Z</time></trkpt><trkpt lat="45.585585076800086" lon="10.844897741991662"><ele>111.0</ele><time>2026-04-12T16:05:29Z</time></trkpt><trkpt lat="45.5853842314669" lon="10.844700586689896"><ele>111.5</ele><time>2026-04-12T16:05:30Z</time></trkpt><trkpt lat="45.58518415381883" lon="10.844491153601947"><ele>112.0</ele><time>2026-04-12T16:05:31Z</time></trkpt><trkpt lat="45.58498572716873" lon="10.844283902439054"><ele>112.0</ele><time>2026-04-12T16:05:32Z</time></trkpt><trkpt lat="45.58479040718401" lon="10.844077484046165"><ele>112.0</ele><time>2026-04-12T16:05:33Z</time></trkpt><trkpt lat="45.5845950899036" lon="10.843867731578312"><ele>116.0</ele><time>2026-04-12T16:05:34Z</time></trkpt><trkpt lat="45.58440712736698" lon="10.843646745133489"><ele>120.0</ele><time>2026-04-12T16:05:35Z</time></trkpt><trkpt lat="45.584231017306834" lon="10.843406738083724"><ele>120.0</ele><time>2026-04-12T16:05:36Z</time></trkpt><trkpt lat="45.58406735224778" lon="10.843151598726372"><ele>120.0</ele><time>2026-04-12T16:05:36.999Z</time></trkpt><trkpt lat="45.58390845810837" lon="10.842888818990584"><ele>124.5</ele><time>2026-04-12T16:05:37.999Z</time></trkpt><trkpt lat="45.583749382955546" lon="10.8426260827174"><ele>129.0</ele><time>2026-04-12T16:05:38.999Z</time></trkpt><trkpt lat="45.583592055102145" lon="10.84236221485837"><ele>129.0</ele><time>2026-04-12T16:05:39.999Z</time></trkpt><trkpt lat="45.583434764465004" lon="10.842098722813322"><ele>129.0</ele><time>2026-04-12T16:05:40.999Z</time></trkpt><trkpt lat="45.58327754633954" lon="10.84182842722964"><ele>119.5</ele><time>2026-04-12T16:05:41.999Z</time></trkpt><trkpt lat="45.5831257986094" lon="10.841549696360707"><ele>110.0</ele><time>2026-04-12T16:05:42.999Z</time></trkpt><trkpt lat="45.58298100213726" lon="10.841261794045186"><ele>119.0</ele><time>2026-04-12T16:05:43.999Z</time></trkpt><trkpt lat="45.58284146205938" lon="10.840973836831292"><ele>128.0</ele><time>2026-04-12T16:05:44.999Z</time></trkpt><trkpt lat="45.58270910528322" lon="10.840684351035241"><ele>128.0</ele><time>2026-04-12T16:05:45.999Z</time></trkpt><trkpt lat="45.582583257964075" lon="10.840400033609873"><ele>128.0</ele><time>2026-04-12T16:05:46.999Z</time></trkpt><trkpt lat="45.58247075547022" lon="10.840109707037444"><ele>120.0</ele><time>2026-04-12T16:05:47.999Z</time></trkpt><trkpt lat="45.582369257666336" lon="10.839794412424803"><ele>112.0</ele><time>2026-04-12T16:05:48.999Z</time></trkpt><trkpt lat="45.58226854287057" lon="10.83947244392504"><ele>109.0</ele><time>2026-04-12T16:05:49.999Z</time></trkpt><trkpt lat="45.582164432455635" lon="10.83914816718887"><ele>106.0</ele><time>2026-04-12T16:05:50.999Z</time></trkpt><trkpt lat="45.58205740975225" lon="10.838826953023803"><ele>111.5</ele><time>2026-04-12T16:05:51.999Z</time></trkpt><trkpt lat="45.58195081958726" lon="10.83849860685104"><ele>117.0</ele><time>2026-04-12T16:05:52.999Z</time></trkpt><trkpt lat="45.58184116974421" lon="10.838179718630084"><ele>117.0</ele><time>2026-04-12T16:05:53.999Z</time></trkpt><trkpt lat="45.58173379120156" lon="10.83786237810675"><ele>117.0</ele><time>2026-04-12T16:05:54.999Z</time></trkpt><trkpt lat="45.58163025531052" lon="10.837546525509781"><ele>112.0</ele><time>2026-04-12T16:05:55.999Z</time></trkpt><trkpt lat="45.58152603750811" lon="10.837225401548018"><ele>107.0</ele><time>2026-04-12T16:05:56.999Z</time></trkpt><trkpt lat="45.58141787730008" lon="10.836906883337168"><ele>105.5</ele><time>2026-04-12T16:05:57.999Z</time></trkpt><trkpt lat="45.58131671849089" lon="10.8365876019628"><ele>104.0</ele><time>2026-04-12T16:05:58.999Z</time></trkpt><trkpt lat="45.58121064393801" lon="10.836271250455102"><ele>104.0</ele><time>2026-04-12T16:05:59.999Z</time></trkpt><trkpt lat="45.58110558488112" lon="10.835953102397712"><ele>104.0</ele><time>2026-04-12T16:06:00.999Z</time></trkpt><trkpt lat="45.58099886994209" lon="10.83563936215989"><ele>104.0</ele><time>2026-04-12T16:06:01.999Z</time></trkpt><trkpt lat="45.580887618148" lon="10.835332648465023"><ele>104.0</ele><time>2026-04-12T16:06:02.999Z</time></trkpt><trkpt lat="45.580767544837684" lon="10.835030233410443"><ele>103.5</ele><time>2026-04-12T16:06:03.999Z</time></trkpt><trkpt lat="45.58063523925674" lon="10.834735807384781"><ele>103.0</ele><time>2026-04-12T16:06:04.999Z</time></trkpt><trkpt lat="45.58047502332517" lon="10.834461112227608"><ele>102.5</ele><time>2026-04-12T16:06:05.999Z</time></trkpt><trkpt lat="45.58031864511197" lon="10.834190869302793"><ele>102.0</ele><time>2026-04-12T16:06:06.999Z</time></trkpt><trkpt lat="45.58014347016904" lon="10.83394544506281"><ele>102.0</ele><time>2026-04-12T16:06:07.999Z</time></trkpt><trkpt lat="45.57995416307979" lon="10.833710088051694"><ele>102.0</ele><time>2026-04-12T16:06:08.999Z</time></trkpt><trkpt lat="45.57975914093825" lon="10.833480753283585"><ele>103.0</ele><time>2026-04-12T16:06:09.999Z</time></trkpt><trkpt lat="45.57955778289554" lon="10.833244901024466"><ele>104.0</ele><time>2026-04-12T16:06:10.999Z</time></trkpt><trkpt lat="45.579357493050544" lon="10.833000523053629"><ele>105.0</ele><time>2026-04-12T16:06:11.999Z</time></trkpt><trkpt lat="45.5791566694633" lon="10.832749526004726"><ele>106.0</ele><time>2026-04-12T16:06:12.999Z</time></trkpt><trkpt lat="45.57895702078282" lon="10.832501345088009"><ele>106.0</ele><time>2026-04-12T16:06:13.999Z</time></trkpt><trkpt lat="45.57874893638902" lon="10.832248830916683"><ele>106.0</ele><time>2026-04-12T16:06:14.999Z</time></trkpt><trkpt lat="45.578541793080674" lon="10.831997262410296"><ele>105.0</ele><time>2026-04-12T16:06:15.999Z</time></trkpt><trkpt lat="45.578342019557745" lon="10.831756359673623"><ele>104.0</ele><time>2026-04-12T16:06:16.999Z</time></trkpt><trkpt lat="45.578140037638285" lon="10.831488684914127"><ele>104.0</ele><time>2026-04-12T16:06:17.999Z</time></trkpt><trkpt lat="45.577964793785235" lon="10.831196314195067"><ele>104.0</ele><time>2026-04-12T16:06:18.999Z</time></trkpt><trkpt lat="45.577786640464275" lon="10.8309059999525"><ele>104.0</ele><time>2026-04-12T16:06:19.999Z</time></trkpt><trkpt lat="45.57761930865276" lon="10.830629430462885"><ele>104.0</ele><time>2026-04-12T16:06:20.999Z</time></trkpt><trkpt lat="45.57746253825419" lon="10.830346087032796"><ele>104.0</ele><time>2026-04-12T16:06:21.999Z</time></trkpt><trkpt lat="45.57731439603587" lon="10.830053684440294"><ele>104.0</ele><time>2026-04-12T16:06:22.999Z</time></trkpt><trkpt lat="45.57717992834467" lon="10.82974345528951"><ele>104.0</ele><time>2026-04-12T16:06:23.999Z</time></trkpt><trkpt lat="45.57704123374084" lon="10.829429771567604"><ele>104.0</ele><time>2026-04-12T16:06:24.999Z</time></trkpt><trkpt lat="45.57690425443835" lon="10.829109989522737"><ele>111.0</ele><time>2026-04-12T16:06:25.999Z</time></trkpt><trkpt lat="45.576767687200515" lon="10.828789044858162"><ele>118.0</ele><time>2026-04-12T16:06:26.999Z</time></trkpt><trkpt lat="45.576619005004886" lon="10.828472421140585"><ele>118.0</ele><time>2026-04-12T16:06:27.999Z</time></trkpt><trkpt lat="45.57647144788904" lon="10.828157498505535"><ele>118.0</ele><time>2026-04-12T16:06:28.999Z</time></trkpt><trkpt lat="45.576326725080136" lon="10.827847426408672"><ele>131.5</ele><time>2026-04-12T16:06:29.999Z</time></trkpt><trkpt lat="45.57617225819029" lon="10.827551098427529"><ele>145.0</ele><time>2026-04-12T16:06:30.999Z</time></trkpt><trkpt lat="45.576005105587925" lon="10.827275125127137"><ele>145.0</ele><time>2026-04-12T16:06:31.999Z</time></trkpt><trkpt lat="45.57584867844417" lon="10.827027451985781"><ele>145.0</ele><time>2026-04-12T16:06:32.998Z</time></trkpt><trkpt lat="45.575673646776714" lon="10.82685558838936"><ele>145.0</ele><time>2026-04-12T16:06:33.998Z</time></trkpt><trkpt lat="45.57551104494349" lon="10.826637595570345"><ele>138.33333333333334</ele><time>2026-04-12T16:06:34.998Z</time></trkpt><trkpt lat="45.57535531219581" lon="10.826442811097788"><ele>131.66666666666666</ele><time>2026-04-12T16:06:35.998Z</time></trkpt><trkpt lat="45.57520209934215" lon="10.826259346291478"><ele>125.0</ele><time>2026-04-12T16:06:36.998Z</time></trkpt><trkpt lat="45.575009681837535" lon="10.826127364342433"><ele>125.0</ele><time>2026-04-12T16:06:37.998Z</time></trkpt><trkpt lat="45.5748061689688" lon="10.826027035802147"><ele>125.0</ele><time>2026-04-12T16:06:38.998Z</time></trkpt><trkpt lat="45.57460237891294" lon="10.825961490405552"><ele>125.0</ele><time>2026-04-12T16:06:39.998Z</time></trkpt><trkpt lat="45.574394446032024" lon="10.825938944415187"><ele>126.33333333333333</ele><time>2026-04-12T16:06:40.998Z</time></trkpt><trkpt lat="45.574185539636666" lon="10.825947842499854"><ele>127.66666666666666</ele><time>2026-04-12T16:06:41.998Z</time></trkpt><trkpt lat="45.57397351057786" lon="10.825984434890309"><ele>129.0</ele><time>2026-04-12T16:06:42.998Z</time></trkpt><trkpt lat="45.57375146403874" lon="10.826042516412508"><ele>127.5</ele><time>2026-04-12T16:06:43.998Z</time></trkpt><trkpt lat="45.573519258872366" lon="10.82610488156398"><ele>126.0</ele><time>2026-04-12T16:06:44.998Z</time></trkpt><trkpt lat="45.57328016689989" lon="10.82616427877963"><ele>126.0</ele><time>2026-04-12T16:06:45.998Z</time></trkpt><trkpt lat="45.57303686289944" lon="10.826223090168561"><ele>126.0</ele><time>2026-04-12T16:06:46.998Z</time></trkpt><trkpt lat="45.57279341527991" lon="10.826280826475337"><ele>127.5</ele><time>2026-04-12T16:06:47.998Z</time></trkpt><trkpt lat="45.57255079115185" lon="10.826339866020229"><ele>129.0</ele><time>2026-04-12T16:06:48.998Z</time></trkpt><trkpt lat="45.57230967327159" lon="10.826395591912203"><ele>129.0</ele><time>2026-04-12T16:06:49.998Z</time></trkpt><trkpt lat="45.572073285078254" lon="10.82645141757956"><ele>129.0</ele><time>2026-04-12T16:06:50.998Z</time></trkpt><trkpt lat="45.57184078552639" lon="10.826506963841728"><ele>130.5</ele><time>2026-04-12T16:06:51.998Z</time></trkpt><trkpt lat="45.57160757708212" lon="10.826563787246691"><ele>132.0</ele><time>2026-04-12T16:06:52.998Z</time></trkpt><trkpt lat="45.57137128540473" lon="10.826606152476943"><ele>130.5</ele><time>2026-04-12T16:06:53.998Z</time></trkpt><trkpt lat="45.571128322232646" lon="10.826622670308586"><ele>129.0</ele><time>2026-04-12T16:06:54.998Z</time></trkpt><trkpt lat="45.57088141009581" lon="10.826611942074265"><ele>129.0</ele><time>2026-04-12T16:06:55.998Z</time></trkpt><trkpt lat="45.57063299321211" lon="10.826582309070217"><ele>129.0</ele><time>2026-04-12T16:06:56.998Z</time></trkpt><trkpt lat="45.570386938108015" lon="10.826559132628192"><ele>127.66666666666666</ele><time>2026-04-12T16:06:57.998Z</time></trkpt><trkpt lat="45.570155269462525" lon="10.826547336216946"><ele>126.33333333333333</ele><time>2026-04-12T16:06:58.998Z</time></trkpt><trkpt lat="45.569937649860265" lon="10.826542413162118"><ele>125.0</ele><time>2026-04-12T16:06:59.998Z</time></trkpt><trkpt lat="45.56971464594916" lon="10.826554506158784"><ele>124.0</ele><time>2026-04-12T16:07:00.998Z</time></trkpt><trkpt lat="45.56948757413445" lon="10.82659697199657"><ele>123.0</ele><time>2026-04-12T16:07:02Z</time></trkpt><trkpt lat="45.56926132176452" lon="10.82667323007949"><ele>123.0</ele><time>2026-04-12T16:07:03Z</time></trkpt><trkpt lat="45.56903258321782" lon="10.826770517891172"><ele>123.0</ele><time>2026-04-12T16:07:04Z</time></trkpt><trkpt lat="45.56879569837298" lon="10.826848294819191"><ele>137.33333333333334</ele><time>2026-04-12T16:07:05Z</time></trkpt><trkpt lat="45.568580220272835" lon="10.82689277047024"><ele>151.66666666666669</ele><time>2026-04-12T16:07:06Z</time></trkpt><trkpt lat="45.56838467433538" lon="10.826911620559406"><ele>166.0</ele><time>2026-04-12T16:07:07Z</time></trkpt><trkpt lat="45.56820043051567" lon="10.826889729849832"><ele>166.0</ele><time>2026-04-12T16:07:08Z</time></trkpt><trkpt lat="45.56803056341938" lon="10.82683180277233"><ele>166.0</ele><time>2026-04-12T16:07:09Z</time></trkpt><trkpt lat="45.56788525337044" lon="10.826733030611624"><ele>166.0</ele><time>2026-04-12T16:07:10Z</time></trkpt><trkpt lat="45.56774138558529" lon="10.826595757271695"><ele>166.0</ele><time>2026-04-12T16:07:11Z</time></trkpt><trkpt lat="45.56756931910861" lon="10.826498851173211"><ele>166.0</ele><time>2026-04-12T16:07:12Z</time></trkpt><trkpt lat="45.56738661848804" lon="10.82644548174955"><ele>166.0</ele><time>2026-04-12T16:07:13Z</time></trkpt><trkpt lat="45.567181531998976" lon="10.826414037696924"><ele>203.5</ele><time>2026-04-12T16:07:14Z</time></trkpt><trkpt lat="45.56697048963515" lon="10.826363042597835"><ele>241.0</ele><time>2026-04-12T16:07:15Z</time></trkpt><trkpt lat="45.56673510082132" lon="10.826293502021914"><ele>241.0</ele><time>2026-04-12T16:07:16Z</time></trkpt><trkpt lat="45.56650117754247" lon="10.826237965526104"><ele>241.0</ele><time>2026-04-12T16:07:17Z</time></trkpt><trkpt lat="45.56627815129401" lon="10.826196570748824"><ele>230.5</ele><time>2026-04-12T16:07:18Z</time></trkpt><trkpt lat="45.56605474122548" lon="10.826158138265047"><ele>220.0</ele><time>2026-04-12T16:07:19Z</time></trkpt><trkpt lat="45.56582535772205" lon="10.826115015120424"><ele>220.0</ele><time>2026-04-12T16:07:20Z</time></trkpt><trkpt lat="45.565600818722984" lon="10.82607079872923"><ele>220.0</ele><time>2026-04-12T16:07:21Z</time></trkpt><trkpt lat="45.565384126863904" lon="10.826028143814941"><ele>220.0</ele><time>2026-04-12T16:07:22Z</time></trkpt><trkpt lat="45.565172561013995" lon="10.825989232829786"><ele>192.33333333333331</ele><time>2026-04-12T16:07:23Z</time></trkpt><trkpt lat="45.56496974379933" lon="10.825952519294137"><ele>164.66666666666666</ele><time>2026-04-12T16:07:24Z</time></trkpt><trkpt lat="45.564773059910074" lon="10.825917722113685"><ele>137.0</ele><time>2026-04-12T16:07:25Z</time></trkpt><trkpt lat="45.56458553736769" lon="10.825892771176706"><ele>128.66666666666666</ele><time>2026-04-12T16:07:26Z</time></trkpt><trkpt lat="45.564395351172315" lon="10.825877414074538"><ele>120.33333333333334</ele><time>2026-04-12T16:07:27Z</time></trkpt><trkpt lat="45.564205681432256" lon="10.825874694331107"><ele>112.0</ele><time>2026-04-12T16:07:28Z</time></trkpt><trkpt lat="45.56401364529173" lon="10.8258884465845"><ele>112.0</ele><time>2026-04-12T16:07:29Z</time></trkpt><trkpt lat="45.56381946907225" lon="10.825926134041032"><ele>112.0</ele><time>2026-04-12T16:07:30Z</time></trkpt><trkpt lat="45.56362369525606" lon="10.82598371153345"><ele>112.0</ele><time>2026-04-12T16:07:31Z</time></trkpt><trkpt lat="45.563429821096506" lon="10.826066285214498"><ele>115.33333333333334</ele><time>2026-04-12T16:07:32Z</time></trkpt><trkpt lat="45.56324112739221" lon="10.82617457933689"><ele>118.66666666666666</ele><time>2026-04-12T16:07:33Z</time></trkpt><trkpt lat="45.563056634820455" lon="10.826303352615252"><ele>122.0</ele><time>2026-04-12T16:07:34Z</time></trkpt><trkpt lat="45.56288342337923" lon="10.826465515028406"><ele>114.33333333333333</ele><time>2026-04-12T16:07:35Z</time></trkpt><trkpt lat="45.562724937981514" lon="10.826659908376488"><ele>106.66666666666666</ele><time>2026-04-12T16:07:36Z</time></trkpt><trkpt lat="45.56257994210671" lon="10.826887590417588"><ele>99.0</ele><time>2026-04-12T16:07:37Z</time></trkpt><trkpt lat="45.562428976155445" lon="10.827118007473599"><ele>98.33333333333334</ele><time>2026-04-12T16:07:38Z</time></trkpt><trkpt lat="45.562287813390824" lon="10.827366027467779"><ele>97.66666666666667</ele><time>2026-04-12T16:07:39Z</time></trkpt><trkpt lat="45.56213181037357" lon="10.827564367440702"><ele>97.0</ele><time>2026-04-12T16:07:40Z</time></trkpt><trkpt lat="45.56196891948894" lon="10.827740421335854"><ele>104.0</ele><time>2026-04-12T16:07:41Z</time></trkpt><trkpt lat="45.56179517193923" lon="10.82790371425967"><ele>111.0</ele><time>2026-04-12T16:07:41.999Z</time></trkpt><trkpt lat="45.56162760873633" lon="10.82808132683096"><ele>118.0</ele><time>2026-04-12T16:07:42.999Z</time></trkpt><trkpt lat="45.561467283521154" lon="10.828279794917469"><ele>151.33333333333334</ele><time>2026-04-12T16:07:43.999Z</time></trkpt><trkpt lat="45.561303799704945" lon="10.828478390844172"><ele>184.66666666666669</ele><time>2026-04-12T16:07:44.999Z</time></trkpt><trkpt lat="45.56114999350526" lon="10.828678306909955"><ele>218.0</ele><time>2026-04-12T16:07:45.999Z</time></trkpt><trkpt lat="45.560998051072524" lon="10.828888959988758"><ele>218.0</ele><time>2026-04-12T16:07:46.999Z</time></trkpt><trkpt lat="45.56085581681687" lon="10.82912409266204"><ele>218.0</ele><time>2026-04-12T16:07:47.999Z</time></trkpt><trkpt lat="45.56073229619186" lon="10.829363490600281"><ele>218.0</ele><time>2026-04-12T16:07:48.999Z</time></trkpt><trkpt lat="45.560623343399534" lon="10.829587768460875"><ele>218.0</ele><time>2026-04-12T16:07:49.999Z</time></trkpt><trkpt lat="45.56052158115495" lon="10.829793543835764"><ele>218.0</ele><time>2026-04-12T16:07:50.999Z</time></trkpt><trkpt lat="45.560413205753456" lon="10.830003646688724"><ele>218.0</ele><time>2026-04-12T16:07:51.999Z</time></trkpt><trkpt lat="45.560292310324456" lon="10.830210700505924"><ele>218.0</ele><time>2026-04-12T16:07:52.999Z</time></trkpt><trkpt lat="45.56013616286119" lon="10.830364328974667"><ele>218.0</ele><time>2026-04-12T16:07:53.999Z</time></trkpt><trkpt lat="45.55994370257224" lon="10.830521521681177"><ele>218.0</ele><time>2026-04-12T16:07:54.999Z</time></trkpt><trkpt lat="45.559722100287004" lon="10.83069491719564"><ele>208.5</ele><time>2026-04-12T16:07:55.999Z</time></trkpt><trkpt lat="45.5594791318721" lon="10.830888407261458"><ele>199.0</ele><time>2026-04-12T16:07:56.999Z</time></trkpt><trkpt lat="45.559225406994166" lon="10.83104821787589"><ele>199.0</ele><time>2026-04-12T16:07:57.999Z</time></trkpt><trkpt lat="45.55898282552292" lon="10.831204256565675"><ele>199.0</ele><time>2026-04-12T16:07:58.999Z</time></trkpt><trkpt lat="45.558747084096126" lon="10.831344315691945"><ele>209.0</ele><time>2026-04-12T16:07:59.999Z</time></trkpt><trkpt lat="45.55851291333287" lon="10.831468654535477"><ele>219.0</ele><time>2026-04-12T16:08:00.999Z</time></trkpt><trkpt lat="45.5582768784914" lon="10.831579628453703"><ele>219.0</ele><time>2026-04-12T16:08:01.999Z</time></trkpt><trkpt lat="45.55803496527489" lon="10.831659949434234"><ele>219.0</ele><time>2026-04-12T16:08:02.999Z</time></trkpt><trkpt lat="45.55779028137842" lon="10.831710708503914"><ele>219.0</ele><time>2026-04-12T16:08:03.999Z</time></trkpt><trkpt lat="45.557543937631046" lon="10.831726877215576"><ele>219.0</ele><time>2026-04-12T16:08:04.999Z</time></trkpt><trkpt lat="45.55728713212174" lon="10.831679041262754"><ele>201.5</ele><time>2026-04-12T16:08:05.999Z</time></trkpt><trkpt lat="45.55703645584856" lon="10.831596604530288"><ele>184.0</ele><time>2026-04-12T16:08:06.999Z</time></trkpt><trkpt lat="45.5567769844084" lon="10.831533419905735"><ele>184.0</ele><time>2026-04-12T16:08:07.999Z</time></trkpt><trkpt lat="45.55651317266481" lon="10.831494511388211"><ele>184.0</ele><time>2026-04-12T16:08:08.999Z</time></trkpt><trkpt lat="45.55626154420551" lon="10.831443125537595"><ele>210.0</ele><time>2026-04-12T16:08:09.999Z</time></trkpt><trkpt lat="45.55602545093735" lon="10.831356587355412"><ele>236.0</ele><time>2026-04-12T16:08:10.999Z</time></trkpt><trkpt lat="45.555794779426435" lon="10.831226195387227"><ele>236.0</ele><time>2026-04-12T16:08:11.999Z</time></trkpt><trkpt lat="45.555576746602995" lon="10.831055553653158"><ele>236.0</ele><time>2026-04-12T16:08:12.999Z</time></trkpt><trkpt lat="45.55537165754103" lon="10.830855408953012"><ele>164.5</ele><time>2026-04-12T16:08:13.999Z</time></trkpt><trkpt lat="45.55517436294598" lon="10.830634212003202"><ele>93.0</ele><time>2026-04-12T16:08:14.999Z</time></trkpt><trkpt lat="45.554963512475524" lon="10.830430322738417"><ele>93.0</ele><time>2026-04-12T16:08:15.999Z</time></trkpt><trkpt lat="45.55474660312874" lon="10.83024761269806"><ele>93.0</ele><time>2026-04-12T16:08:16.999Z</time></trkpt><trkpt lat="45.5545146493504" lon="10.830084296769751"><ele>97.0</ele><time>2026-04-12T16:08:17.999Z</time></trkpt><trkpt lat="45.55426399821898" lon="10.829951571743148"><ele>101.0</ele><time>2026-04-12T16:08:18.999Z</time></trkpt><trkpt lat="45.55401231080244" lon="10.829849274777084"><ele>101.0</ele><time>2026-04-12T16:08:19.999Z</time></trkpt><trkpt lat="45.55375957662645" lon="10.829753695617523"><ele>101.0</ele><time>2026-04-12T16:08:20.999Z</time></trkpt><trkpt lat="45.553509306553856" lon="10.829665662937735"><ele>107.5</ele><time>2026-04-12T16:08:21.999Z</time></trkpt><trkpt lat="45.55326690966157" lon="10.829561566518246"><ele>114.0</ele><time>2026-04-12T16:08:22.999Z</time></trkpt><trkpt lat="45.553035218230036" lon="10.829421594390972"><ele>109.0</ele><time>2026-04-12T16:08:23.999Z</time></trkpt><trkpt lat="45.55282015918188" lon="10.829253343711041"><ele>104.0</ele><time>2026-04-12T16:08:24.999Z</time></trkpt><trkpt lat="45.55261671154623" lon="10.829078558723328"><ele>104.0</ele><time>2026-04-12T16:08:25.999Z</time></trkpt><trkpt lat="45.552425775016914" lon="10.828888648218355"><ele>104.0</ele><time>2026-04-12T16:08:26.999Z</time></trkpt><trkpt lat="45.552238784309395" lon="10.828686381722283"><ele>104.0</ele><time>2026-04-12T16:08:27.999Z</time></trkpt><trkpt lat="45.55206593249631" lon="10.828508923615086"><ele>104.0</ele><time>2026-04-12T16:08:28.999Z</time></trkpt><trkpt lat="45.55188288224091" lon="10.828302298675306"><ele>104.0</ele><time>2026-04-12T16:08:29.999Z</time></trkpt><trkpt lat="45.55169686714666" lon="10.828084435334652"><ele>98.5</ele><time>2026-04-12T16:08:30.999Z</time></trkpt><trkpt lat="45.55152274280004" lon="10.827850379413784"><ele>93.0</ele><time>2026-04-12T16:08:31.999Z</time></trkpt><trkpt lat="45.55136541195588" lon="10.827602268742655"><ele>93.0</ele><time>2026-04-12T16:08:32.999Z</time></trkpt><trkpt lat="45.55121479524138" lon="10.827346207891184"><ele>93.0</ele><time>2026-04-12T16:08:33.999Z</time></trkpt><trkpt lat="45.55106790350701" lon="10.82708389368586"><ele>92.5</ele><time>2026-04-12T16:08:34.999Z</time></trkpt><trkpt lat="45.55092162850988" lon="10.826824567002335"><ele>92.0</ele><time>2026-04-12T16:08:35.999Z</time></trkpt><trkpt lat="45.55077047162297" lon="10.826575557358142"><ele>92.0</ele><time>2026-04-12T16:08:36.999Z</time></trkpt><trkpt lat="45.550626326820826" lon="10.826330790328734"><ele>92.0</ele><time>2026-04-12T16:08:37.999Z</time></trkpt><trkpt lat="45.550485438551036" lon="10.826092652332695"><ele>92.0</ele><time>2026-04-12T16:08:38.998Z</time></trkpt><trkpt lat="45.550342651423634" lon="10.825856946200583"><ele>93.0</ele><time>2026-04-12T16:08:39.998Z</time></trkpt><trkpt lat="45.55020061322757" lon="10.825630294816708"><ele>94.0</ele><time>2026-04-12T16:08:40.998Z</time></trkpt><trkpt lat="45.550055367339056" lon="10.825415477419515"><ele>95.0</ele><time>2026-04-12T16:08:41.998Z</time></trkpt><trkpt lat="45.54990359787421" lon="10.825213385233619"><ele>94.33333333333334</ele><time>2026-04-12T16:08:42.998Z</time></trkpt><trkpt lat="45.549745517537" lon="10.825024313338329"><ele>93.66666666666667</ele><time>2026-04-12T16:08:43.998Z</time></trkpt><trkpt lat="45.54958740352016" lon="10.824849322490696"><ele>93.0</ele><time>2026-04-12T16:08:44.998Z</time></trkpt><trkpt lat="45.549446241739346" lon="10.824686178562978"><ele>94.0</ele><time>2026-04-12T16:08:45.998Z</time></trkpt><trkpt lat="45.54931354414012" lon="10.824537251544852"><ele>95.0</ele><time>2026-04-12T16:08:46.998Z</time></trkpt><trkpt lat="45.54917247061847" lon="10.824391565040731"><ele>96.0</ele><time>2026-04-12T16:08:47.998Z</time></trkpt><trkpt lat="45.54902767295938" lon="10.824237766148903"><ele>96.0</ele><time>2026-04-12T16:08:48.998Z</time></trkpt><trkpt lat="45.54888224414194" lon="10.824083826091092"><ele>96.0</ele><time>2026-04-12T16:08:49.998Z</time></trkpt><trkpt lat="45.54872866464465" lon="10.823935469465917"><ele>96.0</ele><time>2026-04-12T16:08:50.998Z</time></trkpt><trkpt lat="45.54856712291205" lon="10.823791741292704"><ele>96.0</ele><time>2026-04-12T16:08:51.998Z</time></trkpt><trkpt lat="45.54839769324311" lon="10.823657786393785"><ele>96.0</ele><time>2026-04-12T16:08:52.998Z</time></trkpt><trkpt lat="45.54822060185698" lon="10.823536166705976"><ele>96.0</ele><time>2026-04-12T16:08:53.998Z</time></trkpt><trkpt lat="45.54803706520279" lon="10.823429583972523"><ele>97.0</ele><time>2026-04-12T16:08:54.998Z</time></trkpt><trkpt lat="45.54785000094425" lon="10.823336970114427"><ele>98.0</ele><time>2026-04-12T16:08:55.998Z</time></trkpt><trkpt lat="45.54765716969415" lon="10.82326041874002"><ele>99.0</ele><time>2026-04-12T16:08:56.998Z</time></trkpt><trkpt lat="45.54746065534955" lon="10.823197838968253"><ele>99.0</ele><time>2026-04-12T16:08:57.998Z</time></trkpt><trkpt lat="45.54726088576166" lon="10.823147987713678"><ele>99.0</ele><time>2026-04-12T16:08:58.998Z</time></trkpt><trkpt lat="45.5470622764403" lon="10.823110700302795"><ele>99.0</ele><time>2026-04-12T16:08:59.998Z</time></trkpt><trkpt lat="45.54686234091576" lon="10.823085508162876"><ele>100.66666666666666</ele><time>2026-04-12T16:09:00.998Z</time></trkpt><trkpt lat="45.54666430294915" lon="10.823064731134648"><ele>102.33333333333333</ele><time>2026-04-12T16:09:01.998Z</time></trkpt><trkpt lat="45.54647407645381" lon="10.823045244535022"><ele>104.0</ele><time>2026-04-12T16:09:02.998Z</time></trkpt><trkpt lat="45.54628731941851" lon="10.823025545808868"><ele>104.0</ele><time>2026-04-12T16:09:03.998Z</time></trkpt><trkpt lat="45.5461016095485" lon="10.823009151880113"><ele>104.0</ele><time>2026-04-12T16:09:04.998Z</time></trkpt><trkpt lat="45.54591765134845" lon="10.822992906931617"><ele>104.0</ele><time>2026-04-12T16:09:05.998Z</time></trkpt><trkpt lat="45.545731575674886" lon="10.822979280637881"><ele>104.0</ele><time>2026-04-12T16:09:06.998Z</time></trkpt><trkpt lat="45.5455448648486" lon="10.822966691212727"><ele>104.0</ele><time>2026-04-12T16:09:08Z</time></trkpt><trkpt lat="45.54535798883349" lon="10.822952755726467"><ele>104.0</ele><time>2026-04-12T16:09:09Z</time></trkpt><trkpt lat="45.545173700007375" lon="10.822940765850156"><ele>104.66666666666666</ele><time>2026-04-12T16:09:10Z</time></trkpt><trkpt lat="45.544986631429765" lon="10.822928000922817"><ele>105.33333333333334</ele><time>2026-04-12T16:09:11Z</time></trkpt><trkpt lat="45.54480223315477" lon="10.822917140368226"><ele>106.0</ele><time>2026-04-12T16:09:12Z</time></trkpt><trkpt lat="45.544619166774915" lon="10.822904396545878"><ele>107.0</ele><time>2026-04-12T16:09:13Z</time></trkpt><trkpt lat="45.544437727838755" lon="10.822891357907606"><ele>108.0</ele><time>2026-04-12T16:09:14Z</time></trkpt><trkpt lat="45.54425587718215" lon="10.8228742618777"><ele>109.0</ele><time>2026-04-12T16:09:15Z</time></trkpt><trkpt lat="45.54407202926995" lon="10.822856911262997"><ele>109.0</ele><time>2026-04-12T16:09:16Z</time></trkpt><trkpt lat="45.543888709181786" lon="10.822839796350216"><ele>109.0</ele><time>2026-04-12T16:09:17Z</time></trkpt><trkpt lat="45.54370177795605" lon="10.8228218782592"><ele>109.0</ele><time>2026-04-12T16:09:18Z</time></trkpt><trkpt lat="45.54351300879039" lon="10.822810168809845"><ele>109.33333333333334</ele><time>2026-04-12T16:09:19Z</time></trkpt><trkpt lat="45.5433233950251" lon="10.822800030160645"><ele>109.66666666666666</ele><time>2026-04-12T16:09:20Z</time></trkpt><trkpt lat="45.54313316257234" lon="10.822784814506395"><ele>110.0</ele><time>2026-04-12T16:09:21Z</time></trkpt><trkpt lat="45.542940888204775" lon="10.8227618474757"><ele>110.33333333333333</ele><time>2026-04-12T16:09:22Z</time></trkpt><trkpt lat="45.54274469398149" lon="10.82273067600983"><ele>110.66666666666666</ele><time>2026-04-12T16:09:23Z</time></trkpt><trkpt lat="45.54254712162185" lon="10.822688279563819"><ele>111.0</ele><time>2026-04-12T16:09:24Z</time></trkpt><trkpt lat="45.5423538514718" lon="10.82262913033589"><ele>111.33333333333334</ele><time>2026-04-12T16:09:25Z</time></trkpt><trkpt lat="45.542156505217584" lon="10.822552435682773"><ele>111.66666666666667</ele><time>2026-04-12T16:09:26Z</time></trkpt><trkpt lat="45.541957419922774" lon="10.822459793444262"><ele>112.0</ele><time>2026-04-12T16:09:27Z</time></trkpt><trkpt lat="45.5417532659326" lon="10.822361810129081"><ele>112.33333333333334</ele><time>2026-04-12T16:09:28Z</time></trkpt><trkpt lat="45.541546574583286" lon="10.822256669150898"><ele>112.66666666666666</ele><time>2026-04-12T16:09:29Z</time></trkpt><trkpt lat="45.541340048352524" lon="10.822146786199689"><ele>113.0</ele><time>2026-04-12T16:09:30Z</time></trkpt><trkpt lat="45.54113129631519" lon="10.822034739995019"><ele>113.33333333333333</ele><time>2026-04-12T16:09:31Z</time></trkpt><trkpt lat="45.540924146244116" lon="10.821927640941169"><ele>113.66666666666666</ele><time>2026-04-12T16:09:32Z</time></trkpt><trkpt lat="45.54071835226982" lon="10.821821202541303"><ele>114.0</ele><time>2026-04-12T16:09:33Z</time></trkpt><trkpt lat="45.540512217816016" lon="10.821708812718635"><ele>113.33333333333334</ele><time>2026-04-12T16:09:34Z</time></trkpt><trkpt lat="45.54030513837296" lon="10.821595214927466"><ele>112.66666666666667</ele><time>2026-04-12T16:09:35Z</time></trkpt><trkpt lat="45.54009637158582" lon="10.821485768012026"><ele>112.0</ele><time>2026-04-12T16:09:36Z</time></trkpt><trkpt lat="45.53988738538687" lon="10.821376796495558"><ele>112.0</ele><time>2026-04-12T16:09:37Z</time></trkpt><trkpt lat="45.53967569738292" lon="10.821267055561814"><ele>112.0</ele><time>2026-04-12T16:09:38Z</time></trkpt><trkpt lat="45.5394630783895" lon="10.821158662204976"><ele>112.5</ele><time>2026-04-12T16:09:39Z</time></trkpt><trkpt lat="45.53925045089959" lon="10.821051886421145"><ele>113.0</ele><time>2026-04-12T16:09:40Z</time></trkpt><trkpt lat="45.53903725554484" lon="10.820941549957869"><ele>112.33333333333333</ele><time>2026-04-12T16:09:41Z</time></trkpt><trkpt lat="45.53882688494515" lon="10.820825986392997"><ele>111.66666666666666</ele><time>2026-04-12T16:09:42Z</time></trkpt><trkpt lat="45.53862838745368" lon="10.820678015967378"><ele>111.0</ele><time>2026-04-12T16:09:43Z</time></trkpt><trkpt lat="45.53842479933269" lon="10.820537006492172"><ele>111.0</ele><time>2026-04-12T16:09:44Z</time></trkpt><trkpt lat="45.538220924021886" lon="10.820389455634258"><ele>111.0</ele><time>2026-04-12T16:09:45Z</time></trkpt><trkpt lat="45.53800892183426" lon="10.820255425800267"><ele>112.0</ele><time>2026-04-12T16:09:46Z</time></trkpt><trkpt lat="45.53780334359697" lon="10.820102699015312"><ele>113.0</ele><time>2026-04-12T16:09:47Z</time></trkpt><trkpt lat="45.53759580251788" lon="10.819949426825367"><ele>113.0</ele><time>2026-04-12T16:09:47.999Z</time></trkpt><trkpt lat="45.53738497684382" lon="10.81980015635051"><ele>113.0</ele><time>2026-04-12T16:09:48.999Z</time></trkpt><trkpt lat="45.53717473762904" lon="10.819651433090314"><ele>112.0</ele><time>2026-04-12T16:09:49.999Z</time></trkpt><trkpt lat="45.53696323347767" lon="10.819506555166692"><ele>111.0</ele><time>2026-04-12T16:09:50.999Z</time></trkpt><trkpt lat="45.53676087994673" lon="10.819345596184322"><ele>111.0</ele><time>2026-04-12T16:09:51.999Z</time></trkpt><trkpt lat="45.536549090233756" lon="10.819232726879692"><ele>111.0</ele><time>2026-04-12T16:09:52.999Z</time></trkpt><trkpt lat="45.5363509098384" lon="10.819102548715781"><ele>111.0</ele><time>2026-04-12T16:09:53.999Z</time></trkpt><trkpt lat="45.5361546878049" lon="10.81897453326665"><ele>110.66666666666666</ele><time>2026-04-12T16:09:54.999Z</time></trkpt><trkpt lat="45.535956810533506" lon="10.81885212893024"><ele>110.33333333333333</ele><time>2026-04-12T16:09:55.999Z</time></trkpt><trkpt lat="45.53575545653915" lon="10.818741466832702"><ele>110.0</ele><time>2026-04-12T16:09:56.999Z</time></trkpt><trkpt lat="45.535550192906726" lon="10.818643838312605"><ele>110.0</ele><time>2026-04-12T16:09:57.999Z</time></trkpt><trkpt lat="45.53533993528535" lon="10.818537930899677"><ele>110.0</ele><time>2026-04-12T16:09:58.999Z</time></trkpt><trkpt lat="45.53511530238884" lon="10.818496869088133"><ele>110.0</ele><time>2026-04-12T16:09:59.999Z</time></trkpt><trkpt lat="45.53488832108789" lon="10.818423727301296"><ele>110.0</ele><time>2026-04-12T16:10:00.999Z</time></trkpt><trkpt lat="45.53465383547612" lon="10.818378501357866"><ele>110.0</ele><time>2026-04-12T16:10:01.999Z</time></trkpt><trkpt lat="45.534414267776924" lon="10.818338273065928"><ele>110.5</ele><time>2026-04-12T16:10:02.999Z</time></trkpt><trkpt lat="45.534170991713076" lon="10.818325017315281"><ele>111.0</ele><time>2026-04-12T16:10:03.999Z</time></trkpt><trkpt lat="45.53392948401204" lon="10.818291997272237"><ele>112.0</ele><time>2026-04-12T16:10:04.999Z</time></trkpt><trkpt lat="45.5336901465462" lon="10.818265975050563"><ele>113.0</ele><time>2026-04-12T16:10:05.999Z</time></trkpt><trkpt lat="45.53344962622305" lon="10.818246853389233"><ele>113.0</ele><time>2026-04-12T16:10:06.999Z</time></trkpt><trkpt lat="45.533211530830314" lon="10.818230189676353"><ele>113.0</ele><time>2026-04-12T16:10:07.999Z</time></trkpt><trkpt lat="45.53297623462477" lon="10.81821922508763"><ele>112.5</ele><time>2026-04-12T16:10:08.999Z</time></trkpt><trkpt lat="45.532748440228524" lon="10.818217702940725"><ele>112.0</ele><time>2026-04-12T16:10:09.999Z</time></trkpt><trkpt lat="45.53252607164407" lon="10.818222323524118"><ele>112.0</ele><time>2026-04-12T16:10:10.999Z</time></trkpt><trkpt lat="45.53230585943017" lon="10.818234647618397"><ele>112.0</ele><time>2026-04-12T16:10:11.999Z</time></trkpt><trkpt lat="45.53208291079497" lon="10.81824605895102"><ele>112.0</ele><time>2026-04-12T16:10:12.999Z</time></trkpt><trkpt lat="45.53186199298635" lon="10.818260641721634"><ele>112.33333333333334</ele><time>2026-04-12T16:10:13.999Z</time></trkpt><trkpt lat="45.53163932238004" lon="10.818269821451139"><ele>112.66666666666666</ele><time>2026-04-12T16:10:14.999Z</time></trkpt><trkpt lat="45.531415371470835" lon="10.818263825167502"><ele>113.0</ele><time>2026-04-12T16:10:15.999Z</time></trkpt><trkpt lat="45.53119359048127" lon="10.818250429200887"><ele>112.0</ele><time>2026-04-12T16:10:16.999Z</time></trkpt><trkpt lat="45.53097165812469" lon="10.818238555890488"><ele>111.0</ele><time>2026-04-12T16:10:17.999Z</time></trkpt><trkpt lat="45.53074652669512" lon="10.818356637039102"><ele>111.0</ele><time>2026-04-12T16:10:18.999Z</time></trkpt><trkpt lat="45.530523799760836" lon="10.818244621911802"><ele>111.0</ele><time>2026-04-12T16:10:19.999Z</time></trkpt><trkpt lat="45.5302995469683" lon="10.818263361638234"><ele>111.0</ele><time>2026-04-12T16:10:20.999Z</time></trkpt><trkpt lat="45.53007680544495" lon="10.818287342114354"><ele>111.0</ele><time>2026-04-12T16:10:21.999Z</time></trkpt><trkpt lat="45.52985589124629" lon="10.818321052546521"><ele>111.0</ele><time>2026-04-12T16:10:22.999Z</time></trkpt><trkpt lat="45.52963464032713" lon="10.818354629282917"><ele>111.33333333333334</ele><time>2026-04-12T16:10:23.999Z</time></trkpt><trkpt lat="45.529415044264304" lon="10.818382673094998"><ele>111.66666666666667</ele><time>2026-04-12T16:10:24.999Z</time></trkpt><trkpt lat="45.52919313310582" lon="10.818399494430846"><ele>112.0</ele><time>2026-04-12T16:10:25.999Z</time></trkpt><trkpt lat="45.52897535903676" lon="10.818398856914392"><ele>112.0</ele><time>2026-04-12T16:10:26.999Z</time></trkpt><trkpt lat="45.52876109896374" lon="10.818396445217875"><ele>112.0</ele><time>2026-04-12T16:10:27.999Z</time></trkpt><trkpt lat="45.52854838979421" lon="10.818391223568003"><ele>112.0</ele><time>2026-04-12T16:10:28.999Z</time></trkpt><trkpt lat="45.52833005614887" lon="10.818384646708685"><ele>111.66666666666667</ele><time>2026-04-12T16:10:29.999Z</time></trkpt><trkpt lat="45.5281102600812" lon="10.818378881895901"><ele>111.33333333333334</ele><time>2026-04-12T16:10:30.999Z</time></trkpt><trkpt lat="45.527894627201434" lon="10.818373345691215"><ele>111.0</ele><time>2026-04-12T16:10:31.999Z</time></trkpt><trkpt lat="45.52768050780524" lon="10.818363973146914"><ele>112.0</ele><time>2026-04-12T16:10:32.999Z</time></trkpt><trkpt lat="45.527466234717316" lon="10.818351873595292"><ele>113.0</ele><time>2026-04-12T16:10:33.999Z</time></trkpt><trkpt lat="45.527253095322074" lon="10.818350432011417"><ele>114.0</ele><time>2026-04-12T16:10:34.999Z</time></trkpt><trkpt lat="45.52703722718123" lon="10.818345512080471"><ele>114.0</ele><time>2026-04-12T16:10:35.999Z</time></trkpt><trkpt lat="45.52682333677937" lon="10.818335880987863"><ele>114.0</ele><time>2026-04-12T16:10:36.999Z</time></trkpt><trkpt lat="45.52660993269029" lon="10.81832234997842"><ele>114.0</ele><time>2026-04-12T16:10:37.999Z</time></trkpt><trkpt lat="45.526396740553366" lon="10.818312228794026"><ele>114.33333333333334</ele><time>2026-04-12T16:10:38.999Z</time></trkpt><trkpt lat="45.52618510114592" lon="10.81830783364725"><ele>114.66666666666667</ele><time>2026-04-12T16:10:39.999Z</time></trkpt><trkpt lat="45.525973588861476" lon="10.818320738612922"><ele>115.0</ele><time>2026-04-12T16:10:40.999Z</time></trkpt><trkpt lat="45.52577388016814" lon="10.818315888816109"><ele>115.0</ele><time>2026-04-12T16:10:41.999Z</time></trkpt><trkpt lat="45.52557615433049" lon="10.818309460135119"><ele>115.0</ele><time>2026-04-12T16:10:42.999Z</time></trkpt><trkpt lat="45.525378590827685" lon="10.818296981445013"><ele>115.0</ele><time>2026-04-12T16:10:43.999Z</time></trkpt><trkpt lat="45.52519095431081" lon="10.818284778980765"><ele>115.66666666666667</ele><time>2026-04-12T16:10:44.998Z</time></trkpt><trkpt lat="45.52500335116228" lon="10.81827314601631"><ele>116.33333333333334</ele><time>2026-04-12T16:10:45.998Z</time></trkpt><trkpt lat="45.52480218069039" lon="10.818274344971146"><ele>117.0</ele><time>2026-04-12T16:10:46.998Z</time></trkpt><trkpt lat="45.52460633679908" lon="10.818280162381395"><ele>117.33333333333334</ele><time>2026-04-12T16:10:47.998Z</time></trkpt><trkpt lat="45.52441829484787" lon="10.818287973780164"><ele>117.66666666666667</ele><time>2026-04-12T16:10:48.998Z</time></trkpt><trkpt lat="45.52423985829004" lon="10.818303903185774"><ele>118.0</ele><time>2026-04-12T16:10:49.998Z</time></trkpt><trkpt lat="45.52405945205254" lon="10.818325330755222"><ele>118.0</ele><time>2026-04-12T16:10:50.998Z</time></trkpt><trkpt lat="45.52388302856915" lon="10.81834726214475"><ele>118.0</ele><time>2026-04-12T16:10:51.998Z</time></trkpt><trkpt lat="45.523711952180626" lon="10.818376919441944"><ele>118.0</ele><time>2026-04-12T16:10:52.998Z</time></trkpt><trkpt lat="45.52354178067994" lon="10.81840932899113"><ele>117.33333333333334</ele><time>2026-04-12T16:10:53.998Z</time></trkpt><trkpt lat="45.52336374714122" lon="10.81845130046885"><ele>116.66666666666666</ele><time>2026-04-12T16:10:54.998Z</time></trkpt><trkpt lat="45.52318006098906" lon="10.818492013590689"><ele>116.0</ele><time>2026-04-12T16:10:55.998Z</time></trkpt><trkpt lat="45.52299268603834" lon="10.818525438807553"><ele>116.0</ele><time>2026-04-12T16:10:56.998Z</time></trkpt><trkpt lat="45.522813035043974" lon="10.818554426104692"><ele>116.0</ele><time>2026-04-12T16:10:57.998Z</time></trkpt><trkpt lat="45.5226331444764" lon="10.818588572127153"><ele>116.0</ele><time>2026-04-12T16:10:58.998Z</time></trkpt><trkpt lat="45.52244948859654" lon="10.81862761962578"><ele>116.0</ele><time>2026-04-12T16:10:59.998Z</time></trkpt><trkpt lat="45.5222721567128" lon="10.818665075896394"><ele>116.0</ele><time>2026-04-12T16:11:00.998Z</time></trkpt><trkpt lat="45.522111800043795" lon="10.81869624538611"><ele>116.0</ele><time>2026-04-12T16:11:01.998Z</time></trkpt><trkpt lat="45.52195204786366" lon="10.818725423516597"><ele>116.33333333333333</ele><time>2026-04-12T16:11:02.998Z</time></trkpt><trkpt lat="45.52179000111603" lon="10.818757639362396"><ele>116.66666666666666</ele><time>2026-04-12T16:11:03.998Z</time></trkpt><trkpt lat="45.521626119909975" lon="10.818786156701423"><ele>117.0</ele><time>2026-04-12T16:11:04.998Z</time></trkpt><trkpt lat="45.52146551881795" lon="10.818816282583686"><ele>117.0</ele><time>2026-04-12T16:11:05.998Z</time></trkpt><trkpt lat="45.52130840055725" lon="10.81884145801357"><ele>117.0</ele><time>2026-04-12T16:11:06.998Z</time></trkpt><trkpt lat="45.5211505305852" lon="10.818859868626484"><ele>117.0</ele><time>2026-04-12T16:11:07.998Z</time></trkpt><trkpt lat="45.5209935664536" lon="10.818875975632405"><ele>116.0</ele><time>2026-04-12T16:11:08.998Z</time></trkpt><trkpt lat="45.52083710843321" lon="10.818890253689675"><ele>115.0</ele><time>2026-04-12T16:11:09.998Z</time></trkpt><trkpt lat="45.52067769305399" lon="10.818902759821404"><ele>114.0</ele><time>2026-04-12T16:11:10.998Z</time></trkpt><trkpt lat="45.520516279796475" lon="10.8189054033459"><ele>113.66666666666666</ele><time>2026-04-12T16:11:11.998Z</time></trkpt><trkpt lat="45.520359277134936" lon="10.818906732227054"><ele>113.33333333333333</ele><time>2026-04-12T16:11:12.998Z</time></trkpt><trkpt lat="45.5202065207175" lon="10.818915485754728"><ele>113.0</ele><time>2026-04-12T16:11:14Z</time></trkpt><trkpt lat="45.52006497618904" lon="10.818921593444465"><ele>113.0</ele><time>2026-04-12T16:11:15Z</time></trkpt><trkpt lat="45.51992405473152" lon="10.818934981059947"><ele>113.0</ele><time>2026-04-12T16:11:16Z</time></trkpt><trkpt lat="45.51978494642085" lon="10.818960524143565"><ele>113.0</ele><time>2026-04-12T16:11:17Z</time></trkpt><trkpt lat="45.519654877919656" lon="10.818998094878042"><ele>113.0</ele><time>2026-04-12T16:11:18Z</time></trkpt><trkpt lat="45.519534807564064" lon="10.819041283053647"><ele>113.2</ele><time>2026-04-12T16:11:19Z</time></trkpt><trkpt lat="45.519424379722494" lon="10.819089626108495"><ele>113.4</ele><time>2026-04-12T16:11:20Z</time></trkpt><trkpt lat="45.51932853758152" lon="10.819136227679993"><ele>113.60000000000001</ele><time>2026-04-12T16:11:21Z</time></trkpt><trkpt lat="45.51924182115618" lon="10.819178025427403"><ele>113.80000000000001</ele><time>2026-04-12T16:11:22Z</time></trkpt><trkpt lat="45.5191711655443" lon="10.81921193943934"><ele>114.0</ele><time>2026-04-12T16:11:23Z</time></trkpt><trkpt lat="45.519106351569704" lon="10.819240750396743"><ele>114.0</ele><time>2026-04-12T16:11:24Z</time></trkpt><trkpt lat="45.51904192693764" lon="10.819271189583125"><ele>114.0</ele><time>2026-04-12T16:11:25Z</time></trkpt><trkpt lat="45.51896769989262" lon="10.819309621505644"><ele>114.0</ele><time>2026-04-12T16:11:26Z</time></trkpt><trkpt lat="45.51888172085587" lon="10.819366902827626"><ele>114.0</ele><time>2026-04-12T16:11:27Z</time></trkpt><trkpt lat="45.518791830077305" lon="10.819449614029445"><ele>114.0</ele><time>2026-04-12T16:11:28Z</time></trkpt><trkpt lat="45.518716078803415" lon="10.819543574369686"><ele>114.0</ele><time>2026-04-12T16:11:29Z</time></trkpt><trkpt lat="45.51864338314791" lon="10.819640607949015"><ele>114.2</ele><time>2026-04-12T16:11:30Z</time></trkpt><trkpt lat="45.51856118650725" lon="10.81973126002376"><ele>114.4</ele><time>2026-04-12T16:11:31Z</time></trkpt><trkpt lat="45.51845663232981" lon="10.819786337863768"><ele>114.6</ele><time>2026-04-12T16:11:32Z</time></trkpt><trkpt lat="45.518373702566755" lon="10.819872188002623"><ele>114.8</ele><time>2026-04-12T16:11:33Z</time></trkpt><trkpt lat="45.51828783903797" lon="10.819963081193356"><ele>115.0</ele><time>2026-04-12T16:11:34Z</time></trkpt><trkpt lat="45.51819816580761" lon="10.8200580072476"><ele>115.0</ele><time>2026-04-12T16:11:35Z</time></trkpt><trkpt lat="45.518104662907696" lon="10.820159239431153"><ele>115.0</ele><time>2026-04-12T16:11:36Z</time></trkpt><trkpt lat="45.51799435975548" lon="10.820277022502225"><ele>115.0</ele><time>2026-04-12T16:11:37Z</time></trkpt><trkpt lat="45.51785187394663" lon="10.820428884348111"><ele>115.0</ele><time>2026-04-12T16:11:38Z</time></trkpt><trkpt lat="45.517682819030945" lon="10.820608814906024"><ele>115.0</ele><time>2026-04-12T16:11:39Z</time></trkpt><trkpt lat="45.517506612918865" lon="10.820796242038066"><ele>115.0</ele><time>2026-04-12T16:11:40Z</time></trkpt><trkpt lat="45.51732699063836" lon="10.820987751519002"><ele>115.0</ele><time>2026-04-12T16:11:41Z</time></trkpt><trkpt lat="45.51715290006893" lon="10.821173268513425"><ele>114.0</ele><time>2026-04-12T16:11:42Z</time></trkpt><trkpt lat="45.5169981796787" lon="10.821338143965283"><ele>113.0</ele><time>2026-04-12T16:11:43Z</time></trkpt><trkpt lat="45.5168591168836" lon="10.821486334136722"><ele>112.0</ele><time>2026-04-12T16:11:44Z</time></trkpt><trkpt lat="45.51673204264011" lon="10.821621981072486"><ele>112.0</ele><time>2026-04-12T16:11:45Z</time></trkpt><trkpt lat="45.51660975779305" lon="10.82175257355353"><ele>112.0</ele><time>2026-04-12T16:11:46Z</time></trkpt><trkpt lat="45.5164929138247" lon="10.821877355520972"><ele>112.0</ele><time>2026-04-12T16:11:47Z</time></trkpt><trkpt lat="45.516369539254285" lon="10.822009111756614"><ele>112.33333333333334</ele><time>2026-04-12T16:11:48Z</time></trkpt><trkpt lat="45.51624158134253" lon="10.822145762705437"><ele>112.66666666666666</ele><time>2026-04-12T16:11:49Z</time></trkpt><trkpt lat="45.51610466491254" lon="10.82229223530605"><ele>113.0</ele><time>2026-04-12T16:11:50Z</time></trkpt><trkpt lat="45.51594951399516" lon="10.82245815646378"><ele>114.5</ele><time>2026-04-12T16:11:51Z</time></trkpt><trkpt lat="45.515752590626384" lon="10.822668749827454"><ele>116.0</ele><time>2026-04-12T16:11:52Z</time></trkpt><trkpt lat="45.51554245307892" lon="10.822892439909168"><ele>114.5</ele><time>2026-04-12T16:11:53Z</time></trkpt><trkpt lat="45.51530665887722" lon="10.823142152237251"><ele>113.0</ele><time>2026-04-12T16:11:54Z</time></trkpt><trkpt lat="45.51508051831572" lon="10.82338459883269"><ele>113.5</ele><time>2026-04-12T16:11:55Z</time></trkpt><trkpt lat="45.51486899697533" lon="10.823622797448039"><ele>114.0</ele><time>2026-04-12T16:11:55.999Z</time></trkpt><trkpt lat="45.514660855123786" lon="10.823838200371586"><ele>113.0</ele><time>2026-04-12T16:11:56.999Z</time></trkpt><trkpt lat="45.514462680284254" lon="10.824056934478737"><ele>112.0</ele><time>2026-04-12T16:11:57.999Z</time></trkpt><trkpt lat="45.51426138651819" lon="10.824268120603442"><ele>114.0</ele><time>2026-04-12T16:11:58.999Z</time></trkpt><trkpt lat="45.514065958405304" lon="10.824478655461986"><ele>116.0</ele><time>2026-04-12T16:11:59.999Z</time></trkpt><trkpt lat="45.51387454092523" lon="10.824683328096988"><ele>117.0</ele><time>2026-04-12T16:12:00.999Z</time></trkpt><trkpt lat="45.513689943518656" lon="10.824881084232807"><ele>118.0</ele><time>2026-04-12T16:12:01.999Z</time></trkpt><trkpt lat="45.51351172805714" lon="10.825070503923127"><ele>118.66666666666667</ele><time>2026-04-12T16:12:02.999Z</time></trkpt><trkpt lat="45.513350671912484" lon="10.825244823875874"><ele>119.33333333333334</ele><time>2026-04-12T16:12:03.999Z</time></trkpt><trkpt lat="45.51318801879888" lon="10.825388180640008"><ele>120.0</ele><time>2026-04-12T16:12:04.999Z</time></trkpt><trkpt lat="45.513036409537506" lon="10.825576043825338"><ele>118.33333333333334</ele><time>2026-04-12T16:12:05.999Z</time></trkpt><trkpt lat="45.51287630299092" lon="10.825743052382123"><ele>116.66666666666667</ele><time>2026-04-12T16:12:06.999Z</time></trkpt><trkpt lat="45.512727198460965" lon="10.825901815811482"><ele>115.0</ele><time>2026-04-12T16:12:07.999Z</time></trkpt><trkpt lat="45.51257684144561" lon="10.826035132778106"><ele>115.0</ele><time>2026-04-12T16:12:08.999Z</time></trkpt><trkpt lat="45.512427606421035" lon="10.82619389035094"><ele>115.0</ele><time>2026-04-12T16:12:09.999Z</time></trkpt><trkpt lat="45.51228367609555" lon="10.826372672324068"><ele>115.0</ele><time>2026-04-12T16:12:10.999Z</time></trkpt><trkpt lat="45.512132065003016" lon="10.826530480920056"><ele>115.33333333333334</ele><time>2026-04-12T16:12:11.999Z</time></trkpt><trkpt lat="45.51198261612832" lon="10.82669312213879"><ele>115.66666666666666</ele><time>2026-04-12T16:12:12.999Z</time></trkpt><trkpt lat="45.511838409897074" lon="10.826843306718134"><ele>116.0</ele><time>2026-04-12T16:12:13.999Z</time></trkpt><trkpt lat="45.511696002614315" lon="10.826996015848257"><ele>117.0</ele><time>2026-04-12T16:12:14.999Z</time></trkpt><trkpt lat="45.511550569599564" lon="10.827150590425457"><ele>118.0</ele><time>2026-04-12T16:12:15.999Z</time></trkpt><trkpt lat="45.511403047904835" lon="10.82730612427293"><ele>119.0</ele><time>2026-04-12T16:12:16.999Z</time></trkpt><trkpt lat="45.511253363827635" lon="10.827461964365575"><ele>118.0</ele><time>2026-04-12T16:12:17.999Z</time></trkpt><trkpt lat="45.5111027112456" lon="10.827620414721745"><ele>117.0</ele><time>2026-04-12T16:12:18.999Z</time></trkpt><trkpt lat="45.51094935250353" lon="10.827783914893983"><ele>116.0</ele><time>2026-04-12T16:12:19.999Z</time></trkpt><trkpt lat="45.510792659684384" lon="10.827951314664176"><ele>116.0</ele><time>2026-04-12T16:12:20.999Z</time></trkpt><trkpt lat="45.51063479146282" lon="10.828121729604906"><ele>116.0</ele><time>2026-04-12T16:12:21.999Z</time></trkpt><trkpt lat="45.510471087703934" lon="10.828293943579151"><ele>116.0</ele><time>2026-04-12T16:12:22.999Z</time></trkpt><trkpt lat="45.510302949162835" lon="10.828473106425903"><ele>116.33333333333333</ele><time>2026-04-12T16:12:23.999Z</time></trkpt><trkpt lat="45.51013672288201" lon="10.82865232585339"><ele>116.66666666666666</ele><time>2026-04-12T16:12:24.999Z</time></trkpt><trkpt lat="45.509975995310306" lon="10.828823664952978"><ele>117.0</ele><time>2026-04-12T16:12:25.999Z</time></trkpt><trkpt lat="45.50981552871632" lon="10.828990267952722"><ele>117.0</ele><time>2026-04-12T16:12:26.999Z</time></trkpt><trkpt lat="45.50966038782003" lon="10.829155999215827"><ele>117.0</ele><time>2026-04-12T16:12:27.999Z</time></trkpt><trkpt lat="45.509516709111054" lon="10.82931989467458"><ele>117.0</ele><time>2026-04-12T16:12:28.999Z</time></trkpt><trkpt lat="45.509380747249985" lon="10.829489392949553"><ele>117.33333333333334</ele><time>2026-04-12T16:12:29.999Z</time></trkpt><trkpt lat="45.50925346676438" lon="10.829665779660646"><ele>117.66666666666667</ele><time>2026-04-12T16:12:30.999Z</time></trkpt><trkpt lat="45.50912195142469" lon="10.829820274633052"><ele>118.0</ele><time>2026-04-12T16:12:31.999Z</time></trkpt><trkpt lat="45.509003833850265" lon="10.82998061398911"><ele>118.0</ele><time>2026-04-12T16:12:32.999Z</time></trkpt><trkpt lat="45.508888069761745" lon="10.830137780990304"><ele>118.0</ele><time>2026-04-12T16:12:33.999Z</time></trkpt><trkpt lat="45.50883284394369" lon="10.8303790814509"><ele>118.0</ele><time>2026-04-12T16:12:34.999Z</time></trkpt><trkpt lat="45.50873864243043" lon="10.83056881975865"><ele>118.0</ele><time>2026-04-12T16:12:35.999Z</time></trkpt><trkpt lat="45.50864647435408" lon="10.830768872064985"><ele>118.0</ele><time>2026-04-12T16:12:36.999Z</time></trkpt><trkpt lat="45.508556172614924" lon="10.830976202478931"><ele>118.0</ele><time>2026-04-12T16:12:37.999Z</time></trkpt><trkpt lat="45.508472351948335" lon="10.831187345672465"><ele>117.33333333333334</ele><time>2026-04-12T16:12:38.999Z</time></trkpt><trkpt lat="45.508397558342615" lon="10.8313981877257"><ele>116.66666666666666</ele><time>2026-04-12T16:12:39.999Z</time></trkpt><trkpt lat="45.50832893858382" lon="10.831611356280957"><ele>116.0</ele><time>2026-04-12T16:12:40.999Z</time></trkpt><trkpt lat="45.50826555127617" lon="10.831838475243439"><ele>117.33333333333333</ele><time>2026-04-12T16:12:41.999Z</time></trkpt><trkpt lat="45.50820673297201" lon="10.832067466185332"><ele>118.66666666666666</ele><time>2026-04-12T16:12:42.999Z</time></trkpt><trkpt lat="45.508150892346166" lon="10.832297791167132"><ele>120.0</ele><time>2026-04-12T16:12:43.999Z</time></trkpt><trkpt lat="45.50809779648476" lon="10.832523700533427"><ele>119.33333333333334</ele><time>2026-04-12T16:12:44.999Z</time></trkpt><trkpt lat="45.50804758336921" lon="10.832753746089473"><ele>118.66666666666667</ele><time>2026-04-12T16:12:45.999Z</time></trkpt><trkpt lat="45.50799539978272" lon="10.83298170374389"><ele>118.0</ele><time>2026-04-12T16:12:46.999Z</time></trkpt><trkpt lat="45.50794378667067" lon="10.833211569580804"><ele>118.33333333333334</ele><time>2026-04-12T16:12:47.999Z</time></trkpt><trkpt lat="45.50789377100961" lon="10.833437936786128"><ele>118.66666666666666</ele><time>2026-04-12T16:12:48.999Z</time></trkpt><trkpt lat="45.507848050208516" lon="10.833650540808828"><ele>119.0</ele><time>2026-04-12T16:12:49.999Z</time></trkpt><trkpt lat="45.5077987021113" lon="10.833858511216272"><ele>119.5</ele><time>2026-04-12T16:12:50.999Z</time></trkpt><trkpt lat="45.50775076065478" lon="10.834064826044079"><ele>120.0</ele><time>2026-04-12T16:12:51.999Z</time></trkpt><trkpt lat="45.50770348375504" lon="10.834267004020665"><ele>120.5</ele><time>2026-04-12T16:12:52.998Z</time></trkpt><trkpt lat="45.507659068123104" lon="10.834466028484183"><ele>121.0</ele><time>2026-04-12T16:12:53.998Z</time></trkpt><trkpt lat="45.50761767254381" lon="10.834663234215453"><ele>121.0</ele><time>2026-04-12T16:12:54.998Z</time></trkpt><trkpt lat="45.50757406481579" lon="10.834865287408647"><ele>121.0</ele><time>2026-04-12T16:12:55.998Z</time></trkpt><trkpt lat="45.50752744641263" lon="10.835070133893876"><ele>121.0</ele><time>2026-04-12T16:12:56.998Z</time></trkpt><trkpt lat="45.50748611320968" lon="10.835276654752638"><ele>121.0</ele><time>2026-04-12T16:12:57.998Z</time></trkpt><trkpt lat="45.507446481844234" lon="10.835490858406098"><ele>121.0</ele><time>2026-04-12T16:12:58.998Z</time></trkpt><trkpt lat="45.50740830183677" lon="10.835705209853248"><ele>121.0</ele><time>2026-04-12T16:12:59.998Z</time></trkpt><trkpt lat="45.507371799957156" lon="10.835921327697395"><ele>121.66666666666667</ele><time>2026-04-12T16:13:00.998Z</time></trkpt><trkpt lat="45.50734061803733" lon="10.836138696171346"><ele>122.33333333333334</ele><time>2026-04-12T16:13:01.998Z</time></trkpt><trkpt lat="45.50731083988243" lon="10.83634984030092"><ele>123.0</ele><time>2026-04-12T16:13:02.998Z</time></trkpt><trkpt lat="45.50727853219456" lon="10.83656359963164"><ele>123.0</ele><time>2026-04-12T16:13:03.998Z</time></trkpt><trkpt lat="45.50724463082806" lon="10.836775552413005"><ele>123.0</ele><time>2026-04-12T16:13:04.998Z</time></trkpt><trkpt lat="45.50721503273335" lon="10.83698848176053"><ele>123.0</ele><time>2026-04-12T16:13:05.998Z</time></trkpt><trkpt lat="45.507190690067446" lon="10.837215226100644"><ele>123.0</ele><time>2026-04-12T16:13:06.998Z</time></trkpt><trkpt lat="45.50716310039507" lon="10.837474813056554"><ele>123.0</ele><time>2026-04-12T16:13:07.998Z</time></trkpt><trkpt lat="45.50712743024149" lon="10.837751242860202"><ele>123.0</ele><time>2026-04-12T16:13:08.998Z</time></trkpt><trkpt lat="45.50707602755529" lon="10.83805354822436"><ele>122.66666666666666</ele><time>2026-04-12T16:13:09.998Z</time></trkpt><trkpt lat="45.50702643253094" lon="10.83836317040819"><ele>122.33333333333333</ele><time>2026-04-12T16:13:10.998Z</time></trkpt><trkpt lat="45.50698441918649" lon="10.838666063792463"><ele>122.0</ele><time>2026-04-12T16:13:11.998Z</time></trkpt><trkpt lat="45.50694440309317" lon="10.838956842483961"><ele>121.33333333333333</ele><time>2026-04-12T16:13:12.998Z</time></trkpt><trkpt lat="45.50690356630299" lon="10.839224042176491"><ele>120.66666666666666</ele><time>2026-04-12T16:13:13.998Z</time></trkpt><trkpt lat="45.506866876396224" lon="10.8394653479792"><ele>120.0</ele><time>2026-04-12T16:13:14.998Z</time></trkpt><trkpt lat="45.50683216092076" lon="10.83969058085108"><ele>120.0</ele><time>2026-04-12T16:13:15.998Z</time></trkpt><trkpt lat="45.506799655235874" lon="10.839911471937045"><ele>120.0</ele><time>2026-04-12T16:13:16.998Z</time></trkpt><trkpt lat="45.50677010920253" lon="10.84012559922703"><ele>120.0</ele><time>2026-04-12T16:13:17.998Z</time></trkpt><trkpt lat="45.506738411630735" lon="10.840329988178997"><ele>120.0</ele><time>2026-04-12T16:13:18.998Z</time></trkpt><trkpt lat="45.50670281791859" lon="10.840539018047389"><ele>120.0</ele><time>2026-04-12T16:13:20Z</time></trkpt><trkpt lat="45.506664200219134" lon="10.840746236093842"><ele>120.0</ele><time>2026-04-12T16:13:21Z</time></trkpt><trkpt lat="45.50662281503247" lon="10.840952438240581"><ele>120.0</ele><time>2026-04-12T16:13:22Z</time></trkpt><trkpt lat="45.50658392729868" lon="10.841140480174664"><ele>120.0</ele><time>2026-04-12T16:13:23Z</time></trkpt><trkpt lat="45.50655078763711" lon="10.841313104493672"><ele>120.0</ele><time>2026-04-12T16:13:24Z</time></trkpt><trkpt lat="45.50650994292128" lon="10.841494690816381"><ele>120.0</ele><time>2026-04-12T16:13:25Z</time></trkpt><trkpt lat="45.50647328272714" lon="10.841660890467155"><ele>119.6</ele><time>2026-04-12T16:13:26Z</time></trkpt><trkpt lat="45.506441866048306" lon="10.841812879703356"><ele>119.2</ele><time>2026-04-12T16:13:27Z</time></trkpt><trkpt lat="45.50641144332689" lon="10.841961706996234"><ele>118.80000000000001</ele><time>2026-04-12T16:13:28Z</time></trkpt><trkpt lat="45.506373753159224" lon="10.842113746681198"><ele>118.4</ele><time>2026-04-12T16:13:29Z</time></trkpt><trkpt lat="45.506342489609274" lon="10.842265363890572"><ele>118.0</ele><time>2026-04-12T16:13:30Z</time></trkpt><trkpt lat="45.50631661767746" lon="10.842401493282273"><ele>118.00000000000001</ele><time>2026-04-12T16:13:31Z</time></trkpt><trkpt lat="45.50629565467282" lon="10.842518816590314"><ele>118.0</ele><time>2026-04-12T16:13:32Z</time></trkpt><trkpt lat="45.506281473911876" lon="10.842614401782253"><ele>118.0</ele><time>2026-04-12T16:13:33Z</time></trkpt><trkpt lat="45.50625848662338" lon="10.842704074710149"><ele>118.0</ele><time>2026-04-12T16:13:34Z</time></trkpt><trkpt lat="45.50622249295328" lon="10.842783278634778"><ele>118.00000000000001</ele><time>2026-04-12T16:13:35Z</time></trkpt><trkpt lat="45.506176133347694" lon="10.84286859403921"><ele>118.0</ele><time>2026-04-12T16:13:36Z</time></trkpt><trkpt lat="45.50614085742022" lon="10.84298395960339"><ele>118.5</ele><time>2026-04-12T16:13:37Z</time></trkpt><trkpt lat="45.50612513640431" lon="10.843107896342131"><ele>119.0</ele><time>2026-04-12T16:13:38Z</time></trkpt><trkpt lat="45.506134346574456" lon="10.843237826197079"><ele>119.5</ele><time>2026-04-12T16:13:39Z</time></trkpt><trkpt lat="45.50613385075205" lon="10.843407677692548"><ele>120.0</ele><time>2026-04-12T16:13:40Z</time></trkpt><trkpt lat="45.50605149137592" lon="10.843599669338134"><ele>120.33333333333334</ele><time>2026-04-12T16:13:41Z</time></trkpt><trkpt lat="45.50599315302147" lon="10.84387078722715"><ele>120.66666666666667</ele><time>2026-04-12T16:13:42Z</time></trkpt><trkpt lat="45.50595346691153" lon="10.844167829686567"><ele>121.0</ele><time>2026-04-12T16:13:43Z</time></trkpt><trkpt lat="45.505898191113445" lon="10.844445590031853"><ele>121.0</ele><time>2026-04-12T16:13:44Z</time></trkpt><trkpt lat="45.50584549611805" lon="10.84470957688077"><ele>121.0</ele><time>2026-04-12T16:13:45Z</time></trkpt><trkpt lat="45.50577412314442" lon="10.844968551005593"><ele>121.0</ele><time>2026-04-12T16:13:46Z</time></trkpt><trkpt lat="45.50567958090233" lon="10.845216666478889"><ele>120.66666666666667</ele><time>2026-04-12T16:13:47Z</time></trkpt><trkpt lat="45.50557506520429" lon="10.845452111720677"><ele>120.33333333333334</ele><time>2026-04-12T16:13:48Z</time></trkpt><trkpt lat="45.50547213414225" lon="10.845684783343822"><ele>120.0</ele><time>2026-04-12T16:13:49Z</time></trkpt><trkpt lat="45.505355739496366" lon="10.8459077169331"><ele>119.66666666666666</ele><time>2026-04-12T16:13:50Z</time></trkpt><trkpt lat="45.50522296466139" lon="10.846124206683665"><ele>119.33333333333333</ele><time>2026-04-12T16:13:51Z</time></trkpt><trkpt lat="45.50509976592069" lon="10.84633351098635"><ele>119.0</ele><time>2026-04-12T16:13:52Z</time></trkpt><trkpt lat="45.50497303138545" lon="10.846561323390928"><ele>119.66666666666666</ele><time>2026-04-12T16:13:53Z</time></trkpt><trkpt lat="45.50485342667281" lon="10.84679959538477"><ele>120.33333333333334</ele><time>2026-04-12T16:13:54Z</time></trkpt><trkpt lat="45.504737594418174" lon="10.84704995157263"><ele>121.0</ele><time>2026-04-12T16:13:55Z</time></trkpt><trkpt lat="45.50463645477579" lon="10.847315156987676"><ele>120.33333333333334</ele><time>2026-04-12T16:13:56Z</time></trkpt><trkpt lat="45.50453409427981" lon="10.847586823700915"><ele>119.66666666666666</ele><time>2026-04-12T16:13:57Z</time></trkpt><trkpt lat="45.50443483454283" lon="10.847869485140226"><ele>119.0</ele><time>2026-04-12T16:13:58Z</time></trkpt><trkpt lat="45.504339152813394" lon="10.848157995392771"><ele>118.5</ele><time>2026-04-12T16:13:59Z</time></trkpt><trkpt lat="45.504245768827644" lon="10.848450657775423"><ele>118.0</ele><time>2026-04-12T16:14:00Z</time></trkpt><trkpt lat="45.50414822369811" lon="10.84874069738689"><ele>118.0</ele><time>2026-04-12T16:14:01Z</time></trkpt><trkpt lat="45.504059166441415" lon="10.849029847917521"><ele>118.0</ele><time>2026-04-12T16:14:01.999Z</time></trkpt><trkpt lat="45.50398396409143" lon="10.849317735149278"><ele>118.0</ele><time>2026-04-12T16:14:02.999Z</time></trkpt><trkpt lat="45.503914710402135" lon="10.849610716829757"><ele>117.66666666666667</ele><time>2026-04-12T16:14:03.999Z</time></trkpt><trkpt lat="45.50384281129394" lon="10.849912337657678"><ele>117.33333333333334</ele><time>2026-04-12T16:14:04.999Z</time></trkpt><trkpt lat="45.50376849221139" lon="10.850216765694563"><ele>117.0</ele><time>2026-04-12T16:14:05.999Z</time></trkpt><trkpt lat="45.503690697392656" lon="10.850520423957796"><ele>117.0</ele><time>2026-04-12T16:14:06.999Z</time></trkpt><trkpt lat="45.50360769325086" lon="10.850823777705978"><ele>117.0</ele><time>2026-04-12T16:14:07.999Z</time></trkpt><trkpt lat="45.503515662136714" lon="10.851123986030629"><ele>116.5</ele><time>2026-04-12T16:14:08.999Z</time></trkpt><trkpt lat="45.50341371506012" lon="10.851428866033677"><ele>116.0</ele><time>2026-04-12T16:14:09.999Z</time></trkpt><trkpt lat="45.50330676610569" lon="10.85173570917341"><ele>115.5</ele><time>2026-04-12T16:14:10.999Z</time></trkpt><trkpt lat="45.503175781189825" lon="10.852025266127463"><ele>115.0</ele><time>2026-04-12T16:14:11.999Z</time></trkpt><trkpt lat="45.50306882701779" lon="10.852336081507714"><ele>115.0</ele><time>2026-04-12T16:14:12.999Z</time></trkpt><trkpt lat="45.50294383920504" lon="10.852629753948364"><ele>115.0</ele><time>2026-04-12T16:14:13.999Z</time></trkpt><trkpt lat="45.502826167343244" lon="10.852929300962463"><ele>115.5</ele><time>2026-04-12T16:14:14.999Z</time></trkpt><trkpt lat="45.50271591491308" lon="10.853230272279864"><ele>116.0</ele><time>2026-04-12T16:14:15.999Z</time></trkpt><trkpt lat="45.502609429208654" lon="10.853529849548398"><ele>115.33333333333333</ele><time>2026-04-12T16:14:16.999Z</time></trkpt><trkpt lat="45.502509033727776" lon="10.85381135849191"><ele>114.66666666666666</ele><time>2026-04-12T16:14:17.999Z</time></trkpt><trkpt lat="45.502415792876675" lon="10.854068998865477"><ele>114.0</ele><time>2026-04-12T16:14:18.999Z</time></trkpt><trkpt lat="45.502326836303546" lon="10.854311905478571"><ele>114.0</ele><time>2026-04-12T16:14:19.999Z</time></trkpt><trkpt lat="45.502244248939085" lon="10.854547088422821"><ele>114.0</ele><time>2026-04-12T16:14:20.999Z</time></trkpt><trkpt lat="45.50216201523418" lon="10.854772505562151"><ele>114.0</ele><time>2026-04-12T16:14:21.999Z</time></trkpt><trkpt lat="45.50208372345564" lon="10.854981606801452"><ele>113.66666666666666</ele><time>2026-04-12T16:14:22.999Z</time></trkpt><trkpt lat="45.50201018484741" lon="10.855181669018476"><ele>113.33333333333333</ele><time>2026-04-12T16:14:23.999Z</time></trkpt><trkpt lat="45.50194179618857" lon="10.855384324291537"><ele>113.0</ele><time>2026-04-12T16:14:24.999Z</time></trkpt><trkpt lat="45.501875772786725" lon="10.855568756027735"><ele>113.0</ele><time>2026-04-12T16:14:25.999Z</time></trkpt><trkpt lat="45.50181003935686" lon="10.855738656601119"><ele>113.0</ele><time>2026-04-12T16:14:26.999Z</time></trkpt><trkpt lat="45.501748904183934" lon="10.855902602364466"><ele>113.0</ele><time>2026-04-12T16:14:27.999Z</time></trkpt><trkpt lat="45.50169485710206" lon="10.856058415531738"><ele>113.0</ele><time>2026-04-12T16:14:28.999Z</time></trkpt><trkpt lat="45.50164564274934" lon="10.856211396910172"><ele>113.0</ele><time>2026-04-12T16:14:29.999Z</time></trkpt><trkpt lat="45.50159323763651" lon="10.856376149898136"><ele>113.0</ele><time>2026-04-12T16:14:30.999Z</time></trkpt><trkpt lat="45.501532855438114" lon="10.856556475565643"><ele>113.0</ele><time>2026-04-12T16:14:31.999Z</time></trkpt><trkpt lat="45.50146778916336" lon="10.85674656688686"><ele>113.0</ele><time>2026-04-12T16:14:32.999Z</time></trkpt><trkpt lat="45.50140328993585" lon="10.856934064448001"><ele>113.25</ele><time>2026-04-12T16:14:33.999Z</time></trkpt><trkpt lat="45.501337624761426" lon="10.857113373263315"><ele>113.5</ele><time>2026-04-12T16:14:34.999Z</time></trkpt><trkpt lat="45.501275121825095" lon="10.857285790288824"><ele>113.75</ele><time>2026-04-12T16:14:35.999Z</time></trkpt><trkpt lat="45.50121438581459" lon="10.857451284078573"><ele>114.0</ele><time>2026-04-12T16:14:36.999Z</time></trkpt><trkpt lat="45.50115281956774" lon="10.857610753764579"><ele>114.0</ele><time>2026-04-12T16:14:37.999Z</time></trkpt><trkpt lat="45.50109190199039" lon="10.857773506755027"><ele>114.0</ele><time>2026-04-12T16:14:38.999Z</time></trkpt><trkpt lat="45.501029818660925" lon="10.857938112965627"><ele>114.0</ele><time>2026-04-12T16:14:39.999Z</time></trkpt><trkpt lat="45.500965613871465" lon="10.858097655277154"><ele>114.0</ele><time>2026-04-12T16:14:40.999Z</time></trkpt><trkpt lat="45.50089903861414" lon="10.858253616623806"><ele>114.0</ele><time>2026-04-12T16:14:41.999Z</time></trkpt><trkpt lat="45.50082734720264" lon="10.85841727133635"><ele>114.0</ele><time>2026-04-12T16:14:42.999Z</time></trkpt><trkpt lat="45.50075210273825" lon="10.858589857815971"><ele>114.0</ele><time>2026-04-12T16:14:43.999Z</time></trkpt><trkpt lat="45.50066896384649" lon="10.858769798682324"><ele>114.0</ele><time>2026-04-12T16:14:44.999Z</time></trkpt><trkpt lat="45.50058204002055" lon="10.858953905155472"><ele>114.0</ele><time>2026-04-12T16:14:45.999Z</time></trkpt><trkpt lat="45.50049582420845" lon="10.859130520313137"><ele>114.0</ele><time>2026-04-12T16:14:46.999Z</time></trkpt><trkpt lat="45.50041916654261" lon="10.859297965436767"><ele>114.0</ele><time>2026-04-12T16:14:47.999Z</time></trkpt><trkpt lat="45.50034611126882" lon="10.859454682998567"><ele>114.0</ele><time>2026-04-12T16:14:48.999Z</time></trkpt><trkpt lat="45.50027624944155" lon="10.859600064845518"><ele>114.0</ele><time>2026-04-12T16:14:49.999Z</time></trkpt><trkpt lat="45.50021089472997" lon="10.859736282761201"><ele>114.0</ele><time>2026-04-12T16:14:50.999Z</time></trkpt><trkpt lat="45.500149395023584" lon="10.85986800349752"><ele>114.0</ele><time>2026-04-12T16:14:51.999Z</time></trkpt><trkpt lat="45.500089582445575" lon="10.860000610453762"><ele>114.0</ele><time>2026-04-12T16:14:52.999Z</time></trkpt><trkpt lat="45.50002564437624" lon="10.860138920135437"><ele>113.5</ele><time>2026-04-12T16:14:53.999Z</time></trkpt><trkpt lat="45.49995694748397" lon="10.860281431806445"><ele>113.0</ele><time>2026-04-12T16:14:54.999Z</time></trkpt><trkpt lat="45.49988556249581" lon="10.860424870526698"><ele>112.5</ele><time>2026-04-12T16:14:55.999Z</time></trkpt><trkpt lat="45.4998095471923" lon="10.860565211055333"><ele>112.0</ele><time>2026-04-12T16:14:56.999Z</time></trkpt><trkpt lat="45.4997321124454" lon="10.860700737398945"><ele>112.0</ele><time>2026-04-12T16:14:57.999Z</time></trkpt><trkpt lat="45.4996538642593" lon="10.860836698223418"><ele>112.0</ele><time>2026-04-12T16:14:58.998Z</time></trkpt><trkpt lat="45.49957567508919" lon="10.860970724655424"><ele>112.0</ele><time>2026-04-12T16:14:59.998Z</time></trkpt><trkpt lat="45.49949898777645" lon="10.861099234622374"><ele>112.0</ele><time>2026-04-12T16:15:00.998Z</time></trkpt><trkpt lat="45.49943154253207" lon="10.861212771360197"><ele>111.39999999999999</ele><time>2026-04-12T16:15:01.998Z</time></trkpt><trkpt lat="45.49936476447066" lon="10.861323989435078"><ele>110.79999999999998</ele><time>2026-04-12T16:15:02.998Z</time></trkpt><trkpt lat="45.499294032446514" lon="10.861424214391171"><ele>110.2</ele><time>2026-04-12T16:15:03.998Z</time></trkpt><trkpt lat="45.499205676882" lon="10.861511669379254"><ele>109.6</ele><time>2026-04-12T16:15:04.998Z</time></trkpt><trkpt lat="45.49910500443134" lon="10.861569491884183"><ele>109.0</ele><time>2026-04-12T16:15:05.998Z</time></trkpt><trkpt lat="45.49898534269491" lon="10.861571207927174"><ele>109.0</ele><time>2026-04-12T16:15:06.998Z</time></trkpt><trkpt lat="45.498862503259375" lon="10.861522765523977"><ele>109.0</ele><time>2026-04-12T16:15:07.998Z</time></trkpt><trkpt lat="45.498738399234114" lon="10.86143963090105"><ele>109.0</ele><time>2026-04-12T16:15:08.998Z</time></trkpt><trkpt lat="45.49860945870796" lon="10.861346503514165"><ele>109.0</ele><time>2026-04-12T16:15:09.998Z</time></trkpt><trkpt lat="45.49847117773165" lon="10.861253905938394"><ele>108.66666666666667</ele><time>2026-04-12T16:15:10.998Z</time></trkpt><trkpt lat="45.49831957196752" lon="10.861162455135489"><ele>108.33333333333334</ele><time>2026-04-12T16:15:11.998Z</time></trkpt><trkpt lat="45.4981601084589" lon="10.861058564413204"><ele>108.0</ele><time>2026-04-12T16:15:12.998Z</time></trkpt><trkpt lat="45.49799646990625" lon="10.860942574103332"><ele>107.66666666666666</ele><time>2026-04-12T16:15:13.998Z</time></trkpt><trkpt lat="45.49784175642193" lon="10.860790062808084"><ele>107.33333333333333</ele><time>2026-04-12T16:15:14.998Z</time></trkpt><trkpt lat="45.4976932789856" lon="10.860618499272256"><ele>107.0</ele><time>2026-04-12T16:15:15.998Z</time></trkpt><trkpt lat="45.49754345661333" lon="10.860435052825009"><ele>107.0</ele><time>2026-04-12T16:15:16.998Z</time></trkpt><trkpt lat="45.49739560367018" lon="10.860247114979831"><ele>107.0</ele><time>2026-04-12T16:15:17.998Z</time></trkpt><trkpt lat="45.49724328930942" lon="10.860054029318874"><ele>107.0</ele><time>2026-04-12T16:15:18.998Z</time></trkpt><trkpt lat="45.49708651858374" lon="10.859861895562386"><ele>108.0</ele><time>2026-04-12T16:15:19.998Z</time></trkpt><trkpt lat="45.49692634886735" lon="10.859664075073097"><ele>109.0</ele><time>2026-04-12T16:15:20.998Z</time></trkpt><trkpt lat="45.496757770835444" lon="10.859467169128799"><ele>110.0</ele><time>2026-04-12T16:15:21.998Z</time></trkpt><trkpt lat="45.49658162203374" lon="10.85928150374954"><ele>110.0</ele><time>2026-04-12T16:15:22.998Z</time></trkpt><trkpt lat="45.49639444627497" lon="10.859109588315903"><ele>110.0</ele><time>2026-04-12T16:15:23.998Z</time></trkpt><trkpt lat="45.49620043358297" lon="10.858945640987878"><ele>110.0</ele><time>2026-04-12T16:15:24.998Z</time></trkpt><trkpt lat="45.49599692244569" lon="10.858794945491804"><ele>108.0</ele><time>2026-04-12T16:15:26Z</time></trkpt><trkpt lat="45.49578622299305" lon="10.858659343393452"><ele>106.0</ele><time>2026-04-12T16:15:27Z</time></trkpt><trkpt lat="45.49556999368675" lon="10.858540565859121"><ele>105.5</ele><time>2026-04-12T16:15:28Z</time></trkpt><trkpt lat="45.49534772561738" lon="10.85843485539405"><ele>105.0</ele><time>2026-04-12T16:15:29Z</time></trkpt><trkpt lat="45.49512073971095" lon="10.858341787186992"><ele>105.0</ele><time>2026-04-12T16:15:30Z</time></trkpt><trkpt lat="45.494890620123286" lon="10.858259400284718"><ele>105.0</ele><time>2026-04-12T16:15:31Z</time></trkpt><trkpt lat="45.49465818722537" lon="10.858191973148921"><ele>104.5</ele><time>2026-04-12T16:15:32Z</time></trkpt><trkpt lat="45.4944237450651" lon="10.858146674367633"><ele>104.0</ele><time>2026-04-12T16:15:33Z</time></trkpt><trkpt lat="45.49418567202499" lon="10.858120509889064"><ele>104.0</ele><time>2026-04-12T16:15:34Z</time></trkpt><trkpt lat="45.49394757891943" lon="10.858111655973438"><ele>104.0</ele><time>2026-04-12T16:15:35Z</time></trkpt><trkpt lat="45.49370984231132" lon="10.85811693464518"><ele>104.5</ele><time>2026-04-12T16:15:36Z</time></trkpt><trkpt lat="45.493471849842386" lon="10.858135003559754"><ele>105.0</ele><time>2026-04-12T16:15:37Z</time></trkpt><trkpt lat="45.493233452927754" lon="10.858158823149882"><ele>105.0</ele><time>2026-04-12T16:15:38Z</time></trkpt><trkpt lat="45.4929968657638" lon="10.858177020307206"><ele>105.0</ele><time>2026-04-12T16:15:39Z</time></trkpt><trkpt lat="45.49275976196185" lon="10.858194496614574"><ele>104.5</ele><time>2026-04-12T16:15:40Z</time></trkpt><trkpt lat="45.49252158379649" lon="10.858210313182886"><ele>104.0</ele><time>2026-04-12T16:15:41Z</time></trkpt><trkpt lat="45.4922812642813" lon="10.858225086633023"><ele>101.5</ele><time>2026-04-12T16:15:42Z</time></trkpt><trkpt lat="45.4920393160348" lon="10.858241638292371"><ele>99.0</ele><time>2026-04-12T16:15:43Z</time></trkpt><trkpt lat="45.491792739216635" lon="10.858259380253136"><ele>99.0</ele><time>2026-04-12T16:15:44Z</time></trkpt><trkpt lat="45.49154518939314" lon="10.858283637110905"><ele>99.0</ele><time>2026-04-12T16:15:45Z</time></trkpt><trkpt lat="45.491298069253084" lon="10.858308303164677"><ele>96.0</ele><time>2026-04-12T16:15:46Z</time></trkpt><trkpt lat="45.49104887913721" lon="10.858333452744295"><ele>93.0</ele><time>2026-04-12T16:15:47Z</time></trkpt><trkpt lat="45.49079885865057" lon="10.858356365412657"><ele>93.0</ele><time>2026-04-12T16:15:48Z</time></trkpt><trkpt lat="45.490563818146605" lon="10.858374258220122"><ele>93.0</ele><time>2026-04-12T16:15:49Z</time></trkpt><trkpt lat="45.49033610170017" lon="10.858391340691387"><ele>92.66666666666667</ele><time>2026-04-12T16:15:50Z</time></trkpt><trkpt lat="45.490120077413955" lon="10.858404611368393"><ele>92.33333333333334</ele><time>2026-04-12T16:15:51Z</time></trkpt><trkpt lat="45.48991342733901" lon="10.858414421104102"><ele>92.0</ele><time>2026-04-12T16:15:52Z</time></trkpt><trkpt lat="45.48971550135249" lon="10.858423802303713"><ele>92.66666666666667</ele><time>2026-04-12T16:15:53Z</time></trkpt><trkpt lat="45.48952624593254" lon="10.858429942583482"><ele>93.33333333333333</ele><time>2026-04-12T16:15:54Z</time></trkpt><trkpt lat="45.48933941023994" lon="10.858437187651724"><ele>94.0</ele><time>2026-04-12T16:15:55Z</time></trkpt><trkpt lat="45.489141252330086" lon="10.858451527945983"><ele>94.0</ele><time>2026-04-12T16:15:56Z</time></trkpt><trkpt lat="45.48892839507516" lon="10.858466921328505"><ele>94.0</ele><time>2026-04-12T16:15:57Z</time></trkpt><trkpt lat="45.48870896529681" lon="10.858481828284134"><ele>94.0</ele><time>2026-04-12T16:15:58Z</time></trkpt><trkpt lat="45.488469445094296" lon="10.858503187825129"><ele>93.5</ele><time>2026-04-12T16:15:59Z</time></trkpt><trkpt lat="45.48822082063798" lon="10.858522190078872"><ele>93.0</ele><time>2026-04-12T16:16:00Z</time></trkpt><trkpt lat="45.487968012852185" lon="10.858546582866055"><ele>92.5</ele><time>2026-04-12T16:16:01Z</time></trkpt><trkpt lat="45.487711260908355" lon="10.858574527298101"><ele>92.0</ele><time>2026-04-12T16:16:02Z</time></trkpt><trkpt lat="45.48745290191917" lon="10.858602897173716"><ele>92.0</ele><time>2026-04-12T16:16:03Z</time></trkpt><trkpt lat="45.48719165678057" lon="10.85863148379817"><ele>92.0</ele><time>2026-04-12T16:16:04Z</time></trkpt><trkpt lat="45.486928770923946" lon="10.858657692995925"><ele>86.0</ele><time>2026-04-12T16:16:05Z</time></trkpt><trkpt lat="45.48666600387793" lon="10.858681085823767"><ele>80.0</ele><time>2026-04-12T16:16:06Z</time></trkpt><trkpt lat="45.486405008350864" lon="10.858703409904667"><ele>78.5</ele><time>2026-04-12T16:16:07Z</time></trkpt><trkpt lat="45.48613988591884" lon="10.858728761694605"><ele>77.0</ele><time>2026-04-12T16:16:07.999Z</time></trkpt><trkpt lat="45.485880357181244" lon="10.858752832934433"><ele>77.0</ele><time>2026-04-12T16:16:08.999Z</time></trkpt><trkpt lat="45.48562109998267" lon="10.85877696122911"><ele>77.0</ele><time>2026-04-12T16:16:09.999Z</time></trkpt><trkpt lat="45.48535594521492" lon="10.858801767214638"><ele>77.5</ele><time>2026-04-12T16:16:10.999Z</time></trkpt><trkpt lat="45.485083784243386" lon="10.858827149885812"><ele>78.0</ele><time>2026-04-12T16:16:11.999Z</time></trkpt><trkpt lat="45.48480909577835" lon="10.85885240455013"><ele>78.5</ele><time>2026-04-12T16:16:12.999Z</time></trkpt><trkpt lat="45.4845283395272" lon="10.85887880448958"><ele>79.0</ele><time>2026-04-12T16:16:13.999Z</time></trkpt><trkpt lat="45.48424275605169" lon="10.858903870267756"><ele>79.0</ele><time>2026-04-12T16:16:14.999Z</time></trkpt><trkpt lat="45.48395589615528" lon="10.858923363975709"><ele>79.0</ele><time>2026-04-12T16:16:15.999Z</time></trkpt><trkpt lat="45.48366359517387" lon="10.858936464501607"><ele>78.0</ele><time>2026-04-12T16:16:16.999Z</time></trkpt><trkpt lat="45.48337567787598" lon="10.858953256894385"><ele>77.0</ele><time>2026-04-12T16:16:17.999Z</time></trkpt><trkpt lat="45.48308854102347" lon="10.858977331132865"><ele>77.5</ele><time>2026-04-12T16:16:18.999Z</time></trkpt><trkpt lat="45.482802647298826" lon="10.859001906761995"><ele>78.0</ele><time>2026-04-12T16:16:19.999Z</time></trkpt><trkpt lat="45.48252131050798" lon="10.85902469387867"><ele>78.0</ele><time>2026-04-12T16:16:20.999Z</time></trkpt><trkpt lat="45.48224422286735" lon="10.859044991605701"><ele>78.0</ele><time>2026-04-12T16:16:21.999Z</time></trkpt><trkpt lat="45.48197224368612" lon="10.859064145994699"><ele>79.0</ele><time>2026-04-12T16:16:22.999Z</time></trkpt><trkpt lat="45.48170398019855" lon="10.859084523880504"><ele>80.0</ele><time>2026-04-12T16:16:23.999Z</time></trkpt><trkpt lat="45.481437682575" lon="10.859109559089589"><ele>81.0</ele><time>2026-04-12T16:16:24.999Z</time></trkpt><trkpt lat="45.48117125920357" lon="10.8591369387698"><ele>82.0</ele><time>2026-04-12T16:16:25.999Z</time></trkpt><trkpt lat="45.48090529205545" lon="10.859165754748872"><ele>82.0</ele><time>2026-04-12T16:16:26.999Z</time></trkpt><trkpt lat="45.48063069056529" lon="10.859200993431648"><ele>82.0</ele><time>2026-04-12T16:16:27.999Z</time></trkpt><trkpt lat="45.48033874794606" lon="10.859233848738855"><ele>82.0</ele><time>2026-04-12T16:16:28.999Z</time></trkpt><trkpt lat="45.480027601816964" lon="10.859265135396367"><ele>82.0</ele><time>2026-04-12T16:16:29.999Z</time></trkpt><trkpt lat="45.479705091998774" lon="10.859286189751343"><ele>80.5</ele><time>2026-04-12T16:16:30.999Z</time></trkpt><trkpt lat="45.4793856013025" lon="10.859317528066073"><ele>79.0</ele><time>2026-04-12T16:16:31.999Z</time></trkpt><trkpt lat="45.47909883136012" lon="10.859372499230233"><ele>79.0</ele><time>2026-04-12T16:16:32.999Z</time></trkpt><trkpt lat="45.478822001950924" lon="10.859464898097022"><ele>79.0</ele><time>2026-04-12T16:16:33.999Z</time></trkpt><trkpt lat="45.47853990783877" lon="10.859596909542432"><ele>78.0</ele><time>2026-04-12T16:16:34.999Z</time></trkpt><trkpt lat="45.478255529275685" lon="10.859749914806178"><ele>77.0</ele><time>2026-04-12T16:16:35.999Z</time></trkpt><trkpt lat="45.477969434443594" lon="10.85991090233407"><ele>80.0</ele><time>2026-04-12T16:16:36.999Z</time></trkpt><trkpt lat="45.477683419002005" lon="10.860075432298089"><ele>83.0</ele><time>2026-04-12T16:16:37.999Z</time></trkpt><trkpt lat="45.47739379667153" lon="10.860240363472"><ele>83.5</ele><time>2026-04-12T16:16:38.999Z</time></trkpt><trkpt lat="45.477109524896626" lon="10.860397638576696"><ele>84.0</ele><time>2026-04-12T16:16:39.999Z</time></trkpt><trkpt lat="45.47683742641093" lon="10.860544265571397"><ele>86.5</ele><time>2026-04-12T16:16:40.999Z</time></trkpt><trkpt lat="45.47655834541674" lon="10.860704489341275"><ele>89.0</ele><time>2026-04-12T16:16:41.999Z</time></trkpt><trkpt lat="45.47630312622284" lon="10.860852537050722"><ele>88.5</ele><time>2026-04-12T16:16:42.999Z</time></trkpt><trkpt lat="45.476066285185986" lon="10.860989286865856"><ele>88.0</ele><time>2026-04-12T16:16:43.999Z</time></trkpt><trkpt lat="45.47584520749981" lon="10.861111678302812"><ele>88.0</ele><time>2026-04-12T16:16:44.999Z</time></trkpt><trkpt lat="45.47563834169048" lon="10.861224433764924"><ele>88.0</ele><time>2026-04-12T16:16:45.999Z</time></trkpt><trkpt lat="45.47543582068001" lon="10.861333557039723"><ele>88.0</ele><time>2026-04-12T16:16:46.999Z</time></trkpt><trkpt lat="45.47524044157579" lon="10.86144207547925"><ele>88.0</ele><time>2026-04-12T16:16:47.999Z</time></trkpt><trkpt lat="45.4750653588482" lon="10.861548686848877"><ele>88.0</ele><time>2026-04-12T16:16:48.999Z</time></trkpt><trkpt lat="45.47488680157058" lon="10.861634077584934"><ele>88.0</ele><time>2026-04-12T16:16:49.999Z</time></trkpt><trkpt lat="45.47470550396739" lon="10.861739197137886"><ele>87.66666666666666</ele><time>2026-04-12T16:16:50.999Z</time></trkpt><trkpt lat="45.47452560872331" lon="10.861836328834825"><ele>87.33333333333333</ele><time>2026-04-12T16:16:51.999Z</time></trkpt><trkpt lat="45.47434463115602" lon="10.861938087721057"><ele>87.0</ele><time>2026-04-12T16:16:52.999Z</time></trkpt><trkpt lat="45.4741638145102" lon="10.862038879625333"><ele>87.0</ele><time>2026-04-12T16:16:53.999Z</time></trkpt><trkpt lat="45.473982230028305" lon="10.86213885016802"><ele>87.0</ele><time>2026-04-12T16:16:54.999Z</time></trkpt><trkpt lat="45.47379976344377" lon="10.862241177742948"><ele>87.0</ele><time>2026-04-12T16:16:55.999Z</time></trkpt><trkpt lat="45.473616910551456" lon="10.862344790713756"><ele>87.0</ele><time>2026-04-12T16:16:56.999Z</time></trkpt><trkpt lat="45.473431433280325" lon="10.862447308255069"><ele>87.0</ele><time>2026-04-12T16:16:57.999Z</time></trkpt><trkpt lat="45.47324281791724" lon="10.862546942336637"><ele>87.0</ele><time>2026-04-12T16:16:58.999Z</time></trkpt><trkpt lat="45.473050017137545" lon="10.862653081629851"><ele>87.33333333333333</ele><time>2026-04-12T16:16:59.999Z</time></trkpt><trkpt lat="45.472858987288106" lon="10.862759637469109"><ele>87.66666666666666</ele><time>2026-04-12T16:17:00.999Z</time></trkpt><trkpt lat="45.472667101678354" lon="10.862861792249682"><ele>88.0</ele><time>2026-04-12T16:17:01.999Z</time></trkpt><trkpt lat="45.472476424894786" lon="10.862968045555707"><ele>88.0</ele><time>2026-04-12T16:17:02.999Z</time></trkpt><trkpt lat="45.472293280017276" lon="10.863080560275549"><ele>88.0</ele><time>2026-04-12T16:17:03.999Z</time></trkpt><trkpt lat="45.47210516070864" lon="10.863180979676269"><ele>88.0</ele><time>2026-04-12T16:17:04.998Z</time></trkpt><trkpt lat="45.471924645702515" lon="10.863289140039642"><ele>88.33333333333333</ele><time>2026-04-12T16:17:05.998Z</time></trkpt><trkpt lat="45.471728680382995" lon="10.863400071435178"><ele>88.66666666666667</ele><time>2026-04-12T16:17:06.998Z</time></trkpt><trkpt lat="45.471526562376674" lon="10.863524189497893"><ele>89.0</ele><time>2026-04-12T16:17:07.998Z</time></trkpt><trkpt lat="45.471308951698845" lon="10.863655647632097"><ele>90.5</ele><time>2026-04-12T16:17:08.998Z</time></trkpt><trkpt lat="45.47108887850027" lon="10.863780699798747"><ele>92.0</ele><time>2026-04-12T16:17:09.998Z</time></trkpt><trkpt lat="45.47087080852968" lon="10.863904466770892"><ele>92.0</ele><time>2026-04-12T16:17:10.998Z</time></trkpt><trkpt lat="45.47064094855536" lon="10.864029522334391"><ele>92.0</ele><time>2026-04-12T16:17:11.998Z</time></trkpt><trkpt lat="45.47041583041102" lon="10.86415657806692"><ele>93.5</ele><time>2026-04-12T16:17:12.998Z</time></trkpt><trkpt lat="45.470182186910215" lon="10.864282007545729"><ele>95.0</ele><time>2026-04-12T16:17:13.998Z</time></trkpt><trkpt lat="45.4699504496409" lon="10.864408655602329"><ele>95.0</ele><time>2026-04-12T16:17:14.998Z</time></trkpt><trkpt lat="45.4697153905625" lon="10.864535947818592"><ele>95.0</ele><time>2026-04-12T16:17:15.998Z</time></trkpt><trkpt lat="45.469479223768815" lon="10.864661869228147"><ele>100.5</ele><time>2026-04-12T16:17:16.998Z</time></trkpt><trkpt lat="45.46923818534084" lon="10.864795256604777"><ele>106.0</ele><time>2026-04-12T16:17:17.998Z</time></trkpt><trkpt lat="45.46900132070305" lon="10.864927819679787"><ele>108.0</ele><time>2026-04-12T16:17:18.998Z</time></trkpt><trkpt lat="45.46876278709489" lon="10.865059900685809"><ele>110.0</ele><time>2026-04-12T16:17:19.998Z</time></trkpt><trkpt lat="45.46852146357573" lon="10.865193124818267"><ele>110.0</ele><time>2026-04-12T16:17:20.998Z</time></trkpt><trkpt lat="45.468280270480555" lon="10.865327227387182"><ele>110.0</ele><time>2026-04-12T16:17:21.998Z</time></trkpt><trkpt lat="45.46803539232963" lon="10.865463465403097"><ele>110.0</ele><time>2026-04-12T16:17:22.998Z</time></trkpt><trkpt lat="45.46778589608921" lon="10.86559451935741"><ele>110.0</ele><time>2026-04-12T16:17:23.998Z</time></trkpt><trkpt lat="45.467536524939256" lon="10.865724331919608"><ele>110.0</ele><time>2026-04-12T16:17:24.998Z</time></trkpt><trkpt lat="45.46728057866776" lon="10.86585317294523"><ele>110.0</ele><time>2026-04-12T16:17:25.998Z</time></trkpt><trkpt lat="45.46702730231453" lon="10.865993720536883"><ele>110.0</ele><time>2026-04-12T16:17:26.998Z</time></trkpt><trkpt lat="45.466776159806365" lon="10.866126738149333"><ele>110.0</ele><time>2026-04-12T16:17:27.998Z</time></trkpt><trkpt lat="45.466525328993306" lon="10.866259780449035"><ele>111.0</ele><time>2026-04-12T16:17:28.998Z</time></trkpt><trkpt lat="45.466276148284926" lon="10.866395747288383"><ele>112.0</ele><time>2026-04-12T16:17:29.998Z</time></trkpt><trkpt lat="45.466028606871554" lon="10.866533746724711"><ele>112.0</ele><time>2026-04-12T16:17:30.998Z</time></trkpt><trkpt lat="45.465782325483474" lon="10.8666754657007"><ele>112.0</ele><time>2026-04-12T16:17:32Z</time></trkpt><trkpt lat="45.465532613693746" lon="10.866809663620698"><ele>111.0</ele><time>2026-04-12T16:17:33Z</time></trkpt><trkpt lat="45.4652851139455" lon="10.86694402489267"><ele>110.0</ele><time>2026-04-12T16:17:34Z</time></trkpt><trkpt lat="45.46503856960738" lon="10.867076780054125"><ele>110.0</ele><time>2026-04-12T16:17:35Z</time></trkpt><trkpt lat="45.464785995040515" lon="10.867222209082872"><ele>110.0</ele><time>2026-04-12T16:17:36Z</time></trkpt><trkpt lat="45.46453419406954" lon="10.867358431963366"><ele>111.5</ele><time>2026-04-12T16:17:37Z</time></trkpt><trkpt lat="45.46428484628137" lon="10.867498840555928"><ele>113.0</ele><time>2026-04-12T16:17:38Z</time></trkpt><trkpt lat="45.464039723035896" lon="10.86763899180365"><ele>113.5</ele><time>2026-04-12T16:17:39Z</time></trkpt><trkpt lat="45.463793925690695" lon="10.86777874751834"><ele>114.0</ele><time>2026-04-12T16:17:40Z</time></trkpt><trkpt lat="45.463548184608165" lon="10.867917722214312"><ele>115.0</ele><time>2026-04-12T16:17:41Z</time></trkpt><trkpt lat="45.46330602304281" lon="10.868053889139222"><ele>116.0</ele><time>2026-04-12T16:17:42Z</time></trkpt><trkpt lat="45.46306565959206" lon="10.868194740258692"><ele>115.0</ele><time>2026-04-12T16:17:43Z</time></trkpt><trkpt lat="45.46282095110442" lon="10.868339252717407"><ele>114.0</ele><time>2026-04-12T16:17:44Z</time></trkpt><trkpt lat="45.46257786812708" lon="10.868480530834445"><ele>112.5</ele><time>2026-04-12T16:17:45Z</time></trkpt><trkpt lat="45.46233151768778" lon="10.868623687067547"><ele>111.0</ele><time>2026-04-12T16:17:46Z</time></trkpt><trkpt lat="45.46209435689923" lon="10.868793468838126"><ele>111.0</ele><time>2026-04-12T16:17:47Z</time></trkpt><trkpt lat="45.461867623932" lon="10.86897855672402"><ele>111.0</ele><time>2026-04-12T16:17:48Z</time></trkpt><trkpt lat="45.461640198145396" lon="10.869179150639853"><ele>110.5</ele><time>2026-04-12T16:17:49Z</time></trkpt><trkpt lat="45.461422052676646" lon="10.869384768365135"><ele>110.0</ele><time>2026-04-12T16:17:50Z</time></trkpt><trkpt lat="45.46121264308283" lon="10.869602640985173"><ele>109.5</ele><time>2026-04-12T16:17:51Z</time></trkpt><trkpt lat="45.46101278451483" lon="10.869836569660468"><ele>109.0</ele><time>2026-04-12T16:17:52Z</time></trkpt><trkpt lat="45.460815642018524" lon="10.870074414558866"><ele>109.5</ele><time>2026-04-12T16:17:53Z</time></trkpt><trkpt lat="45.46063167712424" lon="10.870318492355379"><ele>110.0</ele><time>2026-04-12T16:17:54Z</time></trkpt><trkpt lat="45.46046049728663" lon="10.870578684511973"><ele>110.0</ele><time>2026-04-12T16:17:55Z</time></trkpt><trkpt lat="45.46029740676369" lon="10.870841393101815"><ele>110.0</ele><time>2026-04-12T16:17:56Z</time></trkpt><trkpt lat="45.46014212091117" lon="10.871114766550775"><ele>110.5</ele><time>2026-04-12T16:17:57Z</time></trkpt><trkpt lat="45.45999150499584" lon="10.871392115445014"><ele>111.0</ele><time>2026-04-12T16:17:58Z</time></trkpt><trkpt lat="45.45985192254867" lon="10.871665870156379"><ele>110.0</ele><time>2026-04-12T16:17:59Z</time></trkpt><trkpt lat="45.459711473865454" lon="10.871942204233163"><ele>109.0</ele><time>2026-04-12T16:18:00Z</time></trkpt><trkpt lat="45.45957525246014" lon="10.872209045152344"><ele>109.0</ele><time>2026-04-12T16:18:01Z</time></trkpt><trkpt lat="45.45944031934075" lon="10.872471613414703"><ele>109.0</ele><time>2026-04-12T16:18:02Z</time></trkpt><trkpt lat="45.45931284860074" lon="10.872725315479443"><ele>109.0</ele><time>2026-04-12T16:18:03Z</time></trkpt><trkpt lat="45.45918876028564" lon="10.872969615692531"><ele>109.0</ele><time>2026-04-12T16:18:04Z</time></trkpt><trkpt lat="45.45906910637506" lon="10.87320385019257"><ele>109.0</ele><time>2026-04-12T16:18:05Z</time></trkpt><trkpt lat="45.45894789417484" lon="10.873444288445967"><ele>109.0</ele><time>2026-04-12T16:18:06Z</time></trkpt><trkpt lat="45.45883055516591" lon="10.873677409937981"><ele>108.33333333333334</ele><time>2026-04-12T16:18:07Z</time></trkpt><trkpt lat="45.4587168795236" lon="10.87390927058168"><ele>107.66666666666666</ele><time>2026-04-12T16:18:08Z</time></trkpt><trkpt lat="45.458600372547394" lon="10.874137778328409"><ele>107.0</ele><time>2026-04-12T16:18:09Z</time></trkpt><trkpt lat="45.458485265246004" lon="10.874369052612387"><ele>106.33333333333333</ele><time>2026-04-12T16:18:10Z</time></trkpt><trkpt lat="45.45836787925107" lon="10.874592449156204"><ele>105.66666666666666</ele><time>2026-04-12T16:18:11Z</time></trkpt><trkpt lat="45.45825143364173" lon="10.874824192446459"><ele>105.0</ele><time>2026-04-12T16:18:12Z</time></trkpt><trkpt lat="45.458135046355395" lon="10.875053800869772"><ele>105.33333333333334</ele><time>2026-04-12T16:18:13Z</time></trkpt><trkpt lat="45.458023649373665" lon="10.875281863668064"><ele>105.66666666666667</ele><time>2026-04-12T16:18:13.999Z</time></trkpt><trkpt lat="45.457909463176286" lon="10.875507593825112"><ele>106.0</ele><time>2026-04-12T16:18:14.999Z</time></trkpt><trkpt lat="45.45779439067145" lon="10.875733564296606"><ele>105.33333333333334</ele><time>2026-04-12T16:18:15.999Z</time></trkpt><trkpt lat="45.45768088140858" lon="10.875961991369378"><ele>104.66666666666666</ele><time>2026-04-12T16:18:16.999Z</time></trkpt><trkpt lat="45.45756536471461" lon="10.876188686853645"><ele>104.0</ele><time>2026-04-12T16:18:17.999Z</time></trkpt><trkpt lat="45.45745177955002" lon="10.87641740408219"><ele>104.0</ele><time>2026-04-12T16:18:18.999Z</time></trkpt><trkpt lat="45.45734148081105" lon="10.876642121017573"><ele>104.0</ele><time>2026-04-12T16:18:19.999Z</time></trkpt><trkpt lat="45.45723334623571" lon="10.876854113199347"><ele>104.0</ele><time>2026-04-12T16:18:20.999Z</time></trkpt><trkpt lat="45.457129241282026" lon="10.877055055731365"><ele>103.33333333333333</ele><time>2026-04-12T16:18:21.999Z</time></trkpt><trkpt lat="45.45702960822942" lon="10.877240709885404"><ele>102.66666666666666</ele><time>2026-04-12T16:18:22.999Z</time></trkpt><trkpt lat="45.456928424843355" lon="10.877419811545014"><ele>102.0</ele><time>2026-04-12T16:18:23.999Z</time></trkpt><trkpt lat="45.456826095021285" lon="10.87758308147444"><ele>101.5</ele><time>2026-04-12T16:18:24.999Z</time></trkpt><trkpt lat="45.4567211391354" lon="10.877738845436294"><ele>101.0</ele><time>2026-04-12T16:18:25.999Z</time></trkpt><trkpt lat="45.45661132806836" lon="10.877882847014217"><ele>100.5</ele><time>2026-04-12T16:18:26.999Z</time></trkpt><trkpt lat="45.45649860252707" lon="10.87802120057452"><ele>100.0</ele><time>2026-04-12T16:18:27.999Z</time></trkpt><trkpt lat="45.45637444684458" lon="10.87813532125694"><ele>100.0</ele><time>2026-04-12T16:18:28.999Z</time></trkpt><trkpt lat="45.456248500244826" lon="10.878225380169303"><ele>100.0</ele><time>2026-04-12T16:18:29.999Z</time></trkpt><trkpt lat="45.45612557908829" lon="10.878283580232614"><ele>100.0</ele><time>2026-04-12T16:18:30.999Z</time></trkpt><trkpt lat="45.455989687865184" lon="10.878320106556483"><ele>100.0</ele><time>2026-04-12T16:18:31.999Z</time></trkpt><trkpt lat="45.45585984433356" lon="10.878327281778747"><ele>100.0</ele><time>2026-04-12T16:18:32.999Z</time></trkpt><trkpt lat="45.45572545454544" lon="10.878298945243731"><ele>100.0</ele><time>2026-04-12T16:18:33.999Z</time></trkpt><trkpt lat="45.4555876638565" lon="10.878234438141202"><ele>100.0</ele><time>2026-04-12T16:18:34.999Z</time></trkpt><trkpt lat="45.45545497535565" lon="10.878143385874255"><ele>100.0</ele><time>2026-04-12T16:18:35.999Z</time></trkpt><trkpt lat="45.455332890448034" lon="10.878042910012708"><ele>100.5</ele><time>2026-04-12T16:18:36.999Z</time></trkpt><trkpt lat="45.45522718864269" lon="10.877949449178342"><ele>101.0</ele><time>2026-04-12T16:18:37.999Z</time></trkpt><trkpt lat="45.45513145725284" lon="10.877857691418004"><ele>101.5</ele><time>2026-04-12T16:18:38.999Z</time></trkpt><trkpt lat="45.455034563861126" lon="10.877747514612008"><ele>102.0</ele><time>2026-04-12T16:18:39.999Z</time></trkpt><trkpt lat="45.454954379622066" lon="10.877579863757887"><ele>102.0</ele><time>2026-04-12T16:18:40.999Z</time></trkpt><trkpt lat="45.454880642793306" lon="10.877421208100746"><ele>102.0</ele><time>2026-04-12T16:18:41.999Z</time></trkpt><trkpt lat="45.45479317978662" lon="10.877308709397145"><ele>102.0</ele><time>2026-04-12T16:18:42.999Z</time></trkpt><trkpt lat="45.45468270073476" lon="10.8772425425809"><ele>102.0</ele><time>2026-04-12T16:18:43.999Z</time></trkpt><trkpt lat="45.45455293580405" lon="10.877224132931374"><ele>102.25</ele><time>2026-04-12T16:18:44.999Z</time></trkpt><trkpt lat="45.45442852005572" lon="10.877252206394065"><ele>102.5</ele><time>2026-04-12T16:18:45.999Z</time></trkpt><trkpt lat="45.45432708559541" lon="10.877333091199311"><ele>102.75</ele><time>2026-04-12T16:18:46.999Z</time></trkpt><trkpt lat="45.45425192389885" lon="10.877445187733944"><ele>103.0</ele><time>2026-04-12T16:18:47.999Z</time></trkpt><trkpt lat="45.45419468600329" lon="10.877589241903507"><ele>103.25</ele><time>2026-04-12T16:18:48.999Z</time></trkpt><trkpt lat="45.454151578143716" lon="10.877741770306283"><ele>103.5</ele><time>2026-04-12T16:18:49.999Z</time></trkpt><trkpt lat="45.454105105514856" lon="10.877907350764094"><ele>103.75</ele><time>2026-04-12T16:18:50.999Z</time></trkpt><trkpt lat="45.45405633395402" lon="10.878075388469865"><ele>104.0</ele><time>2026-04-12T16:18:51.999Z</time></trkpt><trkpt lat="45.45397358013245" lon="10.87819913051815"><ele>104.0</ele><time>2026-04-12T16:18:52.999Z</time></trkpt><trkpt lat="45.45385138240199" lon="10.878295560952314"><ele>104.0</ele><time>2026-04-12T16:18:53.999Z</time></trkpt><trkpt lat="45.4537217239104" lon="10.878386890881568"><ele>104.0</ele><time>2026-04-12T16:18:54.999Z</time></trkpt><trkpt lat="45.453624020724995" lon="10.878500569396868"><ele>104.0</ele><time>2026-04-12T16:18:55.999Z</time></trkpt><trkpt lat="45.45353504927565" lon="10.878669259314005"><ele>103.66666666666666</ele><time>2026-04-12T16:18:56.999Z</time></trkpt><trkpt lat="45.453450605677894" lon="10.878872171015836"><ele>103.33333333333334</ele><time>2026-04-12T16:18:57.999Z</time></trkpt><trkpt lat="45.453342162914495" lon="10.879071977968387"><ele>103.0</ele><time>2026-04-12T16:18:58.999Z</time></trkpt><trkpt lat="45.45324437869203" lon="10.879281642399285"><ele>102.33333333333334</ele><time>2026-04-12T16:18:59.999Z</time></trkpt><trkpt lat="45.45314686023186" lon="10.879496613404775"><ele>101.66666666666666</ele><time>2026-04-12T16:19:00.999Z</time></trkpt><trkpt lat="45.45304862341909" lon="10.87971317743526"><ele>101.0</ele><time>2026-04-12T16:19:01.999Z</time></trkpt><trkpt lat="45.45294687381421" lon="10.879937491401876"><ele>101.0</ele><time>2026-04-12T16:19:02.999Z</time></trkpt><trkpt lat="45.452847510470676" lon="10.880158658569464"><ele>101.0</ele><time>2026-04-12T16:19:03.999Z</time></trkpt><trkpt lat="45.45275954463029" lon="10.880391924746846"><ele>101.0</ele><time>2026-04-12T16:19:04.999Z</time></trkpt><trkpt lat="45.45265235960967" lon="10.880599593524094"><ele>101.0</ele><time>2026-04-12T16:19:05.999Z</time></trkpt><trkpt lat="45.452523465352385" lon="10.880768111077005"><ele>101.0</ele><time>2026-04-12T16:19:06.999Z</time></trkpt><trkpt lat="45.45239827055835" lon="10.880955384523176"><ele>101.0</ele><time>2026-04-12T16:19:07.999Z</time></trkpt><trkpt lat="45.4522712704208" lon="10.881139722806344"><ele>101.0</ele><time>2026-04-12T16:19:08.999Z</time></trkpt><trkpt lat="45.45215804078191" lon="10.881324030077538"><ele>101.0</ele><time>2026-04-12T16:19:09.999Z</time></trkpt><trkpt lat="45.45206493851175" lon="10.881458561622967"><ele>101.0</ele><time>2026-04-12T16:19:10.998Z</time></trkpt><trkpt lat="45.45198480640626" lon="10.88157145771153"><ele>101.0</ele><time>2026-04-12T16:19:11.998Z</time></trkpt><trkpt lat="45.45192648604105" lon="10.88167350510926"><ele>100.5</ele><time>2026-04-12T16:19:12.998Z</time></trkpt><trkpt lat="45.45188198661368" lon="10.881804362767804"><ele>100.0</ele><time>2026-04-12T16:19:13.998Z</time></trkpt><trkpt lat="45.45191680099887" lon="10.882018119248707"><ele>99.5</ele><time>2026-04-12T16:19:14.998Z</time></trkpt><trkpt lat="45.45195294534724" lon="10.882243034120355"><ele>99.0</ele><time>2026-04-12T16:19:15.998Z</time></trkpt><trkpt lat="45.4519414984978" lon="10.882426729205534"><ele>99.5</ele><time>2026-04-12T16:19:16.998Z</time></trkpt><trkpt lat="45.45192723778995" lon="10.88260785686293"><ele>100.0</ele><time>2026-04-12T16:19:17.998Z</time></trkpt><trkpt lat="45.45182158087348" lon="10.882755651050902"><ele>100.5</ele><time>2026-04-12T16:19:18.998Z</time></trkpt><trkpt lat="45.45170484315832" lon="10.882922379540345"><ele>101.0</ele><time>2026-04-12T16:19:19.998Z</time></trkpt><trkpt lat="45.45157839817666" lon="10.883113524825704"><ele>101.0</ele><time>2026-04-12T16:19:20.998Z</time></trkpt><trkpt lat="45.45143269300756" lon="10.883297792820295"><ele>101.0</ele><time>2026-04-12T16:19:21.998Z</time></trkpt><trkpt lat="45.45128971180651" lon="10.883491649111722"><ele>101.0</ele><time>2026-04-12T16:19:22.998Z</time></trkpt><trkpt lat="45.45114193967925" lon="10.88369426806343"><ele>101.33333333333333</ele><time>2026-04-12T16:19:23.998Z</time></trkpt><trkpt lat="45.45101222293892" lon="10.883890230660974"><ele>101.66666666666666</ele><time>2026-04-12T16:19:24.998Z</time></trkpt><trkpt lat="45.450906138285234" lon="10.884083111787573"><ele>102.0</ele><time>2026-04-12T16:19:25.998Z</time></trkpt><trkpt lat="45.45082017835926" lon="10.884287661190093"><ele>101.33333333333334</ele><time>2026-04-12T16:19:26.998Z</time></trkpt><trkpt lat="45.45075902900983" lon="10.884521560971807"><ele>100.66666666666667</ele><time>2026-04-12T16:19:27.998Z</time></trkpt><trkpt lat="45.450725739249876" lon="10.88475363998001"><ele>100.0</ele><time>2026-04-12T16:19:28.998Z</time></trkpt><trkpt lat="45.45071065602997" lon="10.88499939217284"><ele>99.33333333333334</ele><time>2026-04-12T16:19:29.998Z</time></trkpt><trkpt lat="45.450714706403154" lon="10.885262249438432"><ele>98.66666666666666</ele><time>2026-04-12T16:19:30.998Z</time></trkpt><trkpt lat="45.450736997431896" lon="10.885539088043572"><ele>98.0</ele><time>2026-04-12T16:19:31.998Z</time></trkpt><trkpt lat="45.45075769715783" lon="10.885831142676048"><ele>98.66666666666666</ele><time>2026-04-12T16:19:32.998Z</time></trkpt><trkpt lat="45.45076408576913" lon="10.886122785706592"><ele>99.33333333333334</ele><time>2026-04-12T16:19:33.998Z</time></trkpt><trkpt lat="45.450776127988625" lon="10.886425130071656"><ele>100.0</ele><time>2026-04-12T16:19:34.998Z</time></trkpt><trkpt lat="45.450772552465324" lon="10.886723334796617"><ele>100.0</ele><time>2026-04-12T16:19:35.998Z</time></trkpt><trkpt lat="45.45079667107019" lon="10.887025068381345"><ele>100.0</ele><time>2026-04-12T16:19:36.998Z</time></trkpt><trkpt lat="45.45080719173204" lon="10.887329695654811"><ele>100.0</ele><time>2026-04-12T16:19:38Z</time></trkpt><trkpt lat="45.45082683006463" lon="10.887636658023927"><ele>99.66666666666667</ele><time>2026-04-12T16:19:39Z</time></trkpt><trkpt lat="45.4508631442446" lon="10.887945115486378"><ele>99.33333333333334</ele><time>2026-04-12T16:19:40Z</time></trkpt><trkpt lat="45.450905446146784" lon="10.88824939423081"><ele>99.0</ele><time>2026-04-12T16:19:41Z</time></trkpt><trkpt lat="45.450954248133876" lon="10.888552390382504"><ele>99.0</ele><time>2026-04-12T16:19:42Z</time></trkpt><trkpt lat="45.450981972573565" lon="10.888849691952917"><ele>99.0</ele><time>2026-04-12T16:19:43Z</time></trkpt><trkpt lat="45.45102472878737" lon="10.889148342216064"><ele>99.0</ele><time>2026-04-12T16:19:44Z</time></trkpt><trkpt lat="45.4510659675075" lon="10.889448890194034"><ele>98.66666666666666</ele><time>2026-04-12T16:19:45Z</time></trkpt><trkpt lat="45.451097465572786" lon="10.889758501444332"><ele>98.33333333333333</ele><time>2026-04-12T16:19:46Z</time></trkpt><trkpt lat="45.45111386378604" lon="10.890064338787004"><ele>98.0</ele><time>2026-04-12T16:19:47Z</time></trkpt><trkpt lat="45.45116429418405" lon="10.890383352421962"><ele>98.0</ele><time>2026-04-12T16:19:48Z</time></trkpt><trkpt lat="45.45117472846652" lon="10.890698652382383"><ele>98.0</ele><time>2026-04-12T16:19:49Z</time></trkpt><trkpt lat="45.45118215828458" lon="10.891020608634687"><ele>98.0</ele><time>2026-04-12T16:19:50Z</time></trkpt><trkpt lat="45.451191927240785" lon="10.891340702714587"><ele>98.0</ele><time>2026-04-12T16:19:51Z</time></trkpt><trkpt lat="45.45120201299776" lon="10.89165988090225"><ele>98.0</ele><time>2026-04-12T16:19:52Z</time></trkpt><trkpt lat="45.451211941729085" lon="10.891979902935555"><ele>98.0</ele><time>2026-04-12T16:19:53Z</time></trkpt><trkpt lat="45.4512216189038" lon="10.89228487518354"><ele>98.0</ele><time>2026-04-12T16:19:54Z</time></trkpt><trkpt lat="45.45122979658507" lon="10.892566418887005"><ele>98.0</ele><time>2026-04-12T16:19:55Z</time></trkpt><trkpt lat="45.45123813772065" lon="10.89281510977579"><ele>98.0</ele><time>2026-04-12T16:19:56Z</time></trkpt><trkpt lat="45.4512475414369" lon="10.893050947586692"><ele>98.33333333333333</ele><time>2026-04-12T16:19:57Z</time></trkpt><trkpt lat="45.45122635432498" lon="10.893270909511733"><ele>98.66666666666666</ele><time>2026-04-12T16:19:58Z</time></trkpt><trkpt lat="45.451219415806314" lon="10.893491246863285"><ele>99.0</ele><time>2026-04-12T16:19:59Z</time></trkpt><trkpt lat="45.451186461736135" lon="10.89368915117249"><ele>99.0</ele><time>2026-04-12T16:20:00Z</time></trkpt><trkpt lat="45.45112930045744" lon="10.89387356784503"><ele>99.0</ele><time>2026-04-12T16:20:01Z</time></trkpt><trkpt lat="45.45108033660466" lon="10.894045658107158"><ele>99.0</ele><time>2026-04-12T16:20:02Z</time></trkpt><trkpt lat="45.45104697131262" lon="10.894193033467866"><ele>99.0</ele><time>2026-04-12T16:20:03Z</time></trkpt><trkpt lat="45.45098427747862" lon="10.894305952028478"><ele>98.80000000000001</ele><time>2026-04-12T16:20:04Z</time></trkpt><trkpt lat="45.45089779464501" lon="10.89440065823871"><ele>98.60000000000001</ele><time>2026-04-12T16:20:05Z</time></trkpt><trkpt lat="45.45085765971383" lon="10.89452367781621"><ele>98.4</ele><time>2026-04-12T16:20:06Z</time></trkpt><trkpt lat="45.45084033223324" lon="10.894662676452553"><ele>98.2</ele><time>2026-04-12T16:20:07Z</time></trkpt><trkpt lat="45.45086816030159" lon="10.8948133784206"><ele>98.0</ele><time>2026-04-12T16:20:08Z</time></trkpt><trkpt lat="45.45094146177061" lon="10.894960804848797"><ele>98.25</ele><time>2026-04-12T16:20:09Z</time></trkpt><trkpt lat="45.451029654819116" lon="10.895092116038864"><ele>98.5</ele><time>2026-04-12T16:20:10Z</time></trkpt><trkpt lat="45.4510766289844" lon="10.895242319312462"><ele>98.75</ele><time>2026-04-12T16:20:11Z</time></trkpt><trkpt lat="45.451090658593415" lon="10.895400958299902"><ele>99.0</ele><time>2026-04-12T16:20:12Z</time></trkpt><trkpt lat="45.45107340738029" lon="10.89553832703942"><ele>99.0</ele><time>2026-04-12T16:20:13Z</time></trkpt><trkpt lat="45.451178578883585" lon="10.895671920276463"><ele>99.0</ele><time>2026-04-12T16:20:14Z</time></trkpt><trkpt lat="45.45119064882592" lon="10.89585760449314"><ele>99.0</ele><time>2026-04-12T16:20:15Z</time></trkpt><trkpt lat="45.45124116243776" lon="10.896069943366275"><ele>99.0</ele><time>2026-04-12T16:20:16Z</time></trkpt><trkpt lat="45.45130193595309" lon="10.896304831365931"><ele>98.75</ele><time>2026-04-12T16:20:17Z</time></trkpt><trkpt lat="45.45135969794373" lon="10.896497668616886"><ele>98.5</ele><time>2026-04-12T16:20:18Z</time></trkpt><trkpt lat="45.45140481527449" lon="10.896656681092333"><ele>98.25</ele><time>2026-04-12T16:20:19Z</time></trkpt><trkpt lat="45.45143858350465" lon="10.8968046647097"><ele>98.0</ele><time>2026-04-12T16:20:20Z</time></trkpt><trkpt lat="45.45146602121054" lon="10.896927036949265"><ele>97.75</ele><time>2026-04-12T16:20:20.999Z</time></trkpt><trkpt lat="45.4514911667352" lon="10.897069266532085"><ele>97.5</ele><time>2026-04-12T16:20:22.999Z</time></trkpt><trkpt lat="45.45137016093579" lon="10.897113938859825"><ele>97.25</ele><time>2026-04-12T16:20:25.999Z</time></trkpt><trkpt lat="45.45125648390022" lon="10.89715345848682"><ele>97.0</ele><time>2026-04-12T16:20:27.999Z</time></trkpt><trkpt lat="45.45124824830508" lon="10.897424330671397"><ele>97.0</ele><time>2026-04-12T16:20:29.999Z</time></trkpt><trkpt lat="45.45121947703558" lon="10.897569321696773"><ele>97.0</ele><time>2026-04-12T16:20:31.999Z</time></trkpt><trkpt lat="45.45121458655583" lon="10.89770214124871"><ele>97.0</ele><time>2026-04-12T16:21:01.999Z</time></trkpt><trkpt lat="45.4512127957118" lon="10.897838238070252"><ele>97.0</ele><time>2026-04-12T16:21:03.999Z</time></trkpt><trkpt lat="45.451211729127685" lon="10.897978296250773"><ele>97.0</ele><time>2026-04-12T16:21:05.999Z</time></trkpt><trkpt lat="45.451221796294284" lon="10.898122357086166"><ele>97.00000000000001</ele><time>2026-04-12T16:21:07.999Z</time></trkpt><trkpt lat="45.45120704870217" lon="10.898216231426881"><ele>97.0</ele><time>2026-04-12T16:21:09.999Z</time></trkpt><trkpt lat="45.451199960743764" lon="10.898311675664377"><ele>97.0</ele><time>2026-04-12T16:21:12.015Z</time></trkpt><trkpt lat="45.451186099167565" lon="10.898421380732312"><ele>97.0</ele><time>2026-04-12T16:21:14.018Z</time></trkpt><trkpt lat="45.45120294678066" lon="10.89851093512593"><ele>97.00000000000001</ele><time>2026-04-12T16:21:17.02Z</time></trkpt><trkpt lat="45.451343585214445" lon="10.898530454196951"><ele>97.0</ele><time>2026-04-12T16:22:21Z</time></trkpt><trkpt lat="45.4512273597364" lon="10.898660011637482"><ele>97.0</ele><time>2026-04-12T16:22:52.999Z</time></trkpt><trkpt lat="45.45114678759228" lon="10.898660955881823"><ele>97.0</ele><time>2026-04-12T16:22:57.999Z</time></trkpt><trkpt lat="45.45107440024993" lon="10.898639854605934"><ele>97.0</ele><time>2026-04-12T16:23:02.999Z</time></trkpt><trkpt lat="45.45103188544543" lon="10.898573198046977"><ele>97.0</ele><time>2026-04-12T16:23:07.999Z</time></trkpt><trkpt lat="45.45104979019728" lon="10.898479243121761"><ele>97.0</ele><time>2026-04-12T16:23:12.999Z</time></trkpt><trkpt lat="45.45111733803527" lon="10.898450410002475"><ele>97.0</ele><time>2026-04-12T16:23:17.999Z</time></trkpt><trkpt lat="45.451186127190354" lon="10.89843468632591"><ele>97.0</ele><time>2026-04-12T16:23:35.998Z</time></trkpt><trkpt lat="45.451100145988995" lon="10.8985156544232"><ele>97.0</ele><time>2026-04-12T16:23:52Z</time></trkpt><trkpt lat="45.45113369651317" lon="10.8984312608494"><ele>97.0</ele><time>2026-04-12T16:23:59Z</time></trkpt></trkseg></trk></gpx>